<?xml version="1.0" encoding="utf-8"?>
<gpx xmlns:xsi="http://www.w3.org/2001/XMLSchema-instance" xmlns:xsd="http://www.w3.org/2001/XMLSchema" version="1.1" creator="Shapelink.com" xmlns="http://www.topografix.com/GPX/1/1" xmlns:gpxtpx="http://www.garmin.com/xmlschemas/TrackPointExtension/v1">
  <metadata>
    <name>Sykling 44.21 km, 2014-06-10</name>
    <desc></desc>
    <author><name>Mikael Blom</name></author> 
    <time>2014-06-10T18:14:07Z</time>
  </metadata>
  <trk>
    <name>Sykling 44.21 km, 2014-06-10</name>
    <trkseg>
      <trkpt lat="59.9787966" lon="17.7393585">
        <ele>39.5513</ele>
        <time>2014-06-10T18:14:07Z</time>
      </trkpt>
      <trkpt lat="59.9787702" lon="17.7393471">
        <ele>39.5513</ele>
        <time>2014-06-10T18:14:08Z</time>
      </trkpt>
      <trkpt lat="59.9787372" lon="17.7393264">
        <ele>39.5513</ele>
        <time>2014-06-10T18:14:09Z</time>
      </trkpt>
      <trkpt lat="59.9786956" lon="17.7392999">
        <ele>39.5513</ele>
        <time>2014-06-10T18:14:10Z</time>
      </trkpt>
      <trkpt lat="59.9786481" lon="17.7392748">
        <ele>40.0321</ele>
        <time>2014-06-10T18:14:11Z</time>
      </trkpt>
      <trkpt lat="59.9785963" lon="17.73926">
        <ele>40.0321</ele>
        <time>2014-06-10T18:14:12Z</time>
      </trkpt>
      <trkpt lat="59.9785422" lon="17.7392507">
        <ele>40.5128</ele>
        <time>2014-06-10T18:14:13Z</time>
      </trkpt>
      <trkpt lat="59.9784863" lon="17.7392419">
        <ele>40.9934</ele>
        <time>2014-06-10T18:14:14Z</time>
      </trkpt>
      <trkpt lat="59.9784299" lon="17.739229">
        <ele>40.9934</ele>
        <time>2014-06-10T18:14:15Z</time>
      </trkpt>
      <trkpt lat="59.9783661" lon="17.7392031">
        <ele>40.9934</ele>
        <time>2014-06-10T18:14:16Z</time>
      </trkpt>
      <trkpt lat="59.9783041" lon="17.73919">
        <ele>40.9934</ele>
        <time>2014-06-10T18:14:17Z</time>
      </trkpt>
      <trkpt lat="59.978244" lon="17.7391839">
        <ele>40.9934</ele>
        <time>2014-06-10T18:14:18Z</time>
      </trkpt>
      <trkpt lat="59.9781822" lon="17.7391766">
        <ele>40.9934</ele>
        <time>2014-06-10T18:14:19Z</time>
      </trkpt>
      <trkpt lat="59.9781232" lon="17.7391653">
        <ele>40.9934</ele>
        <time>2014-06-10T18:14:20Z</time>
      </trkpt>
      <trkpt lat="59.978062" lon="17.7391361">
        <ele>40.5128</ele>
        <time>2014-06-10T18:14:21Z</time>
      </trkpt>
      <trkpt lat="59.9779991" lon="17.7391031">
        <ele>40.5128</ele>
        <time>2014-06-10T18:14:22Z</time>
      </trkpt>
      <trkpt lat="59.9779354" lon="17.7390667">
        <ele>40.0321</ele>
        <time>2014-06-10T18:14:23Z</time>
      </trkpt>
      <trkpt lat="59.9778712" lon="17.7390321">
        <ele>39.5513</ele>
        <time>2014-06-10T18:14:24Z</time>
      </trkpt>
      <trkpt lat="59.9778028" lon="17.7390016">
        <ele>39.5513</ele>
        <time>2014-06-10T18:14:25Z</time>
      </trkpt>
      <trkpt lat="59.9777318" lon="17.7389775">
        <ele>39.5513</ele>
        <time>2014-06-10T18:14:26Z</time>
      </trkpt>
      <trkpt lat="59.977659" lon="17.7389662">
        <ele>39.0707</ele>
        <time>2014-06-10T18:14:27Z</time>
      </trkpt>
      <trkpt lat="59.9775835" lon="17.738971">
        <ele>38.5901</ele>
        <time>2014-06-10T18:14:28Z</time>
      </trkpt>
      <trkpt lat="59.9775048" lon="17.7389897">
        <ele>38.5901</ele>
        <time>2014-06-10T18:14:29Z</time>
      </trkpt>
      <trkpt lat="59.9774223" lon="17.7390195">
        <ele>38.1094</ele>
        <time>2014-06-10T18:14:30Z</time>
      </trkpt>
      <trkpt lat="59.9773378" lon="17.739055">
        <ele>38.1094</ele>
        <time>2014-06-10T18:14:31Z</time>
      </trkpt>
      <trkpt lat="59.9772518" lon="17.7390978">
        <ele>37.6287</ele>
        <time>2014-06-10T18:14:32Z</time>
      </trkpt>
      <trkpt lat="59.9771684" lon="17.7391419">
        <ele>37.6287</ele>
        <time>2014-06-10T18:14:33Z</time>
      </trkpt>
      <trkpt lat="59.9770859" lon="17.739187">
        <ele>37.1481</ele>
        <time>2014-06-10T18:14:34Z</time>
      </trkpt>
      <trkpt lat="59.9770044" lon="17.7392319">
        <ele>36.6675</ele>
        <time>2014-06-10T18:14:35Z</time>
      </trkpt>
      <trkpt lat="59.9769239" lon="17.7392744">
        <ele>36.1868</ele>
        <time>2014-06-10T18:14:36Z</time>
      </trkpt>
      <trkpt lat="59.9768443" lon="17.7393129">
        <ele>35.2255</ele>
        <time>2014-06-10T18:14:37Z</time>
      </trkpt>
      <trkpt lat="59.976763" lon="17.7393497">
        <ele>34.7449</ele>
        <time>2014-06-10T18:14:38Z</time>
      </trkpt>
      <trkpt lat="59.9766802" lon="17.7393909">
        <ele>34.7449</ele>
        <time>2014-06-10T18:14:39Z</time>
      </trkpt>
      <trkpt lat="59.9765987" lon="17.7394455">
        <ele>34.2642</ele>
        <time>2014-06-10T18:14:40Z</time>
      </trkpt>
      <trkpt lat="59.976521" lon="17.7395183">
        <ele>34.2642</ele>
        <time>2014-06-10T18:14:41Z</time>
      </trkpt>
      <trkpt lat="59.9764495" lon="17.7396087">
        <ele>33.7834</ele>
        <time>2014-06-10T18:14:42Z</time>
      </trkpt>
      <trkpt lat="59.9763849" lon="17.7397139">
        <ele>33.7834</ele>
        <time>2014-06-10T18:14:43Z</time>
      </trkpt>
      <trkpt lat="59.9763262" lon="17.7398296">
        <ele>33.7834</ele>
        <time>2014-06-10T18:14:44Z</time>
      </trkpt>
      <trkpt lat="59.976274" lon="17.7399552">
        <ele>34.2642</ele>
        <time>2014-06-10T18:14:45Z</time>
      </trkpt>
      <trkpt lat="59.9762284" lon="17.7400871">
        <ele>34.2642</ele>
        <time>2014-06-10T18:14:46Z</time>
      </trkpt>
      <trkpt lat="59.9761857" lon="17.7402184">
        <ele>34.7449</ele>
        <time>2014-06-10T18:14:47Z</time>
      </trkpt>
      <trkpt lat="59.976143" lon="17.7403461">
        <ele>34.7449</ele>
        <time>2014-06-10T18:14:48Z</time>
      </trkpt>
      <trkpt lat="59.9761005" lon="17.7404726">
        <ele>34.7449</ele>
        <time>2014-06-10T18:14:49Z</time>
      </trkpt>
      <trkpt lat="59.9760596" lon="17.7406008">
        <ele>35.2255</ele>
        <time>2014-06-10T18:14:50Z</time>
      </trkpt>
      <trkpt lat="59.9760205" lon="17.7407299">
        <ele>35.2255</ele>
        <time>2014-06-10T18:14:51Z</time>
      </trkpt>
      <trkpt lat="59.9759837" lon="17.7408586">
        <ele>35.2255</ele>
        <time>2014-06-10T18:14:52Z</time>
      </trkpt>
      <trkpt lat="59.9759492" lon="17.740986">
        <ele>35.2255</ele>
        <time>2014-06-10T18:14:53Z</time>
      </trkpt>
      <trkpt lat="59.9759166" lon="17.7411122">
        <ele>35.7061</ele>
        <time>2014-06-10T18:14:54Z</time>
      </trkpt>
      <trkpt lat="59.9758856" lon="17.7412381">
        <ele>35.7061</ele>
        <time>2014-06-10T18:14:55Z</time>
      </trkpt>
      <trkpt lat="59.9758556" lon="17.741363">
        <ele>35.7061</ele>
        <time>2014-06-10T18:14:56Z</time>
      </trkpt>
      <trkpt lat="59.9758254" lon="17.741486">
        <ele>36.1868</ele>
        <time>2014-06-10T18:14:57Z</time>
      </trkpt>
      <trkpt lat="59.9757963" lon="17.7416076">
        <ele>36.1868</ele>
        <time>2014-06-10T18:14:58Z</time>
      </trkpt>
      <trkpt lat="59.9757679" lon="17.7417273">
        <ele>36.1868</ele>
        <time>2014-06-10T18:14:59Z</time>
      </trkpt>
      <trkpt lat="59.9757389" lon="17.7418453">
        <ele>36.1868</ele>
        <time>2014-06-10T18:15:00Z</time>
      </trkpt>
      <trkpt lat="59.9757099" lon="17.7419621">
        <ele>36.6675</ele>
        <time>2014-06-10T18:15:01Z</time>
      </trkpt>
      <trkpt lat="59.9756803" lon="17.7420786">
        <ele>36.6675</ele>
        <time>2014-06-10T18:15:02Z</time>
      </trkpt>
      <trkpt lat="59.9756494" lon="17.742195">
        <ele>36.6675</ele>
        <time>2014-06-10T18:15:03Z</time>
      </trkpt>
      <trkpt lat="59.9756187" lon="17.7423121">
        <ele>36.6675</ele>
        <time>2014-06-10T18:15:04Z</time>
      </trkpt>
      <trkpt lat="59.9755887" lon="17.7424292">
        <ele>36.6675</ele>
        <time>2014-06-10T18:15:05Z</time>
      </trkpt>
      <trkpt lat="59.9755586" lon="17.7425447">
        <ele>36.6675</ele>
        <time>2014-06-10T18:15:06Z</time>
      </trkpt>
      <trkpt lat="59.9755286" lon="17.7426585">
        <ele>37.1481</ele>
        <time>2014-06-10T18:15:07Z</time>
      </trkpt>
      <trkpt lat="59.9754989" lon="17.7427735">
        <ele>37.1481</ele>
        <time>2014-06-10T18:15:08Z</time>
      </trkpt>
      <trkpt lat="59.9754693" lon="17.7428887">
        <ele>37.1481</ele>
        <time>2014-06-10T18:15:09Z</time>
      </trkpt>
      <trkpt lat="59.9754393" lon="17.7430043">
        <ele>37.1481</ele>
        <time>2014-06-10T18:15:10Z</time>
      </trkpt>
      <trkpt lat="59.975409" lon="17.7431203">
        <ele>37.1481</ele>
        <time>2014-06-10T18:15:11Z</time>
      </trkpt>
      <trkpt lat="59.9753809" lon="17.7432359">
        <ele>37.1481</ele>
        <time>2014-06-10T18:15:12Z</time>
      </trkpt>
      <trkpt lat="59.975355" lon="17.7433535">
        <ele>37.1481</ele>
        <time>2014-06-10T18:15:13Z</time>
      </trkpt>
      <trkpt lat="59.9753303" lon="17.743473">
        <ele>37.1481</ele>
        <time>2014-06-10T18:15:14Z</time>
      </trkpt>
      <trkpt lat="59.9753065" lon="17.7435946">
        <ele>37.1481</ele>
        <time>2014-06-10T18:15:15Z</time>
      </trkpt>
      <trkpt lat="59.9752846" lon="17.7437187">
        <ele>37.6287</ele>
        <time>2014-06-10T18:15:16Z</time>
      </trkpt>
      <trkpt lat="59.9752643" lon="17.7438449">
        <ele>37.6287</ele>
        <time>2014-06-10T18:15:17Z</time>
      </trkpt>
      <trkpt lat="59.9752428" lon="17.7439713">
        <ele>37.6287</ele>
        <time>2014-06-10T18:15:18Z</time>
      </trkpt>
      <trkpt lat="59.9752205" lon="17.7440972">
        <ele>37.1481</ele>
        <time>2014-06-10T18:15:19Z</time>
      </trkpt>
      <trkpt lat="59.9751971" lon="17.7442225">
        <ele>37.1481</ele>
        <time>2014-06-10T18:15:20Z</time>
      </trkpt>
      <trkpt lat="59.9751722" lon="17.7443472">
        <ele>37.1481</ele>
        <time>2014-06-10T18:15:21Z</time>
      </trkpt>
      <trkpt lat="59.9751449" lon="17.7444721">
        <ele>37.1481</ele>
        <time>2014-06-10T18:15:22Z</time>
      </trkpt>
      <trkpt lat="59.9751148" lon="17.7445972">
        <ele>37.1481</ele>
        <time>2014-06-10T18:15:23Z</time>
      </trkpt>
      <trkpt lat="59.9750824" lon="17.7447208">
        <ele>37.1481</ele>
        <time>2014-06-10T18:15:24Z</time>
      </trkpt>
      <trkpt lat="59.9750474" lon="17.7448419">
        <ele>37.1481</ele>
        <time>2014-06-10T18:15:25Z</time>
      </trkpt>
      <trkpt lat="59.9750106" lon="17.7449617">
        <ele>37.1481</ele>
        <time>2014-06-10T18:15:26Z</time>
      </trkpt>
      <trkpt lat="59.9749727" lon="17.745081">
        <ele>37.1481</ele>
        <time>2014-06-10T18:15:27Z</time>
      </trkpt>
      <trkpt lat="59.9749342" lon="17.7452001">
        <ele>37.1481</ele>
        <time>2014-06-10T18:15:28Z</time>
      </trkpt>
      <trkpt lat="59.9748945" lon="17.7453187">
        <ele>37.1481</ele>
        <time>2014-06-10T18:15:29Z</time>
      </trkpt>
      <trkpt lat="59.9748531" lon="17.7454358">
        <ele>37.6287</ele>
        <time>2014-06-10T18:15:30Z</time>
      </trkpt>
      <trkpt lat="59.97481" lon="17.7455508">
        <ele>37.6287</ele>
        <time>2014-06-10T18:15:31Z</time>
      </trkpt>
      <trkpt lat="59.974764" lon="17.7456624">
        <ele>37.6287</ele>
        <time>2014-06-10T18:15:32Z</time>
      </trkpt>
      <trkpt lat="59.9747153" lon="17.7457699">
        <ele>37.6287</ele>
        <time>2014-06-10T18:15:33Z</time>
      </trkpt>
      <trkpt lat="59.9746654" lon="17.7458757">
        <ele>37.6287</ele>
        <time>2014-06-10T18:15:34Z</time>
      </trkpt>
      <trkpt lat="59.9746139" lon="17.7459776">
        <ele>37.6287</ele>
        <time>2014-06-10T18:15:35Z</time>
      </trkpt>
      <trkpt lat="59.9745592" lon="17.7460722">
        <ele>37.6287</ele>
        <time>2014-06-10T18:15:36Z</time>
      </trkpt>
      <trkpt lat="59.974501" lon="17.7461634">
        <ele>37.6287</ele>
        <time>2014-06-10T18:15:37Z</time>
      </trkpt>
      <trkpt lat="59.9744423" lon="17.7462552">
        <ele>37.6287</ele>
        <time>2014-06-10T18:15:38Z</time>
      </trkpt>
      <trkpt lat="59.9743832" lon="17.7463485">
        <ele>37.1481</ele>
        <time>2014-06-10T18:15:39Z</time>
      </trkpt>
      <trkpt lat="59.9743212" lon="17.7464413">
        <ele>36.6675</ele>
        <time>2014-06-10T18:15:40Z</time>
      </trkpt>
      <trkpt lat="59.9742574" lon="17.7465318">
        <ele>36.6675</ele>
        <time>2014-06-10T18:15:41Z</time>
      </trkpt>
      <trkpt lat="59.9741862" lon="17.7466027">
        <ele>36.1868</ele>
        <time>2014-06-10T18:15:42Z</time>
      </trkpt>
      <trkpt lat="59.9741222" lon="17.746694">
        <ele>35.7061</ele>
        <time>2014-06-10T18:15:43Z</time>
      </trkpt>
      <trkpt lat="59.9740574" lon="17.7467782">
        <ele>35.7061</ele>
        <time>2014-06-10T18:15:44Z</time>
      </trkpt>
      <trkpt lat="59.9739933" lon="17.7468592">
        <ele>35.2255</ele>
        <time>2014-06-10T18:15:45Z</time>
      </trkpt>
      <trkpt lat="59.9739207" lon="17.7469262">
        <ele>35.2255</ele>
        <time>2014-06-10T18:15:46Z</time>
      </trkpt>
      <trkpt lat="59.9738549" lon="17.7469991">
        <ele>34.7449</ele>
        <time>2014-06-10T18:15:47Z</time>
      </trkpt>
      <trkpt lat="59.9737911" lon="17.7470736">
        <ele>34.7449</ele>
        <time>2014-06-10T18:15:48Z</time>
      </trkpt>
      <trkpt lat="59.9737219" lon="17.7471443">
        <ele>34.7449</ele>
        <time>2014-06-10T18:15:49Z</time>
      </trkpt>
      <trkpt lat="59.9736558" lon="17.7472187">
        <ele>34.2642</ele>
        <time>2014-06-10T18:15:50Z</time>
      </trkpt>
      <trkpt lat="59.973588" lon="17.7472892">
        <ele>34.2642</ele>
        <time>2014-06-10T18:15:51Z</time>
      </trkpt>
      <trkpt lat="59.9735187" lon="17.7473585">
        <ele>33.7834</ele>
        <time>2014-06-10T18:15:52Z</time>
      </trkpt>
      <trkpt lat="59.9734491" lon="17.7474322">
        <ele>33.3029</ele>
        <time>2014-06-10T18:15:53Z</time>
      </trkpt>
      <trkpt lat="59.9733783" lon="17.7475056">
        <ele>33.3029</ele>
        <time>2014-06-10T18:15:54Z</time>
      </trkpt>
      <trkpt lat="59.9733074" lon="17.7475806">
        <ele>32.8223</ele>
        <time>2014-06-10T18:15:55Z</time>
      </trkpt>
      <trkpt lat="59.9732364" lon="17.7476588">
        <ele>32.3416</ele>
        <time>2014-06-10T18:15:56Z</time>
      </trkpt>
      <trkpt lat="59.9731656" lon="17.7477414">
        <ele>32.3416</ele>
        <time>2014-06-10T18:15:57Z</time>
      </trkpt>
      <trkpt lat="59.9730959" lon="17.747827">
        <ele>31.8607</ele>
        <time>2014-06-10T18:15:58Z</time>
      </trkpt>
      <trkpt lat="59.9730256" lon="17.7479134">
        <ele>31.8607</ele>
        <time>2014-06-10T18:15:59Z</time>
      </trkpt>
      <trkpt lat="59.9729594" lon="17.7480056">
        <ele>31.8607</ele>
        <time>2014-06-10T18:16:00Z</time>
      </trkpt>
      <trkpt lat="59.9728962" lon="17.748101">
        <ele>31.3801</ele>
        <time>2014-06-10T18:16:01Z</time>
      </trkpt>
      <trkpt lat="59.9728384" lon="17.7482014">
        <ele>30.8995</ele>
        <time>2014-06-10T18:16:02Z</time>
      </trkpt>
      <trkpt lat="59.9727801" lon="17.7483128">
        <ele>31.3801</ele>
        <time>2014-06-10T18:16:03Z</time>
      </trkpt>
      <trkpt lat="59.9727261" lon="17.7484283">
        <ele>31.8607</ele>
        <time>2014-06-10T18:16:04Z</time>
      </trkpt>
      <trkpt lat="59.9726763" lon="17.7485417">
        <ele>32.3416</ele>
        <time>2014-06-10T18:16:05Z</time>
      </trkpt>
      <trkpt lat="59.9726294" lon="17.7486537">
        <ele>32.8223</ele>
        <time>2014-06-10T18:16:06Z</time>
      </trkpt>
      <trkpt lat="59.9725815" lon="17.7487599">
        <ele>32.8223</ele>
        <time>2014-06-10T18:16:07Z</time>
      </trkpt>
      <trkpt lat="59.972534" lon="17.7488668">
        <ele>32.8223</ele>
        <time>2014-06-10T18:16:08Z</time>
      </trkpt>
      <trkpt lat="59.9724882" lon="17.748965">
        <ele>32.3416</ele>
        <time>2014-06-10T18:16:09Z</time>
      </trkpt>
      <trkpt lat="59.9724428" lon="17.7490665">
        <ele>32.8223</ele>
        <time>2014-06-10T18:16:10Z</time>
      </trkpt>
      <trkpt lat="59.9723963" lon="17.749169">
        <ele>32.8223</ele>
        <time>2014-06-10T18:16:11Z</time>
      </trkpt>
      <trkpt lat="59.9723506" lon="17.7492675">
        <ele>32.8223</ele>
        <time>2014-06-10T18:16:12Z</time>
      </trkpt>
      <trkpt lat="59.9723039" lon="17.7493675">
        <ele>32.8223</ele>
        <time>2014-06-10T18:16:13Z</time>
      </trkpt>
      <trkpt lat="59.9722579" lon="17.7494708">
        <ele>32.8223</ele>
        <time>2014-06-10T18:16:14Z</time>
      </trkpt>
      <trkpt lat="59.9722112" lon="17.7495726">
        <ele>32.3416</ele>
        <time>2014-06-10T18:16:15Z</time>
      </trkpt>
      <trkpt lat="59.9721656" lon="17.7496747">
        <ele>32.3416</ele>
        <time>2014-06-10T18:16:16Z</time>
      </trkpt>
      <trkpt lat="59.9721227" lon="17.7498078">
        <ele>31.8607</ele>
        <time>2014-06-10T18:16:17Z</time>
      </trkpt>
      <trkpt lat="59.972076" lon="17.7499119">
        <ele>31.3801</ele>
        <time>2014-06-10T18:16:18Z</time>
      </trkpt>
      <trkpt lat="59.9720263" lon="17.7500324">
        <ele>30.8995</ele>
        <time>2014-06-10T18:16:19Z</time>
      </trkpt>
      <trkpt lat="59.971974" lon="17.7501574">
        <ele>30.8995</ele>
        <time>2014-06-10T18:16:20Z</time>
      </trkpt>
      <trkpt lat="59.9719239" lon="17.750278">
        <ele>30.4188</ele>
        <time>2014-06-10T18:16:21Z</time>
      </trkpt>
      <trkpt lat="59.9718708" lon="17.7503936">
        <ele>30.4188</ele>
        <time>2014-06-10T18:16:22Z</time>
      </trkpt>
      <trkpt lat="59.9718114" lon="17.7505032">
        <ele>30.4188</ele>
        <time>2014-06-10T18:16:23Z</time>
      </trkpt>
      <trkpt lat="59.9717542" lon="17.7506179">
        <ele>29.4575</ele>
        <time>2014-06-10T18:16:24Z</time>
      </trkpt>
      <trkpt lat="59.9716932" lon="17.7507272">
        <ele>28.9769</ele>
        <time>2014-06-10T18:16:25Z</time>
      </trkpt>
      <trkpt lat="59.97163" lon="17.7508343">
        <ele>28.0155</ele>
        <time>2014-06-10T18:16:26Z</time>
      </trkpt>
      <trkpt lat="59.9715649" lon="17.7509406">
        <ele>27.0543</ele>
        <time>2014-06-10T18:16:27Z</time>
      </trkpt>
      <trkpt lat="59.9714949" lon="17.7510416">
        <ele>26.5736</ele>
        <time>2014-06-10T18:16:28Z</time>
      </trkpt>
      <trkpt lat="59.9714219" lon="17.751138">
        <ele>26.0929</ele>
        <time>2014-06-10T18:16:29Z</time>
      </trkpt>
      <trkpt lat="59.9713446" lon="17.7512298">
        <ele>25.6123</ele>
        <time>2014-06-10T18:16:30Z</time>
      </trkpt>
      <trkpt lat="59.9712675" lon="17.751323">
        <ele>25.1317</ele>
        <time>2014-06-10T18:16:31Z</time>
      </trkpt>
      <trkpt lat="59.9711825" lon="17.7513989">
        <ele>24.1703</ele>
        <time>2014-06-10T18:16:32Z</time>
      </trkpt>
      <trkpt lat="59.9710984" lon="17.7514726">
        <ele>23.6896</ele>
        <time>2014-06-10T18:16:33Z</time>
      </trkpt>
      <trkpt lat="59.9710253" lon="17.751567">
        <ele>22.2476</ele>
        <time>2014-06-10T18:16:34Z</time>
      </trkpt>
      <trkpt lat="59.9709409" lon="17.7516427">
        <ele>22.2476</ele>
        <time>2014-06-10T18:16:35Z</time>
      </trkpt>
      <trkpt lat="59.9708758" lon="17.7517621">
        <ele>21.767</ele>
        <time>2014-06-10T18:16:36Z</time>
      </trkpt>
      <trkpt lat="59.9708095" lon="17.7518637">
        <ele>21.767</ele>
        <time>2014-06-10T18:16:37Z</time>
      </trkpt>
      <trkpt lat="59.9707444" lon="17.7519719">
        <ele>21.2864</ele>
        <time>2014-06-10T18:16:38Z</time>
      </trkpt>
      <trkpt lat="59.9706834" lon="17.7520904">
        <ele>20.325</ele>
        <time>2014-06-10T18:16:39Z</time>
      </trkpt>
      <trkpt lat="59.9706178" lon="17.7522117">
        <ele>20.325</ele>
        <time>2014-06-10T18:16:40Z</time>
      </trkpt>
      <trkpt lat="59.970556" lon="17.7523408">
        <ele>20.325</ele>
        <time>2014-06-10T18:16:41Z</time>
      </trkpt>
      <trkpt lat="59.9704999" lon="17.7524763">
        <ele>20.325</ele>
        <time>2014-06-10T18:16:42Z</time>
      </trkpt>
      <trkpt lat="59.970448" lon="17.7526193">
        <ele>20.325</ele>
        <time>2014-06-10T18:16:43Z</time>
      </trkpt>
      <trkpt lat="59.9704003" lon="17.7527677">
        <ele>20.8057</ele>
        <time>2014-06-10T18:16:44Z</time>
      </trkpt>
      <trkpt lat="59.9703516" lon="17.7529126">
        <ele>21.2864</ele>
        <time>2014-06-10T18:16:45Z</time>
      </trkpt>
      <trkpt lat="59.9703025" lon="17.7530562">
        <ele>21.2864</ele>
        <time>2014-06-10T18:16:46Z</time>
      </trkpt>
      <trkpt lat="59.9702538" lon="17.7531986">
        <ele>21.2864</ele>
        <time>2014-06-10T18:16:47Z</time>
      </trkpt>
      <trkpt lat="59.9702048" lon="17.7533401">
        <ele>21.767</ele>
        <time>2014-06-10T18:16:48Z</time>
      </trkpt>
      <trkpt lat="59.9701548" lon="17.7534795">
        <ele>21.767</ele>
        <time>2014-06-10T18:16:49Z</time>
      </trkpt>
      <trkpt lat="59.9701014" lon="17.7536166">
        <ele>22.2476</ele>
        <time>2014-06-10T18:16:50Z</time>
      </trkpt>
      <trkpt lat="59.9700513" lon="17.7537472">
        <ele>22.7283</ele>
        <time>2014-06-10T18:16:51Z</time>
      </trkpt>
      <trkpt lat="59.9699994" lon="17.753871">
        <ele>22.7283</ele>
        <time>2014-06-10T18:16:52Z</time>
      </trkpt>
      <trkpt lat="59.9699439" lon="17.7539886">
        <ele>23.209</ele>
        <time>2014-06-10T18:16:53Z</time>
      </trkpt>
      <trkpt lat="59.9698885" lon="17.7541055">
        <ele>23.6896</ele>
        <time>2014-06-10T18:16:54Z</time>
      </trkpt>
      <trkpt lat="59.9698314" lon="17.7542216">
        <ele>24.1703</ele>
        <time>2014-06-10T18:16:55Z</time>
      </trkpt>
      <trkpt lat="59.9697663" lon="17.7543262">
        <ele>24.651</ele>
        <time>2014-06-10T18:16:56Z</time>
      </trkpt>
      <trkpt lat="59.9697114" lon="17.7544399">
        <ele>25.1317</ele>
        <time>2014-06-10T18:16:57Z</time>
      </trkpt>
      <trkpt lat="59.9696578" lon="17.7545481">
        <ele>25.1317</ele>
        <time>2014-06-10T18:16:58Z</time>
      </trkpt>
      <trkpt lat="59.9696066" lon="17.7546538">
        <ele>25.6123</ele>
        <time>2014-06-10T18:16:59Z</time>
      </trkpt>
      <trkpt lat="59.9695561" lon="17.7547619">
        <ele>25.6123</ele>
        <time>2014-06-10T18:17:00Z</time>
      </trkpt>
      <trkpt lat="59.969506" lon="17.7548681">
        <ele>25.6123</ele>
        <time>2014-06-10T18:17:01Z</time>
      </trkpt>
      <trkpt lat="59.9694553" lon="17.7549745">
        <ele>25.6123</ele>
        <time>2014-06-10T18:17:02Z</time>
      </trkpt>
      <trkpt lat="59.9694037" lon="17.7550814">
        <ele>25.6123</ele>
        <time>2014-06-10T18:17:03Z</time>
      </trkpt>
      <trkpt lat="59.9693529" lon="17.7551904">
        <ele>25.6123</ele>
        <time>2014-06-10T18:17:04Z</time>
      </trkpt>
      <trkpt lat="59.9693042" lon="17.7553006">
        <ele>25.6123</ele>
        <time>2014-06-10T18:17:05Z</time>
      </trkpt>
      <trkpt lat="59.9692543" lon="17.7554084">
        <ele>25.6123</ele>
        <time>2014-06-10T18:17:06Z</time>
      </trkpt>
      <trkpt lat="59.9692042" lon="17.755515">
        <ele>25.6123</ele>
        <time>2014-06-10T18:17:07Z</time>
      </trkpt>
      <trkpt lat="59.9691543" lon="17.755623">
        <ele>25.6123</ele>
        <time>2014-06-10T18:17:08Z</time>
      </trkpt>
      <trkpt lat="59.9691023" lon="17.7557303">
        <ele>26.0929</ele>
        <time>2014-06-10T18:17:09Z</time>
      </trkpt>
      <trkpt lat="59.9690482" lon="17.7558382">
        <ele>26.0929</ele>
        <time>2014-06-10T18:17:10Z</time>
      </trkpt>
      <trkpt lat="59.9689965" lon="17.7559457">
        <ele>26.0929</ele>
        <time>2014-06-10T18:17:11Z</time>
      </trkpt>
      <trkpt lat="59.968945" lon="17.7560528">
        <ele>26.5736</ele>
        <time>2014-06-10T18:17:12Z</time>
      </trkpt>
      <trkpt lat="59.9688934" lon="17.7561592">
        <ele>26.5736</ele>
        <time>2014-06-10T18:17:13Z</time>
      </trkpt>
      <trkpt lat="59.9688415" lon="17.7562647">
        <ele>26.5736</ele>
        <time>2014-06-10T18:17:14Z</time>
      </trkpt>
      <trkpt lat="59.9687898" lon="17.7563663">
        <ele>27.0543</ele>
        <time>2014-06-10T18:17:15Z</time>
      </trkpt>
      <trkpt lat="59.9687389" lon="17.7564643">
        <ele>27.0543</ele>
        <time>2014-06-10T18:17:16Z</time>
      </trkpt>
      <trkpt lat="59.968687" lon="17.7565596">
        <ele>27.0543</ele>
        <time>2014-06-10T18:17:17Z</time>
      </trkpt>
      <trkpt lat="59.9686338" lon="17.7566528">
        <ele>27.0543</ele>
        <time>2014-06-10T18:17:18Z</time>
      </trkpt>
      <trkpt lat="59.9685785" lon="17.7567434">
        <ele>27.0543</ele>
        <time>2014-06-10T18:17:19Z</time>
      </trkpt>
      <trkpt lat="59.968521" lon="17.7568324">
        <ele>26.5736</ele>
        <time>2014-06-10T18:17:20Z</time>
      </trkpt>
      <trkpt lat="59.9684629" lon="17.7569195">
        <ele>26.5736</ele>
        <time>2014-06-10T18:17:21Z</time>
      </trkpt>
      <trkpt lat="59.968405" lon="17.7570063">
        <ele>26.0929</ele>
        <time>2014-06-10T18:17:22Z</time>
      </trkpt>
      <trkpt lat="59.9683467" lon="17.7570914">
        <ele>26.0929</ele>
        <time>2014-06-10T18:17:23Z</time>
      </trkpt>
      <trkpt lat="59.9682879" lon="17.7571748">
        <ele>26.0929</ele>
        <time>2014-06-10T18:17:24Z</time>
      </trkpt>
      <trkpt lat="59.9682286" lon="17.7572592">
        <ele>25.6123</ele>
        <time>2014-06-10T18:17:25Z</time>
      </trkpt>
      <trkpt lat="59.9681681" lon="17.7573443">
        <ele>25.1317</ele>
        <time>2014-06-10T18:17:26Z</time>
      </trkpt>
      <trkpt lat="59.968104" lon="17.7574307">
        <ele>25.1317</ele>
        <time>2014-06-10T18:17:27Z</time>
      </trkpt>
      <trkpt lat="59.9680349" lon="17.7575173">
        <ele>24.651</ele>
        <time>2014-06-10T18:17:28Z</time>
      </trkpt>
      <trkpt lat="59.967962" lon="17.7576038">
        <ele>24.1703</ele>
        <time>2014-06-10T18:17:29Z</time>
      </trkpt>
      <trkpt lat="59.9678869" lon="17.7576917">
        <ele>23.6896</ele>
        <time>2014-06-10T18:17:30Z</time>
      </trkpt>
      <trkpt lat="59.9678097" lon="17.757781">
        <ele>23.209</ele>
        <time>2014-06-10T18:17:31Z</time>
      </trkpt>
      <trkpt lat="59.967731" lon="17.7578721">
        <ele>22.7283</ele>
        <time>2014-06-10T18:17:32Z</time>
      </trkpt>
      <trkpt lat="59.9676485" lon="17.7579641">
        <ele>22.2476</ele>
        <time>2014-06-10T18:17:33Z</time>
      </trkpt>
      <trkpt lat="59.9675652" lon="17.7580555">
        <ele>22.2476</ele>
        <time>2014-06-10T18:17:34Z</time>
      </trkpt>
      <trkpt lat="59.9674817" lon="17.7581466">
        <ele>21.767</ele>
        <time>2014-06-10T18:17:35Z</time>
      </trkpt>
      <trkpt lat="59.9673969" lon="17.7582332">
        <ele>21.2864</ele>
        <time>2014-06-10T18:17:36Z</time>
      </trkpt>
      <trkpt lat="59.9673108" lon="17.758314">
        <ele>21.2864</ele>
        <time>2014-06-10T18:17:37Z</time>
      </trkpt>
      <trkpt lat="59.9672257" lon="17.7583911">
        <ele>20.8057</ele>
        <time>2014-06-10T18:17:38Z</time>
      </trkpt>
      <trkpt lat="59.9671238" lon="17.758433">
        <ele>20.8057</ele>
        <time>2014-06-10T18:17:39Z</time>
      </trkpt>
      <trkpt lat="59.9670353" lon="17.7584998">
        <ele>20.325</ele>
        <time>2014-06-10T18:17:40Z</time>
      </trkpt>
      <trkpt lat="59.966942" lon="17.7585627">
        <ele>20.325</ele>
        <time>2014-06-10T18:17:41Z</time>
      </trkpt>
      <trkpt lat="59.966855" lon="17.7586289">
        <ele>20.325</ele>
        <time>2014-06-10T18:17:42Z</time>
      </trkpt>
      <trkpt lat="59.9667779" lon="17.7587078">
        <ele>19.8444</ele>
        <time>2014-06-10T18:17:43Z</time>
      </trkpt>
      <trkpt lat="59.9667015" lon="17.758788">
        <ele>19.3638</ele>
        <time>2014-06-10T18:17:44Z</time>
      </trkpt>
      <trkpt lat="59.9666287" lon="17.7588738">
        <ele>18.4023</ele>
        <time>2014-06-10T18:17:45Z</time>
      </trkpt>
      <trkpt lat="59.9665567" lon="17.7589626">
        <ele>17.9218</ele>
        <time>2014-06-10T18:17:46Z</time>
      </trkpt>
      <trkpt lat="59.9664878" lon="17.7590558">
        <ele>17.4412</ele>
        <time>2014-06-10T18:17:47Z</time>
      </trkpt>
      <trkpt lat="59.9664184" lon="17.7591516">
        <ele>17.4412</ele>
        <time>2014-06-10T18:17:48Z</time>
      </trkpt>
      <trkpt lat="59.9663521" lon="17.7592525">
        <ele>17.4412</ele>
        <time>2014-06-10T18:17:49Z</time>
      </trkpt>
      <trkpt lat="59.9662869" lon="17.7593568">
        <ele>16.9604</ele>
        <time>2014-06-10T18:17:50Z</time>
      </trkpt>
      <trkpt lat="59.9662282" lon="17.759467">
        <ele>16.4797</ele>
        <time>2014-06-10T18:17:51Z</time>
      </trkpt>
      <trkpt lat="59.9661705" lon="17.7595796">
        <ele>15.0377</ele>
        <time>2014-06-10T18:17:52Z</time>
      </trkpt>
      <trkpt lat="59.9661107" lon="17.7596912">
        <ele>14.557</ele>
        <time>2014-06-10T18:17:53Z</time>
      </trkpt>
      <trkpt lat="59.9660507" lon="17.7598032">
        <ele>14.0764</ele>
        <time>2014-06-10T18:17:54Z</time>
      </trkpt>
      <trkpt lat="59.9659916" lon="17.7599148">
        <ele>13.5958</ele>
        <time>2014-06-10T18:17:55Z</time>
      </trkpt>
      <trkpt lat="59.9659302" lon="17.7600235">
        <ele>14.0764</ele>
        <time>2014-06-10T18:17:56Z</time>
      </trkpt>
      <trkpt lat="59.9658712" lon="17.7601307">
        <ele>13.5958</ele>
        <time>2014-06-10T18:17:57Z</time>
      </trkpt>
      <trkpt lat="59.9658098" lon="17.7602344">
        <ele>14.0764</ele>
        <time>2014-06-10T18:17:58Z</time>
      </trkpt>
      <trkpt lat="59.96575" lon="17.7603337">
        <ele>14.557</ele>
        <time>2014-06-10T18:17:59Z</time>
      </trkpt>
      <trkpt lat="59.9656911" lon="17.7604295">
        <ele>14.557</ele>
        <time>2014-06-10T18:18:00Z</time>
      </trkpt>
      <trkpt lat="59.965632" lon="17.7605218">
        <ele>15.0377</ele>
        <time>2014-06-10T18:18:01Z</time>
      </trkpt>
      <trkpt lat="59.9655746" lon="17.7606123">
        <ele>15.5184</ele>
        <time>2014-06-10T18:18:02Z</time>
      </trkpt>
      <trkpt lat="59.9655195" lon="17.760705">
        <ele>15.5184</ele>
        <time>2014-06-10T18:18:03Z</time>
      </trkpt>
      <trkpt lat="59.9654643" lon="17.760803">
        <ele>15.5184</ele>
        <time>2014-06-10T18:18:04Z</time>
      </trkpt>
      <trkpt lat="59.9654114" lon="17.7609082">
        <ele>15.5184</ele>
        <time>2014-06-10T18:18:05Z</time>
      </trkpt>
      <trkpt lat="59.9653611" lon="17.7610207">
        <ele>15.5184</ele>
        <time>2014-06-10T18:18:06Z</time>
      </trkpt>
      <trkpt lat="59.9653125" lon="17.7611395">
        <ele>15.999</ele>
        <time>2014-06-10T18:18:07Z</time>
      </trkpt>
      <trkpt lat="59.9652647" lon="17.7612611">
        <ele>16.4797</ele>
        <time>2014-06-10T18:18:08Z</time>
      </trkpt>
      <trkpt lat="59.965217" lon="17.7613846">
        <ele>16.9604</ele>
        <time>2014-06-10T18:18:09Z</time>
      </trkpt>
      <trkpt lat="59.9651692" lon="17.761509">
        <ele>17.4412</ele>
        <time>2014-06-10T18:18:10Z</time>
      </trkpt>
      <trkpt lat="59.9651209" lon="17.7616332">
        <ele>17.4412</ele>
        <time>2014-06-10T18:18:11Z</time>
      </trkpt>
      <trkpt lat="59.965073" lon="17.7617571">
        <ele>17.9218</ele>
        <time>2014-06-10T18:18:12Z</time>
      </trkpt>
      <trkpt lat="59.9650254" lon="17.7618808">
        <ele>17.9218</ele>
        <time>2014-06-10T18:18:13Z</time>
      </trkpt>
      <trkpt lat="59.9649782" lon="17.7620048">
        <ele>18.4023</ele>
        <time>2014-06-10T18:18:14Z</time>
      </trkpt>
      <trkpt lat="59.9649295" lon="17.7621294">
        <ele>18.4023</ele>
        <time>2014-06-10T18:18:15Z</time>
      </trkpt>
      <trkpt lat="59.9648828" lon="17.7622564">
        <ele>18.4023</ele>
        <time>2014-06-10T18:18:16Z</time>
      </trkpt>
      <trkpt lat="59.9648363" lon="17.7623843">
        <ele>18.8831</ele>
        <time>2014-06-10T18:18:17Z</time>
      </trkpt>
      <trkpt lat="59.9647897" lon="17.7625136">
        <ele>19.3638</ele>
        <time>2014-06-10T18:18:18Z</time>
      </trkpt>
      <trkpt lat="59.9647462" lon="17.7626429">
        <ele>19.3638</ele>
        <time>2014-06-10T18:18:19Z</time>
      </trkpt>
      <trkpt lat="59.9647056" lon="17.7627719">
        <ele>19.3638</ele>
        <time>2014-06-10T18:18:20Z</time>
      </trkpt>
      <trkpt lat="59.9646665" lon="17.7629015">
        <ele>19.8444</ele>
        <time>2014-06-10T18:18:21Z</time>
      </trkpt>
      <trkpt lat="59.9646301" lon="17.7630361">
        <ele>19.8444</ele>
        <time>2014-06-10T18:18:22Z</time>
      </trkpt>
      <trkpt lat="59.964597" lon="17.7631735">
        <ele>19.8444</ele>
        <time>2014-06-10T18:18:23Z</time>
      </trkpt>
      <trkpt lat="59.9645649" lon="17.7633107">
        <ele>20.325</ele>
        <time>2014-06-10T18:18:24Z</time>
      </trkpt>
      <trkpt lat="59.9645312" lon="17.7634445">
        <ele>20.325</ele>
        <time>2014-06-10T18:18:25Z</time>
      </trkpt>
      <trkpt lat="59.9644981" lon="17.7635851">
        <ele>20.325</ele>
        <time>2014-06-10T18:18:26Z</time>
      </trkpt>
      <trkpt lat="59.9644656" lon="17.7637225">
        <ele>20.8057</ele>
        <time>2014-06-10T18:18:27Z</time>
      </trkpt>
      <trkpt lat="59.9644329" lon="17.7638575">
        <ele>20.8057</ele>
        <time>2014-06-10T18:18:28Z</time>
      </trkpt>
      <trkpt lat="59.9643993" lon="17.7639913">
        <ele>20.8057</ele>
        <time>2014-06-10T18:18:29Z</time>
      </trkpt>
      <trkpt lat="59.9643651" lon="17.764123">
        <ele>21.2864</ele>
        <time>2014-06-10T18:18:30Z</time>
      </trkpt>
      <trkpt lat="59.9643301" lon="17.7642535">
        <ele>21.2864</ele>
        <time>2014-06-10T18:18:31Z</time>
      </trkpt>
      <trkpt lat="59.9642956" lon="17.7643855">
        <ele>21.2864</ele>
        <time>2014-06-10T18:18:32Z</time>
      </trkpt>
      <trkpt lat="59.9642622" lon="17.7645173">
        <ele>21.767</ele>
        <time>2014-06-10T18:18:33Z</time>
      </trkpt>
      <trkpt lat="59.9642285" lon="17.7646481">
        <ele>21.767</ele>
        <time>2014-06-10T18:18:34Z</time>
      </trkpt>
      <trkpt lat="59.9641955" lon="17.7647798">
        <ele>22.2476</ele>
        <time>2014-06-10T18:18:35Z</time>
      </trkpt>
      <trkpt lat="59.9641646" lon="17.7649103">
        <ele>22.7283</ele>
        <time>2014-06-10T18:18:36Z</time>
      </trkpt>
      <trkpt lat="59.964136" lon="17.7650439">
        <ele>23.209</ele>
        <time>2014-06-10T18:18:37Z</time>
      </trkpt>
      <trkpt lat="59.9641096" lon="17.765177">
        <ele>23.209</ele>
        <time>2014-06-10T18:18:38Z</time>
      </trkpt>
      <trkpt lat="59.9640905" lon="17.7653017">
        <ele>23.6896</ele>
        <time>2014-06-10T18:18:39Z</time>
      </trkpt>
      <trkpt lat="59.9640749" lon="17.7654268">
        <ele>24.651</ele>
        <time>2014-06-10T18:18:40Z</time>
      </trkpt>
      <trkpt lat="59.9640635" lon="17.7655488">
        <ele>25.1317</ele>
        <time>2014-06-10T18:18:41Z</time>
      </trkpt>
      <trkpt lat="59.9640573" lon="17.7656584">
        <ele>25.6123</ele>
        <time>2014-06-10T18:18:42Z</time>
      </trkpt>
      <trkpt lat="59.9640532" lon="17.7657629">
        <ele>26.0929</ele>
        <time>2014-06-10T18:18:43Z</time>
      </trkpt>
      <trkpt lat="59.964049" lon="17.7658614">
        <ele>26.5736</ele>
        <time>2014-06-10T18:18:44Z</time>
      </trkpt>
      <trkpt lat="59.9640434" lon="17.7659568">
        <ele>27.0543</ele>
        <time>2014-06-10T18:18:45Z</time>
      </trkpt>
      <trkpt lat="59.9640397" lon="17.7660475">
        <ele>27.5349</ele>
        <time>2014-06-10T18:18:46Z</time>
      </trkpt>
      <trkpt lat="59.9640406" lon="17.7661249">
        <ele>28.0155</ele>
        <time>2014-06-10T18:18:47Z</time>
      </trkpt>
      <trkpt lat="59.9640411" lon="17.7662101">
        <ele>28.4962</ele>
        <time>2014-06-10T18:18:48Z</time>
      </trkpt>
      <trkpt lat="59.9640412" lon="17.7663042">
        <ele>28.9769</ele>
        <time>2014-06-10T18:18:49Z</time>
      </trkpt>
      <trkpt lat="59.9640412" lon="17.7664032">
        <ele>28.9769</ele>
        <time>2014-06-10T18:18:50Z</time>
      </trkpt>
      <trkpt lat="59.9640426" lon="17.7665082">
        <ele>29.4575</ele>
        <time>2014-06-10T18:18:51Z</time>
      </trkpt>
      <trkpt lat="59.9640469" lon="17.7666219">
        <ele>29.9381</ele>
        <time>2014-06-10T18:18:52Z</time>
      </trkpt>
      <trkpt lat="59.9640478" lon="17.7667498">
        <ele>29.9381</ele>
        <time>2014-06-10T18:18:53Z</time>
      </trkpt>
      <trkpt lat="59.9640465" lon="17.7668772">
        <ele>29.9381</ele>
        <time>2014-06-10T18:18:54Z</time>
      </trkpt>
      <trkpt lat="59.9640421" lon="17.7670036">
        <ele>29.9381</ele>
        <time>2014-06-10T18:18:55Z</time>
      </trkpt>
      <trkpt lat="59.9640319" lon="17.767133">
        <ele>30.4188</ele>
        <time>2014-06-10T18:18:56Z</time>
      </trkpt>
      <trkpt lat="59.9640175" lon="17.7672636">
        <ele>30.8995</ele>
        <time>2014-06-10T18:18:57Z</time>
      </trkpt>
      <trkpt lat="59.963999" lon="17.767388">
        <ele>30.8995</ele>
        <time>2014-06-10T18:18:58Z</time>
      </trkpt>
      <trkpt lat="59.9639765" lon="17.7675064">
        <ele>30.8995</ele>
        <time>2014-06-10T18:18:59Z</time>
      </trkpt>
      <trkpt lat="59.963953" lon="17.7676252">
        <ele>30.8995</ele>
        <time>2014-06-10T18:19:00Z</time>
      </trkpt>
      <trkpt lat="59.9639293" lon="17.7677458">
        <ele>30.8995</ele>
        <time>2014-06-10T18:19:01Z</time>
      </trkpt>
      <trkpt lat="59.963905" lon="17.7678691">
        <ele>30.8995</ele>
        <time>2014-06-10T18:19:02Z</time>
      </trkpt>
      <trkpt lat="59.9638799" lon="17.7679946">
        <ele>30.8995</ele>
        <time>2014-06-10T18:19:03Z</time>
      </trkpt>
      <trkpt lat="59.9638519" lon="17.76812">
        <ele>30.8995</ele>
        <time>2014-06-10T18:19:04Z</time>
      </trkpt>
      <trkpt lat="59.9638205" lon="17.7682483">
        <ele>30.4188</ele>
        <time>2014-06-10T18:19:05Z</time>
      </trkpt>
      <trkpt lat="59.9637858" lon="17.7683801">
        <ele>30.4188</ele>
        <time>2014-06-10T18:19:06Z</time>
      </trkpt>
      <trkpt lat="59.9637481" lon="17.7685129">
        <ele>30.4188</ele>
        <time>2014-06-10T18:19:07Z</time>
      </trkpt>
      <trkpt lat="59.96371" lon="17.7686452">
        <ele>30.4188</ele>
        <time>2014-06-10T18:19:08Z</time>
      </trkpt>
      <trkpt lat="59.9636719" lon="17.7687777">
        <ele>30.4188</ele>
        <time>2014-06-10T18:19:09Z</time>
      </trkpt>
      <trkpt lat="59.9636346" lon="17.7689098">
        <ele>30.4188</ele>
        <time>2014-06-10T18:19:10Z</time>
      </trkpt>
      <trkpt lat="59.9635977" lon="17.7690431">
        <ele>30.4188</ele>
        <time>2014-06-10T18:19:11Z</time>
      </trkpt>
      <trkpt lat="59.9635614" lon="17.769174">
        <ele>30.8995</ele>
        <time>2014-06-10T18:19:12Z</time>
      </trkpt>
      <trkpt lat="59.9635262" lon="17.769302">
        <ele>30.8995</ele>
        <time>2014-06-10T18:19:13Z</time>
      </trkpt>
      <trkpt lat="59.9634937" lon="17.7694278">
        <ele>31.3801</ele>
        <time>2014-06-10T18:19:14Z</time>
      </trkpt>
      <trkpt lat="59.9634656" lon="17.7695538">
        <ele>31.3801</ele>
        <time>2014-06-10T18:19:15Z</time>
      </trkpt>
      <trkpt lat="59.9634445" lon="17.7696807">
        <ele>31.8607</ele>
        <time>2014-06-10T18:19:16Z</time>
      </trkpt>
      <trkpt lat="59.9634315" lon="17.7698089">
        <ele>31.8607</ele>
        <time>2014-06-10T18:19:17Z</time>
      </trkpt>
      <trkpt lat="59.9634257" lon="17.7699392">
        <ele>31.8607</ele>
        <time>2014-06-10T18:19:18Z</time>
      </trkpt>
      <trkpt lat="59.963423" lon="17.7700696">
        <ele>32.3416</ele>
        <time>2014-06-10T18:19:19Z</time>
      </trkpt>
      <trkpt lat="59.963423" lon="17.7702013">
        <ele>32.3416</ele>
        <time>2014-06-10T18:19:20Z</time>
      </trkpt>
      <trkpt lat="59.9634259" lon="17.7703358">
        <ele>32.3416</ele>
        <time>2014-06-10T18:19:21Z</time>
      </trkpt>
      <trkpt lat="59.963431" lon="17.7704733">
        <ele>32.3416</ele>
        <time>2014-06-10T18:19:22Z</time>
      </trkpt>
      <trkpt lat="59.9634402" lon="17.770611">
        <ele>31.8607</ele>
        <time>2014-06-10T18:19:23Z</time>
      </trkpt>
      <trkpt lat="59.9634544" lon="17.7707505">
        <ele>31.8607</ele>
        <time>2014-06-10T18:19:24Z</time>
      </trkpt>
      <trkpt lat="59.9634754" lon="17.7708923">
        <ele>31.3801</ele>
        <time>2014-06-10T18:19:25Z</time>
      </trkpt>
      <trkpt lat="59.963502" lon="17.7710343">
        <ele>30.8995</ele>
        <time>2014-06-10T18:19:26Z</time>
      </trkpt>
      <trkpt lat="59.9635318" lon="17.7711781">
        <ele>30.8995</ele>
        <time>2014-06-10T18:19:27Z</time>
      </trkpt>
      <trkpt lat="59.9635645" lon="17.7713238">
        <ele>30.4188</ele>
        <time>2014-06-10T18:19:28Z</time>
      </trkpt>
      <trkpt lat="59.9635983" lon="17.7714684">
        <ele>30.4188</ele>
        <time>2014-06-10T18:19:29Z</time>
      </trkpt>
      <trkpt lat="59.9636325" lon="17.7716116">
        <ele>30.4188</ele>
        <time>2014-06-10T18:19:30Z</time>
      </trkpt>
      <trkpt lat="59.9636668" lon="17.7717527">
        <ele>30.4188</ele>
        <time>2014-06-10T18:19:31Z</time>
      </trkpt>
      <trkpt lat="59.9637003" lon="17.7718946">
        <ele>29.9381</ele>
        <time>2014-06-10T18:19:32Z</time>
      </trkpt>
      <trkpt lat="59.9637331" lon="17.7720375">
        <ele>29.9381</ele>
        <time>2014-06-10T18:19:33Z</time>
      </trkpt>
      <trkpt lat="59.9637656" lon="17.772182">
        <ele>29.9381</ele>
        <time>2014-06-10T18:19:34Z</time>
      </trkpt>
      <trkpt lat="59.9637962" lon="17.7723299">
        <ele>29.4575</ele>
        <time>2014-06-10T18:19:35Z</time>
      </trkpt>
      <trkpt lat="59.9638226" lon="17.7724819">
        <ele>29.4575</ele>
        <time>2014-06-10T18:19:36Z</time>
      </trkpt>
      <trkpt lat="59.9638449" lon="17.7726366">
        <ele>29.4575</ele>
        <time>2014-06-10T18:19:37Z</time>
      </trkpt>
      <trkpt lat="59.9638609" lon="17.7727924">
        <ele>29.4575</ele>
        <time>2014-06-10T18:19:38Z</time>
      </trkpt>
      <trkpt lat="59.9638683" lon="17.7729467">
        <ele>29.9381</ele>
        <time>2014-06-10T18:19:39Z</time>
      </trkpt>
      <trkpt lat="59.9638672" lon="17.7730965">
        <ele>29.9381</ele>
        <time>2014-06-10T18:19:40Z</time>
      </trkpt>
      <trkpt lat="59.9638588" lon="17.7732419">
        <ele>29.9381</ele>
        <time>2014-06-10T18:19:41Z</time>
      </trkpt>
      <trkpt lat="59.9638454" lon="17.7733849">
        <ele>29.9381</ele>
        <time>2014-06-10T18:19:42Z</time>
      </trkpt>
      <trkpt lat="59.9638276" lon="17.7735268">
        <ele>29.9381</ele>
        <time>2014-06-10T18:19:43Z</time>
      </trkpt>
      <trkpt lat="59.963807" lon="17.7736673">
        <ele>29.9381</ele>
        <time>2014-06-10T18:19:44Z</time>
      </trkpt>
      <trkpt lat="59.9637848" lon="17.7738052">
        <ele>29.9381</ele>
        <time>2014-06-10T18:19:45Z</time>
      </trkpt>
      <trkpt lat="59.9637604" lon="17.7739403">
        <ele>30.4188</ele>
        <time>2014-06-10T18:19:46Z</time>
      </trkpt>
      <trkpt lat="59.9637346" lon="17.7740722">
        <ele>30.4188</ele>
        <time>2014-06-10T18:19:47Z</time>
      </trkpt>
      <trkpt lat="59.9637103" lon="17.7742029">
        <ele>30.4188</ele>
        <time>2014-06-10T18:19:48Z</time>
      </trkpt>
      <trkpt lat="59.963689" lon="17.7743335">
        <ele>30.4188</ele>
        <time>2014-06-10T18:19:49Z</time>
      </trkpt>
      <trkpt lat="59.9636693" lon="17.7744648">
        <ele>30.4188</ele>
        <time>2014-06-10T18:19:50Z</time>
      </trkpt>
      <trkpt lat="59.9636501" lon="17.7745983">
        <ele>30.4188</ele>
        <time>2014-06-10T18:19:51Z</time>
      </trkpt>
      <trkpt lat="59.9636292" lon="17.7747339">
        <ele>30.4188</ele>
        <time>2014-06-10T18:19:52Z</time>
      </trkpt>
      <trkpt lat="59.963605" lon="17.7748701">
        <ele>30.4188</ele>
        <time>2014-06-10T18:19:53Z</time>
      </trkpt>
      <trkpt lat="59.9635776" lon="17.7750065">
        <ele>30.4188</ele>
        <time>2014-06-10T18:19:54Z</time>
      </trkpt>
      <trkpt lat="59.9635476" lon="17.7751416">
        <ele>30.4188</ele>
        <time>2014-06-10T18:19:55Z</time>
      </trkpt>
      <trkpt lat="59.9635149" lon="17.7752738">
        <ele>30.4188</ele>
        <time>2014-06-10T18:19:56Z</time>
      </trkpt>
      <trkpt lat="59.9634782" lon="17.7754007">
        <ele>30.8995</ele>
        <time>2014-06-10T18:19:57Z</time>
      </trkpt>
      <trkpt lat="59.9634393" lon="17.7755223">
        <ele>30.8995</ele>
        <time>2014-06-10T18:19:58Z</time>
      </trkpt>
      <trkpt lat="59.9633995" lon="17.7756393">
        <ele>30.8995</ele>
        <time>2014-06-10T18:19:59Z</time>
      </trkpt>
      <trkpt lat="59.9633604" lon="17.7757537">
        <ele>30.8995</ele>
        <time>2014-06-10T18:20:00Z</time>
      </trkpt>
      <trkpt lat="59.9633227" lon="17.7758656">
        <ele>31.3801</ele>
        <time>2014-06-10T18:20:01Z</time>
      </trkpt>
      <trkpt lat="59.9632865" lon="17.7759771">
        <ele>31.3801</ele>
        <time>2014-06-10T18:20:02Z</time>
      </trkpt>
      <trkpt lat="59.9632505" lon="17.7760869">
        <ele>31.3801</ele>
        <time>2014-06-10T18:20:03Z</time>
      </trkpt>
      <trkpt lat="59.963215" lon="17.7761957">
        <ele>31.8607</ele>
        <time>2014-06-10T18:20:04Z</time>
      </trkpt>
      <trkpt lat="59.9631809" lon="17.7763059">
        <ele>31.8607</ele>
        <time>2014-06-10T18:20:05Z</time>
      </trkpt>
      <trkpt lat="59.9631477" lon="17.7764165">
        <ele>31.8607</ele>
        <time>2014-06-10T18:20:06Z</time>
      </trkpt>
      <trkpt lat="59.963115" lon="17.7765284">
        <ele>31.8607</ele>
        <time>2014-06-10T18:20:07Z</time>
      </trkpt>
      <trkpt lat="59.9630824" lon="17.7766457">
        <ele>31.8607</ele>
        <time>2014-06-10T18:20:08Z</time>
      </trkpt>
      <trkpt lat="59.9630478" lon="17.7767655">
        <ele>31.3801</ele>
        <time>2014-06-10T18:20:09Z</time>
      </trkpt>
      <trkpt lat="59.9630104" lon="17.7768877">
        <ele>31.3801</ele>
        <time>2014-06-10T18:20:10Z</time>
      </trkpt>
      <trkpt lat="59.9629705" lon="17.7770103">
        <ele>30.8995</ele>
        <time>2014-06-10T18:20:11Z</time>
      </trkpt>
      <trkpt lat="59.9629271" lon="17.777131">
        <ele>30.8995</ele>
        <time>2014-06-10T18:20:12Z</time>
      </trkpt>
      <trkpt lat="59.9628804" lon="17.7772455">
        <ele>30.8995</ele>
        <time>2014-06-10T18:20:13Z</time>
      </trkpt>
      <trkpt lat="59.9628305" lon="17.777355">
        <ele>30.8995</ele>
        <time>2014-06-10T18:20:14Z</time>
      </trkpt>
      <trkpt lat="59.9627788" lon="17.7774608">
        <ele>30.8995</ele>
        <time>2014-06-10T18:20:15Z</time>
      </trkpt>
      <trkpt lat="59.962727" lon="17.7775634">
        <ele>30.8995</ele>
        <time>2014-06-10T18:20:16Z</time>
      </trkpt>
      <trkpt lat="59.9626764" lon="17.7776647">
        <ele>30.8995</ele>
        <time>2014-06-10T18:20:17Z</time>
      </trkpt>
      <trkpt lat="59.962627" lon="17.7777659">
        <ele>30.8995</ele>
        <time>2014-06-10T18:20:18Z</time>
      </trkpt>
      <trkpt lat="59.9625784" lon="17.7778693">
        <ele>30.8995</ele>
        <time>2014-06-10T18:20:19Z</time>
      </trkpt>
      <trkpt lat="59.9625293" lon="17.7779735">
        <ele>30.8995</ele>
        <time>2014-06-10T18:20:20Z</time>
      </trkpt>
      <trkpt lat="59.9624797" lon="17.778078">
        <ele>30.8995</ele>
        <time>2014-06-10T18:20:21Z</time>
      </trkpt>
      <trkpt lat="59.9624305" lon="17.7781849">
        <ele>30.8995</ele>
        <time>2014-06-10T18:20:22Z</time>
      </trkpt>
      <trkpt lat="59.9623816" lon="17.7782936">
        <ele>30.8995</ele>
        <time>2014-06-10T18:20:23Z</time>
      </trkpt>
      <trkpt lat="59.9623337" lon="17.7784045">
        <ele>30.8995</ele>
        <time>2014-06-10T18:20:24Z</time>
      </trkpt>
      <trkpt lat="59.9622865" lon="17.7785163">
        <ele>30.8995</ele>
        <time>2014-06-10T18:20:25Z</time>
      </trkpt>
      <trkpt lat="59.9622391" lon="17.7786267">
        <ele>30.8995</ele>
        <time>2014-06-10T18:20:26Z</time>
      </trkpt>
      <trkpt lat="59.9621918" lon="17.7787365">
        <ele>30.8995</ele>
        <time>2014-06-10T18:20:27Z</time>
      </trkpt>
      <trkpt lat="59.9621446" lon="17.7788467">
        <ele>30.8995</ele>
        <time>2014-06-10T18:20:28Z</time>
      </trkpt>
      <trkpt lat="59.9620971" lon="17.7789561">
        <ele>31.3801</ele>
        <time>2014-06-10T18:20:29Z</time>
      </trkpt>
      <trkpt lat="59.9620496" lon="17.7790634">
        <ele>31.3801</ele>
        <time>2014-06-10T18:20:30Z</time>
      </trkpt>
      <trkpt lat="59.9620023" lon="17.7791678">
        <ele>31.3801</ele>
        <time>2014-06-10T18:20:31Z</time>
      </trkpt>
      <trkpt lat="59.9619552" lon="17.779268">
        <ele>31.8607</ele>
        <time>2014-06-10T18:20:32Z</time>
      </trkpt>
      <trkpt lat="59.9619084" lon="17.7793654">
        <ele>31.8607</ele>
        <time>2014-06-10T18:20:33Z</time>
      </trkpt>
      <trkpt lat="59.9618619" lon="17.7794619">
        <ele>31.8607</ele>
        <time>2014-06-10T18:20:34Z</time>
      </trkpt>
      <trkpt lat="59.9618158" lon="17.7795584">
        <ele>31.8607</ele>
        <time>2014-06-10T18:20:35Z</time>
      </trkpt>
      <trkpt lat="59.9617723" lon="17.7796575">
        <ele>31.8607</ele>
        <time>2014-06-10T18:20:36Z</time>
      </trkpt>
      <trkpt lat="59.961731" lon="17.7797613">
        <ele>31.8607</ele>
        <time>2014-06-10T18:20:37Z</time>
      </trkpt>
      <trkpt lat="59.9616901" lon="17.7798673">
        <ele>31.8607</ele>
        <time>2014-06-10T18:20:38Z</time>
      </trkpt>
      <trkpt lat="59.9616473" lon="17.7799725">
        <ele>31.8607</ele>
        <time>2014-06-10T18:20:39Z</time>
      </trkpt>
      <trkpt lat="59.961602" lon="17.7800761">
        <ele>31.8607</ele>
        <time>2014-06-10T18:20:40Z</time>
      </trkpt>
      <trkpt lat="59.9615548" lon="17.7801782">
        <ele>31.8607</ele>
        <time>2014-06-10T18:20:41Z</time>
      </trkpt>
      <trkpt lat="59.9615062" lon="17.7802785">
        <ele>31.8607</ele>
        <time>2014-06-10T18:20:42Z</time>
      </trkpt>
      <trkpt lat="59.9614568" lon="17.780377">
        <ele>31.8607</ele>
        <time>2014-06-10T18:20:43Z</time>
      </trkpt>
      <trkpt lat="59.9614066" lon="17.7804734">
        <ele>31.8607</ele>
        <time>2014-06-10T18:20:44Z</time>
      </trkpt>
      <trkpt lat="59.961356" lon="17.7805682">
        <ele>31.8607</ele>
        <time>2014-06-10T18:20:45Z</time>
      </trkpt>
      <trkpt lat="59.9613046" lon="17.7806615">
        <ele>31.8607</ele>
        <time>2014-06-10T18:20:46Z</time>
      </trkpt>
      <trkpt lat="59.9612531" lon="17.7807552">
        <ele>31.8607</ele>
        <time>2014-06-10T18:20:47Z</time>
      </trkpt>
      <trkpt lat="59.9612016" lon="17.7808498">
        <ele>31.8607</ele>
        <time>2014-06-10T18:20:48Z</time>
      </trkpt>
      <trkpt lat="59.9611492" lon="17.7809436">
        <ele>31.8607</ele>
        <time>2014-06-10T18:20:49Z</time>
      </trkpt>
      <trkpt lat="59.9610967" lon="17.7810374">
        <ele>31.8607</ele>
        <time>2014-06-10T18:20:50Z</time>
      </trkpt>
      <trkpt lat="59.9610449" lon="17.7811323">
        <ele>31.8607</ele>
        <time>2014-06-10T18:20:51Z</time>
      </trkpt>
      <trkpt lat="59.9609927" lon="17.7812274">
        <ele>31.8607</ele>
        <time>2014-06-10T18:20:52Z</time>
      </trkpt>
      <trkpt lat="59.9609394" lon="17.7813235">
        <ele>31.8607</ele>
        <time>2014-06-10T18:20:53Z</time>
      </trkpt>
      <trkpt lat="59.9608863" lon="17.7814209">
        <ele>31.8607</ele>
        <time>2014-06-10T18:20:54Z</time>
      </trkpt>
      <trkpt lat="59.9608316" lon="17.7815183">
        <ele>31.8607</ele>
        <time>2014-06-10T18:20:55Z</time>
      </trkpt>
      <trkpt lat="59.9607758" lon="17.7816155">
        <ele>31.8607</ele>
        <time>2014-06-10T18:20:56Z</time>
      </trkpt>
      <trkpt lat="59.9607198" lon="17.781714">
        <ele>32.3416</ele>
        <time>2014-06-10T18:20:57Z</time>
      </trkpt>
      <trkpt lat="59.9606644" lon="17.7818143">
        <ele>32.3416</ele>
        <time>2014-06-10T18:20:58Z</time>
      </trkpt>
      <trkpt lat="59.960612" lon="17.781918">
        <ele>31.8607</ele>
        <time>2014-06-10T18:20:59Z</time>
      </trkpt>
      <trkpt lat="59.9605623" lon="17.782026">
        <ele>31.8607</ele>
        <time>2014-06-10T18:21:00Z</time>
      </trkpt>
      <trkpt lat="59.9605161" lon="17.7821388">
        <ele>32.3416</ele>
        <time>2014-06-10T18:21:01Z</time>
      </trkpt>
      <trkpt lat="59.960474" lon="17.7822552">
        <ele>32.3416</ele>
        <time>2014-06-10T18:21:02Z</time>
      </trkpt>
      <trkpt lat="59.9604348" lon="17.782373">
        <ele>32.3416</ele>
        <time>2014-06-10T18:21:03Z</time>
      </trkpt>
      <trkpt lat="59.9603969" lon="17.7824905">
        <ele>32.8223</ele>
        <time>2014-06-10T18:21:04Z</time>
      </trkpt>
      <trkpt lat="59.9603587" lon="17.7826072">
        <ele>32.8223</ele>
        <time>2014-06-10T18:21:05Z</time>
      </trkpt>
      <trkpt lat="59.9603204" lon="17.7827235">
        <ele>32.8223</ele>
        <time>2014-06-10T18:21:06Z</time>
      </trkpt>
      <trkpt lat="59.9602835" lon="17.78284">
        <ele>32.8223</ele>
        <time>2014-06-10T18:21:07Z</time>
      </trkpt>
      <trkpt lat="59.9602459" lon="17.7829568">
        <ele>32.8223</ele>
        <time>2014-06-10T18:21:08Z</time>
      </trkpt>
      <trkpt lat="59.9602073" lon="17.7830728">
        <ele>32.8223</ele>
        <time>2014-06-10T18:21:09Z</time>
      </trkpt>
      <trkpt lat="59.9601686" lon="17.7831912">
        <ele>32.8223</ele>
        <time>2014-06-10T18:21:10Z</time>
      </trkpt>
      <trkpt lat="59.96013" lon="17.7833117">
        <ele>32.3416</ele>
        <time>2014-06-10T18:21:11Z</time>
      </trkpt>
      <trkpt lat="59.9600899" lon="17.7834328">
        <ele>32.3416</ele>
        <time>2014-06-10T18:21:12Z</time>
      </trkpt>
      <trkpt lat="59.9600494" lon="17.7835551">
        <ele>32.3416</ele>
        <time>2014-06-10T18:21:13Z</time>
      </trkpt>
      <trkpt lat="59.960008" lon="17.7836772">
        <ele>32.3416</ele>
        <time>2014-06-10T18:21:14Z</time>
      </trkpt>
      <trkpt lat="59.959965" lon="17.7837965">
        <ele>31.8607</ele>
        <time>2014-06-10T18:21:15Z</time>
      </trkpt>
      <trkpt lat="59.9599197" lon="17.7839131">
        <ele>31.8607</ele>
        <time>2014-06-10T18:21:16Z</time>
      </trkpt>
      <trkpt lat="59.9598718" lon="17.7840259">
        <ele>31.8607</ele>
        <time>2014-06-10T18:21:17Z</time>
      </trkpt>
      <trkpt lat="59.9598227" lon="17.7841352">
        <ele>31.8607</ele>
        <time>2014-06-10T18:21:18Z</time>
      </trkpt>
      <trkpt lat="59.9597717" lon="17.7842393">
        <ele>31.8607</ele>
        <time>2014-06-10T18:21:19Z</time>
      </trkpt>
      <trkpt lat="59.9597175" lon="17.7843358">
        <ele>32.3416</ele>
        <time>2014-06-10T18:21:20Z</time>
      </trkpt>
      <trkpt lat="59.9596621" lon="17.7844274">
        <ele>32.3416</ele>
        <time>2014-06-10T18:21:21Z</time>
      </trkpt>
      <trkpt lat="59.9596063" lon="17.7845174">
        <ele>32.3416</ele>
        <time>2014-06-10T18:21:22Z</time>
      </trkpt>
      <trkpt lat="59.9595504" lon="17.7846087">
        <ele>32.3416</ele>
        <time>2014-06-10T18:21:23Z</time>
      </trkpt>
      <trkpt lat="59.9594946" lon="17.7847009">
        <ele>32.3416</ele>
        <time>2014-06-10T18:21:24Z</time>
      </trkpt>
      <trkpt lat="59.9594377" lon="17.7847919">
        <ele>32.3416</ele>
        <time>2014-06-10T18:21:25Z</time>
      </trkpt>
      <trkpt lat="59.9593789" lon="17.7848818">
        <ele>32.3416</ele>
        <time>2014-06-10T18:21:26Z</time>
      </trkpt>
      <trkpt lat="59.9593183" lon="17.7849709">
        <ele>31.8607</ele>
        <time>2014-06-10T18:21:27Z</time>
      </trkpt>
      <trkpt lat="59.9592552" lon="17.7850545">
        <ele>31.8607</ele>
        <time>2014-06-10T18:21:28Z</time>
      </trkpt>
      <trkpt lat="59.9591885" lon="17.7851284">
        <ele>31.8607</ele>
        <time>2014-06-10T18:21:29Z</time>
      </trkpt>
      <trkpt lat="59.9591185" lon="17.7851941">
        <ele>31.3801</ele>
        <time>2014-06-10T18:21:30Z</time>
      </trkpt>
      <trkpt lat="59.9590462" lon="17.7852548">
        <ele>31.3801</ele>
        <time>2014-06-10T18:21:31Z</time>
      </trkpt>
      <trkpt lat="59.9589731" lon="17.785313">
        <ele>31.3801</ele>
        <time>2014-06-10T18:21:32Z</time>
      </trkpt>
      <trkpt lat="59.9588998" lon="17.785369">
        <ele>31.3801</ele>
        <time>2014-06-10T18:21:33Z</time>
      </trkpt>
      <trkpt lat="59.9588268" lon="17.785425">
        <ele>31.3801</ele>
        <time>2014-06-10T18:21:34Z</time>
      </trkpt>
      <trkpt lat="59.9587553" lon="17.785482">
        <ele>31.3801</ele>
        <time>2014-06-10T18:21:35Z</time>
      </trkpt>
      <trkpt lat="59.9586845" lon="17.7855416">
        <ele>31.3801</ele>
        <time>2014-06-10T18:21:36Z</time>
      </trkpt>
      <trkpt lat="59.9586141" lon="17.7856068">
        <ele>31.3801</ele>
        <time>2014-06-10T18:21:37Z</time>
      </trkpt>
      <trkpt lat="59.9585444" lon="17.7856803">
        <ele>31.3801</ele>
        <time>2014-06-10T18:21:38Z</time>
      </trkpt>
      <trkpt lat="59.958475" lon="17.78576">
        <ele>30.8995</ele>
        <time>2014-06-10T18:21:39Z</time>
      </trkpt>
      <trkpt lat="59.9584049" lon="17.7858415">
        <ele>30.8995</ele>
        <time>2014-06-10T18:21:40Z</time>
      </trkpt>
      <trkpt lat="59.9583348" lon="17.7859202">
        <ele>30.4188</ele>
        <time>2014-06-10T18:21:41Z</time>
      </trkpt>
      <trkpt lat="59.9582659" lon="17.7859973">
        <ele>30.4188</ele>
        <time>2014-06-10T18:21:42Z</time>
      </trkpt>
      <trkpt lat="59.958198" lon="17.786075">
        <ele>30.4188</ele>
        <time>2014-06-10T18:21:43Z</time>
      </trkpt>
      <trkpt lat="59.9581305" lon="17.7861534">
        <ele>30.4188</ele>
        <time>2014-06-10T18:21:44Z</time>
      </trkpt>
      <trkpt lat="59.958063" lon="17.786232">
        <ele>30.4188</ele>
        <time>2014-06-10T18:21:45Z</time>
      </trkpt>
      <trkpt lat="59.957996" lon="17.7863109">
        <ele>30.4188</ele>
        <time>2014-06-10T18:21:46Z</time>
      </trkpt>
      <trkpt lat="59.95793" lon="17.7863911">
        <ele>30.4188</ele>
        <time>2014-06-10T18:21:47Z</time>
      </trkpt>
      <trkpt lat="59.9578655" lon="17.7864735">
        <ele>30.4188</ele>
        <time>2014-06-10T18:21:48Z</time>
      </trkpt>
      <trkpt lat="59.9578045" lon="17.7865626">
        <ele>30.4188</ele>
        <time>2014-06-10T18:21:49Z</time>
      </trkpt>
      <trkpt lat="59.9577494" lon="17.7866601">
        <ele>30.8995</ele>
        <time>2014-06-10T18:21:50Z</time>
      </trkpt>
      <trkpt lat="59.9577021" lon="17.7867683">
        <ele>30.8995</ele>
        <time>2014-06-10T18:21:51Z</time>
      </trkpt>
      <trkpt lat="59.9576635" lon="17.7868873">
        <ele>31.3801</ele>
        <time>2014-06-10T18:21:52Z</time>
      </trkpt>
      <trkpt lat="59.9576328" lon="17.7870143">
        <ele>31.3801</ele>
        <time>2014-06-10T18:21:53Z</time>
      </trkpt>
      <trkpt lat="59.9576079" lon="17.7871463">
        <ele>31.3801</ele>
        <time>2014-06-10T18:21:54Z</time>
      </trkpt>
      <trkpt lat="59.9575851" lon="17.7872804">
        <ele>31.3801</ele>
        <time>2014-06-10T18:21:55Z</time>
      </trkpt>
      <trkpt lat="59.9575588" lon="17.7874153">
        <ele>31.3801</ele>
        <time>2014-06-10T18:21:56Z</time>
      </trkpt>
      <trkpt lat="59.9575267" lon="17.7875495">
        <ele>31.3801</ele>
        <time>2014-06-10T18:21:57Z</time>
      </trkpt>
      <trkpt lat="59.9574915" lon="17.7876845">
        <ele>31.3801</ele>
        <time>2014-06-10T18:21:58Z</time>
      </trkpt>
      <trkpt lat="59.9574553" lon="17.7878198">
        <ele>31.3801</ele>
        <time>2014-06-10T18:21:59Z</time>
      </trkpt>
      <trkpt lat="59.9574182" lon="17.7879539">
        <ele>30.8995</ele>
        <time>2014-06-10T18:22:00Z</time>
      </trkpt>
      <trkpt lat="59.9573813" lon="17.7880875">
        <ele>31.3801</ele>
        <time>2014-06-10T18:22:01Z</time>
      </trkpt>
      <trkpt lat="59.9573449" lon="17.7882181">
        <ele>30.8995</ele>
        <time>2014-06-10T18:22:02Z</time>
      </trkpt>
      <trkpt lat="59.9573087" lon="17.7883456">
        <ele>30.8995</ele>
        <time>2014-06-10T18:22:03Z</time>
      </trkpt>
      <trkpt lat="59.9572719" lon="17.7884737">
        <ele>30.4188</ele>
        <time>2014-06-10T18:22:04Z</time>
      </trkpt>
      <trkpt lat="59.9572319" lon="17.7886014">
        <ele>30.4188</ele>
        <time>2014-06-10T18:22:05Z</time>
      </trkpt>
      <trkpt lat="59.9571874" lon="17.788728">
        <ele>29.9381</ele>
        <time>2014-06-10T18:22:06Z</time>
      </trkpt>
      <trkpt lat="59.9571385" lon="17.7888521">
        <ele>29.9381</ele>
        <time>2014-06-10T18:22:07Z</time>
      </trkpt>
      <trkpt lat="59.9570827" lon="17.7889683">
        <ele>29.9381</ele>
        <time>2014-06-10T18:22:08Z</time>
      </trkpt>
      <trkpt lat="59.9570213" lon="17.789075">
        <ele>29.4575</ele>
        <time>2014-06-10T18:22:09Z</time>
      </trkpt>
      <trkpt lat="59.956944" lon="17.7891699">
        <ele>29.4575</ele>
        <time>2014-06-10T18:22:10Z</time>
      </trkpt>
      <trkpt lat="59.9568782" lon="17.7892651">
        <ele>28.9769</ele>
        <time>2014-06-10T18:22:11Z</time>
      </trkpt>
      <trkpt lat="59.9568088" lon="17.7893532">
        <ele>28.9769</ele>
        <time>2014-06-10T18:22:12Z</time>
      </trkpt>
      <trkpt lat="59.9567383" lon="17.7894484">
        <ele>28.4962</ele>
        <time>2014-06-10T18:22:13Z</time>
      </trkpt>
      <trkpt lat="59.9566785" lon="17.7895387">
        <ele>28.4962</ele>
        <time>2014-06-10T18:22:14Z</time>
      </trkpt>
      <trkpt lat="59.9566228" lon="17.7896418">
        <ele>28.4962</ele>
        <time>2014-06-10T18:22:15Z</time>
      </trkpt>
      <trkpt lat="59.9565845" lon="17.7897624">
        <ele>28.4962</ele>
        <time>2014-06-10T18:22:16Z</time>
      </trkpt>
      <trkpt lat="59.9565529" lon="17.7899002">
        <ele>28.0155</ele>
        <time>2014-06-10T18:22:17Z</time>
      </trkpt>
      <trkpt lat="59.9565425" lon="17.7900652">
        <ele>28.0155</ele>
        <time>2014-06-10T18:22:18Z</time>
      </trkpt>
      <trkpt lat="59.956548" lon="17.7902146">
        <ele>28.4962</ele>
        <time>2014-06-10T18:22:19Z</time>
      </trkpt>
      <trkpt lat="59.9565668" lon="17.7903559">
        <ele>28.4962</ele>
        <time>2014-06-10T18:22:20Z</time>
      </trkpt>
      <trkpt lat="59.9565929" lon="17.7904893">
        <ele>28.4962</ele>
        <time>2014-06-10T18:22:21Z</time>
      </trkpt>
      <trkpt lat="59.9566197" lon="17.7906182">
        <ele>28.9769</ele>
        <time>2014-06-10T18:22:22Z</time>
      </trkpt>
      <trkpt lat="59.9566452" lon="17.7907409">
        <ele>29.4575</ele>
        <time>2014-06-10T18:22:23Z</time>
      </trkpt>
      <trkpt lat="59.9566684" lon="17.7908609">
        <ele>29.9381</ele>
        <time>2014-06-10T18:22:24Z</time>
      </trkpt>
      <trkpt lat="59.9566891" lon="17.7909761">
        <ele>29.9381</ele>
        <time>2014-06-10T18:22:25Z</time>
      </trkpt>
      <trkpt lat="59.956707" lon="17.7910932">
        <ele>30.4188</ele>
        <time>2014-06-10T18:22:26Z</time>
      </trkpt>
      <trkpt lat="59.9567207" lon="17.7912118">
        <ele>30.4188</ele>
        <time>2014-06-10T18:22:27Z</time>
      </trkpt>
      <trkpt lat="59.9567268" lon="17.7913336">
        <ele>30.4188</ele>
        <time>2014-06-10T18:22:28Z</time>
      </trkpt>
      <trkpt lat="59.9567241" lon="17.7914576">
        <ele>30.4188</ele>
        <time>2014-06-10T18:22:29Z</time>
      </trkpt>
      <trkpt lat="59.9567129" lon="17.7915819">
        <ele>30.4188</ele>
        <time>2014-06-10T18:22:30Z</time>
      </trkpt>
      <trkpt lat="59.9566954" lon="17.7917052">
        <ele>30.4188</ele>
        <time>2014-06-10T18:22:31Z</time>
      </trkpt>
      <trkpt lat="59.9566752" lon="17.7918292">
        <ele>30.8995</ele>
        <time>2014-06-10T18:22:32Z</time>
      </trkpt>
      <trkpt lat="59.9566539" lon="17.7919556">
        <ele>30.8995</ele>
        <time>2014-06-10T18:22:33Z</time>
      </trkpt>
      <trkpt lat="59.9566319" lon="17.7920826">
        <ele>30.8995</ele>
        <time>2014-06-10T18:22:34Z</time>
      </trkpt>
      <trkpt lat="59.9566097" lon="17.7922096">
        <ele>30.8995</ele>
        <time>2014-06-10T18:22:35Z</time>
      </trkpt>
      <trkpt lat="59.9565876" lon="17.7923363">
        <ele>30.8995</ele>
        <time>2014-06-10T18:22:36Z</time>
      </trkpt>
      <trkpt lat="59.9565652" lon="17.7924632">
        <ele>30.8995</ele>
        <time>2014-06-10T18:22:37Z</time>
      </trkpt>
      <trkpt lat="59.9565429" lon="17.792591">
        <ele>30.8995</ele>
        <time>2014-06-10T18:22:38Z</time>
      </trkpt>
      <trkpt lat="59.9565198" lon="17.7927196">
        <ele>30.8995</ele>
        <time>2014-06-10T18:22:39Z</time>
      </trkpt>
      <trkpt lat="59.9564963" lon="17.7928492">
        <ele>30.8995</ele>
        <time>2014-06-10T18:22:40Z</time>
      </trkpt>
      <trkpt lat="59.9564729" lon="17.7929795">
        <ele>31.3801</ele>
        <time>2014-06-10T18:22:41Z</time>
      </trkpt>
      <trkpt lat="59.9564488" lon="17.7931096">
        <ele>31.3801</ele>
        <time>2014-06-10T18:22:42Z</time>
      </trkpt>
      <trkpt lat="59.9564239" lon="17.7932389">
        <ele>31.3801</ele>
        <time>2014-06-10T18:22:43Z</time>
      </trkpt>
      <trkpt lat="59.9563975" lon="17.7933698">
        <ele>30.8995</ele>
        <time>2014-06-10T18:22:44Z</time>
      </trkpt>
      <trkpt lat="59.9563698" lon="17.7935022">
        <ele>30.8995</ele>
        <time>2014-06-10T18:22:45Z</time>
      </trkpt>
      <trkpt lat="59.956341" lon="17.7936366">
        <ele>30.8995</ele>
        <time>2014-06-10T18:22:46Z</time>
      </trkpt>
      <trkpt lat="59.9563121" lon="17.7937739">
        <ele>30.8995</ele>
        <time>2014-06-10T18:22:47Z</time>
      </trkpt>
      <trkpt lat="59.9562831" lon="17.7939122">
        <ele>30.8995</ele>
        <time>2014-06-10T18:22:48Z</time>
      </trkpt>
      <trkpt lat="59.9562529" lon="17.7940506">
        <ele>30.4188</ele>
        <time>2014-06-10T18:22:49Z</time>
      </trkpt>
      <trkpt lat="59.9562219" lon="17.7941897">
        <ele>30.4188</ele>
        <time>2014-06-10T18:22:50Z</time>
      </trkpt>
      <trkpt lat="59.9561902" lon="17.7943284">
        <ele>30.4188</ele>
        <time>2014-06-10T18:22:51Z</time>
      </trkpt>
      <trkpt lat="59.9561585" lon="17.7944674">
        <ele>30.4188</ele>
        <time>2014-06-10T18:22:52Z</time>
      </trkpt>
      <trkpt lat="59.9561263" lon="17.7946061">
        <ele>30.4188</ele>
        <time>2014-06-10T18:22:53Z</time>
      </trkpt>
      <trkpt lat="59.9560934" lon="17.7947431">
        <ele>30.4188</ele>
        <time>2014-06-10T18:22:54Z</time>
      </trkpt>
      <trkpt lat="59.9560598" lon="17.7948772">
        <ele>30.4188</ele>
        <time>2014-06-10T18:22:55Z</time>
      </trkpt>
      <trkpt lat="59.9560266" lon="17.7950077">
        <ele>30.4188</ele>
        <time>2014-06-10T18:22:56Z</time>
      </trkpt>
      <trkpt lat="59.955994" lon="17.7951365">
        <ele>30.4188</ele>
        <time>2014-06-10T18:22:57Z</time>
      </trkpt>
      <trkpt lat="59.9559627" lon="17.7952667">
        <ele>30.4188</ele>
        <time>2014-06-10T18:22:58Z</time>
      </trkpt>
      <trkpt lat="59.9559327" lon="17.7953979">
        <ele>30.4188</ele>
        <time>2014-06-10T18:22:59Z</time>
      </trkpt>
      <trkpt lat="59.9559039" lon="17.7955308">
        <ele>30.4188</ele>
        <time>2014-06-10T18:23:00Z</time>
      </trkpt>
      <trkpt lat="59.9558779" lon="17.7956662">
        <ele>30.4188</ele>
        <time>2014-06-10T18:23:01Z</time>
      </trkpt>
      <trkpt lat="59.9558535" lon="17.7958044">
        <ele>30.4188</ele>
        <time>2014-06-10T18:23:02Z</time>
      </trkpt>
      <trkpt lat="59.9558293" lon="17.7959442">
        <ele>30.4188</ele>
        <time>2014-06-10T18:23:03Z</time>
      </trkpt>
      <trkpt lat="59.9558053" lon="17.7960857">
        <ele>30.4188</ele>
        <time>2014-06-10T18:23:04Z</time>
      </trkpt>
      <trkpt lat="59.9557806" lon="17.7962283">
        <ele>30.4188</ele>
        <time>2014-06-10T18:23:05Z</time>
      </trkpt>
      <trkpt lat="59.9557557" lon="17.7963706">
        <ele>30.4188</ele>
        <time>2014-06-10T18:23:06Z</time>
      </trkpt>
      <trkpt lat="59.9557304" lon="17.7965124">
        <ele>30.4188</ele>
        <time>2014-06-10T18:23:07Z</time>
      </trkpt>
      <trkpt lat="59.9557036" lon="17.796653">
        <ele>30.4188</ele>
        <time>2014-06-10T18:23:08Z</time>
      </trkpt>
      <trkpt lat="59.9556753" lon="17.7967921">
        <ele>30.4188</ele>
        <time>2014-06-10T18:23:09Z</time>
      </trkpt>
      <trkpt lat="59.9556451" lon="17.796929">
        <ele>30.4188</ele>
        <time>2014-06-10T18:23:10Z</time>
      </trkpt>
      <trkpt lat="59.9556128" lon="17.797063">
        <ele>30.4188</ele>
        <time>2014-06-10T18:23:11Z</time>
      </trkpt>
      <trkpt lat="59.9555793" lon="17.7971941">
        <ele>30.4188</ele>
        <time>2014-06-10T18:23:12Z</time>
      </trkpt>
      <trkpt lat="59.9555443" lon="17.797322">
        <ele>30.4188</ele>
        <time>2014-06-10T18:23:13Z</time>
      </trkpt>
      <trkpt lat="59.9555086" lon="17.7974461">
        <ele>30.8995</ele>
        <time>2014-06-10T18:23:14Z</time>
      </trkpt>
      <trkpt lat="59.9554729" lon="17.7975667">
        <ele>30.8995</ele>
        <time>2014-06-10T18:23:15Z</time>
      </trkpt>
      <trkpt lat="59.9554374" lon="17.7976838">
        <ele>30.8995</ele>
        <time>2014-06-10T18:23:16Z</time>
      </trkpt>
      <trkpt lat="59.9554016" lon="17.7977991">
        <ele>30.8995</ele>
        <time>2014-06-10T18:23:17Z</time>
      </trkpt>
      <trkpt lat="59.9553671" lon="17.7979143">
        <ele>31.3801</ele>
        <time>2014-06-10T18:23:18Z</time>
      </trkpt>
      <trkpt lat="59.9553334" lon="17.7980288">
        <ele>31.3801</ele>
        <time>2014-06-10T18:23:19Z</time>
      </trkpt>
      <trkpt lat="59.9552999" lon="17.7981412">
        <ele>31.3801</ele>
        <time>2014-06-10T18:23:20Z</time>
      </trkpt>
      <trkpt lat="59.9552665" lon="17.7982505">
        <ele>31.8607</ele>
        <time>2014-06-10T18:23:21Z</time>
      </trkpt>
      <trkpt lat="59.9552322" lon="17.7983575">
        <ele>31.8607</ele>
        <time>2014-06-10T18:23:22Z</time>
      </trkpt>
      <trkpt lat="59.955197" lon="17.7984613">
        <ele>31.8607</ele>
        <time>2014-06-10T18:23:23Z</time>
      </trkpt>
      <trkpt lat="59.9551594" lon="17.7985591">
        <ele>31.8607</ele>
        <time>2014-06-10T18:23:24Z</time>
      </trkpt>
      <trkpt lat="59.9551206" lon="17.7986507">
        <ele>31.8607</ele>
        <time>2014-06-10T18:23:25Z</time>
      </trkpt>
      <trkpt lat="59.955082" lon="17.7987389">
        <ele>31.8607</ele>
        <time>2014-06-10T18:23:26Z</time>
      </trkpt>
      <trkpt lat="59.955043" lon="17.7988244">
        <ele>31.8607</ele>
        <time>2014-06-10T18:23:27Z</time>
      </trkpt>
      <trkpt lat="59.955003" lon="17.7989058">
        <ele>31.8607</ele>
        <time>2014-06-10T18:23:28Z</time>
      </trkpt>
      <trkpt lat="59.9549608" lon="17.798986">
        <ele>31.8607</ele>
        <time>2014-06-10T18:23:29Z</time>
      </trkpt>
      <trkpt lat="59.9549165" lon="17.7990665">
        <ele>31.8607</ele>
        <time>2014-06-10T18:23:30Z</time>
      </trkpt>
      <trkpt lat="59.9548624" lon="17.7991371">
        <ele>31.3801</ele>
        <time>2014-06-10T18:23:31Z</time>
      </trkpt>
      <trkpt lat="59.9548122" lon="17.799221">
        <ele>31.3801</ele>
        <time>2014-06-10T18:23:32Z</time>
      </trkpt>
      <trkpt lat="59.9547605" lon="17.7993129">
        <ele>31.3801</ele>
        <time>2014-06-10T18:23:33Z</time>
      </trkpt>
      <trkpt lat="59.9547107" lon="17.7994103">
        <ele>30.8995</ele>
        <time>2014-06-10T18:23:34Z</time>
      </trkpt>
      <trkpt lat="59.9546606" lon="17.7995123">
        <ele>30.8995</ele>
        <time>2014-06-10T18:23:35Z</time>
      </trkpt>
      <trkpt lat="59.9546098" lon="17.7996195">
        <ele>30.8995</ele>
        <time>2014-06-10T18:23:36Z</time>
      </trkpt>
      <trkpt lat="59.9545586" lon="17.7997305">
        <ele>30.8995</ele>
        <time>2014-06-10T18:23:37Z</time>
      </trkpt>
      <trkpt lat="59.9545083" lon="17.7998435">
        <ele>30.8995</ele>
        <time>2014-06-10T18:23:38Z</time>
      </trkpt>
      <trkpt lat="59.95446" lon="17.7999578">
        <ele>30.8995</ele>
        <time>2014-06-10T18:23:39Z</time>
      </trkpt>
      <trkpt lat="59.9544128" lon="17.8000717">
        <ele>30.8995</ele>
        <time>2014-06-10T18:23:40Z</time>
      </trkpt>
      <trkpt lat="59.9543665" lon="17.8001841">
        <ele>30.8995</ele>
        <time>2014-06-10T18:23:41Z</time>
      </trkpt>
      <trkpt lat="59.9543151" lon="17.800293">
        <ele>31.3801</ele>
        <time>2014-06-10T18:23:42Z</time>
      </trkpt>
      <trkpt lat="59.954272" lon="17.8004039">
        <ele>31.3801</ele>
        <time>2014-06-10T18:23:43Z</time>
      </trkpt>
      <trkpt lat="59.9542266" lon="17.8005238">
        <ele>31.3801</ele>
        <time>2014-06-10T18:23:44Z</time>
      </trkpt>
      <trkpt lat="59.9541823" lon="17.8006357">
        <ele>31.3801</ele>
        <time>2014-06-10T18:23:45Z</time>
      </trkpt>
      <trkpt lat="59.9541387" lon="17.8007425">
        <ele>30.8995</ele>
        <time>2014-06-10T18:23:46Z</time>
      </trkpt>
      <trkpt lat="59.9540949" lon="17.8008515">
        <ele>30.8995</ele>
        <time>2014-06-10T18:23:47Z</time>
      </trkpt>
      <trkpt lat="59.954051" lon="17.8009616">
        <ele>30.8995</ele>
        <time>2014-06-10T18:23:48Z</time>
      </trkpt>
      <trkpt lat="59.9540066" lon="17.8010648">
        <ele>30.8995</ele>
        <time>2014-06-10T18:23:49Z</time>
      </trkpt>
      <trkpt lat="59.9539643" lon="17.8011736">
        <ele>30.8995</ele>
        <time>2014-06-10T18:23:50Z</time>
      </trkpt>
      <trkpt lat="59.9539244" lon="17.801276">
        <ele>31.3801</ele>
        <time>2014-06-10T18:23:51Z</time>
      </trkpt>
      <trkpt lat="59.9538846" lon="17.801377">
        <ele>31.3801</ele>
        <time>2014-06-10T18:23:52Z</time>
      </trkpt>
      <trkpt lat="59.9538455" lon="17.8014777">
        <ele>31.3801</ele>
        <time>2014-06-10T18:23:53Z</time>
      </trkpt>
      <trkpt lat="59.9538106" lon="17.8015731">
        <ele>31.3801</ele>
        <time>2014-06-10T18:23:54Z</time>
      </trkpt>
      <trkpt lat="59.9537829" lon="17.8016502">
        <ele>31.8607</ele>
        <time>2014-06-10T18:23:55Z</time>
      </trkpt>
      <trkpt lat="59.9537551" lon="17.8017578">
        <ele>31.3801</ele>
        <time>2014-06-10T18:23:56Z</time>
      </trkpt>
      <trkpt lat="59.953722" lon="17.801876">
        <ele>31.8607</ele>
        <time>2014-06-10T18:23:57Z</time>
      </trkpt>
      <trkpt lat="59.9536855" lon="17.801992">
        <ele>32.3416</ele>
        <time>2014-06-10T18:23:58Z</time>
      </trkpt>
      <trkpt lat="59.953653" lon="17.8021085">
        <ele>32.3416</ele>
        <time>2014-06-10T18:23:59Z</time>
      </trkpt>
      <trkpt lat="59.9536261" lon="17.8022284">
        <ele>32.8223</ele>
        <time>2014-06-10T18:24:00Z</time>
      </trkpt>
      <trkpt lat="59.9536012" lon="17.8023478">
        <ele>32.8223</ele>
        <time>2014-06-10T18:24:01Z</time>
      </trkpt>
      <trkpt lat="59.9535774" lon="17.8024662">
        <ele>32.8223</ele>
        <time>2014-06-10T18:24:02Z</time>
      </trkpt>
      <trkpt lat="59.9535525" lon="17.8025812">
        <ele>32.8223</ele>
        <time>2014-06-10T18:24:03Z</time>
      </trkpt>
      <trkpt lat="59.9535312" lon="17.8026909">
        <ele>33.3029</ele>
        <time>2014-06-10T18:24:04Z</time>
      </trkpt>
      <trkpt lat="59.9535105" lon="17.8027945">
        <ele>33.3029</ele>
        <time>2014-06-10T18:24:05Z</time>
      </trkpt>
      <trkpt lat="59.9534886" lon="17.8028949">
        <ele>33.3029</ele>
        <time>2014-06-10T18:24:06Z</time>
      </trkpt>
      <trkpt lat="59.9534656" lon="17.8029935">
        <ele>33.3029</ele>
        <time>2014-06-10T18:24:07Z</time>
      </trkpt>
      <trkpt lat="59.9534421" lon="17.8030907">
        <ele>33.3029</ele>
        <time>2014-06-10T18:24:08Z</time>
      </trkpt>
      <trkpt lat="59.9534158" lon="17.80319">
        <ele>33.3029</ele>
        <time>2014-06-10T18:24:09Z</time>
      </trkpt>
      <trkpt lat="59.9533869" lon="17.8032941">
        <ele>33.3029</ele>
        <time>2014-06-10T18:24:10Z</time>
      </trkpt>
      <trkpt lat="59.9533573" lon="17.8033896">
        <ele>33.3029</ele>
        <time>2014-06-10T18:24:11Z</time>
      </trkpt>
      <trkpt lat="59.9533257" lon="17.8034829">
        <ele>33.3029</ele>
        <time>2014-06-10T18:24:12Z</time>
      </trkpt>
      <trkpt lat="59.9532918" lon="17.8035694">
        <ele>33.3029</ele>
        <time>2014-06-10T18:24:13Z</time>
      </trkpt>
      <trkpt lat="59.9532557" lon="17.8036537">
        <ele>33.3029</ele>
        <time>2014-06-10T18:24:14Z</time>
      </trkpt>
      <trkpt lat="59.9532185" lon="17.8037373">
        <ele>32.8223</ele>
        <time>2014-06-10T18:24:15Z</time>
      </trkpt>
      <trkpt lat="59.9531791" lon="17.8038232">
        <ele>32.3416</ele>
        <time>2014-06-10T18:24:16Z</time>
      </trkpt>
      <trkpt lat="59.9531365" lon="17.8039119">
        <ele>32.3416</ele>
        <time>2014-06-10T18:24:17Z</time>
      </trkpt>
      <trkpt lat="59.9530906" lon="17.8040045">
        <ele>31.8607</ele>
        <time>2014-06-10T18:24:18Z</time>
      </trkpt>
      <trkpt lat="59.9530439" lon="17.8040968">
        <ele>30.8995</ele>
        <time>2014-06-10T18:24:19Z</time>
      </trkpt>
      <trkpt lat="59.9529963" lon="17.8041996">
        <ele>30.4188</ele>
        <time>2014-06-10T18:24:20Z</time>
      </trkpt>
      <trkpt lat="59.9529501" lon="17.804309">
        <ele>30.4188</ele>
        <time>2014-06-10T18:24:21Z</time>
      </trkpt>
      <trkpt lat="59.9529077" lon="17.8044308">
        <ele>29.9381</ele>
        <time>2014-06-10T18:24:22Z</time>
      </trkpt>
      <trkpt lat="59.9528719" lon="17.804565">
        <ele>29.4575</ele>
        <time>2014-06-10T18:24:23Z</time>
      </trkpt>
      <trkpt lat="59.9528403" lon="17.8047221">
        <ele>28.9769</ele>
        <time>2014-06-10T18:24:24Z</time>
      </trkpt>
      <trkpt lat="59.9528154" lon="17.8048824">
        <ele>28.9769</ele>
        <time>2014-06-10T18:24:25Z</time>
      </trkpt>
      <trkpt lat="59.952795" lon="17.8050405">
        <ele>28.9769</ele>
        <time>2014-06-10T18:24:26Z</time>
      </trkpt>
      <trkpt lat="59.9527749" lon="17.8051939">
        <ele>28.9769</ele>
        <time>2014-06-10T18:24:27Z</time>
      </trkpt>
      <trkpt lat="59.952756" lon="17.8053493">
        <ele>28.9769</ele>
        <time>2014-06-10T18:24:28Z</time>
      </trkpt>
      <trkpt lat="59.9527385" lon="17.805504">
        <ele>28.9769</ele>
        <time>2014-06-10T18:24:29Z</time>
      </trkpt>
      <trkpt lat="59.9527206" lon="17.8056575">
        <ele>29.4575</ele>
        <time>2014-06-10T18:24:30Z</time>
      </trkpt>
      <trkpt lat="59.9527009" lon="17.805813">
        <ele>29.4575</ele>
        <time>2014-06-10T18:24:31Z</time>
      </trkpt>
      <trkpt lat="59.9526803" lon="17.8059668">
        <ele>29.4575</ele>
        <time>2014-06-10T18:24:32Z</time>
      </trkpt>
      <trkpt lat="59.9526577" lon="17.8061192">
        <ele>29.4575</ele>
        <time>2014-06-10T18:24:33Z</time>
      </trkpt>
      <trkpt lat="59.9526325" lon="17.8062696">
        <ele>29.4575</ele>
        <time>2014-06-10T18:24:34Z</time>
      </trkpt>
      <trkpt lat="59.9526033" lon="17.806415">
        <ele>29.4575</ele>
        <time>2014-06-10T18:24:35Z</time>
      </trkpt>
      <trkpt lat="59.9525728" lon="17.8065597">
        <ele>29.4575</ele>
        <time>2014-06-10T18:24:36Z</time>
      </trkpt>
      <trkpt lat="59.9525414" lon="17.8067028">
        <ele>29.4575</ele>
        <time>2014-06-10T18:24:37Z</time>
      </trkpt>
      <trkpt lat="59.9525088" lon="17.8068489">
        <ele>29.4575</ele>
        <time>2014-06-10T18:24:38Z</time>
      </trkpt>
      <trkpt lat="59.9524738" lon="17.806999">
        <ele>28.9769</ele>
        <time>2014-06-10T18:24:39Z</time>
      </trkpt>
      <trkpt lat="59.952436" lon="17.807149">
        <ele>28.9769</ele>
        <time>2014-06-10T18:24:40Z</time>
      </trkpt>
      <trkpt lat="59.9523968" lon="17.8073007">
        <ele>28.4962</ele>
        <time>2014-06-10T18:24:41Z</time>
      </trkpt>
      <trkpt lat="59.9523563" lon="17.8074535">
        <ele>28.4962</ele>
        <time>2014-06-10T18:24:42Z</time>
      </trkpt>
      <trkpt lat="59.952315" lon="17.8076077">
        <ele>28.4962</ele>
        <time>2014-06-10T18:24:43Z</time>
      </trkpt>
      <trkpt lat="59.9522741" lon="17.8077627">
        <ele>28.4962</ele>
        <time>2014-06-10T18:24:44Z</time>
      </trkpt>
      <trkpt lat="59.9522331" lon="17.8079164">
        <ele>28.4962</ele>
        <time>2014-06-10T18:24:45Z</time>
      </trkpt>
      <trkpt lat="59.9521929" lon="17.8080683">
        <ele>28.4962</ele>
        <time>2014-06-10T18:24:46Z</time>
      </trkpt>
      <trkpt lat="59.9521539" lon="17.808218">
        <ele>28.4962</ele>
        <time>2014-06-10T18:24:47Z</time>
      </trkpt>
      <trkpt lat="59.952116" lon="17.808365">
        <ele>28.4962</ele>
        <time>2014-06-10T18:24:48Z</time>
      </trkpt>
      <trkpt lat="59.9520773" lon="17.8085101">
        <ele>28.4962</ele>
        <time>2014-06-10T18:24:49Z</time>
      </trkpt>
      <trkpt lat="59.9520375" lon="17.8086535">
        <ele>28.4962</ele>
        <time>2014-06-10T18:24:50Z</time>
      </trkpt>
      <trkpt lat="59.9519985" lon="17.8087956">
        <ele>28.4962</ele>
        <time>2014-06-10T18:24:51Z</time>
      </trkpt>
      <trkpt lat="59.9519607" lon="17.808937">
        <ele>28.4962</ele>
        <time>2014-06-10T18:24:52Z</time>
      </trkpt>
      <trkpt lat="59.9519235" lon="17.8090785">
        <ele>28.4962</ele>
        <time>2014-06-10T18:24:53Z</time>
      </trkpt>
      <trkpt lat="59.9518869" lon="17.8092199">
        <ele>28.4962</ele>
        <time>2014-06-10T18:24:54Z</time>
      </trkpt>
      <trkpt lat="59.9518498" lon="17.8093597">
        <ele>28.4962</ele>
        <time>2014-06-10T18:24:55Z</time>
      </trkpt>
      <trkpt lat="59.9518129" lon="17.8094989">
        <ele>28.4962</ele>
        <time>2014-06-10T18:24:56Z</time>
      </trkpt>
      <trkpt lat="59.9517764" lon="17.809637">
        <ele>28.4962</ele>
        <time>2014-06-10T18:24:57Z</time>
      </trkpt>
      <trkpt lat="59.9517411" lon="17.809773">
        <ele>28.4962</ele>
        <time>2014-06-10T18:24:58Z</time>
      </trkpt>
      <trkpt lat="59.9517059" lon="17.8099058">
        <ele>28.4962</ele>
        <time>2014-06-10T18:24:59Z</time>
      </trkpt>
      <trkpt lat="59.9516715" lon="17.8100373">
        <ele>28.4962</ele>
        <time>2014-06-10T18:25:00Z</time>
      </trkpt>
      <trkpt lat="59.9516378" lon="17.8101684">
        <ele>28.4962</ele>
        <time>2014-06-10T18:25:01Z</time>
      </trkpt>
      <trkpt lat="59.9516052" lon="17.8102993">
        <ele>28.9769</ele>
        <time>2014-06-10T18:25:02Z</time>
      </trkpt>
      <trkpt lat="59.9515746" lon="17.8104304">
        <ele>28.9769</ele>
        <time>2014-06-10T18:25:03Z</time>
      </trkpt>
      <trkpt lat="59.9515453" lon="17.8105614">
        <ele>28.9769</ele>
        <time>2014-06-10T18:25:04Z</time>
      </trkpt>
      <trkpt lat="59.9515174" lon="17.8106921">
        <ele>28.9769</ele>
        <time>2014-06-10T18:25:05Z</time>
      </trkpt>
      <trkpt lat="59.9514922" lon="17.810823">
        <ele>28.9769</ele>
        <time>2014-06-10T18:25:06Z</time>
      </trkpt>
      <trkpt lat="59.9514692" lon="17.8109538">
        <ele>28.9769</ele>
        <time>2014-06-10T18:25:07Z</time>
      </trkpt>
      <trkpt lat="59.951448" lon="17.8110837">
        <ele>28.9769</ele>
        <time>2014-06-10T18:25:08Z</time>
      </trkpt>
      <trkpt lat="59.9514275" lon="17.8112136">
        <ele>28.9769</ele>
        <time>2014-06-10T18:25:09Z</time>
      </trkpt>
      <trkpt lat="59.9514083" lon="17.8113437">
        <ele>28.9769</ele>
        <time>2014-06-10T18:25:10Z</time>
      </trkpt>
      <trkpt lat="59.9513909" lon="17.8114753">
        <ele>28.9769</ele>
        <time>2014-06-10T18:25:11Z</time>
      </trkpt>
      <trkpt lat="59.9513736" lon="17.8116085">
        <ele>28.9769</ele>
        <time>2014-06-10T18:25:12Z</time>
      </trkpt>
      <trkpt lat="59.9513575" lon="17.8117432">
        <ele>28.9769</ele>
        <time>2014-06-10T18:25:13Z</time>
      </trkpt>
      <trkpt lat="59.9513433" lon="17.8118807">
        <ele>28.4962</ele>
        <time>2014-06-10T18:25:14Z</time>
      </trkpt>
      <trkpt lat="59.9513324" lon="17.8120212">
        <ele>28.4962</ele>
        <time>2014-06-10T18:25:15Z</time>
      </trkpt>
      <trkpt lat="59.9513252" lon="17.812164">
        <ele>28.4962</ele>
        <time>2014-06-10T18:25:16Z</time>
      </trkpt>
      <trkpt lat="59.9513206" lon="17.8123083">
        <ele>28.4962</ele>
        <time>2014-06-10T18:25:17Z</time>
      </trkpt>
      <trkpt lat="59.9513174" lon="17.8124532">
        <ele>28.4962</ele>
        <time>2014-06-10T18:25:18Z</time>
      </trkpt>
      <trkpt lat="59.9513158" lon="17.8125989">
        <ele>28.4962</ele>
        <time>2014-06-10T18:25:19Z</time>
      </trkpt>
      <trkpt lat="59.9513152" lon="17.8127459">
        <ele>28.0155</ele>
        <time>2014-06-10T18:25:20Z</time>
      </trkpt>
      <trkpt lat="59.9513138" lon="17.8128934">
        <ele>28.0155</ele>
        <time>2014-06-10T18:25:21Z</time>
      </trkpt>
      <trkpt lat="59.9513126" lon="17.8130416">
        <ele>28.0155</ele>
        <time>2014-06-10T18:25:22Z</time>
      </trkpt>
      <trkpt lat="59.9513114" lon="17.8131903">
        <ele>28.0155</ele>
        <time>2014-06-10T18:25:23Z</time>
      </trkpt>
      <trkpt lat="59.9513102" lon="17.8133395">
        <ele>28.0155</ele>
        <time>2014-06-10T18:25:24Z</time>
      </trkpt>
      <trkpt lat="59.9513094" lon="17.8134887">
        <ele>27.5349</ele>
        <time>2014-06-10T18:25:25Z</time>
      </trkpt>
      <trkpt lat="59.9513081" lon="17.8136368">
        <ele>27.5349</ele>
        <time>2014-06-10T18:25:26Z</time>
      </trkpt>
      <trkpt lat="59.951307" lon="17.8137849">
        <ele>27.5349</ele>
        <time>2014-06-10T18:25:27Z</time>
      </trkpt>
      <trkpt lat="59.9513065" lon="17.8139332">
        <ele>27.5349</ele>
        <time>2014-06-10T18:25:28Z</time>
      </trkpt>
      <trkpt lat="59.9513059" lon="17.8140817">
        <ele>27.5349</ele>
        <time>2014-06-10T18:25:29Z</time>
      </trkpt>
      <trkpt lat="59.9513055" lon="17.8142309">
        <ele>27.5349</ele>
        <time>2014-06-10T18:25:30Z</time>
      </trkpt>
      <trkpt lat="59.9513049" lon="17.8143813">
        <ele>27.5349</ele>
        <time>2014-06-10T18:25:31Z</time>
      </trkpt>
      <trkpt lat="59.9513035" lon="17.8145322">
        <ele>27.5349</ele>
        <time>2014-06-10T18:25:32Z</time>
      </trkpt>
      <trkpt lat="59.9513023" lon="17.8146827">
        <ele>27.5349</ele>
        <time>2014-06-10T18:25:33Z</time>
      </trkpt>
      <trkpt lat="59.9513011" lon="17.8148328">
        <ele>27.5349</ele>
        <time>2014-06-10T18:25:34Z</time>
      </trkpt>
      <trkpt lat="59.9512986" lon="17.8149834">
        <ele>27.0543</ele>
        <time>2014-06-10T18:25:35Z</time>
      </trkpt>
      <trkpt lat="59.9512949" lon="17.8151339">
        <ele>27.0543</ele>
        <time>2014-06-10T18:25:36Z</time>
      </trkpt>
      <trkpt lat="59.9512902" lon="17.8152837">
        <ele>27.0543</ele>
        <time>2014-06-10T18:25:37Z</time>
      </trkpt>
      <trkpt lat="59.9512847" lon="17.8154339">
        <ele>27.0543</ele>
        <time>2014-06-10T18:25:38Z</time>
      </trkpt>
      <trkpt lat="59.9512783" lon="17.8155846">
        <ele>27.0543</ele>
        <time>2014-06-10T18:25:39Z</time>
      </trkpt>
      <trkpt lat="59.9512715" lon="17.8157359">
        <ele>27.0543</ele>
        <time>2014-06-10T18:25:40Z</time>
      </trkpt>
      <trkpt lat="59.9512643" lon="17.8158876">
        <ele>27.0543</ele>
        <time>2014-06-10T18:25:41Z</time>
      </trkpt>
      <trkpt lat="59.9512548" lon="17.8160395">
        <ele>27.0543</ele>
        <time>2014-06-10T18:25:42Z</time>
      </trkpt>
      <trkpt lat="59.9512433" lon="17.8161907">
        <ele>27.0543</ele>
        <time>2014-06-10T18:25:43Z</time>
      </trkpt>
      <trkpt lat="59.9512313" lon="17.8163411">
        <ele>27.0543</ele>
        <time>2014-06-10T18:25:44Z</time>
      </trkpt>
      <trkpt lat="59.9512188" lon="17.8164908">
        <ele>27.0543</ele>
        <time>2014-06-10T18:25:45Z</time>
      </trkpt>
      <trkpt lat="59.9512056" lon="17.8166389">
        <ele>27.5349</ele>
        <time>2014-06-10T18:25:46Z</time>
      </trkpt>
      <trkpt lat="59.9511915" lon="17.8167857">
        <ele>27.5349</ele>
        <time>2014-06-10T18:25:47Z</time>
      </trkpt>
      <trkpt lat="59.9511768" lon="17.8169318">
        <ele>27.5349</ele>
        <time>2014-06-10T18:25:48Z</time>
      </trkpt>
      <trkpt lat="59.9511619" lon="17.8170782">
        <ele>27.5349</ele>
        <time>2014-06-10T18:25:49Z</time>
      </trkpt>
      <trkpt lat="59.9511473" lon="17.8172245">
        <ele>27.5349</ele>
        <time>2014-06-10T18:25:50Z</time>
      </trkpt>
      <trkpt lat="59.9511333" lon="17.8173696">
        <ele>27.5349</ele>
        <time>2014-06-10T18:25:51Z</time>
      </trkpt>
      <trkpt lat="59.9511198" lon="17.8175132">
        <ele>27.5349</ele>
        <time>2014-06-10T18:25:52Z</time>
      </trkpt>
      <trkpt lat="59.9511059" lon="17.8176565">
        <ele>27.5349</ele>
        <time>2014-06-10T18:25:53Z</time>
      </trkpt>
      <trkpt lat="59.9510913" lon="17.8177992">
        <ele>27.5349</ele>
        <time>2014-06-10T18:25:54Z</time>
      </trkpt>
      <trkpt lat="59.951077" lon="17.8179416">
        <ele>27.5349</ele>
        <time>2014-06-10T18:25:55Z</time>
      </trkpt>
      <trkpt lat="59.951063" lon="17.8180826">
        <ele>27.5349</ele>
        <time>2014-06-10T18:25:56Z</time>
      </trkpt>
      <trkpt lat="59.9510493" lon="17.8182219">
        <ele>27.5349</ele>
        <time>2014-06-10T18:25:57Z</time>
      </trkpt>
      <trkpt lat="59.9510349" lon="17.8183587">
        <ele>28.0155</ele>
        <time>2014-06-10T18:25:58Z</time>
      </trkpt>
      <trkpt lat="59.9510204" lon="17.8184929">
        <ele>28.0155</ele>
        <time>2014-06-10T18:25:59Z</time>
      </trkpt>
      <trkpt lat="59.951007" lon="17.8186253">
        <ele>28.0155</ele>
        <time>2014-06-10T18:26:00Z</time>
      </trkpt>
      <trkpt lat="59.9509936" lon="17.818757">
        <ele>28.0155</ele>
        <time>2014-06-10T18:26:01Z</time>
      </trkpt>
      <trkpt lat="59.9509815" lon="17.8188897">
        <ele>27.5349</ele>
        <time>2014-06-10T18:26:02Z</time>
      </trkpt>
      <trkpt lat="59.9509718" lon="17.8190242">
        <ele>27.5349</ele>
        <time>2014-06-10T18:26:03Z</time>
      </trkpt>
      <trkpt lat="59.9509645" lon="17.8191603">
        <ele>27.5349</ele>
        <time>2014-06-10T18:26:04Z</time>
      </trkpt>
      <trkpt lat="59.9509594" lon="17.8192989">
        <ele>27.5349</ele>
        <time>2014-06-10T18:26:05Z</time>
      </trkpt>
      <trkpt lat="59.9509561" lon="17.8194403">
        <ele>27.0543</ele>
        <time>2014-06-10T18:26:06Z</time>
      </trkpt>
      <trkpt lat="59.950954" lon="17.8195832">
        <ele>27.0543</ele>
        <time>2014-06-10T18:26:07Z</time>
      </trkpt>
      <trkpt lat="59.9509522" lon="17.819728">
        <ele>27.0543</ele>
        <time>2014-06-10T18:26:08Z</time>
      </trkpt>
      <trkpt lat="59.9509501" lon="17.8198753">
        <ele>27.0543</ele>
        <time>2014-06-10T18:26:09Z</time>
      </trkpt>
      <trkpt lat="59.9509476" lon="17.8200244">
        <ele>26.5736</ele>
        <time>2014-06-10T18:26:10Z</time>
      </trkpt>
      <trkpt lat="59.9509438" lon="17.8201736">
        <ele>26.5736</ele>
        <time>2014-06-10T18:26:11Z</time>
      </trkpt>
      <trkpt lat="59.9509377" lon="17.8203223">
        <ele>26.5736</ele>
        <time>2014-06-10T18:26:12Z</time>
      </trkpt>
      <trkpt lat="59.9509308" lon="17.8204695">
        <ele>26.5736</ele>
        <time>2014-06-10T18:26:13Z</time>
      </trkpt>
      <trkpt lat="59.9509232" lon="17.8206159">
        <ele>26.5736</ele>
        <time>2014-06-10T18:26:14Z</time>
      </trkpt>
      <trkpt lat="59.9509143" lon="17.8207617">
        <ele>26.5736</ele>
        <time>2014-06-10T18:26:15Z</time>
      </trkpt>
      <trkpt lat="59.9509039" lon="17.8209067">
        <ele>26.5736</ele>
        <time>2014-06-10T18:26:16Z</time>
      </trkpt>
      <trkpt lat="59.9508926" lon="17.8210524">
        <ele>26.0929</ele>
        <time>2014-06-10T18:26:17Z</time>
      </trkpt>
      <trkpt lat="59.9508815" lon="17.8211992">
        <ele>26.0929</ele>
        <time>2014-06-10T18:26:18Z</time>
      </trkpt>
      <trkpt lat="59.9508694" lon="17.8213459">
        <ele>26.0929</ele>
        <time>2014-06-10T18:26:19Z</time>
      </trkpt>
      <trkpt lat="59.9508556" lon="17.8214924">
        <ele>26.0929</ele>
        <time>2014-06-10T18:26:20Z</time>
      </trkpt>
      <trkpt lat="59.9508408" lon="17.821639">
        <ele>26.0929</ele>
        <time>2014-06-10T18:26:21Z</time>
      </trkpt>
      <trkpt lat="59.9508252" lon="17.8217851">
        <ele>26.0929</ele>
        <time>2014-06-10T18:26:22Z</time>
      </trkpt>
      <trkpt lat="59.9508084" lon="17.8219316">
        <ele>26.0929</ele>
        <time>2014-06-10T18:26:23Z</time>
      </trkpt>
      <trkpt lat="59.9507916" lon="17.8220791">
        <ele>26.0929</ele>
        <time>2014-06-10T18:26:24Z</time>
      </trkpt>
      <trkpt lat="59.9507749" lon="17.8222259">
        <ele>26.0929</ele>
        <time>2014-06-10T18:26:25Z</time>
      </trkpt>
      <trkpt lat="59.9507583" lon="17.8223711">
        <ele>26.0929</ele>
        <time>2014-06-10T18:26:26Z</time>
      </trkpt>
      <trkpt lat="59.9507419" lon="17.8225159">
        <ele>25.6123</ele>
        <time>2014-06-10T18:26:27Z</time>
      </trkpt>
      <trkpt lat="59.9507256" lon="17.8226607">
        <ele>25.6123</ele>
        <time>2014-06-10T18:26:28Z</time>
      </trkpt>
      <trkpt lat="59.9507098" lon="17.8228062">
        <ele>25.6123</ele>
        <time>2014-06-10T18:26:29Z</time>
      </trkpt>
      <trkpt lat="59.9506957" lon="17.8229513">
        <ele>25.6123</ele>
        <time>2014-06-10T18:26:30Z</time>
      </trkpt>
      <trkpt lat="59.9506828" lon="17.8230968">
        <ele>25.6123</ele>
        <time>2014-06-10T18:26:31Z</time>
      </trkpt>
      <trkpt lat="59.9506702" lon="17.8232422">
        <ele>25.6123</ele>
        <time>2014-06-10T18:26:32Z</time>
      </trkpt>
      <trkpt lat="59.950657" lon="17.8233868">
        <ele>25.6123</ele>
        <time>2014-06-10T18:26:33Z</time>
      </trkpt>
      <trkpt lat="59.9506419" lon="17.8235304">
        <ele>25.6123</ele>
        <time>2014-06-10T18:26:34Z</time>
      </trkpt>
      <trkpt lat="59.9506247" lon="17.8236738">
        <ele>25.6123</ele>
        <time>2014-06-10T18:26:35Z</time>
      </trkpt>
      <trkpt lat="59.950605" lon="17.8238158">
        <ele>25.6123</ele>
        <time>2014-06-10T18:26:36Z</time>
      </trkpt>
      <trkpt lat="59.9505818" lon="17.8239576">
        <ele>25.6123</ele>
        <time>2014-06-10T18:26:37Z</time>
      </trkpt>
      <trkpt lat="59.9505559" lon="17.8240981">
        <ele>25.6123</ele>
        <time>2014-06-10T18:26:38Z</time>
      </trkpt>
      <trkpt lat="59.9505285" lon="17.8242379">
        <ele>25.6123</ele>
        <time>2014-06-10T18:26:39Z</time>
      </trkpt>
      <trkpt lat="59.9504989" lon="17.8243768">
        <ele>25.1317</ele>
        <time>2014-06-10T18:26:40Z</time>
      </trkpt>
      <trkpt lat="59.9504679" lon="17.8245177">
        <ele>25.1317</ele>
        <time>2014-06-10T18:26:41Z</time>
      </trkpt>
      <trkpt lat="59.9504372" lon="17.8246571">
        <ele>25.1317</ele>
        <time>2014-06-10T18:26:42Z</time>
      </trkpt>
      <trkpt lat="59.9504071" lon="17.8247942">
        <ele>25.1317</ele>
        <time>2014-06-10T18:26:43Z</time>
      </trkpt>
      <trkpt lat="59.9503769" lon="17.8249301">
        <ele>25.1317</ele>
        <time>2014-06-10T18:26:44Z</time>
      </trkpt>
      <trkpt lat="59.9503465" lon="17.8250658">
        <ele>25.1317</ele>
        <time>2014-06-10T18:26:45Z</time>
      </trkpt>
      <trkpt lat="59.9503163" lon="17.8252019">
        <ele>25.1317</ele>
        <time>2014-06-10T18:26:46Z</time>
      </trkpt>
      <trkpt lat="59.9502854" lon="17.8253378">
        <ele>25.1317</ele>
        <time>2014-06-10T18:26:47Z</time>
      </trkpt>
      <trkpt lat="59.9502533" lon="17.8254733">
        <ele>25.1317</ele>
        <time>2014-06-10T18:26:48Z</time>
      </trkpt>
      <trkpt lat="59.9502224" lon="17.8256096">
        <ele>25.1317</ele>
        <time>2014-06-10T18:26:49Z</time>
      </trkpt>
      <trkpt lat="59.9501922" lon="17.8257449">
        <ele>25.1317</ele>
        <time>2014-06-10T18:26:50Z</time>
      </trkpt>
      <trkpt lat="59.9501615" lon="17.825878">
        <ele>25.1317</ele>
        <time>2014-06-10T18:26:51Z</time>
      </trkpt>
      <trkpt lat="59.9501311" lon="17.8260095">
        <ele>25.1317</ele>
        <time>2014-06-10T18:26:52Z</time>
      </trkpt>
      <trkpt lat="59.950103" lon="17.8261415">
        <ele>25.1317</ele>
        <time>2014-06-10T18:26:53Z</time>
      </trkpt>
      <trkpt lat="59.9500778" lon="17.8262748">
        <ele>25.1317</ele>
        <time>2014-06-10T18:26:54Z</time>
      </trkpt>
      <trkpt lat="59.9500559" lon="17.8264099">
        <ele>25.1317</ele>
        <time>2014-06-10T18:26:55Z</time>
      </trkpt>
      <trkpt lat="59.9500379" lon="17.8265464">
        <ele>25.1317</ele>
        <time>2014-06-10T18:26:56Z</time>
      </trkpt>
      <trkpt lat="59.9500233" lon="17.8266836">
        <ele>25.1317</ele>
        <time>2014-06-10T18:26:57Z</time>
      </trkpt>
      <trkpt lat="59.9500117" lon="17.8268207">
        <ele>25.1317</ele>
        <time>2014-06-10T18:26:58Z</time>
      </trkpt>
      <trkpt lat="59.9500029" lon="17.8269569">
        <ele>25.1317</ele>
        <time>2014-06-10T18:26:59Z</time>
      </trkpt>
      <trkpt lat="59.9499962" lon="17.8270929">
        <ele>25.1317</ele>
        <time>2014-06-10T18:27:00Z</time>
      </trkpt>
      <trkpt lat="59.9499912" lon="17.827229">
        <ele>24.651</ele>
        <time>2014-06-10T18:27:01Z</time>
      </trkpt>
      <trkpt lat="59.9499881" lon="17.8273657">
        <ele>24.651</ele>
        <time>2014-06-10T18:27:02Z</time>
      </trkpt>
      <trkpt lat="59.9499874" lon="17.8275029">
        <ele>24.651</ele>
        <time>2014-06-10T18:27:03Z</time>
      </trkpt>
      <trkpt lat="59.9499876" lon="17.8276403">
        <ele>24.651</ele>
        <time>2014-06-10T18:27:04Z</time>
      </trkpt>
      <trkpt lat="59.9499875" lon="17.8277775">
        <ele>24.651</ele>
        <time>2014-06-10T18:27:05Z</time>
      </trkpt>
      <trkpt lat="59.9499879" lon="17.8279139">
        <ele>24.651</ele>
        <time>2014-06-10T18:27:06Z</time>
      </trkpt>
      <trkpt lat="59.9499893" lon="17.82805">
        <ele>24.651</ele>
        <time>2014-06-10T18:27:07Z</time>
      </trkpt>
      <trkpt lat="59.9499917" lon="17.8281851">
        <ele>24.651</ele>
        <time>2014-06-10T18:27:08Z</time>
      </trkpt>
      <trkpt lat="59.9499946" lon="17.8283188">
        <ele>24.651</ele>
        <time>2014-06-10T18:27:09Z</time>
      </trkpt>
      <trkpt lat="59.9499984" lon="17.8284506">
        <ele>24.651</ele>
        <time>2014-06-10T18:27:10Z</time>
      </trkpt>
      <trkpt lat="59.9500022" lon="17.8285813">
        <ele>24.651</ele>
        <time>2014-06-10T18:27:11Z</time>
      </trkpt>
      <trkpt lat="59.9500048" lon="17.8287104">
        <ele>24.651</ele>
        <time>2014-06-10T18:27:12Z</time>
      </trkpt>
      <trkpt lat="59.9500056" lon="17.8288377">
        <ele>24.651</ele>
        <time>2014-06-10T18:27:13Z</time>
      </trkpt>
      <trkpt lat="59.9500058" lon="17.8289654">
        <ele>24.651</ele>
        <time>2014-06-10T18:27:14Z</time>
      </trkpt>
      <trkpt lat="59.950005" lon="17.8290936">
        <ele>24.651</ele>
        <time>2014-06-10T18:27:15Z</time>
      </trkpt>
      <trkpt lat="59.95" lon="17.8292209">
        <ele>24.651</ele>
        <time>2014-06-10T18:27:16Z</time>
      </trkpt>
      <trkpt lat="59.949991" lon="17.8293459">
        <ele>24.651</ele>
        <time>2014-06-10T18:27:17Z</time>
      </trkpt>
      <trkpt lat="59.949981" lon="17.8294667">
        <ele>25.1317</ele>
        <time>2014-06-10T18:27:18Z</time>
      </trkpt>
      <trkpt lat="59.9499695" lon="17.8295828">
        <ele>25.1317</ele>
        <time>2014-06-10T18:27:19Z</time>
      </trkpt>
      <trkpt lat="59.9499489" lon="17.8296888">
        <ele>25.1317</ele>
        <time>2014-06-10T18:27:20Z</time>
      </trkpt>
      <trkpt lat="59.9499135" lon="17.8297731">
        <ele>25.1317</ele>
        <time>2014-06-10T18:27:21Z</time>
      </trkpt>
      <trkpt lat="59.9498648" lon="17.8298211">
        <ele>25.1317</ele>
        <time>2014-06-10T18:27:22Z</time>
      </trkpt>
      <trkpt lat="59.949809" lon="17.8298212">
        <ele>25.1317</ele>
        <time>2014-06-10T18:27:23Z</time>
      </trkpt>
      <trkpt lat="59.949755" lon="17.829777">
        <ele>25.1317</ele>
        <time>2014-06-10T18:27:24Z</time>
      </trkpt>
      <trkpt lat="59.9497049" lon="17.8297068">
        <ele>25.1317</ele>
        <time>2014-06-10T18:27:25Z</time>
      </trkpt>
      <trkpt lat="59.9496556" lon="17.8296268">
        <ele>24.651</ele>
        <time>2014-06-10T18:27:26Z</time>
      </trkpt>
      <trkpt lat="59.9496054" lon="17.8295433">
        <ele>24.651</ele>
        <time>2014-06-10T18:27:27Z</time>
      </trkpt>
      <trkpt lat="59.9495541" lon="17.8294576">
        <ele>24.651</ele>
        <time>2014-06-10T18:27:28Z</time>
      </trkpt>
      <trkpt lat="59.9495007" lon="17.8293703">
        <ele>24.651</ele>
        <time>2014-06-10T18:27:29Z</time>
      </trkpt>
      <trkpt lat="59.9494442" lon="17.8292834">
        <ele>24.1703</ele>
        <time>2014-06-10T18:27:30Z</time>
      </trkpt>
      <trkpt lat="59.9493844" lon="17.8291988">
        <ele>24.1703</ele>
        <time>2014-06-10T18:27:31Z</time>
      </trkpt>
      <trkpt lat="59.9493223" lon="17.8291149">
        <ele>24.1703</ele>
        <time>2014-06-10T18:27:32Z</time>
      </trkpt>
      <trkpt lat="59.949258" lon="17.8290335">
        <ele>24.1703</ele>
        <time>2014-06-10T18:27:33Z</time>
      </trkpt>
      <trkpt lat="59.9491915" lon="17.8289553">
        <ele>23.6896</ele>
        <time>2014-06-10T18:27:34Z</time>
      </trkpt>
      <trkpt lat="59.9491241" lon="17.8288773">
        <ele>23.6896</ele>
        <time>2014-06-10T18:27:35Z</time>
      </trkpt>
      <trkpt lat="59.9490558" lon="17.8287987">
        <ele>23.6896</ele>
        <time>2014-06-10T18:27:36Z</time>
      </trkpt>
      <trkpt lat="59.9489873" lon="17.8287204">
        <ele>23.6896</ele>
        <time>2014-06-10T18:27:37Z</time>
      </trkpt>
      <trkpt lat="59.9489188" lon="17.8286421">
        <ele>23.6896</ele>
        <time>2014-06-10T18:27:38Z</time>
      </trkpt>
      <trkpt lat="59.94885" lon="17.8285644">
        <ele>24.1703</ele>
        <time>2014-06-10T18:27:39Z</time>
      </trkpt>
      <trkpt lat="59.9487804" lon="17.8284876">
        <ele>24.1703</ele>
        <time>2014-06-10T18:27:40Z</time>
      </trkpt>
      <trkpt lat="59.9487102" lon="17.8284112">
        <ele>24.1703</ele>
        <time>2014-06-10T18:27:41Z</time>
      </trkpt>
      <trkpt lat="59.9486398" lon="17.8283345">
        <ele>24.1703</ele>
        <time>2014-06-10T18:27:42Z</time>
      </trkpt>
      <trkpt lat="59.9485696" lon="17.8282565">
        <ele>24.1703</ele>
        <time>2014-06-10T18:27:43Z</time>
      </trkpt>
      <trkpt lat="59.9484994" lon="17.8281795">
        <ele>24.651</ele>
        <time>2014-06-10T18:27:44Z</time>
      </trkpt>
      <trkpt lat="59.9484292" lon="17.8281043">
        <ele>24.651</ele>
        <time>2014-06-10T18:27:45Z</time>
      </trkpt>
      <trkpt lat="59.9483593" lon="17.8280286">
        <ele>24.651</ele>
        <time>2014-06-10T18:27:46Z</time>
      </trkpt>
      <trkpt lat="59.94829" lon="17.8279522">
        <ele>24.651</ele>
        <time>2014-06-10T18:27:47Z</time>
      </trkpt>
      <trkpt lat="59.9482213" lon="17.8278761">
        <ele>24.651</ele>
        <time>2014-06-10T18:27:48Z</time>
      </trkpt>
      <trkpt lat="59.9481528" lon="17.8278022">
        <ele>24.651</ele>
        <time>2014-06-10T18:27:49Z</time>
      </trkpt>
      <trkpt lat="59.9480839" lon="17.8277299">
        <ele>24.1703</ele>
        <time>2014-06-10T18:27:50Z</time>
      </trkpt>
      <trkpt lat="59.9480145" lon="17.8276595">
        <ele>24.1703</ele>
        <time>2014-06-10T18:27:51Z</time>
      </trkpt>
      <trkpt lat="59.9479451" lon="17.8275905">
        <ele>24.1703</ele>
        <time>2014-06-10T18:27:52Z</time>
      </trkpt>
      <trkpt lat="59.9478763" lon="17.8275189">
        <ele>24.1703</ele>
        <time>2014-06-10T18:27:53Z</time>
      </trkpt>
      <trkpt lat="59.9478076" lon="17.8274474">
        <ele>24.1703</ele>
        <time>2014-06-10T18:27:54Z</time>
      </trkpt>
      <trkpt lat="59.9477392" lon="17.8273766">
        <ele>24.1703</ele>
        <time>2014-06-10T18:27:55Z</time>
      </trkpt>
      <trkpt lat="59.9476712" lon="17.8273055">
        <ele>24.1703</ele>
        <time>2014-06-10T18:27:56Z</time>
      </trkpt>
      <trkpt lat="59.9476036" lon="17.8272341">
        <ele>24.1703</ele>
        <time>2014-06-10T18:27:57Z</time>
      </trkpt>
      <trkpt lat="59.9475362" lon="17.8271626">
        <ele>24.651</ele>
        <time>2014-06-10T18:27:58Z</time>
      </trkpt>
      <trkpt lat="59.9474681" lon="17.8270911">
        <ele>24.651</ele>
        <time>2014-06-10T18:27:59Z</time>
      </trkpt>
      <trkpt lat="59.9473997" lon="17.8270195">
        <ele>24.651</ele>
        <time>2014-06-10T18:28:00Z</time>
      </trkpt>
      <trkpt lat="59.9473308" lon="17.8269472">
        <ele>24.651</ele>
        <time>2014-06-10T18:28:01Z</time>
      </trkpt>
      <trkpt lat="59.9472618" lon="17.8268741">
        <ele>24.651</ele>
        <time>2014-06-10T18:28:02Z</time>
      </trkpt>
      <trkpt lat="59.9471924" lon="17.826801">
        <ele>24.651</ele>
        <time>2014-06-10T18:28:03Z</time>
      </trkpt>
      <trkpt lat="59.9471226" lon="17.826729">
        <ele>25.1317</ele>
        <time>2014-06-10T18:28:04Z</time>
      </trkpt>
      <trkpt lat="59.9470526" lon="17.826657">
        <ele>25.1317</ele>
        <time>2014-06-10T18:28:05Z</time>
      </trkpt>
      <trkpt lat="59.9469826" lon="17.8265836">
        <ele>25.1317</ele>
        <time>2014-06-10T18:28:06Z</time>
      </trkpt>
      <trkpt lat="59.9469125" lon="17.8265099">
        <ele>25.1317</ele>
        <time>2014-06-10T18:28:07Z</time>
      </trkpt>
      <trkpt lat="59.9468422" lon="17.8264363">
        <ele>25.6123</ele>
        <time>2014-06-10T18:28:08Z</time>
      </trkpt>
      <trkpt lat="59.9467718" lon="17.8263628">
        <ele>25.6123</ele>
        <time>2014-06-10T18:28:09Z</time>
      </trkpt>
      <trkpt lat="59.9467014" lon="17.8262898">
        <ele>25.6123</ele>
        <time>2014-06-10T18:28:10Z</time>
      </trkpt>
      <trkpt lat="59.9465606" lon="17.8261448">
        <ele>26.0929</ele>
        <time>2014-06-10T18:28:12Z</time>
      </trkpt>
      <trkpt lat="59.94649" lon="17.8260717">
        <ele>26.0929</ele>
        <time>2014-06-10T18:28:13Z</time>
      </trkpt>
      <trkpt lat="59.946419" lon="17.8259977">
        <ele>26.5736</ele>
        <time>2014-06-10T18:28:14Z</time>
      </trkpt>
      <trkpt lat="59.9463477" lon="17.8259235">
        <ele>26.5736</ele>
        <time>2014-06-10T18:28:15Z</time>
      </trkpt>
      <trkpt lat="59.9462767" lon="17.8258504">
        <ele>26.5736</ele>
        <time>2014-06-10T18:28:16Z</time>
      </trkpt>
      <trkpt lat="59.9462062" lon="17.8257787">
        <ele>27.0543</ele>
        <time>2014-06-10T18:28:17Z</time>
      </trkpt>
      <trkpt lat="59.9461362" lon="17.8257066">
        <ele>27.0543</ele>
        <time>2014-06-10T18:28:18Z</time>
      </trkpt>
      <trkpt lat="59.9460666" lon="17.8256341">
        <ele>27.0543</ele>
        <time>2014-06-10T18:28:19Z</time>
      </trkpt>
      <trkpt lat="59.9459972" lon="17.8255625">
        <ele>27.5349</ele>
        <time>2014-06-10T18:28:20Z</time>
      </trkpt>
      <trkpt lat="59.9459269" lon="17.8254942">
        <ele>27.5349</ele>
        <time>2014-06-10T18:28:21Z</time>
      </trkpt>
      <trkpt lat="59.945856" lon="17.8254274">
        <ele>27.5349</ele>
        <time>2014-06-10T18:28:22Z</time>
      </trkpt>
      <trkpt lat="59.9457853" lon="17.8253573">
        <ele>28.0155</ele>
        <time>2014-06-10T18:28:23Z</time>
      </trkpt>
      <trkpt lat="59.9457146" lon="17.8252833">
        <ele>28.0155</ele>
        <time>2014-06-10T18:28:24Z</time>
      </trkpt>
      <trkpt lat="59.9456437" lon="17.8252063">
        <ele>28.0155</ele>
        <time>2014-06-10T18:28:25Z</time>
      </trkpt>
      <trkpt lat="59.9455726" lon="17.8251269">
        <ele>28.4962</ele>
        <time>2014-06-10T18:28:26Z</time>
      </trkpt>
      <trkpt lat="59.9455006" lon="17.8250472">
        <ele>28.4962</ele>
        <time>2014-06-10T18:28:27Z</time>
      </trkpt>
      <trkpt lat="59.9454279" lon="17.82497">
        <ele>28.4962</ele>
        <time>2014-06-10T18:28:28Z</time>
      </trkpt>
      <trkpt lat="59.9453546" lon="17.8248944">
        <ele>28.9769</ele>
        <time>2014-06-10T18:28:29Z</time>
      </trkpt>
      <trkpt lat="59.9452815" lon="17.8248186">
        <ele>28.9769</ele>
        <time>2014-06-10T18:28:30Z</time>
      </trkpt>
      <trkpt lat="59.9452079" lon="17.824742">
        <ele>28.9769</ele>
        <time>2014-06-10T18:28:31Z</time>
      </trkpt>
      <trkpt lat="59.9451343" lon="17.8246654">
        <ele>29.4575</ele>
        <time>2014-06-10T18:28:32Z</time>
      </trkpt>
      <trkpt lat="59.9450608" lon="17.8245897">
        <ele>29.4575</ele>
        <time>2014-06-10T18:28:33Z</time>
      </trkpt>
      <trkpt lat="59.9449877" lon="17.8245157">
        <ele>29.4575</ele>
        <time>2014-06-10T18:28:34Z</time>
      </trkpt>
      <trkpt lat="59.9449158" lon="17.8244421">
        <ele>29.4575</ele>
        <time>2014-06-10T18:28:35Z</time>
      </trkpt>
      <trkpt lat="59.9448453" lon="17.8243687">
        <ele>29.9381</ele>
        <time>2014-06-10T18:28:36Z</time>
      </trkpt>
      <trkpt lat="59.9447758" lon="17.8242954">
        <ele>29.9381</ele>
        <time>2014-06-10T18:28:37Z</time>
      </trkpt>
      <trkpt lat="59.9447065" lon="17.824222">
        <ele>29.9381</ele>
        <time>2014-06-10T18:28:38Z</time>
      </trkpt>
      <trkpt lat="59.9446371" lon="17.8241474">
        <ele>29.9381</ele>
        <time>2014-06-10T18:28:39Z</time>
      </trkpt>
      <trkpt lat="59.9445673" lon="17.824072">
        <ele>29.9381</ele>
        <time>2014-06-10T18:28:40Z</time>
      </trkpt>
      <trkpt lat="59.9444977" lon="17.8239957">
        <ele>29.9381</ele>
        <time>2014-06-10T18:28:41Z</time>
      </trkpt>
      <trkpt lat="59.9444295" lon="17.8239183">
        <ele>29.9381</ele>
        <time>2014-06-10T18:28:42Z</time>
      </trkpt>
      <trkpt lat="59.9443621" lon="17.8238405">
        <ele>29.9381</ele>
        <time>2014-06-10T18:28:43Z</time>
      </trkpt>
      <trkpt lat="59.9442955" lon="17.823763">
        <ele>29.9381</ele>
        <time>2014-06-10T18:28:44Z</time>
      </trkpt>
      <trkpt lat="59.9442288" lon="17.8236843">
        <ele>29.4575</ele>
        <time>2014-06-10T18:28:45Z</time>
      </trkpt>
      <trkpt lat="59.9441624" lon="17.8236032">
        <ele>29.4575</ele>
        <time>2014-06-10T18:28:46Z</time>
      </trkpt>
      <trkpt lat="59.9440953" lon="17.8235202">
        <ele>28.9769</ele>
        <time>2014-06-10T18:28:47Z</time>
      </trkpt>
      <trkpt lat="59.9440259" lon="17.8234355">
        <ele>28.4962</ele>
        <time>2014-06-10T18:28:48Z</time>
      </trkpt>
      <trkpt lat="59.9439553" lon="17.8233477">
        <ele>28.4962</ele>
        <time>2014-06-10T18:28:49Z</time>
      </trkpt>
      <trkpt lat="59.9438839" lon="17.8232579">
        <ele>28.0155</ele>
        <time>2014-06-10T18:28:50Z</time>
      </trkpt>
      <trkpt lat="59.9438113" lon="17.8231677">
        <ele>28.0155</ele>
        <time>2014-06-10T18:28:51Z</time>
      </trkpt>
      <trkpt lat="59.9437377" lon="17.8230766">
        <ele>27.5349</ele>
        <time>2014-06-10T18:28:52Z</time>
      </trkpt>
      <trkpt lat="59.9436632" lon="17.8229842">
        <ele>27.5349</ele>
        <time>2014-06-10T18:28:53Z</time>
      </trkpt>
      <trkpt lat="59.9435881" lon="17.8228897">
        <ele>27.5349</ele>
        <time>2014-06-10T18:28:54Z</time>
      </trkpt>
      <trkpt lat="59.9435115" lon="17.8227949">
        <ele>27.0543</ele>
        <time>2014-06-10T18:28:55Z</time>
      </trkpt>
      <trkpt lat="59.9434342" lon="17.822699">
        <ele>27.0543</ele>
        <time>2014-06-10T18:28:56Z</time>
      </trkpt>
      <trkpt lat="59.943356" lon="17.8226016">
        <ele>26.5736</ele>
        <time>2014-06-10T18:28:57Z</time>
      </trkpt>
      <trkpt lat="59.9432768" lon="17.8225037">
        <ele>26.5736</ele>
        <time>2014-06-10T18:28:58Z</time>
      </trkpt>
      <trkpt lat="59.943197" lon="17.8224039">
        <ele>26.0929</ele>
        <time>2014-06-10T18:28:59Z</time>
      </trkpt>
      <trkpt lat="59.9431163" lon="17.8223038">
        <ele>26.0929</ele>
        <time>2014-06-10T18:29:00Z</time>
      </trkpt>
      <trkpt lat="59.9430352" lon="17.8222028">
        <ele>26.0929</ele>
        <time>2014-06-10T18:29:01Z</time>
      </trkpt>
      <trkpt lat="59.9429533" lon="17.8221006">
        <ele>25.6123</ele>
        <time>2014-06-10T18:29:02Z</time>
      </trkpt>
      <trkpt lat="59.9428706" lon="17.8219975">
        <ele>25.6123</ele>
        <time>2014-06-10T18:29:03Z</time>
      </trkpt>
      <trkpt lat="59.9427874" lon="17.8218951">
        <ele>25.1317</ele>
        <time>2014-06-10T18:29:04Z</time>
      </trkpt>
      <trkpt lat="59.9427045" lon="17.8217924">
        <ele>25.1317</ele>
        <time>2014-06-10T18:29:05Z</time>
      </trkpt>
      <trkpt lat="59.942621" lon="17.8216879">
        <ele>24.651</ele>
        <time>2014-06-10T18:29:06Z</time>
      </trkpt>
      <trkpt lat="59.9425359" lon="17.8215827">
        <ele>24.651</ele>
        <time>2014-06-10T18:29:07Z</time>
      </trkpt>
      <trkpt lat="59.94245" lon="17.8214765">
        <ele>24.1703</ele>
        <time>2014-06-10T18:29:08Z</time>
      </trkpt>
      <trkpt lat="59.9423634" lon="17.8213688">
        <ele>24.1703</ele>
        <time>2014-06-10T18:29:09Z</time>
      </trkpt>
      <trkpt lat="59.9422756" lon="17.8212599">
        <ele>23.6896</ele>
        <time>2014-06-10T18:29:10Z</time>
      </trkpt>
      <trkpt lat="59.9421872" lon="17.8211503">
        <ele>23.6896</ele>
        <time>2014-06-10T18:29:11Z</time>
      </trkpt>
      <trkpt lat="59.9420979" lon="17.8210403">
        <ele>23.209</ele>
        <time>2014-06-10T18:29:12Z</time>
      </trkpt>
      <trkpt lat="59.942008" lon="17.8209299">
        <ele>23.209</ele>
        <time>2014-06-10T18:29:13Z</time>
      </trkpt>
      <trkpt lat="59.9419175" lon="17.8208181">
        <ele>23.209</ele>
        <time>2014-06-10T18:29:14Z</time>
      </trkpt>
      <trkpt lat="59.9418274" lon="17.8207057">
        <ele>22.7283</ele>
        <time>2014-06-10T18:29:15Z</time>
      </trkpt>
      <trkpt lat="59.9417374" lon="17.8205937">
        <ele>22.7283</ele>
        <time>2014-06-10T18:29:16Z</time>
      </trkpt>
      <trkpt lat="59.9416483" lon="17.8204824">
        <ele>22.7283</ele>
        <time>2014-06-10T18:29:17Z</time>
      </trkpt>
      <trkpt lat="59.9415602" lon="17.8203726">
        <ele>22.7283</ele>
        <time>2014-06-10T18:29:18Z</time>
      </trkpt>
      <trkpt lat="59.9414735" lon="17.820265">
        <ele>22.7283</ele>
        <time>2014-06-10T18:29:19Z</time>
      </trkpt>
      <trkpt lat="59.9413892" lon="17.8201597">
        <ele>23.209</ele>
        <time>2014-06-10T18:29:20Z</time>
      </trkpt>
      <trkpt lat="59.9413076" lon="17.8200565">
        <ele>23.209</ele>
        <time>2014-06-10T18:29:21Z</time>
      </trkpt>
      <trkpt lat="59.941228" lon="17.8199565">
        <ele>23.6896</ele>
        <time>2014-06-10T18:29:22Z</time>
      </trkpt>
      <trkpt lat="59.9411503" lon="17.8198598">
        <ele>23.6896</ele>
        <time>2014-06-10T18:29:23Z</time>
      </trkpt>
      <trkpt lat="59.9410745" lon="17.8197664">
        <ele>24.1703</ele>
        <time>2014-06-10T18:29:24Z</time>
      </trkpt>
      <trkpt lat="59.941001" lon="17.8196764">
        <ele>24.1703</ele>
        <time>2014-06-10T18:29:25Z</time>
      </trkpt>
      <trkpt lat="59.9409297" lon="17.8195893">
        <ele>24.651</ele>
        <time>2014-06-10T18:29:26Z</time>
      </trkpt>
      <trkpt lat="59.9408608" lon="17.8195039">
        <ele>24.651</ele>
        <time>2014-06-10T18:29:27Z</time>
      </trkpt>
      <trkpt lat="59.9407941" lon="17.8194204">
        <ele>25.1317</ele>
        <time>2014-06-10T18:29:28Z</time>
      </trkpt>
      <trkpt lat="59.9407287" lon="17.8193387">
        <ele>25.1317</ele>
        <time>2014-06-10T18:29:29Z</time>
      </trkpt>
      <trkpt lat="59.9406646" lon="17.8192588">
        <ele>25.1317</ele>
        <time>2014-06-10T18:29:30Z</time>
      </trkpt>
      <trkpt lat="59.9406008" lon="17.8191798">
        <ele>25.6123</ele>
        <time>2014-06-10T18:29:31Z</time>
      </trkpt>
      <trkpt lat="59.9405375" lon="17.8191008">
        <ele>25.6123</ele>
        <time>2014-06-10T18:29:32Z</time>
      </trkpt>
      <trkpt lat="59.9404745" lon="17.8190212">
        <ele>26.0929</ele>
        <time>2014-06-10T18:29:33Z</time>
      </trkpt>
      <trkpt lat="59.9404122" lon="17.8189424">
        <ele>26.0929</ele>
        <time>2014-06-10T18:29:34Z</time>
      </trkpt>
      <trkpt lat="59.9403505" lon="17.8188645">
        <ele>26.0929</ele>
        <time>2014-06-10T18:29:35Z</time>
      </trkpt>
      <trkpt lat="59.9402889" lon="17.8187884">
        <ele>26.5736</ele>
        <time>2014-06-10T18:29:36Z</time>
      </trkpt>
      <trkpt lat="59.9402272" lon="17.8187155">
        <ele>26.5736</ele>
        <time>2014-06-10T18:29:37Z</time>
      </trkpt>
      <trkpt lat="59.9401652" lon="17.8186456">
        <ele>26.5736</ele>
        <time>2014-06-10T18:29:38Z</time>
      </trkpt>
      <trkpt lat="59.9401036" lon="17.8185754">
        <ele>27.0543</ele>
        <time>2014-06-10T18:29:39Z</time>
      </trkpt>
      <trkpt lat="59.9400423" lon="17.8185036">
        <ele>27.0543</ele>
        <time>2014-06-10T18:29:40Z</time>
      </trkpt>
      <trkpt lat="59.939981" lon="17.8184306">
        <ele>27.0543</ele>
        <time>2014-06-10T18:29:41Z</time>
      </trkpt>
      <trkpt lat="59.9399197" lon="17.8183576">
        <ele>27.5349</ele>
        <time>2014-06-10T18:29:42Z</time>
      </trkpt>
      <trkpt lat="59.9398588" lon="17.8182864">
        <ele>27.5349</ele>
        <time>2014-06-10T18:29:43Z</time>
      </trkpt>
      <trkpt lat="59.9397985" lon="17.8182171">
        <ele>27.5349</ele>
        <time>2014-06-10T18:29:44Z</time>
      </trkpt>
      <trkpt lat="59.9397403" lon="17.8181502">
        <ele>28.0155</ele>
        <time>2014-06-10T18:29:45Z</time>
      </trkpt>
      <trkpt lat="59.9396857" lon="17.8180815">
        <ele>28.0155</ele>
        <time>2014-06-10T18:29:46Z</time>
      </trkpt>
      <trkpt lat="59.9396336" lon="17.8180162">
        <ele>28.0155</ele>
        <time>2014-06-10T18:29:47Z</time>
      </trkpt>
      <trkpt lat="59.9395797" lon="17.8179742">
        <ele>28.0155</ele>
        <time>2014-06-10T18:29:48Z</time>
      </trkpt>
      <trkpt lat="59.9395253" lon="17.8179727">
        <ele>28.0155</ele>
        <time>2014-06-10T18:29:49Z</time>
      </trkpt>
      <trkpt lat="59.9394766" lon="17.8180152">
        <ele>28.4962</ele>
        <time>2014-06-10T18:29:50Z</time>
      </trkpt>
      <trkpt lat="59.9394368" lon="17.8180903">
        <ele>28.4962</ele>
        <time>2014-06-10T18:29:51Z</time>
      </trkpt>
      <trkpt lat="59.939401" lon="17.8181814">
        <ele>28.0155</ele>
        <time>2014-06-10T18:29:52Z</time>
      </trkpt>
      <trkpt lat="59.9393622" lon="17.8182763">
        <ele>28.0155</ele>
        <time>2014-06-10T18:29:53Z</time>
      </trkpt>
      <trkpt lat="59.9393156" lon="17.8183622">
        <ele>28.0155</ele>
        <time>2014-06-10T18:29:54Z</time>
      </trkpt>
      <trkpt lat="59.9392612" lon="17.8184312">
        <ele>28.0155</ele>
        <time>2014-06-10T18:29:55Z</time>
      </trkpt>
      <trkpt lat="59.9392036" lon="17.8184938">
        <ele>28.0155</ele>
        <time>2014-06-10T18:29:56Z</time>
      </trkpt>
      <trkpt lat="59.939147" lon="17.8185653">
        <ele>28.0155</ele>
        <time>2014-06-10T18:29:57Z</time>
      </trkpt>
      <trkpt lat="59.9390932" lon="17.8186521">
        <ele>28.0155</ele>
        <time>2014-06-10T18:29:58Z</time>
      </trkpt>
      <trkpt lat="59.9390411" lon="17.8187493">
        <ele>27.5349</ele>
        <time>2014-06-10T18:29:59Z</time>
      </trkpt>
      <trkpt lat="59.938989" lon="17.81885">
        <ele>27.5349</ele>
        <time>2014-06-10T18:30:00Z</time>
      </trkpt>
      <trkpt lat="59.9389364" lon="17.8189524">
        <ele>28.0155</ele>
        <time>2014-06-10T18:30:01Z</time>
      </trkpt>
      <trkpt lat="59.9388841" lon="17.8190577">
        <ele>28.0155</ele>
        <time>2014-06-10T18:30:02Z</time>
      </trkpt>
      <trkpt lat="59.9388328" lon="17.8191651">
        <ele>28.0155</ele>
        <time>2014-06-10T18:30:03Z</time>
      </trkpt>
      <trkpt lat="59.9387824" lon="17.819272">
        <ele>28.0155</ele>
        <time>2014-06-10T18:30:04Z</time>
      </trkpt>
      <trkpt lat="59.9387328" lon="17.819377">
        <ele>28.0155</ele>
        <time>2014-06-10T18:30:05Z</time>
      </trkpt>
      <trkpt lat="59.9386839" lon="17.8194805">
        <ele>28.0155</ele>
        <time>2014-06-10T18:30:06Z</time>
      </trkpt>
      <trkpt lat="59.9386357" lon="17.8195841">
        <ele>28.0155</ele>
        <time>2014-06-10T18:30:07Z</time>
      </trkpt>
      <trkpt lat="59.9385881" lon="17.8196894">
        <ele>28.0155</ele>
        <time>2014-06-10T18:30:08Z</time>
      </trkpt>
      <trkpt lat="59.9385404" lon="17.8197962">
        <ele>27.5349</ele>
        <time>2014-06-10T18:30:09Z</time>
      </trkpt>
      <trkpt lat="59.9384914" lon="17.8199032">
        <ele>27.5349</ele>
        <time>2014-06-10T18:30:10Z</time>
      </trkpt>
      <trkpt lat="59.9384402" lon="17.8200095">
        <ele>27.5349</ele>
        <time>2014-06-10T18:30:11Z</time>
      </trkpt>
      <trkpt lat="59.9383857" lon="17.8201134">
        <ele>27.0543</ele>
        <time>2014-06-10T18:30:12Z</time>
      </trkpt>
      <trkpt lat="59.9383275" lon="17.8202124">
        <ele>27.0543</ele>
        <time>2014-06-10T18:30:13Z</time>
      </trkpt>
      <trkpt lat="59.9382671" lon="17.8203082">
        <ele>26.5736</ele>
        <time>2014-06-10T18:30:14Z</time>
      </trkpt>
      <trkpt lat="59.9382065" lon="17.8204071">
        <ele>26.0929</ele>
        <time>2014-06-10T18:30:15Z</time>
      </trkpt>
      <trkpt lat="59.9381469" lon="17.820512">
        <ele>26.0929</ele>
        <time>2014-06-10T18:30:16Z</time>
      </trkpt>
      <trkpt lat="59.9380868" lon="17.8206206">
        <ele>25.6123</ele>
        <time>2014-06-10T18:30:17Z</time>
      </trkpt>
      <trkpt lat="59.9380248" lon="17.8207291">
        <ele>25.1317</ele>
        <time>2014-06-10T18:30:18Z</time>
      </trkpt>
      <trkpt lat="59.9379602" lon="17.8208352">
        <ele>24.651</ele>
        <time>2014-06-10T18:30:19Z</time>
      </trkpt>
      <trkpt lat="59.9378908" lon="17.8209335">
        <ele>24.1703</ele>
        <time>2014-06-10T18:30:20Z</time>
      </trkpt>
      <trkpt lat="59.9378157" lon="17.8210206">
        <ele>24.1703</ele>
        <time>2014-06-10T18:30:21Z</time>
      </trkpt>
      <trkpt lat="59.9377377" lon="17.821103">
        <ele>23.6896</ele>
        <time>2014-06-10T18:30:22Z</time>
      </trkpt>
      <trkpt lat="59.9376601" lon="17.8211926">
        <ele>23.209</ele>
        <time>2014-06-10T18:30:23Z</time>
      </trkpt>
      <trkpt lat="59.937586" lon="17.8212976">
        <ele>22.7283</ele>
        <time>2014-06-10T18:30:24Z</time>
      </trkpt>
      <trkpt lat="59.9375163" lon="17.8214105">
        <ele>22.2476</ele>
        <time>2014-06-10T18:30:25Z</time>
      </trkpt>
      <trkpt lat="59.9374523" lon="17.821534">
        <ele>21.767</ele>
        <time>2014-06-10T18:30:26Z</time>
      </trkpt>
      <trkpt lat="59.9374029" lon="17.8216735">
        <ele>21.767</ele>
        <time>2014-06-10T18:30:27Z</time>
      </trkpt>
      <trkpt lat="59.9373685" lon="17.821821">
        <ele>21.2864</ele>
        <time>2014-06-10T18:30:28Z</time>
      </trkpt>
      <trkpt lat="59.9373528" lon="17.8219783">
        <ele>21.767</ele>
        <time>2014-06-10T18:30:29Z</time>
      </trkpt>
      <trkpt lat="59.9373563" lon="17.8221345">
        <ele>22.2476</ele>
        <time>2014-06-10T18:30:30Z</time>
      </trkpt>
      <trkpt lat="59.9373658" lon="17.8222863">
        <ele>22.2476</ele>
        <time>2014-06-10T18:30:31Z</time>
      </trkpt>
      <trkpt lat="59.9373645" lon="17.8224347">
        <ele>22.2476</ele>
        <time>2014-06-10T18:30:32Z</time>
      </trkpt>
      <trkpt lat="59.9373457" lon="17.8225742">
        <ele>22.7283</ele>
        <time>2014-06-10T18:30:33Z</time>
      </trkpt>
      <trkpt lat="59.937316" lon="17.8227011">
        <ele>22.7283</ele>
        <time>2014-06-10T18:30:34Z</time>
      </trkpt>
      <trkpt lat="59.9372834" lon="17.8228239">
        <ele>23.209</ele>
        <time>2014-06-10T18:30:35Z</time>
      </trkpt>
      <trkpt lat="59.9372523" lon="17.822946">
        <ele>23.209</ele>
        <time>2014-06-10T18:30:36Z</time>
      </trkpt>
      <trkpt lat="59.9372234" lon="17.8230652">
        <ele>23.6896</ele>
        <time>2014-06-10T18:30:37Z</time>
      </trkpt>
      <trkpt lat="59.9372008" lon="17.8231803">
        <ele>23.6896</ele>
        <time>2014-06-10T18:30:38Z</time>
      </trkpt>
      <trkpt lat="59.9371903" lon="17.8232952">
        <ele>23.6896</ele>
        <time>2014-06-10T18:30:39Z</time>
      </trkpt>
      <trkpt lat="59.9371841" lon="17.8234102">
        <ele>24.1703</ele>
        <time>2014-06-10T18:30:40Z</time>
      </trkpt>
      <trkpt lat="59.9371653" lon="17.8235206">
        <ele>24.1703</ele>
        <time>2014-06-10T18:30:41Z</time>
      </trkpt>
      <trkpt lat="59.9371314" lon="17.8236219">
        <ele>24.1703</ele>
        <time>2014-06-10T18:30:42Z</time>
      </trkpt>
      <trkpt lat="59.9370932" lon="17.8237196">
        <ele>24.1703</ele>
        <time>2014-06-10T18:30:43Z</time>
      </trkpt>
      <trkpt lat="59.9370549" lon="17.8238183">
        <ele>24.1703</ele>
        <time>2014-06-10T18:30:44Z</time>
      </trkpt>
      <trkpt lat="59.9370152" lon="17.8239177">
        <ele>24.1703</ele>
        <time>2014-06-10T18:30:45Z</time>
      </trkpt>
      <trkpt lat="59.9369745" lon="17.8240193">
        <ele>24.1703</ele>
        <time>2014-06-10T18:30:46Z</time>
      </trkpt>
      <trkpt lat="59.9369317" lon="17.8241216">
        <ele>24.1703</ele>
        <time>2014-06-10T18:30:47Z</time>
      </trkpt>
      <trkpt lat="59.9368866" lon="17.8242266">
        <ele>24.1703</ele>
        <time>2014-06-10T18:30:48Z</time>
      </trkpt>
      <trkpt lat="59.936837" lon="17.8243311">
        <ele>23.6896</ele>
        <time>2014-06-10T18:30:49Z</time>
      </trkpt>
      <trkpt lat="59.9367816" lon="17.8244312">
        <ele>23.6896</ele>
        <time>2014-06-10T18:30:50Z</time>
      </trkpt>
      <trkpt lat="59.9367213" lon="17.8245272">
        <ele>23.6896</ele>
        <time>2014-06-10T18:30:51Z</time>
      </trkpt>
      <trkpt lat="59.9366567" lon="17.8246182">
        <ele>23.6896</ele>
        <time>2014-06-10T18:30:52Z</time>
      </trkpt>
      <trkpt lat="59.9365885" lon="17.8247016">
        <ele>23.6896</ele>
        <time>2014-06-10T18:30:53Z</time>
      </trkpt>
      <trkpt lat="59.9365058" lon="17.824769">
        <ele>23.6896</ele>
        <time>2014-06-10T18:30:54Z</time>
      </trkpt>
      <trkpt lat="59.9364249" lon="17.8248162">
        <ele>23.6896</ele>
        <time>2014-06-10T18:30:55Z</time>
      </trkpt>
      <trkpt lat="59.9363437" lon="17.8248563">
        <ele>23.6896</ele>
        <time>2014-06-10T18:30:56Z</time>
      </trkpt>
      <trkpt lat="59.9362624" lon="17.8248903">
        <ele>23.209</ele>
        <time>2014-06-10T18:30:57Z</time>
      </trkpt>
      <trkpt lat="59.9361804" lon="17.824924">
        <ele>23.209</ele>
        <time>2014-06-10T18:30:58Z</time>
      </trkpt>
      <trkpt lat="59.9360972" lon="17.8249568">
        <ele>22.7283</ele>
        <time>2014-06-10T18:30:59Z</time>
      </trkpt>
      <trkpt lat="59.9360133" lon="17.8249894">
        <ele>22.7283</ele>
        <time>2014-06-10T18:31:00Z</time>
      </trkpt>
      <trkpt lat="59.9359286" lon="17.8250233">
        <ele>22.7283</ele>
        <time>2014-06-10T18:31:01Z</time>
      </trkpt>
      <trkpt lat="59.9358431" lon="17.825057">
        <ele>22.2476</ele>
        <time>2014-06-10T18:31:02Z</time>
      </trkpt>
      <trkpt lat="59.9357574" lon="17.82509">
        <ele>22.2476</ele>
        <time>2014-06-10T18:31:03Z</time>
      </trkpt>
      <trkpt lat="59.935672" lon="17.8251236">
        <ele>22.2476</ele>
        <time>2014-06-10T18:31:04Z</time>
      </trkpt>
      <trkpt lat="59.9355869" lon="17.8251597">
        <ele>22.2476</ele>
        <time>2014-06-10T18:31:05Z</time>
      </trkpt>
      <trkpt lat="59.9355029" lon="17.8251979">
        <ele>22.2476</ele>
        <time>2014-06-10T18:31:06Z</time>
      </trkpt>
      <trkpt lat="59.93542" lon="17.8252353">
        <ele>22.2476</ele>
        <time>2014-06-10T18:31:07Z</time>
      </trkpt>
      <trkpt lat="59.9353373" lon="17.8252712">
        <ele>21.767</ele>
        <time>2014-06-10T18:31:08Z</time>
      </trkpt>
      <trkpt lat="59.9352549" lon="17.825306">
        <ele>22.2476</ele>
        <time>2014-06-10T18:31:09Z</time>
      </trkpt>
      <trkpt lat="59.9351725" lon="17.8253408">
        <ele>22.2476</ele>
        <time>2014-06-10T18:31:10Z</time>
      </trkpt>
      <trkpt lat="59.9350903" lon="17.8253755">
        <ele>22.2476</ele>
        <time>2014-06-10T18:31:11Z</time>
      </trkpt>
      <trkpt lat="59.9350086" lon="17.8254099">
        <ele>22.2476</ele>
        <time>2014-06-10T18:31:12Z</time>
      </trkpt>
      <trkpt lat="59.9349274" lon="17.8254455">
        <ele>22.2476</ele>
        <time>2014-06-10T18:31:13Z</time>
      </trkpt>
      <trkpt lat="59.9348475" lon="17.8254806">
        <ele>22.2476</ele>
        <time>2014-06-10T18:31:14Z</time>
      </trkpt>
      <trkpt lat="59.9347694" lon="17.8255152">
        <ele>22.2476</ele>
        <time>2014-06-10T18:31:15Z</time>
      </trkpt>
      <trkpt lat="59.9346933" lon="17.8255492">
        <ele>22.2476</ele>
        <time>2014-06-10T18:31:16Z</time>
      </trkpt>
      <trkpt lat="59.9346186" lon="17.8255828">
        <ele>22.2476</ele>
        <time>2014-06-10T18:31:17Z</time>
      </trkpt>
      <trkpt lat="59.9345441" lon="17.8256175">
        <ele>22.7283</ele>
        <time>2014-06-10T18:31:18Z</time>
      </trkpt>
      <trkpt lat="59.9344696" lon="17.8256521">
        <ele>22.7283</ele>
        <time>2014-06-10T18:31:19Z</time>
      </trkpt>
      <trkpt lat="59.9343951" lon="17.8256856">
        <ele>22.7283</ele>
        <time>2014-06-10T18:31:20Z</time>
      </trkpt>
      <trkpt lat="59.9343205" lon="17.8257195">
        <ele>22.7283</ele>
        <time>2014-06-10T18:31:21Z</time>
      </trkpt>
      <trkpt lat="59.9342453" lon="17.8257542">
        <ele>22.7283</ele>
        <time>2014-06-10T18:31:22Z</time>
      </trkpt>
      <trkpt lat="59.9341695" lon="17.8257874">
        <ele>23.209</ele>
        <time>2014-06-10T18:31:23Z</time>
      </trkpt>
      <trkpt lat="59.934093" lon="17.8258214">
        <ele>23.209</ele>
        <time>2014-06-10T18:31:24Z</time>
      </trkpt>
      <trkpt lat="59.9340173" lon="17.8258578">
        <ele>23.209</ele>
        <time>2014-06-10T18:31:25Z</time>
      </trkpt>
      <trkpt lat="59.9339413" lon="17.8258913">
        <ele>23.6896</ele>
        <time>2014-06-10T18:31:26Z</time>
      </trkpt>
      <trkpt lat="59.933866" lon="17.8259232">
        <ele>23.6896</ele>
        <time>2014-06-10T18:31:27Z</time>
      </trkpt>
      <trkpt lat="59.9337915" lon="17.8259589">
        <ele>23.6896</ele>
        <time>2014-06-10T18:31:28Z</time>
      </trkpt>
      <trkpt lat="59.9337177" lon="17.8259977">
        <ele>24.1703</ele>
        <time>2014-06-10T18:31:29Z</time>
      </trkpt>
      <trkpt lat="59.9336442" lon="17.8260401">
        <ele>24.1703</ele>
        <time>2014-06-10T18:31:30Z</time>
      </trkpt>
      <trkpt lat="59.9335708" lon="17.8260868">
        <ele>24.1703</ele>
        <time>2014-06-10T18:31:31Z</time>
      </trkpt>
      <trkpt lat="59.9334983" lon="17.8261384">
        <ele>24.1703</ele>
        <time>2014-06-10T18:31:32Z</time>
      </trkpt>
      <trkpt lat="59.9334268" lon="17.8261971">
        <ele>24.1703</ele>
        <time>2014-06-10T18:31:33Z</time>
      </trkpt>
      <trkpt lat="59.933356" lon="17.8262624">
        <ele>23.6896</ele>
        <time>2014-06-10T18:31:34Z</time>
      </trkpt>
      <trkpt lat="59.9332858" lon="17.8263338">
        <ele>23.6896</ele>
        <time>2014-06-10T18:31:35Z</time>
      </trkpt>
      <trkpt lat="59.9332166" lon="17.8264109">
        <ele>23.6896</ele>
        <time>2014-06-10T18:31:36Z</time>
      </trkpt>
      <trkpt lat="59.9331492" lon="17.8264958">
        <ele>23.6896</ele>
        <time>2014-06-10T18:31:37Z</time>
      </trkpt>
      <trkpt lat="59.9330829" lon="17.8265892">
        <ele>23.6896</ele>
        <time>2014-06-10T18:31:38Z</time>
      </trkpt>
      <trkpt lat="59.9330179" lon="17.8266891">
        <ele>23.6896</ele>
        <time>2014-06-10T18:31:39Z</time>
      </trkpt>
      <trkpt lat="59.9329539" lon="17.826793">
        <ele>23.6896</ele>
        <time>2014-06-10T18:31:40Z</time>
      </trkpt>
      <trkpt lat="59.9328907" lon="17.8268984">
        <ele>23.209</ele>
        <time>2014-06-10T18:31:41Z</time>
      </trkpt>
      <trkpt lat="59.9328279" lon="17.8270051">
        <ele>23.209</ele>
        <time>2014-06-10T18:31:42Z</time>
      </trkpt>
      <trkpt lat="59.9327658" lon="17.8271131">
        <ele>23.6896</ele>
        <time>2014-06-10T18:31:43Z</time>
      </trkpt>
      <trkpt lat="59.9327047" lon="17.8272203">
        <ele>23.6896</ele>
        <time>2014-06-10T18:31:44Z</time>
      </trkpt>
      <trkpt lat="59.9326445" lon="17.8273248">
        <ele>23.6896</ele>
        <time>2014-06-10T18:31:45Z</time>
      </trkpt>
      <trkpt lat="59.9325859" lon="17.827428">
        <ele>23.6896</ele>
        <time>2014-06-10T18:31:46Z</time>
      </trkpt>
      <trkpt lat="59.9325285" lon="17.8275296">
        <ele>23.6896</ele>
        <time>2014-06-10T18:31:47Z</time>
      </trkpt>
      <trkpt lat="59.9324716" lon="17.8276288">
        <ele>24.1703</ele>
        <time>2014-06-10T18:31:48Z</time>
      </trkpt>
      <trkpt lat="59.932417" lon="17.8277285">
        <ele>24.1703</ele>
        <time>2014-06-10T18:31:49Z</time>
      </trkpt>
      <trkpt lat="59.9323643" lon="17.8278292">
        <ele>24.1703</ele>
        <time>2014-06-10T18:31:50Z</time>
      </trkpt>
      <trkpt lat="59.9323127" lon="17.8279314">
        <ele>24.651</ele>
        <time>2014-06-10T18:31:51Z</time>
      </trkpt>
      <trkpt lat="59.9322621" lon="17.8280362">
        <ele>24.651</ele>
        <time>2014-06-10T18:31:52Z</time>
      </trkpt>
      <trkpt lat="59.9322121" lon="17.8281431">
        <ele>24.651</ele>
        <time>2014-06-10T18:31:53Z</time>
      </trkpt>
      <trkpt lat="59.932163" lon="17.8282519">
        <ele>24.651</ele>
        <time>2014-06-10T18:31:54Z</time>
      </trkpt>
      <trkpt lat="59.9321157" lon="17.8283629">
        <ele>24.651</ele>
        <time>2014-06-10T18:31:55Z</time>
      </trkpt>
      <trkpt lat="59.9320706" lon="17.828476">
        <ele>25.1317</ele>
        <time>2014-06-10T18:31:56Z</time>
      </trkpt>
      <trkpt lat="59.9320282" lon="17.828592">
        <ele>25.1317</ele>
        <time>2014-06-10T18:31:57Z</time>
      </trkpt>
      <trkpt lat="59.9319897" lon="17.8287115">
        <ele>25.1317</ele>
        <time>2014-06-10T18:31:58Z</time>
      </trkpt>
      <trkpt lat="59.9319544" lon="17.8288342">
        <ele>25.6123</ele>
        <time>2014-06-10T18:31:59Z</time>
      </trkpt>
      <trkpt lat="59.9319214" lon="17.8289579">
        <ele>25.6123</ele>
        <time>2014-06-10T18:32:00Z</time>
      </trkpt>
      <trkpt lat="59.9318903" lon="17.8290817">
        <ele>25.6123</ele>
        <time>2014-06-10T18:32:01Z</time>
      </trkpt>
      <trkpt lat="59.9318607" lon="17.829204">
        <ele>26.0929</ele>
        <time>2014-06-10T18:32:02Z</time>
      </trkpt>
      <trkpt lat="59.9318319" lon="17.8293234">
        <ele>26.0929</ele>
        <time>2014-06-10T18:32:03Z</time>
      </trkpt>
      <trkpt lat="59.9318034" lon="17.8294404">
        <ele>26.5736</ele>
        <time>2014-06-10T18:32:04Z</time>
      </trkpt>
      <trkpt lat="59.9317744" lon="17.8295534">
        <ele>26.5736</ele>
        <time>2014-06-10T18:32:05Z</time>
      </trkpt>
      <trkpt lat="59.9317453" lon="17.8296632">
        <ele>27.0543</ele>
        <time>2014-06-10T18:32:06Z</time>
      </trkpt>
      <trkpt lat="59.9317162" lon="17.829772">
        <ele>27.0543</ele>
        <time>2014-06-10T18:32:07Z</time>
      </trkpt>
      <trkpt lat="59.9316868" lon="17.8298798">
        <ele>27.5349</ele>
        <time>2014-06-10T18:32:08Z</time>
      </trkpt>
      <trkpt lat="59.9316577" lon="17.8299853">
        <ele>27.5349</ele>
        <time>2014-06-10T18:32:09Z</time>
      </trkpt>
      <trkpt lat="59.9316296" lon="17.8300895">
        <ele>28.0155</ele>
        <time>2014-06-10T18:32:10Z</time>
      </trkpt>
      <trkpt lat="59.9316014" lon="17.8301921">
        <ele>28.0155</ele>
        <time>2014-06-10T18:32:11Z</time>
      </trkpt>
      <trkpt lat="59.931573" lon="17.8302923">
        <ele>28.0155</ele>
        <time>2014-06-10T18:32:12Z</time>
      </trkpt>
      <trkpt lat="59.9315444" lon="17.8303911">
        <ele>28.4962</ele>
        <time>2014-06-10T18:32:13Z</time>
      </trkpt>
      <trkpt lat="59.9315138" lon="17.8304894">
        <ele>28.0155</ele>
        <time>2014-06-10T18:32:14Z</time>
      </trkpt>
      <trkpt lat="59.9314807" lon="17.8305877">
        <ele>28.0155</ele>
        <time>2014-06-10T18:32:15Z</time>
      </trkpt>
      <trkpt lat="59.9314454" lon="17.8306852">
        <ele>28.0155</ele>
        <time>2014-06-10T18:32:16Z</time>
      </trkpt>
      <trkpt lat="59.9314076" lon="17.8307841">
        <ele>28.0155</ele>
        <time>2014-06-10T18:32:17Z</time>
      </trkpt>
      <trkpt lat="59.9313667" lon="17.8308851">
        <ele>27.5349</ele>
        <time>2014-06-10T18:32:18Z</time>
      </trkpt>
      <trkpt lat="59.9313237" lon="17.830987">
        <ele>27.5349</ele>
        <time>2014-06-10T18:32:19Z</time>
      </trkpt>
      <trkpt lat="59.9312785" lon="17.831089">
        <ele>27.5349</ele>
        <time>2014-06-10T18:32:20Z</time>
      </trkpt>
      <trkpt lat="59.9312308" lon="17.8311892">
        <ele>27.5349</ele>
        <time>2014-06-10T18:32:21Z</time>
      </trkpt>
      <trkpt lat="59.9311813" lon="17.8312869">
        <ele>27.5349</ele>
        <time>2014-06-10T18:32:22Z</time>
      </trkpt>
      <trkpt lat="59.9311313" lon="17.8313829">
        <ele>27.5349</ele>
        <time>2014-06-10T18:32:23Z</time>
      </trkpt>
      <trkpt lat="59.9310807" lon="17.8314755">
        <ele>27.5349</ele>
        <time>2014-06-10T18:32:24Z</time>
      </trkpt>
      <trkpt lat="59.9310291" lon="17.8315637">
        <ele>27.5349</ele>
        <time>2014-06-10T18:32:25Z</time>
      </trkpt>
      <trkpt lat="59.9309772" lon="17.8316485">
        <ele>27.5349</ele>
        <time>2014-06-10T18:32:26Z</time>
      </trkpt>
      <trkpt lat="59.9309258" lon="17.8317313">
        <ele>27.5349</ele>
        <time>2014-06-10T18:32:27Z</time>
      </trkpt>
      <trkpt lat="59.9308741" lon="17.8318129">
        <ele>28.0155</ele>
        <time>2014-06-10T18:32:28Z</time>
      </trkpt>
      <trkpt lat="59.9308219" lon="17.8318911">
        <ele>28.0155</ele>
        <time>2014-06-10T18:32:29Z</time>
      </trkpt>
      <trkpt lat="59.93077" lon="17.8319684">
        <ele>28.0155</ele>
        <time>2014-06-10T18:32:30Z</time>
      </trkpt>
      <trkpt lat="59.9307182" lon="17.8320461">
        <ele>28.0155</ele>
        <time>2014-06-10T18:32:31Z</time>
      </trkpt>
      <trkpt lat="59.9306632" lon="17.832125">
        <ele>28.0155</ele>
        <time>2014-06-10T18:32:32Z</time>
      </trkpt>
      <trkpt lat="59.9306114" lon="17.8322035">
        <ele>28.0155</ele>
        <time>2014-06-10T18:32:33Z</time>
      </trkpt>
      <trkpt lat="59.9305584" lon="17.8322806">
        <ele>28.4962</ele>
        <time>2014-06-10T18:32:34Z</time>
      </trkpt>
      <trkpt lat="59.9305047" lon="17.8323545">
        <ele>28.4962</ele>
        <time>2014-06-10T18:32:35Z</time>
      </trkpt>
      <trkpt lat="59.9304518" lon="17.8324292">
        <ele>28.4962</ele>
        <time>2014-06-10T18:32:36Z</time>
      </trkpt>
      <trkpt lat="59.9303989" lon="17.83251">
        <ele>28.4962</ele>
        <time>2014-06-10T18:32:37Z</time>
      </trkpt>
      <trkpt lat="59.9303452" lon="17.8325894">
        <ele>28.0155</ele>
        <time>2014-06-10T18:32:38Z</time>
      </trkpt>
      <trkpt lat="59.9302901" lon="17.8326718">
        <ele>28.0155</ele>
        <time>2014-06-10T18:32:39Z</time>
      </trkpt>
      <trkpt lat="59.9302338" lon="17.832758">
        <ele>28.0155</ele>
        <time>2014-06-10T18:32:40Z</time>
      </trkpt>
      <trkpt lat="59.9301763" lon="17.8328479">
        <ele>28.0155</ele>
        <time>2014-06-10T18:32:41Z</time>
      </trkpt>
      <trkpt lat="59.9301178" lon="17.8329399">
        <ele>28.0155</ele>
        <time>2014-06-10T18:32:42Z</time>
      </trkpt>
      <trkpt lat="59.9300587" lon="17.8330332">
        <ele>28.0155</ele>
        <time>2014-06-10T18:32:43Z</time>
      </trkpt>
      <trkpt lat="59.9299998" lon="17.8331272">
        <ele>28.0155</ele>
        <time>2014-06-10T18:32:44Z</time>
      </trkpt>
      <trkpt lat="59.9299416" lon="17.8332215">
        <ele>28.0155</ele>
        <time>2014-06-10T18:32:45Z</time>
      </trkpt>
      <trkpt lat="59.929884" lon="17.8333154">
        <ele>28.0155</ele>
        <time>2014-06-10T18:32:46Z</time>
      </trkpt>
      <trkpt lat="59.9298273" lon="17.8334084">
        <ele>28.0155</ele>
        <time>2014-06-10T18:32:47Z</time>
      </trkpt>
      <trkpt lat="59.9297712" lon="17.8335007">
        <ele>28.0155</ele>
        <time>2014-06-10T18:32:48Z</time>
      </trkpt>
      <trkpt lat="59.9297159" lon="17.8335918">
        <ele>28.0155</ele>
        <time>2014-06-10T18:32:49Z</time>
      </trkpt>
      <trkpt lat="59.9296596" lon="17.8336788">
        <ele>28.4962</ele>
        <time>2014-06-10T18:32:50Z</time>
      </trkpt>
      <trkpt lat="59.929607" lon="17.8337729">
        <ele>28.4962</ele>
        <time>2014-06-10T18:32:51Z</time>
      </trkpt>
      <trkpt lat="59.9295551" lon="17.8338617">
        <ele>28.4962</ele>
        <time>2014-06-10T18:32:52Z</time>
      </trkpt>
      <trkpt lat="59.9295022" lon="17.833946">
        <ele>28.4962</ele>
        <time>2014-06-10T18:32:53Z</time>
      </trkpt>
      <trkpt lat="59.9294488" lon="17.8340266">
        <ele>28.4962</ele>
        <time>2014-06-10T18:32:54Z</time>
      </trkpt>
      <trkpt lat="59.9293949" lon="17.834106">
        <ele>28.4962</ele>
        <time>2014-06-10T18:32:55Z</time>
      </trkpt>
      <trkpt lat="59.9293395" lon="17.8341869">
        <ele>28.4962</ele>
        <time>2014-06-10T18:32:56Z</time>
      </trkpt>
      <trkpt lat="59.9292832" lon="17.8342702">
        <ele>28.4962</ele>
        <time>2014-06-10T18:32:57Z</time>
      </trkpt>
      <trkpt lat="59.9292259" lon="17.8343533">
        <ele>28.4962</ele>
        <time>2014-06-10T18:32:58Z</time>
      </trkpt>
      <trkpt lat="59.9291668" lon="17.8344338">
        <ele>28.0155</ele>
        <time>2014-06-10T18:32:59Z</time>
      </trkpt>
      <trkpt lat="59.9291061" lon="17.8345121">
        <ele>28.0155</ele>
        <time>2014-06-10T18:33:00Z</time>
      </trkpt>
      <trkpt lat="59.9290443" lon="17.8345889">
        <ele>28.0155</ele>
        <time>2014-06-10T18:33:01Z</time>
      </trkpt>
      <trkpt lat="59.9289813" lon="17.8346646">
        <ele>28.0155</ele>
        <time>2014-06-10T18:33:02Z</time>
      </trkpt>
      <trkpt lat="59.9289175" lon="17.8347405">
        <ele>28.0155</ele>
        <time>2014-06-10T18:33:03Z</time>
      </trkpt>
      <trkpt lat="59.9288533" lon="17.8348179">
        <ele>28.0155</ele>
        <time>2014-06-10T18:33:04Z</time>
      </trkpt>
      <trkpt lat="59.9287895" lon="17.8348987">
        <ele>28.0155</ele>
        <time>2014-06-10T18:33:05Z</time>
      </trkpt>
      <trkpt lat="59.9287265" lon="17.8349836">
        <ele>28.0155</ele>
        <time>2014-06-10T18:33:06Z</time>
      </trkpt>
      <trkpt lat="59.9286648" lon="17.8350726">
        <ele>28.0155</ele>
        <time>2014-06-10T18:33:07Z</time>
      </trkpt>
      <trkpt lat="59.9286035" lon="17.8351622">
        <ele>28.0155</ele>
        <time>2014-06-10T18:33:08Z</time>
      </trkpt>
      <trkpt lat="59.9285424" lon="17.8352514">
        <ele>28.0155</ele>
        <time>2014-06-10T18:33:09Z</time>
      </trkpt>
      <trkpt lat="59.9284824" lon="17.8353414">
        <ele>28.0155</ele>
        <time>2014-06-10T18:33:10Z</time>
      </trkpt>
      <trkpt lat="59.9284232" lon="17.8354321">
        <ele>28.0155</ele>
        <time>2014-06-10T18:33:11Z</time>
      </trkpt>
      <trkpt lat="59.9283644" lon="17.8355213">
        <ele>28.0155</ele>
        <time>2014-06-10T18:33:12Z</time>
      </trkpt>
      <trkpt lat="59.9283061" lon="17.8356088">
        <ele>28.0155</ele>
        <time>2014-06-10T18:33:13Z</time>
      </trkpt>
      <trkpt lat="59.9282478" lon="17.8356946">
        <ele>28.0155</ele>
        <time>2014-06-10T18:33:14Z</time>
      </trkpt>
      <trkpt lat="59.9281896" lon="17.8357773">
        <ele>28.0155</ele>
        <time>2014-06-10T18:33:15Z</time>
      </trkpt>
      <trkpt lat="59.9281316" lon="17.8358599">
        <ele>28.0155</ele>
        <time>2014-06-10T18:33:16Z</time>
      </trkpt>
      <trkpt lat="59.9280737" lon="17.8359445">
        <ele>28.0155</ele>
        <time>2014-06-10T18:33:17Z</time>
      </trkpt>
      <trkpt lat="59.9280163" lon="17.836032">
        <ele>28.0155</ele>
        <time>2014-06-10T18:33:18Z</time>
      </trkpt>
      <trkpt lat="59.9279591" lon="17.8361212">
        <ele>28.0155</ele>
        <time>2014-06-10T18:33:19Z</time>
      </trkpt>
      <trkpt lat="59.9279017" lon="17.8362117">
        <ele>28.0155</ele>
        <time>2014-06-10T18:33:20Z</time>
      </trkpt>
      <trkpt lat="59.9278445" lon="17.8363028">
        <ele>28.0155</ele>
        <time>2014-06-10T18:33:21Z</time>
      </trkpt>
      <trkpt lat="59.9277879" lon="17.8363948">
        <ele>28.0155</ele>
        <time>2014-06-10T18:33:22Z</time>
      </trkpt>
      <trkpt lat="59.9277334" lon="17.8364875">
        <ele>28.0155</ele>
        <time>2014-06-10T18:33:23Z</time>
      </trkpt>
      <trkpt lat="59.9276804" lon="17.83658">
        <ele>28.4962</ele>
        <time>2014-06-10T18:33:24Z</time>
      </trkpt>
      <trkpt lat="59.9276277" lon="17.8366696">
        <ele>28.0155</ele>
        <time>2014-06-10T18:33:25Z</time>
      </trkpt>
      <trkpt lat="59.9275742" lon="17.836755">
        <ele>28.0155</ele>
        <time>2014-06-10T18:33:26Z</time>
      </trkpt>
      <trkpt lat="59.927519" lon="17.8368364">
        <ele>28.0155</ele>
        <time>2014-06-10T18:33:27Z</time>
      </trkpt>
      <trkpt lat="59.9274612" lon="17.8369194">
        <ele>27.5349</ele>
        <time>2014-06-10T18:33:28Z</time>
      </trkpt>
      <trkpt lat="59.9273987" lon="17.8369903">
        <ele>27.0543</ele>
        <time>2014-06-10T18:33:29Z</time>
      </trkpt>
      <trkpt lat="59.9273371" lon="17.8370639">
        <ele>26.5736</ele>
        <time>2014-06-10T18:33:30Z</time>
      </trkpt>
      <trkpt lat="59.9272743" lon="17.8371457">
        <ele>26.5736</ele>
        <time>2014-06-10T18:33:31Z</time>
      </trkpt>
      <trkpt lat="59.9272154" lon="17.8372295">
        <ele>26.0929</ele>
        <time>2014-06-10T18:33:32Z</time>
      </trkpt>
      <trkpt lat="59.9271547" lon="17.8373122">
        <ele>26.0929</ele>
        <time>2014-06-10T18:33:33Z</time>
      </trkpt>
      <trkpt lat="59.9270934" lon="17.8373953">
        <ele>25.6123</ele>
        <time>2014-06-10T18:33:34Z</time>
      </trkpt>
      <trkpt lat="59.9270318" lon="17.8374771">
        <ele>25.6123</ele>
        <time>2014-06-10T18:33:35Z</time>
      </trkpt>
      <trkpt lat="59.9269755" lon="17.8375473">
        <ele>25.6123</ele>
        <time>2014-06-10T18:33:36Z</time>
      </trkpt>
      <trkpt lat="59.9269185" lon="17.8376116">
        <ele>25.6123</ele>
        <time>2014-06-10T18:33:37Z</time>
      </trkpt>
      <trkpt lat="59.9268533" lon="17.8376892">
        <ele>25.1317</ele>
        <time>2014-06-10T18:33:38Z</time>
      </trkpt>
      <trkpt lat="59.9267796" lon="17.837723">
        <ele>24.651</ele>
        <time>2014-06-10T18:33:39Z</time>
      </trkpt>
      <trkpt lat="59.926713" lon="17.8377725">
        <ele>24.1703</ele>
        <time>2014-06-10T18:33:40Z</time>
      </trkpt>
      <trkpt lat="59.9266412" lon="17.8378286">
        <ele>23.6896</ele>
        <time>2014-06-10T18:33:41Z</time>
      </trkpt>
      <trkpt lat="59.9265658" lon="17.8378954">
        <ele>23.209</ele>
        <time>2014-06-10T18:33:42Z</time>
      </trkpt>
      <trkpt lat="59.9264903" lon="17.837986">
        <ele>22.7283</ele>
        <time>2014-06-10T18:33:43Z</time>
      </trkpt>
      <trkpt lat="59.9264219" lon="17.8381018">
        <ele>22.2476</ele>
        <time>2014-06-10T18:33:44Z</time>
      </trkpt>
      <trkpt lat="59.9263584" lon="17.8382439">
        <ele>21.767</ele>
        <time>2014-06-10T18:33:45Z</time>
      </trkpt>
      <trkpt lat="59.9262915" lon="17.8383833">
        <ele>21.767</ele>
        <time>2014-06-10T18:33:46Z</time>
      </trkpt>
      <trkpt lat="59.926227" lon="17.8385212">
        <ele>21.2864</ele>
        <time>2014-06-10T18:33:47Z</time>
      </trkpt>
      <trkpt lat="59.926161" lon="17.838662">
        <ele>21.2864</ele>
        <time>2014-06-10T18:33:48Z</time>
      </trkpt>
      <trkpt lat="59.9260969" lon="17.8388013">
        <ele>21.2864</ele>
        <time>2014-06-10T18:33:49Z</time>
      </trkpt>
      <trkpt lat="59.9260337" lon="17.8389389">
        <ele>21.2864</ele>
        <time>2014-06-10T18:33:50Z</time>
      </trkpt>
      <trkpt lat="59.9259691" lon="17.8390726">
        <ele>21.2864</ele>
        <time>2014-06-10T18:33:51Z</time>
      </trkpt>
      <trkpt lat="59.9259017" lon="17.8391985">
        <ele>21.2864</ele>
        <time>2014-06-10T18:33:52Z</time>
      </trkpt>
      <trkpt lat="59.9258287" lon="17.8393085">
        <ele>21.2864</ele>
        <time>2014-06-10T18:33:53Z</time>
      </trkpt>
      <trkpt lat="59.9257484" lon="17.8393919">
        <ele>21.2864</ele>
        <time>2014-06-10T18:33:54Z</time>
      </trkpt>
      <trkpt lat="59.9256639" lon="17.8394402">
        <ele>21.2864</ele>
        <time>2014-06-10T18:33:55Z</time>
      </trkpt>
      <trkpt lat="59.9255769" lon="17.8394556">
        <ele>21.2864</ele>
        <time>2014-06-10T18:33:56Z</time>
      </trkpt>
      <trkpt lat="59.9254904" lon="17.8394487">
        <ele>21.2864</ele>
        <time>2014-06-10T18:33:57Z</time>
      </trkpt>
      <trkpt lat="59.9254061" lon="17.8394316">
        <ele>21.2864</ele>
        <time>2014-06-10T18:33:58Z</time>
      </trkpt>
      <trkpt lat="59.9253224" lon="17.8394163">
        <ele>21.2864</ele>
        <time>2014-06-10T18:33:59Z</time>
      </trkpt>
      <trkpt lat="59.9252386" lon="17.8394054">
        <ele>21.2864</ele>
        <time>2014-06-10T18:34:00Z</time>
      </trkpt>
      <trkpt lat="59.9251547" lon="17.8393986">
        <ele>21.2864</ele>
        <time>2014-06-10T18:34:01Z</time>
      </trkpt>
      <trkpt lat="59.9250704" lon="17.8393959">
        <ele>21.2864</ele>
        <time>2014-06-10T18:34:02Z</time>
      </trkpt>
      <trkpt lat="59.9249849" lon="17.8393972">
        <ele>21.2864</ele>
        <time>2014-06-10T18:34:03Z</time>
      </trkpt>
      <trkpt lat="59.9248988" lon="17.8394011">
        <ele>21.2864</ele>
        <time>2014-06-10T18:34:04Z</time>
      </trkpt>
      <trkpt lat="59.9248122" lon="17.8394072">
        <ele>20.8057</ele>
        <time>2014-06-10T18:34:05Z</time>
      </trkpt>
      <trkpt lat="59.9247248" lon="17.8394143">
        <ele>20.8057</ele>
        <time>2014-06-10T18:34:06Z</time>
      </trkpt>
      <trkpt lat="59.924637" lon="17.8394218">
        <ele>20.8057</ele>
        <time>2014-06-10T18:34:07Z</time>
      </trkpt>
      <trkpt lat="59.9245487" lon="17.8394328">
        <ele>20.8057</ele>
        <time>2014-06-10T18:34:08Z</time>
      </trkpt>
      <trkpt lat="59.9244596" lon="17.839449">
        <ele>20.8057</ele>
        <time>2014-06-10T18:34:09Z</time>
      </trkpt>
      <trkpt lat="59.9243698" lon="17.8394714">
        <ele>20.8057</ele>
        <time>2014-06-10T18:34:10Z</time>
      </trkpt>
      <trkpt lat="59.9242801" lon="17.8394964">
        <ele>20.8057</ele>
        <time>2014-06-10T18:34:11Z</time>
      </trkpt>
      <trkpt lat="59.9241907" lon="17.8395219">
        <ele>20.8057</ele>
        <time>2014-06-10T18:34:12Z</time>
      </trkpt>
      <trkpt lat="59.9241021" lon="17.8395498">
        <ele>20.325</ele>
        <time>2014-06-10T18:34:13Z</time>
      </trkpt>
      <trkpt lat="59.9240144" lon="17.8395804">
        <ele>20.325</ele>
        <time>2014-06-10T18:34:14Z</time>
      </trkpt>
      <trkpt lat="59.9239271" lon="17.8396132">
        <ele>20.325</ele>
        <time>2014-06-10T18:34:15Z</time>
      </trkpt>
      <trkpt lat="59.9238411" lon="17.8396476">
        <ele>20.325</ele>
        <time>2014-06-10T18:34:16Z</time>
      </trkpt>
      <trkpt lat="59.9237557" lon="17.8396828">
        <ele>20.325</ele>
        <time>2014-06-10T18:34:17Z</time>
      </trkpt>
      <trkpt lat="59.9236709" lon="17.8397207">
        <ele>20.325</ele>
        <time>2014-06-10T18:34:18Z</time>
      </trkpt>
      <trkpt lat="59.9235862" lon="17.8397608">
        <ele>20.325</ele>
        <time>2014-06-10T18:34:19Z</time>
      </trkpt>
      <trkpt lat="59.9235017" lon="17.8398027">
        <ele>20.325</ele>
        <time>2014-06-10T18:34:20Z</time>
      </trkpt>
      <trkpt lat="59.9234178" lon="17.8398463">
        <ele>20.325</ele>
        <time>2014-06-10T18:34:21Z</time>
      </trkpt>
      <trkpt lat="59.9233344" lon="17.8398906">
        <ele>20.325</ele>
        <time>2014-06-10T18:34:22Z</time>
      </trkpt>
      <trkpt lat="59.923251" lon="17.8399346">
        <ele>20.325</ele>
        <time>2014-06-10T18:34:23Z</time>
      </trkpt>
      <trkpt lat="59.9231686" lon="17.8399796">
        <ele>20.325</ele>
        <time>2014-06-10T18:34:24Z</time>
      </trkpt>
      <trkpt lat="59.9230871" lon="17.8400258">
        <ele>20.325</ele>
        <time>2014-06-10T18:34:25Z</time>
      </trkpt>
      <trkpt lat="59.923006" lon="17.8400715">
        <ele>20.325</ele>
        <time>2014-06-10T18:34:26Z</time>
      </trkpt>
      <trkpt lat="59.9229256" lon="17.840117">
        <ele>20.325</ele>
        <time>2014-06-10T18:34:27Z</time>
      </trkpt>
      <trkpt lat="59.9228457" lon="17.8401616">
        <ele>20.325</ele>
        <time>2014-06-10T18:34:28Z</time>
      </trkpt>
      <trkpt lat="59.9227663" lon="17.8402052">
        <ele>20.325</ele>
        <time>2014-06-10T18:34:29Z</time>
      </trkpt>
      <trkpt lat="59.9226874" lon="17.8402476">
        <ele>20.325</ele>
        <time>2014-06-10T18:34:30Z</time>
      </trkpt>
      <trkpt lat="59.9226077" lon="17.8402891">
        <ele>20.325</ele>
        <time>2014-06-10T18:34:31Z</time>
      </trkpt>
      <trkpt lat="59.9225274" lon="17.840329">
        <ele>20.325</ele>
        <time>2014-06-10T18:34:32Z</time>
      </trkpt>
      <trkpt lat="59.9224469" lon="17.8403679">
        <ele>20.325</ele>
        <time>2014-06-10T18:34:33Z</time>
      </trkpt>
      <trkpt lat="59.9223653" lon="17.8404051">
        <ele>20.325</ele>
        <time>2014-06-10T18:34:34Z</time>
      </trkpt>
      <trkpt lat="59.9222835" lon="17.8404388">
        <ele>20.325</ele>
        <time>2014-06-10T18:34:35Z</time>
      </trkpt>
      <trkpt lat="59.9222019" lon="17.8404674">
        <ele>20.325</ele>
        <time>2014-06-10T18:34:36Z</time>
      </trkpt>
      <trkpt lat="59.9221198" lon="17.840493">
        <ele>20.325</ele>
        <time>2014-06-10T18:34:37Z</time>
      </trkpt>
      <trkpt lat="59.9220376" lon="17.8405181">
        <ele>20.325</ele>
        <time>2014-06-10T18:34:38Z</time>
      </trkpt>
      <trkpt lat="59.921955" lon="17.8405427">
        <ele>20.325</ele>
        <time>2014-06-10T18:34:39Z</time>
      </trkpt>
      <trkpt lat="59.9218725" lon="17.8405647">
        <ele>20.325</ele>
        <time>2014-06-10T18:34:40Z</time>
      </trkpt>
      <trkpt lat="59.9217898" lon="17.8405865">
        <ele>20.325</ele>
        <time>2014-06-10T18:34:41Z</time>
      </trkpt>
      <trkpt lat="59.9217074" lon="17.8406095">
        <ele>20.325</ele>
        <time>2014-06-10T18:34:42Z</time>
      </trkpt>
      <trkpt lat="59.9216248" lon="17.8406313">
        <ele>20.325</ele>
        <time>2014-06-10T18:34:43Z</time>
      </trkpt>
      <trkpt lat="59.9215416" lon="17.8406512">
        <ele>20.325</ele>
        <time>2014-06-10T18:34:44Z</time>
      </trkpt>
      <trkpt lat="59.921458" lon="17.8406703">
        <ele>20.325</ele>
        <time>2014-06-10T18:34:45Z</time>
      </trkpt>
      <trkpt lat="59.9213739" lon="17.8406863">
        <ele>20.325</ele>
        <time>2014-06-10T18:34:46Z</time>
      </trkpt>
      <trkpt lat="59.92129" lon="17.8406984">
        <ele>20.325</ele>
        <time>2014-06-10T18:34:47Z</time>
      </trkpt>
      <trkpt lat="59.9212074" lon="17.8407079">
        <ele>20.325</ele>
        <time>2014-06-10T18:34:48Z</time>
      </trkpt>
      <trkpt lat="59.9211258" lon="17.8407149">
        <ele>20.8057</ele>
        <time>2014-06-10T18:34:49Z</time>
      </trkpt>
      <trkpt lat="59.9210455" lon="17.8407193">
        <ele>20.8057</ele>
        <time>2014-06-10T18:34:50Z</time>
      </trkpt>
      <trkpt lat="59.9209665" lon="17.8407222">
        <ele>20.8057</ele>
        <time>2014-06-10T18:34:51Z</time>
      </trkpt>
      <trkpt lat="59.9208887" lon="17.8407263">
        <ele>20.8057</ele>
        <time>2014-06-10T18:34:52Z</time>
      </trkpt>
      <trkpt lat="59.9208117" lon="17.8407297">
        <ele>20.8057</ele>
        <time>2014-06-10T18:34:53Z</time>
      </trkpt>
      <trkpt lat="59.9207357" lon="17.8407324">
        <ele>21.2864</ele>
        <time>2014-06-10T18:34:54Z</time>
      </trkpt>
      <trkpt lat="59.920661" lon="17.8407356">
        <ele>21.2864</ele>
        <time>2014-06-10T18:34:55Z</time>
      </trkpt>
      <trkpt lat="59.9205874" lon="17.8407395">
        <ele>21.2864</ele>
        <time>2014-06-10T18:34:56Z</time>
      </trkpt>
      <trkpt lat="59.9205139" lon="17.8407438">
        <ele>21.2864</ele>
        <time>2014-06-10T18:34:57Z</time>
      </trkpt>
      <trkpt lat="59.9204407" lon="17.8407461">
        <ele>21.2864</ele>
        <time>2014-06-10T18:34:58Z</time>
      </trkpt>
      <trkpt lat="59.9203679" lon="17.8407468">
        <ele>21.2864</ele>
        <time>2014-06-10T18:34:59Z</time>
      </trkpt>
      <trkpt lat="59.9202964" lon="17.8407461">
        <ele>21.2864</ele>
        <time>2014-06-10T18:35:00Z</time>
      </trkpt>
      <trkpt lat="59.9202246" lon="17.8407432">
        <ele>21.2864</ele>
        <time>2014-06-10T18:35:01Z</time>
      </trkpt>
      <trkpt lat="59.9201454" lon="17.8407335">
        <ele>21.2864</ele>
        <time>2014-06-10T18:35:02Z</time>
      </trkpt>
      <trkpt lat="59.9200684" lon="17.840734">
        <ele>20.8057</ele>
        <time>2014-06-10T18:35:03Z</time>
      </trkpt>
      <trkpt lat="59.9199917" lon="17.8407346">
        <ele>20.8057</ele>
        <time>2014-06-10T18:35:04Z</time>
      </trkpt>
      <trkpt lat="59.919914" lon="17.840739">
        <ele>20.325</ele>
        <time>2014-06-10T18:35:05Z</time>
      </trkpt>
      <trkpt lat="59.9198366" lon="17.8407495">
        <ele>20.325</ele>
        <time>2014-06-10T18:35:06Z</time>
      </trkpt>
      <trkpt lat="59.9197598" lon="17.8407677">
        <ele>19.8444</ele>
        <time>2014-06-10T18:35:07Z</time>
      </trkpt>
      <trkpt lat="59.9196823" lon="17.840794">
        <ele>19.8444</ele>
        <time>2014-06-10T18:35:08Z</time>
      </trkpt>
      <trkpt lat="59.9196046" lon="17.8408274">
        <ele>19.8444</ele>
        <time>2014-06-10T18:35:09Z</time>
      </trkpt>
      <trkpt lat="59.919526" lon="17.8408681">
        <ele>19.8444</ele>
        <time>2014-06-10T18:35:10Z</time>
      </trkpt>
      <trkpt lat="59.9194473" lon="17.8409165">
        <ele>19.3638</ele>
        <time>2014-06-10T18:35:11Z</time>
      </trkpt>
      <trkpt lat="59.9193685" lon="17.8409697">
        <ele>19.3638</ele>
        <time>2014-06-10T18:35:12Z</time>
      </trkpt>
      <trkpt lat="59.9192892" lon="17.841023">
        <ele>19.3638</ele>
        <time>2014-06-10T18:35:13Z</time>
      </trkpt>
      <trkpt lat="59.9192094" lon="17.8410765">
        <ele>19.3638</ele>
        <time>2014-06-10T18:35:14Z</time>
      </trkpt>
      <trkpt lat="59.9191286" lon="17.8411309">
        <ele>19.3638</ele>
        <time>2014-06-10T18:35:15Z</time>
      </trkpt>
      <trkpt lat="59.9190474" lon="17.8411864">
        <ele>19.3638</ele>
        <time>2014-06-10T18:35:16Z</time>
      </trkpt>
      <trkpt lat="59.9189658" lon="17.8412433">
        <ele>19.3638</ele>
        <time>2014-06-10T18:35:17Z</time>
      </trkpt>
      <trkpt lat="59.9188841" lon="17.8413012">
        <ele>18.8831</ele>
        <time>2014-06-10T18:35:18Z</time>
      </trkpt>
      <trkpt lat="59.9188024" lon="17.8413615">
        <ele>18.8831</ele>
        <time>2014-06-10T18:35:19Z</time>
      </trkpt>
      <trkpt lat="59.918721" lon="17.8414244">
        <ele>18.8831</ele>
        <time>2014-06-10T18:35:20Z</time>
      </trkpt>
      <trkpt lat="59.9186402" lon="17.8414886">
        <ele>18.8831</ele>
        <time>2014-06-10T18:35:21Z</time>
      </trkpt>
      <trkpt lat="59.9185599" lon="17.8415552">
        <ele>18.8831</ele>
        <time>2014-06-10T18:35:22Z</time>
      </trkpt>
      <trkpt lat="59.9184802" lon="17.8416248">
        <ele>18.8831</ele>
        <time>2014-06-10T18:35:23Z</time>
      </trkpt>
      <trkpt lat="59.9184014" lon="17.8416975">
        <ele>19.3638</ele>
        <time>2014-06-10T18:35:24Z</time>
      </trkpt>
      <trkpt lat="59.9183235" lon="17.8417707">
        <ele>19.3638</ele>
        <time>2014-06-10T18:35:25Z</time>
      </trkpt>
      <trkpt lat="59.918247" lon="17.8418431">
        <ele>19.3638</ele>
        <time>2014-06-10T18:35:26Z</time>
      </trkpt>
      <trkpt lat="59.918173" lon="17.8419157">
        <ele>19.3638</ele>
        <time>2014-06-10T18:35:27Z</time>
      </trkpt>
      <trkpt lat="59.9181021" lon="17.84199">
        <ele>19.8444</ele>
        <time>2014-06-10T18:35:28Z</time>
      </trkpt>
      <trkpt lat="59.9180334" lon="17.8420653">
        <ele>19.8444</ele>
        <time>2014-06-10T18:35:29Z</time>
      </trkpt>
      <trkpt lat="59.9179654" lon="17.84214">
        <ele>20.325</ele>
        <time>2014-06-10T18:35:30Z</time>
      </trkpt>
      <trkpt lat="59.9178982" lon="17.8422125">
        <ele>20.325</ele>
        <time>2014-06-10T18:35:31Z</time>
      </trkpt>
      <trkpt lat="59.9178319" lon="17.8422834">
        <ele>20.325</ele>
        <time>2014-06-10T18:35:32Z</time>
      </trkpt>
      <trkpt lat="59.917767" lon="17.8423539">
        <ele>20.325</ele>
        <time>2014-06-10T18:35:33Z</time>
      </trkpt>
      <trkpt lat="59.9177032" lon="17.8424236">
        <ele>20.8057</ele>
        <time>2014-06-10T18:35:34Z</time>
      </trkpt>
      <trkpt lat="59.9176394" lon="17.8424899">
        <ele>20.8057</ele>
        <time>2014-06-10T18:35:35Z</time>
      </trkpt>
      <trkpt lat="59.917574" lon="17.8425512">
        <ele>20.325</ele>
        <time>2014-06-10T18:35:36Z</time>
      </trkpt>
      <trkpt lat="59.9175042" lon="17.8426139">
        <ele>20.325</ele>
        <time>2014-06-10T18:35:37Z</time>
      </trkpt>
      <trkpt lat="59.9174374" lon="17.8426719">
        <ele>19.8444</ele>
        <time>2014-06-10T18:35:38Z</time>
      </trkpt>
      <trkpt lat="59.9173679" lon="17.8427279">
        <ele>19.8444</ele>
        <time>2014-06-10T18:35:39Z</time>
      </trkpt>
      <trkpt lat="59.9172982" lon="17.8427807">
        <ele>19.8444</ele>
        <time>2014-06-10T18:35:40Z</time>
      </trkpt>
      <trkpt lat="59.9172318" lon="17.8428387">
        <ele>19.8444</ele>
        <time>2014-06-10T18:35:41Z</time>
      </trkpt>
      <trkpt lat="59.9171665" lon="17.8428977">
        <ele>19.3638</ele>
        <time>2014-06-10T18:35:42Z</time>
      </trkpt>
      <trkpt lat="59.9171018" lon="17.8429511">
        <ele>19.3638</ele>
        <time>2014-06-10T18:35:43Z</time>
      </trkpt>
      <trkpt lat="59.9170385" lon="17.8429997">
        <ele>19.8444</ele>
        <time>2014-06-10T18:35:44Z</time>
      </trkpt>
      <trkpt lat="59.9169749" lon="17.8430345">
        <ele>19.8444</ele>
        <time>2014-06-10T18:35:45Z</time>
      </trkpt>
      <trkpt lat="59.916909" lon="17.8430392">
        <ele>19.8444</ele>
        <time>2014-06-10T18:35:46Z</time>
      </trkpt>
      <trkpt lat="59.9168462" lon="17.8430023">
        <ele>19.3638</ele>
        <time>2014-06-10T18:35:47Z</time>
      </trkpt>
      <trkpt lat="59.9167855" lon="17.8429359">
        <ele>19.3638</ele>
        <time>2014-06-10T18:35:48Z</time>
      </trkpt>
      <trkpt lat="59.9167273" lon="17.84285">
        <ele>18.8831</ele>
        <time>2014-06-10T18:35:49Z</time>
      </trkpt>
      <trkpt lat="59.9166697" lon="17.8427538">
        <ele>18.4023</ele>
        <time>2014-06-10T18:35:50Z</time>
      </trkpt>
      <trkpt lat="59.9166103" lon="17.8426542">
        <ele>18.4023</ele>
        <time>2014-06-10T18:35:51Z</time>
      </trkpt>
      <trkpt lat="59.916549" lon="17.8425529">
        <ele>18.4023</ele>
        <time>2014-06-10T18:35:52Z</time>
      </trkpt>
      <trkpt lat="59.9164854" lon="17.8424501">
        <ele>17.9218</ele>
        <time>2014-06-10T18:35:53Z</time>
      </trkpt>
      <trkpt lat="59.9164207" lon="17.8423452">
        <ele>17.9218</ele>
        <time>2014-06-10T18:35:54Z</time>
      </trkpt>
      <trkpt lat="59.9163546" lon="17.84224">
        <ele>17.4412</ele>
        <time>2014-06-10T18:35:55Z</time>
      </trkpt>
      <trkpt lat="59.9162855" lon="17.8421342">
        <ele>16.9604</ele>
        <time>2014-06-10T18:35:56Z</time>
      </trkpt>
      <trkpt lat="59.9162139" lon="17.8420332">
        <ele>16.9604</ele>
        <time>2014-06-10T18:35:57Z</time>
      </trkpt>
      <trkpt lat="59.9161341" lon="17.8419393">
        <ele>16.4797</ele>
        <time>2014-06-10T18:35:58Z</time>
      </trkpt>
      <trkpt lat="59.9160521" lon="17.8418768">
        <ele>16.4797</ele>
        <time>2014-06-10T18:35:59Z</time>
      </trkpt>
      <trkpt lat="59.9159568" lon="17.8418301">
        <ele>16.4797</ele>
        <time>2014-06-10T18:36:00Z</time>
      </trkpt>
      <trkpt lat="59.9158685" lon="17.8418075">
        <ele>16.4797</ele>
        <time>2014-06-10T18:36:01Z</time>
      </trkpt>
      <trkpt lat="59.9157833" lon="17.8417925">
        <ele>16.4797</ele>
        <time>2014-06-10T18:36:02Z</time>
      </trkpt>
      <trkpt lat="59.915691" lon="17.8417699">
        <ele>16.4797</ele>
        <time>2014-06-10T18:36:03Z</time>
      </trkpt>
      <trkpt lat="59.915598" lon="17.8417737">
        <ele>16.4797</ele>
        <time>2014-06-10T18:36:04Z</time>
      </trkpt>
      <trkpt lat="59.9155128" lon="17.8417554">
        <ele>16.4797</ele>
        <time>2014-06-10T18:36:05Z</time>
      </trkpt>
      <trkpt lat="59.9154232" lon="17.8417462">
        <ele>16.9604</ele>
        <time>2014-06-10T18:36:06Z</time>
      </trkpt>
      <trkpt lat="59.9153338" lon="17.8417363">
        <ele>16.9604</ele>
        <time>2014-06-10T18:36:07Z</time>
      </trkpt>
      <trkpt lat="59.9152446" lon="17.8417272">
        <ele>16.9604</ele>
        <time>2014-06-10T18:36:08Z</time>
      </trkpt>
      <trkpt lat="59.915158" lon="17.8417333">
        <ele>16.9604</ele>
        <time>2014-06-10T18:36:09Z</time>
      </trkpt>
      <trkpt lat="59.9150678" lon="17.8417425">
        <ele>17.4412</ele>
        <time>2014-06-10T18:36:10Z</time>
      </trkpt>
      <trkpt lat="59.9149794" lon="17.8417707">
        <ele>16.9604</ele>
        <time>2014-06-10T18:36:11Z</time>
      </trkpt>
      <trkpt lat="59.914894" lon="17.8418137">
        <ele>16.4797</ele>
        <time>2014-06-10T18:36:12Z</time>
      </trkpt>
      <trkpt lat="59.9148095" lon="17.8418644">
        <ele>15.5184</ele>
        <time>2014-06-10T18:36:13Z</time>
      </trkpt>
      <trkpt lat="59.9147251" lon="17.841923">
        <ele>15.0377</ele>
        <time>2014-06-10T18:36:14Z</time>
      </trkpt>
      <trkpt lat="59.9146431" lon="17.8420107">
        <ele>14.557</ele>
        <time>2014-06-10T18:36:15Z</time>
      </trkpt>
      <trkpt lat="59.9145631" lon="17.8420962">
        <ele>14.557</ele>
        <time>2014-06-10T18:36:16Z</time>
      </trkpt>
      <trkpt lat="59.9144853" lon="17.8421902">
        <ele>14.0764</ele>
        <time>2014-06-10T18:36:17Z</time>
      </trkpt>
      <trkpt lat="59.9144107" lon="17.8422877">
        <ele>14.0764</ele>
        <time>2014-06-10T18:36:18Z</time>
      </trkpt>
      <trkpt lat="59.9143366" lon="17.8423834">
        <ele>13.5958</ele>
        <time>2014-06-10T18:36:19Z</time>
      </trkpt>
      <trkpt lat="59.914262" lon="17.8424731">
        <ele>13.5958</ele>
        <time>2014-06-10T18:36:20Z</time>
      </trkpt>
      <trkpt lat="59.914187" lon="17.8425572">
        <ele>13.5958</ele>
        <time>2014-06-10T18:36:21Z</time>
      </trkpt>
      <trkpt lat="59.9141103" lon="17.8426397">
        <ele>13.5958</ele>
        <time>2014-06-10T18:36:22Z</time>
      </trkpt>
      <trkpt lat="59.9140344" lon="17.8427185">
        <ele>13.5958</ele>
        <time>2014-06-10T18:36:23Z</time>
      </trkpt>
      <trkpt lat="59.9139583" lon="17.8427927">
        <ele>13.5958</ele>
        <time>2014-06-10T18:36:24Z</time>
      </trkpt>
      <trkpt lat="59.9138828" lon="17.8428646">
        <ele>13.5958</ele>
        <time>2014-06-10T18:36:25Z</time>
      </trkpt>
      <trkpt lat="59.9138072" lon="17.842935">
        <ele>13.5958</ele>
        <time>2014-06-10T18:36:26Z</time>
      </trkpt>
      <trkpt lat="59.9137314" lon="17.8430013">
        <ele>13.5958</ele>
        <time>2014-06-10T18:36:27Z</time>
      </trkpt>
      <trkpt lat="59.9136553" lon="17.843062">
        <ele>13.5958</ele>
        <time>2014-06-10T18:36:28Z</time>
      </trkpt>
      <trkpt lat="59.9135796" lon="17.8431164">
        <ele>13.5958</ele>
        <time>2014-06-10T18:36:29Z</time>
      </trkpt>
      <trkpt lat="59.9135032" lon="17.8431631">
        <ele>13.5958</ele>
        <time>2014-06-10T18:36:30Z</time>
      </trkpt>
      <trkpt lat="59.9134264" lon="17.8432017">
        <ele>14.0764</ele>
        <time>2014-06-10T18:36:31Z</time>
      </trkpt>
      <trkpt lat="59.9133488" lon="17.843233">
        <ele>14.0764</ele>
        <time>2014-06-10T18:36:32Z</time>
      </trkpt>
      <trkpt lat="59.9132722" lon="17.8432599">
        <ele>14.0764</ele>
        <time>2014-06-10T18:36:33Z</time>
      </trkpt>
      <trkpt lat="59.913197" lon="17.8432842">
        <ele>14.557</ele>
        <time>2014-06-10T18:36:34Z</time>
      </trkpt>
      <trkpt lat="59.9131243" lon="17.8433044">
        <ele>14.557</ele>
        <time>2014-06-10T18:36:35Z</time>
      </trkpt>
      <trkpt lat="59.9130535" lon="17.8433218">
        <ele>14.557</ele>
        <time>2014-06-10T18:36:36Z</time>
      </trkpt>
      <trkpt lat="59.9129844" lon="17.8433394">
        <ele>15.0377</ele>
        <time>2014-06-10T18:36:37Z</time>
      </trkpt>
      <trkpt lat="59.912917" lon="17.8433589">
        <ele>15.0377</ele>
        <time>2014-06-10T18:36:38Z</time>
      </trkpt>
      <trkpt lat="59.9128508" lon="17.8433816">
        <ele>15.5184</ele>
        <time>2014-06-10T18:36:39Z</time>
      </trkpt>
      <trkpt lat="59.9127862" lon="17.8434085">
        <ele>15.999</ele>
        <time>2014-06-10T18:36:40Z</time>
      </trkpt>
      <trkpt lat="59.912723" lon="17.8434396">
        <ele>15.999</ele>
        <time>2014-06-10T18:36:41Z</time>
      </trkpt>
      <trkpt lat="59.9126614" lon="17.8434773">
        <ele>16.4797</ele>
        <time>2014-06-10T18:36:42Z</time>
      </trkpt>
      <trkpt lat="59.9126013" lon="17.843523">
        <ele>16.4797</ele>
        <time>2014-06-10T18:36:43Z</time>
      </trkpt>
      <trkpt lat="59.9125423" lon="17.8435748">
        <ele>16.4797</ele>
        <time>2014-06-10T18:36:44Z</time>
      </trkpt>
      <trkpt lat="59.9124841" lon="17.8436307">
        <ele>16.4797</ele>
        <time>2014-06-10T18:36:45Z</time>
      </trkpt>
      <trkpt lat="59.9124251" lon="17.8436906">
        <ele>16.4797</ele>
        <time>2014-06-10T18:36:46Z</time>
      </trkpt>
      <trkpt lat="59.9123652" lon="17.8437541">
        <ele>16.4797</ele>
        <time>2014-06-10T18:36:47Z</time>
      </trkpt>
      <trkpt lat="59.912305" lon="17.8438196">
        <ele>15.999</ele>
        <time>2014-06-10T18:36:48Z</time>
      </trkpt>
      <trkpt lat="59.9122429" lon="17.8438849">
        <ele>15.999</ele>
        <time>2014-06-10T18:36:49Z</time>
      </trkpt>
      <trkpt lat="59.9121734" lon="17.843954">
        <ele>15.999</ele>
        <time>2014-06-10T18:36:50Z</time>
      </trkpt>
      <trkpt lat="59.9121067" lon="17.844025">
        <ele>15.999</ele>
        <time>2014-06-10T18:36:51Z</time>
      </trkpt>
      <trkpt lat="59.9120356" lon="17.8440751">
        <ele>15.5184</ele>
        <time>2014-06-10T18:36:52Z</time>
      </trkpt>
      <trkpt lat="59.9119634" lon="17.8441294">
        <ele>15.5184</ele>
        <time>2014-06-10T18:36:53Z</time>
      </trkpt>
      <trkpt lat="59.9118872" lon="17.8441774">
        <ele>15.5184</ele>
        <time>2014-06-10T18:36:54Z</time>
      </trkpt>
      <trkpt lat="59.9118083" lon="17.8442216">
        <ele>15.5184</ele>
        <time>2014-06-10T18:36:55Z</time>
      </trkpt>
      <trkpt lat="59.9117275" lon="17.844255">
        <ele>15.0377</ele>
        <time>2014-06-10T18:36:56Z</time>
      </trkpt>
      <trkpt lat="59.9116461" lon="17.8442782">
        <ele>15.0377</ele>
        <time>2014-06-10T18:36:57Z</time>
      </trkpt>
      <trkpt lat="59.9115628" lon="17.8442924">
        <ele>15.0377</ele>
        <time>2014-06-10T18:36:58Z</time>
      </trkpt>
      <trkpt lat="59.9114785" lon="17.8443063">
        <ele>15.5184</ele>
        <time>2014-06-10T18:36:59Z</time>
      </trkpt>
      <trkpt lat="59.9113937" lon="17.8443125">
        <ele>15.5184</ele>
        <time>2014-06-10T18:37:00Z</time>
      </trkpt>
      <trkpt lat="59.9113087" lon="17.8443164">
        <ele>15.5184</ele>
        <time>2014-06-10T18:37:01Z</time>
      </trkpt>
      <trkpt lat="59.9112239" lon="17.8443117">
        <ele>15.5184</ele>
        <time>2014-06-10T18:37:02Z</time>
      </trkpt>
      <trkpt lat="59.9111393" lon="17.8443001">
        <ele>15.5184</ele>
        <time>2014-06-10T18:37:03Z</time>
      </trkpt>
      <trkpt lat="59.9110556" lon="17.8442775">
        <ele>15.5184</ele>
        <time>2014-06-10T18:37:04Z</time>
      </trkpt>
      <trkpt lat="59.910974" lon="17.8442414">
        <ele>15.5184</ele>
        <time>2014-06-10T18:37:05Z</time>
      </trkpt>
      <trkpt lat="59.910896" lon="17.8441902">
        <ele>15.999</ele>
        <time>2014-06-10T18:37:06Z</time>
      </trkpt>
      <trkpt lat="59.9108224" lon="17.8441289">
        <ele>15.999</ele>
        <time>2014-06-10T18:37:07Z</time>
      </trkpt>
      <trkpt lat="59.9107538" lon="17.8440607">
        <ele>15.999</ele>
        <time>2014-06-10T18:37:08Z</time>
      </trkpt>
      <trkpt lat="59.9106878" lon="17.8439794">
        <ele>15.999</ele>
        <time>2014-06-10T18:37:09Z</time>
      </trkpt>
      <trkpt lat="59.9106183" lon="17.843922">
        <ele>15.999</ele>
        <time>2014-06-10T18:37:10Z</time>
      </trkpt>
      <trkpt lat="59.9105577" lon="17.8438623">
        <ele>15.999</ele>
        <time>2014-06-10T18:37:11Z</time>
      </trkpt>
      <trkpt lat="59.9104996" lon="17.8438012">
        <ele>15.999</ele>
        <time>2014-06-10T18:37:12Z</time>
      </trkpt>
      <trkpt lat="59.9104421" lon="17.8437483">
        <ele>15.999</ele>
        <time>2014-06-10T18:37:13Z</time>
      </trkpt>
      <trkpt lat="59.9103788" lon="17.8437057">
        <ele>15.5184</ele>
        <time>2014-06-10T18:37:14Z</time>
      </trkpt>
      <trkpt lat="59.9103159" lon="17.8436561">
        <ele>15.5184</ele>
        <time>2014-06-10T18:37:15Z</time>
      </trkpt>
      <trkpt lat="59.9102547" lon="17.8436079">
        <ele>15.0377</ele>
        <time>2014-06-10T18:37:16Z</time>
      </trkpt>
      <trkpt lat="59.910196" lon="17.8435473">
        <ele>15.5184</ele>
        <time>2014-06-10T18:37:17Z</time>
      </trkpt>
      <trkpt lat="59.9101392" lon="17.8434862">
        <ele>15.0377</ele>
        <time>2014-06-10T18:37:18Z</time>
      </trkpt>
      <trkpt lat="59.9100844" lon="17.8434164">
        <ele>15.0377</ele>
        <time>2014-06-10T18:37:19Z</time>
      </trkpt>
      <trkpt lat="59.9100297" lon="17.8433627">
        <ele>15.0377</ele>
        <time>2014-06-10T18:37:20Z</time>
      </trkpt>
      <trkpt lat="59.909972" lon="17.8433132">
        <ele>15.0377</ele>
        <time>2014-06-10T18:37:21Z</time>
      </trkpt>
      <trkpt lat="59.9099123" lon="17.8432474">
        <ele>15.999</ele>
        <time>2014-06-10T18:37:22Z</time>
      </trkpt>
      <trkpt lat="59.9098563" lon="17.8431863">
        <ele>15.999</ele>
        <time>2014-06-10T18:37:23Z</time>
      </trkpt>
      <trkpt lat="59.909804" lon="17.8431309">
        <ele>15.5184</ele>
        <time>2014-06-10T18:37:24Z</time>
      </trkpt>
      <trkpt lat="59.9097507" lon="17.8430748">
        <ele>15.5184</ele>
        <time>2014-06-10T18:37:25Z</time>
      </trkpt>
      <trkpt lat="59.9096984" lon="17.8430087">
        <ele>15.5184</ele>
        <time>2014-06-10T18:37:26Z</time>
      </trkpt>
      <trkpt lat="59.9096511" lon="17.8429215">
        <ele>15.5184</ele>
        <time>2014-06-10T18:37:27Z</time>
      </trkpt>
      <trkpt lat="59.9096165" lon="17.8428086">
        <ele>15.5184</ele>
        <time>2014-06-10T18:37:28Z</time>
      </trkpt>
      <trkpt lat="59.9096018" lon="17.8426781">
        <ele>15.999</ele>
        <time>2014-06-10T18:37:29Z</time>
      </trkpt>
      <trkpt lat="59.909603" lon="17.8425436">
        <ele>15.999</ele>
        <time>2014-06-10T18:37:30Z</time>
      </trkpt>
      <trkpt lat="59.9096138" lon="17.8424091">
        <ele>16.4797</ele>
        <time>2014-06-10T18:37:31Z</time>
      </trkpt>
      <trkpt lat="59.9096268" lon="17.8422726">
        <ele>16.4797</ele>
        <time>2014-06-10T18:37:32Z</time>
      </trkpt>
      <trkpt lat="59.9096384" lon="17.8421295">
        <ele>15.999</ele>
        <time>2014-06-10T18:37:33Z</time>
      </trkpt>
      <trkpt lat="59.9096486" lon="17.8419798">
        <ele>15.999</ele>
        <time>2014-06-10T18:37:34Z</time>
      </trkpt>
      <trkpt lat="59.9096562" lon="17.8418245">
        <ele>15.999</ele>
        <time>2014-06-10T18:37:35Z</time>
      </trkpt>
      <trkpt lat="59.9096585" lon="17.8416644">
        <ele>15.999</ele>
        <time>2014-06-10T18:37:36Z</time>
      </trkpt>
      <trkpt lat="59.9096549" lon="17.8415028">
        <ele>15.5184</ele>
        <time>2014-06-10T18:37:37Z</time>
      </trkpt>
      <trkpt lat="59.9096443" lon="17.841341">
        <ele>15.5184</ele>
        <time>2014-06-10T18:37:38Z</time>
      </trkpt>
      <trkpt lat="59.9096251" lon="17.8411806">
        <ele>15.5184</ele>
        <time>2014-06-10T18:37:39Z</time>
      </trkpt>
      <trkpt lat="59.909598" lon="17.8410252">
        <ele>15.5184</ele>
        <time>2014-06-10T18:37:40Z</time>
      </trkpt>
      <trkpt lat="59.9095647" lon="17.8408782">
        <ele>15.999</ele>
        <time>2014-06-10T18:37:41Z</time>
      </trkpt>
      <trkpt lat="59.9095262" lon="17.8407408">
        <ele>15.999</ele>
        <time>2014-06-10T18:37:42Z</time>
      </trkpt>
      <trkpt lat="59.9094834" lon="17.8406118">
        <ele>15.999</ele>
        <time>2014-06-10T18:37:43Z</time>
      </trkpt>
      <trkpt lat="59.9094382" lon="17.8404869">
        <ele>15.999</ele>
        <time>2014-06-10T18:37:44Z</time>
      </trkpt>
      <trkpt lat="59.909392" lon="17.8403651">
        <ele>15.999</ele>
        <time>2014-06-10T18:37:45Z</time>
      </trkpt>
      <trkpt lat="59.9093466" lon="17.8402443">
        <ele>16.4797</ele>
        <time>2014-06-10T18:37:46Z</time>
      </trkpt>
      <trkpt lat="59.9093017" lon="17.8401254">
        <ele>16.4797</ele>
        <time>2014-06-10T18:37:47Z</time>
      </trkpt>
      <trkpt lat="59.9092575" lon="17.8400078">
        <ele>16.9604</ele>
        <time>2014-06-10T18:37:48Z</time>
      </trkpt>
      <trkpt lat="59.9092145" lon="17.8398919">
        <ele>16.9604</ele>
        <time>2014-06-10T18:37:49Z</time>
      </trkpt>
      <trkpt lat="59.9091734" lon="17.8397778">
        <ele>17.4412</ele>
        <time>2014-06-10T18:37:50Z</time>
      </trkpt>
      <trkpt lat="59.9091337" lon="17.8396669">
        <ele>17.9218</ele>
        <time>2014-06-10T18:37:51Z</time>
      </trkpt>
      <trkpt lat="59.9090941" lon="17.8395597">
        <ele>18.4023</ele>
        <time>2014-06-10T18:37:52Z</time>
      </trkpt>
      <trkpt lat="59.9090553" lon="17.8394586">
        <ele>18.8831</ele>
        <time>2014-06-10T18:37:53Z</time>
      </trkpt>
      <trkpt lat="59.9090188" lon="17.8393613">
        <ele>18.8831</ele>
        <time>2014-06-10T18:37:54Z</time>
      </trkpt>
      <trkpt lat="59.9089819" lon="17.8392692">
        <ele>19.3638</ele>
        <time>2014-06-10T18:37:55Z</time>
      </trkpt>
      <trkpt lat="59.9089439" lon="17.839182">
        <ele>19.8444</ele>
        <time>2014-06-10T18:37:56Z</time>
      </trkpt>
      <trkpt lat="59.908908" lon="17.8390961">
        <ele>19.8444</ele>
        <time>2014-06-10T18:37:57Z</time>
      </trkpt>
      <trkpt lat="59.9088731" lon="17.8390162">
        <ele>20.325</ele>
        <time>2014-06-10T18:37:58Z</time>
      </trkpt>
      <trkpt lat="59.9088349" lon="17.8389453">
        <ele>20.325</ele>
        <time>2014-06-10T18:37:59Z</time>
      </trkpt>
      <trkpt lat="59.9087958" lon="17.838879">
        <ele>20.325</ele>
        <time>2014-06-10T18:38:00Z</time>
      </trkpt>
      <trkpt lat="59.908755" lon="17.83882">
        <ele>20.325</ele>
        <time>2014-06-10T18:38:01Z</time>
      </trkpt>
      <trkpt lat="59.9087114" lon="17.8387656">
        <ele>20.8057</ele>
        <time>2014-06-10T18:38:02Z</time>
      </trkpt>
      <trkpt lat="59.9086665" lon="17.8387162">
        <ele>20.8057</ele>
        <time>2014-06-10T18:38:03Z</time>
      </trkpt>
      <trkpt lat="59.9086219" lon="17.838672">
        <ele>20.325</ele>
        <time>2014-06-10T18:38:04Z</time>
      </trkpt>
      <trkpt lat="59.9085759" lon="17.8386344">
        <ele>20.325</ele>
        <time>2014-06-10T18:38:05Z</time>
      </trkpt>
      <trkpt lat="59.9085282" lon="17.8386062">
        <ele>19.8444</ele>
        <time>2014-06-10T18:38:06Z</time>
      </trkpt>
      <trkpt lat="59.9084774" lon="17.8385844">
        <ele>19.8444</ele>
        <time>2014-06-10T18:38:07Z</time>
      </trkpt>
      <trkpt lat="59.9084266" lon="17.8385676">
        <ele>19.8444</ele>
        <time>2014-06-10T18:38:08Z</time>
      </trkpt>
      <trkpt lat="59.9083744" lon="17.8385625">
        <ele>19.8444</ele>
        <time>2014-06-10T18:38:09Z</time>
      </trkpt>
      <trkpt lat="59.9083193" lon="17.8385713">
        <ele>19.3638</ele>
        <time>2014-06-10T18:38:10Z</time>
      </trkpt>
      <trkpt lat="59.9082619" lon="17.838589">
        <ele>19.3638</ele>
        <time>2014-06-10T18:38:11Z</time>
      </trkpt>
      <trkpt lat="59.9082037" lon="17.8386139">
        <ele>19.3638</ele>
        <time>2014-06-10T18:38:12Z</time>
      </trkpt>
      <trkpt lat="59.9081478" lon="17.8386466">
        <ele>18.8831</ele>
        <time>2014-06-10T18:38:13Z</time>
      </trkpt>
      <trkpt lat="59.9080915" lon="17.8386931">
        <ele>18.8831</ele>
        <time>2014-06-10T18:38:14Z</time>
      </trkpt>
      <trkpt lat="59.9080364" lon="17.8387464">
        <ele>18.8831</ele>
        <time>2014-06-10T18:38:15Z</time>
      </trkpt>
      <trkpt lat="59.9079833" lon="17.838806">
        <ele>18.4023</ele>
        <time>2014-06-10T18:38:16Z</time>
      </trkpt>
      <trkpt lat="59.9079319" lon="17.8388687">
        <ele>18.8831</ele>
        <time>2014-06-10T18:38:17Z</time>
      </trkpt>
      <trkpt lat="59.9078828" lon="17.8389304">
        <ele>18.4023</ele>
        <time>2014-06-10T18:38:18Z</time>
      </trkpt>
      <trkpt lat="59.9078352" lon="17.8389939">
        <ele>18.8831</ele>
        <time>2014-06-10T18:38:19Z</time>
      </trkpt>
      <trkpt lat="59.9077879" lon="17.8390578">
        <ele>18.8831</ele>
        <time>2014-06-10T18:38:20Z</time>
      </trkpt>
      <trkpt lat="59.9077414" lon="17.8391199">
        <ele>18.8831</ele>
        <time>2014-06-10T18:38:21Z</time>
      </trkpt>
      <trkpt lat="59.9076962" lon="17.8391821">
        <ele>18.4023</ele>
        <time>2014-06-10T18:38:22Z</time>
      </trkpt>
      <trkpt lat="59.9076496" lon="17.8392416">
        <ele>18.4023</ele>
        <time>2014-06-10T18:38:23Z</time>
      </trkpt>
      <trkpt lat="59.9076009" lon="17.839297">
        <ele>18.4023</ele>
        <time>2014-06-10T18:38:24Z</time>
      </trkpt>
      <trkpt lat="59.9075511" lon="17.8393515">
        <ele>18.4023</ele>
        <time>2014-06-10T18:38:25Z</time>
      </trkpt>
      <trkpt lat="59.9075004" lon="17.8394053">
        <ele>17.9218</ele>
        <time>2014-06-10T18:38:26Z</time>
      </trkpt>
      <trkpt lat="59.9074455" lon="17.8394577">
        <ele>17.9218</ele>
        <time>2014-06-10T18:38:27Z</time>
      </trkpt>
      <trkpt lat="59.9073808" lon="17.8395165">
        <ele>17.4412</ele>
        <time>2014-06-10T18:38:28Z</time>
      </trkpt>
      <trkpt lat="59.9073139" lon="17.8395763">
        <ele>16.9604</ele>
        <time>2014-06-10T18:38:29Z</time>
      </trkpt>
      <trkpt lat="59.9072425" lon="17.8396369">
        <ele>16.9604</ele>
        <time>2014-06-10T18:38:30Z</time>
      </trkpt>
      <trkpt lat="59.907155" lon="17.8397093">
        <ele>16.4797</ele>
        <time>2014-06-10T18:38:31Z</time>
      </trkpt>
      <trkpt lat="59.9070729" lon="17.8397726">
        <ele>15.999</ele>
        <time>2014-06-10T18:38:32Z</time>
      </trkpt>
      <trkpt lat="59.9069838" lon="17.8398234">
        <ele>15.5184</ele>
        <time>2014-06-10T18:38:33Z</time>
      </trkpt>
      <trkpt lat="59.906898" lon="17.8398896">
        <ele>15.5184</ele>
        <time>2014-06-10T18:38:34Z</time>
      </trkpt>
      <trkpt lat="59.906813" lon="17.8399643">
        <ele>15.5184</ele>
        <time>2014-06-10T18:38:35Z</time>
      </trkpt>
      <trkpt lat="59.9067292" lon="17.8400377">
        <ele>15.0377</ele>
        <time>2014-06-10T18:38:36Z</time>
      </trkpt>
      <trkpt lat="59.9066474" lon="17.8401197">
        <ele>15.0377</ele>
        <time>2014-06-10T18:38:37Z</time>
      </trkpt>
      <trkpt lat="59.9065794" lon="17.8401762">
        <ele>14.557</ele>
        <time>2014-06-10T18:38:38Z</time>
      </trkpt>
      <trkpt lat="59.9065003" lon="17.8402353">
        <ele>14.557</ele>
        <time>2014-06-10T18:38:39Z</time>
      </trkpt>
      <trkpt lat="59.9064188" lon="17.8403097">
        <ele>14.0764</ele>
        <time>2014-06-10T18:38:40Z</time>
      </trkpt>
      <trkpt lat="59.9063343" lon="17.8404143">
        <ele>13.5958</ele>
        <time>2014-06-10T18:38:41Z</time>
      </trkpt>
      <trkpt lat="59.9062542" lon="17.8405288">
        <ele>14.0764</ele>
        <time>2014-06-10T18:38:42Z</time>
      </trkpt>
      <trkpt lat="59.9061814" lon="17.840647">
        <ele>14.0764</ele>
        <time>2014-06-10T18:38:43Z</time>
      </trkpt>
      <trkpt lat="59.9061096" lon="17.8407647">
        <ele>14.557</ele>
        <time>2014-06-10T18:38:44Z</time>
      </trkpt>
      <trkpt lat="59.9060353" lon="17.8408786">
        <ele>15.0377</ele>
        <time>2014-06-10T18:38:45Z</time>
      </trkpt>
      <trkpt lat="59.9059608" lon="17.8409799">
        <ele>15.0377</ele>
        <time>2014-06-10T18:38:46Z</time>
      </trkpt>
      <trkpt lat="59.9058845" lon="17.841065">
        <ele>15.5184</ele>
        <time>2014-06-10T18:38:47Z</time>
      </trkpt>
      <trkpt lat="59.9058054" lon="17.8411375">
        <ele>15.999</ele>
        <time>2014-06-10T18:38:48Z</time>
      </trkpt>
      <trkpt lat="59.9057268" lon="17.8411903">
        <ele>15.999</ele>
        <time>2014-06-10T18:38:49Z</time>
      </trkpt>
      <trkpt lat="59.9056485" lon="17.8412332">
        <ele>16.4797</ele>
        <time>2014-06-10T18:38:50Z</time>
      </trkpt>
      <trkpt lat="59.905576" lon="17.8412609">
        <ele>16.4797</ele>
        <time>2014-06-10T18:38:51Z</time>
      </trkpt>
      <trkpt lat="59.9055066" lon="17.8412869">
        <ele>16.9604</ele>
        <time>2014-06-10T18:38:52Z</time>
      </trkpt>
      <trkpt lat="59.9054403" lon="17.8413095">
        <ele>17.4412</ele>
        <time>2014-06-10T18:38:53Z</time>
      </trkpt>
      <trkpt lat="59.9053797" lon="17.8413267">
        <ele>17.4412</ele>
        <time>2014-06-10T18:38:54Z</time>
      </trkpt>
      <trkpt lat="59.9053217" lon="17.8413449">
        <ele>17.9218</ele>
        <time>2014-06-10T18:38:55Z</time>
      </trkpt>
      <trkpt lat="59.9052664" lon="17.8413614">
        <ele>17.9218</ele>
        <time>2014-06-10T18:38:56Z</time>
      </trkpt>
      <trkpt lat="59.9052161" lon="17.8413717">
        <ele>18.4023</ele>
        <time>2014-06-10T18:38:57Z</time>
      </trkpt>
      <trkpt lat="59.9051648" lon="17.8413793">
        <ele>18.8831</ele>
        <time>2014-06-10T18:38:58Z</time>
      </trkpt>
      <trkpt lat="59.905115" lon="17.8413924">
        <ele>19.8444</ele>
        <time>2014-06-10T18:38:59Z</time>
      </trkpt>
      <trkpt lat="59.9050711" lon="17.8414117">
        <ele>20.325</ele>
        <time>2014-06-10T18:39:00Z</time>
      </trkpt>
      <trkpt lat="59.9050295" lon="17.8414292">
        <ele>21.2864</ele>
        <time>2014-06-10T18:39:01Z</time>
      </trkpt>
      <trkpt lat="59.9049856" lon="17.8414488">
        <ele>21.2864</ele>
        <time>2014-06-10T18:39:02Z</time>
      </trkpt>
      <trkpt lat="59.9049392" lon="17.8414779">
        <ele>22.2476</ele>
        <time>2014-06-10T18:39:03Z</time>
      </trkpt>
      <trkpt lat="59.9048929" lon="17.8415042">
        <ele>22.2476</ele>
        <time>2014-06-10T18:39:04Z</time>
      </trkpt>
      <trkpt lat="59.9048476" lon="17.841539">
        <ele>22.7283</ele>
        <time>2014-06-10T18:39:05Z</time>
      </trkpt>
      <trkpt lat="59.9048036" lon="17.8415669">
        <ele>22.2476</ele>
        <time>2014-06-10T18:39:06Z</time>
      </trkpt>
      <trkpt lat="59.9047584" lon="17.8416018">
        <ele>22.7283</ele>
        <time>2014-06-10T18:39:07Z</time>
      </trkpt>
      <trkpt lat="59.9047135" lon="17.8416333">
        <ele>22.2476</ele>
        <time>2014-06-10T18:39:08Z</time>
      </trkpt>
      <trkpt lat="59.9046643" lon="17.8416689">
        <ele>22.7283</ele>
        <time>2014-06-10T18:39:09Z</time>
      </trkpt>
      <trkpt lat="59.904612" lon="17.84171">
        <ele>22.7283</ele>
        <time>2014-06-10T18:39:10Z</time>
      </trkpt>
      <trkpt lat="59.9045574" lon="17.8417445">
        <ele>22.7283</ele>
        <time>2014-06-10T18:39:11Z</time>
      </trkpt>
      <trkpt lat="59.9045016" lon="17.8417781">
        <ele>22.7283</ele>
        <time>2014-06-10T18:39:12Z</time>
      </trkpt>
      <trkpt lat="59.9044441" lon="17.8418182">
        <ele>22.7283</ele>
        <time>2014-06-10T18:39:13Z</time>
      </trkpt>
      <trkpt lat="59.9043871" lon="17.8418607">
        <ele>22.7283</ele>
        <time>2014-06-10T18:39:14Z</time>
      </trkpt>
      <trkpt lat="59.9043285" lon="17.8419">
        <ele>22.7283</ele>
        <time>2014-06-10T18:39:15Z</time>
      </trkpt>
      <trkpt lat="59.9042694" lon="17.8419316">
        <ele>22.7283</ele>
        <time>2014-06-10T18:39:16Z</time>
      </trkpt>
      <trkpt lat="59.9042112" lon="17.8419607">
        <ele>22.7283</ele>
        <time>2014-06-10T18:39:17Z</time>
      </trkpt>
      <trkpt lat="59.9041525" lon="17.8419852">
        <ele>22.2476</ele>
        <time>2014-06-10T18:39:18Z</time>
      </trkpt>
      <trkpt lat="59.9040941" lon="17.8419981">
        <ele>22.2476</ele>
        <time>2014-06-10T18:39:19Z</time>
      </trkpt>
      <trkpt lat="59.9040295" lon="17.8419913">
        <ele>22.2476</ele>
        <time>2014-06-10T18:39:20Z</time>
      </trkpt>
      <trkpt lat="59.9039739" lon="17.841969">
        <ele>21.767</ele>
        <time>2014-06-10T18:39:21Z</time>
      </trkpt>
      <trkpt lat="59.9039081" lon="17.8419405">
        <ele>21.767</ele>
        <time>2014-06-10T18:39:22Z</time>
      </trkpt>
      <trkpt lat="59.9038521" lon="17.841912">
        <ele>21.2864</ele>
        <time>2014-06-10T18:39:23Z</time>
      </trkpt>
      <trkpt lat="59.9037954" lon="17.8418737">
        <ele>20.8057</ele>
        <time>2014-06-10T18:39:24Z</time>
      </trkpt>
      <trkpt lat="59.9037421" lon="17.841824">
        <ele>20.8057</ele>
        <time>2014-06-10T18:39:25Z</time>
      </trkpt>
      <trkpt lat="59.9036764" lon="17.8417944">
        <ele>21.2864</ele>
        <time>2014-06-10T18:39:26Z</time>
      </trkpt>
      <trkpt lat="59.9036257" lon="17.8417331">
        <ele>21.2864</ele>
        <time>2014-06-10T18:39:27Z</time>
      </trkpt>
      <trkpt lat="59.9035786" lon="17.8416635">
        <ele>21.767</ele>
        <time>2014-06-10T18:39:28Z</time>
      </trkpt>
      <trkpt lat="59.9035304" lon="17.8415946">
        <ele>22.2476</ele>
        <time>2014-06-10T18:39:29Z</time>
      </trkpt>
      <trkpt lat="59.9034852" lon="17.8415208">
        <ele>22.2476</ele>
        <time>2014-06-10T18:39:30Z</time>
      </trkpt>
      <trkpt lat="59.9034382" lon="17.841451">
        <ele>22.2476</ele>
        <time>2014-06-10T18:39:31Z</time>
      </trkpt>
      <trkpt lat="59.90339" lon="17.8413803">
        <ele>21.767</ele>
        <time>2014-06-10T18:39:32Z</time>
      </trkpt>
      <trkpt lat="59.9033359" lon="17.8413204">
        <ele>22.7283</ele>
        <time>2014-06-10T18:39:33Z</time>
      </trkpt>
      <trkpt lat="59.903279" lon="17.8412801">
        <ele>22.2476</ele>
        <time>2014-06-10T18:39:34Z</time>
      </trkpt>
      <trkpt lat="59.9032248" lon="17.8412477">
        <ele>22.2476</ele>
        <time>2014-06-10T18:39:35Z</time>
      </trkpt>
      <trkpt lat="59.9031687" lon="17.8412241">
        <ele>22.2476</ele>
        <time>2014-06-10T18:39:36Z</time>
      </trkpt>
      <trkpt lat="59.9031099" lon="17.8412205">
        <ele>22.2476</ele>
        <time>2014-06-10T18:39:37Z</time>
      </trkpt>
      <trkpt lat="59.9030501" lon="17.8412329">
        <ele>21.2864</ele>
        <time>2014-06-10T18:39:38Z</time>
      </trkpt>
      <trkpt lat="59.902987" lon="17.8412544">
        <ele>21.2864</ele>
        <time>2014-06-10T18:39:39Z</time>
      </trkpt>
      <trkpt lat="59.9029202" lon="17.841278">
        <ele>21.2864</ele>
        <time>2014-06-10T18:39:40Z</time>
      </trkpt>
      <trkpt lat="59.9028547" lon="17.8413054">
        <ele>21.2864</ele>
        <time>2014-06-10T18:39:41Z</time>
      </trkpt>
      <trkpt lat="59.9027871" lon="17.8413323">
        <ele>21.2864</ele>
        <time>2014-06-10T18:39:42Z</time>
      </trkpt>
      <trkpt lat="59.9027207" lon="17.8413608">
        <ele>20.8057</ele>
        <time>2014-06-10T18:39:43Z</time>
      </trkpt>
      <trkpt lat="59.9026534" lon="17.841391">
        <ele>20.8057</ele>
        <time>2014-06-10T18:39:44Z</time>
      </trkpt>
      <trkpt lat="59.9025839" lon="17.8414214">
        <ele>21.2864</ele>
        <time>2014-06-10T18:39:45Z</time>
      </trkpt>
      <trkpt lat="59.9025172" lon="17.8414525">
        <ele>21.2864</ele>
        <time>2014-06-10T18:39:46Z</time>
      </trkpt>
      <trkpt lat="59.902454" lon="17.841482">
        <ele>21.2864</ele>
        <time>2014-06-10T18:39:47Z</time>
      </trkpt>
      <trkpt lat="59.9023927" lon="17.8415098">
        <ele>21.767</ele>
        <time>2014-06-10T18:39:48Z</time>
      </trkpt>
      <trkpt lat="59.9023337" lon="17.8415342">
        <ele>21.767</ele>
        <time>2014-06-10T18:39:49Z</time>
      </trkpt>
      <trkpt lat="59.9022762" lon="17.8415533">
        <ele>22.2476</ele>
        <time>2014-06-10T18:39:50Z</time>
      </trkpt>
      <trkpt lat="59.9022197" lon="17.8415653">
        <ele>22.7283</ele>
        <time>2014-06-10T18:39:51Z</time>
      </trkpt>
      <trkpt lat="59.9021649" lon="17.8415663">
        <ele>23.209</ele>
        <time>2014-06-10T18:39:52Z</time>
      </trkpt>
      <trkpt lat="59.9021064" lon="17.8415654">
        <ele>23.6896</ele>
        <time>2014-06-10T18:39:53Z</time>
      </trkpt>
      <trkpt lat="59.9020523" lon="17.8415535">
        <ele>23.6896</ele>
        <time>2014-06-10T18:39:54Z</time>
      </trkpt>
      <trkpt lat="59.9019971" lon="17.8415432">
        <ele>24.1703</ele>
        <time>2014-06-10T18:39:55Z</time>
      </trkpt>
      <trkpt lat="59.9019406" lon="17.841534">
        <ele>24.1703</ele>
        <time>2014-06-10T18:39:56Z</time>
      </trkpt>
      <trkpt lat="59.9018822" lon="17.8415241">
        <ele>23.6896</ele>
        <time>2014-06-10T18:39:57Z</time>
      </trkpt>
      <trkpt lat="59.9018204" lon="17.8415146">
        <ele>23.6896</ele>
        <time>2014-06-10T18:39:58Z</time>
      </trkpt>
      <trkpt lat="59.901756" lon="17.8415063">
        <ele>23.6896</ele>
        <time>2014-06-10T18:39:59Z</time>
      </trkpt>
      <trkpt lat="59.9016907" lon="17.841494">
        <ele>24.1703</ele>
        <time>2014-06-10T18:40:00Z</time>
      </trkpt>
      <trkpt lat="59.9016257" lon="17.8414804">
        <ele>24.1703</ele>
        <time>2014-06-10T18:40:01Z</time>
      </trkpt>
      <trkpt lat="59.901555" lon="17.8414699">
        <ele>24.651</ele>
        <time>2014-06-10T18:40:02Z</time>
      </trkpt>
      <trkpt lat="59.9014848" lon="17.8414598">
        <ele>24.651</ele>
        <time>2014-06-10T18:40:03Z</time>
      </trkpt>
      <trkpt lat="59.9014172" lon="17.8414513">
        <ele>24.651</ele>
        <time>2014-06-10T18:40:04Z</time>
      </trkpt>
      <trkpt lat="59.9013504" lon="17.8414404">
        <ele>24.651</ele>
        <time>2014-06-10T18:40:05Z</time>
      </trkpt>
      <trkpt lat="59.9012836" lon="17.8414303">
        <ele>24.651</ele>
        <time>2014-06-10T18:40:06Z</time>
      </trkpt>
      <trkpt lat="59.9012171" lon="17.8414187">
        <ele>24.651</ele>
        <time>2014-06-10T18:40:07Z</time>
      </trkpt>
      <trkpt lat="59.9011517" lon="17.8414057">
        <ele>24.651</ele>
        <time>2014-06-10T18:40:08Z</time>
      </trkpt>
      <trkpt lat="59.901086" lon="17.8413933">
        <ele>24.651</ele>
        <time>2014-06-10T18:40:09Z</time>
      </trkpt>
      <trkpt lat="59.9010211" lon="17.841381">
        <ele>24.651</ele>
        <time>2014-06-10T18:40:10Z</time>
      </trkpt>
      <trkpt lat="59.9009557" lon="17.8413707">
        <ele>24.651</ele>
        <time>2014-06-10T18:40:11Z</time>
      </trkpt>
      <trkpt lat="59.9008906" lon="17.8413614">
        <ele>25.1317</ele>
        <time>2014-06-10T18:40:12Z</time>
      </trkpt>
      <trkpt lat="59.9008252" lon="17.8413515">
        <ele>25.1317</ele>
        <time>2014-06-10T18:40:13Z</time>
      </trkpt>
      <trkpt lat="59.90076" lon="17.8413425">
        <ele>25.6123</ele>
        <time>2014-06-10T18:40:14Z</time>
      </trkpt>
      <trkpt lat="59.900693" lon="17.841341">
        <ele>26.0929</ele>
        <time>2014-06-10T18:40:15Z</time>
      </trkpt>
      <trkpt lat="59.9006281" lon="17.8413384">
        <ele>26.0929</ele>
        <time>2014-06-10T18:40:16Z</time>
      </trkpt>
      <trkpt lat="59.9005649" lon="17.841337">
        <ele>26.5736</ele>
        <time>2014-06-10T18:40:17Z</time>
      </trkpt>
      <trkpt lat="59.9005021" lon="17.8413322">
        <ele>27.0543</ele>
        <time>2014-06-10T18:40:18Z</time>
      </trkpt>
      <trkpt lat="59.9004399" lon="17.8413309">
        <ele>27.0543</ele>
        <time>2014-06-10T18:40:19Z</time>
      </trkpt>
      <trkpt lat="59.900382" lon="17.841329">
        <ele>27.0543</ele>
        <time>2014-06-10T18:40:20Z</time>
      </trkpt>
      <trkpt lat="59.9003316" lon="17.8413344">
        <ele>27.5349</ele>
        <time>2014-06-10T18:40:21Z</time>
      </trkpt>
      <trkpt lat="59.9002825" lon="17.841342">
        <ele>28.0155</ele>
        <time>2014-06-10T18:40:22Z</time>
      </trkpt>
      <trkpt lat="59.9002235" lon="17.8413417">
        <ele>28.0155</ele>
        <time>2014-06-10T18:40:23Z</time>
      </trkpt>
      <trkpt lat="59.9001679" lon="17.8413442">
        <ele>28.4962</ele>
        <time>2014-06-10T18:40:24Z</time>
      </trkpt>
      <trkpt lat="59.9001113" lon="17.8413474">
        <ele>28.4962</ele>
        <time>2014-06-10T18:40:25Z</time>
      </trkpt>
      <trkpt lat="59.900057" lon="17.8413462">
        <ele>27.5349</ele>
        <time>2014-06-10T18:40:26Z</time>
      </trkpt>
      <trkpt lat="59.9000063" lon="17.8413348">
        <ele>27.0543</ele>
        <time>2014-06-10T18:40:27Z</time>
      </trkpt>
      <trkpt lat="59.8999529" lon="17.841333">
        <ele>26.0929</ele>
        <time>2014-06-10T18:40:28Z</time>
      </trkpt>
      <trkpt lat="59.8998982" lon="17.8413366">
        <ele>25.6123</ele>
        <time>2014-06-10T18:40:29Z</time>
      </trkpt>
      <trkpt lat="59.8998466" lon="17.8413396">
        <ele>25.1317</ele>
        <time>2014-06-10T18:40:30Z</time>
      </trkpt>
      <trkpt lat="59.8998022" lon="17.8413394">
        <ele>25.1317</ele>
        <time>2014-06-10T18:40:31Z</time>
      </trkpt>
      <trkpt lat="59.8997552" lon="17.8413488">
        <ele>24.651</ele>
        <time>2014-06-10T18:40:32Z</time>
      </trkpt>
      <trkpt lat="59.899704" lon="17.8413603">
        <ele>25.1317</ele>
        <time>2014-06-10T18:40:33Z</time>
      </trkpt>
      <trkpt lat="59.8996579" lon="17.8413717">
        <ele>25.1317</ele>
        <time>2014-06-10T18:40:34Z</time>
      </trkpt>
      <trkpt lat="59.8996112" lon="17.8413777">
        <ele>26.5736</ele>
        <time>2014-06-10T18:40:35Z</time>
      </trkpt>
      <trkpt lat="59.8995719" lon="17.8413801">
        <ele>26.5736</ele>
        <time>2014-06-10T18:40:36Z</time>
      </trkpt>
      <trkpt lat="59.8995339" lon="17.8413917">
        <ele>27.0543</ele>
        <time>2014-06-10T18:40:37Z</time>
      </trkpt>
      <trkpt lat="59.8994934" lon="17.8414179">
        <ele>27.0543</ele>
        <time>2014-06-10T18:40:38Z</time>
      </trkpt>
      <trkpt lat="59.8994442" lon="17.8414637">
        <ele>27.0543</ele>
        <time>2014-06-10T18:40:39Z</time>
      </trkpt>
      <trkpt lat="59.899388" lon="17.8415213">
        <ele>27.5349</ele>
        <time>2014-06-10T18:40:40Z</time>
      </trkpt>
      <trkpt lat="59.899332" lon="17.8415883">
        <ele>28.0155</ele>
        <time>2014-06-10T18:40:41Z</time>
      </trkpt>
      <trkpt lat="59.899277" lon="17.8416544">
        <ele>28.9769</ele>
        <time>2014-06-10T18:40:42Z</time>
      </trkpt>
      <trkpt lat="59.8992229" lon="17.8417111">
        <ele>29.4575</ele>
        <time>2014-06-10T18:40:43Z</time>
      </trkpt>
      <trkpt lat="59.8991677" lon="17.8417606">
        <ele>29.9381</ele>
        <time>2014-06-10T18:40:44Z</time>
      </trkpt>
      <trkpt lat="59.8991152" lon="17.8417937">
        <ele>29.9381</ele>
        <time>2014-06-10T18:40:45Z</time>
      </trkpt>
      <trkpt lat="59.8990604" lon="17.8418234">
        <ele>29.9381</ele>
        <time>2014-06-10T18:40:46Z</time>
      </trkpt>
      <trkpt lat="59.899003" lon="17.8418508">
        <ele>29.9381</ele>
        <time>2014-06-10T18:40:47Z</time>
      </trkpt>
      <trkpt lat="59.8989408" lon="17.8418823">
        <ele>29.4575</ele>
        <time>2014-06-10T18:40:48Z</time>
      </trkpt>
      <trkpt lat="59.8988738" lon="17.8419218">
        <ele>29.4575</ele>
        <time>2014-06-10T18:40:49Z</time>
      </trkpt>
      <trkpt lat="59.8988045" lon="17.8419678">
        <ele>29.4575</ele>
        <time>2014-06-10T18:40:50Z</time>
      </trkpt>
      <trkpt lat="59.8987315" lon="17.8420095">
        <ele>29.4575</ele>
        <time>2014-06-10T18:40:51Z</time>
      </trkpt>
      <trkpt lat="59.8986557" lon="17.8420499">
        <ele>28.9769</ele>
        <time>2014-06-10T18:40:52Z</time>
      </trkpt>
      <trkpt lat="59.898579" lon="17.8420887">
        <ele>29.4575</ele>
        <time>2014-06-10T18:40:53Z</time>
      </trkpt>
      <trkpt lat="59.8985005" lon="17.8421265">
        <ele>29.4575</ele>
        <time>2014-06-10T18:40:54Z</time>
      </trkpt>
      <trkpt lat="59.8984226" lon="17.8421539">
        <ele>29.4575</ele>
        <time>2014-06-10T18:40:55Z</time>
      </trkpt>
      <trkpt lat="59.8983444" lon="17.8421729">
        <ele>29.4575</ele>
        <time>2014-06-10T18:40:56Z</time>
      </trkpt>
      <trkpt lat="59.8982693" lon="17.8421787">
        <ele>29.4575</ele>
        <time>2014-06-10T18:40:57Z</time>
      </trkpt>
      <trkpt lat="59.8981965" lon="17.8421808">
        <ele>29.4575</ele>
        <time>2014-06-10T18:40:58Z</time>
      </trkpt>
      <trkpt lat="59.8981302" lon="17.8421747">
        <ele>29.9381</ele>
        <time>2014-06-10T18:40:59Z</time>
      </trkpt>
      <trkpt lat="59.8980586" lon="17.8421746">
        <ele>29.9381</ele>
        <time>2014-06-10T18:41:00Z</time>
      </trkpt>
      <trkpt lat="59.8979876" lon="17.8421667">
        <ele>29.9381</ele>
        <time>2014-06-10T18:41:01Z</time>
      </trkpt>
      <trkpt lat="59.8979157" lon="17.8421633">
        <ele>29.9381</ele>
        <time>2014-06-10T18:41:02Z</time>
      </trkpt>
      <trkpt lat="59.8978448" lon="17.8421615">
        <ele>29.9381</ele>
        <time>2014-06-10T18:41:03Z</time>
      </trkpt>
      <trkpt lat="59.8977784" lon="17.8421575">
        <ele>29.9381</ele>
        <time>2014-06-10T18:41:04Z</time>
      </trkpt>
      <trkpt lat="59.8977122" lon="17.842157">
        <ele>29.9381</ele>
        <time>2014-06-10T18:41:05Z</time>
      </trkpt>
      <trkpt lat="59.8976494" lon="17.8421591">
        <ele>29.9381</ele>
        <time>2014-06-10T18:41:06Z</time>
      </trkpt>
      <trkpt lat="59.8975816" lon="17.8421828">
        <ele>29.4575</ele>
        <time>2014-06-10T18:41:07Z</time>
      </trkpt>
      <trkpt lat="59.8975095" lon="17.8422155">
        <ele>28.9769</ele>
        <time>2014-06-10T18:41:08Z</time>
      </trkpt>
      <trkpt lat="59.8974307" lon="17.8422834">
        <ele>28.4962</ele>
        <time>2014-06-10T18:41:09Z</time>
      </trkpt>
      <trkpt lat="59.8973578" lon="17.8423585">
        <ele>28.0155</ele>
        <time>2014-06-10T18:41:10Z</time>
      </trkpt>
      <trkpt lat="59.8972923" lon="17.8424232">
        <ele>27.5349</ele>
        <time>2014-06-10T18:41:11Z</time>
      </trkpt>
      <trkpt lat="59.8972113" lon="17.8424967">
        <ele>27.0543</ele>
        <time>2014-06-10T18:41:12Z</time>
      </trkpt>
      <trkpt lat="59.8971139" lon="17.8425824">
        <ele>26.5736</ele>
        <time>2014-06-10T18:41:13Z</time>
      </trkpt>
      <trkpt lat="59.8970074" lon="17.842647">
        <ele>25.1317</ele>
        <time>2014-06-10T18:41:14Z</time>
      </trkpt>
      <trkpt lat="59.896907" lon="17.8427144">
        <ele>25.6123</ele>
        <time>2014-06-10T18:41:15Z</time>
      </trkpt>
      <trkpt lat="59.8968192" lon="17.8427497">
        <ele>25.6123</ele>
        <time>2014-06-10T18:41:16Z</time>
      </trkpt>
      <trkpt lat="59.8967288" lon="17.8427688">
        <ele>25.1317</ele>
        <time>2014-06-10T18:41:17Z</time>
      </trkpt>
      <trkpt lat="59.8966169" lon="17.8427803">
        <ele>24.1703</ele>
        <time>2014-06-10T18:41:18Z</time>
      </trkpt>
      <trkpt lat="59.8964996" lon="17.8427683">
        <ele>24.1703</ele>
        <time>2014-06-10T18:41:19Z</time>
      </trkpt>
      <trkpt lat="59.8963946" lon="17.8427404">
        <ele>23.6896</ele>
        <time>2014-06-10T18:41:20Z</time>
      </trkpt>
      <trkpt lat="59.896291" lon="17.8427148">
        <ele>23.6896</ele>
        <time>2014-06-10T18:41:21Z</time>
      </trkpt>
      <trkpt lat="59.8961895" lon="17.8426947">
        <ele>23.6896</ele>
        <time>2014-06-10T18:41:22Z</time>
      </trkpt>
      <trkpt lat="59.8960875" lon="17.8426785">
        <ele>24.1703</ele>
        <time>2014-06-10T18:41:23Z</time>
      </trkpt>
      <trkpt lat="59.8959939" lon="17.8426719">
        <ele>24.1703</ele>
        <time>2014-06-10T18:41:24Z</time>
      </trkpt>
      <trkpt lat="59.895911" lon="17.8426669">
        <ele>24.1703</ele>
        <time>2014-06-10T18:41:25Z</time>
      </trkpt>
      <trkpt lat="59.8958343" lon="17.8426668">
        <ele>23.6896</ele>
        <time>2014-06-10T18:41:26Z</time>
      </trkpt>
      <trkpt lat="59.8957637" lon="17.8426691">
        <ele>23.209</ele>
        <time>2014-06-10T18:41:27Z</time>
      </trkpt>
      <trkpt lat="59.8956915" lon="17.8426833">
        <ele>22.7283</ele>
        <time>2014-06-10T18:41:28Z</time>
      </trkpt>
      <trkpt lat="59.8956107" lon="17.8427152">
        <ele>22.7283</ele>
        <time>2014-06-10T18:41:29Z</time>
      </trkpt>
      <trkpt lat="59.8955219" lon="17.8427661">
        <ele>22.7283</ele>
        <time>2014-06-10T18:41:30Z</time>
      </trkpt>
      <trkpt lat="59.895426" lon="17.8428335">
        <ele>22.7283</ele>
        <time>2014-06-10T18:41:31Z</time>
      </trkpt>
      <trkpt lat="59.8953313" lon="17.8428921">
        <ele>22.7283</ele>
        <time>2014-06-10T18:41:32Z</time>
      </trkpt>
      <trkpt lat="59.8952293" lon="17.8429703">
        <ele>22.7283</ele>
        <time>2014-06-10T18:41:33Z</time>
      </trkpt>
      <trkpt lat="59.895134" lon="17.8430262">
        <ele>22.7283</ele>
        <time>2014-06-10T18:41:34Z</time>
      </trkpt>
      <trkpt lat="59.895038" lon="17.8430708">
        <ele>22.2476</ele>
        <time>2014-06-10T18:41:35Z</time>
      </trkpt>
      <trkpt lat="59.8949402" lon="17.8431071">
        <ele>22.7283</ele>
        <time>2014-06-10T18:41:36Z</time>
      </trkpt>
      <trkpt lat="59.8948424" lon="17.8431138">
        <ele>22.7283</ele>
        <time>2014-06-10T18:41:37Z</time>
      </trkpt>
      <trkpt lat="59.8947455" lon="17.8431128">
        <ele>22.7283</ele>
        <time>2014-06-10T18:41:38Z</time>
      </trkpt>
      <trkpt lat="59.8946657" lon="17.8430753">
        <ele>23.209</ele>
        <time>2014-06-10T18:41:39Z</time>
      </trkpt>
      <trkpt lat="59.8945928" lon="17.8430303">
        <ele>22.7283</ele>
        <time>2014-06-10T18:41:40Z</time>
      </trkpt>
      <trkpt lat="59.8945274" lon="17.8429667">
        <ele>22.7283</ele>
        <time>2014-06-10T18:41:41Z</time>
      </trkpt>
      <trkpt lat="59.8944625" lon="17.8429024">
        <ele>22.2476</ele>
        <time>2014-06-10T18:41:42Z</time>
      </trkpt>
      <trkpt lat="59.8944031" lon="17.8428377">
        <ele>21.767</ele>
        <time>2014-06-10T18:41:43Z</time>
      </trkpt>
      <trkpt lat="59.8943332" lon="17.8427937">
        <ele>21.767</ele>
        <time>2014-06-10T18:41:44Z</time>
      </trkpt>
      <trkpt lat="59.89426" lon="17.842761">
        <ele>21.767</ele>
        <time>2014-06-10T18:41:45Z</time>
      </trkpt>
      <trkpt lat="59.8941915" lon="17.8427206">
        <ele>21.2864</ele>
        <time>2014-06-10T18:41:46Z</time>
      </trkpt>
      <trkpt lat="59.8941257" lon="17.8426781">
        <ele>20.325</ele>
        <time>2014-06-10T18:41:47Z</time>
      </trkpt>
      <trkpt lat="59.8940617" lon="17.8426284">
        <ele>19.3638</ele>
        <time>2014-06-10T18:41:48Z</time>
      </trkpt>
      <trkpt lat="59.8939884" lon="17.8425977">
        <ele>17.9218</ele>
        <time>2014-06-10T18:41:49Z</time>
      </trkpt>
      <trkpt lat="59.893919" lon="17.8425578">
        <ele>16.9604</ele>
        <time>2014-06-10T18:41:50Z</time>
      </trkpt>
      <trkpt lat="59.893831" lon="17.8425703">
        <ele>15.999</ele>
        <time>2014-06-10T18:41:51Z</time>
      </trkpt>
      <trkpt lat="59.8937237" lon="17.8426355">
        <ele>15.999</ele>
        <time>2014-06-10T18:41:52Z</time>
      </trkpt>
      <trkpt lat="59.8936297" lon="17.8426699">
        <ele>14.557</ele>
        <time>2014-06-10T18:41:53Z</time>
      </trkpt>
      <trkpt lat="59.8935411" lon="17.8426886">
        <ele>13.1151</ele>
        <time>2014-06-10T18:41:54Z</time>
      </trkpt>
      <trkpt lat="59.8934551" lon="17.8426956">
        <ele>12.6344</ele>
        <time>2014-06-10T18:41:55Z</time>
      </trkpt>
      <trkpt lat="59.8933716" lon="17.8426899">
        <ele>11.6732</ele>
        <time>2014-06-10T18:41:56Z</time>
      </trkpt>
      <trkpt lat="59.8932754" lon="17.8427083">
        <ele>12.6344</ele>
        <time>2014-06-10T18:41:57Z</time>
      </trkpt>
      <trkpt lat="59.8931832" lon="17.8427139">
        <ele>13.5958</ele>
        <time>2014-06-10T18:41:58Z</time>
      </trkpt>
      <trkpt lat="59.8930988" lon="17.8427046">
        <ele>15.0377</ele>
        <time>2014-06-10T18:41:59Z</time>
      </trkpt>
      <trkpt lat="59.892988" lon="17.84271">
        <ele>15.999</ele>
        <time>2014-06-10T18:42:00Z</time>
      </trkpt>
      <trkpt lat="59.8929164" lon="17.842675">
        <ele>17.4412</ele>
        <time>2014-06-10T18:42:01Z</time>
      </trkpt>
      <trkpt lat="59.8928462" lon="17.8426424">
        <ele>18.8831</ele>
        <time>2014-06-10T18:42:02Z</time>
      </trkpt>
      <trkpt lat="59.8927786" lon="17.8426178">
        <ele>19.3638</ele>
        <time>2014-06-10T18:42:03Z</time>
      </trkpt>
      <trkpt lat="59.8927152" lon="17.8425875">
        <ele>19.8444</ele>
        <time>2014-06-10T18:42:04Z</time>
      </trkpt>
      <trkpt lat="59.8926512" lon="17.8425523">
        <ele>20.8057</ele>
        <time>2014-06-10T18:42:05Z</time>
      </trkpt>
      <trkpt lat="59.8925848" lon="17.8425268">
        <ele>21.767</ele>
        <time>2014-06-10T18:42:06Z</time>
      </trkpt>
      <trkpt lat="59.892518" lon="17.8425016">
        <ele>22.2476</ele>
        <time>2014-06-10T18:42:07Z</time>
      </trkpt>
      <trkpt lat="59.8924515" lon="17.8424759">
        <ele>22.7283</ele>
        <time>2014-06-10T18:42:08Z</time>
      </trkpt>
      <trkpt lat="59.8923854" lon="17.8424454">
        <ele>23.209</ele>
        <time>2014-06-10T18:42:09Z</time>
      </trkpt>
      <trkpt lat="59.8923212" lon="17.8424129">
        <ele>23.209</ele>
        <time>2014-06-10T18:42:10Z</time>
      </trkpt>
      <trkpt lat="59.8922564" lon="17.8423814">
        <ele>23.6896</ele>
        <time>2014-06-10T18:42:11Z</time>
      </trkpt>
      <trkpt lat="59.892192" lon="17.8423531">
        <ele>24.1703</ele>
        <time>2014-06-10T18:42:12Z</time>
      </trkpt>
      <trkpt lat="59.892129" lon="17.8423259">
        <ele>24.651</ele>
        <time>2014-06-10T18:42:13Z</time>
      </trkpt>
      <trkpt lat="59.8920652" lon="17.842304">
        <ele>24.651</ele>
        <time>2014-06-10T18:42:14Z</time>
      </trkpt>
      <trkpt lat="59.8920016" lon="17.8422813">
        <ele>25.1317</ele>
        <time>2014-06-10T18:42:15Z</time>
      </trkpt>
      <trkpt lat="59.8919347" lon="17.8422609">
        <ele>25.1317</ele>
        <time>2014-06-10T18:42:16Z</time>
      </trkpt>
      <trkpt lat="59.891868" lon="17.8422424">
        <ele>25.6123</ele>
        <time>2014-06-10T18:42:17Z</time>
      </trkpt>
      <trkpt lat="59.8918026" lon="17.8422257">
        <ele>25.6123</ele>
        <time>2014-06-10T18:42:18Z</time>
      </trkpt>
      <trkpt lat="59.8917385" lon="17.8422109">
        <ele>25.6123</ele>
        <time>2014-06-10T18:42:19Z</time>
      </trkpt>
      <trkpt lat="59.8916783" lon="17.8421875">
        <ele>25.1317</ele>
        <time>2014-06-10T18:42:20Z</time>
      </trkpt>
      <trkpt lat="59.8916185" lon="17.8421463">
        <ele>25.1317</ele>
        <time>2014-06-10T18:42:21Z</time>
      </trkpt>
      <trkpt lat="59.891556" lon="17.8421154">
        <ele>25.1317</ele>
        <time>2014-06-10T18:42:22Z</time>
      </trkpt>
      <trkpt lat="59.8914878" lon="17.8420954">
        <ele>25.6123</ele>
        <time>2014-06-10T18:42:23Z</time>
      </trkpt>
      <trkpt lat="59.8914199" lon="17.8420664">
        <ele>25.6123</ele>
        <time>2014-06-10T18:42:24Z</time>
      </trkpt>
      <trkpt lat="59.8913515" lon="17.8420332">
        <ele>25.6123</ele>
        <time>2014-06-10T18:42:25Z</time>
      </trkpt>
      <trkpt lat="59.8912834" lon="17.841998">
        <ele>25.6123</ele>
        <time>2014-06-10T18:42:26Z</time>
      </trkpt>
      <trkpt lat="59.8912145" lon="17.8419519">
        <ele>26.0929</ele>
        <time>2014-06-10T18:42:27Z</time>
      </trkpt>
      <trkpt lat="59.8911453" lon="17.8418984">
        <ele>26.5736</ele>
        <time>2014-06-10T18:42:28Z</time>
      </trkpt>
      <trkpt lat="59.8910762" lon="17.8418416">
        <ele>26.5736</ele>
        <time>2014-06-10T18:42:29Z</time>
      </trkpt>
      <trkpt lat="59.8910085" lon="17.8417807">
        <ele>27.0543</ele>
        <time>2014-06-10T18:42:30Z</time>
      </trkpt>
      <trkpt lat="59.8909421" lon="17.8417146">
        <ele>27.0543</ele>
        <time>2014-06-10T18:42:31Z</time>
      </trkpt>
      <trkpt lat="59.890878" lon="17.8416401">
        <ele>27.0543</ele>
        <time>2014-06-10T18:42:32Z</time>
      </trkpt>
      <trkpt lat="59.8908148" lon="17.8415583">
        <ele>27.5349</ele>
        <time>2014-06-10T18:42:33Z</time>
      </trkpt>
      <trkpt lat="59.8907531" lon="17.8414716">
        <ele>27.5349</ele>
        <time>2014-06-10T18:42:34Z</time>
      </trkpt>
      <trkpt lat="59.8906936" lon="17.841381">
        <ele>27.5349</ele>
        <time>2014-06-10T18:42:35Z</time>
      </trkpt>
      <trkpt lat="59.8906356" lon="17.8412882">
        <ele>27.5349</ele>
        <time>2014-06-10T18:42:36Z</time>
      </trkpt>
      <trkpt lat="59.8905782" lon="17.8411949">
        <ele>27.5349</ele>
        <time>2014-06-10T18:42:37Z</time>
      </trkpt>
      <trkpt lat="59.8905217" lon="17.8411001">
        <ele>27.5349</ele>
        <time>2014-06-10T18:42:38Z</time>
      </trkpt>
      <trkpt lat="59.8904635" lon="17.8410071">
        <ele>27.5349</ele>
        <time>2014-06-10T18:42:39Z</time>
      </trkpt>
      <trkpt lat="59.8904023" lon="17.8409185">
        <ele>27.5349</ele>
        <time>2014-06-10T18:42:40Z</time>
      </trkpt>
      <trkpt lat="59.8903358" lon="17.8408418">
        <ele>28.0155</ele>
        <time>2014-06-10T18:42:41Z</time>
      </trkpt>
      <trkpt lat="59.8902636" lon="17.8407893">
        <ele>28.0155</ele>
        <time>2014-06-10T18:42:42Z</time>
      </trkpt>
      <trkpt lat="59.8901868" lon="17.8407699">
        <ele>28.0155</ele>
        <time>2014-06-10T18:42:43Z</time>
      </trkpt>
      <trkpt lat="59.8901101" lon="17.8407899">
        <ele>28.0155</ele>
        <time>2014-06-10T18:42:44Z</time>
      </trkpt>
      <trkpt lat="59.8900431" lon="17.8408449">
        <ele>28.0155</ele>
        <time>2014-06-10T18:42:45Z</time>
      </trkpt>
      <trkpt lat="59.8899889" lon="17.8409805">
        <ele>28.0155</ele>
        <time>2014-06-10T18:42:46Z</time>
      </trkpt>
      <trkpt lat="59.8899425" lon="17.8411192">
        <ele>28.0155</ele>
        <time>2014-06-10T18:42:47Z</time>
      </trkpt>
      <trkpt lat="59.8899031" lon="17.841278">
        <ele>28.4962</ele>
        <time>2014-06-10T18:42:48Z</time>
      </trkpt>
      <trkpt lat="59.8898663" lon="17.8414344">
        <ele>28.9769</ele>
        <time>2014-06-10T18:42:49Z</time>
      </trkpt>
      <trkpt lat="59.8898317" lon="17.8416077">
        <ele>29.4575</ele>
        <time>2014-06-10T18:42:50Z</time>
      </trkpt>
      <trkpt lat="59.8898109" lon="17.8417721">
        <ele>29.9381</ele>
        <time>2014-06-10T18:42:51Z</time>
      </trkpt>
      <trkpt lat="59.889797" lon="17.8419341">
        <ele>29.9381</ele>
        <time>2014-06-10T18:42:52Z</time>
      </trkpt>
      <trkpt lat="59.8897929" lon="17.8420957">
        <ele>29.9381</ele>
        <time>2014-06-10T18:42:53Z</time>
      </trkpt>
      <trkpt lat="59.8897846" lon="17.8422518">
        <ele>29.9381</ele>
        <time>2014-06-10T18:42:54Z</time>
      </trkpt>
      <trkpt lat="59.8897732" lon="17.8424129">
        <ele>29.9381</ele>
        <time>2014-06-10T18:42:55Z</time>
      </trkpt>
      <trkpt lat="59.8897669" lon="17.8425707">
        <ele>29.4575</ele>
        <time>2014-06-10T18:42:56Z</time>
      </trkpt>
      <trkpt lat="59.88976" lon="17.8427328">
        <ele>29.4575</ele>
        <time>2014-06-10T18:42:57Z</time>
      </trkpt>
      <trkpt lat="59.8897459" lon="17.8428961">
        <ele>28.9769</ele>
        <time>2014-06-10T18:42:58Z</time>
      </trkpt>
      <trkpt lat="59.8897201" lon="17.8430557">
        <ele>28.4962</ele>
        <time>2014-06-10T18:42:59Z</time>
      </trkpt>
      <trkpt lat="59.8896771" lon="17.8432013">
        <ele>28.4962</ele>
        <time>2014-06-10T18:43:00Z</time>
      </trkpt>
      <trkpt lat="59.8896015" lon="17.843304">
        <ele>28.0155</ele>
        <time>2014-06-10T18:43:01Z</time>
      </trkpt>
      <trkpt lat="59.8895198" lon="17.8433863">
        <ele>28.0155</ele>
        <time>2014-06-10T18:43:02Z</time>
      </trkpt>
      <trkpt lat="59.8894255" lon="17.8434106">
        <ele>27.5349</ele>
        <time>2014-06-10T18:43:03Z</time>
      </trkpt>
      <trkpt lat="59.889328" lon="17.8433982">
        <ele>27.0543</ele>
        <time>2014-06-10T18:43:04Z</time>
      </trkpt>
      <trkpt lat="59.8892398" lon="17.8433567">
        <ele>27.0543</ele>
        <time>2014-06-10T18:43:05Z</time>
      </trkpt>
      <trkpt lat="59.8891655" lon="17.8432998">
        <ele>26.5736</ele>
        <time>2014-06-10T18:43:06Z</time>
      </trkpt>
      <trkpt lat="59.8890953" lon="17.8432282">
        <ele>26.5736</ele>
        <time>2014-06-10T18:43:07Z</time>
      </trkpt>
      <trkpt lat="59.8890209" lon="17.8431628">
        <ele>26.0929</ele>
        <time>2014-06-10T18:43:08Z</time>
      </trkpt>
      <trkpt lat="59.8889437" lon="17.8431107">
        <ele>26.0929</ele>
        <time>2014-06-10T18:43:09Z</time>
      </trkpt>
      <trkpt lat="59.8888666" lon="17.8430752">
        <ele>25.6123</ele>
        <time>2014-06-10T18:43:10Z</time>
      </trkpt>
      <trkpt lat="59.8887873" lon="17.84305">
        <ele>25.6123</ele>
        <time>2014-06-10T18:43:11Z</time>
      </trkpt>
      <trkpt lat="59.8887117" lon="17.8430229">
        <ele>25.1317</ele>
        <time>2014-06-10T18:43:12Z</time>
      </trkpt>
      <trkpt lat="59.888638" lon="17.8429825">
        <ele>24.651</ele>
        <time>2014-06-10T18:43:13Z</time>
      </trkpt>
      <trkpt lat="59.8885687" lon="17.8429247">
        <ele>24.1703</ele>
        <time>2014-06-10T18:43:14Z</time>
      </trkpt>
      <trkpt lat="59.8884863" lon="17.8428889">
        <ele>24.1703</ele>
        <time>2014-06-10T18:43:15Z</time>
      </trkpt>
      <trkpt lat="59.8883967" lon="17.8428584">
        <ele>24.1703</ele>
        <time>2014-06-10T18:43:16Z</time>
      </trkpt>
      <trkpt lat="59.8882957" lon="17.8428364">
        <ele>24.651</ele>
        <time>2014-06-10T18:43:17Z</time>
      </trkpt>
      <trkpt lat="59.888203" lon="17.8427898">
        <ele>25.1317</ele>
        <time>2014-06-10T18:43:18Z</time>
      </trkpt>
      <trkpt lat="59.888115" lon="17.8427278">
        <ele>25.1317</ele>
        <time>2014-06-10T18:43:19Z</time>
      </trkpt>
      <trkpt lat="59.8880294" lon="17.8426557">
        <ele>25.6123</ele>
        <time>2014-06-10T18:43:20Z</time>
      </trkpt>
      <trkpt lat="59.8879446" lon="17.8425774">
        <ele>25.6123</ele>
        <time>2014-06-10T18:43:21Z</time>
      </trkpt>
      <trkpt lat="59.8878611" lon="17.8424932">
        <ele>25.6123</ele>
        <time>2014-06-10T18:43:22Z</time>
      </trkpt>
      <trkpt lat="59.8877798" lon="17.842401">
        <ele>25.6123</ele>
        <time>2014-06-10T18:43:23Z</time>
      </trkpt>
      <trkpt lat="59.8877008" lon="17.8423014">
        <ele>25.6123</ele>
        <time>2014-06-10T18:43:24Z</time>
      </trkpt>
      <trkpt lat="59.8876249" lon="17.8421944">
        <ele>25.6123</ele>
        <time>2014-06-10T18:43:25Z</time>
      </trkpt>
      <trkpt lat="59.8875524" lon="17.8420818">
        <ele>26.0929</ele>
        <time>2014-06-10T18:43:26Z</time>
      </trkpt>
      <trkpt lat="59.8874851" lon="17.8419637">
        <ele>26.5736</ele>
        <time>2014-06-10T18:43:27Z</time>
      </trkpt>
      <trkpt lat="59.8874261" lon="17.8418372">
        <ele>26.5736</ele>
        <time>2014-06-10T18:43:28Z</time>
      </trkpt>
      <trkpt lat="59.8873747" lon="17.8417051">
        <ele>26.5736</ele>
        <time>2014-06-10T18:43:29Z</time>
      </trkpt>
      <trkpt lat="59.887325" lon="17.8415707">
        <ele>26.5736</ele>
        <time>2014-06-10T18:43:30Z</time>
      </trkpt>
      <trkpt lat="59.8872706" lon="17.8414386">
        <ele>26.5736</ele>
        <time>2014-06-10T18:43:31Z</time>
      </trkpt>
      <trkpt lat="59.8872079" lon="17.8413183">
        <ele>26.0929</ele>
        <time>2014-06-10T18:43:32Z</time>
      </trkpt>
      <trkpt lat="59.8871369" lon="17.841213">
        <ele>26.0929</ele>
        <time>2014-06-10T18:43:33Z</time>
      </trkpt>
      <trkpt lat="59.8870587" lon="17.8411286">
        <ele>26.0929</ele>
        <time>2014-06-10T18:43:34Z</time>
      </trkpt>
      <trkpt lat="59.8869753" lon="17.8410645">
        <ele>26.5736</ele>
        <time>2014-06-10T18:43:35Z</time>
      </trkpt>
      <trkpt lat="59.8868753" lon="17.8410329">
        <ele>26.5736</ele>
        <time>2014-06-10T18:43:36Z</time>
      </trkpt>
      <trkpt lat="59.8867804" lon="17.8410256">
        <ele>27.0543</ele>
        <time>2014-06-10T18:43:37Z</time>
      </trkpt>
      <trkpt lat="59.8866846" lon="17.8410488">
        <ele>27.0543</ele>
        <time>2014-06-10T18:43:38Z</time>
      </trkpt>
      <trkpt lat="59.8866006" lon="17.8410997">
        <ele>27.0543</ele>
        <time>2014-06-10T18:43:39Z</time>
      </trkpt>
      <trkpt lat="59.8865122" lon="17.8411365">
        <ele>27.0543</ele>
        <time>2014-06-10T18:43:40Z</time>
      </trkpt>
      <trkpt lat="59.8864286" lon="17.8411873">
        <ele>27.0543</ele>
        <time>2014-06-10T18:43:41Z</time>
      </trkpt>
      <trkpt lat="59.8863409" lon="17.8412412">
        <ele>26.5736</ele>
        <time>2014-06-10T18:43:42Z</time>
      </trkpt>
      <trkpt lat="59.8862548" lon="17.8412815">
        <ele>27.0543</ele>
        <time>2014-06-10T18:43:43Z</time>
      </trkpt>
      <trkpt lat="59.8861662" lon="17.841323">
        <ele>26.5736</ele>
        <time>2014-06-10T18:43:44Z</time>
      </trkpt>
      <trkpt lat="59.8860793" lon="17.841353">
        <ele>26.5736</ele>
        <time>2014-06-10T18:43:45Z</time>
      </trkpt>
      <trkpt lat="59.885989" lon="17.8413772">
        <ele>26.0929</ele>
        <time>2014-06-10T18:43:46Z</time>
      </trkpt>
      <trkpt lat="59.8859" lon="17.841387">
        <ele>25.6123</ele>
        <time>2014-06-10T18:43:47Z</time>
      </trkpt>
      <trkpt lat="59.8858115" lon="17.8413951">
        <ele>26.0929</ele>
        <time>2014-06-10T18:43:48Z</time>
      </trkpt>
      <trkpt lat="59.8857224" lon="17.8414033">
        <ele>26.5736</ele>
        <time>2014-06-10T18:43:49Z</time>
      </trkpt>
      <trkpt lat="59.8856333" lon="17.8414125">
        <ele>26.0929</ele>
        <time>2014-06-10T18:43:50Z</time>
      </trkpt>
      <trkpt lat="59.8855446" lon="17.8414233">
        <ele>26.0929</ele>
        <time>2014-06-10T18:43:51Z</time>
      </trkpt>
      <trkpt lat="59.8854566" lon="17.8414334">
        <ele>25.6123</ele>
        <time>2014-06-10T18:43:52Z</time>
      </trkpt>
      <trkpt lat="59.8853703" lon="17.8414391">
        <ele>25.6123</ele>
        <time>2014-06-10T18:43:53Z</time>
      </trkpt>
      <trkpt lat="59.8852815" lon="17.8414478">
        <ele>25.1317</ele>
        <time>2014-06-10T18:43:54Z</time>
      </trkpt>
      <trkpt lat="59.8851921" lon="17.8414545">
        <ele>24.651</ele>
        <time>2014-06-10T18:43:55Z</time>
      </trkpt>
      <trkpt lat="59.8851013" lon="17.8414608">
        <ele>24.651</ele>
        <time>2014-06-10T18:43:56Z</time>
      </trkpt>
      <trkpt lat="59.8850082" lon="17.8414618">
        <ele>24.1703</ele>
        <time>2014-06-10T18:43:57Z</time>
      </trkpt>
      <trkpt lat="59.8849134" lon="17.8414509">
        <ele>24.1703</ele>
        <time>2014-06-10T18:43:58Z</time>
      </trkpt>
      <trkpt lat="59.8848191" lon="17.8414288">
        <ele>24.1703</ele>
        <time>2014-06-10T18:43:59Z</time>
      </trkpt>
      <trkpt lat="59.8847256" lon="17.8413946">
        <ele>24.1703</ele>
        <time>2014-06-10T18:44:00Z</time>
      </trkpt>
      <trkpt lat="59.884634" lon="17.8413489">
        <ele>24.1703</ele>
        <time>2014-06-10T18:44:01Z</time>
      </trkpt>
      <trkpt lat="59.8845451" lon="17.8412918">
        <ele>24.651</ele>
        <time>2014-06-10T18:44:02Z</time>
      </trkpt>
      <trkpt lat="59.8844588" lon="17.8412236">
        <ele>24.651</ele>
        <time>2014-06-10T18:44:03Z</time>
      </trkpt>
      <trkpt lat="59.8843749" lon="17.8411467">
        <ele>24.651</ele>
        <time>2014-06-10T18:44:04Z</time>
      </trkpt>
      <trkpt lat="59.8842932" lon="17.8410633">
        <ele>24.651</ele>
        <time>2014-06-10T18:44:05Z</time>
      </trkpt>
      <trkpt lat="59.8842138" lon="17.8409749">
        <ele>24.651</ele>
        <time>2014-06-10T18:44:06Z</time>
      </trkpt>
      <trkpt lat="59.8841361" lon="17.8408812">
        <ele>24.651</ele>
        <time>2014-06-10T18:44:07Z</time>
      </trkpt>
      <trkpt lat="59.88406" lon="17.8407841">
        <ele>24.651</ele>
        <time>2014-06-10T18:44:08Z</time>
      </trkpt>
      <trkpt lat="59.8839844" lon="17.8406864">
        <ele>25.1317</ele>
        <time>2014-06-10T18:44:09Z</time>
      </trkpt>
      <trkpt lat="59.8839106" lon="17.8405893">
        <ele>25.1317</ele>
        <time>2014-06-10T18:44:10Z</time>
      </trkpt>
      <trkpt lat="59.8838382" lon="17.8404927">
        <ele>25.1317</ele>
        <time>2014-06-10T18:44:11Z</time>
      </trkpt>
      <trkpt lat="59.8837668" lon="17.8403943">
        <ele>25.6123</ele>
        <time>2014-06-10T18:44:12Z</time>
      </trkpt>
      <trkpt lat="59.8836958" lon="17.8402978">
        <ele>25.6123</ele>
        <time>2014-06-10T18:44:13Z</time>
      </trkpt>
      <trkpt lat="59.8836259" lon="17.8402027">
        <ele>26.0929</ele>
        <time>2014-06-10T18:44:14Z</time>
      </trkpt>
      <trkpt lat="59.8835571" lon="17.8401087">
        <ele>26.0929</ele>
        <time>2014-06-10T18:44:15Z</time>
      </trkpt>
      <trkpt lat="59.8834896" lon="17.8400145">
        <ele>26.5736</ele>
        <time>2014-06-10T18:44:16Z</time>
      </trkpt>
      <trkpt lat="59.8834223" lon="17.8399209">
        <ele>26.5736</ele>
        <time>2014-06-10T18:44:17Z</time>
      </trkpt>
      <trkpt lat="59.8833554" lon="17.8398287">
        <ele>27.0543</ele>
        <time>2014-06-10T18:44:18Z</time>
      </trkpt>
      <trkpt lat="59.8832889" lon="17.8397384">
        <ele>27.5349</ele>
        <time>2014-06-10T18:44:19Z</time>
      </trkpt>
      <trkpt lat="59.8832229" lon="17.8396524">
        <ele>28.0155</ele>
        <time>2014-06-10T18:44:20Z</time>
      </trkpt>
      <trkpt lat="59.8831596" lon="17.8395676">
        <ele>28.4962</ele>
        <time>2014-06-10T18:44:21Z</time>
      </trkpt>
      <trkpt lat="59.883099" lon="17.8394841">
        <ele>28.9769</ele>
        <time>2014-06-10T18:44:22Z</time>
      </trkpt>
      <trkpt lat="59.883039" lon="17.8394059">
        <ele>29.4575</ele>
        <time>2014-06-10T18:44:23Z</time>
      </trkpt>
      <trkpt lat="59.88298" lon="17.83933">
        <ele>29.9381</ele>
        <time>2014-06-10T18:44:24Z</time>
      </trkpt>
      <trkpt lat="59.8829224" lon="17.8392575">
        <ele>30.4188</ele>
        <time>2014-06-10T18:44:25Z</time>
      </trkpt>
      <trkpt lat="59.8828637" lon="17.8391923">
        <ele>30.8995</ele>
        <time>2014-06-10T18:44:26Z</time>
      </trkpt>
      <trkpt lat="59.8828016" lon="17.8391328">
        <ele>31.3801</ele>
        <time>2014-06-10T18:44:27Z</time>
      </trkpt>
      <trkpt lat="59.8827448" lon="17.8390929">
        <ele>31.3801</ele>
        <time>2014-06-10T18:44:28Z</time>
      </trkpt>
      <trkpt lat="59.8826873" lon="17.8390609">
        <ele>31.3801</ele>
        <time>2014-06-10T18:44:29Z</time>
      </trkpt>
      <trkpt lat="59.8826271" lon="17.8390343">
        <ele>31.3801</ele>
        <time>2014-06-10T18:44:30Z</time>
      </trkpt>
      <trkpt lat="59.8825632" lon="17.839007">
        <ele>30.8995</ele>
        <time>2014-06-10T18:44:31Z</time>
      </trkpt>
      <trkpt lat="59.882494" lon="17.8389804">
        <ele>30.4188</ele>
        <time>2014-06-10T18:44:32Z</time>
      </trkpt>
      <trkpt lat="59.8824189" lon="17.838956">
        <ele>29.9381</ele>
        <time>2014-06-10T18:44:33Z</time>
      </trkpt>
      <trkpt lat="59.8823391" lon="17.8389308">
        <ele>28.9769</ele>
        <time>2014-06-10T18:44:34Z</time>
      </trkpt>
      <trkpt lat="59.8822564" lon="17.8388977">
        <ele>28.4962</ele>
        <time>2014-06-10T18:44:35Z</time>
      </trkpt>
      <trkpt lat="59.8821722" lon="17.8388498">
        <ele>28.0155</ele>
        <time>2014-06-10T18:44:36Z</time>
      </trkpt>
      <trkpt lat="59.8820868" lon="17.8387827">
        <ele>27.5349</ele>
        <time>2014-06-10T18:44:37Z</time>
      </trkpt>
      <trkpt lat="59.8820041" lon="17.8386978">
        <ele>27.0543</ele>
        <time>2014-06-10T18:44:38Z</time>
      </trkpt>
      <trkpt lat="59.8819267" lon="17.8385989">
        <ele>27.0543</ele>
        <time>2014-06-10T18:44:39Z</time>
      </trkpt>
      <trkpt lat="59.8818532" lon="17.8384905">
        <ele>26.5736</ele>
        <time>2014-06-10T18:44:40Z</time>
      </trkpt>
      <trkpt lat="59.8817815" lon="17.8383802">
        <ele>26.0929</ele>
        <time>2014-06-10T18:44:41Z</time>
      </trkpt>
      <trkpt lat="59.8817118" lon="17.8382712">
        <ele>26.0929</ele>
        <time>2014-06-10T18:44:42Z</time>
      </trkpt>
      <trkpt lat="59.8816455" lon="17.8381576">
        <ele>25.6123</ele>
        <time>2014-06-10T18:44:43Z</time>
      </trkpt>
      <trkpt lat="59.8815787" lon="17.8380476">
        <ele>25.6123</ele>
        <time>2014-06-10T18:44:44Z</time>
      </trkpt>
      <trkpt lat="59.8815103" lon="17.8379387">
        <ele>25.6123</ele>
        <time>2014-06-10T18:44:45Z</time>
      </trkpt>
      <trkpt lat="59.8814425" lon="17.8378342">
        <ele>25.6123</ele>
        <time>2014-06-10T18:44:46Z</time>
      </trkpt>
      <trkpt lat="59.8813739" lon="17.8377358">
        <ele>25.6123</ele>
        <time>2014-06-10T18:44:47Z</time>
      </trkpt>
      <trkpt lat="59.8813047" lon="17.8376399">
        <ele>25.6123</ele>
        <time>2014-06-10T18:44:48Z</time>
      </trkpt>
      <trkpt lat="59.8812369" lon="17.8375425">
        <ele>25.6123</ele>
        <time>2014-06-10T18:44:49Z</time>
      </trkpt>
      <trkpt lat="59.8811704" lon="17.8374447">
        <ele>26.0929</ele>
        <time>2014-06-10T18:44:50Z</time>
      </trkpt>
      <trkpt lat="59.8811062" lon="17.8373457">
        <ele>26.0929</ele>
        <time>2014-06-10T18:44:51Z</time>
      </trkpt>
      <trkpt lat="59.8810441" lon="17.8372452">
        <ele>25.6123</ele>
        <time>2014-06-10T18:44:52Z</time>
      </trkpt>
      <trkpt lat="59.8809829" lon="17.8371441">
        <ele>25.6123</ele>
        <time>2014-06-10T18:44:53Z</time>
      </trkpt>
      <trkpt lat="59.8809219" lon="17.8370431">
        <ele>25.6123</ele>
        <time>2014-06-10T18:44:54Z</time>
      </trkpt>
      <trkpt lat="59.8808628" lon="17.8369416">
        <ele>25.6123</ele>
        <time>2014-06-10T18:44:55Z</time>
      </trkpt>
      <trkpt lat="59.8808031" lon="17.8368394">
        <ele>25.6123</ele>
        <time>2014-06-10T18:44:56Z</time>
      </trkpt>
      <trkpt lat="59.8807403" lon="17.8367389">
        <ele>25.6123</ele>
        <time>2014-06-10T18:44:57Z</time>
      </trkpt>
      <trkpt lat="59.8806754" lon="17.8366376">
        <ele>25.1317</ele>
        <time>2014-06-10T18:44:58Z</time>
      </trkpt>
      <trkpt lat="59.880609" lon="17.8365385">
        <ele>25.1317</ele>
        <time>2014-06-10T18:44:59Z</time>
      </trkpt>
      <trkpt lat="59.8805401" lon="17.8364419">
        <ele>25.1317</ele>
        <time>2014-06-10T18:45:00Z</time>
      </trkpt>
      <trkpt lat="59.8804687" lon="17.8363501">
        <ele>25.1317</ele>
        <time>2014-06-10T18:45:01Z</time>
      </trkpt>
      <trkpt lat="59.8803954" lon="17.8362637">
        <ele>25.1317</ele>
        <time>2014-06-10T18:45:02Z</time>
      </trkpt>
      <trkpt lat="59.8803211" lon="17.8361808">
        <ele>25.1317</ele>
        <time>2014-06-10T18:45:03Z</time>
      </trkpt>
      <trkpt lat="59.8802464" lon="17.836101">
        <ele>25.6123</ele>
        <time>2014-06-10T18:45:04Z</time>
      </trkpt>
      <trkpt lat="59.8801718" lon="17.8360253">
        <ele>26.0929</ele>
        <time>2014-06-10T18:45:05Z</time>
      </trkpt>
      <trkpt lat="59.8800978" lon="17.8359553">
        <ele>26.5736</ele>
        <time>2014-06-10T18:45:06Z</time>
      </trkpt>
      <trkpt lat="59.8800241" lon="17.8358937">
        <ele>26.5736</ele>
        <time>2014-06-10T18:45:07Z</time>
      </trkpt>
      <trkpt lat="59.8799506" lon="17.835843">
        <ele>27.0543</ele>
        <time>2014-06-10T18:45:08Z</time>
      </trkpt>
      <trkpt lat="59.8798775" lon="17.8358079">
        <ele>27.0543</ele>
        <time>2014-06-10T18:45:09Z</time>
      </trkpt>
      <trkpt lat="59.8798034" lon="17.8357876">
        <ele>27.0543</ele>
        <time>2014-06-10T18:45:10Z</time>
      </trkpt>
      <trkpt lat="59.8797269" lon="17.8357799">
        <ele>26.5736</ele>
        <time>2014-06-10T18:45:11Z</time>
      </trkpt>
      <trkpt lat="59.8796506" lon="17.8357798">
        <ele>26.0929</ele>
        <time>2014-06-10T18:45:12Z</time>
      </trkpt>
      <trkpt lat="59.879571" lon="17.835777">
        <ele>25.6123</ele>
        <time>2014-06-10T18:45:13Z</time>
      </trkpt>
      <trkpt lat="59.8794831" lon="17.8357714">
        <ele>25.1317</ele>
        <time>2014-06-10T18:45:14Z</time>
      </trkpt>
      <trkpt lat="59.8793937" lon="17.8357628">
        <ele>24.651</ele>
        <time>2014-06-10T18:45:15Z</time>
      </trkpt>
      <trkpt lat="59.8793055" lon="17.8357518">
        <ele>24.651</ele>
        <time>2014-06-10T18:45:16Z</time>
      </trkpt>
      <trkpt lat="59.8792206" lon="17.8357378">
        <ele>24.651</ele>
        <time>2014-06-10T18:45:17Z</time>
      </trkpt>
      <trkpt lat="59.8791395" lon="17.8357238">
        <ele>24.1703</ele>
        <time>2014-06-10T18:45:18Z</time>
      </trkpt>
      <trkpt lat="59.8790606" lon="17.8357037">
        <ele>23.6896</ele>
        <time>2014-06-10T18:45:19Z</time>
      </trkpt>
      <trkpt lat="59.878982" lon="17.8356762">
        <ele>23.6896</ele>
        <time>2014-06-10T18:45:20Z</time>
      </trkpt>
      <trkpt lat="59.8789011" lon="17.8356451">
        <ele>23.6896</ele>
        <time>2014-06-10T18:45:21Z</time>
      </trkpt>
      <trkpt lat="59.8788266" lon="17.8356089">
        <ele>23.6896</ele>
        <time>2014-06-10T18:45:22Z</time>
      </trkpt>
      <trkpt lat="59.8787566" lon="17.8355684">
        <ele>23.6896</ele>
        <time>2014-06-10T18:45:23Z</time>
      </trkpt>
      <trkpt lat="59.8786815" lon="17.8355212">
        <ele>23.6896</ele>
        <time>2014-06-10T18:45:24Z</time>
      </trkpt>
      <trkpt lat="59.8785944" lon="17.8354602">
        <ele>23.209</ele>
        <time>2014-06-10T18:45:25Z</time>
      </trkpt>
      <trkpt lat="59.8785095" lon="17.8353978">
        <ele>22.2476</ele>
        <time>2014-06-10T18:45:26Z</time>
      </trkpt>
      <trkpt lat="59.8784235" lon="17.8353307">
        <ele>22.2476</ele>
        <time>2014-06-10T18:45:27Z</time>
      </trkpt>
      <trkpt lat="59.8783385" lon="17.8352618">
        <ele>21.767</ele>
        <time>2014-06-10T18:45:28Z</time>
      </trkpt>
      <trkpt lat="59.8782589" lon="17.8351961">
        <ele>21.2864</ele>
        <time>2014-06-10T18:45:29Z</time>
      </trkpt>
      <trkpt lat="59.8781817" lon="17.8351297">
        <ele>20.8057</ele>
        <time>2014-06-10T18:45:30Z</time>
      </trkpt>
      <trkpt lat="59.8780883" lon="17.8350432">
        <ele>20.8057</ele>
        <time>2014-06-10T18:45:31Z</time>
      </trkpt>
      <trkpt lat="59.8780128" lon="17.8349629">
        <ele>21.2864</ele>
        <time>2014-06-10T18:45:32Z</time>
      </trkpt>
      <trkpt lat="59.8779417" lon="17.8348834">
        <ele>21.767</ele>
        <time>2014-06-10T18:45:33Z</time>
      </trkpt>
      <trkpt lat="59.8778742" lon="17.8348032">
        <ele>22.2476</ele>
        <time>2014-06-10T18:45:34Z</time>
      </trkpt>
      <trkpt lat="59.8778074" lon="17.8347251">
        <ele>22.2476</ele>
        <time>2014-06-10T18:45:35Z</time>
      </trkpt>
      <trkpt lat="59.8777418" lon="17.8346454">
        <ele>22.2476</ele>
        <time>2014-06-10T18:45:36Z</time>
      </trkpt>
      <trkpt lat="59.8776765" lon="17.8345649">
        <ele>22.2476</ele>
        <time>2014-06-10T18:45:37Z</time>
      </trkpt>
      <trkpt lat="59.8776117" lon="17.8344815">
        <ele>22.2476</ele>
        <time>2014-06-10T18:45:38Z</time>
      </trkpt>
      <trkpt lat="59.877547" lon="17.8343952">
        <ele>22.2476</ele>
        <time>2014-06-10T18:45:39Z</time>
      </trkpt>
      <trkpt lat="59.8774826" lon="17.8343112">
        <ele>22.2476</ele>
        <time>2014-06-10T18:45:40Z</time>
      </trkpt>
      <trkpt lat="59.8774169" lon="17.8342263">
        <ele>22.2476</ele>
        <time>2014-06-10T18:45:41Z</time>
      </trkpt>
      <trkpt lat="59.8773502" lon="17.8341424">
        <ele>22.2476</ele>
        <time>2014-06-10T18:45:42Z</time>
      </trkpt>
      <trkpt lat="59.8772835" lon="17.8340596">
        <ele>22.2476</ele>
        <time>2014-06-10T18:45:43Z</time>
      </trkpt>
      <trkpt lat="59.8772161" lon="17.8339807">
        <ele>22.2476</ele>
        <time>2014-06-10T18:45:44Z</time>
      </trkpt>
      <trkpt lat="59.8771399" lon="17.8339108">
        <ele>22.2476</ele>
        <time>2014-06-10T18:45:45Z</time>
      </trkpt>
      <trkpt lat="59.8770706" lon="17.8338384">
        <ele>22.2476</ele>
        <time>2014-06-10T18:45:46Z</time>
      </trkpt>
      <trkpt lat="59.8770005" lon="17.833772">
        <ele>22.7283</ele>
        <time>2014-06-10T18:45:47Z</time>
      </trkpt>
      <trkpt lat="59.876929" lon="17.8337129">
        <ele>22.7283</ele>
        <time>2014-06-10T18:45:48Z</time>
      </trkpt>
      <trkpt lat="59.8768574" lon="17.8336591">
        <ele>23.209</ele>
        <time>2014-06-10T18:45:49Z</time>
      </trkpt>
      <trkpt lat="59.8767864" lon="17.8336098">
        <ele>23.6896</ele>
        <time>2014-06-10T18:45:50Z</time>
      </trkpt>
      <trkpt lat="59.8767171" lon="17.833562">
        <ele>23.6896</ele>
        <time>2014-06-10T18:45:51Z</time>
      </trkpt>
      <trkpt lat="59.8766512" lon="17.8335182">
        <ele>24.1703</ele>
        <time>2014-06-10T18:45:52Z</time>
      </trkpt>
      <trkpt lat="59.876587" lon="17.8334804">
        <ele>24.651</ele>
        <time>2014-06-10T18:45:53Z</time>
      </trkpt>
      <trkpt lat="59.8765237" lon="17.833442">
        <ele>24.651</ele>
        <time>2014-06-10T18:45:54Z</time>
      </trkpt>
      <trkpt lat="59.8764597" lon="17.8333996">
        <ele>24.651</ele>
        <time>2014-06-10T18:45:55Z</time>
      </trkpt>
      <trkpt lat="59.8763934" lon="17.8333605">
        <ele>25.1317</ele>
        <time>2014-06-10T18:45:56Z</time>
      </trkpt>
      <trkpt lat="59.87633" lon="17.8333167">
        <ele>25.1317</ele>
        <time>2014-06-10T18:45:57Z</time>
      </trkpt>
      <trkpt lat="59.8762591" lon="17.8332685">
        <ele>25.1317</ele>
        <time>2014-06-10T18:45:58Z</time>
      </trkpt>
      <trkpt lat="59.8761805" lon="17.8332084">
        <ele>24.651</ele>
        <time>2014-06-10T18:45:59Z</time>
      </trkpt>
      <trkpt lat="59.8761026" lon="17.8331649">
        <ele>24.651</ele>
        <time>2014-06-10T18:46:00Z</time>
      </trkpt>
      <trkpt lat="59.8760292" lon="17.8331032">
        <ele>24.651</ele>
        <time>2014-06-10T18:46:01Z</time>
      </trkpt>
      <trkpt lat="59.8759597" lon="17.8330307">
        <ele>24.1703</ele>
        <time>2014-06-10T18:46:02Z</time>
      </trkpt>
      <trkpt lat="59.8758955" lon="17.832963">
        <ele>24.1703</ele>
        <time>2014-06-10T18:46:03Z</time>
      </trkpt>
      <trkpt lat="59.8758317" lon="17.8328913">
        <ele>23.6896</ele>
        <time>2014-06-10T18:46:04Z</time>
      </trkpt>
      <trkpt lat="59.8757686" lon="17.8328173">
        <ele>23.6896</ele>
        <time>2014-06-10T18:46:05Z</time>
      </trkpt>
      <trkpt lat="59.8757054" lon="17.8327443">
        <ele>23.6896</ele>
        <time>2014-06-10T18:46:06Z</time>
      </trkpt>
      <trkpt lat="59.8756407" lon="17.8326759">
        <ele>24.1703</ele>
        <time>2014-06-10T18:46:07Z</time>
      </trkpt>
      <trkpt lat="59.8755743" lon="17.8326157">
        <ele>24.1703</ele>
        <time>2014-06-10T18:46:08Z</time>
      </trkpt>
      <trkpt lat="59.8755054" lon="17.8325607">
        <ele>24.1703</ele>
        <time>2014-06-10T18:46:09Z</time>
      </trkpt>
      <trkpt lat="59.8754338" lon="17.8325116">
        <ele>24.1703</ele>
        <time>2014-06-10T18:46:10Z</time>
      </trkpt>
      <trkpt lat="59.8753583" lon="17.8324687">
        <ele>24.1703</ele>
        <time>2014-06-10T18:46:11Z</time>
      </trkpt>
      <trkpt lat="59.8752792" lon="17.8324335">
        <ele>24.1703</ele>
        <time>2014-06-10T18:46:12Z</time>
      </trkpt>
      <trkpt lat="59.8751989" lon="17.8324039">
        <ele>24.1703</ele>
        <time>2014-06-10T18:46:13Z</time>
      </trkpt>
      <trkpt lat="59.8751166" lon="17.8323794">
        <ele>24.1703</ele>
        <time>2014-06-10T18:46:14Z</time>
      </trkpt>
      <trkpt lat="59.8750341" lon="17.8323589">
        <ele>24.1703</ele>
        <time>2014-06-10T18:46:15Z</time>
      </trkpt>
      <trkpt lat="59.8749512" lon="17.8323422">
        <ele>24.1703</ele>
        <time>2014-06-10T18:46:16Z</time>
      </trkpt>
      <trkpt lat="59.8748672" lon="17.8323224">
        <ele>24.1703</ele>
        <time>2014-06-10T18:46:17Z</time>
      </trkpt>
      <trkpt lat="59.874784" lon="17.8322997">
        <ele>24.1703</ele>
        <time>2014-06-10T18:46:18Z</time>
      </trkpt>
      <trkpt lat="59.874702" lon="17.8322773">
        <ele>24.1703</ele>
        <time>2014-06-10T18:46:19Z</time>
      </trkpt>
      <trkpt lat="59.8746206" lon="17.8322556">
        <ele>24.651</ele>
        <time>2014-06-10T18:46:20Z</time>
      </trkpt>
      <trkpt lat="59.8745419" lon="17.8322292">
        <ele>24.651</ele>
        <time>2014-06-10T18:46:21Z</time>
      </trkpt>
      <trkpt lat="59.8744646" lon="17.8321987">
        <ele>24.651</ele>
        <time>2014-06-10T18:46:22Z</time>
      </trkpt>
      <trkpt lat="59.8743911" lon="17.8321589">
        <ele>24.651</ele>
        <time>2014-06-10T18:46:23Z</time>
      </trkpt>
      <trkpt lat="59.8743217" lon="17.8321077">
        <ele>24.651</ele>
        <time>2014-06-10T18:46:24Z</time>
      </trkpt>
      <trkpt lat="59.8742567" lon="17.8320463">
        <ele>24.651</ele>
        <time>2014-06-10T18:46:25Z</time>
      </trkpt>
      <trkpt lat="59.8741924" lon="17.831962">
        <ele>24.651</ele>
        <time>2014-06-10T18:46:26Z</time>
      </trkpt>
      <trkpt lat="59.8741277" lon="17.8318755">
        <ele>25.1317</ele>
        <time>2014-06-10T18:46:27Z</time>
      </trkpt>
      <trkpt lat="59.8740668" lon="17.8317926">
        <ele>25.1317</ele>
        <time>2014-06-10T18:46:28Z</time>
      </trkpt>
      <trkpt lat="59.8740054" lon="17.8317106">
        <ele>25.1317</ele>
        <time>2014-06-10T18:46:29Z</time>
      </trkpt>
      <trkpt lat="59.8739442" lon="17.8316259">
        <ele>25.1317</ele>
        <time>2014-06-10T18:46:30Z</time>
      </trkpt>
      <trkpt lat="59.8738816" lon="17.8315421">
        <ele>25.1317</ele>
        <time>2014-06-10T18:46:31Z</time>
      </trkpt>
      <trkpt lat="59.8738179" lon="17.8314606">
        <ele>25.1317</ele>
        <time>2014-06-10T18:46:32Z</time>
      </trkpt>
      <trkpt lat="59.8737526" lon="17.8313775">
        <ele>24.651</ele>
        <time>2014-06-10T18:46:33Z</time>
      </trkpt>
      <trkpt lat="59.8736858" lon="17.8312933">
        <ele>24.651</ele>
        <time>2014-06-10T18:46:34Z</time>
      </trkpt>
      <trkpt lat="59.8736162" lon="17.8312092">
        <ele>24.1703</ele>
        <time>2014-06-10T18:46:35Z</time>
      </trkpt>
      <trkpt lat="59.8735436" lon="17.8311258">
        <ele>23.6896</ele>
        <time>2014-06-10T18:46:36Z</time>
      </trkpt>
      <trkpt lat="59.873467" lon="17.8310456">
        <ele>23.209</ele>
        <time>2014-06-10T18:46:37Z</time>
      </trkpt>
      <trkpt lat="59.8733864" lon="17.8309711">
        <ele>23.209</ele>
        <time>2014-06-10T18:46:38Z</time>
      </trkpt>
      <trkpt lat="59.8733025" lon="17.8309022">
        <ele>22.7283</ele>
        <time>2014-06-10T18:46:39Z</time>
      </trkpt>
      <trkpt lat="59.8732123" lon="17.8308406">
        <ele>22.7283</ele>
        <time>2014-06-10T18:46:40Z</time>
      </trkpt>
      <trkpt lat="59.8731228" lon="17.8307818">
        <ele>22.2476</ele>
        <time>2014-06-10T18:46:41Z</time>
      </trkpt>
      <trkpt lat="59.8730321" lon="17.830728">
        <ele>22.2476</ele>
        <time>2014-06-10T18:46:42Z</time>
      </trkpt>
      <trkpt lat="59.8729401" lon="17.8306775">
        <ele>21.767</ele>
        <time>2014-06-10T18:46:43Z</time>
      </trkpt>
      <trkpt lat="59.8728471" lon="17.8306313">
        <ele>21.767</ele>
        <time>2014-06-10T18:46:44Z</time>
      </trkpt>
      <trkpt lat="59.8727528" lon="17.8305898">
        <ele>21.2864</ele>
        <time>2014-06-10T18:46:45Z</time>
      </trkpt>
      <trkpt lat="59.8726568" lon="17.8305485">
        <ele>20.8057</ele>
        <time>2014-06-10T18:46:46Z</time>
      </trkpt>
      <trkpt lat="59.8725591" lon="17.8304997">
        <ele>20.325</ele>
        <time>2014-06-10T18:46:47Z</time>
      </trkpt>
      <trkpt lat="59.8724602" lon="17.8304351">
        <ele>19.3638</ele>
        <time>2014-06-10T18:46:48Z</time>
      </trkpt>
      <trkpt lat="59.8723608" lon="17.8303542">
        <ele>18.8831</ele>
        <time>2014-06-10T18:46:49Z</time>
      </trkpt>
      <trkpt lat="59.8722607" lon="17.8302645">
        <ele>18.4023</ele>
        <time>2014-06-10T18:46:50Z</time>
      </trkpt>
      <trkpt lat="59.87216" lon="17.8301723">
        <ele>17.9218</ele>
        <time>2014-06-10T18:46:51Z</time>
      </trkpt>
      <trkpt lat="59.8720597" lon="17.8300787">
        <ele>17.4412</ele>
        <time>2014-06-10T18:46:52Z</time>
      </trkpt>
      <trkpt lat="59.8719597" lon="17.8299843">
        <ele>17.4412</ele>
        <time>2014-06-10T18:46:53Z</time>
      </trkpt>
      <trkpt lat="59.8718583" lon="17.829887">
        <ele>16.4797</ele>
        <time>2014-06-10T18:46:54Z</time>
      </trkpt>
      <trkpt lat="59.8717546" lon="17.8297876">
        <ele>16.4797</ele>
        <time>2014-06-10T18:46:55Z</time>
      </trkpt>
      <trkpt lat="59.8716489" lon="17.8296873">
        <ele>15.999</ele>
        <time>2014-06-10T18:46:56Z</time>
      </trkpt>
      <trkpt lat="59.871542" lon="17.8295865">
        <ele>15.999</ele>
        <time>2014-06-10T18:46:57Z</time>
      </trkpt>
      <trkpt lat="59.871434" lon="17.8294865">
        <ele>15.5184</ele>
        <time>2014-06-10T18:46:58Z</time>
      </trkpt>
      <trkpt lat="59.8713261" lon="17.8293858">
        <ele>15.5184</ele>
        <time>2014-06-10T18:46:59Z</time>
      </trkpt>
      <trkpt lat="59.8712181" lon="17.8292835">
        <ele>15.5184</ele>
        <time>2014-06-10T18:47:00Z</time>
      </trkpt>
      <trkpt lat="59.8711105" lon="17.8291808">
        <ele>15.5184</ele>
        <time>2014-06-10T18:47:01Z</time>
      </trkpt>
      <trkpt lat="59.8710039" lon="17.8290804">
        <ele>15.5184</ele>
        <time>2014-06-10T18:47:02Z</time>
      </trkpt>
      <trkpt lat="59.8708994" lon="17.828984">
        <ele>15.5184</ele>
        <time>2014-06-10T18:47:03Z</time>
      </trkpt>
      <trkpt lat="59.8707977" lon="17.8288887">
        <ele>15.5184</ele>
        <time>2014-06-10T18:47:04Z</time>
      </trkpt>
      <trkpt lat="59.8706998" lon="17.8287935">
        <ele>15.5184</ele>
        <time>2014-06-10T18:47:05Z</time>
      </trkpt>
      <trkpt lat="59.8706047" lon="17.8287003">
        <ele>15.5184</ele>
        <time>2014-06-10T18:47:06Z</time>
      </trkpt>
      <trkpt lat="59.870512" lon="17.8286095">
        <ele>15.999</ele>
        <time>2014-06-10T18:47:07Z</time>
      </trkpt>
      <trkpt lat="59.8704213" lon="17.8285212">
        <ele>16.4797</ele>
        <time>2014-06-10T18:47:08Z</time>
      </trkpt>
      <trkpt lat="59.8703325" lon="17.8284354">
        <ele>16.4797</ele>
        <time>2014-06-10T18:47:09Z</time>
      </trkpt>
      <trkpt lat="59.8702452" lon="17.8283525">
        <ele>16.9604</ele>
        <time>2014-06-10T18:47:10Z</time>
      </trkpt>
      <trkpt lat="59.8701601" lon="17.8282707">
        <ele>17.4412</ele>
        <time>2014-06-10T18:47:11Z</time>
      </trkpt>
      <trkpt lat="59.8700777" lon="17.8281868">
        <ele>17.4412</ele>
        <time>2014-06-10T18:47:12Z</time>
      </trkpt>
      <trkpt lat="59.8699985" lon="17.8280998">
        <ele>17.9218</ele>
        <time>2014-06-10T18:47:13Z</time>
      </trkpt>
      <trkpt lat="59.8699223" lon="17.8280108">
        <ele>18.4023</ele>
        <time>2014-06-10T18:47:14Z</time>
      </trkpt>
      <trkpt lat="59.8698488" lon="17.8279227">
        <ele>18.8831</ele>
        <time>2014-06-10T18:47:15Z</time>
      </trkpt>
      <trkpt lat="59.8697785" lon="17.827832">
        <ele>19.3638</ele>
        <time>2014-06-10T18:47:16Z</time>
      </trkpt>
      <trkpt lat="59.869713" lon="17.8277346">
        <ele>19.3638</ele>
        <time>2014-06-10T18:47:17Z</time>
      </trkpt>
      <trkpt lat="59.8696516" lon="17.8276336">
        <ele>19.8444</ele>
        <time>2014-06-10T18:47:18Z</time>
      </trkpt>
      <trkpt lat="59.869593" lon="17.8275316">
        <ele>20.325</ele>
        <time>2014-06-10T18:47:19Z</time>
      </trkpt>
      <trkpt lat="59.869536" lon="17.8274284">
        <ele>20.325</ele>
        <time>2014-06-10T18:47:20Z</time>
      </trkpt>
      <trkpt lat="59.869479" lon="17.8273264">
        <ele>20.8057</ele>
        <time>2014-06-10T18:47:21Z</time>
      </trkpt>
      <trkpt lat="59.8694213" lon="17.8272258">
        <ele>20.8057</ele>
        <time>2014-06-10T18:47:22Z</time>
      </trkpt>
      <trkpt lat="59.8693623" lon="17.8271269">
        <ele>20.8057</ele>
        <time>2014-06-10T18:47:23Z</time>
      </trkpt>
      <trkpt lat="59.8693025" lon="17.8270279">
        <ele>20.8057</ele>
        <time>2014-06-10T18:47:24Z</time>
      </trkpt>
      <trkpt lat="59.8692431" lon="17.8269273">
        <ele>20.8057</ele>
        <time>2014-06-10T18:47:25Z</time>
      </trkpt>
      <trkpt lat="59.8691837" lon="17.8268263">
        <ele>20.8057</ele>
        <time>2014-06-10T18:47:26Z</time>
      </trkpt>
      <trkpt lat="59.869066" lon="17.8266209">
        <ele>20.325</ele>
        <time>2014-06-10T18:47:28Z</time>
      </trkpt>
      <trkpt lat="59.8690069" lon="17.8265158">
        <ele>20.325</ele>
        <time>2014-06-10T18:47:29Z</time>
      </trkpt>
      <trkpt lat="59.8689479" lon="17.8264117">
        <ele>20.8057</ele>
        <time>2014-06-10T18:47:30Z</time>
      </trkpt>
      <trkpt lat="59.8688898" lon="17.8263091">
        <ele>20.8057</ele>
        <time>2014-06-10T18:47:31Z</time>
      </trkpt>
      <trkpt lat="59.8688331" lon="17.8262068">
        <ele>20.8057</ele>
        <time>2014-06-10T18:47:32Z</time>
      </trkpt>
      <trkpt lat="59.8687786" lon="17.8261048">
        <ele>21.2864</ele>
        <time>2014-06-10T18:47:33Z</time>
      </trkpt>
      <trkpt lat="59.8687248" lon="17.8260074">
        <ele>21.2864</ele>
        <time>2014-06-10T18:47:34Z</time>
      </trkpt>
      <trkpt lat="59.8686705" lon="17.8259158">
        <ele>21.767</ele>
        <time>2014-06-10T18:47:35Z</time>
      </trkpt>
      <trkpt lat="59.8686145" lon="17.8258308">
        <ele>21.767</ele>
        <time>2014-06-10T18:47:36Z</time>
      </trkpt>
      <trkpt lat="59.8685553" lon="17.8257528">
        <ele>21.767</ele>
        <time>2014-06-10T18:47:37Z</time>
      </trkpt>
      <trkpt lat="59.8684922" lon="17.8256853">
        <ele>21.767</ele>
        <time>2014-06-10T18:47:38Z</time>
      </trkpt>
      <trkpt lat="59.8684253" lon="17.8256324">
        <ele>21.767</ele>
        <time>2014-06-10T18:47:39Z</time>
      </trkpt>
      <trkpt lat="59.868355" lon="17.8255953">
        <ele>21.767</ele>
        <time>2014-06-10T18:47:40Z</time>
      </trkpt>
      <trkpt lat="59.8682832" lon="17.8255751">
        <ele>21.767</ele>
        <time>2014-06-10T18:47:41Z</time>
      </trkpt>
      <trkpt lat="59.8682078" lon="17.8256109">
        <ele>21.767</ele>
        <time>2014-06-10T18:47:42Z</time>
      </trkpt>
      <trkpt lat="59.8681202" lon="17.8256359">
        <ele>21.767</ele>
        <time>2014-06-10T18:47:43Z</time>
      </trkpt>
      <trkpt lat="59.8680373" lon="17.8256812">
        <ele>21.767</ele>
        <time>2014-06-10T18:47:44Z</time>
      </trkpt>
      <trkpt lat="59.8679575" lon="17.8257382">
        <ele>21.767</ele>
        <time>2014-06-10T18:47:45Z</time>
      </trkpt>
      <trkpt lat="59.8678798" lon="17.825797">
        <ele>21.2864</ele>
        <time>2014-06-10T18:47:46Z</time>
      </trkpt>
      <trkpt lat="59.8678008" lon="17.8258563">
        <ele>21.2864</ele>
        <time>2014-06-10T18:47:47Z</time>
      </trkpt>
      <trkpt lat="59.8677198" lon="17.8259195">
        <ele>21.2864</ele>
        <time>2014-06-10T18:47:48Z</time>
      </trkpt>
      <trkpt lat="59.867637" lon="17.8259836">
        <ele>21.2864</ele>
        <time>2014-06-10T18:47:49Z</time>
      </trkpt>
      <trkpt lat="59.8675524" lon="17.8260479">
        <ele>20.8057</ele>
        <time>2014-06-10T18:47:50Z</time>
      </trkpt>
      <trkpt lat="59.8674658" lon="17.8261143">
        <ele>20.8057</ele>
        <time>2014-06-10T18:47:51Z</time>
      </trkpt>
      <trkpt lat="59.8673775" lon="17.8261796">
        <ele>20.325</ele>
        <time>2014-06-10T18:47:52Z</time>
      </trkpt>
      <trkpt lat="59.8672873" lon="17.8262448">
        <ele>20.325</ele>
        <time>2014-06-10T18:47:53Z</time>
      </trkpt>
      <trkpt lat="59.8671952" lon="17.8263111">
        <ele>20.325</ele>
        <time>2014-06-10T18:47:54Z</time>
      </trkpt>
      <trkpt lat="59.8671022" lon="17.8263736">
        <ele>19.8444</ele>
        <time>2014-06-10T18:47:55Z</time>
      </trkpt>
      <trkpt lat="59.8670094" lon="17.826438">
        <ele>19.8444</ele>
        <time>2014-06-10T18:47:56Z</time>
      </trkpt>
      <trkpt lat="59.8669159" lon="17.8265008">
        <ele>19.8444</ele>
        <time>2014-06-10T18:47:57Z</time>
      </trkpt>
      <trkpt lat="59.8668221" lon="17.8265593">
        <ele>19.3638</ele>
        <time>2014-06-10T18:47:58Z</time>
      </trkpt>
      <trkpt lat="59.8667284" lon="17.8266119">
        <ele>19.3638</ele>
        <time>2014-06-10T18:47:59Z</time>
      </trkpt>
      <trkpt lat="59.8666346" lon="17.8266607">
        <ele>19.3638</ele>
        <time>2014-06-10T18:48:00Z</time>
      </trkpt>
      <trkpt lat="59.8665403" lon="17.8267039">
        <ele>19.3638</ele>
        <time>2014-06-10T18:48:01Z</time>
      </trkpt>
      <trkpt lat="59.8664488" lon="17.8267378">
        <ele>19.8444</ele>
        <time>2014-06-10T18:48:02Z</time>
      </trkpt>
      <trkpt lat="59.866358" lon="17.8267644">
        <ele>19.8444</ele>
        <time>2014-06-10T18:48:03Z</time>
      </trkpt>
      <trkpt lat="59.866268" lon="17.8267736">
        <ele>20.325</ele>
        <time>2014-06-10T18:48:04Z</time>
      </trkpt>
      <trkpt lat="59.8661777" lon="17.8267671">
        <ele>19.8444</ele>
        <time>2014-06-10T18:48:05Z</time>
      </trkpt>
      <trkpt lat="59.8660855" lon="17.826754">
        <ele>19.8444</ele>
        <time>2014-06-10T18:48:06Z</time>
      </trkpt>
      <trkpt lat="59.8659931" lon="17.8267411">
        <ele>19.3638</ele>
        <time>2014-06-10T18:48:07Z</time>
      </trkpt>
      <trkpt lat="59.8658996" lon="17.8267255">
        <ele>18.8831</ele>
        <time>2014-06-10T18:48:08Z</time>
      </trkpt>
      <trkpt lat="59.8658061" lon="17.8267069">
        <ele>18.8831</ele>
        <time>2014-06-10T18:48:09Z</time>
      </trkpt>
      <trkpt lat="59.8657136" lon="17.826685">
        <ele>18.4023</ele>
        <time>2014-06-10T18:48:10Z</time>
      </trkpt>
      <trkpt lat="59.8656214" lon="17.8266635">
        <ele>18.4023</ele>
        <time>2014-06-10T18:48:11Z</time>
      </trkpt>
      <trkpt lat="59.8655306" lon="17.8266452">
        <ele>18.4023</ele>
        <time>2014-06-10T18:48:12Z</time>
      </trkpt>
      <trkpt lat="59.8654422" lon="17.8266284">
        <ele>18.4023</ele>
        <time>2014-06-10T18:48:13Z</time>
      </trkpt>
      <trkpt lat="59.8653566" lon="17.8266111">
        <ele>18.8831</ele>
        <time>2014-06-10T18:48:14Z</time>
      </trkpt>
      <trkpt lat="59.8652741" lon="17.8265906">
        <ele>18.8831</ele>
        <time>2014-06-10T18:48:15Z</time>
      </trkpt>
      <trkpt lat="59.8651961" lon="17.8265566">
        <ele>19.3638</ele>
        <time>2014-06-10T18:48:16Z</time>
      </trkpt>
      <trkpt lat="59.8651232" lon="17.8265005">
        <ele>19.3638</ele>
        <time>2014-06-10T18:48:17Z</time>
      </trkpt>
      <trkpt lat="59.8650565" lon="17.8264217">
        <ele>19.3638</ele>
        <time>2014-06-10T18:48:18Z</time>
      </trkpt>
      <trkpt lat="59.8649954" lon="17.8263264">
        <ele>18.8831</ele>
        <time>2014-06-10T18:48:19Z</time>
      </trkpt>
      <trkpt lat="59.8649367" lon="17.8262194">
        <ele>18.8831</ele>
        <time>2014-06-10T18:48:20Z</time>
      </trkpt>
      <trkpt lat="59.864878" lon="17.8261045">
        <ele>18.4023</ele>
        <time>2014-06-10T18:48:21Z</time>
      </trkpt>
      <trkpt lat="59.8648169" lon="17.8259858">
        <ele>17.9218</ele>
        <time>2014-06-10T18:48:22Z</time>
      </trkpt>
      <trkpt lat="59.8647543" lon="17.8258583">
        <ele>17.4412</ele>
        <time>2014-06-10T18:48:23Z</time>
      </trkpt>
      <trkpt lat="59.8646908" lon="17.8257217">
        <ele>16.4797</ele>
        <time>2014-06-10T18:48:24Z</time>
      </trkpt>
      <trkpt lat="59.8646258" lon="17.8255795">
        <ele>15.999</ele>
        <time>2014-06-10T18:48:25Z</time>
      </trkpt>
      <trkpt lat="59.8645596" lon="17.8254335">
        <ele>15.0377</ele>
        <time>2014-06-10T18:48:26Z</time>
      </trkpt>
      <trkpt lat="59.8644936" lon="17.825284">
        <ele>15.0377</ele>
        <time>2014-06-10T18:48:27Z</time>
      </trkpt>
      <trkpt lat="59.8644269" lon="17.8251336">
        <ele>14.557</ele>
        <time>2014-06-10T18:48:28Z</time>
      </trkpt>
      <trkpt lat="59.8643586" lon="17.8249824">
        <ele>14.0764</ele>
        <time>2014-06-10T18:48:29Z</time>
      </trkpt>
      <trkpt lat="59.86429" lon="17.824831">
        <ele>13.5958</ele>
        <time>2014-06-10T18:48:30Z</time>
      </trkpt>
      <trkpt lat="59.8642207" lon="17.8246789">
        <ele>13.5958</ele>
        <time>2014-06-10T18:48:31Z</time>
      </trkpt>
      <trkpt lat="59.8641509" lon="17.8245275">
        <ele>13.5958</ele>
        <time>2014-06-10T18:48:32Z</time>
      </trkpt>
      <trkpt lat="59.8640817" lon="17.8243754">
        <ele>13.1151</ele>
        <time>2014-06-10T18:48:33Z</time>
      </trkpt>
      <trkpt lat="59.8640131" lon="17.8242221">
        <ele>13.1151</ele>
        <time>2014-06-10T18:48:34Z</time>
      </trkpt>
      <trkpt lat="59.8639449" lon="17.8240679">
        <ele>12.6344</ele>
        <time>2014-06-10T18:48:35Z</time>
      </trkpt>
      <trkpt lat="59.8638758" lon="17.8239138">
        <ele>12.6344</ele>
        <time>2014-06-10T18:48:36Z</time>
      </trkpt>
      <trkpt lat="59.8638068" lon="17.8237605">
        <ele>12.6344</ele>
        <time>2014-06-10T18:48:37Z</time>
      </trkpt>
      <trkpt lat="59.8637383" lon="17.8236081">
        <ele>12.6344</ele>
        <time>2014-06-10T18:48:38Z</time>
      </trkpt>
      <trkpt lat="59.8636709" lon="17.8234553">
        <ele>12.6344</ele>
        <time>2014-06-10T18:48:39Z</time>
      </trkpt>
      <trkpt lat="59.8636059" lon="17.823302">
        <ele>12.6344</ele>
        <time>2014-06-10T18:48:40Z</time>
      </trkpt>
      <trkpt lat="59.8635432" lon="17.8231498">
        <ele>13.1151</ele>
        <time>2014-06-10T18:48:41Z</time>
      </trkpt>
      <trkpt lat="59.8634821" lon="17.8229996">
        <ele>13.1151</ele>
        <time>2014-06-10T18:48:42Z</time>
      </trkpt>
      <trkpt lat="59.8634234" lon="17.8228509">
        <ele>13.5958</ele>
        <time>2014-06-10T18:48:43Z</time>
      </trkpt>
      <trkpt lat="59.8633665" lon="17.8227036">
        <ele>13.5958</ele>
        <time>2014-06-10T18:48:44Z</time>
      </trkpt>
      <trkpt lat="59.8633116" lon="17.8225575">
        <ele>14.0764</ele>
        <time>2014-06-10T18:48:45Z</time>
      </trkpt>
      <trkpt lat="59.8632587" lon="17.8224126">
        <ele>14.0764</ele>
        <time>2014-06-10T18:48:46Z</time>
      </trkpt>
      <trkpt lat="59.8632081" lon="17.8222696">
        <ele>14.557</ele>
        <time>2014-06-10T18:48:47Z</time>
      </trkpt>
      <trkpt lat="59.8631601" lon="17.8221287">
        <ele>15.0377</ele>
        <time>2014-06-10T18:48:48Z</time>
      </trkpt>
      <trkpt lat="59.8631146" lon="17.8219897">
        <ele>15.0377</ele>
        <time>2014-06-10T18:48:49Z</time>
      </trkpt>
      <trkpt lat="59.8630717" lon="17.8218525">
        <ele>15.5184</ele>
        <time>2014-06-10T18:48:50Z</time>
      </trkpt>
      <trkpt lat="59.8630311" lon="17.8217174">
        <ele>15.999</ele>
        <time>2014-06-10T18:48:51Z</time>
      </trkpt>
      <trkpt lat="59.8629919" lon="17.8215854">
        <ele>16.4797</ele>
        <time>2014-06-10T18:48:52Z</time>
      </trkpt>
      <trkpt lat="59.8629541" lon="17.8214579">
        <ele>16.4797</ele>
        <time>2014-06-10T18:48:53Z</time>
      </trkpt>
      <trkpt lat="59.8629166" lon="17.8213361">
        <ele>16.9604</ele>
        <time>2014-06-10T18:48:54Z</time>
      </trkpt>
      <trkpt lat="59.8628812" lon="17.82122">
        <ele>17.9218</ele>
        <time>2014-06-10T18:48:55Z</time>
      </trkpt>
      <trkpt lat="59.8628495" lon="17.8211108">
        <ele>17.9218</ele>
        <time>2014-06-10T18:48:56Z</time>
      </trkpt>
      <trkpt lat="59.8628204" lon="17.8210096">
        <ele>18.4023</ele>
        <time>2014-06-10T18:48:57Z</time>
      </trkpt>
      <trkpt lat="59.862794" lon="17.8209161">
        <ele>18.8831</ele>
        <time>2014-06-10T18:48:58Z</time>
      </trkpt>
      <trkpt lat="59.8627698" lon="17.82083">
        <ele>19.3638</ele>
        <time>2014-06-10T18:48:59Z</time>
      </trkpt>
      <trkpt lat="59.8627475" lon="17.820744">
        <ele>19.8444</ele>
        <time>2014-06-10T18:49:00Z</time>
      </trkpt>
      <trkpt lat="59.862726" lon="17.8206551">
        <ele>19.8444</ele>
        <time>2014-06-10T18:49:01Z</time>
      </trkpt>
      <trkpt lat="59.8627033" lon="17.8205705">
        <ele>20.325</ele>
        <time>2014-06-10T18:49:02Z</time>
      </trkpt>
      <trkpt lat="59.8626823" lon="17.8204817">
        <ele>20.325</ele>
        <time>2014-06-10T18:49:03Z</time>
      </trkpt>
      <trkpt lat="59.8626639" lon="17.8203929">
        <ele>20.325</ele>
        <time>2014-06-10T18:49:04Z</time>
      </trkpt>
      <trkpt lat="59.8626453" lon="17.8203062">
        <ele>20.8057</ele>
        <time>2014-06-10T18:49:05Z</time>
      </trkpt>
      <trkpt lat="59.8626255" lon="17.8202188">
        <ele>20.325</ele>
        <time>2014-06-10T18:49:06Z</time>
      </trkpt>
      <trkpt lat="59.8626053" lon="17.8201258">
        <ele>20.8057</ele>
        <time>2014-06-10T18:49:07Z</time>
      </trkpt>
      <trkpt lat="59.8625852" lon="17.8200292">
        <ele>20.325</ele>
        <time>2014-06-10T18:49:08Z</time>
      </trkpt>
      <trkpt lat="59.8625652" lon="17.8199291">
        <ele>20.325</ele>
        <time>2014-06-10T18:49:09Z</time>
      </trkpt>
      <trkpt lat="59.8625445" lon="17.8198233">
        <ele>20.325</ele>
        <time>2014-06-10T18:49:10Z</time>
      </trkpt>
      <trkpt lat="59.8625221" lon="17.8197173">
        <ele>20.325</ele>
        <time>2014-06-10T18:49:11Z</time>
      </trkpt>
      <trkpt lat="59.8624997" lon="17.8196082">
        <ele>19.8444</ele>
        <time>2014-06-10T18:49:12Z</time>
      </trkpt>
      <trkpt lat="59.8624775" lon="17.8194956">
        <ele>19.8444</ele>
        <time>2014-06-10T18:49:13Z</time>
      </trkpt>
      <trkpt lat="59.862452" lon="17.8193842">
        <ele>19.8444</ele>
        <time>2014-06-10T18:49:14Z</time>
      </trkpt>
      <trkpt lat="59.8624217" lon="17.8192734">
        <ele>19.8444</ele>
        <time>2014-06-10T18:49:15Z</time>
      </trkpt>
      <trkpt lat="59.8623843" lon="17.8191698">
        <ele>19.8444</ele>
        <time>2014-06-10T18:49:16Z</time>
      </trkpt>
      <trkpt lat="59.8623403" lon="17.819071">
        <ele>20.325</ele>
        <time>2014-06-10T18:49:17Z</time>
      </trkpt>
      <trkpt lat="59.8622895" lon="17.8189857">
        <ele>19.8444</ele>
        <time>2014-06-10T18:49:18Z</time>
      </trkpt>
      <trkpt lat="59.8622315" lon="17.818909">
        <ele>20.325</ele>
        <time>2014-06-10T18:49:19Z</time>
      </trkpt>
      <trkpt lat="59.8621708" lon="17.8188455">
        <ele>20.325</ele>
        <time>2014-06-10T18:49:20Z</time>
      </trkpt>
      <trkpt lat="59.8621084" lon="17.8187932">
        <ele>19.8444</ele>
        <time>2014-06-10T18:49:21Z</time>
      </trkpt>
      <trkpt lat="59.8620446" lon="17.8187454">
        <ele>20.325</ele>
        <time>2014-06-10T18:49:22Z</time>
      </trkpt>
      <trkpt lat="59.8619829" lon="17.8186978">
        <ele>20.325</ele>
        <time>2014-06-10T18:49:23Z</time>
      </trkpt>
      <trkpt lat="59.8619207" lon="17.8186591">
        <ele>19.8444</ele>
        <time>2014-06-10T18:49:24Z</time>
      </trkpt>
      <trkpt lat="59.8618591" lon="17.8186226">
        <ele>19.8444</ele>
        <time>2014-06-10T18:49:25Z</time>
      </trkpt>
      <trkpt lat="59.8618001" lon="17.8185876">
        <ele>20.325</ele>
        <time>2014-06-10T18:49:26Z</time>
      </trkpt>
      <trkpt lat="59.8617426" lon="17.8185548">
        <ele>20.325</ele>
        <time>2014-06-10T18:49:27Z</time>
      </trkpt>
      <trkpt lat="59.8616877" lon="17.8185197">
        <ele>20.8057</ele>
        <time>2014-06-10T18:49:28Z</time>
      </trkpt>
      <trkpt lat="59.8616361" lon="17.8184834">
        <ele>21.2864</ele>
        <time>2014-06-10T18:49:29Z</time>
      </trkpt>
      <trkpt lat="59.8615834" lon="17.8184467">
        <ele>21.2864</ele>
        <time>2014-06-10T18:49:30Z</time>
      </trkpt>
      <trkpt lat="59.8615284" lon="17.8184113">
        <ele>21.2864</ele>
        <time>2014-06-10T18:49:31Z</time>
      </trkpt>
      <trkpt lat="59.8614701" lon="17.8183705">
        <ele>21.2864</ele>
        <time>2014-06-10T18:49:32Z</time>
      </trkpt>
      <trkpt lat="59.8614105" lon="17.8183258">
        <ele>20.8057</ele>
        <time>2014-06-10T18:49:33Z</time>
      </trkpt>
      <trkpt lat="59.8613481" lon="17.8182738">
        <ele>20.8057</ele>
        <time>2014-06-10T18:49:34Z</time>
      </trkpt>
      <trkpt lat="59.8612821" lon="17.8182163">
        <ele>20.8057</ele>
        <time>2014-06-10T18:49:35Z</time>
      </trkpt>
      <trkpt lat="59.861215" lon="17.8181557">
        <ele>20.8057</ele>
        <time>2014-06-10T18:49:36Z</time>
      </trkpt>
      <trkpt lat="59.8611476" lon="17.8180918">
        <ele>20.8057</ele>
        <time>2014-06-10T18:49:37Z</time>
      </trkpt>
      <trkpt lat="59.8610819" lon="17.8180219">
        <ele>20.8057</ele>
        <time>2014-06-10T18:49:38Z</time>
      </trkpt>
      <trkpt lat="59.8610182" lon="17.8179478">
        <ele>21.2864</ele>
        <time>2014-06-10T18:49:39Z</time>
      </trkpt>
      <trkpt lat="59.8609555" lon="17.8178694">
        <ele>21.2864</ele>
        <time>2014-06-10T18:49:40Z</time>
      </trkpt>
      <trkpt lat="59.8608938" lon="17.8177873">
        <ele>21.2864</ele>
        <time>2014-06-10T18:49:41Z</time>
      </trkpt>
      <trkpt lat="59.8608299" lon="17.8177044">
        <ele>20.8057</ele>
        <time>2014-06-10T18:49:42Z</time>
      </trkpt>
      <trkpt lat="59.860763" lon="17.817619">
        <ele>20.325</ele>
        <time>2014-06-10T18:49:43Z</time>
      </trkpt>
      <trkpt lat="59.8606949" lon="17.8175275">
        <ele>19.8444</ele>
        <time>2014-06-10T18:49:44Z</time>
      </trkpt>
      <trkpt lat="59.8606246" lon="17.8174315">
        <ele>19.8444</ele>
        <time>2014-06-10T18:49:45Z</time>
      </trkpt>
      <trkpt lat="59.8605528" lon="17.817333">
        <ele>19.8444</ele>
        <time>2014-06-10T18:49:46Z</time>
      </trkpt>
      <trkpt lat="59.8604802" lon="17.8172315">
        <ele>19.3638</ele>
        <time>2014-06-10T18:49:47Z</time>
      </trkpt>
      <trkpt lat="59.8604066" lon="17.8171292">
        <ele>19.3638</ele>
        <time>2014-06-10T18:49:48Z</time>
      </trkpt>
      <trkpt lat="59.8603324" lon="17.8170276">
        <ele>19.8444</ele>
        <time>2014-06-10T18:49:49Z</time>
      </trkpt>
      <trkpt lat="59.8602575" lon="17.8169268">
        <ele>19.8444</ele>
        <time>2014-06-10T18:49:50Z</time>
      </trkpt>
      <trkpt lat="59.8601822" lon="17.8168288">
        <ele>19.8444</ele>
        <time>2014-06-10T18:49:51Z</time>
      </trkpt>
      <trkpt lat="59.8601061" lon="17.8167353">
        <ele>19.8444</ele>
        <time>2014-06-10T18:49:52Z</time>
      </trkpt>
      <trkpt lat="59.860029" lon="17.8166471">
        <ele>19.8444</ele>
        <time>2014-06-10T18:49:53Z</time>
      </trkpt>
      <trkpt lat="59.859951" lon="17.8165625">
        <ele>19.8444</ele>
        <time>2014-06-10T18:49:54Z</time>
      </trkpt>
      <trkpt lat="59.859872" lon="17.816482">
        <ele>19.8444</ele>
        <time>2014-06-10T18:49:55Z</time>
      </trkpt>
      <trkpt lat="59.859792" lon="17.8164078">
        <ele>19.8444</ele>
        <time>2014-06-10T18:49:56Z</time>
      </trkpt>
      <trkpt lat="59.8597119" lon="17.8163387">
        <ele>19.8444</ele>
        <time>2014-06-10T18:49:57Z</time>
      </trkpt>
      <trkpt lat="59.8596322" lon="17.8162721">
        <ele>19.8444</ele>
        <time>2014-06-10T18:49:58Z</time>
      </trkpt>
      <trkpt lat="59.8595524" lon="17.8162055">
        <ele>19.8444</ele>
        <time>2014-06-10T18:49:59Z</time>
      </trkpt>
      <trkpt lat="59.859472" lon="17.8161374">
        <ele>19.8444</ele>
        <time>2014-06-10T18:50:00Z</time>
      </trkpt>
      <trkpt lat="59.8593908" lon="17.8160695">
        <ele>19.8444</ele>
        <time>2014-06-10T18:50:01Z</time>
      </trkpt>
      <trkpt lat="59.8593093" lon="17.8160015">
        <ele>19.8444</ele>
        <time>2014-06-10T18:50:02Z</time>
      </trkpt>
      <trkpt lat="59.8592281" lon="17.8159329">
        <ele>19.8444</ele>
        <time>2014-06-10T18:50:03Z</time>
      </trkpt>
      <trkpt lat="59.8591473" lon="17.8158653">
        <ele>19.8444</ele>
        <time>2014-06-10T18:50:04Z</time>
      </trkpt>
      <trkpt lat="59.8590664" lon="17.8157995">
        <ele>19.8444</ele>
        <time>2014-06-10T18:50:05Z</time>
      </trkpt>
      <trkpt lat="59.8589847" lon="17.8157337">
        <ele>19.8444</ele>
        <time>2014-06-10T18:50:06Z</time>
      </trkpt>
      <trkpt lat="59.8589029" lon="17.8156669">
        <ele>19.8444</ele>
        <time>2014-06-10T18:50:07Z</time>
      </trkpt>
      <trkpt lat="59.8588204" lon="17.8156024">
        <ele>19.8444</ele>
        <time>2014-06-10T18:50:08Z</time>
      </trkpt>
      <trkpt lat="59.8587376" lon="17.8155378">
        <ele>19.8444</ele>
        <time>2014-06-10T18:50:09Z</time>
      </trkpt>
      <trkpt lat="59.8586557" lon="17.8154705">
        <ele>19.8444</ele>
        <time>2014-06-10T18:50:10Z</time>
      </trkpt>
      <trkpt lat="59.8585754" lon="17.8154054">
        <ele>20.8057</ele>
        <time>2014-06-10T18:50:11Z</time>
      </trkpt>
      <trkpt lat="59.8584966" lon="17.8153472">
        <ele>21.2864</ele>
        <time>2014-06-10T18:50:12Z</time>
      </trkpt>
      <trkpt lat="59.85842" lon="17.8152931">
        <ele>21.767</ele>
        <time>2014-06-10T18:50:13Z</time>
      </trkpt>
      <trkpt lat="59.858347" lon="17.815241">
        <ele>22.2476</ele>
        <time>2014-06-10T18:50:14Z</time>
      </trkpt>
      <trkpt lat="59.858277" lon="17.8151889">
        <ele>22.2476</ele>
        <time>2014-06-10T18:50:15Z</time>
      </trkpt>
      <trkpt lat="59.8582067" lon="17.8151412">
        <ele>21.767</ele>
        <time>2014-06-10T18:50:16Z</time>
      </trkpt>
      <trkpt lat="59.8581282" lon="17.8150944">
        <ele>21.767</ele>
        <time>2014-06-10T18:50:17Z</time>
      </trkpt>
      <trkpt lat="59.8580525" lon="17.8150448">
        <ele>21.2864</ele>
        <time>2014-06-10T18:50:18Z</time>
      </trkpt>
      <trkpt lat="59.8579776" lon="17.8149942">
        <ele>20.8057</ele>
        <time>2014-06-10T18:50:19Z</time>
      </trkpt>
      <trkpt lat="59.8579054" lon="17.8149474">
        <ele>20.325</ele>
        <time>2014-06-10T18:50:20Z</time>
      </trkpt>
      <trkpt lat="59.8578386" lon="17.814906">
        <ele>20.325</ele>
        <time>2014-06-10T18:50:21Z</time>
      </trkpt>
      <trkpt lat="59.8577823" lon="17.8148515">
        <ele>19.8444</ele>
        <time>2014-06-10T18:50:22Z</time>
      </trkpt>
      <trkpt lat="59.8577497" lon="17.8147538">
        <ele>19.8444</ele>
        <time>2014-06-10T18:50:23Z</time>
      </trkpt>
      <trkpt lat="59.8577441" lon="17.8146299">
        <ele>20.325</ele>
        <time>2014-06-10T18:50:24Z</time>
      </trkpt>
      <trkpt lat="59.8577566" lon="17.8145096">
        <ele>20.325</ele>
        <time>2014-06-10T18:50:25Z</time>
      </trkpt>
      <trkpt lat="59.8577792" lon="17.8143881">
        <ele>20.325</ele>
        <time>2014-06-10T18:50:26Z</time>
      </trkpt>
      <trkpt lat="59.8578051" lon="17.814263">
        <ele>20.325</ele>
        <time>2014-06-10T18:50:27Z</time>
      </trkpt>
      <trkpt lat="59.8578275" lon="17.8141285">
        <ele>20.325</ele>
        <time>2014-06-10T18:50:28Z</time>
      </trkpt>
      <trkpt lat="59.8578476" lon="17.813988">
        <ele>20.325</ele>
        <time>2014-06-10T18:50:29Z</time>
      </trkpt>
      <trkpt lat="59.8578671" lon="17.8138434">
        <ele>20.325</ele>
        <time>2014-06-10T18:50:30Z</time>
      </trkpt>
      <trkpt lat="59.8578858" lon="17.813695">
        <ele>20.325</ele>
        <time>2014-06-10T18:50:31Z</time>
      </trkpt>
      <trkpt lat="59.8579041" lon="17.8135433">
        <ele>20.325</ele>
        <time>2014-06-10T18:50:32Z</time>
      </trkpt>
      <trkpt lat="59.857922" lon="17.8133887">
        <ele>20.325</ele>
        <time>2014-06-10T18:50:33Z</time>
      </trkpt>
      <trkpt lat="59.8579386" lon="17.8132313">
        <ele>19.8444</ele>
        <time>2014-06-10T18:50:34Z</time>
      </trkpt>
      <trkpt lat="59.8579534" lon="17.8130707">
        <ele>19.8444</ele>
        <time>2014-06-10T18:50:35Z</time>
      </trkpt>
      <trkpt lat="59.8579668" lon="17.8129074">
        <ele>19.8444</ele>
        <time>2014-06-10T18:50:36Z</time>
      </trkpt>
      <trkpt lat="59.8579783" lon="17.8127418">
        <ele>19.8444</ele>
        <time>2014-06-10T18:50:37Z</time>
      </trkpt>
      <trkpt lat="59.8579879" lon="17.8125745">
        <ele>19.8444</ele>
        <time>2014-06-10T18:50:38Z</time>
      </trkpt>
      <trkpt lat="59.8579952" lon="17.8124061">
        <ele>19.8444</ele>
        <time>2014-06-10T18:50:39Z</time>
      </trkpt>
      <trkpt lat="59.8580008" lon="17.8122362">
        <ele>19.8444</ele>
        <time>2014-06-10T18:50:40Z</time>
      </trkpt>
      <trkpt lat="59.8580042" lon="17.8120664">
        <ele>19.8444</ele>
        <time>2014-06-10T18:50:41Z</time>
      </trkpt>
      <trkpt lat="59.8580056" lon="17.8118979">
        <ele>19.8444</ele>
        <time>2014-06-10T18:50:42Z</time>
      </trkpt>
      <trkpt lat="59.8580049" lon="17.8117295">
        <ele>19.8444</ele>
        <time>2014-06-10T18:50:43Z</time>
      </trkpt>
      <trkpt lat="59.8580024" lon="17.8115608">
        <ele>19.8444</ele>
        <time>2014-06-10T18:50:44Z</time>
      </trkpt>
      <trkpt lat="59.8579979" lon="17.8113925">
        <ele>19.8444</ele>
        <time>2014-06-10T18:50:45Z</time>
      </trkpt>
      <trkpt lat="59.857992" lon="17.8112257">
        <ele>19.8444</ele>
        <time>2014-06-10T18:50:46Z</time>
      </trkpt>
      <trkpt lat="59.8579839" lon="17.8110599">
        <ele>19.8444</ele>
        <time>2014-06-10T18:50:47Z</time>
      </trkpt>
      <trkpt lat="59.8579739" lon="17.8108949">
        <ele>19.8444</ele>
        <time>2014-06-10T18:50:48Z</time>
      </trkpt>
      <trkpt lat="59.8579615" lon="17.8107315">
        <ele>19.8444</ele>
        <time>2014-06-10T18:50:49Z</time>
      </trkpt>
      <trkpt lat="59.8579479" lon="17.8105698">
        <ele>19.8444</ele>
        <time>2014-06-10T18:50:50Z</time>
      </trkpt>
      <trkpt lat="59.8579331" lon="17.8104087">
        <ele>19.8444</ele>
        <time>2014-06-10T18:50:51Z</time>
      </trkpt>
      <trkpt lat="59.8579155" lon="17.8102492">
        <ele>19.3638</ele>
        <time>2014-06-10T18:50:52Z</time>
      </trkpt>
      <trkpt lat="59.8578949" lon="17.8100943">
        <ele>19.3638</ele>
        <time>2014-06-10T18:50:53Z</time>
      </trkpt>
      <trkpt lat="59.8578738" lon="17.8099389">
        <ele>18.8831</ele>
        <time>2014-06-10T18:50:54Z</time>
      </trkpt>
      <trkpt lat="59.8578505" lon="17.809783">
        <ele>18.8831</ele>
        <time>2014-06-10T18:50:55Z</time>
      </trkpt>
      <trkpt lat="59.8578243" lon="17.8096284">
        <ele>18.8831</ele>
        <time>2014-06-10T18:50:56Z</time>
      </trkpt>
      <trkpt lat="59.8577957" lon="17.8094768">
        <ele>18.8831</ele>
        <time>2014-06-10T18:50:57Z</time>
      </trkpt>
      <trkpt lat="59.8577654" lon="17.8093264">
        <ele>18.8831</ele>
        <time>2014-06-10T18:50:58Z</time>
      </trkpt>
      <trkpt lat="59.857735" lon="17.8091764">
        <ele>18.8831</ele>
        <time>2014-06-10T18:50:59Z</time>
      </trkpt>
      <trkpt lat="59.8577035" lon="17.8090288">
        <ele>18.8831</ele>
        <time>2014-06-10T18:51:00Z</time>
      </trkpt>
      <trkpt lat="59.8576718" lon="17.8088811">
        <ele>19.3638</ele>
        <time>2014-06-10T18:51:01Z</time>
      </trkpt>
      <trkpt lat="59.8576389" lon="17.8087349">
        <ele>19.3638</ele>
        <time>2014-06-10T18:51:02Z</time>
      </trkpt>
      <trkpt lat="59.8576047" lon="17.8085901">
        <ele>19.8444</ele>
        <time>2014-06-10T18:51:03Z</time>
      </trkpt>
      <trkpt lat="59.8575694" lon="17.8084473">
        <ele>19.8444</ele>
        <time>2014-06-10T18:51:04Z</time>
      </trkpt>
      <trkpt lat="59.8575328" lon="17.8083051">
        <ele>19.8444</ele>
        <time>2014-06-10T18:51:05Z</time>
      </trkpt>
      <trkpt lat="59.857495" lon="17.8081636">
        <ele>19.8444</ele>
        <time>2014-06-10T18:51:06Z</time>
      </trkpt>
      <trkpt lat="59.8574563" lon="17.8080244">
        <ele>19.8444</ele>
        <time>2014-06-10T18:51:07Z</time>
      </trkpt>
      <trkpt lat="59.8574167" lon="17.8078855">
        <ele>19.8444</ele>
        <time>2014-06-10T18:51:08Z</time>
      </trkpt>
      <trkpt lat="59.8573766" lon="17.8077476">
        <ele>20.325</ele>
        <time>2014-06-10T18:51:09Z</time>
      </trkpt>
      <trkpt lat="59.8573363" lon="17.8076098">
        <ele>20.325</ele>
        <time>2014-06-10T18:51:10Z</time>
      </trkpt>
      <trkpt lat="59.8572954" lon="17.8074725">
        <ele>20.325</ele>
        <time>2014-06-10T18:51:11Z</time>
      </trkpt>
      <trkpt lat="59.8572535" lon="17.8073358">
        <ele>20.325</ele>
        <time>2014-06-10T18:51:12Z</time>
      </trkpt>
      <trkpt lat="59.857212" lon="17.8071986">
        <ele>20.8057</ele>
        <time>2014-06-10T18:51:13Z</time>
      </trkpt>
      <trkpt lat="59.8571707" lon="17.8070617">
        <ele>20.8057</ele>
        <time>2014-06-10T18:51:14Z</time>
      </trkpt>
      <trkpt lat="59.8571295" lon="17.8069246">
        <ele>20.8057</ele>
        <time>2014-06-10T18:51:15Z</time>
      </trkpt>
      <trkpt lat="59.8570878" lon="17.8067879">
        <ele>21.2864</ele>
        <time>2014-06-10T18:51:16Z</time>
      </trkpt>
      <trkpt lat="59.8570458" lon="17.8066516">
        <ele>21.2864</ele>
        <time>2014-06-10T18:51:17Z</time>
      </trkpt>
      <trkpt lat="59.8570038" lon="17.8065163">
        <ele>21.2864</ele>
        <time>2014-06-10T18:51:18Z</time>
      </trkpt>
      <trkpt lat="59.8569621" lon="17.806381">
        <ele>21.2864</ele>
        <time>2014-06-10T18:51:19Z</time>
      </trkpt>
      <trkpt lat="59.8569204" lon="17.8062454">
        <ele>21.2864</ele>
        <time>2014-06-10T18:51:20Z</time>
      </trkpt>
      <trkpt lat="59.8568789" lon="17.8061082">
        <ele>21.767</ele>
        <time>2014-06-10T18:51:21Z</time>
      </trkpt>
      <trkpt lat="59.8568375" lon="17.805969">
        <ele>21.767</ele>
        <time>2014-06-10T18:51:22Z</time>
      </trkpt>
      <trkpt lat="59.856796" lon="17.80583">
        <ele>21.767</ele>
        <time>2014-06-10T18:51:23Z</time>
      </trkpt>
      <trkpt lat="59.856754" lon="17.8056927">
        <ele>22.2476</ele>
        <time>2014-06-10T18:51:24Z</time>
      </trkpt>
      <trkpt lat="59.8567121" lon="17.8055561">
        <ele>22.2476</ele>
        <time>2014-06-10T18:51:25Z</time>
      </trkpt>
      <trkpt lat="59.8566706" lon="17.8054203">
        <ele>22.2476</ele>
        <time>2014-06-10T18:51:26Z</time>
      </trkpt>
      <trkpt lat="59.8566296" lon="17.805285">
        <ele>22.7283</ele>
        <time>2014-06-10T18:51:27Z</time>
      </trkpt>
      <trkpt lat="59.8565899" lon="17.8051488">
        <ele>22.7283</ele>
        <time>2014-06-10T18:51:28Z</time>
      </trkpt>
      <trkpt lat="59.8565508" lon="17.8050137">
        <ele>22.7283</ele>
        <time>2014-06-10T18:51:29Z</time>
      </trkpt>
      <trkpt lat="59.856511" lon="17.804881">
        <ele>23.209</ele>
        <time>2014-06-10T18:51:30Z</time>
      </trkpt>
      <trkpt lat="59.8564711" lon="17.8047499">
        <ele>23.209</ele>
        <time>2014-06-10T18:51:31Z</time>
      </trkpt>
      <trkpt lat="59.8564333" lon="17.8046185">
        <ele>23.6896</ele>
        <time>2014-06-10T18:51:32Z</time>
      </trkpt>
      <trkpt lat="59.8563975" lon="17.8044877">
        <ele>23.6896</ele>
        <time>2014-06-10T18:51:33Z</time>
      </trkpt>
      <trkpt lat="59.8563614" lon="17.8043592">
        <ele>23.6896</ele>
        <time>2014-06-10T18:51:34Z</time>
      </trkpt>
      <trkpt lat="59.8563247" lon="17.8042344">
        <ele>24.1703</ele>
        <time>2014-06-10T18:51:35Z</time>
      </trkpt>
      <trkpt lat="59.8562873" lon="17.8041128">
        <ele>24.1703</ele>
        <time>2014-06-10T18:51:36Z</time>
      </trkpt>
      <trkpt lat="59.8562501" lon="17.8039932">
        <ele>24.651</ele>
        <time>2014-06-10T18:51:37Z</time>
      </trkpt>
      <trkpt lat="59.8562138" lon="17.8038752">
        <ele>24.651</ele>
        <time>2014-06-10T18:51:38Z</time>
      </trkpt>
      <trkpt lat="59.8561802" lon="17.8037554">
        <ele>25.1317</ele>
        <time>2014-06-10T18:51:39Z</time>
      </trkpt>
      <trkpt lat="59.8561579" lon="17.803629">
        <ele>25.1317</ele>
        <time>2014-06-10T18:51:40Z</time>
      </trkpt>
      <trkpt lat="59.8561465" lon="17.8034974">
        <ele>25.1317</ele>
        <time>2014-06-10T18:51:41Z</time>
      </trkpt>
      <trkpt lat="59.8561309" lon="17.80337">
        <ele>25.1317</ele>
        <time>2014-06-10T18:51:42Z</time>
      </trkpt>
      <trkpt lat="59.8560992" lon="17.8032537">
        <ele>25.1317</ele>
        <time>2014-06-10T18:51:43Z</time>
      </trkpt>
      <trkpt lat="59.8560554" lon="17.8031494">
        <ele>25.1317</ele>
        <time>2014-06-10T18:51:44Z</time>
      </trkpt>
      <trkpt lat="59.8560105" lon="17.8030529">
        <ele>25.1317</ele>
        <time>2014-06-10T18:51:45Z</time>
      </trkpt>
      <trkpt lat="59.8559705" lon="17.8029473">
        <ele>25.6123</ele>
        <time>2014-06-10T18:51:46Z</time>
      </trkpt>
      <trkpt lat="59.8559311" lon="17.802841">
        <ele>25.6123</ele>
        <time>2014-06-10T18:51:47Z</time>
      </trkpt>
      <trkpt lat="59.855889" lon="17.8027478">
        <ele>25.1317</ele>
        <time>2014-06-10T18:51:48Z</time>
      </trkpt>
      <trkpt lat="59.8558551" lon="17.8026421">
        <ele>25.1317</ele>
        <time>2014-06-10T18:51:49Z</time>
      </trkpt>
      <trkpt lat="59.8558222" lon="17.8025303">
        <ele>25.1317</ele>
        <time>2014-06-10T18:51:50Z</time>
      </trkpt>
      <trkpt lat="59.8557888" lon="17.8024159">
        <ele>25.6123</ele>
        <time>2014-06-10T18:51:51Z</time>
      </trkpt>
      <trkpt lat="59.8557598" lon="17.8022946">
        <ele>25.6123</ele>
        <time>2014-06-10T18:51:52Z</time>
      </trkpt>
      <trkpt lat="59.8557317" lon="17.8021709">
        <ele>26.0929</ele>
        <time>2014-06-10T18:51:53Z</time>
      </trkpt>
      <trkpt lat="59.8557034" lon="17.8020491">
        <ele>26.5736</ele>
        <time>2014-06-10T18:51:54Z</time>
      </trkpt>
      <trkpt lat="59.8556798" lon="17.8019304">
        <ele>26.5736</ele>
        <time>2014-06-10T18:51:55Z</time>
      </trkpt>
      <trkpt lat="59.8556596" lon="17.8018103">
        <ele>26.5736</ele>
        <time>2014-06-10T18:51:56Z</time>
      </trkpt>
      <trkpt lat="59.8556371" lon="17.8016959">
        <ele>27.0543</ele>
        <time>2014-06-10T18:51:57Z</time>
      </trkpt>
      <trkpt lat="59.8556109" lon="17.8015855">
        <ele>27.0543</ele>
        <time>2014-06-10T18:51:58Z</time>
      </trkpt>
      <trkpt lat="59.8555808" lon="17.8014801">
        <ele>27.0543</ele>
        <time>2014-06-10T18:51:59Z</time>
      </trkpt>
      <trkpt lat="59.8555507" lon="17.8013749">
        <ele>26.5736</ele>
        <time>2014-06-10T18:52:00Z</time>
      </trkpt>
      <trkpt lat="59.8555238" lon="17.8012611">
        <ele>27.0543</ele>
        <time>2014-06-10T18:52:01Z</time>
      </trkpt>
      <trkpt lat="59.8554948" lon="17.801156">
        <ele>27.0543</ele>
        <time>2014-06-10T18:52:02Z</time>
      </trkpt>
      <trkpt lat="59.8554674" lon="17.8010548">
        <ele>27.5349</ele>
        <time>2014-06-10T18:52:03Z</time>
      </trkpt>
      <trkpt lat="59.85544" lon="17.8009597">
        <ele>27.5349</ele>
        <time>2014-06-10T18:52:04Z</time>
      </trkpt>
      <trkpt lat="59.8554119" lon="17.8008699">
        <ele>28.0155</ele>
        <time>2014-06-10T18:52:05Z</time>
      </trkpt>
      <trkpt lat="59.8553875" lon="17.8007784">
        <ele>28.0155</ele>
        <time>2014-06-10T18:52:06Z</time>
      </trkpt>
      <trkpt lat="59.8553637" lon="17.8006845">
        <ele>28.4962</ele>
        <time>2014-06-10T18:52:07Z</time>
      </trkpt>
      <trkpt lat="59.8553415" lon="17.8005899">
        <ele>28.4962</ele>
        <time>2014-06-10T18:52:08Z</time>
      </trkpt>
      <trkpt lat="59.8553176" lon="17.8004976">
        <ele>28.9769</ele>
        <time>2014-06-10T18:52:09Z</time>
      </trkpt>
      <trkpt lat="59.8552913" lon="17.800407">
        <ele>28.9769</ele>
        <time>2014-06-10T18:52:10Z</time>
      </trkpt>
      <trkpt lat="59.8552638" lon="17.8003158">
        <ele>28.9769</ele>
        <time>2014-06-10T18:52:11Z</time>
      </trkpt>
      <trkpt lat="59.8552384" lon="17.8002196">
        <ele>29.4575</ele>
        <time>2014-06-10T18:52:12Z</time>
      </trkpt>
      <trkpt lat="59.8552125" lon="17.8001222">
        <ele>29.4575</ele>
        <time>2014-06-10T18:52:13Z</time>
      </trkpt>
      <trkpt lat="59.8551836" lon="17.8000251">
        <ele>29.4575</ele>
        <time>2014-06-10T18:52:14Z</time>
      </trkpt>
      <trkpt lat="59.8551558" lon="17.7999264">
        <ele>29.4575</ele>
        <time>2014-06-10T18:52:15Z</time>
      </trkpt>
      <trkpt lat="59.8551255" lon="17.7998272">
        <ele>30.4188</ele>
        <time>2014-06-10T18:52:16Z</time>
      </trkpt>
      <trkpt lat="59.8550984" lon="17.7997284">
        <ele>30.4188</ele>
        <time>2014-06-10T18:52:17Z</time>
      </trkpt>
      <trkpt lat="59.8550657" lon="17.7996173">
        <ele>31.8607</ele>
        <time>2014-06-10T18:52:18Z</time>
      </trkpt>
      <trkpt lat="59.8550332" lon="17.799504">
        <ele>34.2642</ele>
        <time>2014-06-10T18:52:19Z</time>
      </trkpt>
      <trkpt lat="59.8550043" lon="17.7994005">
        <ele>34.2642</ele>
        <time>2014-06-10T18:52:20Z</time>
      </trkpt>
      <trkpt lat="59.8549778" lon="17.7992947">
        <ele>34.2642</ele>
        <time>2014-06-10T18:52:21Z</time>
      </trkpt>
      <trkpt lat="59.8549499" lon="17.7991933">
        <ele>33.7834</ele>
        <time>2014-06-10T18:52:22Z</time>
      </trkpt>
      <trkpt lat="59.8549209" lon="17.7990848">
        <ele>33.7834</ele>
        <time>2014-06-10T18:52:23Z</time>
      </trkpt>
      <trkpt lat="59.8548934" lon="17.7989684">
        <ele>34.7449</ele>
        <time>2014-06-10T18:52:24Z</time>
      </trkpt>
      <trkpt lat="59.854865" lon="17.798865">
        <ele>33.3029</ele>
        <time>2014-06-10T18:52:25Z</time>
      </trkpt>
      <trkpt lat="59.8548343" lon="17.798753">
        <ele>32.8223</ele>
        <time>2014-06-10T18:52:26Z</time>
      </trkpt>
      <trkpt lat="59.8548028" lon="17.798639">
        <ele>32.3416</ele>
        <time>2014-06-10T18:52:27Z</time>
      </trkpt>
      <trkpt lat="59.8547732" lon="17.7985261">
        <ele>30.8995</ele>
        <time>2014-06-10T18:52:28Z</time>
      </trkpt>
      <trkpt lat="59.8547428" lon="17.7984089">
        <ele>30.8995</ele>
        <time>2014-06-10T18:52:29Z</time>
      </trkpt>
      <trkpt lat="59.8547105" lon="17.7982931">
        <ele>30.8995</ele>
        <time>2014-06-10T18:52:30Z</time>
      </trkpt>
      <trkpt lat="59.8546827" lon="17.7981703">
        <ele>30.8995</ele>
        <time>2014-06-10T18:52:31Z</time>
      </trkpt>
      <trkpt lat="59.8546532" lon="17.7980449">
        <ele>30.8995</ele>
        <time>2014-06-10T18:52:32Z</time>
      </trkpt>
      <trkpt lat="59.854624" lon="17.797921">
        <ele>30.8995</ele>
        <time>2014-06-10T18:52:33Z</time>
      </trkpt>
      <trkpt lat="59.8545919" lon="17.7978005">
        <ele>30.4188</ele>
        <time>2014-06-10T18:52:34Z</time>
      </trkpt>
      <trkpt lat="59.8545609" lon="17.79768">
        <ele>30.4188</ele>
        <time>2014-06-10T18:52:35Z</time>
      </trkpt>
      <trkpt lat="59.8545308" lon="17.7975608">
        <ele>30.8995</ele>
        <time>2014-06-10T18:52:36Z</time>
      </trkpt>
      <trkpt lat="59.8545039" lon="17.7974392">
        <ele>30.8995</ele>
        <time>2014-06-10T18:52:37Z</time>
      </trkpt>
      <trkpt lat="59.8544778" lon="17.7973174">
        <ele>30.4188</ele>
        <time>2014-06-10T18:52:38Z</time>
      </trkpt>
      <trkpt lat="59.854451" lon="17.7971943">
        <ele>30.8995</ele>
        <time>2014-06-10T18:52:39Z</time>
      </trkpt>
      <trkpt lat="59.8544189" lon="17.7970783">
        <ele>30.4188</ele>
        <time>2014-06-10T18:52:40Z</time>
      </trkpt>
      <trkpt lat="59.8543845" lon="17.7969653">
        <ele>30.4188</ele>
        <time>2014-06-10T18:52:41Z</time>
      </trkpt>
      <trkpt lat="59.8543453" lon="17.7968595">
        <ele>29.9381</ele>
        <time>2014-06-10T18:52:42Z</time>
      </trkpt>
      <trkpt lat="59.8543081" lon="17.7967518">
        <ele>29.9381</ele>
        <time>2014-06-10T18:52:43Z</time>
      </trkpt>
      <trkpt lat="59.8542749" lon="17.796641">
        <ele>29.9381</ele>
        <time>2014-06-10T18:52:44Z</time>
      </trkpt>
      <trkpt lat="59.854245" lon="17.7965267">
        <ele>29.4575</ele>
        <time>2014-06-10T18:52:45Z</time>
      </trkpt>
      <trkpt lat="59.8542156" lon="17.7964075">
        <ele>29.9381</ele>
        <time>2014-06-10T18:52:46Z</time>
      </trkpt>
      <trkpt lat="59.8541856" lon="17.7962893">
        <ele>29.4575</ele>
        <time>2014-06-10T18:52:47Z</time>
      </trkpt>
      <trkpt lat="59.8541536" lon="17.7961723">
        <ele>29.4575</ele>
        <time>2014-06-10T18:52:48Z</time>
      </trkpt>
      <trkpt lat="59.854121" lon="17.7960548">
        <ele>29.4575</ele>
        <time>2014-06-10T18:52:49Z</time>
      </trkpt>
      <trkpt lat="59.8540879" lon="17.7959356">
        <ele>29.4575</ele>
        <time>2014-06-10T18:52:50Z</time>
      </trkpt>
      <trkpt lat="59.8540571" lon="17.7958152">
        <ele>29.4575</ele>
        <time>2014-06-10T18:52:51Z</time>
      </trkpt>
      <trkpt lat="59.8540242" lon="17.7956977">
        <ele>28.9769</ele>
        <time>2014-06-10T18:52:52Z</time>
      </trkpt>
      <trkpt lat="59.853952" lon="17.7954647">
        <ele>29.4575</ele>
        <time>2014-06-10T18:52:54Z</time>
      </trkpt>
      <trkpt lat="59.8539165" lon="17.7953469">
        <ele>28.9769</ele>
        <time>2014-06-10T18:52:55Z</time>
      </trkpt>
      <trkpt lat="59.8538822" lon="17.7952261">
        <ele>28.9769</ele>
        <time>2014-06-10T18:52:56Z</time>
      </trkpt>
      <trkpt lat="59.8538455" lon="17.7951046">
        <ele>29.4575</ele>
        <time>2014-06-10T18:52:57Z</time>
      </trkpt>
      <trkpt lat="59.8538077" lon="17.7949848">
        <ele>28.9769</ele>
        <time>2014-06-10T18:52:58Z</time>
      </trkpt>
      <trkpt lat="59.8537684" lon="17.7948673">
        <ele>28.9769</ele>
        <time>2014-06-10T18:52:59Z</time>
      </trkpt>
      <trkpt lat="59.8537298" lon="17.7947481">
        <ele>28.9769</ele>
        <time>2014-06-10T18:53:00Z</time>
      </trkpt>
      <trkpt lat="59.8536942" lon="17.7946273">
        <ele>28.9769</ele>
        <time>2014-06-10T18:53:01Z</time>
      </trkpt>
      <trkpt lat="59.8536563" lon="17.7945068">
        <ele>28.9769</ele>
        <time>2014-06-10T18:53:02Z</time>
      </trkpt>
      <trkpt lat="59.8536169" lon="17.7943844">
        <ele>28.9769</ele>
        <time>2014-06-10T18:53:03Z</time>
      </trkpt>
      <trkpt lat="59.8535752" lon="17.7942606">
        <ele>28.9769</ele>
        <time>2014-06-10T18:53:04Z</time>
      </trkpt>
      <trkpt lat="59.8535334" lon="17.7941335">
        <ele>28.9769</ele>
        <time>2014-06-10T18:53:05Z</time>
      </trkpt>
      <trkpt lat="59.8534887" lon="17.7940093">
        <ele>28.4962</ele>
        <time>2014-06-10T18:53:06Z</time>
      </trkpt>
      <trkpt lat="59.8534445" lon="17.793883">
        <ele>28.0155</ele>
        <time>2014-06-10T18:53:07Z</time>
      </trkpt>
      <trkpt lat="59.8533996" lon="17.7937538">
        <ele>28.0155</ele>
        <time>2014-06-10T18:53:08Z</time>
      </trkpt>
      <trkpt lat="59.8533529" lon="17.7936231">
        <ele>28.0155</ele>
        <time>2014-06-10T18:53:09Z</time>
      </trkpt>
      <trkpt lat="59.8533078" lon="17.7934904">
        <ele>28.4962</ele>
        <time>2014-06-10T18:53:10Z</time>
      </trkpt>
      <trkpt lat="59.8532659" lon="17.7933561">
        <ele>28.0155</ele>
        <time>2014-06-10T18:53:11Z</time>
      </trkpt>
      <trkpt lat="59.8532244" lon="17.7932197">
        <ele>28.4962</ele>
        <time>2014-06-10T18:53:12Z</time>
      </trkpt>
      <trkpt lat="59.8531796" lon="17.7930914">
        <ele>28.0155</ele>
        <time>2014-06-10T18:53:13Z</time>
      </trkpt>
      <trkpt lat="59.8531353" lon="17.7929607">
        <ele>28.0155</ele>
        <time>2014-06-10T18:53:14Z</time>
      </trkpt>
      <trkpt lat="59.8530893" lon="17.7928327">
        <ele>28.0155</ele>
        <time>2014-06-10T18:53:15Z</time>
      </trkpt>
      <trkpt lat="59.8530415" lon="17.7927009">
        <ele>28.4962</ele>
        <time>2014-06-10T18:53:16Z</time>
      </trkpt>
      <trkpt lat="59.8529947" lon="17.7925727">
        <ele>28.0155</ele>
        <time>2014-06-10T18:53:17Z</time>
      </trkpt>
      <trkpt lat="59.8529465" lon="17.7924431">
        <ele>28.0155</ele>
        <time>2014-06-10T18:53:18Z</time>
      </trkpt>
      <trkpt lat="59.852901" lon="17.7923109">
        <ele>27.5349</ele>
        <time>2014-06-10T18:53:19Z</time>
      </trkpt>
      <trkpt lat="59.8528566" lon="17.7921741">
        <ele>28.0155</ele>
        <time>2014-06-10T18:53:20Z</time>
      </trkpt>
      <trkpt lat="59.8528083" lon="17.7920453">
        <ele>27.5349</ele>
        <time>2014-06-10T18:53:21Z</time>
      </trkpt>
      <trkpt lat="59.8527525" lon="17.7919044">
        <ele>27.5349</ele>
        <time>2014-06-10T18:53:22Z</time>
      </trkpt>
      <trkpt lat="59.852701" lon="17.7917705">
        <ele>28.0155</ele>
        <time>2014-06-10T18:53:23Z</time>
      </trkpt>
      <trkpt lat="59.8526504" lon="17.7916407">
        <ele>28.0155</ele>
        <time>2014-06-10T18:53:24Z</time>
      </trkpt>
      <trkpt lat="59.8526015" lon="17.79151">
        <ele>28.0155</ele>
        <time>2014-06-10T18:53:25Z</time>
      </trkpt>
      <trkpt lat="59.852552" lon="17.7913808">
        <ele>28.0155</ele>
        <time>2014-06-10T18:53:26Z</time>
      </trkpt>
      <trkpt lat="59.8525028" lon="17.791251">
        <ele>28.9769</ele>
        <time>2014-06-10T18:53:27Z</time>
      </trkpt>
      <trkpt lat="59.8524541" lon="17.7911231">
        <ele>29.4575</ele>
        <time>2014-06-10T18:53:28Z</time>
      </trkpt>
      <trkpt lat="59.8524047" lon="17.7909964">
        <ele>29.4575</ele>
        <time>2014-06-10T18:53:29Z</time>
      </trkpt>
      <trkpt lat="59.8523547" lon="17.7908725">
        <ele>29.9381</ele>
        <time>2014-06-10T18:53:30Z</time>
      </trkpt>
      <trkpt lat="59.8523042" lon="17.7907507">
        <ele>29.9381</ele>
        <time>2014-06-10T18:53:31Z</time>
      </trkpt>
      <trkpt lat="59.8522531" lon="17.7906304">
        <ele>30.4188</ele>
        <time>2014-06-10T18:53:32Z</time>
      </trkpt>
      <trkpt lat="59.8522013" lon="17.790511">
        <ele>30.4188</ele>
        <time>2014-06-10T18:53:33Z</time>
      </trkpt>
      <trkpt lat="59.8521489" lon="17.7903923">
        <ele>30.8995</ele>
        <time>2014-06-10T18:53:34Z</time>
      </trkpt>
      <trkpt lat="59.8520967" lon="17.7902727">
        <ele>30.8995</ele>
        <time>2014-06-10T18:53:35Z</time>
      </trkpt>
      <trkpt lat="59.8520462" lon="17.7901509">
        <ele>31.3801</ele>
        <time>2014-06-10T18:53:36Z</time>
      </trkpt>
      <trkpt lat="59.8519972" lon="17.7900275">
        <ele>31.3801</ele>
        <time>2014-06-10T18:53:37Z</time>
      </trkpt>
      <trkpt lat="59.8519483" lon="17.7899034">
        <ele>31.3801</ele>
        <time>2014-06-10T18:53:38Z</time>
      </trkpt>
      <trkpt lat="59.8518998" lon="17.789779">
        <ele>31.3801</ele>
        <time>2014-06-10T18:53:39Z</time>
      </trkpt>
      <trkpt lat="59.8518515" lon="17.7896561">
        <ele>31.3801</ele>
        <time>2014-06-10T18:53:40Z</time>
      </trkpt>
      <trkpt lat="59.851803" lon="17.7895365">
        <ele>31.3801</ele>
        <time>2014-06-10T18:53:41Z</time>
      </trkpt>
      <trkpt lat="59.8517542" lon="17.7894195">
        <ele>31.3801</ele>
        <time>2014-06-10T18:53:42Z</time>
      </trkpt>
      <trkpt lat="59.8517066" lon="17.7893033">
        <ele>31.8607</ele>
        <time>2014-06-10T18:53:43Z</time>
      </trkpt>
      <trkpt lat="59.8516605" lon="17.7891857">
        <ele>31.8607</ele>
        <time>2014-06-10T18:53:44Z</time>
      </trkpt>
      <trkpt lat="59.8516149" lon="17.7890684">
        <ele>31.8607</ele>
        <time>2014-06-10T18:53:45Z</time>
      </trkpt>
      <trkpt lat="59.8515697" lon="17.7889503">
        <ele>32.3416</ele>
        <time>2014-06-10T18:53:46Z</time>
      </trkpt>
      <trkpt lat="59.8515237" lon="17.7888353">
        <ele>32.3416</ele>
        <time>2014-06-10T18:53:47Z</time>
      </trkpt>
      <trkpt lat="59.8514774" lon="17.7887194">
        <ele>32.3416</ele>
        <time>2014-06-10T18:53:48Z</time>
      </trkpt>
      <trkpt lat="59.851431" lon="17.7886045">
        <ele>31.8607</ele>
        <time>2014-06-10T18:53:49Z</time>
      </trkpt>
      <trkpt lat="59.8513844" lon="17.788489">
        <ele>32.3416</ele>
        <time>2014-06-10T18:53:50Z</time>
      </trkpt>
      <trkpt lat="59.8513363" lon="17.7883771">
        <ele>31.8607</ele>
        <time>2014-06-10T18:53:51Z</time>
      </trkpt>
      <trkpt lat="59.8512871" lon="17.7882684">
        <ele>31.3801</ele>
        <time>2014-06-10T18:53:52Z</time>
      </trkpt>
      <trkpt lat="59.8512414" lon="17.7881544">
        <ele>30.8995</ele>
        <time>2014-06-10T18:53:53Z</time>
      </trkpt>
      <trkpt lat="59.8511959" lon="17.7880353">
        <ele>30.8995</ele>
        <time>2014-06-10T18:53:54Z</time>
      </trkpt>
      <trkpt lat="59.8511477" lon="17.7879165">
        <ele>30.8995</ele>
        <time>2014-06-10T18:53:55Z</time>
      </trkpt>
      <trkpt lat="59.851097" lon="17.7877968">
        <ele>30.4188</ele>
        <time>2014-06-10T18:53:56Z</time>
      </trkpt>
      <trkpt lat="59.8510449" lon="17.7876746">
        <ele>30.4188</ele>
        <time>2014-06-10T18:53:57Z</time>
      </trkpt>
      <trkpt lat="59.8509919" lon="17.7875489">
        <ele>30.4188</ele>
        <time>2014-06-10T18:53:58Z</time>
      </trkpt>
      <trkpt lat="59.850938" lon="17.78742">
        <ele>30.4188</ele>
        <time>2014-06-10T18:53:59Z</time>
      </trkpt>
      <trkpt lat="59.850883" lon="17.7872918">
        <ele>29.9381</ele>
        <time>2014-06-10T18:54:00Z</time>
      </trkpt>
      <trkpt lat="59.8508277" lon="17.7871604">
        <ele>29.9381</ele>
        <time>2014-06-10T18:54:01Z</time>
      </trkpt>
      <trkpt lat="59.8507725" lon="17.7870273">
        <ele>29.4575</ele>
        <time>2014-06-10T18:54:02Z</time>
      </trkpt>
      <trkpt lat="59.8507177" lon="17.7868901">
        <ele>29.4575</ele>
        <time>2014-06-10T18:54:03Z</time>
      </trkpt>
      <trkpt lat="59.8506624" lon="17.7867525">
        <ele>28.9769</ele>
        <time>2014-06-10T18:54:04Z</time>
      </trkpt>
      <trkpt lat="59.850607" lon="17.7866112">
        <ele>28.4962</ele>
        <time>2014-06-10T18:54:05Z</time>
      </trkpt>
      <trkpt lat="59.8505524" lon="17.7864679">
        <ele>28.0155</ele>
        <time>2014-06-10T18:54:06Z</time>
      </trkpt>
      <trkpt lat="59.8504989" lon="17.7863241">
        <ele>27.5349</ele>
        <time>2014-06-10T18:54:07Z</time>
      </trkpt>
      <trkpt lat="59.8504473" lon="17.7861778">
        <ele>27.5349</ele>
        <time>2014-06-10T18:54:08Z</time>
      </trkpt>
      <trkpt lat="59.8503963" lon="17.78603">
        <ele>27.0543</ele>
        <time>2014-06-10T18:54:09Z</time>
      </trkpt>
      <trkpt lat="59.8503418" lon="17.7858824">
        <ele>26.5736</ele>
        <time>2014-06-10T18:54:10Z</time>
      </trkpt>
      <trkpt lat="59.8502839" lon="17.7857341">
        <ele>25.6123</ele>
        <time>2014-06-10T18:54:11Z</time>
      </trkpt>
      <trkpt lat="59.8502241" lon="17.7855794">
        <ele>25.6123</ele>
        <time>2014-06-10T18:54:12Z</time>
      </trkpt>
      <trkpt lat="59.8501646" lon="17.7854173">
        <ele>25.1317</ele>
        <time>2014-06-10T18:54:13Z</time>
      </trkpt>
      <trkpt lat="59.8501074" lon="17.785247">
        <ele>25.1317</ele>
        <time>2014-06-10T18:54:14Z</time>
      </trkpt>
      <trkpt lat="59.8500527" lon="17.7850692">
        <ele>24.651</ele>
        <time>2014-06-10T18:54:15Z</time>
      </trkpt>
      <trkpt lat="59.8500003" lon="17.7848849">
        <ele>24.651</ele>
        <time>2014-06-10T18:54:16Z</time>
      </trkpt>
      <trkpt lat="59.8499474" lon="17.7846984">
        <ele>24.651</ele>
        <time>2014-06-10T18:54:17Z</time>
      </trkpt>
      <trkpt lat="59.8498954" lon="17.7845104">
        <ele>24.651</ele>
        <time>2014-06-10T18:54:18Z</time>
      </trkpt>
      <trkpt lat="59.8498465" lon="17.7843186">
        <ele>24.651</ele>
        <time>2014-06-10T18:54:19Z</time>
      </trkpt>
      <trkpt lat="59.8498034" lon="17.7841216">
        <ele>24.1703</ele>
        <time>2014-06-10T18:54:20Z</time>
      </trkpt>
      <trkpt lat="59.8497662" lon="17.7839192">
        <ele>23.6896</ele>
        <time>2014-06-10T18:54:21Z</time>
      </trkpt>
      <trkpt lat="59.8497305" lon="17.7837141">
        <ele>23.6896</ele>
        <time>2014-06-10T18:54:22Z</time>
      </trkpt>
      <trkpt lat="59.8496914" lon="17.7835126">
        <ele>23.6896</ele>
        <time>2014-06-10T18:54:23Z</time>
      </trkpt>
      <trkpt lat="59.8496489" lon="17.7833163">
        <ele>23.6896</ele>
        <time>2014-06-10T18:54:24Z</time>
      </trkpt>
      <trkpt lat="59.8496055" lon="17.7831224">
        <ele>23.6896</ele>
        <time>2014-06-10T18:54:25Z</time>
      </trkpt>
      <trkpt lat="59.8495632" lon="17.7829288">
        <ele>23.6896</ele>
        <time>2014-06-10T18:54:26Z</time>
      </trkpt>
      <trkpt lat="59.8495227" lon="17.7827339">
        <ele>23.6896</ele>
        <time>2014-06-10T18:54:27Z</time>
      </trkpt>
      <trkpt lat="59.8494828" lon="17.7825393">
        <ele>23.6896</ele>
        <time>2014-06-10T18:54:28Z</time>
      </trkpt>
      <trkpt lat="59.8494434" lon="17.7823455">
        <ele>23.6896</ele>
        <time>2014-06-10T18:54:29Z</time>
      </trkpt>
      <trkpt lat="59.8494038" lon="17.7821509">
        <ele>23.6896</ele>
        <time>2014-06-10T18:54:30Z</time>
      </trkpt>
      <trkpt lat="59.8493635" lon="17.781956">
        <ele>23.6896</ele>
        <time>2014-06-10T18:54:31Z</time>
      </trkpt>
      <trkpt lat="59.849323" lon="17.7817626">
        <ele>23.6896</ele>
        <time>2014-06-10T18:54:32Z</time>
      </trkpt>
      <trkpt lat="59.8492829" lon="17.7815716">
        <ele>23.6896</ele>
        <time>2014-06-10T18:54:33Z</time>
      </trkpt>
      <trkpt lat="59.8492441" lon="17.7813828">
        <ele>23.6896</ele>
        <time>2014-06-10T18:54:34Z</time>
      </trkpt>
      <trkpt lat="59.8492067" lon="17.7811964">
        <ele>24.1703</ele>
        <time>2014-06-10T18:54:35Z</time>
      </trkpt>
      <trkpt lat="59.8491709" lon="17.7810112">
        <ele>24.1703</ele>
        <time>2014-06-10T18:54:36Z</time>
      </trkpt>
      <trkpt lat="59.8491369" lon="17.7808272">
        <ele>24.1703</ele>
        <time>2014-06-10T18:54:37Z</time>
      </trkpt>
      <trkpt lat="59.8491052" lon="17.7806437">
        <ele>24.1703</ele>
        <time>2014-06-10T18:54:38Z</time>
      </trkpt>
      <trkpt lat="59.8490766" lon="17.7804594">
        <ele>24.1703</ele>
        <time>2014-06-10T18:54:39Z</time>
      </trkpt>
      <trkpt lat="59.8490504" lon="17.7802761">
        <ele>24.651</ele>
        <time>2014-06-10T18:54:40Z</time>
      </trkpt>
      <trkpt lat="59.8490227" lon="17.7800968">
        <ele>24.651</ele>
        <time>2014-06-10T18:54:41Z</time>
      </trkpt>
      <trkpt lat="59.8489898" lon="17.7799233">
        <ele>24.651</ele>
        <time>2014-06-10T18:54:42Z</time>
      </trkpt>
      <trkpt lat="59.8489539" lon="17.7797561">
        <ele>25.1317</ele>
        <time>2014-06-10T18:54:43Z</time>
      </trkpt>
      <trkpt lat="59.8489236" lon="17.7795882">
        <ele>25.1317</ele>
        <time>2014-06-10T18:54:44Z</time>
      </trkpt>
      <trkpt lat="59.8489032" lon="17.7794146">
        <ele>25.1317</ele>
        <time>2014-06-10T18:54:45Z</time>
      </trkpt>
      <trkpt lat="59.8488902" lon="17.7792376">
        <ele>25.1317</ele>
        <time>2014-06-10T18:54:46Z</time>
      </trkpt>
      <trkpt lat="59.8488783" lon="17.7790598">
        <ele>25.1317</ele>
        <time>2014-06-10T18:54:47Z</time>
      </trkpt>
      <trkpt lat="59.8488669" lon="17.7788827">
        <ele>25.1317</ele>
        <time>2014-06-10T18:54:48Z</time>
      </trkpt>
      <trkpt lat="59.8488569" lon="17.7787059">
        <ele>25.1317</ele>
        <time>2014-06-10T18:54:49Z</time>
      </trkpt>
      <trkpt lat="59.848848" lon="17.7785291">
        <ele>25.1317</ele>
        <time>2014-06-10T18:54:50Z</time>
      </trkpt>
      <trkpt lat="59.8488426" lon="17.7783528">
        <ele>24.651</ele>
        <time>2014-06-10T18:54:51Z</time>
      </trkpt>
      <trkpt lat="59.8488408" lon="17.7781745">
        <ele>24.651</ele>
        <time>2014-06-10T18:54:52Z</time>
      </trkpt>
      <trkpt lat="59.8488403" lon="17.7779947">
        <ele>24.651</ele>
        <time>2014-06-10T18:54:53Z</time>
      </trkpt>
      <trkpt lat="59.8488368" lon="17.7778149">
        <ele>24.1703</ele>
        <time>2014-06-10T18:54:54Z</time>
      </trkpt>
      <trkpt lat="59.8488285" lon="17.7776359">
        <ele>24.1703</ele>
        <time>2014-06-10T18:54:55Z</time>
      </trkpt>
      <trkpt lat="59.8488161" lon="17.7774575">
        <ele>24.1703</ele>
        <time>2014-06-10T18:54:56Z</time>
      </trkpt>
      <trkpt lat="59.848802" lon="17.7772785">
        <ele>23.6896</ele>
        <time>2014-06-10T18:54:57Z</time>
      </trkpt>
      <trkpt lat="59.8487892" lon="17.7770955">
        <ele>23.6896</ele>
        <time>2014-06-10T18:54:58Z</time>
      </trkpt>
      <trkpt lat="59.8487791" lon="17.7769116">
        <ele>23.6896</ele>
        <time>2014-06-10T18:54:59Z</time>
      </trkpt>
      <trkpt lat="59.8487698" lon="17.7767265">
        <ele>23.209</ele>
        <time>2014-06-10T18:55:00Z</time>
      </trkpt>
      <trkpt lat="59.848761" lon="17.7765387">
        <ele>23.209</ele>
        <time>2014-06-10T18:55:01Z</time>
      </trkpt>
      <trkpt lat="59.848756" lon="17.776339">
        <ele>22.7283</ele>
        <time>2014-06-10T18:55:02Z</time>
      </trkpt>
      <trkpt lat="59.848748" lon="17.7761388">
        <ele>22.7283</ele>
        <time>2014-06-10T18:55:03Z</time>
      </trkpt>
      <trkpt lat="59.8487377" lon="17.7759375">
        <ele>22.2476</ele>
        <time>2014-06-10T18:55:04Z</time>
      </trkpt>
      <trkpt lat="59.848725" lon="17.7757346">
        <ele>21.767</ele>
        <time>2014-06-10T18:55:05Z</time>
      </trkpt>
      <trkpt lat="59.848711" lon="17.7755279">
        <ele>21.2864</ele>
        <time>2014-06-10T18:55:06Z</time>
      </trkpt>
      <trkpt lat="59.848694" lon="17.7753208">
        <ele>20.8057</ele>
        <time>2014-06-10T18:55:07Z</time>
      </trkpt>
      <trkpt lat="59.8486737" lon="17.7751106">
        <ele>20.325</ele>
        <time>2014-06-10T18:55:08Z</time>
      </trkpt>
      <trkpt lat="59.848653" lon="17.7748979">
        <ele>20.325</ele>
        <time>2014-06-10T18:55:09Z</time>
      </trkpt>
      <trkpt lat="59.8486315" lon="17.774683">
        <ele>19.8444</ele>
        <time>2014-06-10T18:55:10Z</time>
      </trkpt>
      <trkpt lat="59.848608" lon="17.7744681">
        <ele>19.3638</ele>
        <time>2014-06-10T18:55:11Z</time>
      </trkpt>
      <trkpt lat="59.8485826" lon="17.7742542">
        <ele>18.8831</ele>
        <time>2014-06-10T18:55:12Z</time>
      </trkpt>
      <trkpt lat="59.8485564" lon="17.7740416">
        <ele>18.4023</ele>
        <time>2014-06-10T18:55:13Z</time>
      </trkpt>
      <trkpt lat="59.8485302" lon="17.7738293">
        <ele>17.9218</ele>
        <time>2014-06-10T18:55:14Z</time>
      </trkpt>
      <trkpt lat="59.8485053" lon="17.7736165">
        <ele>17.4412</ele>
        <time>2014-06-10T18:55:15Z</time>
      </trkpt>
      <trkpt lat="59.8484826" lon="17.7734026">
        <ele>16.9604</ele>
        <time>2014-06-10T18:55:16Z</time>
      </trkpt>
      <trkpt lat="59.8484623" lon="17.7731886">
        <ele>16.9604</ele>
        <time>2014-06-10T18:55:17Z</time>
      </trkpt>
      <trkpt lat="59.8484411" lon="17.7729752">
        <ele>15.999</ele>
        <time>2014-06-10T18:55:18Z</time>
      </trkpt>
      <trkpt lat="59.8484163" lon="17.7727599">
        <ele>15.0377</ele>
        <time>2014-06-10T18:55:19Z</time>
      </trkpt>
      <trkpt lat="59.8483855" lon="17.7725428">
        <ele>14.557</ele>
        <time>2014-06-10T18:55:20Z</time>
      </trkpt>
      <trkpt lat="59.8483497" lon="17.7723271">
        <ele>14.0764</ele>
        <time>2014-06-10T18:55:21Z</time>
      </trkpt>
      <trkpt lat="59.8483122" lon="17.7721142">
        <ele>13.5958</ele>
        <time>2014-06-10T18:55:22Z</time>
      </trkpt>
      <trkpt lat="59.8482748" lon="17.7719035">
        <ele>13.5958</ele>
        <time>2014-06-10T18:55:23Z</time>
      </trkpt>
      <trkpt lat="59.8482375" lon="17.7716963">
        <ele>13.1151</ele>
        <time>2014-06-10T18:55:24Z</time>
      </trkpt>
      <trkpt lat="59.8482003" lon="17.7714935">
        <ele>13.1151</ele>
        <time>2014-06-10T18:55:25Z</time>
      </trkpt>
      <trkpt lat="59.8481644" lon="17.7712947">
        <ele>13.1151</ele>
        <time>2014-06-10T18:55:26Z</time>
      </trkpt>
      <trkpt lat="59.8481318" lon="17.771098">
        <ele>13.1151</ele>
        <time>2014-06-10T18:55:27Z</time>
      </trkpt>
      <trkpt lat="59.8481059" lon="17.7709012">
        <ele>12.6344</ele>
        <time>2014-06-10T18:55:28Z</time>
      </trkpt>
      <trkpt lat="59.8480884" lon="17.7707025">
        <ele>12.6344</ele>
        <time>2014-06-10T18:55:29Z</time>
      </trkpt>
      <trkpt lat="59.8480743" lon="17.7705044">
        <ele>12.6344</ele>
        <time>2014-06-10T18:55:30Z</time>
      </trkpt>
      <trkpt lat="59.848052" lon="17.7703119">
        <ele>12.6344</ele>
        <time>2014-06-10T18:55:31Z</time>
      </trkpt>
      <trkpt lat="59.8480153" lon="17.7701312">
        <ele>13.1151</ele>
        <time>2014-06-10T18:55:32Z</time>
      </trkpt>
      <trkpt lat="59.847968" lon="17.769963">
        <ele>13.1151</ele>
        <time>2014-06-10T18:55:33Z</time>
      </trkpt>
      <trkpt lat="59.8479182" lon="17.7697992">
        <ele>13.1151</ele>
        <time>2014-06-10T18:55:34Z</time>
      </trkpt>
      <trkpt lat="59.8478728" lon="17.7696319">
        <ele>13.1151</ele>
        <time>2014-06-10T18:55:35Z</time>
      </trkpt>
      <trkpt lat="59.8478353" lon="17.7694612">
        <ele>13.1151</ele>
        <time>2014-06-10T18:55:36Z</time>
      </trkpt>
      <trkpt lat="59.8478044" lon="17.7692859">
        <ele>13.1151</ele>
        <time>2014-06-10T18:55:37Z</time>
      </trkpt>
      <trkpt lat="59.8477775" lon="17.7691062">
        <ele>13.1151</ele>
        <time>2014-06-10T18:55:38Z</time>
      </trkpt>
      <trkpt lat="59.8477516" lon="17.7689266">
        <ele>13.1151</ele>
        <time>2014-06-10T18:55:39Z</time>
      </trkpt>
      <trkpt lat="59.8477252" lon="17.7687478">
        <ele>13.1151</ele>
        <time>2014-06-10T18:55:40Z</time>
      </trkpt>
      <trkpt lat="59.8476975" lon="17.7685701">
        <ele>13.1151</ele>
        <time>2014-06-10T18:55:41Z</time>
      </trkpt>
      <trkpt lat="59.847668" lon="17.7683939">
        <ele>13.1151</ele>
        <time>2014-06-10T18:55:42Z</time>
      </trkpt>
      <trkpt lat="59.8476391" lon="17.7682178">
        <ele>13.1151</ele>
        <time>2014-06-10T18:55:43Z</time>
      </trkpt>
      <trkpt lat="59.847611" lon="17.768042">
        <ele>13.1151</ele>
        <time>2014-06-10T18:55:44Z</time>
      </trkpt>
      <trkpt lat="59.8475832" lon="17.7678671">
        <ele>13.5958</ele>
        <time>2014-06-10T18:55:45Z</time>
      </trkpt>
      <trkpt lat="59.8475548" lon="17.7676946">
        <ele>13.5958</ele>
        <time>2014-06-10T18:55:46Z</time>
      </trkpt>
      <trkpt lat="59.8475258" lon="17.7675247">
        <ele>13.5958</ele>
        <time>2014-06-10T18:55:47Z</time>
      </trkpt>
      <trkpt lat="59.8474967" lon="17.7673569">
        <ele>13.5958</ele>
        <time>2014-06-10T18:55:48Z</time>
      </trkpt>
      <trkpt lat="59.8474682" lon="17.7671907">
        <ele>13.5958</ele>
        <time>2014-06-10T18:55:49Z</time>
      </trkpt>
      <trkpt lat="59.8474412" lon="17.7670257">
        <ele>14.0764</ele>
        <time>2014-06-10T18:55:50Z</time>
      </trkpt>
      <trkpt lat="59.8474148" lon="17.7668615">
        <ele>14.0764</ele>
        <time>2014-06-10T18:55:51Z</time>
      </trkpt>
      <trkpt lat="59.8473883" lon="17.766699">
        <ele>14.0764</ele>
        <time>2014-06-10T18:55:52Z</time>
      </trkpt>
      <trkpt lat="59.8473621" lon="17.7665394">
        <ele>14.0764</ele>
        <time>2014-06-10T18:55:53Z</time>
      </trkpt>
      <trkpt lat="59.8473362" lon="17.7663808">
        <ele>14.557</ele>
        <time>2014-06-10T18:55:54Z</time>
      </trkpt>
      <trkpt lat="59.8473097" lon="17.7662215">
        <ele>14.0764</ele>
        <time>2014-06-10T18:55:55Z</time>
      </trkpt>
      <trkpt lat="59.8472818" lon="17.7660613">
        <ele>14.0764</ele>
        <time>2014-06-10T18:55:56Z</time>
      </trkpt>
      <trkpt lat="59.8472534" lon="17.7659013">
        <ele>14.0764</ele>
        <time>2014-06-10T18:55:57Z</time>
      </trkpt>
      <trkpt lat="59.8472261" lon="17.7657427">
        <ele>14.0764</ele>
        <time>2014-06-10T18:55:58Z</time>
      </trkpt>
      <trkpt lat="59.8472021" lon="17.7655844">
        <ele>14.0764</ele>
        <time>2014-06-10T18:55:59Z</time>
      </trkpt>
      <trkpt lat="59.8471902" lon="17.7654245">
        <ele>14.0764</ele>
        <time>2014-06-10T18:56:00Z</time>
      </trkpt>
      <trkpt lat="59.8471999" lon="17.7652667">
        <ele>14.0764</ele>
        <time>2014-06-10T18:56:01Z</time>
      </trkpt>
      <trkpt lat="59.8472344" lon="17.7651238">
        <ele>14.0764</ele>
        <time>2014-06-10T18:56:02Z</time>
      </trkpt>
      <trkpt lat="59.8472868" lon="17.7650046">
        <ele>14.0764</ele>
        <time>2014-06-10T18:56:03Z</time>
      </trkpt>
      <trkpt lat="59.8473439" lon="17.7648953">
        <ele>13.5958</ele>
        <time>2014-06-10T18:56:04Z</time>
      </trkpt>
      <trkpt lat="59.8474003" lon="17.7647849">
        <ele>13.5958</ele>
        <time>2014-06-10T18:56:05Z</time>
      </trkpt>
      <trkpt lat="59.8474563" lon="17.7646742">
        <ele>13.1151</ele>
        <time>2014-06-10T18:56:06Z</time>
      </trkpt>
      <trkpt lat="59.8475122" lon="17.7645621">
        <ele>12.6344</ele>
        <time>2014-06-10T18:56:07Z</time>
      </trkpt>
      <trkpt lat="59.8475677" lon="17.7644478">
        <ele>12.6344</ele>
        <time>2014-06-10T18:56:08Z</time>
      </trkpt>
      <trkpt lat="59.8476235" lon="17.7643343">
        <ele>12.1538</ele>
        <time>2014-06-10T18:56:09Z</time>
      </trkpt>
      <trkpt lat="59.8476799" lon="17.7642214">
        <ele>11.6732</ele>
        <time>2014-06-10T18:56:10Z</time>
      </trkpt>
      <trkpt lat="59.8477361" lon="17.7641078">
        <ele>11.6732</ele>
        <time>2014-06-10T18:56:11Z</time>
      </trkpt>
      <trkpt lat="59.8477915" lon="17.7639933">
        <ele>11.6732</ele>
        <time>2014-06-10T18:56:12Z</time>
      </trkpt>
      <trkpt lat="59.8478462" lon="17.7638798">
        <ele>11.1925</ele>
        <time>2014-06-10T18:56:13Z</time>
      </trkpt>
      <trkpt lat="59.8479008" lon="17.7637675">
        <ele>11.1925</ele>
        <time>2014-06-10T18:56:14Z</time>
      </trkpt>
      <trkpt lat="59.8479556" lon="17.7636557">
        <ele>10.7118</ele>
        <time>2014-06-10T18:56:15Z</time>
      </trkpt>
      <trkpt lat="59.8480101" lon="17.7635459">
        <ele>10.7118</ele>
        <time>2014-06-10T18:56:16Z</time>
      </trkpt>
      <trkpt lat="59.8480643" lon="17.763437">
        <ele>10.7118</ele>
        <time>2014-06-10T18:56:17Z</time>
      </trkpt>
      <trkpt lat="59.8481172" lon="17.7633273">
        <ele>10.7118</ele>
        <time>2014-06-10T18:56:18Z</time>
      </trkpt>
      <trkpt lat="59.8481695" lon="17.763219">
        <ele>10.2312</ele>
        <time>2014-06-10T18:56:19Z</time>
      </trkpt>
      <trkpt lat="59.848222" lon="17.7631134">
        <ele>10.2312</ele>
        <time>2014-06-10T18:56:20Z</time>
      </trkpt>
      <trkpt lat="59.8482726" lon="17.7630047">
        <ele>10.2312</ele>
        <time>2014-06-10T18:56:21Z</time>
      </trkpt>
      <trkpt lat="59.8483131" lon="17.7628829">
        <ele>10.2312</ele>
        <time>2014-06-10T18:56:22Z</time>
      </trkpt>
      <trkpt lat="59.8483393" lon="17.7627462">
        <ele>10.2312</ele>
        <time>2014-06-10T18:56:23Z</time>
      </trkpt>
      <trkpt lat="59.8483528" lon="17.7626008">
        <ele>10.2312</ele>
        <time>2014-06-10T18:56:24Z</time>
      </trkpt>
      <trkpt lat="59.8483593" lon="17.7624509">
        <ele>10.2312</ele>
        <time>2014-06-10T18:56:25Z</time>
      </trkpt>
      <trkpt lat="59.8483634" lon="17.7622984">
        <ele>10.2312</ele>
        <time>2014-06-10T18:56:26Z</time>
      </trkpt>
      <trkpt lat="59.8483669" lon="17.7621446">
        <ele>10.2312</ele>
        <time>2014-06-10T18:56:27Z</time>
      </trkpt>
      <trkpt lat="59.8483716" lon="17.7619906">
        <ele>10.2312</ele>
        <time>2014-06-10T18:56:28Z</time>
      </trkpt>
      <trkpt lat="59.8483772" lon="17.7618359">
        <ele>10.2312</ele>
        <time>2014-06-10T18:56:29Z</time>
      </trkpt>
      <trkpt lat="59.8483819" lon="17.7616806">
        <ele>10.2312</ele>
        <time>2014-06-10T18:56:30Z</time>
      </trkpt>
      <trkpt lat="59.8483857" lon="17.7615251">
        <ele>10.2312</ele>
        <time>2014-06-10T18:56:31Z</time>
      </trkpt>
      <trkpt lat="59.8483898" lon="17.761369">
        <ele>10.2312</ele>
        <time>2014-06-10T18:56:32Z</time>
      </trkpt>
      <trkpt lat="59.8483939" lon="17.7612127">
        <ele>10.2312</ele>
        <time>2014-06-10T18:56:33Z</time>
      </trkpt>
      <trkpt lat="59.8483976" lon="17.7610561">
        <ele>10.7118</ele>
        <time>2014-06-10T18:56:34Z</time>
      </trkpt>
      <trkpt lat="59.8484012" lon="17.7608985">
        <ele>10.7118</ele>
        <time>2014-06-10T18:56:35Z</time>
      </trkpt>
      <trkpt lat="59.8484046" lon="17.7607405">
        <ele>10.7118</ele>
        <time>2014-06-10T18:56:36Z</time>
      </trkpt>
      <trkpt lat="59.8484083" lon="17.7605824">
        <ele>10.7118</ele>
        <time>2014-06-10T18:56:37Z</time>
      </trkpt>
      <trkpt lat="59.8484127" lon="17.7604247">
        <ele>10.7118</ele>
        <time>2014-06-10T18:56:38Z</time>
      </trkpt>
      <trkpt lat="59.8484167" lon="17.7602679">
        <ele>10.7118</ele>
        <time>2014-06-10T18:56:39Z</time>
      </trkpt>
      <trkpt lat="59.8484201" lon="17.7601106">
        <ele>10.7118</ele>
        <time>2014-06-10T18:56:40Z</time>
      </trkpt>
      <trkpt lat="59.8484239" lon="17.7599529">
        <ele>10.7118</ele>
        <time>2014-06-10T18:56:41Z</time>
      </trkpt>
      <trkpt lat="59.8484279" lon="17.7597945">
        <ele>10.7118</ele>
        <time>2014-06-10T18:56:42Z</time>
      </trkpt>
      <trkpt lat="59.8484318" lon="17.7596361">
        <ele>11.1925</ele>
        <time>2014-06-10T18:56:43Z</time>
      </trkpt>
      <trkpt lat="59.8484359" lon="17.7594783">
        <ele>11.1925</ele>
        <time>2014-06-10T18:56:44Z</time>
      </trkpt>
      <trkpt lat="59.8484399" lon="17.7593213">
        <ele>11.1925</ele>
        <time>2014-06-10T18:56:45Z</time>
      </trkpt>
      <trkpt lat="59.848444" lon="17.7591654">
        <ele>11.1925</ele>
        <time>2014-06-10T18:56:46Z</time>
      </trkpt>
      <trkpt lat="59.8484474" lon="17.7590107">
        <ele>11.1925</ele>
        <time>2014-06-10T18:56:47Z</time>
      </trkpt>
      <trkpt lat="59.8484518" lon="17.758858">
        <ele>11.1925</ele>
        <time>2014-06-10T18:56:48Z</time>
      </trkpt>
      <trkpt lat="59.8484566" lon="17.7587072">
        <ele>11.6732</ele>
        <time>2014-06-10T18:56:49Z</time>
      </trkpt>
      <trkpt lat="59.8484596" lon="17.7585574">
        <ele>11.6732</ele>
        <time>2014-06-10T18:56:50Z</time>
      </trkpt>
      <trkpt lat="59.8484624" lon="17.7584082">
        <ele>11.6732</ele>
        <time>2014-06-10T18:56:51Z</time>
      </trkpt>
      <trkpt lat="59.8484671" lon="17.7582596">
        <ele>11.6732</ele>
        <time>2014-06-10T18:56:52Z</time>
      </trkpt>
      <trkpt lat="59.8484722" lon="17.7581115">
        <ele>11.6732</ele>
        <time>2014-06-10T18:56:53Z</time>
      </trkpt>
      <trkpt lat="59.8484753" lon="17.7579626">
        <ele>12.1538</ele>
        <time>2014-06-10T18:56:54Z</time>
      </trkpt>
      <trkpt lat="59.8484778" lon="17.7578127">
        <ele>12.1538</ele>
        <time>2014-06-10T18:56:55Z</time>
      </trkpt>
      <trkpt lat="59.8484811" lon="17.7576629">
        <ele>12.1538</ele>
        <time>2014-06-10T18:56:56Z</time>
      </trkpt>
      <trkpt lat="59.8484846" lon="17.7575129">
        <ele>12.1538</ele>
        <time>2014-06-10T18:56:57Z</time>
      </trkpt>
      <trkpt lat="59.8484867" lon="17.7573622">
        <ele>12.1538</ele>
        <time>2014-06-10T18:56:58Z</time>
      </trkpt>
      <trkpt lat="59.8484876" lon="17.7572105">
        <ele>12.1538</ele>
        <time>2014-06-10T18:56:59Z</time>
      </trkpt>
      <trkpt lat="59.848488" lon="17.7570588">
        <ele>12.1538</ele>
        <time>2014-06-10T18:57:00Z</time>
      </trkpt>
      <trkpt lat="59.8484872" lon="17.7569074">
        <ele>12.1538</ele>
        <time>2014-06-10T18:57:01Z</time>
      </trkpt>
      <trkpt lat="59.8484846" lon="17.7567553">
        <ele>12.1538</ele>
        <time>2014-06-10T18:57:02Z</time>
      </trkpt>
      <trkpt lat="59.8484799" lon="17.756601">
        <ele>12.1538</ele>
        <time>2014-06-10T18:57:03Z</time>
      </trkpt>
      <trkpt lat="59.8484736" lon="17.7564455">
        <ele>12.1538</ele>
        <time>2014-06-10T18:57:04Z</time>
      </trkpt>
      <trkpt lat="59.8484659" lon="17.7562894">
        <ele>12.6344</ele>
        <time>2014-06-10T18:57:05Z</time>
      </trkpt>
      <trkpt lat="59.8484572" lon="17.7561324">
        <ele>12.6344</ele>
        <time>2014-06-10T18:57:06Z</time>
      </trkpt>
      <trkpt lat="59.8484473" lon="17.7559762">
        <ele>12.6344</ele>
        <time>2014-06-10T18:57:07Z</time>
      </trkpt>
      <trkpt lat="59.8484357" lon="17.7558206">
        <ele>12.6344</ele>
        <time>2014-06-10T18:57:08Z</time>
      </trkpt>
      <trkpt lat="59.8484235" lon="17.7556652">
        <ele>12.6344</ele>
        <time>2014-06-10T18:57:09Z</time>
      </trkpt>
      <trkpt lat="59.848411" lon="17.7555096">
        <ele>12.6344</ele>
        <time>2014-06-10T18:57:10Z</time>
      </trkpt>
      <trkpt lat="59.8483979" lon="17.7553546">
        <ele>13.1151</ele>
        <time>2014-06-10T18:57:11Z</time>
      </trkpt>
      <trkpt lat="59.8483835" lon="17.7552006">
        <ele>13.1151</ele>
        <time>2014-06-10T18:57:12Z</time>
      </trkpt>
      <trkpt lat="59.8483671" lon="17.755048">
        <ele>13.1151</ele>
        <time>2014-06-10T18:57:13Z</time>
      </trkpt>
      <trkpt lat="59.84835" lon="17.7548967">
        <ele>13.1151</ele>
        <time>2014-06-10T18:57:14Z</time>
      </trkpt>
      <trkpt lat="59.8483331" lon="17.7547457">
        <ele>13.1151</ele>
        <time>2014-06-10T18:57:15Z</time>
      </trkpt>
      <trkpt lat="59.8483156" lon="17.7545953">
        <ele>13.5958</ele>
        <time>2014-06-10T18:57:16Z</time>
      </trkpt>
      <trkpt lat="59.8482979" lon="17.754445">
        <ele>13.5958</ele>
        <time>2014-06-10T18:57:17Z</time>
      </trkpt>
      <trkpt lat="59.8482793" lon="17.7542949">
        <ele>13.5958</ele>
        <time>2014-06-10T18:57:18Z</time>
      </trkpt>
      <trkpt lat="59.8482603" lon="17.754146">
        <ele>13.5958</ele>
        <time>2014-06-10T18:57:19Z</time>
      </trkpt>
      <trkpt lat="59.8482416" lon="17.7539982">
        <ele>14.0764</ele>
        <time>2014-06-10T18:57:20Z</time>
      </trkpt>
      <trkpt lat="59.8482233" lon="17.7538524">
        <ele>14.0764</ele>
        <time>2014-06-10T18:57:21Z</time>
      </trkpt>
      <trkpt lat="59.8482046" lon="17.7537085">
        <ele>14.557</ele>
        <time>2014-06-10T18:57:22Z</time>
      </trkpt>
      <trkpt lat="59.8481858" lon="17.7535663">
        <ele>14.557</ele>
        <time>2014-06-10T18:57:23Z</time>
      </trkpt>
      <trkpt lat="59.8481676" lon="17.7534254">
        <ele>15.0377</ele>
        <time>2014-06-10T18:57:24Z</time>
      </trkpt>
      <trkpt lat="59.8481498" lon="17.7532871">
        <ele>15.5184</ele>
        <time>2014-06-10T18:57:25Z</time>
      </trkpt>
      <trkpt lat="59.8481329" lon="17.753151">
        <ele>15.5184</ele>
        <time>2014-06-10T18:57:26Z</time>
      </trkpt>
      <trkpt lat="59.8481172" lon="17.7530168">
        <ele>15.999</ele>
        <time>2014-06-10T18:57:27Z</time>
      </trkpt>
      <trkpt lat="59.8481005" lon="17.7528861">
        <ele>16.4797</ele>
        <time>2014-06-10T18:57:28Z</time>
      </trkpt>
      <trkpt lat="59.8480836" lon="17.7527589">
        <ele>16.4797</ele>
        <time>2014-06-10T18:57:29Z</time>
      </trkpt>
      <trkpt lat="59.8480671" lon="17.7526355">
        <ele>16.9604</ele>
        <time>2014-06-10T18:57:30Z</time>
      </trkpt>
      <trkpt lat="59.8480505" lon="17.7525153">
        <ele>17.4412</ele>
        <time>2014-06-10T18:57:31Z</time>
      </trkpt>
      <trkpt lat="59.8480356" lon="17.7523973">
        <ele>17.4412</ele>
        <time>2014-06-10T18:57:32Z</time>
      </trkpt>
      <trkpt lat="59.8480215" lon="17.752281">
        <ele>17.9218</ele>
        <time>2014-06-10T18:57:33Z</time>
      </trkpt>
      <trkpt lat="59.8480075" lon="17.7521661">
        <ele>18.4023</ele>
        <time>2014-06-10T18:57:34Z</time>
      </trkpt>
      <trkpt lat="59.847995" lon="17.7520507">
        <ele>18.4023</ele>
        <time>2014-06-10T18:57:35Z</time>
      </trkpt>
      <trkpt lat="59.8479827" lon="17.751936">
        <ele>18.8831</ele>
        <time>2014-06-10T18:57:36Z</time>
      </trkpt>
      <trkpt lat="59.84797" lon="17.7518214">
        <ele>18.8831</ele>
        <time>2014-06-10T18:57:37Z</time>
      </trkpt>
      <trkpt lat="59.8479578" lon="17.7517072">
        <ele>19.3638</ele>
        <time>2014-06-10T18:57:38Z</time>
      </trkpt>
      <trkpt lat="59.8479447" lon="17.7515944">
        <ele>19.3638</ele>
        <time>2014-06-10T18:57:39Z</time>
      </trkpt>
      <trkpt lat="59.8479312" lon="17.7514809">
        <ele>19.8444</ele>
        <time>2014-06-10T18:57:40Z</time>
      </trkpt>
      <trkpt lat="59.8479194" lon="17.7513681">
        <ele>20.325</ele>
        <time>2014-06-10T18:57:41Z</time>
      </trkpt>
      <trkpt lat="59.847908" lon="17.7512567">
        <ele>20.325</ele>
        <time>2014-06-10T18:57:42Z</time>
      </trkpt>
      <trkpt lat="59.8478965" lon="17.7511461">
        <ele>20.325</ele>
        <time>2014-06-10T18:57:43Z</time>
      </trkpt>
      <trkpt lat="59.8478832" lon="17.7510344">
        <ele>20.8057</ele>
        <time>2014-06-10T18:57:44Z</time>
      </trkpt>
      <trkpt lat="59.84787" lon="17.7509205">
        <ele>20.8057</ele>
        <time>2014-06-10T18:57:45Z</time>
      </trkpt>
      <trkpt lat="59.8478579" lon="17.7508054">
        <ele>20.8057</ele>
        <time>2014-06-10T18:57:46Z</time>
      </trkpt>
      <trkpt lat="59.8478467" lon="17.7506882">
        <ele>20.8057</ele>
        <time>2014-06-10T18:57:47Z</time>
      </trkpt>
      <trkpt lat="59.8478364" lon="17.7505688">
        <ele>20.8057</ele>
        <time>2014-06-10T18:57:48Z</time>
      </trkpt>
      <trkpt lat="59.8478267" lon="17.7504499">
        <ele>20.8057</ele>
        <time>2014-06-10T18:57:49Z</time>
      </trkpt>
      <trkpt lat="59.8478177" lon="17.7503299">
        <ele>21.2864</ele>
        <time>2014-06-10T18:57:50Z</time>
      </trkpt>
      <trkpt lat="59.8478085" lon="17.7502116">
        <ele>21.2864</ele>
        <time>2014-06-10T18:57:51Z</time>
      </trkpt>
      <trkpt lat="59.8478004" lon="17.7500931">
        <ele>21.2864</ele>
        <time>2014-06-10T18:57:52Z</time>
      </trkpt>
      <trkpt lat="59.8477959" lon="17.7499728">
        <ele>21.2864</ele>
        <time>2014-06-10T18:57:53Z</time>
      </trkpt>
      <trkpt lat="59.8477914" lon="17.7498505">
        <ele>21.767</ele>
        <time>2014-06-10T18:57:54Z</time>
      </trkpt>
      <trkpt lat="59.8477851" lon="17.7497254">
        <ele>21.767</ele>
        <time>2014-06-10T18:57:55Z</time>
      </trkpt>
      <trkpt lat="59.8477784" lon="17.7495993">
        <ele>21.767</ele>
        <time>2014-06-10T18:57:56Z</time>
      </trkpt>
      <trkpt lat="59.8477713" lon="17.7494696">
        <ele>21.767</ele>
        <time>2014-06-10T18:57:57Z</time>
      </trkpt>
      <trkpt lat="59.8477638" lon="17.7493369">
        <ele>21.767</ele>
        <time>2014-06-10T18:57:58Z</time>
      </trkpt>
      <trkpt lat="59.8477578" lon="17.7492026">
        <ele>21.767</ele>
        <time>2014-06-10T18:57:59Z</time>
      </trkpt>
      <trkpt lat="59.8477535" lon="17.749066">
        <ele>21.767</ele>
        <time>2014-06-10T18:58:00Z</time>
      </trkpt>
      <trkpt lat="59.8477493" lon="17.7489266">
        <ele>21.767</ele>
        <time>2014-06-10T18:58:01Z</time>
      </trkpt>
      <trkpt lat="59.8477445" lon="17.7487841">
        <ele>21.767</ele>
        <time>2014-06-10T18:58:02Z</time>
      </trkpt>
      <trkpt lat="59.8477398" lon="17.7486392">
        <ele>21.767</ele>
        <time>2014-06-10T18:58:03Z</time>
      </trkpt>
      <trkpt lat="59.8477361" lon="17.7484931">
        <ele>21.767</ele>
        <time>2014-06-10T18:58:04Z</time>
      </trkpt>
      <trkpt lat="59.8477335" lon="17.7483459">
        <ele>21.767</ele>
        <time>2014-06-10T18:58:05Z</time>
      </trkpt>
      <trkpt lat="59.8477324" lon="17.7481973">
        <ele>21.767</ele>
        <time>2014-06-10T18:58:06Z</time>
      </trkpt>
      <trkpt lat="59.8477325" lon="17.7480466">
        <ele>21.767</ele>
        <time>2014-06-10T18:58:07Z</time>
      </trkpt>
      <trkpt lat="59.8477336" lon="17.7478938">
        <ele>21.767</ele>
        <time>2014-06-10T18:58:08Z</time>
      </trkpt>
      <trkpt lat="59.8477345" lon="17.7477392">
        <ele>21.767</ele>
        <time>2014-06-10T18:58:09Z</time>
      </trkpt>
      <trkpt lat="59.8477345" lon="17.7475824">
        <ele>21.2864</ele>
        <time>2014-06-10T18:58:10Z</time>
      </trkpt>
      <trkpt lat="59.8477349" lon="17.747425">
        <ele>21.2864</ele>
        <time>2014-06-10T18:58:11Z</time>
      </trkpt>
      <trkpt lat="59.8477367" lon="17.7472665">
        <ele>21.2864</ele>
        <time>2014-06-10T18:58:12Z</time>
      </trkpt>
      <trkpt lat="59.8477398" lon="17.7471062">
        <ele>20.8057</ele>
        <time>2014-06-10T18:58:13Z</time>
      </trkpt>
      <trkpt lat="59.8477428" lon="17.7469447">
        <ele>20.8057</ele>
        <time>2014-06-10T18:58:14Z</time>
      </trkpt>
      <trkpt lat="59.8477444" lon="17.7467835">
        <ele>20.325</ele>
        <time>2014-06-10T18:58:15Z</time>
      </trkpt>
      <trkpt lat="59.847746" lon="17.7466215">
        <ele>20.325</ele>
        <time>2014-06-10T18:58:16Z</time>
      </trkpt>
      <trkpt lat="59.8477485" lon="17.7464591">
        <ele>20.325</ele>
        <time>2014-06-10T18:58:17Z</time>
      </trkpt>
      <trkpt lat="59.8477512" lon="17.7462963">
        <ele>19.8444</ele>
        <time>2014-06-10T18:58:18Z</time>
      </trkpt>
      <trkpt lat="59.8477543" lon="17.746133">
        <ele>19.8444</ele>
        <time>2014-06-10T18:58:19Z</time>
      </trkpt>
      <trkpt lat="59.8477581" lon="17.7459675">
        <ele>19.8444</ele>
        <time>2014-06-10T18:58:20Z</time>
      </trkpt>
      <trkpt lat="59.8477614" lon="17.7458">
        <ele>19.3638</ele>
        <time>2014-06-10T18:58:21Z</time>
      </trkpt>
      <trkpt lat="59.8477639" lon="17.7456303">
        <ele>19.3638</ele>
        <time>2014-06-10T18:58:22Z</time>
      </trkpt>
      <trkpt lat="59.8477655" lon="17.7454576">
        <ele>18.8831</ele>
        <time>2014-06-10T18:58:23Z</time>
      </trkpt>
      <trkpt lat="59.847767" lon="17.7452846">
        <ele>18.8831</ele>
        <time>2014-06-10T18:58:24Z</time>
      </trkpt>
      <trkpt lat="59.8477696" lon="17.7451137">
        <ele>18.8831</ele>
        <time>2014-06-10T18:58:25Z</time>
      </trkpt>
      <trkpt lat="59.8477728" lon="17.7449437">
        <ele>18.8831</ele>
        <time>2014-06-10T18:58:26Z</time>
      </trkpt>
      <trkpt lat="59.8477764" lon="17.7447733">
        <ele>18.4023</ele>
        <time>2014-06-10T18:58:27Z</time>
      </trkpt>
      <trkpt lat="59.8477796" lon="17.7446018">
        <ele>18.4023</ele>
        <time>2014-06-10T18:58:28Z</time>
      </trkpt>
      <trkpt lat="59.8477821" lon="17.7444298">
        <ele>18.4023</ele>
        <time>2014-06-10T18:58:29Z</time>
      </trkpt>
      <trkpt lat="59.8477846" lon="17.7442576">
        <ele>18.4023</ele>
        <time>2014-06-10T18:58:30Z</time>
      </trkpt>
      <trkpt lat="59.8477874" lon="17.7440854">
        <ele>18.4023</ele>
        <time>2014-06-10T18:58:31Z</time>
      </trkpt>
      <trkpt lat="59.8477905" lon="17.7439141">
        <ele>18.4023</ele>
        <time>2014-06-10T18:58:32Z</time>
      </trkpt>
      <trkpt lat="59.847793" lon="17.7437434">
        <ele>18.4023</ele>
        <time>2014-06-10T18:58:33Z</time>
      </trkpt>
      <trkpt lat="59.8477947" lon="17.743573">
        <ele>18.4023</ele>
        <time>2014-06-10T18:58:34Z</time>
      </trkpt>
      <trkpt lat="59.8477967" lon="17.743402">
        <ele>17.9218</ele>
        <time>2014-06-10T18:58:35Z</time>
      </trkpt>
      <trkpt lat="59.8477994" lon="17.7432307">
        <ele>18.4023</ele>
        <time>2014-06-10T18:58:36Z</time>
      </trkpt>
      <trkpt lat="59.8478028" lon="17.7430607">
        <ele>18.4023</ele>
        <time>2014-06-10T18:58:37Z</time>
      </trkpt>
      <trkpt lat="59.8478056" lon="17.7428912">
        <ele>18.4023</ele>
        <time>2014-06-10T18:58:38Z</time>
      </trkpt>
      <trkpt lat="59.8478082" lon="17.7427219">
        <ele>18.4023</ele>
        <time>2014-06-10T18:58:39Z</time>
      </trkpt>
      <trkpt lat="59.8478112" lon="17.7425534">
        <ele>18.4023</ele>
        <time>2014-06-10T18:58:40Z</time>
      </trkpt>
      <trkpt lat="59.8478143" lon="17.7423858">
        <ele>18.4023</ele>
        <time>2014-06-10T18:58:41Z</time>
      </trkpt>
      <trkpt lat="59.8478169" lon="17.7422188">
        <ele>18.4023</ele>
        <time>2014-06-10T18:58:42Z</time>
      </trkpt>
      <trkpt lat="59.8478195" lon="17.7420521">
        <ele>18.4023</ele>
        <time>2014-06-10T18:58:43Z</time>
      </trkpt>
      <trkpt lat="59.8478216" lon="17.7418861">
        <ele>17.9218</ele>
        <time>2014-06-10T18:58:44Z</time>
      </trkpt>
      <trkpt lat="59.8478236" lon="17.7417205">
        <ele>18.4023</ele>
        <time>2014-06-10T18:58:45Z</time>
      </trkpt>
      <trkpt lat="59.8478257" lon="17.7415553">
        <ele>18.4023</ele>
        <time>2014-06-10T18:58:46Z</time>
      </trkpt>
      <trkpt lat="59.8478282" lon="17.7413901">
        <ele>17.9218</ele>
        <time>2014-06-10T18:58:47Z</time>
      </trkpt>
      <trkpt lat="59.8478303" lon="17.7412248">
        <ele>17.9218</ele>
        <time>2014-06-10T18:58:48Z</time>
      </trkpt>
      <trkpt lat="59.847832" lon="17.7410594">
        <ele>18.4023</ele>
        <time>2014-06-10T18:58:49Z</time>
      </trkpt>
      <trkpt lat="59.8478339" lon="17.7408937">
        <ele>18.4023</ele>
        <time>2014-06-10T18:58:50Z</time>
      </trkpt>
      <trkpt lat="59.8478366" lon="17.7407279">
        <ele>17.9218</ele>
        <time>2014-06-10T18:58:51Z</time>
      </trkpt>
      <trkpt lat="59.8478391" lon="17.7405628">
        <ele>17.9218</ele>
        <time>2014-06-10T18:58:52Z</time>
      </trkpt>
      <trkpt lat="59.8478411" lon="17.7403976">
        <ele>18.4023</ele>
        <time>2014-06-10T18:58:53Z</time>
      </trkpt>
      <trkpt lat="59.8478431" lon="17.7402309">
        <ele>18.4023</ele>
        <time>2014-06-10T18:58:54Z</time>
      </trkpt>
      <trkpt lat="59.8478444" lon="17.7400629">
        <ele>18.4023</ele>
        <time>2014-06-10T18:58:55Z</time>
      </trkpt>
      <trkpt lat="59.8478442" lon="17.7398939">
        <ele>18.4023</ele>
        <time>2014-06-10T18:58:56Z</time>
      </trkpt>
      <trkpt lat="59.8478407" lon="17.7397234">
        <ele>18.4023</ele>
        <time>2014-06-10T18:58:57Z</time>
      </trkpt>
      <trkpt lat="59.847834" lon="17.7395518">
        <ele>18.4023</ele>
        <time>2014-06-10T18:58:58Z</time>
      </trkpt>
      <trkpt lat="59.8478297" lon="17.73938">
        <ele>18.4023</ele>
        <time>2014-06-10T18:58:59Z</time>
      </trkpt>
      <trkpt lat="59.8478365" lon="17.7392139">
        <ele>18.4023</ele>
        <time>2014-06-10T18:59:00Z</time>
      </trkpt>
      <trkpt lat="59.8478603" lon="17.7390642">
        <ele>18.4023</ele>
        <time>2014-06-10T18:59:01Z</time>
      </trkpt>
      <trkpt lat="59.8479047" lon="17.7389419">
        <ele>17.9218</ele>
        <time>2014-06-10T18:59:02Z</time>
      </trkpt>
      <trkpt lat="59.847968" lon="17.7388611">
        <ele>17.9218</ele>
        <time>2014-06-10T18:59:03Z</time>
      </trkpt>
      <trkpt lat="59.8480418" lon="17.7388217">
        <ele>17.4412</ele>
        <time>2014-06-10T18:59:04Z</time>
      </trkpt>
      <trkpt lat="59.8481189" lon="17.7387973">
        <ele>16.9604</ele>
        <time>2014-06-10T18:59:05Z</time>
      </trkpt>
      <trkpt lat="59.8481972" lon="17.7387688">
        <ele>16.9604</ele>
        <time>2014-06-10T18:59:06Z</time>
      </trkpt>
      <trkpt lat="59.8482763" lon="17.7387343">
        <ele>16.9604</ele>
        <time>2014-06-10T18:59:07Z</time>
      </trkpt>
      <trkpt lat="59.8483561" lon="17.738698">
        <ele>16.9604</ele>
        <time>2014-06-10T18:59:08Z</time>
      </trkpt>
      <trkpt lat="59.8484367" lon="17.7386617">
        <ele>16.4797</ele>
        <time>2014-06-10T18:59:09Z</time>
      </trkpt>
      <trkpt lat="59.8485177" lon="17.738625">
        <ele>16.4797</ele>
        <time>2014-06-10T18:59:10Z</time>
      </trkpt>
      <trkpt lat="59.8485989" lon="17.7385872">
        <ele>16.4797</ele>
        <time>2014-06-10T18:59:11Z</time>
      </trkpt>
      <trkpt lat="59.8486794" lon="17.7385474">
        <ele>16.4797</ele>
        <time>2014-06-10T18:59:12Z</time>
      </trkpt>
      <trkpt lat="59.8487596" lon="17.7385078">
        <ele>16.4797</ele>
        <time>2014-06-10T18:59:13Z</time>
      </trkpt>
      <trkpt lat="59.84884" lon="17.7384688">
        <ele>16.4797</ele>
        <time>2014-06-10T18:59:14Z</time>
      </trkpt>
      <trkpt lat="59.8489202" lon="17.7384295">
        <ele>16.4797</ele>
        <time>2014-06-10T18:59:15Z</time>
      </trkpt>
      <trkpt lat="59.8490001" lon="17.7383903">
        <ele>16.4797</ele>
        <time>2014-06-10T18:59:16Z</time>
      </trkpt>
      <trkpt lat="59.8490798" lon="17.7383523">
        <ele>16.4797</ele>
        <time>2014-06-10T18:59:17Z</time>
      </trkpt>
      <trkpt lat="59.8491593" lon="17.7383162">
        <ele>16.4797</ele>
        <time>2014-06-10T18:59:18Z</time>
      </trkpt>
      <trkpt lat="59.8492387" lon="17.7382804">
        <ele>16.9604</ele>
        <time>2014-06-10T18:59:19Z</time>
      </trkpt>
      <trkpt lat="59.8493175" lon="17.7382451">
        <ele>16.9604</ele>
        <time>2014-06-10T18:59:20Z</time>
      </trkpt>
      <trkpt lat="59.8493961" lon="17.7382117">
        <ele>16.9604</ele>
        <time>2014-06-10T18:59:21Z</time>
      </trkpt>
      <trkpt lat="59.8494736" lon="17.7381799">
        <ele>16.9604</ele>
        <time>2014-06-10T18:59:22Z</time>
      </trkpt>
      <trkpt lat="59.8495512" lon="17.7381493">
        <ele>16.9604</ele>
        <time>2014-06-10T18:59:23Z</time>
      </trkpt>
      <trkpt lat="59.8496288" lon="17.7381205">
        <ele>16.9604</ele>
        <time>2014-06-10T18:59:24Z</time>
      </trkpt>
      <trkpt lat="59.8497061" lon="17.7380945">
        <ele>16.9604</ele>
        <time>2014-06-10T18:59:25Z</time>
      </trkpt>
      <trkpt lat="59.8497832" lon="17.7380692">
        <ele>16.9604</ele>
        <time>2014-06-10T18:59:26Z</time>
      </trkpt>
      <trkpt lat="59.84986" lon="17.7380422">
        <ele>16.9604</ele>
        <time>2014-06-10T18:59:27Z</time>
      </trkpt>
      <trkpt lat="59.8499367" lon="17.7380123">
        <ele>16.9604</ele>
        <time>2014-06-10T18:59:28Z</time>
      </trkpt>
      <trkpt lat="59.8500133" lon="17.7379807">
        <ele>16.9604</ele>
        <time>2014-06-10T18:59:29Z</time>
      </trkpt>
      <trkpt lat="59.8500904" lon="17.7379479">
        <ele>16.9604</ele>
        <time>2014-06-10T18:59:30Z</time>
      </trkpt>
      <trkpt lat="59.8501674" lon="17.7379107">
        <ele>16.9604</ele>
        <time>2014-06-10T18:59:31Z</time>
      </trkpt>
      <trkpt lat="59.8502448" lon="17.7378677">
        <ele>16.9604</ele>
        <time>2014-06-10T18:59:32Z</time>
      </trkpt>
      <trkpt lat="59.850323" lon="17.7378213">
        <ele>16.4797</ele>
        <time>2014-06-10T18:59:33Z</time>
      </trkpt>
      <trkpt lat="59.8504012" lon="17.7377723">
        <ele>16.4797</ele>
        <time>2014-06-10T18:59:34Z</time>
      </trkpt>
      <trkpt lat="59.8504785" lon="17.7377205">
        <ele>16.4797</ele>
        <time>2014-06-10T18:59:35Z</time>
      </trkpt>
      <trkpt lat="59.8505551" lon="17.7376664">
        <ele>16.4797</ele>
        <time>2014-06-10T18:59:36Z</time>
      </trkpt>
      <trkpt lat="59.8506312" lon="17.7376115">
        <ele>16.4797</ele>
        <time>2014-06-10T18:59:37Z</time>
      </trkpt>
      <trkpt lat="59.8507073" lon="17.7375562">
        <ele>15.999</ele>
        <time>2014-06-10T18:59:38Z</time>
      </trkpt>
      <trkpt lat="59.850783" lon="17.7374999">
        <ele>15.999</ele>
        <time>2014-06-10T18:59:39Z</time>
      </trkpt>
      <trkpt lat="59.850858" lon="17.7374424">
        <ele>15.999</ele>
        <time>2014-06-10T18:59:40Z</time>
      </trkpt>
      <trkpt lat="59.8509322" lon="17.7373839">
        <ele>15.999</ele>
        <time>2014-06-10T18:59:41Z</time>
      </trkpt>
      <trkpt lat="59.8510061" lon="17.7373259">
        <ele>15.999</ele>
        <time>2014-06-10T18:59:42Z</time>
      </trkpt>
      <trkpt lat="59.8510791" lon="17.7372678">
        <ele>15.999</ele>
        <time>2014-06-10T18:59:43Z</time>
      </trkpt>
      <trkpt lat="59.8511504" lon="17.7372062">
        <ele>15.999</ele>
        <time>2014-06-10T18:59:44Z</time>
      </trkpt>
      <trkpt lat="59.8512217" lon="17.7371432">
        <ele>15.999</ele>
        <time>2014-06-10T18:59:45Z</time>
      </trkpt>
      <trkpt lat="59.8512932" lon="17.7370795">
        <ele>15.5184</ele>
        <time>2014-06-10T18:59:46Z</time>
      </trkpt>
      <trkpt lat="59.8513642" lon="17.7370119">
        <ele>15.5184</ele>
        <time>2014-06-10T18:59:47Z</time>
      </trkpt>
      <trkpt lat="59.8514332" lon="17.7369393">
        <ele>15.5184</ele>
        <time>2014-06-10T18:59:48Z</time>
      </trkpt>
      <trkpt lat="59.851501" lon="17.7368627">
        <ele>15.5184</ele>
        <time>2014-06-10T18:59:49Z</time>
      </trkpt>
      <trkpt lat="59.8515673" lon="17.7367814">
        <ele>15.5184</ele>
        <time>2014-06-10T18:59:50Z</time>
      </trkpt>
      <trkpt lat="59.8516316" lon="17.7366929">
        <ele>15.5184</ele>
        <time>2014-06-10T18:59:51Z</time>
      </trkpt>
      <trkpt lat="59.8516947" lon="17.7365996">
        <ele>15.5184</ele>
        <time>2014-06-10T18:59:52Z</time>
      </trkpt>
      <trkpt lat="59.8517562" lon="17.7365027">
        <ele>15.5184</ele>
        <time>2014-06-10T18:59:53Z</time>
      </trkpt>
      <trkpt lat="59.8518164" lon="17.7364014">
        <ele>15.0377</ele>
        <time>2014-06-10T18:59:54Z</time>
      </trkpt>
      <trkpt lat="59.8518765" lon="17.7362981">
        <ele>15.0377</ele>
        <time>2014-06-10T18:59:55Z</time>
      </trkpt>
      <trkpt lat="59.8519379" lon="17.7361956">
        <ele>15.0377</ele>
        <time>2014-06-10T18:59:56Z</time>
      </trkpt>
      <trkpt lat="59.8520004" lon="17.7360946">
        <ele>15.0377</ele>
        <time>2014-06-10T18:59:57Z</time>
      </trkpt>
      <trkpt lat="59.8520647" lon="17.7359971">
        <ele>15.0377</ele>
        <time>2014-06-10T18:59:58Z</time>
      </trkpt>
      <trkpt lat="59.852131" lon="17.7359058">
        <ele>14.557</ele>
        <time>2014-06-10T18:59:59Z</time>
      </trkpt>
      <trkpt lat="59.8521987" lon="17.7358195">
        <ele>14.557</ele>
        <time>2014-06-10T19:00:00Z</time>
      </trkpt>
      <trkpt lat="59.8522671" lon="17.735735">
        <ele>14.557</ele>
        <time>2014-06-10T19:00:01Z</time>
      </trkpt>
      <trkpt lat="59.8523361" lon="17.7356512">
        <ele>14.557</ele>
        <time>2014-06-10T19:00:02Z</time>
      </trkpt>
      <trkpt lat="59.8524054" lon="17.7355682">
        <ele>14.557</ele>
        <time>2014-06-10T19:00:03Z</time>
      </trkpt>
      <trkpt lat="59.8524748" lon="17.7354848">
        <ele>14.557</ele>
        <time>2014-06-10T19:00:04Z</time>
      </trkpt>
      <trkpt lat="59.8525432" lon="17.7354017">
        <ele>14.557</ele>
        <time>2014-06-10T19:00:05Z</time>
      </trkpt>
      <trkpt lat="59.8526112" lon="17.7353202">
        <ele>14.557</ele>
        <time>2014-06-10T19:00:06Z</time>
      </trkpt>
      <trkpt lat="59.8526794" lon="17.7352398">
        <ele>14.0764</ele>
        <time>2014-06-10T19:00:07Z</time>
      </trkpt>
      <trkpt lat="59.8527478" lon="17.7351601">
        <ele>14.0764</ele>
        <time>2014-06-10T19:00:08Z</time>
      </trkpt>
      <trkpt lat="59.8528161" lon="17.7350819">
        <ele>14.0764</ele>
        <time>2014-06-10T19:00:09Z</time>
      </trkpt>
      <trkpt lat="59.8528841" lon="17.7350041">
        <ele>14.0764</ele>
        <time>2014-06-10T19:00:10Z</time>
      </trkpt>
      <trkpt lat="59.8529524" lon="17.7349263">
        <ele>14.0764</ele>
        <time>2014-06-10T19:00:11Z</time>
      </trkpt>
      <trkpt lat="59.8530203" lon="17.7348471">
        <ele>14.0764</ele>
        <time>2014-06-10T19:00:12Z</time>
      </trkpt>
      <trkpt lat="59.8530884" lon="17.7347661">
        <ele>14.0764</ele>
        <time>2014-06-10T19:00:13Z</time>
      </trkpt>
      <trkpt lat="59.8531563" lon="17.7346829">
        <ele>14.0764</ele>
        <time>2014-06-10T19:00:14Z</time>
      </trkpt>
      <trkpt lat="59.8532242" lon="17.7345993">
        <ele>13.5958</ele>
        <time>2014-06-10T19:00:15Z</time>
      </trkpt>
      <trkpt lat="59.8532925" lon="17.7345121">
        <ele>13.1151</ele>
        <time>2014-06-10T19:00:16Z</time>
      </trkpt>
      <trkpt lat="59.8533559" lon="17.7344146">
        <ele>13.1151</ele>
        <time>2014-06-10T19:00:17Z</time>
      </trkpt>
      <trkpt lat="59.8534176" lon="17.7343067">
        <ele>13.1151</ele>
        <time>2014-06-10T19:00:18Z</time>
      </trkpt>
      <trkpt lat="59.8534829" lon="17.7341866">
        <ele>13.1151</ele>
        <time>2014-06-10T19:00:19Z</time>
      </trkpt>
      <trkpt lat="59.8535455" lon="17.7340591">
        <ele>13.1151</ele>
        <time>2014-06-10T19:00:20Z</time>
      </trkpt>
      <trkpt lat="59.8536041" lon="17.7339233">
        <ele>12.6344</ele>
        <time>2014-06-10T19:00:21Z</time>
      </trkpt>
      <trkpt lat="59.8536573" lon="17.7337759">
        <ele>12.1538</ele>
        <time>2014-06-10T19:00:22Z</time>
      </trkpt>
      <trkpt lat="59.8537056" lon="17.7336173">
        <ele>11.6732</ele>
        <time>2014-06-10T19:00:23Z</time>
      </trkpt>
      <trkpt lat="59.8537494" lon="17.73345">
        <ele>11.1925</ele>
        <time>2014-06-10T19:00:24Z</time>
      </trkpt>
      <trkpt lat="59.8537875" lon="17.7332768">
        <ele>10.7118</ele>
        <time>2014-06-10T19:00:25Z</time>
      </trkpt>
      <trkpt lat="59.8538196" lon="17.7330977">
        <ele>10.2312</ele>
        <time>2014-06-10T19:00:26Z</time>
      </trkpt>
      <trkpt lat="59.853847" lon="17.7329148">
        <ele>10.2312</ele>
        <time>2014-06-10T19:00:27Z</time>
      </trkpt>
      <trkpt lat="59.8538703" lon="17.7327309">
        <ele>9.75061</ele>
        <time>2014-06-10T19:00:28Z</time>
      </trkpt>
      <trkpt lat="59.8538909" lon="17.732553">
        <ele>9.75061</ele>
        <time>2014-06-10T19:00:29Z</time>
      </trkpt>
      <trkpt lat="59.8539123" lon="17.7323696">
        <ele>9.2699</ele>
        <time>2014-06-10T19:00:30Z</time>
      </trkpt>
      <trkpt lat="59.8539335" lon="17.7321722">
        <ele>8.78918</ele>
        <time>2014-06-10T19:00:33Z</time>
      </trkpt>
      <trkpt lat="59.8539489" lon="17.7319566">
        <ele>8.30859</ele>
        <time>2014-06-10T19:00:34Z</time>
      </trkpt>
      <trkpt lat="59.8539657" lon="17.7317638">
        <ele>8.30859</ele>
        <time>2014-06-10T19:00:35Z</time>
      </trkpt>
      <trkpt lat="59.8539833" lon="17.7315686">
        <ele>8.78918</ele>
        <time>2014-06-10T19:00:36Z</time>
      </trkpt>
      <trkpt lat="59.8540023" lon="17.7313869">
        <ele>9.2699</ele>
        <time>2014-06-10T19:00:37Z</time>
      </trkpt>
      <trkpt lat="59.8540222" lon="17.7312183">
        <ele>9.75061</ele>
        <time>2014-06-10T19:00:38Z</time>
      </trkpt>
      <trkpt lat="59.8540457" lon="17.7310522">
        <ele>10.2312</ele>
        <time>2014-06-10T19:00:39Z</time>
      </trkpt>
      <trkpt lat="59.8540732" lon="17.7308958">
        <ele>10.7118</ele>
        <time>2014-06-10T19:00:40Z</time>
      </trkpt>
      <trkpt lat="59.8541022" lon="17.730744">
        <ele>10.7118</ele>
        <time>2014-06-10T19:00:41Z</time>
      </trkpt>
      <trkpt lat="59.8541338" lon="17.7305971">
        <ele>11.1925</ele>
        <time>2014-06-10T19:00:42Z</time>
      </trkpt>
      <trkpt lat="59.8541692" lon="17.7304574">
        <ele>11.6732</ele>
        <time>2014-06-10T19:00:43Z</time>
      </trkpt>
      <trkpt lat="59.8542073" lon="17.7303245">
        <ele>11.6732</ele>
        <time>2014-06-10T19:00:44Z</time>
      </trkpt>
      <trkpt lat="59.8542463" lon="17.7301952">
        <ele>12.1538</ele>
        <time>2014-06-10T19:00:45Z</time>
      </trkpt>
      <trkpt lat="59.8542868" lon="17.7300716">
        <ele>12.6344</ele>
        <time>2014-06-10T19:00:46Z</time>
      </trkpt>
      <trkpt lat="59.8543294" lon="17.7299535">
        <ele>12.6344</ele>
        <time>2014-06-10T19:00:47Z</time>
      </trkpt>
      <trkpt lat="59.8543733" lon="17.7298386">
        <ele>13.1151</ele>
        <time>2014-06-10T19:00:48Z</time>
      </trkpt>
      <trkpt lat="59.8544177" lon="17.7297235">
        <ele>13.1151</ele>
        <time>2014-06-10T19:00:49Z</time>
      </trkpt>
      <trkpt lat="59.8544619" lon="17.729607">
        <ele>13.1151</ele>
        <time>2014-06-10T19:00:50Z</time>
      </trkpt>
      <trkpt lat="59.854507" lon="17.7294891">
        <ele>13.1151</ele>
        <time>2014-06-10T19:00:51Z</time>
      </trkpt>
      <trkpt lat="59.8545531" lon="17.7293686">
        <ele>13.1151</ele>
        <time>2014-06-10T19:00:52Z</time>
      </trkpt>
      <trkpt lat="59.8546" lon="17.7292438">
        <ele>13.1151</ele>
        <time>2014-06-10T19:00:53Z</time>
      </trkpt>
      <trkpt lat="59.8546468" lon="17.7291173">
        <ele>13.5958</ele>
        <time>2014-06-10T19:00:54Z</time>
      </trkpt>
      <trkpt lat="59.8546935" lon="17.7289965">
        <ele>13.5958</ele>
        <time>2014-06-10T19:00:55Z</time>
      </trkpt>
      <trkpt lat="59.8547409" lon="17.7288786">
        <ele>13.5958</ele>
        <time>2014-06-10T19:00:56Z</time>
      </trkpt>
      <trkpt lat="59.8547882" lon="17.7287616">
        <ele>13.5958</ele>
        <time>2014-06-10T19:00:57Z</time>
      </trkpt>
      <trkpt lat="59.8548344" lon="17.7286444">
        <ele>14.0764</ele>
        <time>2014-06-10T19:00:58Z</time>
      </trkpt>
      <trkpt lat="59.8548794" lon="17.7285264">
        <ele>14.0764</ele>
        <time>2014-06-10T19:00:59Z</time>
      </trkpt>
      <trkpt lat="59.8549249" lon="17.7284078">
        <ele>14.0764</ele>
        <time>2014-06-10T19:01:00Z</time>
      </trkpt>
      <trkpt lat="59.8549709" lon="17.7282887">
        <ele>14.0764</ele>
        <time>2014-06-10T19:01:01Z</time>
      </trkpt>
      <trkpt lat="59.8550173" lon="17.7281704">
        <ele>14.0764</ele>
        <time>2014-06-10T19:01:02Z</time>
      </trkpt>
      <trkpt lat="59.8550636" lon="17.7280517">
        <ele>14.0764</ele>
        <time>2014-06-10T19:01:03Z</time>
      </trkpt>
      <trkpt lat="59.8551087" lon="17.7279332">
        <ele>14.0764</ele>
        <time>2014-06-10T19:01:04Z</time>
      </trkpt>
      <trkpt lat="59.8551534" lon="17.7278173">
        <ele>14.0764</ele>
        <time>2014-06-10T19:01:05Z</time>
      </trkpt>
      <trkpt lat="59.855198" lon="17.7277027">
        <ele>14.0764</ele>
        <time>2014-06-10T19:01:06Z</time>
      </trkpt>
      <trkpt lat="59.8552414" lon="17.7275866">
        <ele>13.5958</ele>
        <time>2014-06-10T19:01:07Z</time>
      </trkpt>
      <trkpt lat="59.8552838" lon="17.7274704">
        <ele>13.5958</ele>
        <time>2014-06-10T19:01:08Z</time>
      </trkpt>
      <trkpt lat="59.8553259" lon="17.727354">
        <ele>13.5958</ele>
        <time>2014-06-10T19:01:09Z</time>
      </trkpt>
      <trkpt lat="59.8553684" lon="17.7272368">
        <ele>13.5958</ele>
        <time>2014-06-10T19:01:10Z</time>
      </trkpt>
      <trkpt lat="59.8554117" lon="17.7271178">
        <ele>13.5958</ele>
        <time>2014-06-10T19:01:11Z</time>
      </trkpt>
      <trkpt lat="59.8554545" lon="17.7269956">
        <ele>13.5958</ele>
        <time>2014-06-10T19:01:12Z</time>
      </trkpt>
      <trkpt lat="59.8554975" lon="17.7268707">
        <ele>13.5958</ele>
        <time>2014-06-10T19:01:13Z</time>
      </trkpt>
      <trkpt lat="59.8555408" lon="17.7267433">
        <ele>13.5958</ele>
        <time>2014-06-10T19:01:14Z</time>
      </trkpt>
      <trkpt lat="59.8555842" lon="17.7266148">
        <ele>13.5958</ele>
        <time>2014-06-10T19:01:15Z</time>
      </trkpt>
      <trkpt lat="59.855628" lon="17.7264867">
        <ele>13.1151</ele>
        <time>2014-06-10T19:01:16Z</time>
      </trkpt>
      <trkpt lat="59.855672" lon="17.7263588">
        <ele>13.1151</ele>
        <time>2014-06-10T19:01:17Z</time>
      </trkpt>
      <trkpt lat="59.8557156" lon="17.7262303">
        <ele>13.1151</ele>
        <time>2014-06-10T19:01:18Z</time>
      </trkpt>
      <trkpt lat="59.855759" lon="17.7261016">
        <ele>13.1151</ele>
        <time>2014-06-10T19:01:19Z</time>
      </trkpt>
      <trkpt lat="59.8558025" lon="17.7259737">
        <ele>13.1151</ele>
        <time>2014-06-10T19:01:20Z</time>
      </trkpt>
      <trkpt lat="59.8558465" lon="17.7258486">
        <ele>13.1151</ele>
        <time>2014-06-10T19:01:21Z</time>
      </trkpt>
      <trkpt lat="59.8558914" lon="17.7257261">
        <ele>13.1151</ele>
        <time>2014-06-10T19:01:22Z</time>
      </trkpt>
      <trkpt lat="59.855937" lon="17.7256058">
        <ele>13.1151</ele>
        <time>2014-06-10T19:01:23Z</time>
      </trkpt>
      <trkpt lat="59.8559841" lon="17.7254886">
        <ele>13.1151</ele>
        <time>2014-06-10T19:01:24Z</time>
      </trkpt>
      <trkpt lat="59.856032" lon="17.7253749">
        <ele>13.5958</ele>
        <time>2014-06-10T19:01:25Z</time>
      </trkpt>
      <trkpt lat="59.8560798" lon="17.7252634">
        <ele>13.5958</ele>
        <time>2014-06-10T19:01:26Z</time>
      </trkpt>
      <trkpt lat="59.8561271" lon="17.7251527">
        <ele>13.5958</ele>
        <time>2014-06-10T19:01:27Z</time>
      </trkpt>
      <trkpt lat="59.856174" lon="17.7250423">
        <ele>13.5958</ele>
        <time>2014-06-10T19:01:28Z</time>
      </trkpt>
      <trkpt lat="59.8562203" lon="17.7249312">
        <ele>13.5958</ele>
        <time>2014-06-10T19:01:29Z</time>
      </trkpt>
      <trkpt lat="59.8562661" lon="17.7248184">
        <ele>13.5958</ele>
        <time>2014-06-10T19:01:30Z</time>
      </trkpt>
      <trkpt lat="59.8563117" lon="17.7247056">
        <ele>13.5958</ele>
        <time>2014-06-10T19:01:31Z</time>
      </trkpt>
      <trkpt lat="59.8563568" lon="17.7245929">
        <ele>13.5958</ele>
        <time>2014-06-10T19:01:32Z</time>
      </trkpt>
      <trkpt lat="59.8564014" lon="17.7244794">
        <ele>13.5958</ele>
        <time>2014-06-10T19:01:33Z</time>
      </trkpt>
      <trkpt lat="59.8564463" lon="17.7243671">
        <ele>13.5958</ele>
        <time>2014-06-10T19:01:34Z</time>
      </trkpt>
      <trkpt lat="59.8564921" lon="17.7242575">
        <ele>13.5958</ele>
        <time>2014-06-10T19:01:35Z</time>
      </trkpt>
      <trkpt lat="59.8565386" lon="17.7241513">
        <ele>13.5958</ele>
        <time>2014-06-10T19:01:36Z</time>
      </trkpt>
      <trkpt lat="59.8565863" lon="17.7240493">
        <ele>13.5958</ele>
        <time>2014-06-10T19:01:37Z</time>
      </trkpt>
      <trkpt lat="59.8566345" lon="17.7239493">
        <ele>13.5958</ele>
        <time>2014-06-10T19:01:38Z</time>
      </trkpt>
      <trkpt lat="59.8566827" lon="17.723849">
        <ele>13.5958</ele>
        <time>2014-06-10T19:01:39Z</time>
      </trkpt>
      <trkpt lat="59.8567313" lon="17.7237498">
        <ele>13.5958</ele>
        <time>2014-06-10T19:01:40Z</time>
      </trkpt>
      <trkpt lat="59.85678" lon="17.7236523">
        <ele>14.0764</ele>
        <time>2014-06-10T19:01:41Z</time>
      </trkpt>
      <trkpt lat="59.8568282" lon="17.7235559">
        <ele>14.0764</ele>
        <time>2014-06-10T19:01:42Z</time>
      </trkpt>
      <trkpt lat="59.8568752" lon="17.7234634">
        <ele>14.0764</ele>
        <time>2014-06-10T19:01:43Z</time>
      </trkpt>
      <trkpt lat="59.8569207" lon="17.7233752">
        <ele>14.557</ele>
        <time>2014-06-10T19:01:44Z</time>
      </trkpt>
      <trkpt lat="59.8569649" lon="17.7232907">
        <ele>14.557</ele>
        <time>2014-06-10T19:01:45Z</time>
      </trkpt>
      <trkpt lat="59.8570087" lon="17.7232109">
        <ele>14.557</ele>
        <time>2014-06-10T19:01:46Z</time>
      </trkpt>
      <trkpt lat="59.8570529" lon="17.7231353">
        <ele>15.0377</ele>
        <time>2014-06-10T19:01:47Z</time>
      </trkpt>
      <trkpt lat="59.857097" lon="17.7230701">
        <ele>15.0377</ele>
        <time>2014-06-10T19:01:48Z</time>
      </trkpt>
      <trkpt lat="59.8571426" lon="17.7229992">
        <ele>15.0377</ele>
        <time>2014-06-10T19:01:49Z</time>
      </trkpt>
      <trkpt lat="59.85719" lon="17.7229298">
        <ele>15.5184</ele>
        <time>2014-06-10T19:01:50Z</time>
      </trkpt>
      <trkpt lat="59.8572383" lon="17.7228581">
        <ele>15.5184</ele>
        <time>2014-06-10T19:01:51Z</time>
      </trkpt>
      <trkpt lat="59.8572896" lon="17.7227894">
        <ele>15.5184</ele>
        <time>2014-06-10T19:01:52Z</time>
      </trkpt>
      <trkpt lat="59.8573361" lon="17.7227138">
        <ele>15.999</ele>
        <time>2014-06-10T19:01:53Z</time>
      </trkpt>
      <trkpt lat="59.8573818" lon="17.7226304">
        <ele>16.4797</ele>
        <time>2014-06-10T19:01:54Z</time>
      </trkpt>
      <trkpt lat="59.8574275" lon="17.7225479">
        <ele>16.4797</ele>
        <time>2014-06-10T19:01:55Z</time>
      </trkpt>
      <trkpt lat="59.8574731" lon="17.7224687">
        <ele>16.4797</ele>
        <time>2014-06-10T19:01:56Z</time>
      </trkpt>
      <trkpt lat="59.8575167" lon="17.7223855">
        <ele>16.4797</ele>
        <time>2014-06-10T19:01:57Z</time>
      </trkpt>
      <trkpt lat="59.857555" lon="17.7222765">
        <ele>16.9604</ele>
        <time>2014-06-10T19:01:58Z</time>
      </trkpt>
      <trkpt lat="59.8575948" lon="17.7221808">
        <ele>17.4412</ele>
        <time>2014-06-10T19:01:59Z</time>
      </trkpt>
      <trkpt lat="59.8576363" lon="17.7220852">
        <ele>17.9218</ele>
        <time>2014-06-10T19:02:00Z</time>
      </trkpt>
      <trkpt lat="59.8576705" lon="17.7219787">
        <ele>17.9218</ele>
        <time>2014-06-10T19:02:01Z</time>
      </trkpt>
      <trkpt lat="59.8576953" lon="17.7218631">
        <ele>18.4023</ele>
        <time>2014-06-10T19:02:02Z</time>
      </trkpt>
      <trkpt lat="59.857714" lon="17.7217435">
        <ele>17.9218</ele>
        <time>2014-06-10T19:02:03Z</time>
      </trkpt>
      <trkpt lat="59.857728" lon="17.7216216">
        <ele>17.9218</ele>
        <time>2014-06-10T19:02:04Z</time>
      </trkpt>
      <trkpt lat="59.8577389" lon="17.7214962">
        <ele>17.9218</ele>
        <time>2014-06-10T19:02:05Z</time>
      </trkpt>
      <trkpt lat="59.8577455" lon="17.721366">
        <ele>17.9218</ele>
        <time>2014-06-10T19:02:06Z</time>
      </trkpt>
      <trkpt lat="59.857746" lon="17.7212336">
        <ele>17.9218</ele>
        <time>2014-06-10T19:02:07Z</time>
      </trkpt>
      <trkpt lat="59.8577414" lon="17.7210966">
        <ele>17.9218</ele>
        <time>2014-06-10T19:02:08Z</time>
      </trkpt>
      <trkpt lat="59.8577355" lon="17.7209571">
        <ele>17.4412</ele>
        <time>2014-06-10T19:02:09Z</time>
      </trkpt>
      <trkpt lat="59.8577316" lon="17.7208161">
        <ele>17.4412</ele>
        <time>2014-06-10T19:02:10Z</time>
      </trkpt>
      <trkpt lat="59.8577324" lon="17.7206697">
        <ele>16.9604</ele>
        <time>2014-06-10T19:02:11Z</time>
      </trkpt>
      <trkpt lat="59.8577345" lon="17.7205214">
        <ele>16.9604</ele>
        <time>2014-06-10T19:02:12Z</time>
      </trkpt>
      <trkpt lat="59.8577347" lon="17.7203692">
        <ele>16.9604</ele>
        <time>2014-06-10T19:02:13Z</time>
      </trkpt>
      <trkpt lat="59.8577316" lon="17.7202131">
        <ele>16.4797</ele>
        <time>2014-06-10T19:02:14Z</time>
      </trkpt>
      <trkpt lat="59.8577268" lon="17.7200547">
        <ele>16.4797</ele>
        <time>2014-06-10T19:02:15Z</time>
      </trkpt>
      <trkpt lat="59.8577201" lon="17.7198954">
        <ele>16.4797</ele>
        <time>2014-06-10T19:02:16Z</time>
      </trkpt>
      <trkpt lat="59.8577125" lon="17.7197356">
        <ele>16.4797</ele>
        <time>2014-06-10T19:02:17Z</time>
      </trkpt>
      <trkpt lat="59.8577041" lon="17.7195741">
        <ele>16.4797</ele>
        <time>2014-06-10T19:02:18Z</time>
      </trkpt>
      <trkpt lat="59.8576957" lon="17.7194114">
        <ele>16.4797</ele>
        <time>2014-06-10T19:02:19Z</time>
      </trkpt>
      <trkpt lat="59.8576891" lon="17.7192478">
        <ele>16.4797</ele>
        <time>2014-06-10T19:02:20Z</time>
      </trkpt>
      <trkpt lat="59.8576849" lon="17.719084">
        <ele>16.4797</ele>
        <time>2014-06-10T19:02:21Z</time>
      </trkpt>
      <trkpt lat="59.8576817" lon="17.7189199">
        <ele>16.9604</ele>
        <time>2014-06-10T19:02:22Z</time>
      </trkpt>
      <trkpt lat="59.8576797" lon="17.7187566">
        <ele>16.9604</ele>
        <time>2014-06-10T19:02:23Z</time>
      </trkpt>
      <trkpt lat="59.8576794" lon="17.7185936">
        <ele>16.9604</ele>
        <time>2014-06-10T19:02:24Z</time>
      </trkpt>
      <trkpt lat="59.8576802" lon="17.7184319">
        <ele>17.4412</ele>
        <time>2014-06-10T19:02:25Z</time>
      </trkpt>
      <trkpt lat="59.8576822" lon="17.7182718">
        <ele>17.4412</ele>
        <time>2014-06-10T19:02:26Z</time>
      </trkpt>
      <trkpt lat="59.8576864" lon="17.7181127">
        <ele>17.4412</ele>
        <time>2014-06-10T19:02:27Z</time>
      </trkpt>
      <trkpt lat="59.8576908" lon="17.7179546">
        <ele>17.4412</ele>
        <time>2014-06-10T19:02:28Z</time>
      </trkpt>
      <trkpt lat="59.8576941" lon="17.7178003">
        <ele>17.9218</ele>
        <time>2014-06-10T19:02:29Z</time>
      </trkpt>
      <trkpt lat="59.8576959" lon="17.7176471">
        <ele>17.9218</ele>
        <time>2014-06-10T19:02:30Z</time>
      </trkpt>
      <trkpt lat="59.8576969" lon="17.7174916">
        <ele>17.9218</ele>
        <time>2014-06-10T19:02:31Z</time>
      </trkpt>
      <trkpt lat="59.8576972" lon="17.7173338">
        <ele>17.9218</ele>
        <time>2014-06-10T19:02:32Z</time>
      </trkpt>
      <trkpt lat="59.8576943" lon="17.7171747">
        <ele>17.4412</ele>
        <time>2014-06-10T19:02:33Z</time>
      </trkpt>
      <trkpt lat="59.8576881" lon="17.7170137">
        <ele>17.4412</ele>
        <time>2014-06-10T19:02:34Z</time>
      </trkpt>
      <trkpt lat="59.8576798" lon="17.7168507">
        <ele>17.4412</ele>
        <time>2014-06-10T19:02:35Z</time>
      </trkpt>
      <trkpt lat="59.8576703" lon="17.716687">
        <ele>17.4412</ele>
        <time>2014-06-10T19:02:36Z</time>
      </trkpt>
      <trkpt lat="59.857661" lon="17.716522">
        <ele>17.9218</ele>
        <time>2014-06-10T19:02:37Z</time>
      </trkpt>
      <trkpt lat="59.857654" lon="17.7163557">
        <ele>17.9218</ele>
        <time>2014-06-10T19:02:38Z</time>
      </trkpt>
      <trkpt lat="59.8576508" lon="17.7161883">
        <ele>17.9218</ele>
        <time>2014-06-10T19:02:39Z</time>
      </trkpt>
      <trkpt lat="59.8576534" lon="17.7160211">
        <ele>17.9218</ele>
        <time>2014-06-10T19:02:40Z</time>
      </trkpt>
      <trkpt lat="59.8576642" lon="17.7158551">
        <ele>17.9218</ele>
        <time>2014-06-10T19:02:41Z</time>
      </trkpt>
      <trkpt lat="59.8576818" lon="17.715691">
        <ele>17.9218</ele>
        <time>2014-06-10T19:02:42Z</time>
      </trkpt>
      <trkpt lat="59.8577042" lon="17.715529">
        <ele>17.9218</ele>
        <time>2014-06-10T19:02:43Z</time>
      </trkpt>
      <trkpt lat="59.8577304" lon="17.7153693">
        <ele>18.4023</ele>
        <time>2014-06-10T19:02:44Z</time>
      </trkpt>
      <trkpt lat="59.8577585" lon="17.7152125">
        <ele>18.4023</ele>
        <time>2014-06-10T19:02:45Z</time>
      </trkpt>
      <trkpt lat="59.8577891" lon="17.7150582">
        <ele>18.4023</ele>
        <time>2014-06-10T19:02:46Z</time>
      </trkpt>
      <trkpt lat="59.8578222" lon="17.7149058">
        <ele>18.4023</ele>
        <time>2014-06-10T19:02:47Z</time>
      </trkpt>
      <trkpt lat="59.8578589" lon="17.7147554">
        <ele>18.4023</ele>
        <time>2014-06-10T19:02:48Z</time>
      </trkpt>
      <trkpt lat="59.857901" lon="17.7146095">
        <ele>18.4023</ele>
        <time>2014-06-10T19:02:49Z</time>
      </trkpt>
      <trkpt lat="59.8579481" lon="17.7144699">
        <ele>18.4023</ele>
        <time>2014-06-10T19:02:50Z</time>
      </trkpt>
      <trkpt lat="59.8579976" lon="17.7143335">
        <ele>18.4023</ele>
        <time>2014-06-10T19:02:51Z</time>
      </trkpt>
      <trkpt lat="59.858047" lon="17.7141988">
        <ele>18.4023</ele>
        <time>2014-06-10T19:02:52Z</time>
      </trkpt>
      <trkpt lat="59.8580947" lon="17.7140646">
        <ele>18.4023</ele>
        <time>2014-06-10T19:02:53Z</time>
      </trkpt>
      <trkpt lat="59.8581377" lon="17.7139282">
        <ele>18.4023</ele>
        <time>2014-06-10T19:02:54Z</time>
      </trkpt>
      <trkpt lat="59.8581729" lon="17.7137862">
        <ele>18.4023</ele>
        <time>2014-06-10T19:02:55Z</time>
      </trkpt>
      <trkpt lat="59.8582003" lon="17.7136388">
        <ele>18.4023</ele>
        <time>2014-06-10T19:02:56Z</time>
      </trkpt>
      <trkpt lat="59.858223" lon="17.7134885">
        <ele>18.4023</ele>
        <time>2014-06-10T19:02:57Z</time>
      </trkpt>
      <trkpt lat="59.8582421" lon="17.713336">
        <ele>17.9218</ele>
        <time>2014-06-10T19:02:58Z</time>
      </trkpt>
      <trkpt lat="59.8582582" lon="17.7131819">
        <ele>17.9218</ele>
        <time>2014-06-10T19:02:59Z</time>
      </trkpt>
      <trkpt lat="59.8582727" lon="17.7130275">
        <ele>17.9218</ele>
        <time>2014-06-10T19:03:00Z</time>
      </trkpt>
      <trkpt lat="59.8582874" lon="17.7128746">
        <ele>18.4023</ele>
        <time>2014-06-10T19:03:01Z</time>
      </trkpt>
      <trkpt lat="59.8583043" lon="17.7127243">
        <ele>18.4023</ele>
        <time>2014-06-10T19:03:02Z</time>
      </trkpt>
      <trkpt lat="59.8583236" lon="17.7125772">
        <ele>18.4023</ele>
        <time>2014-06-10T19:03:03Z</time>
      </trkpt>
      <trkpt lat="59.8583475" lon="17.7124352">
        <ele>18.8831</ele>
        <time>2014-06-10T19:03:04Z</time>
      </trkpt>
      <trkpt lat="59.8583763" lon="17.7122987">
        <ele>18.8831</ele>
        <time>2014-06-10T19:03:05Z</time>
      </trkpt>
      <trkpt lat="59.8584069" lon="17.7121651">
        <ele>18.8831</ele>
        <time>2014-06-10T19:03:06Z</time>
      </trkpt>
      <trkpt lat="59.8584375" lon="17.7120323">
        <ele>19.3638</ele>
        <time>2014-06-10T19:03:07Z</time>
      </trkpt>
      <trkpt lat="59.858467" lon="17.7118982">
        <ele>19.3638</ele>
        <time>2014-06-10T19:03:08Z</time>
      </trkpt>
      <trkpt lat="59.8584944" lon="17.711764">
        <ele>19.3638</ele>
        <time>2014-06-10T19:03:09Z</time>
      </trkpt>
      <trkpt lat="59.8585184" lon="17.7116276">
        <ele>18.8831</ele>
        <time>2014-06-10T19:03:10Z</time>
      </trkpt>
      <trkpt lat="59.8585381" lon="17.7114863">
        <ele>18.8831</ele>
        <time>2014-06-10T19:03:11Z</time>
      </trkpt>
      <trkpt lat="59.8585514" lon="17.7113429">
        <ele>18.4023</ele>
        <time>2014-06-10T19:03:12Z</time>
      </trkpt>
      <trkpt lat="59.8585557" lon="17.7111977">
        <ele>18.4023</ele>
        <time>2014-06-10T19:03:13Z</time>
      </trkpt>
      <trkpt lat="59.8585476" lon="17.7110542">
        <ele>18.4023</ele>
        <time>2014-06-10T19:03:14Z</time>
      </trkpt>
      <trkpt lat="59.8585419" lon="17.7108995">
        <ele>18.4023</ele>
        <time>2014-06-10T19:03:15Z</time>
      </trkpt>
      <trkpt lat="59.8585293" lon="17.7107501">
        <ele>18.4023</ele>
        <time>2014-06-10T19:03:16Z</time>
      </trkpt>
      <trkpt lat="59.8585099" lon="17.710604">
        <ele>18.4023</ele>
        <time>2014-06-10T19:03:17Z</time>
      </trkpt>
      <trkpt lat="59.8584878" lon="17.7104605">
        <ele>18.4023</ele>
        <time>2014-06-10T19:03:18Z</time>
      </trkpt>
      <trkpt lat="59.8584634" lon="17.7103226">
        <ele>18.4023</ele>
        <time>2014-06-10T19:03:19Z</time>
      </trkpt>
      <trkpt lat="59.8584408" lon="17.7101856">
        <ele>18.4023</ele>
        <time>2014-06-10T19:03:20Z</time>
      </trkpt>
      <trkpt lat="59.8584148" lon="17.7100551">
        <ele>18.4023</ele>
        <time>2014-06-10T19:03:21Z</time>
      </trkpt>
      <trkpt lat="59.8583924" lon="17.7099154">
        <ele>17.9218</ele>
        <time>2014-06-10T19:03:22Z</time>
      </trkpt>
      <trkpt lat="59.8583719" lon="17.7097702">
        <ele>17.9218</ele>
        <time>2014-06-10T19:03:23Z</time>
      </trkpt>
      <trkpt lat="59.858353" lon="17.709624">
        <ele>17.4412</ele>
        <time>2014-06-10T19:03:24Z</time>
      </trkpt>
      <trkpt lat="59.8583443" lon="17.7094589">
        <ele>17.4412</ele>
        <time>2014-06-10T19:03:25Z</time>
      </trkpt>
      <trkpt lat="59.8583402" lon="17.7093016">
        <ele>17.4412</ele>
        <time>2014-06-10T19:03:26Z</time>
      </trkpt>
      <trkpt lat="59.8583392" lon="17.7091507">
        <ele>17.4412</ele>
        <time>2014-06-10T19:03:27Z</time>
      </trkpt>
      <trkpt lat="59.8583449" lon="17.7090005">
        <ele>17.4412</ele>
        <time>2014-06-10T19:03:28Z</time>
      </trkpt>
      <trkpt lat="59.8583572" lon="17.7088517">
        <ele>17.4412</ele>
        <time>2014-06-10T19:03:29Z</time>
      </trkpt>
      <trkpt lat="59.858375" lon="17.7086985">
        <ele>17.4412</ele>
        <time>2014-06-10T19:03:30Z</time>
      </trkpt>
      <trkpt lat="59.8583911" lon="17.7085488">
        <ele>17.4412</ele>
        <time>2014-06-10T19:03:31Z</time>
      </trkpt>
      <trkpt lat="59.8584075" lon="17.7083981">
        <ele>17.4412</ele>
        <time>2014-06-10T19:03:32Z</time>
      </trkpt>
      <trkpt lat="59.8584247" lon="17.7082447">
        <ele>16.9604</ele>
        <time>2014-06-10T19:03:33Z</time>
      </trkpt>
      <trkpt lat="59.8584387" lon="17.7080907">
        <ele>16.9604</ele>
        <time>2014-06-10T19:03:34Z</time>
      </trkpt>
      <trkpt lat="59.8584552" lon="17.707924">
        <ele>16.9604</ele>
        <time>2014-06-10T19:03:35Z</time>
      </trkpt>
      <trkpt lat="59.8584718" lon="17.7077576">
        <ele>16.9604</ele>
        <time>2014-06-10T19:03:36Z</time>
      </trkpt>
      <trkpt lat="59.8584887" lon="17.707594">
        <ele>16.9604</ele>
        <time>2014-06-10T19:03:37Z</time>
      </trkpt>
      <trkpt lat="59.8585035" lon="17.7074319">
        <ele>16.9604</ele>
        <time>2014-06-10T19:03:38Z</time>
      </trkpt>
      <trkpt lat="59.8585193" lon="17.7072691">
        <ele>16.9604</ele>
        <time>2014-06-10T19:03:39Z</time>
      </trkpt>
      <trkpt lat="59.8585345" lon="17.7071056">
        <ele>16.9604</ele>
        <time>2014-06-10T19:03:40Z</time>
      </trkpt>
      <trkpt lat="59.85855" lon="17.7069435">
        <ele>16.9604</ele>
        <time>2014-06-10T19:03:41Z</time>
      </trkpt>
      <trkpt lat="59.8585675" lon="17.706783">
        <ele>16.9604</ele>
        <time>2014-06-10T19:03:42Z</time>
      </trkpt>
      <trkpt lat="59.8585868" lon="17.7066265">
        <ele>16.9604</ele>
        <time>2014-06-10T19:03:43Z</time>
      </trkpt>
      <trkpt lat="59.8586075" lon="17.7064696">
        <ele>16.9604</ele>
        <time>2014-06-10T19:03:44Z</time>
      </trkpt>
      <trkpt lat="59.8586313" lon="17.7063183">
        <ele>16.9604</ele>
        <time>2014-06-10T19:03:45Z</time>
      </trkpt>
      <trkpt lat="59.8586573" lon="17.7061727">
        <ele>16.9604</ele>
        <time>2014-06-10T19:03:46Z</time>
      </trkpt>
      <trkpt lat="59.8586827" lon="17.7060292">
        <ele>16.9604</ele>
        <time>2014-06-10T19:03:47Z</time>
      </trkpt>
      <trkpt lat="59.858708" lon="17.7058909">
        <ele>16.9604</ele>
        <time>2014-06-10T19:03:48Z</time>
      </trkpt>
      <trkpt lat="59.8587328" lon="17.7057603">
        <ele>16.9604</ele>
        <time>2014-06-10T19:03:49Z</time>
      </trkpt>
      <trkpt lat="59.8587568" lon="17.7056365">
        <ele>16.9604</ele>
        <time>2014-06-10T19:03:50Z</time>
      </trkpt>
      <trkpt lat="59.8587825" lon="17.7055187">
        <ele>16.9604</ele>
        <time>2014-06-10T19:03:51Z</time>
      </trkpt>
      <trkpt lat="59.8588064" lon="17.7054022">
        <ele>16.4797</ele>
        <time>2014-06-10T19:03:52Z</time>
      </trkpt>
      <trkpt lat="59.858827" lon="17.7052838">
        <ele>16.4797</ele>
        <time>2014-06-10T19:03:53Z</time>
      </trkpt>
      <trkpt lat="59.8588466" lon="17.7051683">
        <ele>16.4797</ele>
        <time>2014-06-10T19:03:54Z</time>
      </trkpt>
      <trkpt lat="59.8588628" lon="17.7050677">
        <ele>16.4797</ele>
        <time>2014-06-10T19:03:55Z</time>
      </trkpt>
      <trkpt lat="59.8588784" lon="17.7049823">
        <ele>16.4797</ele>
        <time>2014-06-10T19:03:56Z</time>
      </trkpt>
      <trkpt lat="59.8589028" lon="17.7049147">
        <ele>16.4797</ele>
        <time>2014-06-10T19:03:57Z</time>
      </trkpt>
      <trkpt lat="59.858934" lon="17.7048616">
        <ele>15.999</ele>
        <time>2014-06-10T19:03:58Z</time>
      </trkpt>
      <trkpt lat="59.858969" lon="17.7048127">
        <ele>15.999</ele>
        <time>2014-06-10T19:03:59Z</time>
      </trkpt>
      <trkpt lat="59.8590072" lon="17.7047624">
        <ele>15.999</ele>
        <time>2014-06-10T19:04:00Z</time>
      </trkpt>
      <trkpt lat="59.8590469" lon="17.7047057">
        <ele>15.5184</ele>
        <time>2014-06-10T19:04:01Z</time>
      </trkpt>
      <trkpt lat="59.8590893" lon="17.7046462">
        <ele>15.0377</ele>
        <time>2014-06-10T19:04:02Z</time>
      </trkpt>
      <trkpt lat="59.8591353" lon="17.7045876">
        <ele>15.0377</ele>
        <time>2014-06-10T19:04:03Z</time>
      </trkpt>
      <trkpt lat="59.8591862" lon="17.7045357">
        <ele>15.0377</ele>
        <time>2014-06-10T19:04:04Z</time>
      </trkpt>
      <trkpt lat="59.8592405" lon="17.7044907">
        <ele>14.557</ele>
        <time>2014-06-10T19:04:05Z</time>
      </trkpt>
      <trkpt lat="59.8592979" lon="17.7044535">
        <ele>14.557</ele>
        <time>2014-06-10T19:04:06Z</time>
      </trkpt>
      <trkpt lat="59.8593581" lon="17.7044252">
        <ele>14.0764</ele>
        <time>2014-06-10T19:04:07Z</time>
      </trkpt>
      <trkpt lat="59.8594199" lon="17.7044001">
        <ele>14.0764</ele>
        <time>2014-06-10T19:04:08Z</time>
      </trkpt>
      <trkpt lat="59.8594817" lon="17.7043748">
        <ele>13.5958</ele>
        <time>2014-06-10T19:04:09Z</time>
      </trkpt>
      <trkpt lat="59.8595421" lon="17.7043498">
        <ele>13.1151</ele>
        <time>2014-06-10T19:04:10Z</time>
      </trkpt>
      <trkpt lat="59.8596036" lon="17.7043218">
        <ele>13.1151</ele>
        <time>2014-06-10T19:04:11Z</time>
      </trkpt>
      <trkpt lat="59.8596652" lon="17.704291">
        <ele>12.6344</ele>
        <time>2014-06-10T19:04:12Z</time>
      </trkpt>
      <trkpt lat="59.8597273" lon="17.7042631">
        <ele>12.6344</ele>
        <time>2014-06-10T19:04:13Z</time>
      </trkpt>
      <trkpt lat="59.8597891" lon="17.7042354">
        <ele>12.6344</ele>
        <time>2014-06-10T19:04:14Z</time>
      </trkpt>
      <trkpt lat="59.8598508" lon="17.7042082">
        <ele>12.1538</ele>
        <time>2014-06-10T19:04:15Z</time>
      </trkpt>
      <trkpt lat="59.8599118" lon="17.704186">
        <ele>11.6732</ele>
        <time>2014-06-10T19:04:16Z</time>
      </trkpt>
      <trkpt lat="59.8599744" lon="17.7041669">
        <ele>11.6732</ele>
        <time>2014-06-10T19:04:17Z</time>
      </trkpt>
      <trkpt lat="59.8600373" lon="17.7041486">
        <ele>11.6732</ele>
        <time>2014-06-10T19:04:18Z</time>
      </trkpt>
      <trkpt lat="59.8600978" lon="17.7041276">
        <ele>11.6732</ele>
        <time>2014-06-10T19:04:19Z</time>
      </trkpt>
      <trkpt lat="59.8601562" lon="17.7041004">
        <ele>11.6732</ele>
        <time>2014-06-10T19:04:20Z</time>
      </trkpt>
      <trkpt lat="59.8602117" lon="17.7040696">
        <ele>11.6732</ele>
        <time>2014-06-10T19:04:21Z</time>
      </trkpt>
      <trkpt lat="59.8602651" lon="17.7040405">
        <ele>12.1538</ele>
        <time>2014-06-10T19:04:22Z</time>
      </trkpt>
      <trkpt lat="59.860314" lon="17.7040179">
        <ele>12.1538</ele>
        <time>2014-06-10T19:04:23Z</time>
      </trkpt>
      <trkpt lat="59.8603613" lon="17.7039985">
        <ele>12.6344</ele>
        <time>2014-06-10T19:04:24Z</time>
      </trkpt>
      <trkpt lat="59.860405" lon="17.7039788">
        <ele>12.6344</ele>
        <time>2014-06-10T19:04:25Z</time>
      </trkpt>
      <trkpt lat="59.8604464" lon="17.7039602">
        <ele>12.1538</ele>
        <time>2014-06-10T19:04:26Z</time>
      </trkpt>
      <trkpt lat="59.8604859" lon="17.7039416">
        <ele>12.6344</ele>
        <time>2014-06-10T19:04:27Z</time>
      </trkpt>
      <trkpt lat="59.8605205" lon="17.703924">
        <ele>12.6344</ele>
        <time>2014-06-10T19:04:28Z</time>
      </trkpt>
      <trkpt lat="59.8605493" lon="17.7039084">
        <ele>12.6344</ele>
        <time>2014-06-10T19:04:29Z</time>
      </trkpt>
      <trkpt lat="59.8605776" lon="17.703896">
        <ele>12.6344</ele>
        <time>2014-06-10T19:04:30Z</time>
      </trkpt>
      <trkpt lat="59.8606123" lon="17.7038835">
        <ele>12.6344</ele>
        <time>2014-06-10T19:04:31Z</time>
      </trkpt>
      <trkpt lat="59.8606547" lon="17.7038705">
        <ele>13.1151</ele>
        <time>2014-06-10T19:04:32Z</time>
      </trkpt>
      <trkpt lat="59.8607011" lon="17.703852">
        <ele>13.1151</ele>
        <time>2014-06-10T19:04:33Z</time>
      </trkpt>
      <trkpt lat="59.8607521" lon="17.7038292">
        <ele>13.1151</ele>
        <time>2014-06-10T19:04:34Z</time>
      </trkpt>
      <trkpt lat="59.8608052" lon="17.7038085">
        <ele>13.1151</ele>
        <time>2014-06-10T19:04:35Z</time>
      </trkpt>
      <trkpt lat="59.8608609" lon="17.7037879">
        <ele>14.0764</ele>
        <time>2014-06-10T19:04:36Z</time>
      </trkpt>
      <trkpt lat="59.860918" lon="17.7037743">
        <ele>14.0764</ele>
        <time>2014-06-10T19:04:37Z</time>
      </trkpt>
      <trkpt lat="59.860977" lon="17.7037701">
        <ele>14.557</ele>
        <time>2014-06-10T19:04:38Z</time>
      </trkpt>
      <trkpt lat="59.8610371" lon="17.7037763">
        <ele>14.557</ele>
        <time>2014-06-10T19:04:39Z</time>
      </trkpt>
      <trkpt lat="59.8610976" lon="17.7037868">
        <ele>14.0764</ele>
        <time>2014-06-10T19:04:40Z</time>
      </trkpt>
      <trkpt lat="59.8611592" lon="17.7037996">
        <ele>14.0764</ele>
        <time>2014-06-10T19:04:41Z</time>
      </trkpt>
      <trkpt lat="59.8612226" lon="17.7038155">
        <ele>14.0764</ele>
        <time>2014-06-10T19:04:42Z</time>
      </trkpt>
      <trkpt lat="59.8612876" lon="17.7038354">
        <ele>13.5958</ele>
        <time>2014-06-10T19:04:43Z</time>
      </trkpt>
      <trkpt lat="59.8613548" lon="17.7038507">
        <ele>13.5958</ele>
        <time>2014-06-10T19:04:44Z</time>
      </trkpt>
      <trkpt lat="59.8614241" lon="17.7038645">
        <ele>13.5958</ele>
        <time>2014-06-10T19:04:45Z</time>
      </trkpt>
      <trkpt lat="59.8614937" lon="17.7038867">
        <ele>13.5958</ele>
        <time>2014-06-10T19:04:46Z</time>
      </trkpt>
      <trkpt lat="59.8615621" lon="17.703914">
        <ele>13.5958</ele>
        <time>2014-06-10T19:04:47Z</time>
      </trkpt>
      <trkpt lat="59.8616307" lon="17.7039448">
        <ele>13.1151</ele>
        <time>2014-06-10T19:04:48Z</time>
      </trkpt>
      <trkpt lat="59.8617006" lon="17.7039794">
        <ele>13.5958</ele>
        <time>2014-06-10T19:04:49Z</time>
      </trkpt>
      <trkpt lat="59.8617706" lon="17.7040157">
        <ele>13.5958</ele>
        <time>2014-06-10T19:04:50Z</time>
      </trkpt>
      <trkpt lat="59.8618404" lon="17.7040497">
        <ele>13.5958</ele>
        <time>2014-06-10T19:04:51Z</time>
      </trkpt>
      <trkpt lat="59.8619109" lon="17.7040805">
        <ele>14.0764</ele>
        <time>2014-06-10T19:04:52Z</time>
      </trkpt>
      <trkpt lat="59.8619812" lon="17.7041087">
        <ele>14.0764</ele>
        <time>2014-06-10T19:04:53Z</time>
      </trkpt>
      <trkpt lat="59.8620532" lon="17.7041339">
        <ele>14.0764</ele>
        <time>2014-06-10T19:04:54Z</time>
      </trkpt>
      <trkpt lat="59.862126" lon="17.704157">
        <ele>14.0764</ele>
        <time>2014-06-10T19:04:55Z</time>
      </trkpt>
      <trkpt lat="59.8622" lon="17.7041781">
        <ele>14.557</ele>
        <time>2014-06-10T19:04:56Z</time>
      </trkpt>
      <trkpt lat="59.8622725" lon="17.7042022">
        <ele>14.557</ele>
        <time>2014-06-10T19:04:57Z</time>
      </trkpt>
      <trkpt lat="59.8623445" lon="17.7042296">
        <ele>14.557</ele>
        <time>2014-06-10T19:04:58Z</time>
      </trkpt>
      <trkpt lat="59.8624157" lon="17.704255">
        <ele>14.557</ele>
        <time>2014-06-10T19:04:59Z</time>
      </trkpt>
      <trkpt lat="59.8624843" lon="17.7042793">
        <ele>14.0764</ele>
        <time>2014-06-10T19:05:00Z</time>
      </trkpt>
      <trkpt lat="59.8625521" lon="17.7043072">
        <ele>14.0764</ele>
        <time>2014-06-10T19:05:01Z</time>
      </trkpt>
      <trkpt lat="59.862619" lon="17.7043389">
        <ele>14.0764</ele>
        <time>2014-06-10T19:05:02Z</time>
      </trkpt>
      <trkpt lat="59.8626854" lon="17.7043699">
        <ele>14.557</ele>
        <time>2014-06-10T19:05:03Z</time>
      </trkpt>
      <trkpt lat="59.8627521" lon="17.7043999">
        <ele>14.0764</ele>
        <time>2014-06-10T19:05:04Z</time>
      </trkpt>
      <trkpt lat="59.8628193" lon="17.7044274">
        <ele>14.0764</ele>
        <time>2014-06-10T19:05:05Z</time>
      </trkpt>
      <trkpt lat="59.8628854" lon="17.7044503">
        <ele>14.0764</ele>
        <time>2014-06-10T19:05:06Z</time>
      </trkpt>
      <trkpt lat="59.8629516" lon="17.7044625">
        <ele>14.0764</ele>
        <time>2014-06-10T19:05:07Z</time>
      </trkpt>
      <trkpt lat="59.8630178" lon="17.7044579">
        <ele>14.0764</ele>
        <time>2014-06-10T19:05:08Z</time>
      </trkpt>
      <trkpt lat="59.8630841" lon="17.7044363">
        <ele>14.0764</ele>
        <time>2014-06-10T19:05:09Z</time>
      </trkpt>
      <trkpt lat="59.8631495" lon="17.7043993">
        <ele>14.0764</ele>
        <time>2014-06-10T19:05:10Z</time>
      </trkpt>
      <trkpt lat="59.8632126" lon="17.7043467">
        <ele>14.0764</ele>
        <time>2014-06-10T19:05:11Z</time>
      </trkpt>
      <trkpt lat="59.8632739" lon="17.7042793">
        <ele>14.0764</ele>
        <time>2014-06-10T19:05:12Z</time>
      </trkpt>
      <trkpt lat="59.8633344" lon="17.7042048">
        <ele>14.0764</ele>
        <time>2014-06-10T19:05:13Z</time>
      </trkpt>
      <trkpt lat="59.8633951" lon="17.7041291">
        <ele>14.0764</ele>
        <time>2014-06-10T19:05:14Z</time>
      </trkpt>
      <trkpt lat="59.8634551" lon="17.7040525">
        <ele>14.0764</ele>
        <time>2014-06-10T19:05:15Z</time>
      </trkpt>
      <trkpt lat="59.8635152" lon="17.7039747">
        <ele>14.0764</ele>
        <time>2014-06-10T19:05:16Z</time>
      </trkpt>
      <trkpt lat="59.8635753" lon="17.703897">
        <ele>13.5958</ele>
        <time>2014-06-10T19:05:17Z</time>
      </trkpt>
      <trkpt lat="59.8636338" lon="17.7038193">
        <ele>13.5958</ele>
        <time>2014-06-10T19:05:18Z</time>
      </trkpt>
      <trkpt lat="59.8636895" lon="17.7037411">
        <ele>13.5958</ele>
        <time>2014-06-10T19:05:19Z</time>
      </trkpt>
      <trkpt lat="59.8637436" lon="17.703663">
        <ele>13.5958</ele>
        <time>2014-06-10T19:05:20Z</time>
      </trkpt>
      <trkpt lat="59.8637975" lon="17.7035891">
        <ele>13.5958</ele>
        <time>2014-06-10T19:05:21Z</time>
      </trkpt>
      <trkpt lat="59.8638506" lon="17.7035194">
        <ele>13.5958</ele>
        <time>2014-06-10T19:05:22Z</time>
      </trkpt>
      <trkpt lat="59.8639029" lon="17.7034541">
        <ele>13.5958</ele>
        <time>2014-06-10T19:05:23Z</time>
      </trkpt>
      <trkpt lat="59.8639544" lon="17.7033937">
        <ele>13.5958</ele>
        <time>2014-06-10T19:05:24Z</time>
      </trkpt>
      <trkpt lat="59.8640047" lon="17.7033369">
        <ele>14.0764</ele>
        <time>2014-06-10T19:05:25Z</time>
      </trkpt>
      <trkpt lat="59.8640532" lon="17.7032835">
        <ele>14.0764</ele>
        <time>2014-06-10T19:05:26Z</time>
      </trkpt>
      <trkpt lat="59.8640995" lon="17.7032305">
        <ele>14.0764</ele>
        <time>2014-06-10T19:05:27Z</time>
      </trkpt>
      <trkpt lat="59.864141" lon="17.7031843">
        <ele>14.557</ele>
        <time>2014-06-10T19:05:28Z</time>
      </trkpt>
      <trkpt lat="59.8641771" lon="17.7031512">
        <ele>14.557</ele>
        <time>2014-06-10T19:05:29Z</time>
      </trkpt>
      <trkpt lat="59.8642057" lon="17.7031288">
        <ele>14.557</ele>
        <time>2014-06-10T19:05:30Z</time>
      </trkpt>
      <trkpt lat="59.8642277" lon="17.703109">
        <ele>15.0377</ele>
        <time>2014-06-10T19:05:31Z</time>
      </trkpt>
      <trkpt lat="59.864243" lon="17.703089">
        <ele>15.0377</ele>
        <time>2014-06-10T19:05:32Z</time>
      </trkpt>
      <trkpt lat="59.8642559" lon="17.7030722">
        <ele>14.557</ele>
        <time>2014-06-10T19:05:33Z</time>
      </trkpt>
      <trkpt lat="59.8642672" lon="17.7030656">
        <ele>14.557</ele>
        <time>2014-06-10T19:05:34Z</time>
      </trkpt>
      <trkpt lat="59.8642752" lon="17.7030739">
        <ele>14.557</ele>
        <time>2014-06-10T19:05:35Z</time>
      </trkpt>
      <trkpt lat="59.8642806" lon="17.7030805">
        <ele>14.0764</ele>
        <time>2014-06-10T19:05:36Z</time>
      </trkpt>
      <trkpt lat="59.8642878" lon="17.703074">
        <ele>14.0764</ele>
        <time>2014-06-10T19:05:37Z</time>
      </trkpt>
      <trkpt lat="59.8642966" lon="17.7030562">
        <ele>14.0764</ele>
        <time>2014-06-10T19:05:38Z</time>
      </trkpt>
      <trkpt lat="59.8643046" lon="17.7030314">
        <ele>14.0764</ele>
        <time>2014-06-10T19:05:39Z</time>
      </trkpt>
      <trkpt lat="59.8643129" lon="17.7030119">
        <ele>14.0764</ele>
        <time>2014-06-10T19:05:40Z</time>
      </trkpt>
      <trkpt lat="59.8643207" lon="17.7030064">
        <ele>13.5958</ele>
        <time>2014-06-10T19:05:41Z</time>
      </trkpt>
      <trkpt lat="59.8643284" lon="17.7030149">
        <ele>13.5958</ele>
        <time>2014-06-10T19:05:42Z</time>
      </trkpt>
      <trkpt lat="59.8643378" lon="17.7030175">
        <ele>13.5958</ele>
        <time>2014-06-10T19:05:43Z</time>
      </trkpt>
      <trkpt lat="59.8643497" lon="17.7030004">
        <ele>13.5958</ele>
        <time>2014-06-10T19:05:44Z</time>
      </trkpt>
      <trkpt lat="59.8643657" lon="17.702966">
        <ele>13.5958</ele>
        <time>2014-06-10T19:05:45Z</time>
      </trkpt>
      <trkpt lat="59.8643879" lon="17.7029241">
        <ele>13.5958</ele>
        <time>2014-06-10T19:05:46Z</time>
      </trkpt>
      <trkpt lat="59.8644168" lon="17.70288">
        <ele>13.5958</ele>
        <time>2014-06-10T19:05:47Z</time>
      </trkpt>
      <trkpt lat="59.8644534" lon="17.7028365">
        <ele>13.5958</ele>
        <time>2014-06-10T19:05:48Z</time>
      </trkpt>
      <trkpt lat="59.8644958" lon="17.7027928">
        <ele>13.5958</ele>
        <time>2014-06-10T19:05:49Z</time>
      </trkpt>
      <trkpt lat="59.8645408" lon="17.7027471">
        <ele>13.5958</ele>
        <time>2014-06-10T19:05:50Z</time>
      </trkpt>
      <trkpt lat="59.8645838" lon="17.7026994">
        <ele>13.5958</ele>
        <time>2014-06-10T19:05:51Z</time>
      </trkpt>
      <trkpt lat="59.8646263" lon="17.7026454">
        <ele>13.1151</ele>
        <time>2014-06-10T19:05:52Z</time>
      </trkpt>
      <trkpt lat="59.8646734" lon="17.7025816">
        <ele>13.5958</ele>
        <time>2014-06-10T19:05:53Z</time>
      </trkpt>
      <trkpt lat="59.8647205" lon="17.7025098">
        <ele>13.5958</ele>
        <time>2014-06-10T19:05:54Z</time>
      </trkpt>
      <trkpt lat="59.8647701" lon="17.7024319">
        <ele>13.5958</ele>
        <time>2014-06-10T19:05:55Z</time>
      </trkpt>
      <trkpt lat="59.8648215" lon="17.7023508">
        <ele>13.5958</ele>
        <time>2014-06-10T19:05:56Z</time>
      </trkpt>
      <trkpt lat="59.8648734" lon="17.7022699">
        <ele>14.0764</ele>
        <time>2014-06-10T19:05:57Z</time>
      </trkpt>
      <trkpt lat="59.864926" lon="17.7021919">
        <ele>14.0764</ele>
        <time>2014-06-10T19:05:58Z</time>
      </trkpt>
      <trkpt lat="59.8649792" lon="17.7021177">
        <ele>14.557</ele>
        <time>2014-06-10T19:05:59Z</time>
      </trkpt>
      <trkpt lat="59.8650323" lon="17.7020453">
        <ele>14.557</ele>
        <time>2014-06-10T19:06:00Z</time>
      </trkpt>
      <trkpt lat="59.865082" lon="17.701969">
        <ele>15.0377</ele>
        <time>2014-06-10T19:06:01Z</time>
      </trkpt>
      <trkpt lat="59.8651286" lon="17.7018891">
        <ele>15.0377</ele>
        <time>2014-06-10T19:06:02Z</time>
      </trkpt>
      <trkpt lat="59.8651748" lon="17.701811">
        <ele>15.0377</ele>
        <time>2014-06-10T19:06:03Z</time>
      </trkpt>
      <trkpt lat="59.8652195" lon="17.7017321">
        <ele>15.5184</ele>
        <time>2014-06-10T19:06:04Z</time>
      </trkpt>
      <trkpt lat="59.865262" lon="17.7016524">
        <ele>15.5184</ele>
        <time>2014-06-10T19:06:05Z</time>
      </trkpt>
      <trkpt lat="59.8653032" lon="17.701571">
        <ele>15.999</ele>
        <time>2014-06-10T19:06:06Z</time>
      </trkpt>
      <trkpt lat="59.8653428" lon="17.7014863">
        <ele>15.999</ele>
        <time>2014-06-10T19:06:07Z</time>
      </trkpt>
      <trkpt lat="59.8653799" lon="17.7013965">
        <ele>16.4797</ele>
        <time>2014-06-10T19:06:08Z</time>
      </trkpt>
      <trkpt lat="59.865413" lon="17.7012987">
        <ele>16.4797</ele>
        <time>2014-06-10T19:06:09Z</time>
      </trkpt>
      <trkpt lat="59.8654427" lon="17.701195">
        <ele>16.4797</ele>
        <time>2014-06-10T19:06:10Z</time>
      </trkpt>
      <trkpt lat="59.8654717" lon="17.7010868">
        <ele>17.4412</ele>
        <time>2014-06-10T19:06:11Z</time>
      </trkpt>
      <trkpt lat="59.8655011" lon="17.7009775">
        <ele>17.9218</ele>
        <time>2014-06-10T19:06:12Z</time>
      </trkpt>
      <trkpt lat="59.8655306" lon="17.7008693">
        <ele>18.4023</ele>
        <time>2014-06-10T19:06:13Z</time>
      </trkpt>
      <trkpt lat="59.8655591" lon="17.7007624">
        <ele>18.8831</ele>
        <time>2014-06-10T19:06:14Z</time>
      </trkpt>
      <trkpt lat="59.8655888" lon="17.7006585">
        <ele>18.8831</ele>
        <time>2014-06-10T19:06:15Z</time>
      </trkpt>
      <trkpt lat="59.8656209" lon="17.700559">
        <ele>18.8831</ele>
        <time>2014-06-10T19:06:16Z</time>
      </trkpt>
      <trkpt lat="59.8656555" lon="17.7004612">
        <ele>19.3638</ele>
        <time>2014-06-10T19:06:17Z</time>
      </trkpt>
      <trkpt lat="59.8656938" lon="17.7003648">
        <ele>19.8444</ele>
        <time>2014-06-10T19:06:18Z</time>
      </trkpt>
      <trkpt lat="59.8657322" lon="17.7002684">
        <ele>20.325</ele>
        <time>2014-06-10T19:06:19Z</time>
      </trkpt>
      <trkpt lat="59.8657706" lon="17.7001703">
        <ele>20.8057</ele>
        <time>2014-06-10T19:06:20Z</time>
      </trkpt>
      <trkpt lat="59.8658098" lon="17.7000722">
        <ele>20.8057</ele>
        <time>2014-06-10T19:06:21Z</time>
      </trkpt>
      <trkpt lat="59.8658498" lon="17.6999736">
        <ele>20.8057</ele>
        <time>2014-06-10T19:06:22Z</time>
      </trkpt>
      <trkpt lat="59.8658897" lon="17.6998726">
        <ele>20.8057</ele>
        <time>2014-06-10T19:06:23Z</time>
      </trkpt>
      <trkpt lat="59.8659301" lon="17.6997695">
        <ele>21.2864</ele>
        <time>2014-06-10T19:06:24Z</time>
      </trkpt>
      <trkpt lat="59.8659725" lon="17.6996678">
        <ele>21.2864</ele>
        <time>2014-06-10T19:06:25Z</time>
      </trkpt>
      <trkpt lat="59.8660173" lon="17.6995671">
        <ele>21.2864</ele>
        <time>2014-06-10T19:06:26Z</time>
      </trkpt>
      <trkpt lat="59.8660643" lon="17.6994694">
        <ele>21.2864</ele>
        <time>2014-06-10T19:06:27Z</time>
      </trkpt>
      <trkpt lat="59.8661136" lon="17.6993757">
        <ele>21.2864</ele>
        <time>2014-06-10T19:06:28Z</time>
      </trkpt>
      <trkpt lat="59.8661654" lon="17.6992852">
        <ele>20.8057</ele>
        <time>2014-06-10T19:06:29Z</time>
      </trkpt>
      <trkpt lat="59.8662205" lon="17.6992006">
        <ele>20.8057</ele>
        <time>2014-06-10T19:06:30Z</time>
      </trkpt>
      <trkpt lat="59.8662781" lon="17.6991237">
        <ele>20.8057</ele>
        <time>2014-06-10T19:06:31Z</time>
      </trkpt>
      <trkpt lat="59.8663377" lon="17.6990538">
        <ele>20.8057</ele>
        <time>2014-06-10T19:06:32Z</time>
      </trkpt>
      <trkpt lat="59.8663974" lon="17.6989883">
        <ele>20.8057</ele>
        <time>2014-06-10T19:06:33Z</time>
      </trkpt>
      <trkpt lat="59.8664565" lon="17.6989241">
        <ele>20.325</ele>
        <time>2014-06-10T19:06:34Z</time>
      </trkpt>
      <trkpt lat="59.8665156" lon="17.6988563">
        <ele>20.325</ele>
        <time>2014-06-10T19:06:35Z</time>
      </trkpt>
      <trkpt lat="59.8665748" lon="17.6987812">
        <ele>19.8444</ele>
        <time>2014-06-10T19:06:36Z</time>
      </trkpt>
      <trkpt lat="59.866634" lon="17.6986982">
        <ele>19.3638</ele>
        <time>2014-06-10T19:06:37Z</time>
      </trkpt>
      <trkpt lat="59.866694" lon="17.6986086">
        <ele>19.3638</ele>
        <time>2014-06-10T19:06:38Z</time>
      </trkpt>
      <trkpt lat="59.8667539" lon="17.6985138">
        <ele>18.8831</ele>
        <time>2014-06-10T19:06:39Z</time>
      </trkpt>
      <trkpt lat="59.8668132" lon="17.6984137">
        <ele>18.4023</ele>
        <time>2014-06-10T19:06:40Z</time>
      </trkpt>
      <trkpt lat="59.8668717" lon="17.6983103">
        <ele>18.4023</ele>
        <time>2014-06-10T19:06:41Z</time>
      </trkpt>
      <trkpt lat="59.8669304" lon="17.6982067">
        <ele>17.9218</ele>
        <time>2014-06-10T19:06:42Z</time>
      </trkpt>
      <trkpt lat="59.8669906" lon="17.6981077">
        <ele>17.4412</ele>
        <time>2014-06-10T19:06:43Z</time>
      </trkpt>
      <trkpt lat="59.8670521" lon="17.6980136">
        <ele>17.4412</ele>
        <time>2014-06-10T19:06:44Z</time>
      </trkpt>
      <trkpt lat="59.867177" lon="17.6978441">
        <ele>17.4412</ele>
        <time>2014-06-10T19:06:45Z</time>
      </trkpt>
      <trkpt lat="59.8672433" lon="17.6977776">
        <ele>16.9604</ele>
        <time>2014-06-10T19:06:46Z</time>
      </trkpt>
      <trkpt lat="59.86731" lon="17.6977239">
        <ele>16.9604</ele>
        <time>2014-06-10T19:06:47Z</time>
      </trkpt>
      <trkpt lat="59.8673757" lon="17.6976727">
        <ele>16.9604</ele>
        <time>2014-06-10T19:06:48Z</time>
      </trkpt>
      <trkpt lat="59.8674417" lon="17.6976277">
        <ele>16.9604</ele>
        <time>2014-06-10T19:06:49Z</time>
      </trkpt>
      <trkpt lat="59.8675095" lon="17.6975927">
        <ele>16.9604</ele>
        <time>2014-06-10T19:06:50Z</time>
      </trkpt>
      <trkpt lat="59.8675782" lon="17.6975617">
        <ele>17.4412</ele>
        <time>2014-06-10T19:06:51Z</time>
      </trkpt>
      <trkpt lat="59.8676467" lon="17.6975255">
        <ele>17.4412</ele>
        <time>2014-06-10T19:06:52Z</time>
      </trkpt>
      <trkpt lat="59.8677147" lon="17.6974805">
        <ele>17.4412</ele>
        <time>2014-06-10T19:06:53Z</time>
      </trkpt>
      <trkpt lat="59.8677806" lon="17.6974261">
        <ele>17.4412</ele>
        <time>2014-06-10T19:06:54Z</time>
      </trkpt>
      <trkpt lat="59.8678448" lon="17.6973681">
        <ele>17.4412</ele>
        <time>2014-06-10T19:06:55Z</time>
      </trkpt>
      <trkpt lat="59.8679082" lon="17.6973021">
        <ele>17.9218</ele>
        <time>2014-06-10T19:06:56Z</time>
      </trkpt>
      <trkpt lat="59.8679716" lon="17.6972271">
        <ele>17.9218</ele>
        <time>2014-06-10T19:06:57Z</time>
      </trkpt>
      <trkpt lat="59.8680336" lon="17.697148">
        <ele>17.4412</ele>
        <time>2014-06-10T19:06:58Z</time>
      </trkpt>
      <trkpt lat="59.8680958" lon="17.6970686">
        <ele>17.4412</ele>
        <time>2014-06-10T19:06:59Z</time>
      </trkpt>
      <trkpt lat="59.8681596" lon="17.6969921">
        <ele>17.4412</ele>
        <time>2014-06-10T19:07:00Z</time>
      </trkpt>
      <trkpt lat="59.8682245" lon="17.6969163">
        <ele>17.9218</ele>
        <time>2014-06-10T19:07:01Z</time>
      </trkpt>
      <trkpt lat="59.8682913" lon="17.6968428">
        <ele>17.9218</ele>
        <time>2014-06-10T19:07:02Z</time>
      </trkpt>
      <trkpt lat="59.8683609" lon="17.6967775">
        <ele>17.9218</ele>
        <time>2014-06-10T19:07:03Z</time>
      </trkpt>
      <trkpt lat="59.8684321" lon="17.6967201">
        <ele>17.9218</ele>
        <time>2014-06-10T19:07:04Z</time>
      </trkpt>
      <trkpt lat="59.8685034" lon="17.6966609">
        <ele>17.9218</ele>
        <time>2014-06-10T19:07:05Z</time>
      </trkpt>
      <trkpt lat="59.8685744" lon="17.6966008">
        <ele>17.9218</ele>
        <time>2014-06-10T19:07:06Z</time>
      </trkpt>
      <trkpt lat="59.868646" lon="17.6965432">
        <ele>17.9218</ele>
        <time>2014-06-10T19:07:07Z</time>
      </trkpt>
      <trkpt lat="59.8687168" lon="17.6964829">
        <ele>18.4023</ele>
        <time>2014-06-10T19:07:08Z</time>
      </trkpt>
      <trkpt lat="59.8687854" lon="17.696416">
        <ele>18.4023</ele>
        <time>2014-06-10T19:07:09Z</time>
      </trkpt>
      <trkpt lat="59.8688527" lon="17.6963414">
        <ele>17.9218</ele>
        <time>2014-06-10T19:07:10Z</time>
      </trkpt>
      <trkpt lat="59.8689304" lon="17.6962502">
        <ele>18.4023</ele>
        <time>2014-06-10T19:07:11Z</time>
      </trkpt>
      <trkpt lat="59.868991" lon="17.6961636">
        <ele>18.8831</ele>
        <time>2014-06-10T19:07:12Z</time>
      </trkpt>
      <trkpt lat="59.8690537" lon="17.6960695">
        <ele>19.3638</ele>
        <time>2014-06-10T19:07:13Z</time>
      </trkpt>
      <trkpt lat="59.8691157" lon="17.6959786">
        <ele>18.8831</ele>
        <time>2014-06-10T19:07:14Z</time>
      </trkpt>
      <trkpt lat="59.8691806" lon="17.6958892">
        <ele>18.8831</ele>
        <time>2014-06-10T19:07:15Z</time>
      </trkpt>
      <trkpt lat="59.8692475" lon="17.6957957">
        <ele>18.4023</ele>
        <time>2014-06-10T19:07:16Z</time>
      </trkpt>
      <trkpt lat="59.8693144" lon="17.6956988">
        <ele>18.4023</ele>
        <time>2014-06-10T19:07:17Z</time>
      </trkpt>
      <trkpt lat="59.8693816" lon="17.6956037">
        <ele>18.4023</ele>
        <time>2014-06-10T19:07:18Z</time>
      </trkpt>
      <trkpt lat="59.86945" lon="17.6955105">
        <ele>17.9218</ele>
        <time>2014-06-10T19:07:19Z</time>
      </trkpt>
      <trkpt lat="59.8695197" lon="17.6954223">
        <ele>17.9218</ele>
        <time>2014-06-10T19:07:20Z</time>
      </trkpt>
      <trkpt lat="59.8695893" lon="17.6953368">
        <ele>17.9218</ele>
        <time>2014-06-10T19:07:21Z</time>
      </trkpt>
      <trkpt lat="59.8696589" lon="17.6952536">
        <ele>17.9218</ele>
        <time>2014-06-10T19:07:22Z</time>
      </trkpt>
      <trkpt lat="59.8697261" lon="17.6951795">
        <ele>17.4412</ele>
        <time>2014-06-10T19:07:23Z</time>
      </trkpt>
      <trkpt lat="59.8697904" lon="17.6951076">
        <ele>16.9604</ele>
        <time>2014-06-10T19:07:24Z</time>
      </trkpt>
      <trkpt lat="59.8698555" lon="17.695039">
        <ele>16.9604</ele>
        <time>2014-06-10T19:07:25Z</time>
      </trkpt>
      <trkpt lat="59.8699227" lon="17.6949715">
        <ele>16.9604</ele>
        <time>2014-06-10T19:07:26Z</time>
      </trkpt>
      <trkpt lat="59.8699892" lon="17.6949049">
        <ele>16.9604</ele>
        <time>2014-06-10T19:07:27Z</time>
      </trkpt>
      <trkpt lat="59.8700546" lon="17.6948384">
        <ele>17.4412</ele>
        <time>2014-06-10T19:07:28Z</time>
      </trkpt>
      <trkpt lat="59.8701188" lon="17.6947692">
        <ele>17.4412</ele>
        <time>2014-06-10T19:07:29Z</time>
      </trkpt>
      <trkpt lat="59.8701831" lon="17.6946991">
        <ele>17.4412</ele>
        <time>2014-06-10T19:07:30Z</time>
      </trkpt>
      <trkpt lat="59.8702476" lon="17.694631">
        <ele>17.4412</ele>
        <time>2014-06-10T19:07:31Z</time>
      </trkpt>
      <trkpt lat="59.8703109" lon="17.6945655">
        <ele>17.4412</ele>
        <time>2014-06-10T19:07:32Z</time>
      </trkpt>
      <trkpt lat="59.8703731" lon="17.6945015">
        <ele>17.4412</ele>
        <time>2014-06-10T19:07:33Z</time>
      </trkpt>
      <trkpt lat="59.8704312" lon="17.6944376">
        <ele>17.4412</ele>
        <time>2014-06-10T19:07:34Z</time>
      </trkpt>
      <trkpt lat="59.8704833" lon="17.6943817">
        <ele>17.4412</ele>
        <time>2014-06-10T19:07:35Z</time>
      </trkpt>
      <trkpt lat="59.8705306" lon="17.6943355">
        <ele>17.4412</ele>
        <time>2014-06-10T19:07:36Z</time>
      </trkpt>
      <trkpt lat="59.8705762" lon="17.6942844">
        <ele>17.9218</ele>
        <time>2014-06-10T19:07:37Z</time>
      </trkpt>
      <trkpt lat="59.8706233" lon="17.6942288">
        <ele>17.9218</ele>
        <time>2014-06-10T19:07:38Z</time>
      </trkpt>
      <trkpt lat="59.8706728" lon="17.6941699">
        <ele>17.9218</ele>
        <time>2014-06-10T19:07:39Z</time>
      </trkpt>
      <trkpt lat="59.8707247" lon="17.6941092">
        <ele>17.9218</ele>
        <time>2014-06-10T19:07:40Z</time>
      </trkpt>
      <trkpt lat="59.8707771" lon="17.6940438">
        <ele>17.9218</ele>
        <time>2014-06-10T19:07:41Z</time>
      </trkpt>
      <trkpt lat="59.8708303" lon="17.6939741">
        <ele>17.9218</ele>
        <time>2014-06-10T19:07:42Z</time>
      </trkpt>
      <trkpt lat="59.8708844" lon="17.6939029">
        <ele>17.9218</ele>
        <time>2014-06-10T19:07:43Z</time>
      </trkpt>
      <trkpt lat="59.8709377" lon="17.6938285">
        <ele>17.9218</ele>
        <time>2014-06-10T19:07:44Z</time>
      </trkpt>
      <trkpt lat="59.8709906" lon="17.6937534">
        <ele>17.9218</ele>
        <time>2014-06-10T19:07:45Z</time>
      </trkpt>
      <trkpt lat="59.871044" lon="17.6936798">
        <ele>18.4023</ele>
        <time>2014-06-10T19:07:46Z</time>
      </trkpt>
      <trkpt lat="59.8710956" lon="17.6936014">
        <ele>17.9218</ele>
        <time>2014-06-10T19:07:47Z</time>
      </trkpt>
      <trkpt lat="59.8711465" lon="17.6935157">
        <ele>17.9218</ele>
        <time>2014-06-10T19:07:48Z</time>
      </trkpt>
      <trkpt lat="59.8711971" lon="17.693422">
        <ele>17.9218</ele>
        <time>2014-06-10T19:07:49Z</time>
      </trkpt>
      <trkpt lat="59.871246" lon="17.6933194">
        <ele>17.9218</ele>
        <time>2014-06-10T19:07:50Z</time>
      </trkpt>
      <trkpt lat="59.8712936" lon="17.693209">
        <ele>17.9218</ele>
        <time>2014-06-10T19:07:51Z</time>
      </trkpt>
      <trkpt lat="59.8713421" lon="17.6930946">
        <ele>17.9218</ele>
        <time>2014-06-10T19:07:52Z</time>
      </trkpt>
      <trkpt lat="59.8713925" lon="17.6929795">
        <ele>17.9218</ele>
        <time>2014-06-10T19:07:53Z</time>
      </trkpt>
      <trkpt lat="59.8714441" lon="17.6928629">
        <ele>18.4023</ele>
        <time>2014-06-10T19:07:54Z</time>
      </trkpt>
      <trkpt lat="59.8714972" lon="17.6927475">
        <ele>18.4023</ele>
        <time>2014-06-10T19:07:55Z</time>
      </trkpt>
      <trkpt lat="59.8715521" lon="17.692635">
        <ele>18.8831</ele>
        <time>2014-06-10T19:07:56Z</time>
      </trkpt>
      <trkpt lat="59.8716074" lon="17.6925239">
        <ele>18.8831</ele>
        <time>2014-06-10T19:07:57Z</time>
      </trkpt>
      <trkpt lat="59.8716628" lon="17.6924138">
        <ele>18.8831</ele>
        <time>2014-06-10T19:07:58Z</time>
      </trkpt>
      <trkpt lat="59.8717173" lon="17.6923029">
        <ele>19.3638</ele>
        <time>2014-06-10T19:07:59Z</time>
      </trkpt>
      <trkpt lat="59.8717691" lon="17.6921896">
        <ele>19.3638</ele>
        <time>2014-06-10T19:08:00Z</time>
      </trkpt>
      <trkpt lat="59.8718204" lon="17.6920766">
        <ele>19.8444</ele>
        <time>2014-06-10T19:08:01Z</time>
      </trkpt>
      <trkpt lat="59.8718713" lon="17.6919667">
        <ele>19.3638</ele>
        <time>2014-06-10T19:08:02Z</time>
      </trkpt>
      <trkpt lat="59.8719215" lon="17.6918565">
        <ele>19.3638</ele>
        <time>2014-06-10T19:08:03Z</time>
      </trkpt>
      <trkpt lat="59.8719733" lon="17.6917476">
        <ele>19.3638</ele>
        <time>2014-06-10T19:08:04Z</time>
      </trkpt>
      <trkpt lat="59.8720259" lon="17.6916399">
        <ele>19.3638</ele>
        <time>2014-06-10T19:08:05Z</time>
      </trkpt>
      <trkpt lat="59.8720772" lon="17.6915332">
        <ele>19.8444</ele>
        <time>2014-06-10T19:08:06Z</time>
      </trkpt>
      <trkpt lat="59.8721271" lon="17.691427">
        <ele>20.325</ele>
        <time>2014-06-10T19:08:07Z</time>
      </trkpt>
      <trkpt lat="59.8721758" lon="17.6913235">
        <ele>20.325</ele>
        <time>2014-06-10T19:08:08Z</time>
      </trkpt>
      <trkpt lat="59.872224" lon="17.6912219">
        <ele>20.325</ele>
        <time>2014-06-10T19:08:09Z</time>
      </trkpt>
      <trkpt lat="59.872272" lon="17.6911177">
        <ele>19.8444</ele>
        <time>2014-06-10T19:08:10Z</time>
      </trkpt>
      <trkpt lat="59.8723212" lon="17.6910117">
        <ele>20.325</ele>
        <time>2014-06-10T19:08:11Z</time>
      </trkpt>
      <trkpt lat="59.8723693" lon="17.6909039">
        <ele>19.8444</ele>
        <time>2014-06-10T19:08:12Z</time>
      </trkpt>
      <trkpt lat="59.8724144" lon="17.6907934">
        <ele>20.325</ele>
        <time>2014-06-10T19:08:13Z</time>
      </trkpt>
      <trkpt lat="59.872456" lon="17.690677">
        <ele>20.325</ele>
        <time>2014-06-10T19:08:14Z</time>
      </trkpt>
      <trkpt lat="59.8724959" lon="17.6905565">
        <ele>20.325</ele>
        <time>2014-06-10T19:08:15Z</time>
      </trkpt>
      <trkpt lat="59.8725342" lon="17.6904323">
        <ele>20.325</ele>
        <time>2014-06-10T19:08:16Z</time>
      </trkpt>
      <trkpt lat="59.872571" lon="17.690305">
        <ele>20.325</ele>
        <time>2014-06-10T19:08:17Z</time>
      </trkpt>
      <trkpt lat="59.8726073" lon="17.690179">
        <ele>20.8057</ele>
        <time>2014-06-10T19:08:18Z</time>
      </trkpt>
      <trkpt lat="59.8726435" lon="17.6900552">
        <ele>20.8057</ele>
        <time>2014-06-10T19:08:19Z</time>
      </trkpt>
      <trkpt lat="59.8726793" lon="17.6899335">
        <ele>20.8057</ele>
        <time>2014-06-10T19:08:20Z</time>
      </trkpt>
      <trkpt lat="59.8727169" lon="17.6898158">
        <ele>20.8057</ele>
        <time>2014-06-10T19:08:21Z</time>
      </trkpt>
      <trkpt lat="59.8727586" lon="17.6897046">
        <ele>20.8057</ele>
        <time>2014-06-10T19:08:22Z</time>
      </trkpt>
      <trkpt lat="59.8728031" lon="17.689597">
        <ele>20.8057</ele>
        <time>2014-06-10T19:08:23Z</time>
      </trkpt>
      <trkpt lat="59.8728491" lon="17.6894903">
        <ele>20.8057</ele>
        <time>2014-06-10T19:08:24Z</time>
      </trkpt>
      <trkpt lat="59.8728966" lon="17.6893838">
        <ele>20.8057</ele>
        <time>2014-06-10T19:08:25Z</time>
      </trkpt>
      <trkpt lat="59.8729454" lon="17.6892778">
        <ele>20.8057</ele>
        <time>2014-06-10T19:08:26Z</time>
      </trkpt>
      <trkpt lat="59.8729947" lon="17.6891716">
        <ele>20.8057</ele>
        <time>2014-06-10T19:08:27Z</time>
      </trkpt>
      <trkpt lat="59.8730453" lon="17.6890649">
        <ele>20.325</ele>
        <time>2014-06-10T19:08:28Z</time>
      </trkpt>
      <trkpt lat="59.8730974" lon="17.6889593">
        <ele>20.325</ele>
        <time>2014-06-10T19:08:29Z</time>
      </trkpt>
      <trkpt lat="59.8731539" lon="17.688854">
        <ele>20.325</ele>
        <time>2014-06-10T19:08:30Z</time>
      </trkpt>
      <trkpt lat="59.8732153" lon="17.6887642">
        <ele>20.325</ele>
        <time>2014-06-10T19:08:31Z</time>
      </trkpt>
      <trkpt lat="59.873278" lon="17.6886861">
        <ele>20.325</ele>
        <time>2014-06-10T19:08:32Z</time>
      </trkpt>
      <trkpt lat="59.8733395" lon="17.6886143">
        <ele>20.325</ele>
        <time>2014-06-10T19:08:33Z</time>
      </trkpt>
      <trkpt lat="59.8733993" lon="17.6885473">
        <ele>20.325</ele>
        <time>2014-06-10T19:08:34Z</time>
      </trkpt>
      <trkpt lat="59.8734584" lon="17.688484">
        <ele>20.325</ele>
        <time>2014-06-10T19:08:35Z</time>
      </trkpt>
      <trkpt lat="59.8735163" lon="17.6884206">
        <ele>20.325</ele>
        <time>2014-06-10T19:08:36Z</time>
      </trkpt>
      <trkpt lat="59.8735734" lon="17.6883579">
        <ele>19.8444</ele>
        <time>2014-06-10T19:08:37Z</time>
      </trkpt>
      <trkpt lat="59.8736298" lon="17.6883004">
        <ele>19.8444</ele>
        <time>2014-06-10T19:08:38Z</time>
      </trkpt>
      <trkpt lat="59.8736854" lon="17.6882468">
        <ele>19.8444</ele>
        <time>2014-06-10T19:08:39Z</time>
      </trkpt>
      <trkpt lat="59.8737387" lon="17.6881928">
        <ele>19.8444</ele>
        <time>2014-06-10T19:08:40Z</time>
      </trkpt>
      <trkpt lat="59.8737897" lon="17.6881374">
        <ele>20.325</ele>
        <time>2014-06-10T19:08:41Z</time>
      </trkpt>
      <trkpt lat="59.8738377" lon="17.6880831">
        <ele>20.325</ele>
        <time>2014-06-10T19:08:42Z</time>
      </trkpt>
      <trkpt lat="59.8738806" lon="17.6880266">
        <ele>20.325</ele>
        <time>2014-06-10T19:08:43Z</time>
      </trkpt>
      <trkpt lat="59.8739154" lon="17.6879601">
        <ele>20.325</ele>
        <time>2014-06-10T19:08:44Z</time>
      </trkpt>
      <trkpt lat="59.8739379" lon="17.6878775">
        <ele>20.325</ele>
        <time>2014-06-10T19:08:45Z</time>
      </trkpt>
      <trkpt lat="59.8739463" lon="17.6877779">
        <ele>20.325</ele>
        <time>2014-06-10T19:08:46Z</time>
      </trkpt>
      <trkpt lat="59.873952" lon="17.6876672">
        <ele>20.325</ele>
        <time>2014-06-10T19:08:47Z</time>
      </trkpt>
      <trkpt lat="59.8739648" lon="17.6875501">
        <ele>20.325</ele>
        <time>2014-06-10T19:08:48Z</time>
      </trkpt>
      <trkpt lat="59.8739892" lon="17.6874348">
        <ele>20.325</ele>
        <time>2014-06-10T19:08:49Z</time>
      </trkpt>
      <trkpt lat="59.8740275" lon="17.6873271">
        <ele>20.325</ele>
        <time>2014-06-10T19:08:50Z</time>
      </trkpt>
      <trkpt lat="59.8740735" lon="17.6872253">
        <ele>20.325</ele>
        <time>2014-06-10T19:08:51Z</time>
      </trkpt>
      <trkpt lat="59.8741215" lon="17.6871244">
        <ele>20.325</ele>
        <time>2014-06-10T19:08:52Z</time>
      </trkpt>
      <trkpt lat="59.874171" lon="17.6870203">
        <ele>20.325</ele>
        <time>2014-06-10T19:08:53Z</time>
      </trkpt>
      <trkpt lat="59.874221" lon="17.6869119">
        <ele>20.325</ele>
        <time>2014-06-10T19:08:54Z</time>
      </trkpt>
      <trkpt lat="59.8742722" lon="17.6868011">
        <ele>20.325</ele>
        <time>2014-06-10T19:08:55Z</time>
      </trkpt>
      <trkpt lat="59.8743233" lon="17.6866897">
        <ele>20.325</ele>
        <time>2014-06-10T19:08:56Z</time>
      </trkpt>
      <trkpt lat="59.8743743" lon="17.6865788">
        <ele>20.325</ele>
        <time>2014-06-10T19:08:57Z</time>
      </trkpt>
      <trkpt lat="59.874426" lon="17.6864671">
        <ele>20.325</ele>
        <time>2014-06-10T19:08:58Z</time>
      </trkpt>
      <trkpt lat="59.8744779" lon="17.6863547">
        <ele>20.325</ele>
        <time>2014-06-10T19:08:59Z</time>
      </trkpt>
      <trkpt lat="59.8745299" lon="17.6862417">
        <ele>20.325</ele>
        <time>2014-06-10T19:09:00Z</time>
      </trkpt>
      <trkpt lat="59.8745824" lon="17.6861283">
        <ele>20.325</ele>
        <time>2014-06-10T19:09:01Z</time>
      </trkpt>
      <trkpt lat="59.8746362" lon="17.6860147">
        <ele>20.325</ele>
        <time>2014-06-10T19:09:02Z</time>
      </trkpt>
      <trkpt lat="59.8746897" lon="17.6859005">
        <ele>20.325</ele>
        <time>2014-06-10T19:09:03Z</time>
      </trkpt>
      <trkpt lat="59.8747431" lon="17.6857855">
        <ele>20.325</ele>
        <time>2014-06-10T19:09:04Z</time>
      </trkpt>
      <trkpt lat="59.8747969" lon="17.6856698">
        <ele>20.325</ele>
        <time>2014-06-10T19:09:05Z</time>
      </trkpt>
      <trkpt lat="59.8748507" lon="17.6855543">
        <ele>20.325</ele>
        <time>2014-06-10T19:09:06Z</time>
      </trkpt>
      <trkpt lat="59.8749037" lon="17.6854384">
        <ele>20.8057</ele>
        <time>2014-06-10T19:09:07Z</time>
      </trkpt>
      <trkpt lat="59.8749564" lon="17.6853232">
        <ele>20.8057</ele>
        <time>2014-06-10T19:09:08Z</time>
      </trkpt>
      <trkpt lat="59.8750096" lon="17.6852096">
        <ele>21.2864</ele>
        <time>2014-06-10T19:09:09Z</time>
      </trkpt>
      <trkpt lat="59.875064" lon="17.6850984">
        <ele>21.767</ele>
        <time>2014-06-10T19:09:10Z</time>
      </trkpt>
      <trkpt lat="59.8751175" lon="17.6849876">
        <ele>21.767</ele>
        <time>2014-06-10T19:09:11Z</time>
      </trkpt>
      <trkpt lat="59.8751695" lon="17.6848747">
        <ele>21.767</ele>
        <time>2014-06-10T19:09:12Z</time>
      </trkpt>
      <trkpt lat="59.8752218" lon="17.6847618">
        <ele>22.2476</ele>
        <time>2014-06-10T19:09:13Z</time>
      </trkpt>
      <trkpt lat="59.8752744" lon="17.6846508">
        <ele>22.2476</ele>
        <time>2014-06-10T19:09:14Z</time>
      </trkpt>
      <trkpt lat="59.8753263" lon="17.6845421">
        <ele>22.7283</ele>
        <time>2014-06-10T19:09:15Z</time>
      </trkpt>
      <trkpt lat="59.8753774" lon="17.6844357">
        <ele>22.7283</ele>
        <time>2014-06-10T19:09:16Z</time>
      </trkpt>
      <trkpt lat="59.8754276" lon="17.6843285">
        <ele>22.7283</ele>
        <time>2014-06-10T19:09:17Z</time>
      </trkpt>
      <trkpt lat="59.875477" lon="17.6842189">
        <ele>23.209</ele>
        <time>2014-06-10T19:09:18Z</time>
      </trkpt>
      <trkpt lat="59.8755266" lon="17.6841096">
        <ele>23.209</ele>
        <time>2014-06-10T19:09:19Z</time>
      </trkpt>
      <trkpt lat="59.8755765" lon="17.6840032">
        <ele>23.209</ele>
        <time>2014-06-10T19:09:20Z</time>
      </trkpt>
      <trkpt lat="59.8756262" lon="17.6838985">
        <ele>23.6896</ele>
        <time>2014-06-10T19:09:21Z</time>
      </trkpt>
      <trkpt lat="59.875675" lon="17.6837951">
        <ele>23.6896</ele>
        <time>2014-06-10T19:09:22Z</time>
      </trkpt>
      <trkpt lat="59.8757236" lon="17.6836926">
        <ele>23.6896</ele>
        <time>2014-06-10T19:09:23Z</time>
      </trkpt>
      <trkpt lat="59.8757716" lon="17.6835901">
        <ele>24.1703</ele>
        <time>2014-06-10T19:09:24Z</time>
      </trkpt>
      <trkpt lat="59.8758184" lon="17.683487">
        <ele>24.1703</ele>
        <time>2014-06-10T19:09:25Z</time>
      </trkpt>
      <trkpt lat="59.8758645" lon="17.6833838">
        <ele>24.651</ele>
        <time>2014-06-10T19:09:26Z</time>
      </trkpt>
      <trkpt lat="59.8759106" lon="17.6832812">
        <ele>24.651</ele>
        <time>2014-06-10T19:09:27Z</time>
      </trkpt>
      <trkpt lat="59.8759572" lon="17.6831798">
        <ele>25.1317</ele>
        <time>2014-06-10T19:09:28Z</time>
      </trkpt>
      <trkpt lat="59.876004" lon="17.6830793">
        <ele>25.1317</ele>
        <time>2014-06-10T19:09:29Z</time>
      </trkpt>
      <trkpt lat="59.8760505" lon="17.6829803">
        <ele>25.6123</ele>
        <time>2014-06-10T19:09:30Z</time>
      </trkpt>
      <trkpt lat="59.8760967" lon="17.682882">
        <ele>25.6123</ele>
        <time>2014-06-10T19:09:31Z</time>
      </trkpt>
      <trkpt lat="59.8761422" lon="17.682784">
        <ele>25.6123</ele>
        <time>2014-06-10T19:09:32Z</time>
      </trkpt>
      <trkpt lat="59.8761871" lon="17.6826862">
        <ele>26.0929</ele>
        <time>2014-06-10T19:09:33Z</time>
      </trkpt>
      <trkpt lat="59.8762312" lon="17.6825892">
        <ele>26.0929</ele>
        <time>2014-06-10T19:09:34Z</time>
      </trkpt>
      <trkpt lat="59.8762756" lon="17.6824933">
        <ele>26.0929</ele>
        <time>2014-06-10T19:09:35Z</time>
      </trkpt>
      <trkpt lat="59.8763205" lon="17.6823972">
        <ele>26.0929</ele>
        <time>2014-06-10T19:09:36Z</time>
      </trkpt>
      <trkpt lat="59.8763654" lon="17.6822989">
        <ele>26.0929</ele>
        <time>2014-06-10T19:09:37Z</time>
      </trkpt>
      <trkpt lat="59.8764104" lon="17.6821987">
        <ele>26.5736</ele>
        <time>2014-06-10T19:09:38Z</time>
      </trkpt>
      <trkpt lat="59.8764565" lon="17.6821005">
        <ele>26.5736</ele>
        <time>2014-06-10T19:09:39Z</time>
      </trkpt>
      <trkpt lat="59.8765032" lon="17.6820033">
        <ele>26.5736</ele>
        <time>2014-06-10T19:09:40Z</time>
      </trkpt>
      <trkpt lat="59.8765496" lon="17.6819061">
        <ele>26.5736</ele>
        <time>2014-06-10T19:09:41Z</time>
      </trkpt>
      <trkpt lat="59.8765955" lon="17.6818095">
        <ele>27.0543</ele>
        <time>2014-06-10T19:09:42Z</time>
      </trkpt>
      <trkpt lat="59.876641" lon="17.6817129">
        <ele>27.0543</ele>
        <time>2014-06-10T19:09:43Z</time>
      </trkpt>
      <trkpt lat="59.8766866" lon="17.6816162">
        <ele>27.0543</ele>
        <time>2014-06-10T19:09:44Z</time>
      </trkpt>
      <trkpt lat="59.8767328" lon="17.681521">
        <ele>27.0543</ele>
        <time>2014-06-10T19:09:45Z</time>
      </trkpt>
      <trkpt lat="59.8767784" lon="17.6814284">
        <ele>27.0543</ele>
        <time>2014-06-10T19:09:46Z</time>
      </trkpt>
      <trkpt lat="59.8768232" lon="17.6813394">
        <ele>27.0543</ele>
        <time>2014-06-10T19:09:47Z</time>
      </trkpt>
      <trkpt lat="59.8768665" lon="17.6812491">
        <ele>27.0543</ele>
        <time>2014-06-10T19:09:48Z</time>
      </trkpt>
      <trkpt lat="59.8769084" lon="17.6811552">
        <ele>27.5349</ele>
        <time>2014-06-10T19:09:49Z</time>
      </trkpt>
      <trkpt lat="59.8769493" lon="17.6810604">
        <ele>27.5349</ele>
        <time>2014-06-10T19:09:50Z</time>
      </trkpt>
      <trkpt lat="59.8769906" lon="17.6809667">
        <ele>27.5349</ele>
        <time>2014-06-10T19:09:51Z</time>
      </trkpt>
      <trkpt lat="59.8770326" lon="17.6808773">
        <ele>27.5349</ele>
        <time>2014-06-10T19:09:52Z</time>
      </trkpt>
      <trkpt lat="59.8770741" lon="17.6807907">
        <ele>27.5349</ele>
        <time>2014-06-10T19:09:53Z</time>
      </trkpt>
      <trkpt lat="59.8771133" lon="17.6807042">
        <ele>27.5349</ele>
        <time>2014-06-10T19:09:54Z</time>
      </trkpt>
      <trkpt lat="59.8771498" lon="17.6806162">
        <ele>27.5349</ele>
        <time>2014-06-10T19:09:55Z</time>
      </trkpt>
      <trkpt lat="59.8771853" lon="17.6805294">
        <ele>27.5349</ele>
        <time>2014-06-10T19:09:56Z</time>
      </trkpt>
      <trkpt lat="59.8772207" lon="17.6804455">
        <ele>27.5349</ele>
        <time>2014-06-10T19:09:57Z</time>
      </trkpt>
      <trkpt lat="59.8772572" lon="17.6803676">
        <ele>28.0155</ele>
        <time>2014-06-10T19:09:58Z</time>
      </trkpt>
      <trkpt lat="59.8772951" lon="17.6802965">
        <ele>28.0155</ele>
        <time>2014-06-10T19:09:59Z</time>
      </trkpt>
      <trkpt lat="59.877332" lon="17.6802236">
        <ele>28.0155</ele>
        <time>2014-06-10T19:10:00Z</time>
      </trkpt>
      <trkpt lat="59.8773631" lon="17.680139">
        <ele>28.0155</ele>
        <time>2014-06-10T19:10:01Z</time>
      </trkpt>
      <trkpt lat="59.8773839" lon="17.6800389">
        <ele>28.0155</ele>
        <time>2014-06-10T19:10:02Z</time>
      </trkpt>
      <trkpt lat="59.8773966" lon="17.6799277">
        <ele>28.0155</ele>
        <time>2014-06-10T19:10:03Z</time>
      </trkpt>
      <trkpt lat="59.8774081" lon="17.6798097">
        <ele>28.0155</ele>
        <time>2014-06-10T19:10:04Z</time>
      </trkpt>
      <trkpt lat="59.8774253" lon="17.6796879">
        <ele>27.5349</ele>
        <time>2014-06-10T19:10:05Z</time>
      </trkpt>
      <trkpt lat="59.8774564" lon="17.6795645">
        <ele>27.0543</ele>
        <time>2014-06-10T19:10:06Z</time>
      </trkpt>
      <trkpt lat="59.8775029" lon="17.6794514">
        <ele>27.0543</ele>
        <time>2014-06-10T19:10:07Z</time>
      </trkpt>
      <trkpt lat="59.8775558" lon="17.6793456">
        <ele>27.0543</ele>
        <time>2014-06-10T19:10:08Z</time>
      </trkpt>
      <trkpt lat="59.8776112" lon="17.6792411">
        <ele>27.0543</ele>
        <time>2014-06-10T19:10:09Z</time>
      </trkpt>
      <trkpt lat="59.8776698" lon="17.6791398">
        <ele>27.0543</ele>
        <time>2014-06-10T19:10:10Z</time>
      </trkpt>
      <trkpt lat="59.877733" lon="17.6790502">
        <ele>26.5736</ele>
        <time>2014-06-10T19:10:11Z</time>
      </trkpt>
      <trkpt lat="59.8777999" lon="17.678972">
        <ele>27.0543</ele>
        <time>2014-06-10T19:10:12Z</time>
      </trkpt>
      <trkpt lat="59.8778661" lon="17.6788925">
        <ele>26.5736</ele>
        <time>2014-06-10T19:10:13Z</time>
      </trkpt>
      <trkpt lat="59.8779283" lon="17.6787994">
        <ele>26.5736</ele>
        <time>2014-06-10T19:10:14Z</time>
      </trkpt>
      <trkpt lat="59.8779858" lon="17.6786898">
        <ele>26.5736</ele>
        <time>2014-06-10T19:10:15Z</time>
      </trkpt>
      <trkpt lat="59.8780403" lon="17.6785705">
        <ele>26.5736</ele>
        <time>2014-06-10T19:10:16Z</time>
      </trkpt>
      <trkpt lat="59.878094" lon="17.6784481">
        <ele>26.5736</ele>
        <time>2014-06-10T19:10:17Z</time>
      </trkpt>
      <trkpt lat="59.8781472" lon="17.6783234">
        <ele>26.0929</ele>
        <time>2014-06-10T19:10:18Z</time>
      </trkpt>
      <trkpt lat="59.8782013" lon="17.6781945">
        <ele>26.0929</ele>
        <time>2014-06-10T19:10:19Z</time>
      </trkpt>
      <trkpt lat="59.8782567" lon="17.6780629">
        <ele>26.0929</ele>
        <time>2014-06-10T19:10:20Z</time>
      </trkpt>
      <trkpt lat="59.8783116" lon="17.6779316">
        <ele>26.0929</ele>
        <time>2014-06-10T19:10:21Z</time>
      </trkpt>
      <trkpt lat="59.8783659" lon="17.6778059">
        <ele>26.5736</ele>
        <time>2014-06-10T19:10:22Z</time>
      </trkpt>
      <trkpt lat="59.8784203" lon="17.6776838">
        <ele>26.5736</ele>
        <time>2014-06-10T19:10:23Z</time>
      </trkpt>
      <trkpt lat="59.8784743" lon="17.6775625">
        <ele>26.5736</ele>
        <time>2014-06-10T19:10:24Z</time>
      </trkpt>
      <trkpt lat="59.8785284" lon="17.6774411">
        <ele>26.5736</ele>
        <time>2014-06-10T19:10:25Z</time>
      </trkpt>
      <trkpt lat="59.8785826" lon="17.6773191">
        <ele>26.5736</ele>
        <time>2014-06-10T19:10:26Z</time>
      </trkpt>
      <trkpt lat="59.8786369" lon="17.6771974">
        <ele>26.5736</ele>
        <time>2014-06-10T19:10:27Z</time>
      </trkpt>
      <trkpt lat="59.8786913" lon="17.6770771">
        <ele>26.5736</ele>
        <time>2014-06-10T19:10:28Z</time>
      </trkpt>
      <trkpt lat="59.8787461" lon="17.6769595">
        <ele>26.5736</ele>
        <time>2014-06-10T19:10:29Z</time>
      </trkpt>
      <trkpt lat="59.8788009" lon="17.676843">
        <ele>26.5736</ele>
        <time>2014-06-10T19:10:30Z</time>
      </trkpt>
      <trkpt lat="59.8788559" lon="17.6767269">
        <ele>26.5736</ele>
        <time>2014-06-10T19:10:31Z</time>
      </trkpt>
      <trkpt lat="59.8789124" lon="17.6766123">
        <ele>26.5736</ele>
        <time>2014-06-10T19:10:32Z</time>
      </trkpt>
      <trkpt lat="59.8789715" lon="17.6765019">
        <ele>26.5736</ele>
        <time>2014-06-10T19:10:33Z</time>
      </trkpt>
      <trkpt lat="59.8790327" lon="17.6763975">
        <ele>26.5736</ele>
        <time>2014-06-10T19:10:34Z</time>
      </trkpt>
      <trkpt lat="59.8790943" lon="17.6762969">
        <ele>26.5736</ele>
        <time>2014-06-10T19:10:35Z</time>
      </trkpt>
      <trkpt lat="59.8791563" lon="17.6761965">
        <ele>26.5736</ele>
        <time>2014-06-10T19:10:36Z</time>
      </trkpt>
      <trkpt lat="59.8792191" lon="17.6760956">
        <ele>26.5736</ele>
        <time>2014-06-10T19:10:37Z</time>
      </trkpt>
      <trkpt lat="59.8792823" lon="17.6759944">
        <ele>26.5736</ele>
        <time>2014-06-10T19:10:38Z</time>
      </trkpt>
      <trkpt lat="59.8793455" lon="17.6758939">
        <ele>27.0543</ele>
        <time>2014-06-10T19:10:39Z</time>
      </trkpt>
      <trkpt lat="59.8794093" lon="17.6757955">
        <ele>27.0543</ele>
        <time>2014-06-10T19:10:40Z</time>
      </trkpt>
      <trkpt lat="59.8794733" lon="17.6756996">
        <ele>26.5736</ele>
        <time>2014-06-10T19:10:41Z</time>
      </trkpt>
      <trkpt lat="59.8795373" lon="17.6756071">
        <ele>26.5736</ele>
        <time>2014-06-10T19:10:42Z</time>
      </trkpt>
      <trkpt lat="59.879602" lon="17.6755163">
        <ele>26.5736</ele>
        <time>2014-06-10T19:10:43Z</time>
      </trkpt>
      <trkpt lat="59.879667" lon="17.6754239">
        <ele>26.5736</ele>
        <time>2014-06-10T19:10:44Z</time>
      </trkpt>
      <trkpt lat="59.8797305" lon="17.6753329">
        <ele>26.0929</ele>
        <time>2014-06-10T19:10:45Z</time>
      </trkpt>
      <trkpt lat="59.8797935" lon="17.6752388">
        <ele>26.0929</ele>
        <time>2014-06-10T19:10:46Z</time>
      </trkpt>
      <trkpt lat="59.8798578" lon="17.6751417">
        <ele>26.0929</ele>
        <time>2014-06-10T19:10:47Z</time>
      </trkpt>
      <trkpt lat="59.8799231" lon="17.6750505">
        <ele>26.0929</ele>
        <time>2014-06-10T19:10:48Z</time>
      </trkpt>
      <trkpt lat="59.879989" lon="17.6749599">
        <ele>25.6123</ele>
        <time>2014-06-10T19:10:49Z</time>
      </trkpt>
      <trkpt lat="59.8800571" lon="17.6748709">
        <ele>25.6123</ele>
        <time>2014-06-10T19:10:50Z</time>
      </trkpt>
      <trkpt lat="59.8801277" lon="17.6747888">
        <ele>25.1317</ele>
        <time>2014-06-10T19:10:51Z</time>
      </trkpt>
      <trkpt lat="59.8802009" lon="17.6747129">
        <ele>25.1317</ele>
        <time>2014-06-10T19:10:52Z</time>
      </trkpt>
      <trkpt lat="59.8802759" lon="17.67464">
        <ele>25.1317</ele>
        <time>2014-06-10T19:10:53Z</time>
      </trkpt>
      <trkpt lat="59.8803518" lon="17.6745679">
        <ele>24.651</ele>
        <time>2014-06-10T19:10:54Z</time>
      </trkpt>
      <trkpt lat="59.8804273" lon="17.6744938">
        <ele>24.651</ele>
        <time>2014-06-10T19:10:55Z</time>
      </trkpt>
      <trkpt lat="59.8805028" lon="17.6744176">
        <ele>24.651</ele>
        <time>2014-06-10T19:10:56Z</time>
      </trkpt>
      <trkpt lat="59.8805785" lon="17.6743433">
        <ele>24.651</ele>
        <time>2014-06-10T19:10:57Z</time>
      </trkpt>
      <trkpt lat="59.8806541" lon="17.6742719">
        <ele>24.1703</ele>
        <time>2014-06-10T19:10:58Z</time>
      </trkpt>
      <trkpt lat="59.8807297" lon="17.6742016">
        <ele>24.1703</ele>
        <time>2014-06-10T19:10:59Z</time>
      </trkpt>
      <trkpt lat="59.8808038" lon="17.6741311">
        <ele>24.1703</ele>
        <time>2014-06-10T19:11:00Z</time>
      </trkpt>
      <trkpt lat="59.8808774" lon="17.6740622">
        <ele>24.1703</ele>
        <time>2014-06-10T19:11:01Z</time>
      </trkpt>
      <trkpt lat="59.8809524" lon="17.6739942">
        <ele>24.1703</ele>
        <time>2014-06-10T19:11:02Z</time>
      </trkpt>
      <trkpt lat="59.8810275" lon="17.6739271">
        <ele>23.6896</ele>
        <time>2014-06-10T19:11:03Z</time>
      </trkpt>
      <trkpt lat="59.8811016" lon="17.6738593">
        <ele>24.1703</ele>
        <time>2014-06-10T19:11:04Z</time>
      </trkpt>
      <trkpt lat="59.8811736" lon="17.6737897">
        <ele>24.1703</ele>
        <time>2014-06-10T19:11:05Z</time>
      </trkpt>
      <trkpt lat="59.8812438" lon="17.6737166">
        <ele>24.1703</ele>
        <time>2014-06-10T19:11:06Z</time>
      </trkpt>
      <trkpt lat="59.8813102" lon="17.6736362">
        <ele>24.1703</ele>
        <time>2014-06-10T19:11:07Z</time>
      </trkpt>
      <trkpt lat="59.8813726" lon="17.6735444">
        <ele>24.1703</ele>
        <time>2014-06-10T19:11:08Z</time>
      </trkpt>
      <trkpt lat="59.8814377" lon="17.6734584">
        <ele>24.1703</ele>
        <time>2014-06-10T19:11:09Z</time>
      </trkpt>
      <trkpt lat="59.8815102" lon="17.6734029">
        <ele>24.1703</ele>
        <time>2014-06-10T19:11:10Z</time>
      </trkpt>
      <trkpt lat="59.8815859" lon="17.6733724">
        <ele>24.1703</ele>
        <time>2014-06-10T19:11:11Z</time>
      </trkpt>
      <trkpt lat="59.8816614" lon="17.6733399">
        <ele>24.1703</ele>
        <time>2014-06-10T19:11:12Z</time>
      </trkpt>
      <trkpt lat="59.8817358" lon="17.6732966">
        <ele>24.1703</ele>
        <time>2014-06-10T19:11:13Z</time>
      </trkpt>
      <trkpt lat="59.8818095" lon="17.6732457">
        <ele>24.1703</ele>
        <time>2014-06-10T19:11:14Z</time>
      </trkpt>
      <trkpt lat="59.8818813" lon="17.6731863">
        <ele>24.1703</ele>
        <time>2014-06-10T19:11:15Z</time>
      </trkpt>
      <trkpt lat="59.8819516" lon="17.6731219">
        <ele>24.1703</ele>
        <time>2014-06-10T19:11:16Z</time>
      </trkpt>
      <trkpt lat="59.8820184" lon="17.6730488">
        <ele>24.1703</ele>
        <time>2014-06-10T19:11:17Z</time>
      </trkpt>
      <trkpt lat="59.8820806" lon="17.6729613">
        <ele>24.1703</ele>
        <time>2014-06-10T19:11:18Z</time>
      </trkpt>
      <trkpt lat="59.8821372" lon="17.6728599">
        <ele>24.1703</ele>
        <time>2014-06-10T19:11:19Z</time>
      </trkpt>
      <trkpt lat="59.8821879" lon="17.6727456">
        <ele>24.1703</ele>
        <time>2014-06-10T19:11:20Z</time>
      </trkpt>
      <trkpt lat="59.882239" lon="17.672631">
        <ele>24.1703</ele>
        <time>2014-06-10T19:11:21Z</time>
      </trkpt>
      <trkpt lat="59.8822982" lon="17.6725327">
        <ele>24.1703</ele>
        <time>2014-06-10T19:11:22Z</time>
      </trkpt>
      <trkpt lat="59.8823655" lon="17.6724565">
        <ele>24.1703</ele>
        <time>2014-06-10T19:11:23Z</time>
      </trkpt>
      <trkpt lat="59.8824365" lon="17.6723952">
        <ele>24.1703</ele>
        <time>2014-06-10T19:11:24Z</time>
      </trkpt>
      <trkpt lat="59.8825091" lon="17.6723374">
        <ele>24.1703</ele>
        <time>2014-06-10T19:11:25Z</time>
      </trkpt>
      <trkpt lat="59.882582" lon="17.6722782">
        <ele>24.1703</ele>
        <time>2014-06-10T19:11:26Z</time>
      </trkpt>
      <trkpt lat="59.8826546" lon="17.6722165">
        <ele>24.1703</ele>
        <time>2014-06-10T19:11:27Z</time>
      </trkpt>
      <trkpt lat="59.8827272" lon="17.672154">
        <ele>24.1703</ele>
        <time>2014-06-10T19:11:28Z</time>
      </trkpt>
      <trkpt lat="59.8828001" lon="17.6720928">
        <ele>24.1703</ele>
        <time>2014-06-10T19:11:29Z</time>
      </trkpt>
      <trkpt lat="59.8828722" lon="17.6720322">
        <ele>24.1703</ele>
        <time>2014-06-10T19:11:30Z</time>
      </trkpt>
      <trkpt lat="59.8829437" lon="17.67197">
        <ele>24.1703</ele>
        <time>2014-06-10T19:11:31Z</time>
      </trkpt>
      <trkpt lat="59.8830141" lon="17.6719043">
        <ele>24.1703</ele>
        <time>2014-06-10T19:11:32Z</time>
      </trkpt>
      <trkpt lat="59.8830838" lon="17.6718367">
        <ele>24.1703</ele>
        <time>2014-06-10T19:11:33Z</time>
      </trkpt>
      <trkpt lat="59.8831534" lon="17.6717695">
        <ele>24.1703</ele>
        <time>2014-06-10T19:11:34Z</time>
      </trkpt>
      <trkpt lat="59.8832223" lon="17.6717017">
        <ele>24.1703</ele>
        <time>2014-06-10T19:11:35Z</time>
      </trkpt>
      <trkpt lat="59.8832898" lon="17.6716314">
        <ele>24.1703</ele>
        <time>2014-06-10T19:11:36Z</time>
      </trkpt>
      <trkpt lat="59.8833563" lon="17.6715586">
        <ele>24.1703</ele>
        <time>2014-06-10T19:11:37Z</time>
      </trkpt>
      <trkpt lat="59.8834221" lon="17.6714855">
        <ele>23.6896</ele>
        <time>2014-06-10T19:11:38Z</time>
      </trkpt>
      <trkpt lat="59.8834876" lon="17.6714122">
        <ele>23.6896</ele>
        <time>2014-06-10T19:11:39Z</time>
      </trkpt>
      <trkpt lat="59.8835524" lon="17.6713379">
        <ele>23.6896</ele>
        <time>2014-06-10T19:11:40Z</time>
      </trkpt>
      <trkpt lat="59.883618" lon="17.6712648">
        <ele>23.6896</ele>
        <time>2014-06-10T19:11:41Z</time>
      </trkpt>
      <trkpt lat="59.8836865" lon="17.6712044">
        <ele>23.6896</ele>
        <time>2014-06-10T19:11:42Z</time>
      </trkpt>
      <trkpt lat="59.883759" lon="17.6711661">
        <ele>23.6896</ele>
        <time>2014-06-10T19:11:43Z</time>
      </trkpt>
      <trkpt lat="59.8838329" lon="17.6711444">
        <ele>23.6896</ele>
        <time>2014-06-10T19:11:44Z</time>
      </trkpt>
      <trkpt lat="59.883904" lon="17.671113">
        <ele>23.209</ele>
        <time>2014-06-10T19:11:45Z</time>
      </trkpt>
      <trkpt lat="59.8839673" lon="17.6710478">
        <ele>23.209</ele>
        <time>2014-06-10T19:11:46Z</time>
      </trkpt>
      <trkpt lat="59.884017" lon="17.6709462">
        <ele>23.6896</ele>
        <time>2014-06-10T19:11:47Z</time>
      </trkpt>
      <trkpt lat="59.884052" lon="17.6708194">
        <ele>23.6896</ele>
        <time>2014-06-10T19:11:48Z</time>
      </trkpt>
      <trkpt lat="59.8840782" lon="17.6706812">
        <ele>23.6896</ele>
        <time>2014-06-10T19:11:49Z</time>
      </trkpt>
      <trkpt lat="59.8841058" lon="17.6705404">
        <ele>23.209</ele>
        <time>2014-06-10T19:11:50Z</time>
      </trkpt>
      <trkpt lat="59.8841442" lon="17.6704067">
        <ele>23.209</ele>
        <time>2014-06-10T19:11:51Z</time>
      </trkpt>
      <trkpt lat="59.884194" lon="17.670286">
        <ele>23.209</ele>
        <time>2014-06-10T19:11:52Z</time>
      </trkpt>
      <trkpt lat="59.8842486" lon="17.670173">
        <ele>23.209</ele>
        <time>2014-06-10T19:11:53Z</time>
      </trkpt>
      <trkpt lat="59.8843038" lon="17.6700612">
        <ele>23.209</ele>
        <time>2014-06-10T19:11:54Z</time>
      </trkpt>
      <trkpt lat="59.8843579" lon="17.6699471">
        <ele>23.209</ele>
        <time>2014-06-10T19:11:55Z</time>
      </trkpt>
      <trkpt lat="59.8844112" lon="17.66983">
        <ele>23.209</ele>
        <time>2014-06-10T19:11:56Z</time>
      </trkpt>
      <trkpt lat="59.8844633" lon="17.6697101">
        <ele>23.209</ele>
        <time>2014-06-10T19:11:57Z</time>
      </trkpt>
      <trkpt lat="59.8845141" lon="17.6695878">
        <ele>23.209</ele>
        <time>2014-06-10T19:11:58Z</time>
      </trkpt>
      <trkpt lat="59.884563" lon="17.6694642">
        <ele>23.209</ele>
        <time>2014-06-10T19:11:59Z</time>
      </trkpt>
      <trkpt lat="59.8846101" lon="17.6693405">
        <ele>23.209</ele>
        <time>2014-06-10T19:12:00Z</time>
      </trkpt>
      <trkpt lat="59.8846549" lon="17.6692166">
        <ele>23.209</ele>
        <time>2014-06-10T19:12:01Z</time>
      </trkpt>
      <trkpt lat="59.8846966" lon="17.6690923">
        <ele>22.7283</ele>
        <time>2014-06-10T19:12:02Z</time>
      </trkpt>
      <trkpt lat="59.8847359" lon="17.6689671">
        <ele>22.7283</ele>
        <time>2014-06-10T19:12:03Z</time>
      </trkpt>
      <trkpt lat="59.8847739" lon="17.6688419">
        <ele>22.7283</ele>
        <time>2014-06-10T19:12:04Z</time>
      </trkpt>
      <trkpt lat="59.8848122" lon="17.6687152">
        <ele>22.7283</ele>
        <time>2014-06-10T19:12:05Z</time>
      </trkpt>
      <trkpt lat="59.8848498" lon="17.6685859">
        <ele>22.7283</ele>
        <time>2014-06-10T19:12:06Z</time>
      </trkpt>
      <trkpt lat="59.8848866" lon="17.6684548">
        <ele>22.2476</ele>
        <time>2014-06-10T19:12:07Z</time>
      </trkpt>
      <trkpt lat="59.884923" lon="17.6683222">
        <ele>22.2476</ele>
        <time>2014-06-10T19:12:08Z</time>
      </trkpt>
      <trkpt lat="59.8849614" lon="17.6681904">
        <ele>22.2476</ele>
        <time>2014-06-10T19:12:09Z</time>
      </trkpt>
      <trkpt lat="59.8850644" lon="17.6679652">
        <ele>22.2476</ele>
        <time>2014-06-10T19:12:10Z</time>
      </trkpt>
      <trkpt lat="59.8851193" lon="17.6678586">
        <ele>22.2476</ele>
        <time>2014-06-10T19:12:11Z</time>
      </trkpt>
      <trkpt lat="59.8851618" lon="17.6677321">
        <ele>22.2476</ele>
        <time>2014-06-10T19:12:12Z</time>
      </trkpt>
      <trkpt lat="59.8851856" lon="17.6675866">
        <ele>22.2476</ele>
        <time>2014-06-10T19:12:13Z</time>
      </trkpt>
      <trkpt lat="59.885189" lon="17.6674307">
        <ele>22.2476</ele>
        <time>2014-06-10T19:12:14Z</time>
      </trkpt>
      <trkpt lat="59.8851778" lon="17.667273">
        <ele>22.2476</ele>
        <time>2014-06-10T19:12:15Z</time>
      </trkpt>
      <trkpt lat="59.8851657" lon="17.6671137">
        <ele>22.2476</ele>
        <time>2014-06-10T19:12:16Z</time>
      </trkpt>
      <trkpt lat="59.8851652" lon="17.6669532">
        <ele>21.767</ele>
        <time>2014-06-10T19:12:17Z</time>
      </trkpt>
      <trkpt lat="59.8851761" lon="17.6667956">
        <ele>21.767</ele>
        <time>2014-06-10T19:12:18Z</time>
      </trkpt>
      <trkpt lat="59.8851908" lon="17.666641">
        <ele>21.767</ele>
        <time>2014-06-10T19:12:19Z</time>
      </trkpt>
      <trkpt lat="59.8852053" lon="17.6664853">
        <ele>21.767</ele>
        <time>2014-06-10T19:12:20Z</time>
      </trkpt>
      <trkpt lat="59.8852202" lon="17.6663293">
        <ele>21.767</ele>
        <time>2014-06-10T19:12:21Z</time>
      </trkpt>
      <trkpt lat="59.8852348" lon="17.6661749">
        <ele>21.767</ele>
        <time>2014-06-10T19:12:22Z</time>
      </trkpt>
      <trkpt lat="59.8852491" lon="17.6660211">
        <ele>21.767</ele>
        <time>2014-06-10T19:12:23Z</time>
      </trkpt>
      <trkpt lat="59.885265" lon="17.6658688">
        <ele>21.767</ele>
        <time>2014-06-10T19:12:24Z</time>
      </trkpt>
      <trkpt lat="59.8852839" lon="17.6657176">
        <ele>21.767</ele>
        <time>2014-06-10T19:12:25Z</time>
      </trkpt>
      <trkpt lat="59.8853078" lon="17.6655665">
        <ele>21.2864</ele>
        <time>2014-06-10T19:12:26Z</time>
      </trkpt>
      <trkpt lat="59.8853403" lon="17.6654162">
        <ele>21.2864</ele>
        <time>2014-06-10T19:12:27Z</time>
      </trkpt>
      <trkpt lat="59.8853824" lon="17.6652696">
        <ele>21.2864</ele>
        <time>2014-06-10T19:12:28Z</time>
      </trkpt>
      <trkpt lat="59.8854377" lon="17.6651344">
        <ele>21.2864</ele>
        <time>2014-06-10T19:12:29Z</time>
      </trkpt>
      <trkpt lat="59.8855084" lon="17.6650225">
        <ele>21.2864</ele>
        <time>2014-06-10T19:12:30Z</time>
      </trkpt>
      <trkpt lat="59.8855921" lon="17.6649483">
        <ele>21.2864</ele>
        <time>2014-06-10T19:12:31Z</time>
      </trkpt>
      <trkpt lat="59.8856828" lon="17.6649226">
        <ele>20.8057</ele>
        <time>2014-06-10T19:12:32Z</time>
      </trkpt>
      <trkpt lat="59.8857734" lon="17.6649378">
        <ele>20.8057</ele>
        <time>2014-06-10T19:12:33Z</time>
      </trkpt>
      <trkpt lat="59.885862" lon="17.6649635">
        <ele>20.8057</ele>
        <time>2014-06-10T19:12:34Z</time>
      </trkpt>
      <trkpt lat="59.8859508" lon="17.6649666">
        <ele>20.325</ele>
        <time>2014-06-10T19:12:35Z</time>
      </trkpt>
      <trkpt lat="59.8860382" lon="17.6649308">
        <ele>20.325</ele>
        <time>2014-06-10T19:12:36Z</time>
      </trkpt>
      <trkpt lat="59.8861195" lon="17.6648546">
        <ele>20.325</ele>
        <time>2014-06-10T19:12:37Z</time>
      </trkpt>
      <trkpt lat="59.886191" lon="17.6647429">
        <ele>20.325</ele>
        <time>2014-06-10T19:12:38Z</time>
      </trkpt>
      <trkpt lat="59.8862514" lon="17.6646028">
        <ele>20.8057</ele>
        <time>2014-06-10T19:12:39Z</time>
      </trkpt>
      <trkpt lat="59.8863029" lon="17.664446">
        <ele>20.8057</ele>
        <time>2014-06-10T19:12:40Z</time>
      </trkpt>
      <trkpt lat="59.8863515" lon="17.6642836">
        <ele>20.8057</ele>
        <time>2014-06-10T19:12:41Z</time>
      </trkpt>
      <trkpt lat="59.8864019" lon="17.6641246">
        <ele>20.8057</ele>
        <time>2014-06-10T19:12:42Z</time>
      </trkpt>
      <trkpt lat="59.8864545" lon="17.6639697">
        <ele>21.2864</ele>
        <time>2014-06-10T19:12:43Z</time>
      </trkpt>
      <trkpt lat="59.886509" lon="17.6638202">
        <ele>21.2864</ele>
        <time>2014-06-10T19:12:44Z</time>
      </trkpt>
      <trkpt lat="59.8865666" lon="17.6636777">
        <ele>21.2864</ele>
        <time>2014-06-10T19:12:45Z</time>
      </trkpt>
      <trkpt lat="59.8866271" lon="17.663542">
        <ele>21.2864</ele>
        <time>2014-06-10T19:12:46Z</time>
      </trkpt>
      <trkpt lat="59.886689" lon="17.6634139">
        <ele>21.2864</ele>
        <time>2014-06-10T19:12:47Z</time>
      </trkpt>
      <trkpt lat="59.8867509" lon="17.6632903">
        <ele>21.2864</ele>
        <time>2014-06-10T19:12:48Z</time>
      </trkpt>
      <trkpt lat="59.8868107" lon="17.663168">
        <ele>21.2864</ele>
        <time>2014-06-10T19:12:49Z</time>
      </trkpt>
      <trkpt lat="59.8868679" lon="17.6630431">
        <ele>21.767</ele>
        <time>2014-06-10T19:12:50Z</time>
      </trkpt>
      <trkpt lat="59.8869209" lon="17.662913">
        <ele>21.767</ele>
        <time>2014-06-10T19:12:51Z</time>
      </trkpt>
      <trkpt lat="59.8869692" lon="17.6627778">
        <ele>21.767</ele>
        <time>2014-06-10T19:12:52Z</time>
      </trkpt>
      <trkpt lat="59.8870126" lon="17.6626377">
        <ele>21.767</ele>
        <time>2014-06-10T19:12:53Z</time>
      </trkpt>
      <trkpt lat="59.8870499" lon="17.662493">
        <ele>21.767</ele>
        <time>2014-06-10T19:12:54Z</time>
      </trkpt>
      <trkpt lat="59.8870808" lon="17.6623412">
        <ele>22.2476</ele>
        <time>2014-06-10T19:12:55Z</time>
      </trkpt>
      <trkpt lat="59.8871056" lon="17.6621826">
        <ele>22.2476</ele>
        <time>2014-06-10T19:12:56Z</time>
      </trkpt>
      <trkpt lat="59.8871251" lon="17.6620197">
        <ele>22.2476</ele>
        <time>2014-06-10T19:12:57Z</time>
      </trkpt>
      <trkpt lat="59.8871381" lon="17.6618547">
        <ele>22.2476</ele>
        <time>2014-06-10T19:12:58Z</time>
      </trkpt>
      <trkpt lat="59.8871477" lon="17.6616852">
        <ele>22.2476</ele>
        <time>2014-06-10T19:12:59Z</time>
      </trkpt>
      <trkpt lat="59.8871668" lon="17.6615165">
        <ele>22.2476</ele>
        <time>2014-06-10T19:13:00Z</time>
      </trkpt>
      <trkpt lat="59.8872059" lon="17.6613617">
        <ele>22.2476</ele>
        <time>2014-06-10T19:13:01Z</time>
      </trkpt>
      <trkpt lat="59.8872642" lon="17.6612332">
        <ele>22.2476</ele>
        <time>2014-06-10T19:13:02Z</time>
      </trkpt>
      <trkpt lat="59.8873338" lon="17.661127">
        <ele>22.2476</ele>
        <time>2014-06-10T19:13:03Z</time>
      </trkpt>
      <trkpt lat="59.8874095" lon="17.6610348">
        <ele>22.2476</ele>
        <time>2014-06-10T19:13:04Z</time>
      </trkpt>
      <trkpt lat="59.8874885" lon="17.6609535">
        <ele>22.2476</ele>
        <time>2014-06-10T19:13:05Z</time>
      </trkpt>
      <trkpt lat="59.8875687" lon="17.6608773">
        <ele>21.767</ele>
        <time>2014-06-10T19:13:06Z</time>
      </trkpt>
      <trkpt lat="59.8876477" lon="17.6607961">
        <ele>21.767</ele>
        <time>2014-06-10T19:13:07Z</time>
      </trkpt>
      <trkpt lat="59.8877227" lon="17.6607001">
        <ele>21.767</ele>
        <time>2014-06-10T19:13:08Z</time>
      </trkpt>
      <trkpt lat="59.8877912" lon="17.6605861">
        <ele>21.767</ele>
        <time>2014-06-10T19:13:09Z</time>
      </trkpt>
      <trkpt lat="59.8878538" lon="17.6604583">
        <ele>21.767</ele>
        <time>2014-06-10T19:13:10Z</time>
      </trkpt>
      <trkpt lat="59.8879127" lon="17.6603221">
        <ele>21.767</ele>
        <time>2014-06-10T19:13:11Z</time>
      </trkpt>
      <trkpt lat="59.8879678" lon="17.6601835">
        <ele>21.767</ele>
        <time>2014-06-10T19:13:12Z</time>
      </trkpt>
      <trkpt lat="59.8880192" lon="17.6600455">
        <ele>21.767</ele>
        <time>2014-06-10T19:13:13Z</time>
      </trkpt>
      <trkpt lat="59.8880683" lon="17.6599106">
        <ele>21.767</ele>
        <time>2014-06-10T19:13:14Z</time>
      </trkpt>
      <trkpt lat="59.8881163" lon="17.6597798">
        <ele>21.767</ele>
        <time>2014-06-10T19:13:15Z</time>
      </trkpt>
      <trkpt lat="59.888163" lon="17.6596527">
        <ele>21.767</ele>
        <time>2014-06-10T19:13:16Z</time>
      </trkpt>
      <trkpt lat="59.8882086" lon="17.6595264">
        <ele>21.767</ele>
        <time>2014-06-10T19:13:17Z</time>
      </trkpt>
      <trkpt lat="59.8882543" lon="17.659401">
        <ele>21.767</ele>
        <time>2014-06-10T19:13:18Z</time>
      </trkpt>
      <trkpt lat="59.8882999" lon="17.6592767">
        <ele>21.767</ele>
        <time>2014-06-10T19:13:19Z</time>
      </trkpt>
      <trkpt lat="59.8883453" lon="17.6591527">
        <ele>21.767</ele>
        <time>2014-06-10T19:13:20Z</time>
      </trkpt>
      <trkpt lat="59.8883909" lon="17.6590285">
        <ele>21.767</ele>
        <time>2014-06-10T19:13:21Z</time>
      </trkpt>
      <trkpt lat="59.8884364" lon="17.6589033">
        <ele>21.767</ele>
        <time>2014-06-10T19:13:22Z</time>
      </trkpt>
      <trkpt lat="59.8884815" lon="17.6587782">
        <ele>21.767</ele>
        <time>2014-06-10T19:13:23Z</time>
      </trkpt>
      <trkpt lat="59.8885271" lon="17.6586538">
        <ele>21.767</ele>
        <time>2014-06-10T19:13:24Z</time>
      </trkpt>
      <trkpt lat="59.8885734" lon="17.6585291">
        <ele>22.2476</ele>
        <time>2014-06-10T19:13:25Z</time>
      </trkpt>
      <trkpt lat="59.8886208" lon="17.6584054">
        <ele>22.2476</ele>
        <time>2014-06-10T19:13:26Z</time>
      </trkpt>
      <trkpt lat="59.8886682" lon="17.6582812">
        <ele>22.2476</ele>
        <time>2014-06-10T19:13:27Z</time>
      </trkpt>
      <trkpt lat="59.8887143" lon="17.6581558">
        <ele>22.2476</ele>
        <time>2014-06-10T19:13:28Z</time>
      </trkpt>
      <trkpt lat="59.8887589" lon="17.6580294">
        <ele>22.2476</ele>
        <time>2014-06-10T19:13:29Z</time>
      </trkpt>
      <trkpt lat="59.8888034" lon="17.657903">
        <ele>22.2476</ele>
        <time>2014-06-10T19:13:30Z</time>
      </trkpt>
      <trkpt lat="59.8888489" lon="17.6577784">
        <ele>22.2476</ele>
        <time>2014-06-10T19:13:31Z</time>
      </trkpt>
      <trkpt lat="59.8888946" lon="17.6576531">
        <ele>22.2476</ele>
        <time>2014-06-10T19:13:32Z</time>
      </trkpt>
      <trkpt lat="59.8889404" lon="17.6575275">
        <ele>22.2476</ele>
        <time>2014-06-10T19:13:33Z</time>
      </trkpt>
      <trkpt lat="59.8889868" lon="17.6574026">
        <ele>22.2476</ele>
        <time>2014-06-10T19:13:34Z</time>
      </trkpt>
      <trkpt lat="59.8890343" lon="17.6572782">
        <ele>22.2476</ele>
        <time>2014-06-10T19:13:35Z</time>
      </trkpt>
      <trkpt lat="59.8890815" lon="17.6571544">
        <ele>22.2476</ele>
        <time>2014-06-10T19:13:36Z</time>
      </trkpt>
      <trkpt lat="59.8891282" lon="17.6570299">
        <ele>22.2476</ele>
        <time>2014-06-10T19:13:37Z</time>
      </trkpt>
      <trkpt lat="59.8891748" lon="17.6569042">
        <ele>22.2476</ele>
        <time>2014-06-10T19:13:38Z</time>
      </trkpt>
      <trkpt lat="59.8892205" lon="17.6567782">
        <ele>22.2476</ele>
        <time>2014-06-10T19:13:39Z</time>
      </trkpt>
      <trkpt lat="59.8892655" lon="17.6566518">
        <ele>22.2476</ele>
        <time>2014-06-10T19:13:40Z</time>
      </trkpt>
      <trkpt lat="59.8893109" lon="17.6565266">
        <ele>22.2476</ele>
        <time>2014-06-10T19:13:41Z</time>
      </trkpt>
      <trkpt lat="59.889357" lon="17.6564032">
        <ele>22.2476</ele>
        <time>2014-06-10T19:13:42Z</time>
      </trkpt>
      <trkpt lat="59.8894026" lon="17.6562805">
        <ele>22.2476</ele>
        <time>2014-06-10T19:13:43Z</time>
      </trkpt>
      <trkpt lat="59.8894472" lon="17.6561586">
        <ele>22.2476</ele>
        <time>2014-06-10T19:13:44Z</time>
      </trkpt>
      <trkpt lat="59.8894914" lon="17.6560371">
        <ele>22.2476</ele>
        <time>2014-06-10T19:13:45Z</time>
      </trkpt>
      <trkpt lat="59.8895356" lon="17.6559165">
        <ele>22.2476</ele>
        <time>2014-06-10T19:13:46Z</time>
      </trkpt>
      <trkpt lat="59.8895795" lon="17.6557972">
        <ele>22.2476</ele>
        <time>2014-06-10T19:13:47Z</time>
      </trkpt>
      <trkpt lat="59.8896229" lon="17.6556776">
        <ele>22.2476</ele>
        <time>2014-06-10T19:13:48Z</time>
      </trkpt>
      <trkpt lat="59.8896672" lon="17.655557">
        <ele>22.2476</ele>
        <time>2014-06-10T19:13:49Z</time>
      </trkpt>
      <trkpt lat="59.8897126" lon="17.6554353">
        <ele>22.2476</ele>
        <time>2014-06-10T19:13:50Z</time>
      </trkpt>
      <trkpt lat="59.8897576" lon="17.655312">
        <ele>22.2476</ele>
        <time>2014-06-10T19:13:51Z</time>
      </trkpt>
      <trkpt lat="59.889803" lon="17.6551881">
        <ele>22.2476</ele>
        <time>2014-06-10T19:13:52Z</time>
      </trkpt>
      <trkpt lat="59.8898485" lon="17.6550643">
        <ele>22.2476</ele>
        <time>2014-06-10T19:13:53Z</time>
      </trkpt>
      <trkpt lat="59.8898938" lon="17.6549413">
        <ele>22.2476</ele>
        <time>2014-06-10T19:13:54Z</time>
      </trkpt>
      <trkpt lat="59.8899393" lon="17.6548187">
        <ele>22.2476</ele>
        <time>2014-06-10T19:13:55Z</time>
      </trkpt>
      <trkpt lat="59.889984" lon="17.654696">
        <ele>22.2476</ele>
        <time>2014-06-10T19:13:56Z</time>
      </trkpt>
      <trkpt lat="59.8900286" lon="17.6545725">
        <ele>22.2476</ele>
        <time>2014-06-10T19:13:57Z</time>
      </trkpt>
      <trkpt lat="59.890073" lon="17.6544476">
        <ele>22.7283</ele>
        <time>2014-06-10T19:13:58Z</time>
      </trkpt>
      <trkpt lat="59.8901179" lon="17.6543225">
        <ele>22.7283</ele>
        <time>2014-06-10T19:13:59Z</time>
      </trkpt>
      <trkpt lat="59.8901635" lon="17.6541987">
        <ele>22.7283</ele>
        <time>2014-06-10T19:14:00Z</time>
      </trkpt>
      <trkpt lat="59.8902094" lon="17.654076">
        <ele>22.7283</ele>
        <time>2014-06-10T19:14:01Z</time>
      </trkpt>
      <trkpt lat="59.8902554" lon="17.6539536">
        <ele>22.7283</ele>
        <time>2014-06-10T19:14:02Z</time>
      </trkpt>
      <trkpt lat="59.8903015" lon="17.6538305">
        <ele>22.7283</ele>
        <time>2014-06-10T19:14:03Z</time>
      </trkpt>
      <trkpt lat="59.890348" lon="17.6537086">
        <ele>22.7283</ele>
        <time>2014-06-10T19:14:04Z</time>
      </trkpt>
      <trkpt lat="59.8903945" lon="17.6535864">
        <ele>22.7283</ele>
        <time>2014-06-10T19:14:05Z</time>
      </trkpt>
      <trkpt lat="59.8904403" lon="17.653462">
        <ele>22.7283</ele>
        <time>2014-06-10T19:14:06Z</time>
      </trkpt>
      <trkpt lat="59.8904854" lon="17.6533361">
        <ele>22.7283</ele>
        <time>2014-06-10T19:14:07Z</time>
      </trkpt>
      <trkpt lat="59.8905307" lon="17.6532106">
        <ele>23.209</ele>
        <time>2014-06-10T19:14:08Z</time>
      </trkpt>
      <trkpt lat="59.8905763" lon="17.653087">
        <ele>23.209</ele>
        <time>2014-06-10T19:14:09Z</time>
      </trkpt>
      <trkpt lat="59.8906222" lon="17.652963">
        <ele>23.209</ele>
        <time>2014-06-10T19:14:10Z</time>
      </trkpt>
      <trkpt lat="59.8906676" lon="17.6528377">
        <ele>23.209</ele>
        <time>2014-06-10T19:14:11Z</time>
      </trkpt>
      <trkpt lat="59.8907131" lon="17.6527125">
        <ele>23.209</ele>
        <time>2014-06-10T19:14:12Z</time>
      </trkpt>
      <trkpt lat="59.8907594" lon="17.6525881">
        <ele>23.209</ele>
        <time>2014-06-10T19:14:13Z</time>
      </trkpt>
      <trkpt lat="59.890806" lon="17.6524628">
        <ele>23.209</ele>
        <time>2014-06-10T19:14:14Z</time>
      </trkpt>
      <trkpt lat="59.8908526" lon="17.6523365">
        <ele>23.209</ele>
        <time>2014-06-10T19:14:15Z</time>
      </trkpt>
      <trkpt lat="59.8908993" lon="17.6522105">
        <ele>23.6896</ele>
        <time>2014-06-10T19:14:16Z</time>
      </trkpt>
      <trkpt lat="59.8909459" lon="17.652085">
        <ele>23.6896</ele>
        <time>2014-06-10T19:14:17Z</time>
      </trkpt>
      <trkpt lat="59.8909923" lon="17.6519594">
        <ele>23.6896</ele>
        <time>2014-06-10T19:14:18Z</time>
      </trkpt>
      <trkpt lat="59.8910384" lon="17.6518329">
        <ele>23.6896</ele>
        <time>2014-06-10T19:14:19Z</time>
      </trkpt>
      <trkpt lat="59.8910842" lon="17.6517054">
        <ele>23.6896</ele>
        <time>2014-06-10T19:14:20Z</time>
      </trkpt>
      <trkpt lat="59.8911298" lon="17.6515787">
        <ele>23.6896</ele>
        <time>2014-06-10T19:14:21Z</time>
      </trkpt>
      <trkpt lat="59.8911748" lon="17.6514527">
        <ele>24.1703</ele>
        <time>2014-06-10T19:14:22Z</time>
      </trkpt>
      <trkpt lat="59.8912178" lon="17.6513259">
        <ele>24.1703</ele>
        <time>2014-06-10T19:14:23Z</time>
      </trkpt>
      <trkpt lat="59.8912598" lon="17.6511995">
        <ele>24.1703</ele>
        <time>2014-06-10T19:14:24Z</time>
      </trkpt>
      <trkpt lat="59.8913017" lon="17.6510752">
        <ele>24.1703</ele>
        <time>2014-06-10T19:14:25Z</time>
      </trkpt>
      <trkpt lat="59.8913435" lon="17.6509519">
        <ele>24.651</ele>
        <time>2014-06-10T19:14:26Z</time>
      </trkpt>
      <trkpt lat="59.8913845" lon="17.6508279">
        <ele>24.651</ele>
        <time>2014-06-10T19:14:27Z</time>
      </trkpt>
      <trkpt lat="59.8914246" lon="17.6507021">
        <ele>24.651</ele>
        <time>2014-06-10T19:14:28Z</time>
      </trkpt>
      <trkpt lat="59.8914644" lon="17.6505742">
        <ele>24.651</ele>
        <time>2014-06-10T19:14:29Z</time>
      </trkpt>
      <trkpt lat="59.8915036" lon="17.6504442">
        <ele>24.651</ele>
        <time>2014-06-10T19:14:30Z</time>
      </trkpt>
      <trkpt lat="59.891542" lon="17.6503129">
        <ele>25.1317</ele>
        <time>2014-06-10T19:14:31Z</time>
      </trkpt>
      <trkpt lat="59.89158" lon="17.6501798">
        <ele>25.1317</ele>
        <time>2014-06-10T19:14:32Z</time>
      </trkpt>
      <trkpt lat="59.8916173" lon="17.6500441">
        <ele>25.1317</ele>
        <time>2014-06-10T19:14:33Z</time>
      </trkpt>
      <trkpt lat="59.891654" lon="17.6499052">
        <ele>25.1317</ele>
        <time>2014-06-10T19:14:34Z</time>
      </trkpt>
      <trkpt lat="59.8916895" lon="17.6497625">
        <ele>25.1317</ele>
        <time>2014-06-10T19:14:35Z</time>
      </trkpt>
      <trkpt lat="59.8917233" lon="17.6496172">
        <ele>25.6123</ele>
        <time>2014-06-10T19:14:36Z</time>
      </trkpt>
      <trkpt lat="59.8917559" lon="17.6494687">
        <ele>25.6123</ele>
        <time>2014-06-10T19:14:37Z</time>
      </trkpt>
      <trkpt lat="59.8917875" lon="17.6493176">
        <ele>25.6123</ele>
        <time>2014-06-10T19:14:38Z</time>
      </trkpt>
      <trkpt lat="59.8918176" lon="17.6491641">
        <ele>25.6123</ele>
        <time>2014-06-10T19:14:39Z</time>
      </trkpt>
      <trkpt lat="59.8918458" lon="17.6490095">
        <ele>25.6123</ele>
        <time>2014-06-10T19:14:40Z</time>
      </trkpt>
      <trkpt lat="59.8918741" lon="17.6488557">
        <ele>26.0929</ele>
        <time>2014-06-10T19:14:41Z</time>
      </trkpt>
      <trkpt lat="59.8919026" lon="17.6487021">
        <ele>26.0929</ele>
        <time>2014-06-10T19:14:42Z</time>
      </trkpt>
      <trkpt lat="59.8919266" lon="17.6485511">
        <ele>26.0929</ele>
        <time>2014-06-10T19:14:43Z</time>
      </trkpt>
      <trkpt lat="59.891947" lon="17.6484046">
        <ele>26.0929</ele>
        <time>2014-06-10T19:14:44Z</time>
      </trkpt>
      <trkpt lat="59.8919715" lon="17.6482533">
        <ele>25.6123</ele>
        <time>2014-06-10T19:14:45Z</time>
      </trkpt>
      <trkpt lat="59.8919979" lon="17.648101">
        <ele>25.6123</ele>
        <time>2014-06-10T19:14:46Z</time>
      </trkpt>
      <trkpt lat="59.892021" lon="17.6479516">
        <ele>25.6123</ele>
        <time>2014-06-10T19:14:47Z</time>
      </trkpt>
      <trkpt lat="59.892043" lon="17.6478013">
        <ele>25.1317</ele>
        <time>2014-06-10T19:14:48Z</time>
      </trkpt>
      <trkpt lat="59.8920648" lon="17.6476492">
        <ele>25.1317</ele>
        <time>2014-06-10T19:14:49Z</time>
      </trkpt>
      <trkpt lat="59.8920866" lon="17.6474966">
        <ele>25.1317</ele>
        <time>2014-06-10T19:14:50Z</time>
      </trkpt>
      <trkpt lat="59.8921084" lon="17.6473424">
        <ele>24.651</ele>
        <time>2014-06-10T19:14:51Z</time>
      </trkpt>
      <trkpt lat="59.8921296" lon="17.6471863">
        <ele>24.651</ele>
        <time>2014-06-10T19:14:52Z</time>
      </trkpt>
      <trkpt lat="59.8921492" lon="17.6470269">
        <ele>24.651</ele>
        <time>2014-06-10T19:14:53Z</time>
      </trkpt>
      <trkpt lat="59.8921683" lon="17.6468674">
        <ele>24.651</ele>
        <time>2014-06-10T19:14:54Z</time>
      </trkpt>
      <trkpt lat="59.892187" lon="17.6467073">
        <ele>24.651</ele>
        <time>2014-06-10T19:14:55Z</time>
      </trkpt>
      <trkpt lat="59.8922057" lon="17.6465461">
        <ele>24.651</ele>
        <time>2014-06-10T19:14:56Z</time>
      </trkpt>
      <trkpt lat="59.8922242" lon="17.6463843">
        <ele>24.651</ele>
        <time>2014-06-10T19:14:57Z</time>
      </trkpt>
      <trkpt lat="59.8922408" lon="17.6462213">
        <ele>24.651</ele>
        <time>2014-06-10T19:14:58Z</time>
      </trkpt>
      <trkpt lat="59.8922569" lon="17.6460595">
        <ele>24.651</ele>
        <time>2014-06-10T19:14:59Z</time>
      </trkpt>
      <trkpt lat="59.8922733" lon="17.6458974">
        <ele>24.651</ele>
        <time>2014-06-10T19:15:00Z</time>
      </trkpt>
      <trkpt lat="59.8922906" lon="17.645737">
        <ele>24.651</ele>
        <time>2014-06-10T19:15:01Z</time>
      </trkpt>
      <trkpt lat="59.8923076" lon="17.6455756">
        <ele>24.651</ele>
        <time>2014-06-10T19:15:02Z</time>
      </trkpt>
      <trkpt lat="59.8923236" lon="17.6454137">
        <ele>24.651</ele>
        <time>2014-06-10T19:15:03Z</time>
      </trkpt>
      <trkpt lat="59.8923404" lon="17.6452551">
        <ele>24.651</ele>
        <time>2014-06-10T19:15:04Z</time>
      </trkpt>
      <trkpt lat="59.8923575" lon="17.6450989">
        <ele>24.651</ele>
        <time>2014-06-10T19:15:05Z</time>
      </trkpt>
      <trkpt lat="59.892374" lon="17.6449433">
        <ele>24.651</ele>
        <time>2014-06-10T19:15:06Z</time>
      </trkpt>
      <trkpt lat="59.8923897" lon="17.6447875">
        <ele>24.651</ele>
        <time>2014-06-10T19:15:07Z</time>
      </trkpt>
      <trkpt lat="59.8924047" lon="17.6446292">
        <ele>24.651</ele>
        <time>2014-06-10T19:15:08Z</time>
      </trkpt>
      <trkpt lat="59.8924207" lon="17.6444721">
        <ele>24.651</ele>
        <time>2014-06-10T19:15:09Z</time>
      </trkpt>
      <trkpt lat="59.8924376" lon="17.644316">
        <ele>24.651</ele>
        <time>2014-06-10T19:15:10Z</time>
      </trkpt>
      <trkpt lat="59.8924539" lon="17.6441581">
        <ele>24.651</ele>
        <time>2014-06-10T19:15:11Z</time>
      </trkpt>
      <trkpt lat="59.8924698" lon="17.643999">
        <ele>25.1317</ele>
        <time>2014-06-10T19:15:12Z</time>
      </trkpt>
      <trkpt lat="59.892485" lon="17.6438395">
        <ele>25.1317</ele>
        <time>2014-06-10T19:15:13Z</time>
      </trkpt>
      <trkpt lat="59.892501" lon="17.643683">
        <ele>25.1317</ele>
        <time>2014-06-10T19:15:14Z</time>
      </trkpt>
      <trkpt lat="59.8925174" lon="17.6435252">
        <ele>25.1317</ele>
        <time>2014-06-10T19:15:15Z</time>
      </trkpt>
      <trkpt lat="59.892534" lon="17.6433676">
        <ele>25.1317</ele>
        <time>2014-06-10T19:15:16Z</time>
      </trkpt>
      <trkpt lat="59.8925512" lon="17.6432097">
        <ele>25.1317</ele>
        <time>2014-06-10T19:15:17Z</time>
      </trkpt>
      <trkpt lat="59.8925683" lon="17.6430506">
        <ele>25.1317</ele>
        <time>2014-06-10T19:15:18Z</time>
      </trkpt>
      <trkpt lat="59.8925853" lon="17.6428926">
        <ele>25.1317</ele>
        <time>2014-06-10T19:15:19Z</time>
      </trkpt>
      <trkpt lat="59.8926009" lon="17.6427354">
        <ele>25.6123</ele>
        <time>2014-06-10T19:15:20Z</time>
      </trkpt>
      <trkpt lat="59.892614" lon="17.6425805">
        <ele>25.1317</ele>
        <time>2014-06-10T19:15:21Z</time>
      </trkpt>
      <trkpt lat="59.892625" lon="17.6424262">
        <ele>25.1317</ele>
        <time>2014-06-10T19:15:22Z</time>
      </trkpt>
      <trkpt lat="59.8926344" lon="17.6422742">
        <ele>25.1317</ele>
        <time>2014-06-10T19:15:23Z</time>
      </trkpt>
      <trkpt lat="59.8926434" lon="17.6421244">
        <ele>25.1317</ele>
        <time>2014-06-10T19:15:24Z</time>
      </trkpt>
      <trkpt lat="59.8926525" lon="17.6419746">
        <ele>25.1317</ele>
        <time>2014-06-10T19:15:25Z</time>
      </trkpt>
      <trkpt lat="59.8926609" lon="17.6418229">
        <ele>24.651</ele>
        <time>2014-06-10T19:15:26Z</time>
      </trkpt>
      <trkpt lat="59.8926693" lon="17.6416695">
        <ele>24.651</ele>
        <time>2014-06-10T19:15:27Z</time>
      </trkpt>
      <trkpt lat="59.8926787" lon="17.6415174">
        <ele>24.651</ele>
        <time>2014-06-10T19:15:28Z</time>
      </trkpt>
      <trkpt lat="59.892688" lon="17.641365">
        <ele>24.651</ele>
        <time>2014-06-10T19:15:29Z</time>
      </trkpt>
      <trkpt lat="59.8926966" lon="17.6412085">
        <ele>24.651</ele>
        <time>2014-06-10T19:15:30Z</time>
      </trkpt>
      <trkpt lat="59.892705" lon="17.6410509">
        <ele>24.651</ele>
        <time>2014-06-10T19:15:31Z</time>
      </trkpt>
      <trkpt lat="59.8927132" lon="17.6408925">
        <ele>25.1317</ele>
        <time>2014-06-10T19:15:32Z</time>
      </trkpt>
      <trkpt lat="59.8927211" lon="17.640736">
        <ele>25.1317</ele>
        <time>2014-06-10T19:15:33Z</time>
      </trkpt>
      <trkpt lat="59.8927289" lon="17.6405806">
        <ele>25.1317</ele>
        <time>2014-06-10T19:15:34Z</time>
      </trkpt>
      <trkpt lat="59.8927365" lon="17.6404273">
        <ele>25.6123</ele>
        <time>2014-06-10T19:15:35Z</time>
      </trkpt>
      <trkpt lat="59.8927432" lon="17.640278">
        <ele>25.6123</ele>
        <time>2014-06-10T19:15:36Z</time>
      </trkpt>
      <trkpt lat="59.8927494" lon="17.6401334">
        <ele>25.6123</ele>
        <time>2014-06-10T19:15:37Z</time>
      </trkpt>
      <trkpt lat="59.8927542" lon="17.6399927">
        <ele>26.0929</ele>
        <time>2014-06-10T19:15:38Z</time>
      </trkpt>
      <trkpt lat="59.8927578" lon="17.6398555">
        <ele>25.6123</ele>
        <time>2014-06-10T19:15:39Z</time>
      </trkpt>
      <trkpt lat="59.8927604" lon="17.6397161">
        <ele>26.0929</ele>
        <time>2014-06-10T19:15:40Z</time>
      </trkpt>
      <trkpt lat="59.8927624" lon="17.6395764">
        <ele>25.6123</ele>
        <time>2014-06-10T19:15:41Z</time>
      </trkpt>
      <trkpt lat="59.8927634" lon="17.639437">
        <ele>25.6123</ele>
        <time>2014-06-10T19:15:42Z</time>
      </trkpt>
      <trkpt lat="59.892763" lon="17.6393001">
        <ele>25.6123</ele>
        <time>2014-06-10T19:15:43Z</time>
      </trkpt>
      <trkpt lat="59.8927625" lon="17.6391638">
        <ele>25.6123</ele>
        <time>2014-06-10T19:15:44Z</time>
      </trkpt>
      <trkpt lat="59.8927629" lon="17.6390282">
        <ele>25.6123</ele>
        <time>2014-06-10T19:15:45Z</time>
      </trkpt>
      <trkpt lat="59.8927657" lon="17.6388947">
        <ele>25.6123</ele>
        <time>2014-06-10T19:15:46Z</time>
      </trkpt>
      <trkpt lat="59.8927714" lon="17.6387692">
        <ele>25.6123</ele>
        <time>2014-06-10T19:15:47Z</time>
      </trkpt>
      <trkpt lat="59.8927751" lon="17.6386505">
        <ele>25.6123</ele>
        <time>2014-06-10T19:15:48Z</time>
      </trkpt>
      <trkpt lat="59.8927808" lon="17.6385422">
        <ele>26.0929</ele>
        <time>2014-06-10T19:15:49Z</time>
      </trkpt>
      <trkpt lat="59.8928008" lon="17.6384517">
        <ele>26.0929</ele>
        <time>2014-06-10T19:15:50Z</time>
      </trkpt>
      <trkpt lat="59.8928375" lon="17.6383885">
        <ele>25.6123</ele>
        <time>2014-06-10T19:15:51Z</time>
      </trkpt>
      <trkpt lat="59.8928846" lon="17.6383496">
        <ele>25.6123</ele>
        <time>2014-06-10T19:15:52Z</time>
      </trkpt>
      <trkpt lat="59.8929361" lon="17.6383209">
        <ele>25.6123</ele>
        <time>2014-06-10T19:15:53Z</time>
      </trkpt>
      <trkpt lat="59.8929904" lon="17.6382947">
        <ele>26.0929</ele>
        <time>2014-06-10T19:15:54Z</time>
      </trkpt>
      <trkpt lat="59.8930469" lon="17.6382666">
        <ele>26.0929</ele>
        <time>2014-06-10T19:15:55Z</time>
      </trkpt>
      <trkpt lat="59.8931054" lon="17.6382316">
        <ele>26.0929</ele>
        <time>2014-06-10T19:15:56Z</time>
      </trkpt>
      <trkpt lat="59.893166" lon="17.6381935">
        <ele>26.0929</ele>
        <time>2014-06-10T19:15:57Z</time>
      </trkpt>
      <trkpt lat="59.8932285" lon="17.6381476">
        <ele>26.0929</ele>
        <time>2014-06-10T19:15:58Z</time>
      </trkpt>
      <trkpt lat="59.8932917" lon="17.6381021">
        <ele>26.5736</ele>
        <time>2014-06-10T19:15:59Z</time>
      </trkpt>
      <trkpt lat="59.8933524" lon="17.6380547">
        <ele>26.5736</ele>
        <time>2014-06-10T19:16:00Z</time>
      </trkpt>
      <trkpt lat="59.8934164" lon="17.6380155">
        <ele>26.5736</ele>
        <time>2014-06-10T19:16:01Z</time>
      </trkpt>
      <trkpt lat="59.893481" lon="17.6379798">
        <ele>26.5736</ele>
        <time>2014-06-10T19:16:02Z</time>
      </trkpt>
      <trkpt lat="59.8935443" lon="17.6379413">
        <ele>27.0543</ele>
        <time>2014-06-10T19:16:03Z</time>
      </trkpt>
      <trkpt lat="59.893606" lon="17.6379036">
        <ele>27.0543</ele>
        <time>2014-06-10T19:16:04Z</time>
      </trkpt>
      <trkpt lat="59.8936657" lon="17.6378698">
        <ele>27.0543</ele>
        <time>2014-06-10T19:16:05Z</time>
      </trkpt>
      <trkpt lat="59.8937208" lon="17.6378358">
        <ele>27.0543</ele>
        <time>2014-06-10T19:16:06Z</time>
      </trkpt>
      <trkpt lat="59.8937767" lon="17.6378036">
        <ele>27.0543</ele>
        <time>2014-06-10T19:16:07Z</time>
      </trkpt>
      <trkpt lat="59.8938317" lon="17.6377576">
        <ele>27.5349</ele>
        <time>2014-06-10T19:16:08Z</time>
      </trkpt>
      <trkpt lat="59.8938891" lon="17.6377038">
        <ele>27.5349</ele>
        <time>2014-06-10T19:16:09Z</time>
      </trkpt>
      <trkpt lat="59.8939492" lon="17.6376493">
        <ele>27.5349</ele>
        <time>2014-06-10T19:16:10Z</time>
      </trkpt>
      <trkpt lat="59.8940121" lon="17.6375988">
        <ele>27.5349</ele>
        <time>2014-06-10T19:16:11Z</time>
      </trkpt>
      <trkpt lat="59.8940771" lon="17.637551">
        <ele>27.5349</ele>
        <time>2014-06-10T19:16:12Z</time>
      </trkpt>
      <trkpt lat="59.8941428" lon="17.6375053">
        <ele>27.5349</ele>
        <time>2014-06-10T19:16:13Z</time>
      </trkpt>
      <trkpt lat="59.8942089" lon="17.63746">
        <ele>27.0543</ele>
        <time>2014-06-10T19:16:14Z</time>
      </trkpt>
      <trkpt lat="59.8942756" lon="17.6374136">
        <ele>27.0543</ele>
        <time>2014-06-10T19:16:15Z</time>
      </trkpt>
      <trkpt lat="59.894344" lon="17.6373675">
        <ele>27.0543</ele>
        <time>2014-06-10T19:16:16Z</time>
      </trkpt>
      <trkpt lat="59.8944118" lon="17.6373206">
        <ele>27.0543</ele>
        <time>2014-06-10T19:16:17Z</time>
      </trkpt>
      <trkpt lat="59.8944781" lon="17.6372797">
        <ele>26.5736</ele>
        <time>2014-06-10T19:16:18Z</time>
      </trkpt>
      <trkpt lat="59.894545" lon="17.6372409">
        <ele>26.5736</ele>
        <time>2014-06-10T19:16:19Z</time>
      </trkpt>
      <trkpt lat="59.8946095" lon="17.637195">
        <ele>26.5736</ele>
        <time>2014-06-10T19:16:20Z</time>
      </trkpt>
      <trkpt lat="59.8946735" lon="17.637154">
        <ele>26.0929</ele>
        <time>2014-06-10T19:16:21Z</time>
      </trkpt>
      <trkpt lat="59.8947387" lon="17.6371137">
        <ele>26.0929</ele>
        <time>2014-06-10T19:16:22Z</time>
      </trkpt>
      <trkpt lat="59.8948019" lon="17.6370732">
        <ele>26.0929</ele>
        <time>2014-06-10T19:16:23Z</time>
      </trkpt>
      <trkpt lat="59.8948632" lon="17.6370277">
        <ele>26.0929</ele>
        <time>2014-06-10T19:16:24Z</time>
      </trkpt>
      <trkpt lat="59.8949255" lon="17.6369759">
        <ele>26.5736</ele>
        <time>2014-06-10T19:16:25Z</time>
      </trkpt>
      <trkpt lat="59.894993" lon="17.6369211">
        <ele>26.5736</ele>
        <time>2014-06-10T19:16:26Z</time>
      </trkpt>
      <trkpt lat="59.8950664" lon="17.6368702">
        <ele>26.5736</ele>
        <time>2014-06-10T19:16:27Z</time>
      </trkpt>
      <trkpt lat="59.8951443" lon="17.6368239">
        <ele>26.5736</ele>
        <time>2014-06-10T19:16:28Z</time>
      </trkpt>
      <trkpt lat="59.8952255" lon="17.6367749">
        <ele>26.5736</ele>
        <time>2014-06-10T19:16:29Z</time>
      </trkpt>
      <trkpt lat="59.895309" lon="17.6367252">
        <ele>26.5736</ele>
        <time>2014-06-10T19:16:30Z</time>
      </trkpt>
      <trkpt lat="59.8953935" lon="17.6366768">
        <ele>26.5736</ele>
        <time>2014-06-10T19:16:31Z</time>
      </trkpt>
      <trkpt lat="59.8954784" lon="17.6366283">
        <ele>26.5736</ele>
        <time>2014-06-10T19:16:32Z</time>
      </trkpt>
      <trkpt lat="59.8955639" lon="17.6365802">
        <ele>27.0543</ele>
        <time>2014-06-10T19:16:33Z</time>
      </trkpt>
      <trkpt lat="59.895651" lon="17.6365401">
        <ele>27.0543</ele>
        <time>2014-06-10T19:16:34Z</time>
      </trkpt>
      <trkpt lat="59.8957401" lon="17.6365127">
        <ele>27.0543</ele>
        <time>2014-06-10T19:16:35Z</time>
      </trkpt>
      <trkpt lat="59.8958306" lon="17.6364966">
        <ele>27.0543</ele>
        <time>2014-06-10T19:16:36Z</time>
      </trkpt>
      <trkpt lat="59.8959215" lon="17.6364914">
        <ele>27.0543</ele>
        <time>2014-06-10T19:16:37Z</time>
      </trkpt>
      <trkpt lat="59.8960125" lon="17.6364894">
        <ele>27.5349</ele>
        <time>2014-06-10T19:16:38Z</time>
      </trkpt>
      <trkpt lat="59.8961021" lon="17.6365015">
        <ele>27.5349</ele>
        <time>2014-06-10T19:16:39Z</time>
      </trkpt>
      <trkpt lat="59.8961912" lon="17.6365325">
        <ele>27.5349</ele>
        <time>2014-06-10T19:16:40Z</time>
      </trkpt>
      <trkpt lat="59.8962792" lon="17.6365687">
        <ele>27.5349</ele>
        <time>2014-06-10T19:16:41Z</time>
      </trkpt>
      <trkpt lat="59.8963663" lon="17.6366046">
        <ele>27.5349</ele>
        <time>2014-06-10T19:16:42Z</time>
      </trkpt>
      <trkpt lat="59.8964537" lon="17.6366412">
        <ele>27.5349</ele>
        <time>2014-06-10T19:16:43Z</time>
      </trkpt>
      <trkpt lat="59.8965409" lon="17.6366796">
        <ele>27.5349</ele>
        <time>2014-06-10T19:16:44Z</time>
      </trkpt>
      <trkpt lat="59.8966284" lon="17.6367166">
        <ele>28.0155</ele>
        <time>2014-06-10T19:16:45Z</time>
      </trkpt>
      <trkpt lat="59.8967159" lon="17.6367522">
        <ele>28.0155</ele>
        <time>2014-06-10T19:16:46Z</time>
      </trkpt>
      <trkpt lat="59.896803" lon="17.6367894">
        <ele>28.0155</ele>
        <time>2014-06-10T19:16:47Z</time>
      </trkpt>
      <trkpt lat="59.8968895" lon="17.6368292">
        <ele>27.5349</ele>
        <time>2014-06-10T19:16:48Z</time>
      </trkpt>
      <trkpt lat="59.8969755" lon="17.6368715">
        <ele>27.5349</ele>
        <time>2014-06-10T19:16:49Z</time>
      </trkpt>
      <trkpt lat="59.8970613" lon="17.6369166">
        <ele>27.5349</ele>
        <time>2014-06-10T19:16:50Z</time>
      </trkpt>
      <trkpt lat="59.8971473" lon="17.6369639">
        <ele>27.5349</ele>
        <time>2014-06-10T19:16:51Z</time>
      </trkpt>
      <trkpt lat="59.8972345" lon="17.6370115">
        <ele>27.0543</ele>
        <time>2014-06-10T19:16:52Z</time>
      </trkpt>
      <trkpt lat="59.8973226" lon="17.6370592">
        <ele>27.0543</ele>
        <time>2014-06-10T19:16:53Z</time>
      </trkpt>
      <trkpt lat="59.8974105" lon="17.6371155">
        <ele>26.5736</ele>
        <time>2014-06-10T19:16:54Z</time>
      </trkpt>
      <trkpt lat="59.8974965" lon="17.6371863">
        <ele>26.0929</ele>
        <time>2014-06-10T19:16:55Z</time>
      </trkpt>
      <trkpt lat="59.8975796" lon="17.6372699">
        <ele>26.0929</ele>
        <time>2014-06-10T19:16:56Z</time>
      </trkpt>
      <trkpt lat="59.8976613" lon="17.6373583">
        <ele>25.6123</ele>
        <time>2014-06-10T19:16:57Z</time>
      </trkpt>
      <trkpt lat="59.8977416" lon="17.6374487">
        <ele>25.6123</ele>
        <time>2014-06-10T19:16:58Z</time>
      </trkpt>
      <trkpt lat="59.8978198" lon="17.6375426">
        <ele>25.1317</ele>
        <time>2014-06-10T19:16:59Z</time>
      </trkpt>
      <trkpt lat="59.8978946" lon="17.6376428">
        <ele>25.1317</ele>
        <time>2014-06-10T19:17:00Z</time>
      </trkpt>
      <trkpt lat="59.897967" lon="17.637745">
        <ele>25.1317</ele>
        <time>2014-06-10T19:17:01Z</time>
      </trkpt>
      <trkpt lat="59.8980386" lon="17.6378419">
        <ele>24.651</ele>
        <time>2014-06-10T19:17:02Z</time>
      </trkpt>
      <trkpt lat="59.8981124" lon="17.6379267">
        <ele>24.651</ele>
        <time>2014-06-10T19:17:03Z</time>
      </trkpt>
      <trkpt lat="59.8981897" lon="17.6379974">
        <ele>24.651</ele>
        <time>2014-06-10T19:17:04Z</time>
      </trkpt>
      <trkpt lat="59.8982705" lon="17.6380532">
        <ele>24.1703</ele>
        <time>2014-06-10T19:17:05Z</time>
      </trkpt>
      <trkpt lat="59.8983555" lon="17.638085">
        <ele>24.1703</ele>
        <time>2014-06-10T19:17:06Z</time>
      </trkpt>
      <trkpt lat="59.8984425" lon="17.6380778">
        <ele>24.1703</ele>
        <time>2014-06-10T19:17:07Z</time>
      </trkpt>
      <trkpt lat="59.898529" lon="17.6380409">
        <ele>24.1703</ele>
        <time>2014-06-10T19:17:08Z</time>
      </trkpt>
      <trkpt lat="59.8986146" lon="17.6379902">
        <ele>24.1703</ele>
        <time>2014-06-10T19:17:09Z</time>
      </trkpt>
      <trkpt lat="59.8987005" lon="17.6379421">
        <ele>23.6896</ele>
        <time>2014-06-10T19:17:10Z</time>
      </trkpt>
      <trkpt lat="59.8987894" lon="17.6379156">
        <ele>23.6896</ele>
        <time>2014-06-10T19:17:11Z</time>
      </trkpt>
      <trkpt lat="59.8988803" lon="17.6379353">
        <ele>23.6896</ele>
        <time>2014-06-10T19:17:12Z</time>
      </trkpt>
      <trkpt lat="59.8989661" lon="17.6379926">
        <ele>24.1703</ele>
        <time>2014-06-10T19:17:13Z</time>
      </trkpt>
      <trkpt lat="59.8990474" lon="17.638071">
        <ele>23.6896</ele>
        <time>2014-06-10T19:17:14Z</time>
      </trkpt>
      <trkpt lat="59.8991279" lon="17.6381543">
        <ele>23.6896</ele>
        <time>2014-06-10T19:17:15Z</time>
      </trkpt>
      <trkpt lat="59.8992076" lon="17.6382361">
        <ele>23.6896</ele>
        <time>2014-06-10T19:17:16Z</time>
      </trkpt>
      <trkpt lat="59.8992859" lon="17.6383148">
        <ele>23.6896</ele>
        <time>2014-06-10T19:17:17Z</time>
      </trkpt>
      <trkpt lat="59.8993645" lon="17.6383838">
        <ele>23.6896</ele>
        <time>2014-06-10T19:17:18Z</time>
      </trkpt>
      <trkpt lat="59.8994432" lon="17.6384428">
        <ele>23.6896</ele>
        <time>2014-06-10T19:17:19Z</time>
      </trkpt>
      <trkpt lat="59.8995215" lon="17.638496">
        <ele>23.209</ele>
        <time>2014-06-10T19:17:20Z</time>
      </trkpt>
      <trkpt lat="59.8995991" lon="17.6385465">
        <ele>23.209</ele>
        <time>2014-06-10T19:17:21Z</time>
      </trkpt>
      <trkpt lat="59.8996762" lon="17.6385962">
        <ele>23.209</ele>
        <time>2014-06-10T19:17:22Z</time>
      </trkpt>
      <trkpt lat="59.8997526" lon="17.638647">
        <ele>23.209</ele>
        <time>2014-06-10T19:17:23Z</time>
      </trkpt>
      <trkpt lat="59.8998283" lon="17.6387004">
        <ele>22.7283</ele>
        <time>2014-06-10T19:17:24Z</time>
      </trkpt>
      <trkpt lat="59.8999036" lon="17.6387555">
        <ele>22.7283</ele>
        <time>2014-06-10T19:17:25Z</time>
      </trkpt>
      <trkpt lat="59.8999787" lon="17.6388121">
        <ele>22.2476</ele>
        <time>2014-06-10T19:17:26Z</time>
      </trkpt>
      <trkpt lat="59.9000538" lon="17.6388702">
        <ele>21.767</ele>
        <time>2014-06-10T19:17:27Z</time>
      </trkpt>
      <trkpt lat="59.9001291" lon="17.6389292">
        <ele>21.767</ele>
        <time>2014-06-10T19:17:28Z</time>
      </trkpt>
      <trkpt lat="59.9002053" lon="17.6389883">
        <ele>21.2864</ele>
        <time>2014-06-10T19:17:29Z</time>
      </trkpt>
      <trkpt lat="59.9002819" lon="17.6390456">
        <ele>21.2864</ele>
        <time>2014-06-10T19:17:30Z</time>
      </trkpt>
      <trkpt lat="59.9003591" lon="17.6391001">
        <ele>20.8057</ele>
        <time>2014-06-10T19:17:31Z</time>
      </trkpt>
      <trkpt lat="59.9004368" lon="17.6391567">
        <ele>20.8057</ele>
        <time>2014-06-10T19:17:32Z</time>
      </trkpt>
      <trkpt lat="59.9005145" lon="17.6392155">
        <ele>20.8057</ele>
        <time>2014-06-10T19:17:33Z</time>
      </trkpt>
      <trkpt lat="59.9005933" lon="17.6392748">
        <ele>20.325</ele>
        <time>2014-06-10T19:17:34Z</time>
      </trkpt>
      <trkpt lat="59.9006725" lon="17.6393359">
        <ele>20.325</ele>
        <time>2014-06-10T19:17:35Z</time>
      </trkpt>
      <trkpt lat="59.9007517" lon="17.6393977">
        <ele>20.325</ele>
        <time>2014-06-10T19:17:36Z</time>
      </trkpt>
      <trkpt lat="59.9008305" lon="17.6394602">
        <ele>20.325</ele>
        <time>2014-06-10T19:17:37Z</time>
      </trkpt>
      <trkpt lat="59.9009082" lon="17.6395227">
        <ele>20.325</ele>
        <time>2014-06-10T19:17:38Z</time>
      </trkpt>
      <trkpt lat="59.9009852" lon="17.6395862">
        <ele>19.8444</ele>
        <time>2014-06-10T19:17:39Z</time>
      </trkpt>
      <trkpt lat="59.9010616" lon="17.639652">
        <ele>19.8444</ele>
        <time>2014-06-10T19:17:40Z</time>
      </trkpt>
      <trkpt lat="59.9011372" lon="17.6397191">
        <ele>19.8444</ele>
        <time>2014-06-10T19:17:41Z</time>
      </trkpt>
      <trkpt lat="59.9012121" lon="17.6397864">
        <ele>19.8444</ele>
        <time>2014-06-10T19:17:42Z</time>
      </trkpt>
      <trkpt lat="59.9012862" lon="17.6398545">
        <ele>19.8444</ele>
        <time>2014-06-10T19:17:43Z</time>
      </trkpt>
      <trkpt lat="59.90136" lon="17.6399209">
        <ele>19.8444</ele>
        <time>2014-06-10T19:17:44Z</time>
      </trkpt>
      <trkpt lat="59.9014336" lon="17.639985">
        <ele>19.8444</ele>
        <time>2014-06-10T19:17:45Z</time>
      </trkpt>
      <trkpt lat="59.9015071" lon="17.6400477">
        <ele>19.8444</ele>
        <time>2014-06-10T19:17:46Z</time>
      </trkpt>
      <trkpt lat="59.9015796" lon="17.6401096">
        <ele>19.8444</ele>
        <time>2014-06-10T19:17:47Z</time>
      </trkpt>
      <trkpt lat="59.90165" lon="17.6401709">
        <ele>19.8444</ele>
        <time>2014-06-10T19:17:48Z</time>
      </trkpt>
      <trkpt lat="59.9017183" lon="17.6402306">
        <ele>19.8444</ele>
        <time>2014-06-10T19:17:49Z</time>
      </trkpt>
      <trkpt lat="59.9017838" lon="17.64029">
        <ele>19.8444</ele>
        <time>2014-06-10T19:17:50Z</time>
      </trkpt>
      <trkpt lat="59.9018478" lon="17.6403467">
        <ele>19.8444</ele>
        <time>2014-06-10T19:17:51Z</time>
      </trkpt>
      <trkpt lat="59.9019106" lon="17.6403992">
        <ele>19.8444</ele>
        <time>2014-06-10T19:17:52Z</time>
      </trkpt>
      <trkpt lat="59.9019708" lon="17.6404527">
        <ele>19.8444</ele>
        <time>2014-06-10T19:17:53Z</time>
      </trkpt>
      <trkpt lat="59.9020282" lon="17.640509">
        <ele>19.3638</ele>
        <time>2014-06-10T19:17:54Z</time>
      </trkpt>
      <trkpt lat="59.9020834" lon="17.6405651">
        <ele>19.3638</ele>
        <time>2014-06-10T19:17:55Z</time>
      </trkpt>
      <trkpt lat="59.902136" lon="17.6406202">
        <ele>19.3638</ele>
        <time>2014-06-10T19:17:56Z</time>
      </trkpt>
      <trkpt lat="59.9021842" lon="17.6406727">
        <ele>19.3638</ele>
        <time>2014-06-10T19:17:57Z</time>
      </trkpt>
      <trkpt lat="59.9022256" lon="17.6407155">
        <ele>19.3638</ele>
        <time>2014-06-10T19:17:58Z</time>
      </trkpt>
      <trkpt lat="59.9022603" lon="17.6407398">
        <ele>19.3638</ele>
        <time>2014-06-10T19:17:59Z</time>
      </trkpt>
      <trkpt lat="59.9022901" lon="17.6407395">
        <ele>19.3638</ele>
        <time>2014-06-10T19:18:00Z</time>
      </trkpt>
      <trkpt lat="59.9023182" lon="17.6407225">
        <ele>19.3638</ele>
        <time>2014-06-10T19:18:01Z</time>
      </trkpt>
      <trkpt lat="59.9023487" lon="17.6407164">
        <ele>19.3638</ele>
        <time>2014-06-10T19:18:02Z</time>
      </trkpt>
      <trkpt lat="59.9023826" lon="17.6407339">
        <ele>19.3638</ele>
        <time>2014-06-10T19:18:03Z</time>
      </trkpt>
      <trkpt lat="59.9024193" lon="17.6407666">
        <ele>18.8831</ele>
        <time>2014-06-10T19:18:04Z</time>
      </trkpt>
      <trkpt lat="59.9024571" lon="17.6408103">
        <ele>18.8831</ele>
        <time>2014-06-10T19:18:05Z</time>
      </trkpt>
      <trkpt lat="59.9024964" lon="17.6408625">
        <ele>18.8831</ele>
        <time>2014-06-10T19:18:06Z</time>
      </trkpt>
      <trkpt lat="59.9025395" lon="17.6409154">
        <ele>18.8831</ele>
        <time>2014-06-10T19:18:07Z</time>
      </trkpt>
      <trkpt lat="59.9025875" lon="17.6409656">
        <ele>18.8831</ele>
        <time>2014-06-10T19:18:08Z</time>
      </trkpt>
      <trkpt lat="59.9026384" lon="17.6410143">
        <ele>18.8831</ele>
        <time>2014-06-10T19:18:09Z</time>
      </trkpt>
      <trkpt lat="59.902691" lon="17.6410625">
        <ele>19.3638</ele>
        <time>2014-06-10T19:18:10Z</time>
      </trkpt>
      <trkpt lat="59.9027446" lon="17.6411122">
        <ele>19.3638</ele>
        <time>2014-06-10T19:18:11Z</time>
      </trkpt>
      <trkpt lat="59.9027996" lon="17.6411634">
        <ele>19.3638</ele>
        <time>2014-06-10T19:18:12Z</time>
      </trkpt>
      <trkpt lat="59.9028553" lon="17.64122">
        <ele>19.3638</ele>
        <time>2014-06-10T19:18:13Z</time>
      </trkpt>
      <trkpt lat="59.9029086" lon="17.6412881">
        <ele>19.3638</ele>
        <time>2014-06-10T19:18:14Z</time>
      </trkpt>
      <trkpt lat="59.9029588" lon="17.6413679">
        <ele>19.3638</ele>
        <time>2014-06-10T19:18:15Z</time>
      </trkpt>
      <trkpt lat="59.9030054" lon="17.6414549">
        <ele>19.3638</ele>
        <time>2014-06-10T19:18:16Z</time>
      </trkpt>
      <trkpt lat="59.9030493" lon="17.6415398">
        <ele>19.3638</ele>
        <time>2014-06-10T19:18:17Z</time>
      </trkpt>
      <trkpt lat="59.9030927" lon="17.6416181">
        <ele>19.3638</ele>
        <time>2014-06-10T19:18:18Z</time>
      </trkpt>
      <trkpt lat="59.9031346" lon="17.6416934">
        <ele>19.3638</ele>
        <time>2014-06-10T19:18:19Z</time>
      </trkpt>
      <trkpt lat="59.9031751" lon="17.6417646">
        <ele>19.3638</ele>
        <time>2014-06-10T19:18:20Z</time>
      </trkpt>
      <trkpt lat="59.903218" lon="17.6418219">
        <ele>19.3638</ele>
        <time>2014-06-10T19:18:21Z</time>
      </trkpt>
      <trkpt lat="59.903264" lon="17.6418605">
        <ele>19.3638</ele>
        <time>2014-06-10T19:18:22Z</time>
      </trkpt>
      <trkpt lat="59.9033106" lon="17.641884">
        <ele>19.3638</ele>
        <time>2014-06-10T19:18:23Z</time>
      </trkpt>
      <trkpt lat="59.9033542" lon="17.6419043">
        <ele>19.8444</ele>
        <time>2014-06-10T19:18:24Z</time>
      </trkpt>
      <trkpt lat="59.9033905" lon="17.6419283">
        <ele>19.8444</ele>
        <time>2014-06-10T19:18:25Z</time>
      </trkpt>
      <trkpt lat="59.9034199" lon="17.6419486">
        <ele>19.8444</ele>
        <time>2014-06-10T19:18:26Z</time>
      </trkpt>
      <trkpt lat="59.9034432" lon="17.6419622">
        <ele>19.8444</ele>
        <time>2014-06-10T19:18:27Z</time>
      </trkpt>
      <trkpt lat="59.90346" lon="17.6419722">
        <ele>19.8444</ele>
        <time>2014-06-10T19:18:28Z</time>
      </trkpt>
      <trkpt lat="59.9034696" lon="17.6419767">
        <ele>19.8444</ele>
        <time>2014-06-10T19:18:29Z</time>
      </trkpt>
      <trkpt lat="59.9034723" lon="17.6419763">
        <ele>19.8444</ele>
        <time>2014-06-10T19:18:30Z</time>
      </trkpt>
      <trkpt lat="59.9034723" lon="17.6419753">
        <ele>19.8444</ele>
        <time>2014-06-10T19:18:31Z</time>
      </trkpt>
      <trkpt lat="59.9035116" lon="17.6419824">
        <ele>20.325</ele>
        <time>2014-06-10T19:18:52Z</time>
      </trkpt>
      <trkpt lat="59.903532" lon="17.641996">
        <ele>20.325</ele>
        <time>2014-06-10T19:18:53Z</time>
      </trkpt>
      <trkpt lat="59.9035499" lon="17.642019">
        <ele>20.325</ele>
        <time>2014-06-10T19:18:54Z</time>
      </trkpt>
      <trkpt lat="59.9035688" lon="17.6420421">
        <ele>20.325</ele>
        <time>2014-06-10T19:18:55Z</time>
      </trkpt>
      <trkpt lat="59.9035946" lon="17.6420502">
        <ele>19.8444</ele>
        <time>2014-06-10T19:18:56Z</time>
      </trkpt>
      <trkpt lat="59.9036283" lon="17.6420363">
        <ele>20.325</ele>
        <time>2014-06-10T19:18:57Z</time>
      </trkpt>
      <trkpt lat="59.9036708" lon="17.642025">
        <ele>19.8444</ele>
        <time>2014-06-10T19:18:58Z</time>
      </trkpt>
      <trkpt lat="59.903721" lon="17.6420364">
        <ele>19.8444</ele>
        <time>2014-06-10T19:18:59Z</time>
      </trkpt>
      <trkpt lat="59.9037765" lon="17.6420644">
        <ele>19.8444</ele>
        <time>2014-06-10T19:19:00Z</time>
      </trkpt>
      <trkpt lat="59.9038371" lon="17.6420953">
        <ele>19.3638</ele>
        <time>2014-06-10T19:19:01Z</time>
      </trkpt>
      <trkpt lat="59.9039009" lon="17.6421255">
        <ele>19.3638</ele>
        <time>2014-06-10T19:19:02Z</time>
      </trkpt>
      <trkpt lat="59.9039666" lon="17.6421576">
        <ele>18.8831</ele>
        <time>2014-06-10T19:19:03Z</time>
      </trkpt>
      <trkpt lat="59.9040334" lon="17.6421956">
        <ele>18.4023</ele>
        <time>2014-06-10T19:19:04Z</time>
      </trkpt>
      <trkpt lat="59.9041696" lon="17.642275">
        <ele>18.4023</ele>
        <time>2014-06-10T19:19:05Z</time>
      </trkpt>
      <trkpt lat="59.9042404" lon="17.6423165">
        <ele>17.9218</ele>
        <time>2014-06-10T19:19:06Z</time>
      </trkpt>
      <trkpt lat="59.9043132" lon="17.642362">
        <ele>17.9218</ele>
        <time>2014-06-10T19:19:07Z</time>
      </trkpt>
      <trkpt lat="59.9043881" lon="17.6424059">
        <ele>17.9218</ele>
        <time>2014-06-10T19:19:08Z</time>
      </trkpt>
      <trkpt lat="59.9044637" lon="17.6424485">
        <ele>17.9218</ele>
        <time>2014-06-10T19:19:09Z</time>
      </trkpt>
      <trkpt lat="59.9045393" lon="17.6424901">
        <ele>17.9218</ele>
        <time>2014-06-10T19:19:10Z</time>
      </trkpt>
      <trkpt lat="59.9046146" lon="17.6425339">
        <ele>17.4412</ele>
        <time>2014-06-10T19:19:11Z</time>
      </trkpt>
      <trkpt lat="59.9046903" lon="17.6425839">
        <ele>17.4412</ele>
        <time>2014-06-10T19:19:12Z</time>
      </trkpt>
      <trkpt lat="59.9047649" lon="17.6426411">
        <ele>17.4412</ele>
        <time>2014-06-10T19:19:13Z</time>
      </trkpt>
      <trkpt lat="59.9048379" lon="17.6426974">
        <ele>16.9604</ele>
        <time>2014-06-10T19:19:14Z</time>
      </trkpt>
      <trkpt lat="59.9049104" lon="17.6427438">
        <ele>16.9604</ele>
        <time>2014-06-10T19:19:15Z</time>
      </trkpt>
      <trkpt lat="59.9049829" lon="17.6427812">
        <ele>16.9604</ele>
        <time>2014-06-10T19:19:16Z</time>
      </trkpt>
      <trkpt lat="59.9050547" lon="17.6428143">
        <ele>16.9604</ele>
        <time>2014-06-10T19:19:17Z</time>
      </trkpt>
      <trkpt lat="59.9051248" lon="17.6428449">
        <ele>16.4797</ele>
        <time>2014-06-10T19:19:18Z</time>
      </trkpt>
      <trkpt lat="59.9051953" lon="17.6428755">
        <ele>16.4797</ele>
        <time>2014-06-10T19:19:19Z</time>
      </trkpt>
      <trkpt lat="59.9052655" lon="17.6429074">
        <ele>16.4797</ele>
        <time>2014-06-10T19:19:20Z</time>
      </trkpt>
      <trkpt lat="59.9053356" lon="17.6429357">
        <ele>16.4797</ele>
        <time>2014-06-10T19:19:21Z</time>
      </trkpt>
      <trkpt lat="59.9054056" lon="17.6429554">
        <ele>16.4797</ele>
        <time>2014-06-10T19:19:22Z</time>
      </trkpt>
      <trkpt lat="59.9054755" lon="17.6429633">
        <ele>16.4797</ele>
        <time>2014-06-10T19:19:23Z</time>
      </trkpt>
      <trkpt lat="59.9055466" lon="17.6429686">
        <ele>16.9604</ele>
        <time>2014-06-10T19:19:24Z</time>
      </trkpt>
      <trkpt lat="59.9056184" lon="17.6429817">
        <ele>16.4797</ele>
        <time>2014-06-10T19:19:25Z</time>
      </trkpt>
      <trkpt lat="59.9056894" lon="17.6430049">
        <ele>16.4797</ele>
        <time>2014-06-10T19:19:26Z</time>
      </trkpt>
      <trkpt lat="59.9057604" lon="17.6430344">
        <ele>16.4797</ele>
        <time>2014-06-10T19:19:27Z</time>
      </trkpt>
      <trkpt lat="59.9058325" lon="17.6430656">
        <ele>16.9604</ele>
        <time>2014-06-10T19:19:28Z</time>
      </trkpt>
      <trkpt lat="59.9059035" lon="17.6431006">
        <ele>17.4412</ele>
        <time>2014-06-10T19:19:29Z</time>
      </trkpt>
      <trkpt lat="59.9059733" lon="17.6431361">
        <ele>17.4412</ele>
        <time>2014-06-10T19:19:30Z</time>
      </trkpt>
      <trkpt lat="59.9060444" lon="17.6431707">
        <ele>17.9218</ele>
        <time>2014-06-10T19:19:31Z</time>
      </trkpt>
      <trkpt lat="59.9061143" lon="17.6432054">
        <ele>18.4023</ele>
        <time>2014-06-10T19:19:32Z</time>
      </trkpt>
      <trkpt lat="59.9061842" lon="17.643235">
        <ele>18.4023</ele>
        <time>2014-06-10T19:19:33Z</time>
      </trkpt>
      <trkpt lat="59.906254" lon="17.6432627">
        <ele>18.8831</ele>
        <time>2014-06-10T19:19:34Z</time>
      </trkpt>
      <trkpt lat="59.9063225" lon="17.6432913">
        <ele>18.8831</ele>
        <time>2014-06-10T19:19:35Z</time>
      </trkpt>
      <trkpt lat="59.9063904" lon="17.6433193">
        <ele>19.3638</ele>
        <time>2014-06-10T19:19:36Z</time>
      </trkpt>
      <trkpt lat="59.9064582" lon="17.6433437">
        <ele>19.8444</ele>
        <time>2014-06-10T19:19:37Z</time>
      </trkpt>
      <trkpt lat="59.9065259" lon="17.6433675">
        <ele>19.8444</ele>
        <time>2014-06-10T19:19:38Z</time>
      </trkpt>
      <trkpt lat="59.9065929" lon="17.6433919">
        <ele>20.325</ele>
        <time>2014-06-10T19:19:39Z</time>
      </trkpt>
      <trkpt lat="59.9066595" lon="17.6434137">
        <ele>20.325</ele>
        <time>2014-06-10T19:19:40Z</time>
      </trkpt>
      <trkpt lat="59.906726" lon="17.6434321">
        <ele>20.8057</ele>
        <time>2014-06-10T19:19:41Z</time>
      </trkpt>
      <trkpt lat="59.9067924" lon="17.6434492">
        <ele>20.8057</ele>
        <time>2014-06-10T19:19:42Z</time>
      </trkpt>
      <trkpt lat="59.9068587" lon="17.643466">
        <ele>21.2864</ele>
        <time>2014-06-10T19:19:43Z</time>
      </trkpt>
      <trkpt lat="59.9069243" lon="17.6434811">
        <ele>21.2864</ele>
        <time>2014-06-10T19:19:44Z</time>
      </trkpt>
      <trkpt lat="59.9069889" lon="17.6434945">
        <ele>21.2864</ele>
        <time>2014-06-10T19:19:45Z</time>
      </trkpt>
      <trkpt lat="59.9070529" lon="17.6435081">
        <ele>21.767</ele>
        <time>2014-06-10T19:19:46Z</time>
      </trkpt>
      <trkpt lat="59.9071167" lon="17.6435239">
        <ele>21.767</ele>
        <time>2014-06-10T19:19:47Z</time>
      </trkpt>
      <trkpt lat="59.9071802" lon="17.6435378">
        <ele>21.767</ele>
        <time>2014-06-10T19:19:48Z</time>
      </trkpt>
      <trkpt lat="59.907244" lon="17.64355">
        <ele>22.2476</ele>
        <time>2014-06-10T19:19:49Z</time>
      </trkpt>
      <trkpt lat="59.9073081" lon="17.6435629">
        <ele>22.2476</ele>
        <time>2014-06-10T19:19:50Z</time>
      </trkpt>
      <trkpt lat="59.9073725" lon="17.6435748">
        <ele>22.2476</ele>
        <time>2014-06-10T19:19:51Z</time>
      </trkpt>
      <trkpt lat="59.9074367" lon="17.6435882">
        <ele>22.7283</ele>
        <time>2014-06-10T19:19:52Z</time>
      </trkpt>
      <trkpt lat="59.9075004" lon="17.6436017">
        <ele>22.7283</ele>
        <time>2014-06-10T19:19:53Z</time>
      </trkpt>
      <trkpt lat="59.9075632" lon="17.6436135">
        <ele>22.7283</ele>
        <time>2014-06-10T19:19:54Z</time>
      </trkpt>
      <trkpt lat="59.9076252" lon="17.643623">
        <ele>23.209</ele>
        <time>2014-06-10T19:19:55Z</time>
      </trkpt>
      <trkpt lat="59.9076862" lon="17.6436323">
        <ele>23.209</ele>
        <time>2014-06-10T19:19:56Z</time>
      </trkpt>
      <trkpt lat="59.9077466" lon="17.6436437">
        <ele>23.6896</ele>
        <time>2014-06-10T19:19:57Z</time>
      </trkpt>
      <trkpt lat="59.9078072" lon="17.6436546">
        <ele>23.6896</ele>
        <time>2014-06-10T19:19:58Z</time>
      </trkpt>
      <trkpt lat="59.9078683" lon="17.6436634">
        <ele>24.1703</ele>
        <time>2014-06-10T19:19:59Z</time>
      </trkpt>
      <trkpt lat="59.9079291" lon="17.6436723">
        <ele>24.1703</ele>
        <time>2014-06-10T19:20:00Z</time>
      </trkpt>
      <trkpt lat="59.9079894" lon="17.6436825">
        <ele>24.1703</ele>
        <time>2014-06-10T19:20:01Z</time>
      </trkpt>
      <trkpt lat="59.9080499" lon="17.6436919">
        <ele>24.651</ele>
        <time>2014-06-10T19:20:02Z</time>
      </trkpt>
      <trkpt lat="59.9081101" lon="17.6437007">
        <ele>24.651</ele>
        <time>2014-06-10T19:20:03Z</time>
      </trkpt>
      <trkpt lat="59.9081701" lon="17.6437089">
        <ele>24.651</ele>
        <time>2014-06-10T19:20:04Z</time>
      </trkpt>
      <trkpt lat="59.9082299" lon="17.6437155">
        <ele>24.651</ele>
        <time>2014-06-10T19:20:05Z</time>
      </trkpt>
      <trkpt lat="59.9082903" lon="17.6437228">
        <ele>24.651</ele>
        <time>2014-06-10T19:20:06Z</time>
      </trkpt>
      <trkpt lat="59.9083493" lon="17.6437321">
        <ele>25.1317</ele>
        <time>2014-06-10T19:20:07Z</time>
      </trkpt>
      <trkpt lat="59.9084078" lon="17.6437425">
        <ele>25.1317</ele>
        <time>2014-06-10T19:20:08Z</time>
      </trkpt>
      <trkpt lat="59.9084692" lon="17.6437478">
        <ele>25.1317</ele>
        <time>2014-06-10T19:20:09Z</time>
      </trkpt>
      <trkpt lat="59.908534" lon="17.6437473">
        <ele>25.1317</ele>
        <time>2014-06-10T19:20:10Z</time>
      </trkpt>
      <trkpt lat="59.9086006" lon="17.6437461">
        <ele>24.651</ele>
        <time>2014-06-10T19:20:11Z</time>
      </trkpt>
      <trkpt lat="59.9086681" lon="17.6437432">
        <ele>24.651</ele>
        <time>2014-06-10T19:20:12Z</time>
      </trkpt>
      <trkpt lat="59.9087365" lon="17.643741">
        <ele>24.651</ele>
        <time>2014-06-10T19:20:13Z</time>
      </trkpt>
      <trkpt lat="59.9088057" lon="17.6437364">
        <ele>24.651</ele>
        <time>2014-06-10T19:20:14Z</time>
      </trkpt>
      <trkpt lat="59.9088756" lon="17.6437285">
        <ele>24.651</ele>
        <time>2014-06-10T19:20:15Z</time>
      </trkpt>
      <trkpt lat="59.9089463" lon="17.6437212">
        <ele>24.651</ele>
        <time>2014-06-10T19:20:16Z</time>
      </trkpt>
      <trkpt lat="59.9090171" lon="17.6437145">
        <ele>25.1317</ele>
        <time>2014-06-10T19:20:17Z</time>
      </trkpt>
      <trkpt lat="59.9090872" lon="17.6437064">
        <ele>25.1317</ele>
        <time>2014-06-10T19:20:18Z</time>
      </trkpt>
      <trkpt lat="59.9091575" lon="17.6436965">
        <ele>25.1317</ele>
        <time>2014-06-10T19:20:19Z</time>
      </trkpt>
      <trkpt lat="59.9092279" lon="17.643687">
        <ele>25.1317</ele>
        <time>2014-06-10T19:20:20Z</time>
      </trkpt>
      <trkpt lat="59.9092988" lon="17.6436778">
        <ele>25.1317</ele>
        <time>2014-06-10T19:20:21Z</time>
      </trkpt>
      <trkpt lat="59.9093699" lon="17.6436657">
        <ele>25.1317</ele>
        <time>2014-06-10T19:20:22Z</time>
      </trkpt>
      <trkpt lat="59.9094409" lon="17.6436519">
        <ele>25.1317</ele>
        <time>2014-06-10T19:20:23Z</time>
      </trkpt>
      <trkpt lat="59.909512" lon="17.6436363">
        <ele>25.1317</ele>
        <time>2014-06-10T19:20:24Z</time>
      </trkpt>
      <trkpt lat="59.9095833" lon="17.6436187">
        <ele>25.1317</ele>
        <time>2014-06-10T19:20:25Z</time>
      </trkpt>
      <trkpt lat="59.9096538" lon="17.6436008">
        <ele>25.6123</ele>
        <time>2014-06-10T19:20:26Z</time>
      </trkpt>
      <trkpt lat="59.909724" lon="17.6435825">
        <ele>25.6123</ele>
        <time>2014-06-10T19:20:27Z</time>
      </trkpt>
      <trkpt lat="59.9097937" lon="17.6435682">
        <ele>25.6123</ele>
        <time>2014-06-10T19:20:28Z</time>
      </trkpt>
      <trkpt lat="59.9098637" lon="17.643566">
        <ele>25.6123</ele>
        <time>2014-06-10T19:20:29Z</time>
      </trkpt>
      <trkpt lat="59.9099328" lon="17.6435811">
        <ele>26.0929</ele>
        <time>2014-06-10T19:20:30Z</time>
      </trkpt>
      <trkpt lat="59.9100001" lon="17.6436098">
        <ele>26.0929</ele>
        <time>2014-06-10T19:20:31Z</time>
      </trkpt>
      <trkpt lat="59.9100645" lon="17.6436371">
        <ele>26.5736</ele>
        <time>2014-06-10T19:20:32Z</time>
      </trkpt>
      <trkpt lat="59.9101248" lon="17.6436504">
        <ele>27.0543</ele>
        <time>2014-06-10T19:20:33Z</time>
      </trkpt>
      <trkpt lat="59.9101827" lon="17.6436523">
        <ele>27.0543</ele>
        <time>2014-06-10T19:20:34Z</time>
      </trkpt>
      <trkpt lat="59.9102398" lon="17.6436492">
        <ele>27.5349</ele>
        <time>2014-06-10T19:20:35Z</time>
      </trkpt>
      <trkpt lat="59.9102972" lon="17.6436416">
        <ele>27.5349</ele>
        <time>2014-06-10T19:20:36Z</time>
      </trkpt>
      <trkpt lat="59.9103553" lon="17.6436308">
        <ele>27.5349</ele>
        <time>2014-06-10T19:20:37Z</time>
      </trkpt>
      <trkpt lat="59.9104141" lon="17.6436212">
        <ele>27.5349</ele>
        <time>2014-06-10T19:20:38Z</time>
      </trkpt>
      <trkpt lat="59.9104728" lon="17.6436036">
        <ele>27.5349</ele>
        <time>2014-06-10T19:20:39Z</time>
      </trkpt>
      <trkpt lat="59.9105316" lon="17.643572">
        <ele>27.5349</ele>
        <time>2014-06-10T19:20:40Z</time>
      </trkpt>
      <trkpt lat="59.9105939" lon="17.6435339">
        <ele>27.5349</ele>
        <time>2014-06-10T19:20:41Z</time>
      </trkpt>
      <trkpt lat="59.9106601" lon="17.6435015">
        <ele>27.5349</ele>
        <time>2014-06-10T19:20:42Z</time>
      </trkpt>
      <trkpt lat="59.9107279" lon="17.6434795">
        <ele>27.5349</ele>
        <time>2014-06-10T19:20:43Z</time>
      </trkpt>
      <trkpt lat="59.9107958" lon="17.6434634">
        <ele>27.5349</ele>
        <time>2014-06-10T19:20:44Z</time>
      </trkpt>
      <trkpt lat="59.9108633" lon="17.6434494">
        <ele>27.5349</ele>
        <time>2014-06-10T19:20:45Z</time>
      </trkpt>
      <trkpt lat="59.9109307" lon="17.643438">
        <ele>28.0155</ele>
        <time>2014-06-10T19:20:46Z</time>
      </trkpt>
      <trkpt lat="59.910997" lon="17.6434285">
        <ele>28.0155</ele>
        <time>2014-06-10T19:20:47Z</time>
      </trkpt>
      <trkpt lat="59.9110623" lon="17.6434189">
        <ele>28.0155</ele>
        <time>2014-06-10T19:20:48Z</time>
      </trkpt>
      <trkpt lat="59.9111282" lon="17.6434088">
        <ele>28.0155</ele>
        <time>2014-06-10T19:20:49Z</time>
      </trkpt>
      <trkpt lat="59.9111948" lon="17.6433945">
        <ele>28.0155</ele>
        <time>2014-06-10T19:20:50Z</time>
      </trkpt>
      <trkpt lat="59.9112612" lon="17.6433772">
        <ele>28.4962</ele>
        <time>2014-06-10T19:20:51Z</time>
      </trkpt>
      <trkpt lat="59.911328" lon="17.6433593">
        <ele>28.4962</ele>
        <time>2014-06-10T19:20:52Z</time>
      </trkpt>
      <trkpt lat="59.9113953" lon="17.6433401">
        <ele>28.4962</ele>
        <time>2014-06-10T19:20:53Z</time>
      </trkpt>
      <trkpt lat="59.911463" lon="17.6433224">
        <ele>28.0155</ele>
        <time>2014-06-10T19:20:54Z</time>
      </trkpt>
      <trkpt lat="59.9115319" lon="17.6433092">
        <ele>28.0155</ele>
        <time>2014-06-10T19:20:55Z</time>
      </trkpt>
      <trkpt lat="59.9116016" lon="17.6432986">
        <ele>27.5349</ele>
        <time>2014-06-10T19:20:56Z</time>
      </trkpt>
      <trkpt lat="59.9116724" lon="17.6432863">
        <ele>27.5349</ele>
        <time>2014-06-10T19:20:57Z</time>
      </trkpt>
      <trkpt lat="59.9117433" lon="17.6432723">
        <ele>27.5349</ele>
        <time>2014-06-10T19:20:58Z</time>
      </trkpt>
      <trkpt lat="59.9118133" lon="17.6432557">
        <ele>28.0155</ele>
        <time>2014-06-10T19:20:59Z</time>
      </trkpt>
      <trkpt lat="59.9118824" lon="17.643237">
        <ele>28.0155</ele>
        <time>2014-06-10T19:21:00Z</time>
      </trkpt>
      <trkpt lat="59.911951" lon="17.6432203">
        <ele>28.0155</ele>
        <time>2014-06-10T19:21:01Z</time>
      </trkpt>
      <trkpt lat="59.9120202" lon="17.6432029">
        <ele>28.0155</ele>
        <time>2014-06-10T19:21:02Z</time>
      </trkpt>
      <trkpt lat="59.912091" lon="17.643181">
        <ele>28.0155</ele>
        <time>2014-06-10T19:21:03Z</time>
      </trkpt>
      <trkpt lat="59.9121618" lon="17.6431579">
        <ele>27.5349</ele>
        <time>2014-06-10T19:21:04Z</time>
      </trkpt>
      <trkpt lat="59.9122345" lon="17.6431354">
        <ele>27.5349</ele>
        <time>2014-06-10T19:21:05Z</time>
      </trkpt>
      <trkpt lat="59.9123084" lon="17.6431138">
        <ele>27.0543</ele>
        <time>2014-06-10T19:21:06Z</time>
      </trkpt>
      <trkpt lat="59.9123838" lon="17.6430972">
        <ele>27.0543</ele>
        <time>2014-06-10T19:21:07Z</time>
      </trkpt>
      <trkpt lat="59.9124604" lon="17.6430853">
        <ele>27.0543</ele>
        <time>2014-06-10T19:21:08Z</time>
      </trkpt>
      <trkpt lat="59.9125371" lon="17.6430791">
        <ele>27.0543</ele>
        <time>2014-06-10T19:21:09Z</time>
      </trkpt>
      <trkpt lat="59.9126147" lon="17.6430889">
        <ele>27.0543</ele>
        <time>2014-06-10T19:21:10Z</time>
      </trkpt>
      <trkpt lat="59.9126908" lon="17.6431209">
        <ele>27.5349</ele>
        <time>2014-06-10T19:21:11Z</time>
      </trkpt>
      <trkpt lat="59.9127608" lon="17.6431547">
        <ele>28.0155</ele>
        <time>2014-06-10T19:21:12Z</time>
      </trkpt>
      <trkpt lat="59.9128277" lon="17.6431681">
        <ele>28.0155</ele>
        <time>2014-06-10T19:21:13Z</time>
      </trkpt>
      <trkpt lat="59.912895" lon="17.643162">
        <ele>28.4962</ele>
        <time>2014-06-10T19:21:14Z</time>
      </trkpt>
      <trkpt lat="59.9129631" lon="17.6431489">
        <ele>28.4962</ele>
        <time>2014-06-10T19:21:15Z</time>
      </trkpt>
      <trkpt lat="59.9130318" lon="17.643134">
        <ele>28.9769</ele>
        <time>2014-06-10T19:21:16Z</time>
      </trkpt>
      <trkpt lat="59.9131012" lon="17.6431183">
        <ele>28.9769</ele>
        <time>2014-06-10T19:21:17Z</time>
      </trkpt>
      <trkpt lat="59.9131715" lon="17.643102">
        <ele>28.9769</ele>
        <time>2014-06-10T19:21:18Z</time>
      </trkpt>
      <trkpt lat="59.9132431" lon="17.6430837">
        <ele>28.9769</ele>
        <time>2014-06-10T19:21:19Z</time>
      </trkpt>
      <trkpt lat="59.9133154" lon="17.6430633">
        <ele>28.9769</ele>
        <time>2014-06-10T19:21:20Z</time>
      </trkpt>
      <trkpt lat="59.9133877" lon="17.6430429">
        <ele>28.9769</ele>
        <time>2014-06-10T19:21:21Z</time>
      </trkpt>
      <trkpt lat="59.9134605" lon="17.6430263">
        <ele>28.9769</ele>
        <time>2014-06-10T19:21:22Z</time>
      </trkpt>
      <trkpt lat="59.9135346" lon="17.6430106">
        <ele>28.9769</ele>
        <time>2014-06-10T19:21:23Z</time>
      </trkpt>
      <trkpt lat="59.9136083" lon="17.6429946">
        <ele>28.9769</ele>
        <time>2014-06-10T19:21:24Z</time>
      </trkpt>
      <trkpt lat="59.9136823" lon="17.6429807">
        <ele>28.4962</ele>
        <time>2014-06-10T19:21:25Z</time>
      </trkpt>
      <trkpt lat="59.9137564" lon="17.6429695">
        <ele>28.4962</ele>
        <time>2014-06-10T19:21:26Z</time>
      </trkpt>
      <trkpt lat="59.9138305" lon="17.6429584">
        <ele>28.4962</ele>
        <time>2014-06-10T19:21:27Z</time>
      </trkpt>
      <trkpt lat="59.913906" lon="17.6429467">
        <ele>28.4962</ele>
        <time>2014-06-10T19:21:28Z</time>
      </trkpt>
      <trkpt lat="59.9139818" lon="17.6429338">
        <ele>28.4962</ele>
        <time>2014-06-10T19:21:29Z</time>
      </trkpt>
      <trkpt lat="59.9140574" lon="17.6429225">
        <ele>28.4962</ele>
        <time>2014-06-10T19:21:30Z</time>
      </trkpt>
      <trkpt lat="59.9141375" lon="17.6429097">
        <ele>28.4962</ele>
        <time>2014-06-10T19:21:31Z</time>
      </trkpt>
      <trkpt lat="59.9142167" lon="17.6428934">
        <ele>28.4962</ele>
        <time>2014-06-10T19:21:32Z</time>
      </trkpt>
      <trkpt lat="59.9142947" lon="17.6428777">
        <ele>28.0155</ele>
        <time>2014-06-10T19:21:33Z</time>
      </trkpt>
      <trkpt lat="59.914375" lon="17.6428634">
        <ele>27.5349</ele>
        <time>2014-06-10T19:21:34Z</time>
      </trkpt>
      <trkpt lat="59.9144583" lon="17.6428473">
        <ele>27.5349</ele>
        <time>2014-06-10T19:21:35Z</time>
      </trkpt>
      <trkpt lat="59.9145433" lon="17.6428286">
        <ele>28.0155</ele>
        <time>2014-06-10T19:21:36Z</time>
      </trkpt>
      <trkpt lat="59.9146276" lon="17.6428106">
        <ele>27.5349</ele>
        <time>2014-06-10T19:21:37Z</time>
      </trkpt>
      <trkpt lat="59.9147101" lon="17.6427956">
        <ele>27.5349</ele>
        <time>2014-06-10T19:21:38Z</time>
      </trkpt>
      <trkpt lat="59.9147918" lon="17.6427812">
        <ele>27.0543</ele>
        <time>2014-06-10T19:21:39Z</time>
      </trkpt>
      <trkpt lat="59.9148728" lon="17.6427663">
        <ele>27.0543</ele>
        <time>2014-06-10T19:21:40Z</time>
      </trkpt>
      <trkpt lat="59.9149546" lon="17.6427512">
        <ele>26.5736</ele>
        <time>2014-06-10T19:21:41Z</time>
      </trkpt>
      <trkpt lat="59.9150354" lon="17.6427364">
        <ele>26.5736</ele>
        <time>2014-06-10T19:21:42Z</time>
      </trkpt>
      <trkpt lat="59.9151142" lon="17.6427185">
        <ele>26.5736</ele>
        <time>2014-06-10T19:21:43Z</time>
      </trkpt>
      <trkpt lat="59.9151877" lon="17.6426896">
        <ele>26.0929</ele>
        <time>2014-06-10T19:21:44Z</time>
      </trkpt>
      <trkpt lat="59.9152522" lon="17.6426434">
        <ele>25.6123</ele>
        <time>2014-06-10T19:21:45Z</time>
      </trkpt>
      <trkpt lat="59.9153245" lon="17.6425957">
        <ele>25.6123</ele>
        <time>2014-06-10T19:21:46Z</time>
      </trkpt>
      <trkpt lat="59.9154141" lon="17.6425294">
        <ele>24.651</ele>
        <time>2014-06-10T19:21:47Z</time>
      </trkpt>
      <trkpt lat="59.9155045" lon="17.6424972">
        <ele>25.1317</ele>
        <time>2014-06-10T19:21:48Z</time>
      </trkpt>
      <trkpt lat="59.9155905" lon="17.6424828">
        <ele>24.651</ele>
        <time>2014-06-10T19:21:49Z</time>
      </trkpt>
      <trkpt lat="59.9156817" lon="17.6424646">
        <ele>25.1317</ele>
        <time>2014-06-10T19:21:50Z</time>
      </trkpt>
      <trkpt lat="59.9157679" lon="17.6424538">
        <ele>25.1317</ele>
        <time>2014-06-10T19:21:51Z</time>
      </trkpt>
      <trkpt lat="59.9158547" lon="17.6424472">
        <ele>24.651</ele>
        <time>2014-06-10T19:21:52Z</time>
      </trkpt>
      <trkpt lat="59.9159393" lon="17.6424476">
        <ele>24.651</ele>
        <time>2014-06-10T19:21:53Z</time>
      </trkpt>
      <trkpt lat="59.9160208" lon="17.6424472">
        <ele>24.651</ele>
        <time>2014-06-10T19:21:54Z</time>
      </trkpt>
      <trkpt lat="59.916102" lon="17.6424476">
        <ele>24.651</ele>
        <time>2014-06-10T19:21:55Z</time>
      </trkpt>
      <trkpt lat="59.9161797" lon="17.6424491">
        <ele>25.1317</ele>
        <time>2014-06-10T19:21:56Z</time>
      </trkpt>
      <trkpt lat="59.9162541" lon="17.6424455">
        <ele>25.1317</ele>
        <time>2014-06-10T19:21:57Z</time>
      </trkpt>
      <trkpt lat="59.91633" lon="17.6424372">
        <ele>25.1317</ele>
        <time>2014-06-10T19:21:58Z</time>
      </trkpt>
      <trkpt lat="59.9164064" lon="17.642427">
        <ele>25.1317</ele>
        <time>2014-06-10T19:21:59Z</time>
      </trkpt>
      <trkpt lat="59.916482" lon="17.6424166">
        <ele>25.1317</ele>
        <time>2014-06-10T19:22:00Z</time>
      </trkpt>
      <trkpt lat="59.9165566" lon="17.6424055">
        <ele>25.1317</ele>
        <time>2014-06-10T19:22:01Z</time>
      </trkpt>
      <trkpt lat="59.9166325" lon="17.6423941">
        <ele>24.651</ele>
        <time>2014-06-10T19:22:02Z</time>
      </trkpt>
      <trkpt lat="59.9167091" lon="17.642383">
        <ele>24.651</ele>
        <time>2014-06-10T19:22:03Z</time>
      </trkpt>
      <trkpt lat="59.9167868" lon="17.6423735">
        <ele>24.1703</ele>
        <time>2014-06-10T19:22:04Z</time>
      </trkpt>
      <trkpt lat="59.9168671" lon="17.6423637">
        <ele>24.1703</ele>
        <time>2014-06-10T19:22:05Z</time>
      </trkpt>
      <trkpt lat="59.9169483" lon="17.6423493">
        <ele>24.1703</ele>
        <time>2014-06-10T19:22:06Z</time>
      </trkpt>
      <trkpt lat="59.9170295" lon="17.6423294">
        <ele>23.6896</ele>
        <time>2014-06-10T19:22:07Z</time>
      </trkpt>
      <trkpt lat="59.9171107" lon="17.642304">
        <ele>23.6896</ele>
        <time>2014-06-10T19:22:08Z</time>
      </trkpt>
      <trkpt lat="59.9171929" lon="17.6422787">
        <ele>23.6896</ele>
        <time>2014-06-10T19:22:09Z</time>
      </trkpt>
      <trkpt lat="59.9172763" lon="17.6422674">
        <ele>23.209</ele>
        <time>2014-06-10T19:22:10Z</time>
      </trkpt>
      <trkpt lat="59.9173595" lon="17.6422689">
        <ele>23.209</ele>
        <time>2014-06-10T19:22:11Z</time>
      </trkpt>
      <trkpt lat="59.917441" lon="17.6422699">
        <ele>23.209</ele>
        <time>2014-06-10T19:22:12Z</time>
      </trkpt>
      <trkpt lat="59.9175218" lon="17.6422694">
        <ele>23.209</ele>
        <time>2014-06-10T19:22:13Z</time>
      </trkpt>
      <trkpt lat="59.9176019" lon="17.6422699">
        <ele>23.209</ele>
        <time>2014-06-10T19:22:14Z</time>
      </trkpt>
      <trkpt lat="59.9176814" lon="17.6422715">
        <ele>23.6896</ele>
        <time>2014-06-10T19:22:15Z</time>
      </trkpt>
      <trkpt lat="59.91776" lon="17.642272">
        <ele>23.6896</ele>
        <time>2014-06-10T19:22:16Z</time>
      </trkpt>
      <trkpt lat="59.9178374" lon="17.6422684">
        <ele>23.6896</ele>
        <time>2014-06-10T19:22:17Z</time>
      </trkpt>
      <trkpt lat="59.9179145" lon="17.642262">
        <ele>23.6896</ele>
        <time>2014-06-10T19:22:18Z</time>
      </trkpt>
      <trkpt lat="59.917991" lon="17.6422557">
        <ele>23.6896</ele>
        <time>2014-06-10T19:22:19Z</time>
      </trkpt>
      <trkpt lat="59.9180663" lon="17.6422491">
        <ele>24.1703</ele>
        <time>2014-06-10T19:22:20Z</time>
      </trkpt>
      <trkpt lat="59.9181396" lon="17.6422414">
        <ele>24.1703</ele>
        <time>2014-06-10T19:22:21Z</time>
      </trkpt>
      <trkpt lat="59.9182108" lon="17.6422347">
        <ele>24.651</ele>
        <time>2014-06-10T19:22:22Z</time>
      </trkpt>
      <trkpt lat="59.9182802" lon="17.6422296">
        <ele>24.651</ele>
        <time>2014-06-10T19:22:23Z</time>
      </trkpt>
      <trkpt lat="59.9183475" lon="17.6422257">
        <ele>25.1317</ele>
        <time>2014-06-10T19:22:24Z</time>
      </trkpt>
      <trkpt lat="59.9184126" lon="17.6422206">
        <ele>25.1317</ele>
        <time>2014-06-10T19:22:25Z</time>
      </trkpt>
      <trkpt lat="59.9184754" lon="17.6422136">
        <ele>25.6123</ele>
        <time>2014-06-10T19:22:26Z</time>
      </trkpt>
      <trkpt lat="59.9185377" lon="17.6422057">
        <ele>25.6123</ele>
        <time>2014-06-10T19:22:27Z</time>
      </trkpt>
      <trkpt lat="59.9185999" lon="17.6421968">
        <ele>25.6123</ele>
        <time>2014-06-10T19:22:28Z</time>
      </trkpt>
      <trkpt lat="59.9186624" lon="17.6421876">
        <ele>25.6123</ele>
        <time>2014-06-10T19:22:29Z</time>
      </trkpt>
      <trkpt lat="59.9187253" lon="17.6421809">
        <ele>25.6123</ele>
        <time>2014-06-10T19:22:30Z</time>
      </trkpt>
      <trkpt lat="59.9187884" lon="17.6421751">
        <ele>25.6123</ele>
        <time>2014-06-10T19:22:31Z</time>
      </trkpt>
      <trkpt lat="59.9188511" lon="17.6421682">
        <ele>25.6123</ele>
        <time>2014-06-10T19:22:32Z</time>
      </trkpt>
      <trkpt lat="59.918913" lon="17.6421597">
        <ele>25.6123</ele>
        <time>2014-06-10T19:22:33Z</time>
      </trkpt>
      <trkpt lat="59.9189744" lon="17.6421516">
        <ele>26.0929</ele>
        <time>2014-06-10T19:22:34Z</time>
      </trkpt>
      <trkpt lat="59.919036" lon="17.6421445">
        <ele>26.0929</ele>
        <time>2014-06-10T19:22:35Z</time>
      </trkpt>
      <trkpt lat="59.9190976" lon="17.6421369">
        <ele>26.0929</ele>
        <time>2014-06-10T19:22:36Z</time>
      </trkpt>
      <trkpt lat="59.9191593" lon="17.64213">
        <ele>26.0929</ele>
        <time>2014-06-10T19:22:37Z</time>
      </trkpt>
      <trkpt lat="59.9192224" lon="17.6421229">
        <ele>26.0929</ele>
        <time>2014-06-10T19:22:38Z</time>
      </trkpt>
      <trkpt lat="59.9192867" lon="17.6421157">
        <ele>25.6123</ele>
        <time>2014-06-10T19:22:39Z</time>
      </trkpt>
      <trkpt lat="59.9193519" lon="17.6421088">
        <ele>25.6123</ele>
        <time>2014-06-10T19:22:40Z</time>
      </trkpt>
      <trkpt lat="59.9194177" lon="17.6421021">
        <ele>25.6123</ele>
        <time>2014-06-10T19:22:41Z</time>
      </trkpt>
      <trkpt lat="59.9194841" lon="17.6420975">
        <ele>25.6123</ele>
        <time>2014-06-10T19:22:42Z</time>
      </trkpt>
      <trkpt lat="59.9195509" lon="17.6420933">
        <ele>25.6123</ele>
        <time>2014-06-10T19:22:43Z</time>
      </trkpt>
      <trkpt lat="59.9196172" lon="17.6420863">
        <ele>25.6123</ele>
        <time>2014-06-10T19:22:44Z</time>
      </trkpt>
      <trkpt lat="59.9196835" lon="17.6420762">
        <ele>25.6123</ele>
        <time>2014-06-10T19:22:45Z</time>
      </trkpt>
      <trkpt lat="59.9197498" lon="17.642062">
        <ele>25.6123</ele>
        <time>2014-06-10T19:22:46Z</time>
      </trkpt>
      <trkpt lat="59.9198161" lon="17.6420441">
        <ele>25.6123</ele>
        <time>2014-06-10T19:22:47Z</time>
      </trkpt>
      <trkpt lat="59.9198834" lon="17.6420255">
        <ele>25.6123</ele>
        <time>2014-06-10T19:22:48Z</time>
      </trkpt>
      <trkpt lat="59.9199518" lon="17.6420094">
        <ele>25.6123</ele>
        <time>2014-06-10T19:22:49Z</time>
      </trkpt>
      <trkpt lat="59.9200212" lon="17.641999">
        <ele>25.6123</ele>
        <time>2014-06-10T19:22:50Z</time>
      </trkpt>
      <trkpt lat="59.9200913" lon="17.6419928">
        <ele>25.6123</ele>
        <time>2014-06-10T19:22:51Z</time>
      </trkpt>
      <trkpt lat="59.9201609" lon="17.641988">
        <ele>25.6123</ele>
        <time>2014-06-10T19:22:52Z</time>
      </trkpt>
      <trkpt lat="59.920229" lon="17.6419838">
        <ele>25.6123</ele>
        <time>2014-06-10T19:22:53Z</time>
      </trkpt>
      <trkpt lat="59.9202971" lon="17.6419794">
        <ele>25.6123</ele>
        <time>2014-06-10T19:22:54Z</time>
      </trkpt>
      <trkpt lat="59.9203666" lon="17.6419751">
        <ele>25.6123</ele>
        <time>2014-06-10T19:22:55Z</time>
      </trkpt>
      <trkpt lat="59.9204366" lon="17.6419722">
        <ele>25.6123</ele>
        <time>2014-06-10T19:22:56Z</time>
      </trkpt>
      <trkpt lat="59.9205065" lon="17.6419706">
        <ele>25.6123</ele>
        <time>2014-06-10T19:22:57Z</time>
      </trkpt>
      <trkpt lat="59.9205764" lon="17.6419691">
        <ele>25.6123</ele>
        <time>2014-06-10T19:22:58Z</time>
      </trkpt>
      <trkpt lat="59.9206463" lon="17.6419664">
        <ele>25.6123</ele>
        <time>2014-06-10T19:22:59Z</time>
      </trkpt>
      <trkpt lat="59.9207162" lon="17.6419647">
        <ele>25.6123</ele>
        <time>2014-06-10T19:23:00Z</time>
      </trkpt>
      <trkpt lat="59.9207854" lon="17.6419628">
        <ele>25.1317</ele>
        <time>2014-06-10T19:23:01Z</time>
      </trkpt>
      <trkpt lat="59.9208547" lon="17.6419605">
        <ele>25.1317</ele>
        <time>2014-06-10T19:23:02Z</time>
      </trkpt>
      <trkpt lat="59.9209229" lon="17.6419538">
        <ele>25.1317</ele>
        <time>2014-06-10T19:23:03Z</time>
      </trkpt>
      <trkpt lat="59.920989" lon="17.6419442">
        <ele>25.1317</ele>
        <time>2014-06-10T19:23:04Z</time>
      </trkpt>
      <trkpt lat="59.9210547" lon="17.6419363">
        <ele>24.651</ele>
        <time>2014-06-10T19:23:05Z</time>
      </trkpt>
      <trkpt lat="59.921121" lon="17.6419327">
        <ele>24.651</ele>
        <time>2014-06-10T19:23:06Z</time>
      </trkpt>
      <trkpt lat="59.9211892" lon="17.6419287">
        <ele>25.1317</ele>
        <time>2014-06-10T19:23:07Z</time>
      </trkpt>
      <trkpt lat="59.9212583" lon="17.6419223">
        <ele>25.6123</ele>
        <time>2014-06-10T19:23:08Z</time>
      </trkpt>
      <trkpt lat="59.9213233" lon="17.6419161">
        <ele>25.6123</ele>
        <time>2014-06-10T19:23:09Z</time>
      </trkpt>
      <trkpt lat="59.9213873" lon="17.6419084">
        <ele>25.6123</ele>
        <time>2014-06-10T19:23:10Z</time>
      </trkpt>
      <trkpt lat="59.9214504" lon="17.6419001">
        <ele>25.6123</ele>
        <time>2014-06-10T19:23:11Z</time>
      </trkpt>
      <trkpt lat="59.9215139" lon="17.641894">
        <ele>25.6123</ele>
        <time>2014-06-10T19:23:12Z</time>
      </trkpt>
      <trkpt lat="59.9215799" lon="17.6418845">
        <ele>25.6123</ele>
        <time>2014-06-10T19:23:13Z</time>
      </trkpt>
      <trkpt lat="59.9216468" lon="17.6418752">
        <ele>25.6123</ele>
        <time>2014-06-10T19:23:14Z</time>
      </trkpt>
      <trkpt lat="59.9217136" lon="17.6418643">
        <ele>25.1317</ele>
        <time>2014-06-10T19:23:15Z</time>
      </trkpt>
      <trkpt lat="59.9217829" lon="17.6418535">
        <ele>25.6123</ele>
        <time>2014-06-10T19:23:16Z</time>
      </trkpt>
      <trkpt lat="59.9218536" lon="17.6418452">
        <ele>25.1317</ele>
        <time>2014-06-10T19:23:17Z</time>
      </trkpt>
      <trkpt lat="59.9219255" lon="17.6418396">
        <ele>25.1317</ele>
        <time>2014-06-10T19:23:18Z</time>
      </trkpt>
      <trkpt lat="59.9219988" lon="17.6418332">
        <ele>25.1317</ele>
        <time>2014-06-10T19:23:19Z</time>
      </trkpt>
      <trkpt lat="59.9220727" lon="17.6418248">
        <ele>25.1317</ele>
        <time>2014-06-10T19:23:20Z</time>
      </trkpt>
      <trkpt lat="59.9221476" lon="17.6418157">
        <ele>25.1317</ele>
        <time>2014-06-10T19:23:21Z</time>
      </trkpt>
      <trkpt lat="59.9222227" lon="17.6418066">
        <ele>25.1317</ele>
        <time>2014-06-10T19:23:22Z</time>
      </trkpt>
      <trkpt lat="59.922297" lon="17.641798">
        <ele>25.1317</ele>
        <time>2014-06-10T19:23:23Z</time>
      </trkpt>
      <trkpt lat="59.9223705" lon="17.6417909">
        <ele>25.1317</ele>
        <time>2014-06-10T19:23:24Z</time>
      </trkpt>
      <trkpt lat="59.9224429" lon="17.6417818">
        <ele>25.1317</ele>
        <time>2014-06-10T19:23:25Z</time>
      </trkpt>
      <trkpt lat="59.9225135" lon="17.6417695">
        <ele>25.1317</ele>
        <time>2014-06-10T19:23:26Z</time>
      </trkpt>
      <trkpt lat="59.9225838" lon="17.6417586">
        <ele>25.1317</ele>
        <time>2014-06-10T19:23:27Z</time>
      </trkpt>
      <trkpt lat="59.9226539" lon="17.6417488">
        <ele>25.1317</ele>
        <time>2014-06-10T19:23:28Z</time>
      </trkpt>
      <trkpt lat="59.9227231" lon="17.6417395">
        <ele>25.1317</ele>
        <time>2014-06-10T19:23:29Z</time>
      </trkpt>
      <trkpt lat="59.9227931" lon="17.6417301">
        <ele>24.651</ele>
        <time>2014-06-10T19:23:30Z</time>
      </trkpt>
      <trkpt lat="59.9228645" lon="17.6417217">
        <ele>24.651</ele>
        <time>2014-06-10T19:23:31Z</time>
      </trkpt>
      <trkpt lat="59.9229374" lon="17.6417144">
        <ele>24.651</ele>
        <time>2014-06-10T19:23:32Z</time>
      </trkpt>
      <trkpt lat="59.9230117" lon="17.6417087">
        <ele>24.1703</ele>
        <time>2014-06-10T19:23:33Z</time>
      </trkpt>
      <trkpt lat="59.9230867" lon="17.641702">
        <ele>24.1703</ele>
        <time>2014-06-10T19:23:34Z</time>
      </trkpt>
      <trkpt lat="59.9231622" lon="17.6416922">
        <ele>24.1703</ele>
        <time>2014-06-10T19:23:35Z</time>
      </trkpt>
      <trkpt lat="59.9232381" lon="17.6416816">
        <ele>23.6896</ele>
        <time>2014-06-10T19:23:36Z</time>
      </trkpt>
      <trkpt lat="59.9233142" lon="17.6416721">
        <ele>23.6896</ele>
        <time>2014-06-10T19:23:37Z</time>
      </trkpt>
      <trkpt lat="59.9233904" lon="17.6416624">
        <ele>23.6896</ele>
        <time>2014-06-10T19:23:38Z</time>
      </trkpt>
      <trkpt lat="59.923467" lon="17.6416508">
        <ele>23.209</ele>
        <time>2014-06-10T19:23:39Z</time>
      </trkpt>
      <trkpt lat="59.9235443" lon="17.6416389">
        <ele>23.209</ele>
        <time>2014-06-10T19:23:40Z</time>
      </trkpt>
      <trkpt lat="59.9236224" lon="17.6416279">
        <ele>23.209</ele>
        <time>2014-06-10T19:23:41Z</time>
      </trkpt>
      <trkpt lat="59.9237017" lon="17.6416172">
        <ele>22.7283</ele>
        <time>2014-06-10T19:23:42Z</time>
      </trkpt>
      <trkpt lat="59.9237821" lon="17.6416074">
        <ele>22.7283</ele>
        <time>2014-06-10T19:23:43Z</time>
      </trkpt>
      <trkpt lat="59.9238638" lon="17.6415979">
        <ele>22.7283</ele>
        <time>2014-06-10T19:23:44Z</time>
      </trkpt>
      <trkpt lat="59.9239457" lon="17.6415887">
        <ele>22.2476</ele>
        <time>2014-06-10T19:23:45Z</time>
      </trkpt>
      <trkpt lat="59.9240279" lon="17.6415794">
        <ele>22.2476</ele>
        <time>2014-06-10T19:23:46Z</time>
      </trkpt>
      <trkpt lat="59.9241099" lon="17.6415712">
        <ele>22.2476</ele>
        <time>2014-06-10T19:23:47Z</time>
      </trkpt>
      <trkpt lat="59.9241907" lon="17.6415649">
        <ele>22.2476</ele>
        <time>2014-06-10T19:23:48Z</time>
      </trkpt>
      <trkpt lat="59.9242694" lon="17.6415597">
        <ele>22.2476</ele>
        <time>2014-06-10T19:23:49Z</time>
      </trkpt>
      <trkpt lat="59.9243461" lon="17.641555">
        <ele>22.2476</ele>
        <time>2014-06-10T19:23:50Z</time>
      </trkpt>
      <trkpt lat="59.9244205" lon="17.6415487">
        <ele>22.2476</ele>
        <time>2014-06-10T19:23:51Z</time>
      </trkpt>
      <trkpt lat="59.9244933" lon="17.6415406">
        <ele>22.2476</ele>
        <time>2014-06-10T19:23:52Z</time>
      </trkpt>
      <trkpt lat="59.9245657" lon="17.6415318">
        <ele>22.2476</ele>
        <time>2014-06-10T19:23:53Z</time>
      </trkpt>
      <trkpt lat="59.9246375" lon="17.6415187">
        <ele>22.2476</ele>
        <time>2014-06-10T19:23:54Z</time>
      </trkpt>
      <trkpt lat="59.9247087" lon="17.641499">
        <ele>22.2476</ele>
        <time>2014-06-10T19:23:55Z</time>
      </trkpt>
      <trkpt lat="59.9247802" lon="17.6414779">
        <ele>22.2476</ele>
        <time>2014-06-10T19:23:56Z</time>
      </trkpt>
      <trkpt lat="59.9248522" lon="17.6414603">
        <ele>22.2476</ele>
        <time>2014-06-10T19:23:57Z</time>
      </trkpt>
      <trkpt lat="59.9249251" lon="17.641449">
        <ele>22.2476</ele>
        <time>2014-06-10T19:23:58Z</time>
      </trkpt>
      <trkpt lat="59.9249983" lon="17.641443">
        <ele>22.2476</ele>
        <time>2014-06-10T19:23:59Z</time>
      </trkpt>
      <trkpt lat="59.9250724" lon="17.6414395">
        <ele>22.2476</ele>
        <time>2014-06-10T19:24:00Z</time>
      </trkpt>
      <trkpt lat="59.925147" lon="17.6414375">
        <ele>22.2476</ele>
        <time>2014-06-10T19:24:01Z</time>
      </trkpt>
      <trkpt lat="59.9252215" lon="17.6414359">
        <ele>22.2476</ele>
        <time>2014-06-10T19:24:02Z</time>
      </trkpt>
      <trkpt lat="59.9252956" lon="17.6414355">
        <ele>22.2476</ele>
        <time>2014-06-10T19:24:03Z</time>
      </trkpt>
      <trkpt lat="59.9253692" lon="17.6414342">
        <ele>22.2476</ele>
        <time>2014-06-10T19:24:04Z</time>
      </trkpt>
      <trkpt lat="59.925443" lon="17.6414306">
        <ele>22.2476</ele>
        <time>2014-06-10T19:24:05Z</time>
      </trkpt>
      <trkpt lat="59.9255176" lon="17.6414252">
        <ele>21.767</ele>
        <time>2014-06-10T19:24:06Z</time>
      </trkpt>
      <trkpt lat="59.9255925" lon="17.6414173">
        <ele>21.767</ele>
        <time>2014-06-10T19:24:07Z</time>
      </trkpt>
      <trkpt lat="59.9256677" lon="17.6414081">
        <ele>21.767</ele>
        <time>2014-06-10T19:24:08Z</time>
      </trkpt>
      <trkpt lat="59.9257432" lon="17.6413976">
        <ele>21.767</ele>
        <time>2014-06-10T19:24:09Z</time>
      </trkpt>
      <trkpt lat="59.9258193" lon="17.6413861">
        <ele>21.767</ele>
        <time>2014-06-10T19:24:10Z</time>
      </trkpt>
      <trkpt lat="59.9258965" lon="17.6413754">
        <ele>21.767</ele>
        <time>2014-06-10T19:24:11Z</time>
      </trkpt>
      <trkpt lat="59.9259747" lon="17.6413651">
        <ele>21.2864</ele>
        <time>2014-06-10T19:24:12Z</time>
      </trkpt>
      <trkpt lat="59.9260539" lon="17.6413556">
        <ele>21.2864</ele>
        <time>2014-06-10T19:24:13Z</time>
      </trkpt>
      <trkpt lat="59.9261333" lon="17.6413459">
        <ele>21.2864</ele>
        <time>2014-06-10T19:24:14Z</time>
      </trkpt>
      <trkpt lat="59.9262131" lon="17.6413353">
        <ele>21.2864</ele>
        <time>2014-06-10T19:24:15Z</time>
      </trkpt>
      <trkpt lat="59.9262928" lon="17.6413224">
        <ele>21.2864</ele>
        <time>2014-06-10T19:24:16Z</time>
      </trkpt>
      <trkpt lat="59.9263722" lon="17.6413105">
        <ele>21.2864</ele>
        <time>2014-06-10T19:24:17Z</time>
      </trkpt>
      <trkpt lat="59.9264521" lon="17.6413019">
        <ele>21.2864</ele>
        <time>2014-06-10T19:24:18Z</time>
      </trkpt>
      <trkpt lat="59.9265316" lon="17.6412935">
        <ele>21.2864</ele>
        <time>2014-06-10T19:24:19Z</time>
      </trkpt>
      <trkpt lat="59.9266101" lon="17.641283">
        <ele>21.2864</ele>
        <time>2014-06-10T19:24:20Z</time>
      </trkpt>
      <trkpt lat="59.9266874" lon="17.6412722">
        <ele>21.2864</ele>
        <time>2014-06-10T19:24:21Z</time>
      </trkpt>
      <trkpt lat="59.9267637" lon="17.6412637">
        <ele>21.2864</ele>
        <time>2014-06-10T19:24:22Z</time>
      </trkpt>
      <trkpt lat="59.9268396" lon="17.6412565">
        <ele>21.2864</ele>
        <time>2014-06-10T19:24:23Z</time>
      </trkpt>
      <trkpt lat="59.9269149" lon="17.641248">
        <ele>21.2864</ele>
        <time>2014-06-10T19:24:24Z</time>
      </trkpt>
      <trkpt lat="59.9269898" lon="17.641239">
        <ele>21.2864</ele>
        <time>2014-06-10T19:24:25Z</time>
      </trkpt>
      <trkpt lat="59.9270647" lon="17.6412318">
        <ele>21.2864</ele>
        <time>2014-06-10T19:24:26Z</time>
      </trkpt>
      <trkpt lat="59.92714" lon="17.6412242">
        <ele>21.767</ele>
        <time>2014-06-10T19:24:27Z</time>
      </trkpt>
      <trkpt lat="59.9272153" lon="17.6412172">
        <ele>21.767</ele>
        <time>2014-06-10T19:24:28Z</time>
      </trkpt>
      <trkpt lat="59.9272908" lon="17.6412121">
        <ele>21.767</ele>
        <time>2014-06-10T19:24:29Z</time>
      </trkpt>
      <trkpt lat="59.927366" lon="17.6412075">
        <ele>21.767</ele>
        <time>2014-06-10T19:24:30Z</time>
      </trkpt>
      <trkpt lat="59.9274408" lon="17.6412009">
        <ele>21.767</ele>
        <time>2014-06-10T19:24:31Z</time>
      </trkpt>
      <trkpt lat="59.9275157" lon="17.6411936">
        <ele>21.767</ele>
        <time>2014-06-10T19:24:32Z</time>
      </trkpt>
      <trkpt lat="59.9275899" lon="17.6411873">
        <ele>21.767</ele>
        <time>2014-06-10T19:24:33Z</time>
      </trkpt>
      <trkpt lat="59.9276638" lon="17.6411811">
        <ele>21.767</ele>
        <time>2014-06-10T19:24:34Z</time>
      </trkpt>
      <trkpt lat="59.9277373" lon="17.6411744">
        <ele>21.767</ele>
        <time>2014-06-10T19:24:35Z</time>
      </trkpt>
      <trkpt lat="59.9278107" lon="17.6411677">
        <ele>21.767</ele>
        <time>2014-06-10T19:24:36Z</time>
      </trkpt>
      <trkpt lat="59.9278841" lon="17.6411613">
        <ele>21.767</ele>
        <time>2014-06-10T19:24:37Z</time>
      </trkpt>
      <trkpt lat="59.9279571" lon="17.6411541">
        <ele>21.767</ele>
        <time>2014-06-10T19:24:38Z</time>
      </trkpt>
      <trkpt lat="59.9280296" lon="17.6411464">
        <ele>21.767</ele>
        <time>2014-06-10T19:24:39Z</time>
      </trkpt>
      <trkpt lat="59.9281016" lon="17.6411392">
        <ele>21.767</ele>
        <time>2014-06-10T19:24:40Z</time>
      </trkpt>
      <trkpt lat="59.9281731" lon="17.6411309">
        <ele>21.767</ele>
        <time>2014-06-10T19:24:41Z</time>
      </trkpt>
      <trkpt lat="59.9282436" lon="17.6411218">
        <ele>21.767</ele>
        <time>2014-06-10T19:24:42Z</time>
      </trkpt>
      <trkpt lat="59.9283141" lon="17.6411138">
        <ele>21.767</ele>
        <time>2014-06-10T19:24:43Z</time>
      </trkpt>
      <trkpt lat="59.928384" lon="17.6411054">
        <ele>21.767</ele>
        <time>2014-06-10T19:24:44Z</time>
      </trkpt>
      <trkpt lat="59.9284537" lon="17.6410943">
        <ele>21.767</ele>
        <time>2014-06-10T19:24:45Z</time>
      </trkpt>
      <trkpt lat="59.9285231" lon="17.6410827">
        <ele>21.767</ele>
        <time>2014-06-10T19:24:46Z</time>
      </trkpt>
      <trkpt lat="59.9285917" lon="17.6410727">
        <ele>21.767</ele>
        <time>2014-06-10T19:24:47Z</time>
      </trkpt>
      <trkpt lat="59.9286604" lon="17.6410617">
        <ele>21.767</ele>
        <time>2014-06-10T19:24:48Z</time>
      </trkpt>
      <trkpt lat="59.9287293" lon="17.6410474">
        <ele>21.767</ele>
        <time>2014-06-10T19:24:49Z</time>
      </trkpt>
      <trkpt lat="59.9287995" lon="17.6410308">
        <ele>21.767</ele>
        <time>2014-06-10T19:24:50Z</time>
      </trkpt>
      <trkpt lat="59.9288714" lon="17.6410143">
        <ele>21.767</ele>
        <time>2014-06-10T19:24:51Z</time>
      </trkpt>
      <trkpt lat="59.9289434" lon="17.640999">
        <ele>21.767</ele>
        <time>2014-06-10T19:24:52Z</time>
      </trkpt>
      <trkpt lat="59.9290142" lon="17.6409868">
        <ele>21.767</ele>
        <time>2014-06-10T19:24:53Z</time>
      </trkpt>
      <trkpt lat="59.9290833" lon="17.6409797">
        <ele>21.767</ele>
        <time>2014-06-10T19:24:54Z</time>
      </trkpt>
      <trkpt lat="59.9291517" lon="17.6409764">
        <ele>21.767</ele>
        <time>2014-06-10T19:24:55Z</time>
      </trkpt>
      <trkpt lat="59.9292209" lon="17.6409757">
        <ele>21.767</ele>
        <time>2014-06-10T19:24:56Z</time>
      </trkpt>
      <trkpt lat="59.92929" lon="17.6409738">
        <ele>21.767</ele>
        <time>2014-06-10T19:24:57Z</time>
      </trkpt>
      <trkpt lat="59.9293594" lon="17.6409692">
        <ele>21.767</ele>
        <time>2014-06-10T19:24:58Z</time>
      </trkpt>
      <trkpt lat="59.9294288" lon="17.6409639">
        <ele>21.767</ele>
        <time>2014-06-10T19:24:59Z</time>
      </trkpt>
      <trkpt lat="59.9294983" lon="17.6409572">
        <ele>22.2476</ele>
        <time>2014-06-10T19:25:00Z</time>
      </trkpt>
      <trkpt lat="59.9295674" lon="17.6409472">
        <ele>22.2476</ele>
        <time>2014-06-10T19:25:01Z</time>
      </trkpt>
      <trkpt lat="59.9296359" lon="17.6409309">
        <ele>22.2476</ele>
        <time>2014-06-10T19:25:02Z</time>
      </trkpt>
      <trkpt lat="59.9297035" lon="17.6409125">
        <ele>22.2476</ele>
        <time>2014-06-10T19:25:03Z</time>
      </trkpt>
      <trkpt lat="59.9297705" lon="17.6408975">
        <ele>22.7283</ele>
        <time>2014-06-10T19:25:04Z</time>
      </trkpt>
      <trkpt lat="59.9298359" lon="17.6408873">
        <ele>22.7283</ele>
        <time>2014-06-10T19:25:05Z</time>
      </trkpt>
      <trkpt lat="59.9299018" lon="17.6408817">
        <ele>22.7283</ele>
        <time>2014-06-10T19:25:06Z</time>
      </trkpt>
      <trkpt lat="59.9299706" lon="17.6408811">
        <ele>22.2476</ele>
        <time>2014-06-10T19:25:07Z</time>
      </trkpt>
      <trkpt lat="59.9300412" lon="17.6408823">
        <ele>22.2476</ele>
        <time>2014-06-10T19:25:08Z</time>
      </trkpt>
      <trkpt lat="59.9301127" lon="17.6408815">
        <ele>22.2476</ele>
        <time>2014-06-10T19:25:09Z</time>
      </trkpt>
      <trkpt lat="59.9301842" lon="17.640881">
        <ele>22.7283</ele>
        <time>2014-06-10T19:25:10Z</time>
      </trkpt>
      <trkpt lat="59.930256" lon="17.6408837">
        <ele>22.7283</ele>
        <time>2014-06-10T19:25:11Z</time>
      </trkpt>
      <trkpt lat="59.9303274" lon="17.6408884">
        <ele>22.7283</ele>
        <time>2014-06-10T19:25:12Z</time>
      </trkpt>
      <trkpt lat="59.9303988" lon="17.6408936">
        <ele>22.7283</ele>
        <time>2014-06-10T19:25:13Z</time>
      </trkpt>
      <trkpt lat="59.93047" lon="17.6408965">
        <ele>23.209</ele>
        <time>2014-06-10T19:25:14Z</time>
      </trkpt>
      <trkpt lat="59.9305397" lon="17.6408947">
        <ele>23.209</ele>
        <time>2014-06-10T19:25:15Z</time>
      </trkpt>
      <trkpt lat="59.9306068" lon="17.6408862">
        <ele>23.6896</ele>
        <time>2014-06-10T19:25:16Z</time>
      </trkpt>
      <trkpt lat="59.9306713" lon="17.6408717">
        <ele>23.6896</ele>
        <time>2014-06-10T19:25:17Z</time>
      </trkpt>
      <trkpt lat="59.930734" lon="17.6408592">
        <ele>23.6896</ele>
        <time>2014-06-10T19:25:18Z</time>
      </trkpt>
      <trkpt lat="59.9307967" lon="17.640855">
        <ele>23.6896</ele>
        <time>2014-06-10T19:25:19Z</time>
      </trkpt>
      <trkpt lat="59.9308611" lon="17.6408594">
        <ele>23.6896</ele>
        <time>2014-06-10T19:25:20Z</time>
      </trkpt>
      <trkpt lat="59.9309281" lon="17.6408749">
        <ele>23.6896</ele>
        <time>2014-06-10T19:25:21Z</time>
      </trkpt>
      <trkpt lat="59.9309953" lon="17.6409035">
        <ele>23.6896</ele>
        <time>2014-06-10T19:25:22Z</time>
      </trkpt>
      <trkpt lat="59.9310607" lon="17.6409441">
        <ele>23.6896</ele>
        <time>2014-06-10T19:25:23Z</time>
      </trkpt>
      <trkpt lat="59.9311251" lon="17.6409909">
        <ele>23.6896</ele>
        <time>2014-06-10T19:25:24Z</time>
      </trkpt>
      <trkpt lat="59.931188" lon="17.6410379">
        <ele>24.1703</ele>
        <time>2014-06-10T19:25:25Z</time>
      </trkpt>
      <trkpt lat="59.9312487" lon="17.6410837">
        <ele>24.651</ele>
        <time>2014-06-10T19:25:26Z</time>
      </trkpt>
      <trkpt lat="59.9313064" lon="17.6411277">
        <ele>25.1317</ele>
        <time>2014-06-10T19:25:27Z</time>
      </trkpt>
      <trkpt lat="59.9313606" lon="17.6411692">
        <ele>25.6123</ele>
        <time>2014-06-10T19:25:28Z</time>
      </trkpt>
      <trkpt lat="59.9314123" lon="17.641209">
        <ele>25.6123</ele>
        <time>2014-06-10T19:25:29Z</time>
      </trkpt>
      <trkpt lat="59.9314637" lon="17.6412473">
        <ele>25.6123</ele>
        <time>2014-06-10T19:25:30Z</time>
      </trkpt>
      <trkpt lat="59.9315165" lon="17.6412852">
        <ele>25.6123</ele>
        <time>2014-06-10T19:25:31Z</time>
      </trkpt>
      <trkpt lat="59.9315699" lon="17.6413245">
        <ele>25.6123</ele>
        <time>2014-06-10T19:25:32Z</time>
      </trkpt>
      <trkpt lat="59.9316236" lon="17.6413632">
        <ele>25.6123</ele>
        <time>2014-06-10T19:25:33Z</time>
      </trkpt>
      <trkpt lat="59.9316771" lon="17.6414023">
        <ele>25.6123</ele>
        <time>2014-06-10T19:25:34Z</time>
      </trkpt>
      <trkpt lat="59.9317302" lon="17.6414427">
        <ele>25.6123</ele>
        <time>2014-06-10T19:25:35Z</time>
      </trkpt>
      <trkpt lat="59.9317825" lon="17.641481">
        <ele>25.6123</ele>
        <time>2014-06-10T19:25:36Z</time>
      </trkpt>
      <trkpt lat="59.9318346" lon="17.641515">
        <ele>26.0929</ele>
        <time>2014-06-10T19:25:37Z</time>
      </trkpt>
      <trkpt lat="59.9318873" lon="17.6415472">
        <ele>26.0929</ele>
        <time>2014-06-10T19:25:38Z</time>
      </trkpt>
      <trkpt lat="59.9319402" lon="17.6415803">
        <ele>26.0929</ele>
        <time>2014-06-10T19:25:39Z</time>
      </trkpt>
      <trkpt lat="59.9319928" lon="17.6416156">
        <ele>26.5736</ele>
        <time>2014-06-10T19:25:40Z</time>
      </trkpt>
      <trkpt lat="59.9320432" lon="17.6416561">
        <ele>26.5736</ele>
        <time>2014-06-10T19:25:41Z</time>
      </trkpt>
      <trkpt lat="59.9320917" lon="17.6417038">
        <ele>26.5736</ele>
        <time>2014-06-10T19:25:42Z</time>
      </trkpt>
      <trkpt lat="59.9321422" lon="17.6417545">
        <ele>26.5736</ele>
        <time>2014-06-10T19:25:43Z</time>
      </trkpt>
      <trkpt lat="59.9321965" lon="17.6418067">
        <ele>26.0929</ele>
        <time>2014-06-10T19:25:44Z</time>
      </trkpt>
      <trkpt lat="59.9322533" lon="17.6418607">
        <ele>26.0929</ele>
        <time>2014-06-10T19:25:45Z</time>
      </trkpt>
      <trkpt lat="59.9323117" lon="17.6419139">
        <ele>26.0929</ele>
        <time>2014-06-10T19:25:46Z</time>
      </trkpt>
      <trkpt lat="59.9323719" lon="17.6419653">
        <ele>26.0929</ele>
        <time>2014-06-10T19:25:47Z</time>
      </trkpt>
      <trkpt lat="59.9324324" lon="17.6420182">
        <ele>26.0929</ele>
        <time>2014-06-10T19:25:48Z</time>
      </trkpt>
      <trkpt lat="59.9324923" lon="17.6420732">
        <ele>26.0929</ele>
        <time>2014-06-10T19:25:49Z</time>
      </trkpt>
      <trkpt lat="59.9325509" lon="17.6421316">
        <ele>26.0929</ele>
        <time>2014-06-10T19:25:50Z</time>
      </trkpt>
      <trkpt lat="59.9326079" lon="17.6421931">
        <ele>26.0929</ele>
        <time>2014-06-10T19:25:51Z</time>
      </trkpt>
      <trkpt lat="59.9326641" lon="17.6422589">
        <ele>26.0929</ele>
        <time>2014-06-10T19:25:52Z</time>
      </trkpt>
      <trkpt lat="59.932719" lon="17.6423304">
        <ele>26.5736</ele>
        <time>2014-06-10T19:25:53Z</time>
      </trkpt>
      <trkpt lat="59.9327705" lon="17.6424087">
        <ele>26.5736</ele>
        <time>2014-06-10T19:25:54Z</time>
      </trkpt>
      <trkpt lat="59.9328171" lon="17.6424936">
        <ele>26.5736</ele>
        <time>2014-06-10T19:25:55Z</time>
      </trkpt>
      <trkpt lat="59.9328599" lon="17.642581">
        <ele>27.0543</ele>
        <time>2014-06-10T19:25:56Z</time>
      </trkpt>
      <trkpt lat="59.9329042" lon="17.6426616">
        <ele>27.0543</ele>
        <time>2014-06-10T19:25:57Z</time>
      </trkpt>
      <trkpt lat="59.9329518" lon="17.6427324">
        <ele>27.0543</ele>
        <time>2014-06-10T19:25:58Z</time>
      </trkpt>
      <trkpt lat="59.933001" lon="17.6427961">
        <ele>27.0543</ele>
        <time>2014-06-10T19:25:59Z</time>
      </trkpt>
      <trkpt lat="59.9330496" lon="17.6428569">
        <ele>27.5349</ele>
        <time>2014-06-10T19:26:00Z</time>
      </trkpt>
      <trkpt lat="59.9330959" lon="17.6429181">
        <ele>27.5349</ele>
        <time>2014-06-10T19:26:01Z</time>
      </trkpt>
      <trkpt lat="59.9331404" lon="17.6429791">
        <ele>28.0155</ele>
        <time>2014-06-10T19:26:02Z</time>
      </trkpt>
      <trkpt lat="59.9331826" lon="17.64304">
        <ele>28.4962</ele>
        <time>2014-06-10T19:26:03Z</time>
      </trkpt>
      <trkpt lat="59.9332228" lon="17.6431007">
        <ele>28.4962</ele>
        <time>2014-06-10T19:26:04Z</time>
      </trkpt>
      <trkpt lat="59.9332607" lon="17.6431602">
        <ele>28.9769</ele>
        <time>2014-06-10T19:26:05Z</time>
      </trkpt>
      <trkpt lat="59.9332956" lon="17.6432201">
        <ele>29.4575</ele>
        <time>2014-06-10T19:26:06Z</time>
      </trkpt>
      <trkpt lat="59.933328" lon="17.6432801">
        <ele>29.4575</ele>
        <time>2014-06-10T19:26:07Z</time>
      </trkpt>
      <trkpt lat="59.9333579" lon="17.6433366">
        <ele>29.4575</ele>
        <time>2014-06-10T19:26:08Z</time>
      </trkpt>
      <trkpt lat="59.9333895" lon="17.6433868">
        <ele>29.9381</ele>
        <time>2014-06-10T19:26:09Z</time>
      </trkpt>
      <trkpt lat="59.933423" lon="17.6434365">
        <ele>30.4188</ele>
        <time>2014-06-10T19:26:10Z</time>
      </trkpt>
      <trkpt lat="59.9334573" lon="17.6434826">
        <ele>29.9381</ele>
        <time>2014-06-10T19:26:11Z</time>
      </trkpt>
      <trkpt lat="59.9334931" lon="17.6435261">
        <ele>29.9381</ele>
        <time>2014-06-10T19:26:12Z</time>
      </trkpt>
      <trkpt lat="59.9335284" lon="17.6435704">
        <ele>29.9381</ele>
        <time>2014-06-10T19:26:13Z</time>
      </trkpt>
      <trkpt lat="59.9335641" lon="17.6436146">
        <ele>29.9381</ele>
        <time>2014-06-10T19:26:14Z</time>
      </trkpt>
      <trkpt lat="59.9335983" lon="17.6436598">
        <ele>29.9381</ele>
        <time>2014-06-10T19:26:15Z</time>
      </trkpt>
      <trkpt lat="59.9336338" lon="17.6437007">
        <ele>29.9381</ele>
        <time>2014-06-10T19:26:16Z</time>
      </trkpt>
      <trkpt lat="59.9336703" lon="17.6437398">
        <ele>29.9381</ele>
        <time>2014-06-10T19:26:17Z</time>
      </trkpt>
      <trkpt lat="59.9337085" lon="17.6437804">
        <ele>29.9381</ele>
        <time>2014-06-10T19:26:18Z</time>
      </trkpt>
      <trkpt lat="59.9337514" lon="17.6438208">
        <ele>30.8995</ele>
        <time>2014-06-10T19:26:19Z</time>
      </trkpt>
      <trkpt lat="59.933794" lon="17.6438614">
        <ele>30.4188</ele>
        <time>2014-06-10T19:26:20Z</time>
      </trkpt>
      <trkpt lat="59.9338402" lon="17.6439012">
        <ele>30.8995</ele>
        <time>2014-06-10T19:26:21Z</time>
      </trkpt>
      <trkpt lat="59.9338863" lon="17.6439426">
        <ele>30.8995</ele>
        <time>2014-06-10T19:26:22Z</time>
      </trkpt>
      <trkpt lat="59.9339334" lon="17.6439916">
        <ele>31.3801</ele>
        <time>2014-06-10T19:26:23Z</time>
      </trkpt>
      <trkpt lat="59.9339796" lon="17.6440461">
        <ele>31.3801</ele>
        <time>2014-06-10T19:26:24Z</time>
      </trkpt>
      <trkpt lat="59.9340247" lon="17.6441029">
        <ele>31.3801</ele>
        <time>2014-06-10T19:26:25Z</time>
      </trkpt>
      <trkpt lat="59.93407" lon="17.6441608">
        <ele>31.3801</ele>
        <time>2014-06-10T19:26:26Z</time>
      </trkpt>
      <trkpt lat="59.9341157" lon="17.6442202">
        <ele>30.8995</ele>
        <time>2014-06-10T19:26:27Z</time>
      </trkpt>
      <trkpt lat="59.9341615" lon="17.6442806">
        <ele>30.8995</ele>
        <time>2014-06-10T19:26:28Z</time>
      </trkpt>
      <trkpt lat="59.9342081" lon="17.6443394">
        <ele>30.8995</ele>
        <time>2014-06-10T19:26:29Z</time>
      </trkpt>
      <trkpt lat="59.9342546" lon="17.6443979">
        <ele>31.3801</ele>
        <time>2014-06-10T19:26:30Z</time>
      </trkpt>
      <trkpt lat="59.9343003" lon="17.6444565">
        <ele>31.3801</ele>
        <time>2014-06-10T19:26:31Z</time>
      </trkpt>
      <trkpt lat="59.9343448" lon="17.6445154">
        <ele>31.3801</ele>
        <time>2014-06-10T19:26:32Z</time>
      </trkpt>
      <trkpt lat="59.9343856" lon="17.6445771">
        <ele>31.8607</ele>
        <time>2014-06-10T19:26:33Z</time>
      </trkpt>
      <trkpt lat="59.934421" lon="17.6446425">
        <ele>32.3416</ele>
        <time>2014-06-10T19:26:34Z</time>
      </trkpt>
      <trkpt lat="59.9344535" lon="17.6447044">
        <ele>32.8223</ele>
        <time>2014-06-10T19:26:35Z</time>
      </trkpt>
      <trkpt lat="59.9344842" lon="17.6447593">
        <ele>32.8223</ele>
        <time>2014-06-10T19:26:36Z</time>
      </trkpt>
      <trkpt lat="59.9345162" lon="17.6448119">
        <ele>32.8223</ele>
        <time>2014-06-10T19:26:37Z</time>
      </trkpt>
      <trkpt lat="59.9345504" lon="17.6448641">
        <ele>32.8223</ele>
        <time>2014-06-10T19:26:38Z</time>
      </trkpt>
      <trkpt lat="59.9345872" lon="17.6449128">
        <ele>32.8223</ele>
        <time>2014-06-10T19:26:39Z</time>
      </trkpt>
      <trkpt lat="59.9346254" lon="17.6449609">
        <ele>32.8223</ele>
        <time>2014-06-10T19:26:40Z</time>
      </trkpt>
      <trkpt lat="59.9346637" lon="17.6450103">
        <ele>32.8223</ele>
        <time>2014-06-10T19:26:41Z</time>
      </trkpt>
      <trkpt lat="59.9347026" lon="17.6450588">
        <ele>32.8223</ele>
        <time>2014-06-10T19:26:42Z</time>
      </trkpt>
      <trkpt lat="59.9347422" lon="17.6451071">
        <ele>32.8223</ele>
        <time>2014-06-10T19:26:43Z</time>
      </trkpt>
      <trkpt lat="59.9347822" lon="17.6451567">
        <ele>32.8223</ele>
        <time>2014-06-10T19:26:44Z</time>
      </trkpt>
      <trkpt lat="59.9348219" lon="17.6452069">
        <ele>33.3029</ele>
        <time>2014-06-10T19:26:45Z</time>
      </trkpt>
      <trkpt lat="59.9348621" lon="17.645255">
        <ele>33.3029</ele>
        <time>2014-06-10T19:26:46Z</time>
      </trkpt>
      <trkpt lat="59.9349025" lon="17.6453037">
        <ele>33.3029</ele>
        <time>2014-06-10T19:26:47Z</time>
      </trkpt>
      <trkpt lat="59.9349444" lon="17.6453506">
        <ele>33.3029</ele>
        <time>2014-06-10T19:26:48Z</time>
      </trkpt>
      <trkpt lat="59.9349884" lon="17.6453952">
        <ele>33.7834</ele>
        <time>2014-06-10T19:26:49Z</time>
      </trkpt>
      <trkpt lat="59.9350319" lon="17.6454451">
        <ele>33.7834</ele>
        <time>2014-06-10T19:26:50Z</time>
      </trkpt>
      <trkpt lat="59.9350756" lon="17.6454987">
        <ele>33.3029</ele>
        <time>2014-06-10T19:26:51Z</time>
      </trkpt>
      <trkpt lat="59.9351184" lon="17.6455575">
        <ele>33.3029</ele>
        <time>2014-06-10T19:26:52Z</time>
      </trkpt>
      <trkpt lat="59.9351583" lon="17.6456292">
        <ele>33.3029</ele>
        <time>2014-06-10T19:26:53Z</time>
      </trkpt>
      <trkpt lat="59.9351926" lon="17.6457178">
        <ele>33.3029</ele>
        <time>2014-06-10T19:26:54Z</time>
      </trkpt>
      <trkpt lat="59.9352249" lon="17.6458141">
        <ele>33.7834</ele>
        <time>2014-06-10T19:26:55Z</time>
      </trkpt>
      <trkpt lat="59.9352605" lon="17.6459058">
        <ele>33.7834</ele>
        <time>2014-06-10T19:26:56Z</time>
      </trkpt>
      <trkpt lat="59.9353034" lon="17.6459887">
        <ele>34.2642</ele>
        <time>2014-06-10T19:26:57Z</time>
      </trkpt>
      <trkpt lat="59.9353508" lon="17.6460613">
        <ele>33.7834</ele>
        <time>2014-06-10T19:26:58Z</time>
      </trkpt>
      <trkpt lat="59.9354024" lon="17.6461291">
        <ele>34.2642</ele>
        <time>2014-06-10T19:26:59Z</time>
      </trkpt>
      <trkpt lat="59.9354547" lon="17.6461945">
        <ele>34.2642</ele>
        <time>2014-06-10T19:27:00Z</time>
      </trkpt>
      <trkpt lat="59.9355073" lon="17.6462601">
        <ele>34.7449</ele>
        <time>2014-06-10T19:27:01Z</time>
      </trkpt>
      <trkpt lat="59.9355599" lon="17.646327">
        <ele>34.7449</ele>
        <time>2014-06-10T19:27:02Z</time>
      </trkpt>
      <trkpt lat="59.9356126" lon="17.6463943">
        <ele>35.2255</ele>
        <time>2014-06-10T19:27:03Z</time>
      </trkpt>
      <trkpt lat="59.9356656" lon="17.646461">
        <ele>35.2255</ele>
        <time>2014-06-10T19:27:04Z</time>
      </trkpt>
      <trkpt lat="59.9357186" lon="17.6465283">
        <ele>35.2255</ele>
        <time>2014-06-10T19:27:05Z</time>
      </trkpt>
      <trkpt lat="59.9357711" lon="17.6465946">
        <ele>35.2255</ele>
        <time>2014-06-10T19:27:06Z</time>
      </trkpt>
      <trkpt lat="59.9358226" lon="17.6466589">
        <ele>35.2255</ele>
        <time>2014-06-10T19:27:07Z</time>
      </trkpt>
      <trkpt lat="59.935873" lon="17.6467226">
        <ele>35.2255</ele>
        <time>2014-06-10T19:27:08Z</time>
      </trkpt>
      <trkpt lat="59.935923" lon="17.6467845">
        <ele>35.2255</ele>
        <time>2014-06-10T19:27:09Z</time>
      </trkpt>
      <trkpt lat="59.9359729" lon="17.6468453">
        <ele>35.2255</ele>
        <time>2014-06-10T19:27:10Z</time>
      </trkpt>
      <trkpt lat="59.9360226" lon="17.6469071">
        <ele>34.7449</ele>
        <time>2014-06-10T19:27:11Z</time>
      </trkpt>
      <trkpt lat="59.9360723" lon="17.6469717">
        <ele>34.7449</ele>
        <time>2014-06-10T19:27:12Z</time>
      </trkpt>
      <trkpt lat="59.9361223" lon="17.6470368">
        <ele>34.7449</ele>
        <time>2014-06-10T19:27:13Z</time>
      </trkpt>
      <trkpt lat="59.9361732" lon="17.6471012">
        <ele>34.7449</ele>
        <time>2014-06-10T19:27:14Z</time>
      </trkpt>
      <trkpt lat="59.9362249" lon="17.6471656">
        <ele>35.2255</ele>
        <time>2014-06-10T19:27:15Z</time>
      </trkpt>
      <trkpt lat="59.9362769" lon="17.6472304">
        <ele>34.7449</ele>
        <time>2014-06-10T19:27:16Z</time>
      </trkpt>
      <trkpt lat="59.9363296" lon="17.6472976">
        <ele>34.7449</ele>
        <time>2014-06-10T19:27:17Z</time>
      </trkpt>
      <trkpt lat="59.936383" lon="17.6473671">
        <ele>34.7449</ele>
        <time>2014-06-10T19:27:18Z</time>
      </trkpt>
      <trkpt lat="59.9364375" lon="17.6474355">
        <ele>35.2255</ele>
        <time>2014-06-10T19:27:19Z</time>
      </trkpt>
      <trkpt lat="59.9364934" lon="17.6475039">
        <ele>35.2255</ele>
        <time>2014-06-10T19:27:20Z</time>
      </trkpt>
      <trkpt lat="59.9365495" lon="17.6475741">
        <ele>35.2255</ele>
        <time>2014-06-10T19:27:21Z</time>
      </trkpt>
      <trkpt lat="59.9366051" lon="17.6476444">
        <ele>35.2255</ele>
        <time>2014-06-10T19:27:22Z</time>
      </trkpt>
      <trkpt lat="59.9366603" lon="17.6477146">
        <ele>35.2255</ele>
        <time>2014-06-10T19:27:23Z</time>
      </trkpt>
      <trkpt lat="59.936716" lon="17.6477841">
        <ele>35.2255</ele>
        <time>2014-06-10T19:27:24Z</time>
      </trkpt>
      <trkpt lat="59.9367715" lon="17.6478554">
        <ele>35.2255</ele>
        <time>2014-06-10T19:27:25Z</time>
      </trkpt>
      <trkpt lat="59.9368265" lon="17.6479284">
        <ele>35.2255</ele>
        <time>2014-06-10T19:27:26Z</time>
      </trkpt>
      <trkpt lat="59.936882" lon="17.6480017">
        <ele>34.7449</ele>
        <time>2014-06-10T19:27:27Z</time>
      </trkpt>
      <trkpt lat="59.9369393" lon="17.6480752">
        <ele>34.7449</ele>
        <time>2014-06-10T19:27:28Z</time>
      </trkpt>
      <trkpt lat="59.9369976" lon="17.6481505">
        <ele>34.7449</ele>
        <time>2014-06-10T19:27:29Z</time>
      </trkpt>
      <trkpt lat="59.9370569" lon="17.648228">
        <ele>34.7449</ele>
        <time>2014-06-10T19:27:30Z</time>
      </trkpt>
      <trkpt lat="59.9371167" lon="17.6483058">
        <ele>34.7449</ele>
        <time>2014-06-10T19:27:31Z</time>
      </trkpt>
      <trkpt lat="59.9371784" lon="17.6483846">
        <ele>34.2642</ele>
        <time>2014-06-10T19:27:32Z</time>
      </trkpt>
      <trkpt lat="59.9372404" lon="17.6484672">
        <ele>34.2642</ele>
        <time>2014-06-10T19:27:33Z</time>
      </trkpt>
      <trkpt lat="59.9373014" lon="17.6485543">
        <ele>34.2642</ele>
        <time>2014-06-10T19:27:34Z</time>
      </trkpt>
      <trkpt lat="59.9373617" lon="17.6486436">
        <ele>34.2642</ele>
        <time>2014-06-10T19:27:35Z</time>
      </trkpt>
      <trkpt lat="59.9374222" lon="17.6487327">
        <ele>33.7834</ele>
        <time>2014-06-10T19:27:36Z</time>
      </trkpt>
      <trkpt lat="59.9374823" lon="17.6488232">
        <ele>33.7834</ele>
        <time>2014-06-10T19:27:37Z</time>
      </trkpt>
      <trkpt lat="59.9375417" lon="17.6489175">
        <ele>33.7834</ele>
        <time>2014-06-10T19:27:38Z</time>
      </trkpt>
      <trkpt lat="59.9376002" lon="17.6490153">
        <ele>33.7834</ele>
        <time>2014-06-10T19:27:39Z</time>
      </trkpt>
      <trkpt lat="59.9376573" lon="17.6491171">
        <ele>33.7834</ele>
        <time>2014-06-10T19:27:40Z</time>
      </trkpt>
      <trkpt lat="59.9377121" lon="17.6492242">
        <ele>33.3029</ele>
        <time>2014-06-10T19:27:41Z</time>
      </trkpt>
      <trkpt lat="59.9377657" lon="17.6493351">
        <ele>33.3029</ele>
        <time>2014-06-10T19:27:42Z</time>
      </trkpt>
      <trkpt lat="59.9378143" lon="17.6494559">
        <ele>33.3029</ele>
        <time>2014-06-10T19:27:43Z</time>
      </trkpt>
      <trkpt lat="59.9378574" lon="17.6495858">
        <ele>33.3029</ele>
        <time>2014-06-10T19:27:44Z</time>
      </trkpt>
      <trkpt lat="59.9379009" lon="17.6497142">
        <ele>33.3029</ele>
        <time>2014-06-10T19:27:45Z</time>
      </trkpt>
      <trkpt lat="59.9379468" lon="17.6498387">
        <ele>32.8223</ele>
        <time>2014-06-10T19:27:46Z</time>
      </trkpt>
      <trkpt lat="59.9379936" lon="17.6499608">
        <ele>33.3029</ele>
        <time>2014-06-10T19:27:47Z</time>
      </trkpt>
      <trkpt lat="59.9380398" lon="17.6500816">
        <ele>32.8223</ele>
        <time>2014-06-10T19:27:48Z</time>
      </trkpt>
      <trkpt lat="59.9380858" lon="17.6502046">
        <ele>32.8223</ele>
        <time>2014-06-10T19:27:49Z</time>
      </trkpt>
      <trkpt lat="59.9381307" lon="17.6503302">
        <ele>32.8223</ele>
        <time>2014-06-10T19:27:50Z</time>
      </trkpt>
      <trkpt lat="59.9381744" lon="17.6504576">
        <ele>32.8223</ele>
        <time>2014-06-10T19:27:51Z</time>
      </trkpt>
      <trkpt lat="59.9382178" lon="17.6505835">
        <ele>32.8223</ele>
        <time>2014-06-10T19:27:52Z</time>
      </trkpt>
      <trkpt lat="59.938263" lon="17.6507051">
        <ele>32.8223</ele>
        <time>2014-06-10T19:27:53Z</time>
      </trkpt>
      <trkpt lat="59.9383106" lon="17.6508227">
        <ele>32.3416</ele>
        <time>2014-06-10T19:27:54Z</time>
      </trkpt>
      <trkpt lat="59.9383597" lon="17.6509366">
        <ele>32.3416</ele>
        <time>2014-06-10T19:27:55Z</time>
      </trkpt>
      <trkpt lat="59.9384105" lon="17.6510458">
        <ele>32.3416</ele>
        <time>2014-06-10T19:27:56Z</time>
      </trkpt>
      <trkpt lat="59.9384599" lon="17.6511554">
        <ele>32.3416</ele>
        <time>2014-06-10T19:27:57Z</time>
      </trkpt>
      <trkpt lat="59.9385036" lon="17.6512722">
        <ele>32.8223</ele>
        <time>2014-06-10T19:27:58Z</time>
      </trkpt>
      <trkpt lat="59.9385425" lon="17.6513921">
        <ele>32.8223</ele>
        <time>2014-06-10T19:27:59Z</time>
      </trkpt>
      <trkpt lat="59.9385801" lon="17.651511">
        <ele>32.8223</ele>
        <time>2014-06-10T19:28:00Z</time>
      </trkpt>
      <trkpt lat="59.9386174" lon="17.6516278">
        <ele>32.8223</ele>
        <time>2014-06-10T19:28:01Z</time>
      </trkpt>
      <trkpt lat="59.938654" lon="17.6517433">
        <ele>32.8223</ele>
        <time>2014-06-10T19:28:02Z</time>
      </trkpt>
      <trkpt lat="59.9386894" lon="17.6518586">
        <ele>32.8223</ele>
        <time>2014-06-10T19:28:03Z</time>
      </trkpt>
      <trkpt lat="59.9387243" lon="17.6519727">
        <ele>33.3029</ele>
        <time>2014-06-10T19:28:04Z</time>
      </trkpt>
      <trkpt lat="59.9387583" lon="17.6520858">
        <ele>33.3029</ele>
        <time>2014-06-10T19:28:05Z</time>
      </trkpt>
      <trkpt lat="59.9387916" lon="17.6521996">
        <ele>33.3029</ele>
        <time>2014-06-10T19:28:06Z</time>
      </trkpt>
      <trkpt lat="59.9388233" lon="17.6523147">
        <ele>33.3029</ele>
        <time>2014-06-10T19:28:07Z</time>
      </trkpt>
      <trkpt lat="59.9388548" lon="17.65243">
        <ele>33.3029</ele>
        <time>2014-06-10T19:28:08Z</time>
      </trkpt>
      <trkpt lat="59.9388871" lon="17.6525451">
        <ele>33.3029</ele>
        <time>2014-06-10T19:28:09Z</time>
      </trkpt>
      <trkpt lat="59.9389194" lon="17.6526607">
        <ele>33.7834</ele>
        <time>2014-06-10T19:28:10Z</time>
      </trkpt>
      <trkpt lat="59.938951" lon="17.6527771">
        <ele>33.7834</ele>
        <time>2014-06-10T19:28:11Z</time>
      </trkpt>
      <trkpt lat="59.938981" lon="17.6528943">
        <ele>33.7834</ele>
        <time>2014-06-10T19:28:12Z</time>
      </trkpt>
      <trkpt lat="59.9390103" lon="17.6530122">
        <ele>33.7834</ele>
        <time>2014-06-10T19:28:13Z</time>
      </trkpt>
      <trkpt lat="59.93904" lon="17.653129">
        <ele>34.2642</ele>
        <time>2014-06-10T19:28:14Z</time>
      </trkpt>
      <trkpt lat="59.9390693" lon="17.6532446">
        <ele>34.2642</ele>
        <time>2014-06-10T19:28:15Z</time>
      </trkpt>
      <trkpt lat="59.939097" lon="17.6533605">
        <ele>34.2642</ele>
        <time>2014-06-10T19:28:16Z</time>
      </trkpt>
      <trkpt lat="59.939124" lon="17.6534761">
        <ele>34.2642</ele>
        <time>2014-06-10T19:28:17Z</time>
      </trkpt>
      <trkpt lat="59.9391509" lon="17.6535917">
        <ele>34.2642</ele>
        <time>2014-06-10T19:28:18Z</time>
      </trkpt>
      <trkpt lat="59.9391772" lon="17.6537071">
        <ele>34.2642</ele>
        <time>2014-06-10T19:28:19Z</time>
      </trkpt>
      <trkpt lat="59.9392026" lon="17.6538214">
        <ele>34.2642</ele>
        <time>2014-06-10T19:28:20Z</time>
      </trkpt>
      <trkpt lat="59.9392273" lon="17.6539355">
        <ele>34.2642</ele>
        <time>2014-06-10T19:28:21Z</time>
      </trkpt>
      <trkpt lat="59.9392511" lon="17.6540505">
        <ele>34.2642</ele>
        <time>2014-06-10T19:28:22Z</time>
      </trkpt>
      <trkpt lat="59.9392746" lon="17.654165">
        <ele>34.2642</ele>
        <time>2014-06-10T19:28:23Z</time>
      </trkpt>
      <trkpt lat="59.9392983" lon="17.6542789">
        <ele>34.2642</ele>
        <time>2014-06-10T19:28:24Z</time>
      </trkpt>
      <trkpt lat="59.9393213" lon="17.6543927">
        <ele>34.2642</ele>
        <time>2014-06-10T19:28:25Z</time>
      </trkpt>
      <trkpt lat="59.9393435" lon="17.6545059">
        <ele>34.2642</ele>
        <time>2014-06-10T19:28:26Z</time>
      </trkpt>
      <trkpt lat="59.9393662" lon="17.6546188">
        <ele>34.2642</ele>
        <time>2014-06-10T19:28:27Z</time>
      </trkpt>
      <trkpt lat="59.9393885" lon="17.6547322">
        <ele>34.2642</ele>
        <time>2014-06-10T19:28:28Z</time>
      </trkpt>
      <trkpt lat="59.9394104" lon="17.6548458">
        <ele>34.2642</ele>
        <time>2014-06-10T19:28:29Z</time>
      </trkpt>
      <trkpt lat="59.9394324" lon="17.654959">
        <ele>34.7449</ele>
        <time>2014-06-10T19:28:30Z</time>
      </trkpt>
      <trkpt lat="59.9394553" lon="17.6550713">
        <ele>34.7449</ele>
        <time>2014-06-10T19:28:31Z</time>
      </trkpt>
      <trkpt lat="59.9394792" lon="17.6551839">
        <ele>34.7449</ele>
        <time>2014-06-10T19:28:32Z</time>
      </trkpt>
      <trkpt lat="59.9395021" lon="17.655298">
        <ele>34.7449</ele>
        <time>2014-06-10T19:28:33Z</time>
      </trkpt>
      <trkpt lat="59.9395247" lon="17.6554134">
        <ele>34.7449</ele>
        <time>2014-06-10T19:28:34Z</time>
      </trkpt>
      <trkpt lat="59.9395472" lon="17.6555292">
        <ele>34.7449</ele>
        <time>2014-06-10T19:28:35Z</time>
      </trkpt>
      <trkpt lat="59.9395703" lon="17.655645">
        <ele>34.7449</ele>
        <time>2014-06-10T19:28:36Z</time>
      </trkpt>
      <trkpt lat="59.9395942" lon="17.6557616">
        <ele>34.7449</ele>
        <time>2014-06-10T19:28:37Z</time>
      </trkpt>
      <trkpt lat="59.9396192" lon="17.6558799">
        <ele>34.7449</ele>
        <time>2014-06-10T19:28:38Z</time>
      </trkpt>
      <trkpt lat="59.9396448" lon="17.6559991">
        <ele>34.7449</ele>
        <time>2014-06-10T19:28:39Z</time>
      </trkpt>
      <trkpt lat="59.9396699" lon="17.656119">
        <ele>34.7449</ele>
        <time>2014-06-10T19:28:40Z</time>
      </trkpt>
      <trkpt lat="59.9396943" lon="17.6562406">
        <ele>34.7449</ele>
        <time>2014-06-10T19:28:41Z</time>
      </trkpt>
      <trkpt lat="59.9397182" lon="17.656364">
        <ele>34.2642</ele>
        <time>2014-06-10T19:28:42Z</time>
      </trkpt>
      <trkpt lat="59.9397432" lon="17.6564883">
        <ele>34.2642</ele>
        <time>2014-06-10T19:28:43Z</time>
      </trkpt>
      <trkpt lat="59.9397688" lon="17.6566127">
        <ele>34.2642</ele>
        <time>2014-06-10T19:28:44Z</time>
      </trkpt>
      <trkpt lat="59.9397945" lon="17.6567374">
        <ele>34.2642</ele>
        <time>2014-06-10T19:28:45Z</time>
      </trkpt>
      <trkpt lat="59.9398195" lon="17.6568628">
        <ele>34.2642</ele>
        <time>2014-06-10T19:28:46Z</time>
      </trkpt>
      <trkpt lat="59.9398442" lon="17.6569892">
        <ele>34.2642</ele>
        <time>2014-06-10T19:28:47Z</time>
      </trkpt>
      <trkpt lat="59.9398698" lon="17.6571162">
        <ele>34.2642</ele>
        <time>2014-06-10T19:28:48Z</time>
      </trkpt>
      <trkpt lat="59.9398957" lon="17.6572441">
        <ele>33.7834</ele>
        <time>2014-06-10T19:28:49Z</time>
      </trkpt>
      <trkpt lat="59.9399216" lon="17.6573728">
        <ele>33.7834</ele>
        <time>2014-06-10T19:28:50Z</time>
      </trkpt>
      <trkpt lat="59.9399475" lon="17.6575029">
        <ele>33.7834</ele>
        <time>2014-06-10T19:28:51Z</time>
      </trkpt>
      <trkpt lat="59.939974" lon="17.6576345">
        <ele>33.3029</ele>
        <time>2014-06-10T19:28:52Z</time>
      </trkpt>
      <trkpt lat="59.9400018" lon="17.6577667">
        <ele>33.3029</ele>
        <time>2014-06-10T19:28:53Z</time>
      </trkpt>
      <trkpt lat="59.9400304" lon="17.6578998">
        <ele>33.3029</ele>
        <time>2014-06-10T19:28:54Z</time>
      </trkpt>
      <trkpt lat="59.9400584" lon="17.6580341">
        <ele>33.3029</ele>
        <time>2014-06-10T19:28:55Z</time>
      </trkpt>
      <trkpt lat="59.9400867" lon="17.65817">
        <ele>32.8223</ele>
        <time>2014-06-10T19:28:56Z</time>
      </trkpt>
      <trkpt lat="59.9401164" lon="17.6583071">
        <ele>32.8223</ele>
        <time>2014-06-10T19:28:57Z</time>
      </trkpt>
      <trkpt lat="59.9401473" lon="17.6584456">
        <ele>32.3416</ele>
        <time>2014-06-10T19:28:58Z</time>
      </trkpt>
      <trkpt lat="59.9401789" lon="17.6585847">
        <ele>32.3416</ele>
        <time>2014-06-10T19:28:59Z</time>
      </trkpt>
      <trkpt lat="59.940211" lon="17.6587245">
        <ele>32.3416</ele>
        <time>2014-06-10T19:29:00Z</time>
      </trkpt>
      <trkpt lat="59.9402436" lon="17.6588639">
        <ele>32.3416</ele>
        <time>2014-06-10T19:29:01Z</time>
      </trkpt>
      <trkpt lat="59.9402747" lon="17.6590043">
        <ele>32.3416</ele>
        <time>2014-06-10T19:29:02Z</time>
      </trkpt>
      <trkpt lat="59.940302" lon="17.6591451">
        <ele>32.3416</ele>
        <time>2014-06-10T19:29:03Z</time>
      </trkpt>
      <trkpt lat="59.940326" lon="17.659284">
        <ele>32.3416</ele>
        <time>2014-06-10T19:29:04Z</time>
      </trkpt>
      <trkpt lat="59.9403475" lon="17.6594202">
        <ele>32.3416</ele>
        <time>2014-06-10T19:29:05Z</time>
      </trkpt>
      <trkpt lat="59.940368" lon="17.6595523">
        <ele>32.8223</ele>
        <time>2014-06-10T19:29:06Z</time>
      </trkpt>
      <trkpt lat="59.940389" lon="17.6596766">
        <ele>32.8223</ele>
        <time>2014-06-10T19:29:07Z</time>
      </trkpt>
      <trkpt lat="59.9404113" lon="17.6597921">
        <ele>33.3029</ele>
        <time>2014-06-10T19:29:08Z</time>
      </trkpt>
      <trkpt lat="59.9404375" lon="17.6599067">
        <ele>32.8223</ele>
        <time>2014-06-10T19:29:09Z</time>
      </trkpt>
      <trkpt lat="59.940467" lon="17.6600206">
        <ele>32.3416</ele>
        <time>2014-06-10T19:29:10Z</time>
      </trkpt>
      <trkpt lat="59.9404972" lon="17.6601314">
        <ele>32.3416</ele>
        <time>2014-06-10T19:29:11Z</time>
      </trkpt>
      <trkpt lat="59.9405263" lon="17.6602392">
        <ele>31.8607</ele>
        <time>2014-06-10T19:29:12Z</time>
      </trkpt>
      <trkpt lat="59.940551" lon="17.6603494">
        <ele>31.8607</ele>
        <time>2014-06-10T19:29:13Z</time>
      </trkpt>
      <trkpt lat="59.9405506" lon="17.6604974">
        <ele>31.8607</ele>
        <time>2014-06-10T19:29:14Z</time>
      </trkpt>
      <trkpt lat="59.9405447" lon="17.6606226">
        <ele>31.8607</ele>
        <time>2014-06-10T19:29:15Z</time>
      </trkpt>
      <trkpt lat="59.9405198" lon="17.6607489">
        <ele>31.8607</ele>
        <time>2014-06-10T19:29:16Z</time>
      </trkpt>
      <trkpt lat="59.9404863" lon="17.6608709">
        <ele>31.8607</ele>
        <time>2014-06-10T19:29:17Z</time>
      </trkpt>
      <trkpt lat="59.9404558" lon="17.660993">
        <ele>31.3801</ele>
        <time>2014-06-10T19:29:18Z</time>
      </trkpt>
      <trkpt lat="59.9404372" lon="17.6611255">
        <ele>31.8607</ele>
        <time>2014-06-10T19:29:19Z</time>
      </trkpt>
      <trkpt lat="59.9404272" lon="17.661261">
        <ele>31.3801</ele>
        <time>2014-06-10T19:29:20Z</time>
      </trkpt>
      <trkpt lat="59.9404215" lon="17.6613934">
        <ele>31.3801</ele>
        <time>2014-06-10T19:29:21Z</time>
      </trkpt>
      <trkpt lat="59.9404348" lon="17.6615252">
        <ele>32.8223</ele>
        <time>2014-06-10T19:29:22Z</time>
      </trkpt>
      <trkpt lat="59.9404475" lon="17.6616553">
        <ele>32.3416</ele>
        <time>2014-06-10T19:29:23Z</time>
      </trkpt>
      <trkpt lat="59.9404717" lon="17.6617809">
        <ele>32.3416</ele>
        <time>2014-06-10T19:29:24Z</time>
      </trkpt>
      <trkpt lat="59.9405107" lon="17.6618931">
        <ele>32.8223</ele>
        <time>2014-06-10T19:29:25Z</time>
      </trkpt>
      <trkpt lat="59.9405597" lon="17.6619895">
        <ele>33.3029</ele>
        <time>2014-06-10T19:29:26Z</time>
      </trkpt>
      <trkpt lat="59.9406137" lon="17.6620698">
        <ele>33.3029</ele>
        <time>2014-06-10T19:29:27Z</time>
      </trkpt>
      <trkpt lat="59.9406743" lon="17.6621284">
        <ele>33.3029</ele>
        <time>2014-06-10T19:29:28Z</time>
      </trkpt>
      <trkpt lat="59.9407392" lon="17.6621649">
        <ele>33.3029</ele>
        <time>2014-06-10T19:29:29Z</time>
      </trkpt>
      <trkpt lat="59.9408064" lon="17.6621854">
        <ele>33.3029</ele>
        <time>2014-06-10T19:29:30Z</time>
      </trkpt>
      <trkpt lat="59.9408722" lon="17.6621962">
        <ele>32.8223</ele>
        <time>2014-06-10T19:29:31Z</time>
      </trkpt>
      <trkpt lat="59.9409393" lon="17.662207">
        <ele>32.8223</ele>
        <time>2014-06-10T19:29:32Z</time>
      </trkpt>
      <trkpt lat="59.9410094" lon="17.662221">
        <ele>32.8223</ele>
        <time>2014-06-10T19:29:33Z</time>
      </trkpt>
      <trkpt lat="59.9410783" lon="17.6622429">
        <ele>33.3029</ele>
        <time>2014-06-10T19:29:34Z</time>
      </trkpt>
      <trkpt lat="59.9411467" lon="17.6622813">
        <ele>33.3029</ele>
        <time>2014-06-10T19:29:35Z</time>
      </trkpt>
      <trkpt lat="59.9412129" lon="17.6623269">
        <ele>33.7834</ele>
        <time>2014-06-10T19:29:36Z</time>
      </trkpt>
      <trkpt lat="59.9412773" lon="17.6623761">
        <ele>33.7834</ele>
        <time>2014-06-10T19:29:37Z</time>
      </trkpt>
      <trkpt lat="59.9413404" lon="17.6624308">
        <ele>33.7834</ele>
        <time>2014-06-10T19:29:38Z</time>
      </trkpt>
      <trkpt lat="59.9414015" lon="17.6624911">
        <ele>33.7834</ele>
        <time>2014-06-10T19:29:39Z</time>
      </trkpt>
      <trkpt lat="59.9414605" lon="17.6625581">
        <ele>33.7834</ele>
        <time>2014-06-10T19:29:40Z</time>
      </trkpt>
      <trkpt lat="59.9415166" lon="17.6626319">
        <ele>33.7834</ele>
        <time>2014-06-10T19:29:41Z</time>
      </trkpt>
      <trkpt lat="59.9415689" lon="17.6627127">
        <ele>33.7834</ele>
        <time>2014-06-10T19:29:42Z</time>
      </trkpt>
      <trkpt lat="59.9416184" lon="17.662797">
        <ele>33.7834</ele>
        <time>2014-06-10T19:29:43Z</time>
      </trkpt>
      <trkpt lat="59.9416666" lon="17.6628845">
        <ele>33.7834</ele>
        <time>2014-06-10T19:29:44Z</time>
      </trkpt>
      <trkpt lat="59.9417135" lon="17.6629737">
        <ele>33.7834</ele>
        <time>2014-06-10T19:29:45Z</time>
      </trkpt>
      <trkpt lat="59.9417606" lon="17.6630604">
        <ele>33.7834</ele>
        <time>2014-06-10T19:29:46Z</time>
      </trkpt>
      <trkpt lat="59.941808" lon="17.6631436">
        <ele>33.3029</ele>
        <time>2014-06-10T19:29:47Z</time>
      </trkpt>
      <trkpt lat="59.941855" lon="17.6632265">
        <ele>33.3029</ele>
        <time>2014-06-10T19:29:48Z</time>
      </trkpt>
      <trkpt lat="59.9419034" lon="17.6633099">
        <ele>33.3029</ele>
        <time>2014-06-10T19:29:49Z</time>
      </trkpt>
      <trkpt lat="59.9419528" lon="17.6633919">
        <ele>32.8223</ele>
        <time>2014-06-10T19:29:50Z</time>
      </trkpt>
      <trkpt lat="59.9420035" lon="17.6634744">
        <ele>33.3029</ele>
        <time>2014-06-10T19:29:51Z</time>
      </trkpt>
      <trkpt lat="59.9420543" lon="17.6635576">
        <ele>32.8223</ele>
        <time>2014-06-10T19:29:52Z</time>
      </trkpt>
      <trkpt lat="59.9421075" lon="17.6636389">
        <ele>32.8223</ele>
        <time>2014-06-10T19:29:53Z</time>
      </trkpt>
      <trkpt lat="59.9421614" lon="17.6637197">
        <ele>32.8223</ele>
        <time>2014-06-10T19:29:54Z</time>
      </trkpt>
      <trkpt lat="59.9422155" lon="17.6638">
        <ele>32.8223</ele>
        <time>2014-06-10T19:29:55Z</time>
      </trkpt>
      <trkpt lat="59.9422704" lon="17.6638788">
        <ele>33.3029</ele>
        <time>2014-06-10T19:29:56Z</time>
      </trkpt>
      <trkpt lat="59.9423262" lon="17.6639585">
        <ele>32.8223</ele>
        <time>2014-06-10T19:29:57Z</time>
      </trkpt>
      <trkpt lat="59.9423832" lon="17.6640388">
        <ele>32.8223</ele>
        <time>2014-06-10T19:29:58Z</time>
      </trkpt>
      <trkpt lat="59.9424412" lon="17.664116">
        <ele>32.8223</ele>
        <time>2014-06-10T19:29:59Z</time>
      </trkpt>
      <trkpt lat="59.9425002" lon="17.6641903">
        <ele>32.8223</ele>
        <time>2014-06-10T19:30:00Z</time>
      </trkpt>
      <trkpt lat="59.9425599" lon="17.6642645">
        <ele>32.8223</ele>
        <time>2014-06-10T19:30:01Z</time>
      </trkpt>
      <trkpt lat="59.9426208" lon="17.6643397">
        <ele>32.8223</ele>
        <time>2014-06-10T19:30:02Z</time>
      </trkpt>
      <trkpt lat="59.9426827" lon="17.6644139">
        <ele>32.8223</ele>
        <time>2014-06-10T19:30:03Z</time>
      </trkpt>
      <trkpt lat="59.9427458" lon="17.6644858">
        <ele>32.3416</ele>
        <time>2014-06-10T19:30:04Z</time>
      </trkpt>
      <trkpt lat="59.9428095" lon="17.6645551">
        <ele>32.3416</ele>
        <time>2014-06-10T19:30:05Z</time>
      </trkpt>
      <trkpt lat="59.942872" lon="17.6646222">
        <ele>32.3416</ele>
        <time>2014-06-10T19:30:06Z</time>
      </trkpt>
      <trkpt lat="59.9429332" lon="17.6646876">
        <ele>31.8607</ele>
        <time>2014-06-10T19:30:07Z</time>
      </trkpt>
      <trkpt lat="59.9429939" lon="17.6647488">
        <ele>31.8607</ele>
        <time>2014-06-10T19:30:08Z</time>
      </trkpt>
      <trkpt lat="59.9430547" lon="17.6648079">
        <ele>31.8607</ele>
        <time>2014-06-10T19:30:09Z</time>
      </trkpt>
      <trkpt lat="59.9431158" lon="17.6648661">
        <ele>31.8607</ele>
        <time>2014-06-10T19:30:10Z</time>
      </trkpt>
      <trkpt lat="59.9431779" lon="17.6649221">
        <ele>31.3801</ele>
        <time>2014-06-10T19:30:11Z</time>
      </trkpt>
      <trkpt lat="59.9432416" lon="17.6649774">
        <ele>31.3801</ele>
        <time>2014-06-10T19:30:12Z</time>
      </trkpt>
      <trkpt lat="59.9433058" lon="17.6650339">
        <ele>31.3801</ele>
        <time>2014-06-10T19:30:13Z</time>
      </trkpt>
      <trkpt lat="59.9433711" lon="17.6650897">
        <ele>31.3801</ele>
        <time>2014-06-10T19:30:14Z</time>
      </trkpt>
      <trkpt lat="59.9434375" lon="17.6651419">
        <ele>31.3801</ele>
        <time>2014-06-10T19:30:15Z</time>
      </trkpt>
      <trkpt lat="59.943505" lon="17.6651935">
        <ele>30.8995</ele>
        <time>2014-06-10T19:30:16Z</time>
      </trkpt>
      <trkpt lat="59.9435731" lon="17.6652452">
        <ele>30.8995</ele>
        <time>2014-06-10T19:30:17Z</time>
      </trkpt>
      <trkpt lat="59.9436416" lon="17.6652939">
        <ele>30.8995</ele>
        <time>2014-06-10T19:30:18Z</time>
      </trkpt>
      <trkpt lat="59.9437109" lon="17.6653393">
        <ele>30.8995</ele>
        <time>2014-06-10T19:30:19Z</time>
      </trkpt>
      <trkpt lat="59.9437813" lon="17.6653841">
        <ele>30.4188</ele>
        <time>2014-06-10T19:30:20Z</time>
      </trkpt>
      <trkpt lat="59.9438523" lon="17.6654296">
        <ele>30.4188</ele>
        <time>2014-06-10T19:30:21Z</time>
      </trkpt>
      <trkpt lat="59.9439244" lon="17.6654736">
        <ele>30.4188</ele>
        <time>2014-06-10T19:30:22Z</time>
      </trkpt>
      <trkpt lat="59.9439977" lon="17.6655141">
        <ele>30.4188</ele>
        <time>2014-06-10T19:30:23Z</time>
      </trkpt>
      <trkpt lat="59.9440714" lon="17.6655524">
        <ele>29.9381</ele>
        <time>2014-06-10T19:30:24Z</time>
      </trkpt>
      <trkpt lat="59.9441456" lon="17.6655879">
        <ele>29.9381</ele>
        <time>2014-06-10T19:30:25Z</time>
      </trkpt>
      <trkpt lat="59.9442207" lon="17.6656213">
        <ele>29.9381</ele>
        <time>2014-06-10T19:30:26Z</time>
      </trkpt>
      <trkpt lat="59.9442965" lon="17.6656539">
        <ele>29.4575</ele>
        <time>2014-06-10T19:30:27Z</time>
      </trkpt>
      <trkpt lat="59.9443724" lon="17.6656846">
        <ele>29.4575</ele>
        <time>2014-06-10T19:30:28Z</time>
      </trkpt>
      <trkpt lat="59.9444481" lon="17.6657141">
        <ele>29.4575</ele>
        <time>2014-06-10T19:30:29Z</time>
      </trkpt>
      <trkpt lat="59.9445242" lon="17.6657426">
        <ele>29.4575</ele>
        <time>2014-06-10T19:30:30Z</time>
      </trkpt>
      <trkpt lat="59.9446001" lon="17.6657701">
        <ele>29.4575</ele>
        <time>2014-06-10T19:30:31Z</time>
      </trkpt>
      <trkpt lat="59.9446755" lon="17.6657979">
        <ele>28.9769</ele>
        <time>2014-06-10T19:30:32Z</time>
      </trkpt>
      <trkpt lat="59.9447511" lon="17.6658254">
        <ele>28.9769</ele>
        <time>2014-06-10T19:30:33Z</time>
      </trkpt>
      <trkpt lat="59.944827" lon="17.6658514">
        <ele>28.9769</ele>
        <time>2014-06-10T19:30:34Z</time>
      </trkpt>
      <trkpt lat="59.9449018" lon="17.6658793">
        <ele>28.9769</ele>
        <time>2014-06-10T19:30:35Z</time>
      </trkpt>
      <trkpt lat="59.944976" lon="17.6659093">
        <ele>28.9769</ele>
        <time>2014-06-10T19:30:36Z</time>
      </trkpt>
      <trkpt lat="59.9450503" lon="17.6659388">
        <ele>28.9769</ele>
        <time>2014-06-10T19:30:37Z</time>
      </trkpt>
      <trkpt lat="59.9451245" lon="17.6659688">
        <ele>28.9769</ele>
        <time>2014-06-10T19:30:38Z</time>
      </trkpt>
      <trkpt lat="59.9451985" lon="17.6659989">
        <ele>28.9769</ele>
        <time>2014-06-10T19:30:39Z</time>
      </trkpt>
      <trkpt lat="59.9452726" lon="17.6660282">
        <ele>28.4962</ele>
        <time>2014-06-10T19:30:40Z</time>
      </trkpt>
      <trkpt lat="59.9453468" lon="17.6660554">
        <ele>28.4962</ele>
        <time>2014-06-10T19:30:41Z</time>
      </trkpt>
      <trkpt lat="59.9454209" lon="17.6660807">
        <ele>28.4962</ele>
        <time>2014-06-10T19:30:42Z</time>
      </trkpt>
      <trkpt lat="59.9454952" lon="17.6661063">
        <ele>28.4962</ele>
        <time>2014-06-10T19:30:43Z</time>
      </trkpt>
      <trkpt lat="59.9455694" lon="17.6661326">
        <ele>28.4962</ele>
        <time>2014-06-10T19:30:44Z</time>
      </trkpt>
      <trkpt lat="59.9456434" lon="17.6661586">
        <ele>28.4962</ele>
        <time>2014-06-10T19:30:45Z</time>
      </trkpt>
      <trkpt lat="59.9457175" lon="17.6661859">
        <ele>28.4962</ele>
        <time>2014-06-10T19:30:46Z</time>
      </trkpt>
      <trkpt lat="59.9457915" lon="17.6662149">
        <ele>28.0155</ele>
        <time>2014-06-10T19:30:47Z</time>
      </trkpt>
      <trkpt lat="59.9458652" lon="17.6662451">
        <ele>28.0155</ele>
        <time>2014-06-10T19:30:48Z</time>
      </trkpt>
      <trkpt lat="59.9459388" lon="17.6662761">
        <ele>28.0155</ele>
        <time>2014-06-10T19:30:49Z</time>
      </trkpt>
      <trkpt lat="59.9460119" lon="17.6663064">
        <ele>28.0155</ele>
        <time>2014-06-10T19:30:50Z</time>
      </trkpt>
      <trkpt lat="59.9460857" lon="17.6663346">
        <ele>28.0155</ele>
        <time>2014-06-10T19:30:51Z</time>
      </trkpt>
      <trkpt lat="59.9461599" lon="17.6663635">
        <ele>28.0155</ele>
        <time>2014-06-10T19:30:52Z</time>
      </trkpt>
      <trkpt lat="59.9462336" lon="17.6663958">
        <ele>28.0155</ele>
        <time>2014-06-10T19:30:53Z</time>
      </trkpt>
      <trkpt lat="59.9463061" lon="17.6664372">
        <ele>28.0155</ele>
        <time>2014-06-10T19:30:54Z</time>
      </trkpt>
      <trkpt lat="59.9463779" lon="17.6664878">
        <ele>27.5349</ele>
        <time>2014-06-10T19:30:55Z</time>
      </trkpt>
      <trkpt lat="59.9464491" lon="17.6665351">
        <ele>27.5349</ele>
        <time>2014-06-10T19:30:56Z</time>
      </trkpt>
      <trkpt lat="59.9465206" lon="17.6665687">
        <ele>27.5349</ele>
        <time>2014-06-10T19:30:57Z</time>
      </trkpt>
      <trkpt lat="59.9465915" lon="17.6665895">
        <ele>27.5349</ele>
        <time>2014-06-10T19:30:58Z</time>
      </trkpt>
      <trkpt lat="59.9466613" lon="17.6666008">
        <ele>27.5349</ele>
        <time>2014-06-10T19:30:59Z</time>
      </trkpt>
      <trkpt lat="59.9467299" lon="17.6666072">
        <ele>27.5349</ele>
        <time>2014-06-10T19:31:00Z</time>
      </trkpt>
      <trkpt lat="59.9467991" lon="17.6666186">
        <ele>27.5349</ele>
        <time>2014-06-10T19:31:01Z</time>
      </trkpt>
      <trkpt lat="59.9468687" lon="17.6666411">
        <ele>27.5349</ele>
        <time>2014-06-10T19:31:02Z</time>
      </trkpt>
      <trkpt lat="59.9469384" lon="17.6666714">
        <ele>27.5349</ele>
        <time>2014-06-10T19:31:03Z</time>
      </trkpt>
      <trkpt lat="59.947008" lon="17.6667029">
        <ele>27.5349</ele>
        <time>2014-06-10T19:31:04Z</time>
      </trkpt>
      <trkpt lat="59.9470774" lon="17.6667323">
        <ele>27.5349</ele>
        <time>2014-06-10T19:31:05Z</time>
      </trkpt>
      <trkpt lat="59.9471466" lon="17.6667631">
        <ele>27.5349</ele>
        <time>2014-06-10T19:31:06Z</time>
      </trkpt>
      <trkpt lat="59.9472157" lon="17.666797">
        <ele>27.5349</ele>
        <time>2014-06-10T19:31:07Z</time>
      </trkpt>
      <trkpt lat="59.9472852" lon="17.6668301">
        <ele>27.5349</ele>
        <time>2014-06-10T19:31:08Z</time>
      </trkpt>
      <trkpt lat="59.9473545" lon="17.6668618">
        <ele>27.5349</ele>
        <time>2014-06-10T19:31:09Z</time>
      </trkpt>
      <trkpt lat="59.9474232" lon="17.6668947">
        <ele>27.0543</ele>
        <time>2014-06-10T19:31:10Z</time>
      </trkpt>
      <trkpt lat="59.9474921" lon="17.6669288">
        <ele>27.0543</ele>
        <time>2014-06-10T19:31:11Z</time>
      </trkpt>
      <trkpt lat="59.9475618" lon="17.6669628">
        <ele>27.0543</ele>
        <time>2014-06-10T19:31:12Z</time>
      </trkpt>
      <trkpt lat="59.9476326" lon="17.666996">
        <ele>27.0543</ele>
        <time>2014-06-10T19:31:13Z</time>
      </trkpt>
      <trkpt lat="59.9477038" lon="17.6670293">
        <ele>27.0543</ele>
        <time>2014-06-10T19:31:14Z</time>
      </trkpt>
      <trkpt lat="59.9477755" lon="17.6670637">
        <ele>27.0543</ele>
        <time>2014-06-10T19:31:15Z</time>
      </trkpt>
      <trkpt lat="59.9478477" lon="17.6670996">
        <ele>27.0543</ele>
        <time>2014-06-10T19:31:16Z</time>
      </trkpt>
      <trkpt lat="59.9479197" lon="17.6671381">
        <ele>27.0543</ele>
        <time>2014-06-10T19:31:17Z</time>
      </trkpt>
      <trkpt lat="59.9479911" lon="17.6671773">
        <ele>26.5736</ele>
        <time>2014-06-10T19:31:18Z</time>
      </trkpt>
      <trkpt lat="59.9480617" lon="17.6672151">
        <ele>26.5736</ele>
        <time>2014-06-10T19:31:19Z</time>
      </trkpt>
      <trkpt lat="59.9481321" lon="17.667253">
        <ele>26.5736</ele>
        <time>2014-06-10T19:31:20Z</time>
      </trkpt>
      <trkpt lat="59.9482025" lon="17.6672915">
        <ele>26.5736</ele>
        <time>2014-06-10T19:31:21Z</time>
      </trkpt>
      <trkpt lat="59.9482734" lon="17.6673302">
        <ele>26.5736</ele>
        <time>2014-06-10T19:31:22Z</time>
      </trkpt>
      <trkpt lat="59.9483445" lon="17.6673699">
        <ele>26.5736</ele>
        <time>2014-06-10T19:31:23Z</time>
      </trkpt>
      <trkpt lat="59.9484163" lon="17.6674096">
        <ele>26.5736</ele>
        <time>2014-06-10T19:31:24Z</time>
      </trkpt>
      <trkpt lat="59.9484884" lon="17.6674488">
        <ele>26.5736</ele>
        <time>2014-06-10T19:31:25Z</time>
      </trkpt>
      <trkpt lat="59.9485608" lon="17.6674892">
        <ele>26.5736</ele>
        <time>2014-06-10T19:31:26Z</time>
      </trkpt>
      <trkpt lat="59.948634" lon="17.6675303">
        <ele>26.5736</ele>
        <time>2014-06-10T19:31:27Z</time>
      </trkpt>
      <trkpt lat="59.948708" lon="17.6675717">
        <ele>26.5736</ele>
        <time>2014-06-10T19:31:28Z</time>
      </trkpt>
      <trkpt lat="59.9487828" lon="17.6676147">
        <ele>26.5736</ele>
        <time>2014-06-10T19:31:29Z</time>
      </trkpt>
      <trkpt lat="59.9488585" lon="17.6676587">
        <ele>26.5736</ele>
        <time>2014-06-10T19:31:30Z</time>
      </trkpt>
      <trkpt lat="59.9489349" lon="17.6677038">
        <ele>26.5736</ele>
        <time>2014-06-10T19:31:31Z</time>
      </trkpt>
      <trkpt lat="59.949012" lon="17.6677488">
        <ele>26.0929</ele>
        <time>2014-06-10T19:31:32Z</time>
      </trkpt>
      <trkpt lat="59.9490892" lon="17.6677923">
        <ele>26.0929</ele>
        <time>2014-06-10T19:31:33Z</time>
      </trkpt>
      <trkpt lat="59.9491663" lon="17.6678358">
        <ele>26.0929</ele>
        <time>2014-06-10T19:31:34Z</time>
      </trkpt>
      <trkpt lat="59.9492432" lon="17.6678797">
        <ele>26.5736</ele>
        <time>2014-06-10T19:31:35Z</time>
      </trkpt>
      <trkpt lat="59.9493199" lon="17.6679238">
        <ele>26.0929</ele>
        <time>2014-06-10T19:31:36Z</time>
      </trkpt>
      <trkpt lat="59.9493945" lon="17.6679658">
        <ele>26.5736</ele>
        <time>2014-06-10T19:31:37Z</time>
      </trkpt>
      <trkpt lat="59.9494665" lon="17.6680041">
        <ele>26.0929</ele>
        <time>2014-06-10T19:31:38Z</time>
      </trkpt>
      <trkpt lat="59.9495372" lon="17.6680419">
        <ele>26.0929</ele>
        <time>2014-06-10T19:31:39Z</time>
      </trkpt>
      <trkpt lat="59.9496072" lon="17.6680794">
        <ele>26.0929</ele>
        <time>2014-06-10T19:31:40Z</time>
      </trkpt>
      <trkpt lat="59.9496772" lon="17.6681155">
        <ele>26.0929</ele>
        <time>2014-06-10T19:31:41Z</time>
      </trkpt>
      <trkpt lat="59.9497472" lon="17.6681508">
        <ele>26.0929</ele>
        <time>2014-06-10T19:31:42Z</time>
      </trkpt>
      <trkpt lat="59.9498173" lon="17.6681844">
        <ele>26.0929</ele>
        <time>2014-06-10T19:31:43Z</time>
      </trkpt>
      <trkpt lat="59.9498872" lon="17.6682164">
        <ele>26.0929</ele>
        <time>2014-06-10T19:31:44Z</time>
      </trkpt>
      <trkpt lat="59.9499565" lon="17.668247">
        <ele>26.0929</ele>
        <time>2014-06-10T19:31:45Z</time>
      </trkpt>
      <trkpt lat="59.9500259" lon="17.6682745">
        <ele>26.0929</ele>
        <time>2014-06-10T19:31:46Z</time>
      </trkpt>
      <trkpt lat="59.9500953" lon="17.668299">
        <ele>26.0929</ele>
        <time>2014-06-10T19:31:47Z</time>
      </trkpt>
      <trkpt lat="59.9501652" lon="17.6683186">
        <ele>26.0929</ele>
        <time>2014-06-10T19:31:48Z</time>
      </trkpt>
      <trkpt lat="59.9502355" lon="17.668334">
        <ele>26.0929</ele>
        <time>2014-06-10T19:31:49Z</time>
      </trkpt>
      <trkpt lat="59.9503062" lon="17.6683474">
        <ele>26.0929</ele>
        <time>2014-06-10T19:31:50Z</time>
      </trkpt>
      <trkpt lat="59.9503782" lon="17.668357">
        <ele>26.0929</ele>
        <time>2014-06-10T19:31:51Z</time>
      </trkpt>
      <trkpt lat="59.9504512" lon="17.6683622">
        <ele>26.0929</ele>
        <time>2014-06-10T19:31:52Z</time>
      </trkpt>
      <trkpt lat="59.9505254" lon="17.6683629">
        <ele>26.0929</ele>
        <time>2014-06-10T19:31:53Z</time>
      </trkpt>
      <trkpt lat="59.9506" lon="17.6683608">
        <ele>26.0929</ele>
        <time>2014-06-10T19:31:54Z</time>
      </trkpt>
      <trkpt lat="59.9506749" lon="17.6683569">
        <ele>26.0929</ele>
        <time>2014-06-10T19:31:55Z</time>
      </trkpt>
      <trkpt lat="59.9507505" lon="17.6683486">
        <ele>25.6123</ele>
        <time>2014-06-10T19:31:56Z</time>
      </trkpt>
      <trkpt lat="59.9508269" lon="17.6683332">
        <ele>25.6123</ele>
        <time>2014-06-10T19:31:57Z</time>
      </trkpt>
      <trkpt lat="59.950904" lon="17.6683135">
        <ele>25.6123</ele>
        <time>2014-06-10T19:31:58Z</time>
      </trkpt>
      <trkpt lat="59.9509818" lon="17.6682911">
        <ele>25.1317</ele>
        <time>2014-06-10T19:31:59Z</time>
      </trkpt>
      <trkpt lat="59.95106" lon="17.6682677">
        <ele>25.1317</ele>
        <time>2014-06-10T19:32:00Z</time>
      </trkpt>
      <trkpt lat="59.9511376" lon="17.668242">
        <ele>25.1317</ele>
        <time>2014-06-10T19:32:01Z</time>
      </trkpt>
      <trkpt lat="59.9512143" lon="17.6682165">
        <ele>24.651</ele>
        <time>2014-06-10T19:32:02Z</time>
      </trkpt>
      <trkpt lat="59.9512903" lon="17.6681907">
        <ele>24.651</ele>
        <time>2014-06-10T19:32:03Z</time>
      </trkpt>
      <trkpt lat="59.9513658" lon="17.6681647">
        <ele>24.1703</ele>
        <time>2014-06-10T19:32:04Z</time>
      </trkpt>
      <trkpt lat="59.9514406" lon="17.668143">
        <ele>24.1703</ele>
        <time>2014-06-10T19:32:05Z</time>
      </trkpt>
      <trkpt lat="59.9515145" lon="17.6681285">
        <ele>24.1703</ele>
        <time>2014-06-10T19:32:06Z</time>
      </trkpt>
      <trkpt lat="59.9515872" lon="17.6681325">
        <ele>24.1703</ele>
        <time>2014-06-10T19:32:07Z</time>
      </trkpt>
      <trkpt lat="59.9516564" lon="17.668175">
        <ele>24.1703</ele>
        <time>2014-06-10T19:32:08Z</time>
      </trkpt>
      <trkpt lat="59.9517142" lon="17.6682626">
        <ele>23.6896</ele>
        <time>2014-06-10T19:32:09Z</time>
      </trkpt>
      <trkpt lat="59.951759" lon="17.668381">
        <ele>23.6896</ele>
        <time>2014-06-10T19:32:10Z</time>
      </trkpt>
      <trkpt lat="59.9517939" lon="17.6685122">
        <ele>23.6896</ele>
        <time>2014-06-10T19:32:11Z</time>
      </trkpt>
      <trkpt lat="59.9518234" lon="17.6686449">
        <ele>23.6896</ele>
        <time>2014-06-10T19:32:12Z</time>
      </trkpt>
      <trkpt lat="59.9518465" lon="17.668778">
        <ele>23.6896</ele>
        <time>2014-06-10T19:32:13Z</time>
      </trkpt>
      <trkpt lat="59.9518602" lon="17.6689123">
        <ele>23.6896</ele>
        <time>2014-06-10T19:32:14Z</time>
      </trkpt>
      <trkpt lat="59.9518642" lon="17.6690464">
        <ele>24.1703</ele>
        <time>2014-06-10T19:32:15Z</time>
      </trkpt>
      <trkpt lat="59.9518601" lon="17.669178">
        <ele>24.1703</ele>
        <time>2014-06-10T19:32:16Z</time>
      </trkpt>
      <trkpt lat="59.951853" lon="17.6693079">
        <ele>24.1703</ele>
        <time>2014-06-10T19:32:17Z</time>
      </trkpt>
      <trkpt lat="59.9518462" lon="17.669439">
        <ele>24.1703</ele>
        <time>2014-06-10T19:32:18Z</time>
      </trkpt>
      <trkpt lat="59.9518391" lon="17.6695715">
        <ele>24.1703</ele>
        <time>2014-06-10T19:32:19Z</time>
      </trkpt>
      <trkpt lat="59.951832" lon="17.6697038">
        <ele>24.1703</ele>
        <time>2014-06-10T19:32:20Z</time>
      </trkpt>
      <trkpt lat="59.9518255" lon="17.6698354">
        <ele>24.651</ele>
        <time>2014-06-10T19:32:21Z</time>
      </trkpt>
      <trkpt lat="59.9518181" lon="17.6699662">
        <ele>24.651</ele>
        <time>2014-06-10T19:32:22Z</time>
      </trkpt>
      <trkpt lat="59.9518088" lon="17.670096">
        <ele>24.651</ele>
        <time>2014-06-10T19:32:23Z</time>
      </trkpt>
      <trkpt lat="59.9517992" lon="17.6702258">
        <ele>24.651</ele>
        <time>2014-06-10T19:32:24Z</time>
      </trkpt>
      <trkpt lat="59.9517898" lon="17.6703552">
        <ele>24.651</ele>
        <time>2014-06-10T19:32:25Z</time>
      </trkpt>
      <trkpt lat="59.95178" lon="17.6704836">
        <ele>24.651</ele>
        <time>2014-06-10T19:32:26Z</time>
      </trkpt>
      <trkpt lat="59.9517705" lon="17.6706109">
        <ele>24.651</ele>
        <time>2014-06-10T19:32:27Z</time>
      </trkpt>
      <trkpt lat="59.9517617" lon="17.6707376">
        <ele>24.651</ele>
        <time>2014-06-10T19:32:28Z</time>
      </trkpt>
      <trkpt lat="59.951756" lon="17.6708619">
        <ele>24.651</ele>
        <time>2014-06-10T19:32:29Z</time>
      </trkpt>
      <trkpt lat="59.9517559" lon="17.670981">
        <ele>25.1317</ele>
        <time>2014-06-10T19:32:30Z</time>
      </trkpt>
      <trkpt lat="59.9517635" lon="17.6710956">
        <ele>25.1317</ele>
        <time>2014-06-10T19:32:31Z</time>
      </trkpt>
      <trkpt lat="59.9517793" lon="17.6712022">
        <ele>25.6123</ele>
        <time>2014-06-10T19:32:32Z</time>
      </trkpt>
      <trkpt lat="59.9518006" lon="17.6712986">
        <ele>25.6123</ele>
        <time>2014-06-10T19:32:33Z</time>
      </trkpt>
      <trkpt lat="59.9518206" lon="17.6713949">
        <ele>26.0929</ele>
        <time>2014-06-10T19:32:34Z</time>
      </trkpt>
      <trkpt lat="59.9518326" lon="17.6714938">
        <ele>26.5736</ele>
        <time>2014-06-10T19:32:35Z</time>
      </trkpt>
      <trkpt lat="59.9518355" lon="17.6715954">
        <ele>26.0929</ele>
        <time>2014-06-10T19:32:36Z</time>
      </trkpt>
      <trkpt lat="59.9518357" lon="17.6717006">
        <ele>26.5736</ele>
        <time>2014-06-10T19:32:37Z</time>
      </trkpt>
      <trkpt lat="59.9518348" lon="17.6718083">
        <ele>26.5736</ele>
        <time>2014-06-10T19:32:38Z</time>
      </trkpt>
      <trkpt lat="59.9518348" lon="17.6719197">
        <ele>26.5736</ele>
        <time>2014-06-10T19:32:39Z</time>
      </trkpt>
      <trkpt lat="59.9518385" lon="17.6720354">
        <ele>26.5736</ele>
        <time>2014-06-10T19:32:40Z</time>
      </trkpt>
      <trkpt lat="59.9518474" lon="17.6721555">
        <ele>26.5736</ele>
        <time>2014-06-10T19:32:41Z</time>
      </trkpt>
      <trkpt lat="59.9518579" lon="17.6722772">
        <ele>26.5736</ele>
        <time>2014-06-10T19:32:42Z</time>
      </trkpt>
      <trkpt lat="59.951869" lon="17.6723975">
        <ele>27.0543</ele>
        <time>2014-06-10T19:32:43Z</time>
      </trkpt>
      <trkpt lat="59.9518812" lon="17.6725177">
        <ele>27.0543</ele>
        <time>2014-06-10T19:32:44Z</time>
      </trkpt>
      <trkpt lat="59.9518923" lon="17.6726358">
        <ele>27.0543</ele>
        <time>2014-06-10T19:32:45Z</time>
      </trkpt>
      <trkpt lat="59.9519053" lon="17.6727507">
        <ele>27.5349</ele>
        <time>2014-06-10T19:32:46Z</time>
      </trkpt>
      <trkpt lat="59.9519191" lon="17.6728649">
        <ele>27.5349</ele>
        <time>2014-06-10T19:32:47Z</time>
      </trkpt>
      <trkpt lat="59.9519325" lon="17.6729813">
        <ele>27.5349</ele>
        <time>2014-06-10T19:32:48Z</time>
      </trkpt>
      <trkpt lat="59.9519477" lon="17.6730989">
        <ele>28.0155</ele>
        <time>2014-06-10T19:32:49Z</time>
      </trkpt>
      <trkpt lat="59.951965" lon="17.673217">
        <ele>28.0155</ele>
        <time>2014-06-10T19:32:50Z</time>
      </trkpt>
      <trkpt lat="59.9519841" lon="17.6733365">
        <ele>28.0155</ele>
        <time>2014-06-10T19:32:51Z</time>
      </trkpt>
      <trkpt lat="59.9520042" lon="17.6734577">
        <ele>28.0155</ele>
        <time>2014-06-10T19:32:52Z</time>
      </trkpt>
      <trkpt lat="59.9520239" lon="17.6735767">
        <ele>28.0155</ele>
        <time>2014-06-10T19:32:53Z</time>
      </trkpt>
      <trkpt lat="59.9520425" lon="17.6736902">
        <ele>28.4962</ele>
        <time>2014-06-10T19:32:54Z</time>
      </trkpt>
      <trkpt lat="59.9520606" lon="17.6737996">
        <ele>28.0155</ele>
        <time>2014-06-10T19:32:55Z</time>
      </trkpt>
      <trkpt lat="59.9520802" lon="17.6739052">
        <ele>28.4962</ele>
        <time>2014-06-10T19:32:56Z</time>
      </trkpt>
      <trkpt lat="59.9521006" lon="17.6740073">
        <ele>28.4962</ele>
        <time>2014-06-10T19:32:57Z</time>
      </trkpt>
      <trkpt lat="59.9521208" lon="17.6741073">
        <ele>28.4962</ele>
        <time>2014-06-10T19:32:58Z</time>
      </trkpt>
      <trkpt lat="59.952141" lon="17.6742059">
        <ele>28.4962</ele>
        <time>2014-06-10T19:32:59Z</time>
      </trkpt>
      <trkpt lat="59.9521615" lon="17.6743031">
        <ele>28.4962</ele>
        <time>2014-06-10T19:33:00Z</time>
      </trkpt>
      <trkpt lat="59.9521828" lon="17.6744006">
        <ele>28.4962</ele>
        <time>2014-06-10T19:33:01Z</time>
      </trkpt>
      <trkpt lat="59.9522032" lon="17.6744995">
        <ele>28.4962</ele>
        <time>2014-06-10T19:33:02Z</time>
      </trkpt>
      <trkpt lat="59.9522211" lon="17.6746003">
        <ele>28.4962</ele>
        <time>2014-06-10T19:33:03Z</time>
      </trkpt>
      <trkpt lat="59.9522368" lon="17.6747006">
        <ele>28.9769</ele>
        <time>2014-06-10T19:33:04Z</time>
      </trkpt>
      <trkpt lat="59.9522506" lon="17.6747963">
        <ele>28.9769</ele>
        <time>2014-06-10T19:33:05Z</time>
      </trkpt>
      <trkpt lat="59.9522643" lon="17.674886">
        <ele>29.4575</ele>
        <time>2014-06-10T19:33:06Z</time>
      </trkpt>
      <trkpt lat="59.9522782" lon="17.6749679">
        <ele>29.9381</ele>
        <time>2014-06-10T19:33:07Z</time>
      </trkpt>
      <trkpt lat="59.9522933" lon="17.6750434">
        <ele>29.9381</ele>
        <time>2014-06-10T19:33:08Z</time>
      </trkpt>
      <trkpt lat="59.9523092" lon="17.6751159">
        <ele>30.4188</ele>
        <time>2014-06-10T19:33:09Z</time>
      </trkpt>
      <trkpt lat="59.9523249" lon="17.6751888">
        <ele>30.4188</ele>
        <time>2014-06-10T19:33:10Z</time>
      </trkpt>
      <trkpt lat="59.9523443" lon="17.6752628">
        <ele>30.4188</ele>
        <time>2014-06-10T19:33:11Z</time>
      </trkpt>
      <trkpt lat="59.952368" lon="17.6753397">
        <ele>30.4188</ele>
        <time>2014-06-10T19:33:12Z</time>
      </trkpt>
      <trkpt lat="59.9523951" lon="17.6754213">
        <ele>29.9381</ele>
        <time>2014-06-10T19:33:13Z</time>
      </trkpt>
      <trkpt lat="59.9524246" lon="17.6755055">
        <ele>29.9381</ele>
        <time>2014-06-10T19:33:14Z</time>
      </trkpt>
      <trkpt lat="59.9524575" lon="17.6755909">
        <ele>29.9381</ele>
        <time>2014-06-10T19:33:15Z</time>
      </trkpt>
      <trkpt lat="59.9524937" lon="17.675679">
        <ele>29.4575</ele>
        <time>2014-06-10T19:33:16Z</time>
      </trkpt>
      <trkpt lat="59.9525335" lon="17.6757746">
        <ele>28.9769</ele>
        <time>2014-06-10T19:33:17Z</time>
      </trkpt>
      <trkpt lat="59.9525752" lon="17.6758769">
        <ele>28.4962</ele>
        <time>2014-06-10T19:33:18Z</time>
      </trkpt>
      <trkpt lat="59.9526191" lon="17.675983">
        <ele>28.4962</ele>
        <time>2014-06-10T19:33:19Z</time>
      </trkpt>
      <trkpt lat="59.952662" lon="17.6760935">
        <ele>28.0155</ele>
        <time>2014-06-10T19:33:20Z</time>
      </trkpt>
      <trkpt lat="59.9527026" lon="17.6762072">
        <ele>28.0155</ele>
        <time>2014-06-10T19:33:21Z</time>
      </trkpt>
      <trkpt lat="59.9527423" lon="17.6763203">
        <ele>28.0155</ele>
        <time>2014-06-10T19:33:22Z</time>
      </trkpt>
      <trkpt lat="59.9527823" lon="17.676432">
        <ele>28.0155</ele>
        <time>2014-06-10T19:33:23Z</time>
      </trkpt>
      <trkpt lat="59.9528248" lon="17.67654">
        <ele>28.0155</ele>
        <time>2014-06-10T19:33:24Z</time>
      </trkpt>
      <trkpt lat="59.9528709" lon="17.6766457">
        <ele>27.5349</ele>
        <time>2014-06-10T19:33:25Z</time>
      </trkpt>
      <trkpt lat="59.9529165" lon="17.6767532">
        <ele>27.5349</ele>
        <time>2014-06-10T19:33:26Z</time>
      </trkpt>
      <trkpt lat="59.9529599" lon="17.6768627">
        <ele>27.5349</ele>
        <time>2014-06-10T19:33:27Z</time>
      </trkpt>
      <trkpt lat="59.9530025" lon="17.6769735">
        <ele>27.5349</ele>
        <time>2014-06-10T19:33:28Z</time>
      </trkpt>
      <trkpt lat="59.9530447" lon="17.6770855">
        <ele>27.5349</ele>
        <time>2014-06-10T19:33:29Z</time>
      </trkpt>
      <trkpt lat="59.9530867" lon="17.6771981">
        <ele>27.5349</ele>
        <time>2014-06-10T19:33:30Z</time>
      </trkpt>
      <trkpt lat="59.9531278" lon="17.6773102">
        <ele>27.5349</ele>
        <time>2014-06-10T19:33:31Z</time>
      </trkpt>
      <trkpt lat="59.9531677" lon="17.6774225">
        <ele>27.5349</ele>
        <time>2014-06-10T19:33:32Z</time>
      </trkpt>
      <trkpt lat="59.9532071" lon="17.6775344">
        <ele>27.5349</ele>
        <time>2014-06-10T19:33:33Z</time>
      </trkpt>
      <trkpt lat="59.9532475" lon="17.6776464">
        <ele>27.5349</ele>
        <time>2014-06-10T19:33:34Z</time>
      </trkpt>
      <trkpt lat="59.9532882" lon="17.6777601">
        <ele>27.5349</ele>
        <time>2014-06-10T19:33:35Z</time>
      </trkpt>
      <trkpt lat="59.9533286" lon="17.6778748">
        <ele>27.5349</ele>
        <time>2014-06-10T19:33:36Z</time>
      </trkpt>
      <trkpt lat="59.9533693" lon="17.6779898">
        <ele>27.5349</ele>
        <time>2014-06-10T19:33:37Z</time>
      </trkpt>
      <trkpt lat="59.9534107" lon="17.6781053">
        <ele>27.5349</ele>
        <time>2014-06-10T19:33:38Z</time>
      </trkpt>
      <trkpt lat="59.9534515" lon="17.6782224">
        <ele>27.5349</ele>
        <time>2014-06-10T19:33:39Z</time>
      </trkpt>
      <trkpt lat="59.9534905" lon="17.678341">
        <ele>27.5349</ele>
        <time>2014-06-10T19:33:40Z</time>
      </trkpt>
      <trkpt lat="59.9535291" lon="17.6784603">
        <ele>27.5349</ele>
        <time>2014-06-10T19:33:41Z</time>
      </trkpt>
      <trkpt lat="59.9535681" lon="17.6785813">
        <ele>27.0543</ele>
        <time>2014-06-10T19:33:42Z</time>
      </trkpt>
      <trkpt lat="59.9536078" lon="17.6787032">
        <ele>27.0543</ele>
        <time>2014-06-10T19:33:43Z</time>
      </trkpt>
      <trkpt lat="59.9536495" lon="17.6788248">
        <ele>27.0543</ele>
        <time>2014-06-10T19:33:44Z</time>
      </trkpt>
      <trkpt lat="59.953693" lon="17.6789462">
        <ele>27.0543</ele>
        <time>2014-06-10T19:33:45Z</time>
      </trkpt>
      <trkpt lat="59.9537362" lon="17.6790692">
        <ele>27.0543</ele>
        <time>2014-06-10T19:33:46Z</time>
      </trkpt>
      <trkpt lat="59.9537784" lon="17.6791932">
        <ele>27.0543</ele>
        <time>2014-06-10T19:33:47Z</time>
      </trkpt>
      <trkpt lat="59.9538202" lon="17.6793191">
        <ele>27.0543</ele>
        <time>2014-06-10T19:33:48Z</time>
      </trkpt>
      <trkpt lat="59.9538623" lon="17.6794463">
        <ele>27.5349</ele>
        <time>2014-06-10T19:33:49Z</time>
      </trkpt>
      <trkpt lat="59.9539033" lon="17.6795726">
        <ele>27.5349</ele>
        <time>2014-06-10T19:33:50Z</time>
      </trkpt>
      <trkpt lat="59.9539442" lon="17.6796978">
        <ele>27.5349</ele>
        <time>2014-06-10T19:33:51Z</time>
      </trkpt>
      <trkpt lat="59.9539857" lon="17.6798236">
        <ele>27.5349</ele>
        <time>2014-06-10T19:33:52Z</time>
      </trkpt>
      <trkpt lat="59.9540274" lon="17.6799499">
        <ele>27.5349</ele>
        <time>2014-06-10T19:33:53Z</time>
      </trkpt>
      <trkpt lat="59.9540693" lon="17.6800765">
        <ele>27.5349</ele>
        <time>2014-06-10T19:33:54Z</time>
      </trkpt>
      <trkpt lat="59.9541125" lon="17.6802023">
        <ele>27.5349</ele>
        <time>2014-06-10T19:33:55Z</time>
      </trkpt>
      <trkpt lat="59.9541561" lon="17.6803279">
        <ele>27.5349</ele>
        <time>2014-06-10T19:33:56Z</time>
      </trkpt>
      <trkpt lat="59.9542001" lon="17.6804543">
        <ele>27.5349</ele>
        <time>2014-06-10T19:33:57Z</time>
      </trkpt>
      <trkpt lat="59.954244" lon="17.6805805">
        <ele>27.5349</ele>
        <time>2014-06-10T19:33:58Z</time>
      </trkpt>
      <trkpt lat="59.954288" lon="17.6807069">
        <ele>28.0155</ele>
        <time>2014-06-10T19:33:59Z</time>
      </trkpt>
      <trkpt lat="59.9543309" lon="17.6808346">
        <ele>28.0155</ele>
        <time>2014-06-10T19:34:00Z</time>
      </trkpt>
      <trkpt lat="59.9543725" lon="17.6809647">
        <ele>28.0155</ele>
        <time>2014-06-10T19:34:01Z</time>
      </trkpt>
      <trkpt lat="59.9544129" lon="17.6810988">
        <ele>28.0155</ele>
        <time>2014-06-10T19:34:02Z</time>
      </trkpt>
      <trkpt lat="59.9544527" lon="17.6812341">
        <ele>28.0155</ele>
        <time>2014-06-10T19:34:03Z</time>
      </trkpt>
      <trkpt lat="59.9544931" lon="17.6813652">
        <ele>28.4962</ele>
        <time>2014-06-10T19:34:04Z</time>
      </trkpt>
      <trkpt lat="59.9545345" lon="17.6814898">
        <ele>28.4962</ele>
        <time>2014-06-10T19:34:05Z</time>
      </trkpt>
      <trkpt lat="59.9545772" lon="17.6816102">
        <ele>28.4962</ele>
        <time>2014-06-10T19:34:06Z</time>
      </trkpt>
      <trkpt lat="59.9546202" lon="17.6817296">
        <ele>28.4962</ele>
        <time>2014-06-10T19:34:07Z</time>
      </trkpt>
      <trkpt lat="59.9546648" lon="17.6818453">
        <ele>28.4962</ele>
        <time>2014-06-10T19:34:08Z</time>
      </trkpt>
      <trkpt lat="59.9547173" lon="17.6819447">
        <ele>28.4962</ele>
        <time>2014-06-10T19:34:09Z</time>
      </trkpt>
      <trkpt lat="59.9547791" lon="17.6820246">
        <ele>28.4962</ele>
        <time>2014-06-10T19:34:10Z</time>
      </trkpt>
      <trkpt lat="59.954838" lon="17.6821137">
        <ele>28.4962</ele>
        <time>2014-06-10T19:34:11Z</time>
      </trkpt>
      <trkpt lat="59.9548849" lon="17.6822271">
        <ele>28.4962</ele>
        <time>2014-06-10T19:34:12Z</time>
      </trkpt>
      <trkpt lat="59.9549253" lon="17.6823489">
        <ele>28.9769</ele>
        <time>2014-06-10T19:34:13Z</time>
      </trkpt>
      <trkpt lat="59.9549646" lon="17.6824717">
        <ele>28.9769</ele>
        <time>2014-06-10T19:34:14Z</time>
      </trkpt>
      <trkpt lat="59.9550025" lon="17.6825961">
        <ele>28.9769</ele>
        <time>2014-06-10T19:34:15Z</time>
      </trkpt>
      <trkpt lat="59.9550387" lon="17.6827217">
        <ele>28.9769</ele>
        <time>2014-06-10T19:34:16Z</time>
      </trkpt>
      <trkpt lat="59.9550735" lon="17.6828468">
        <ele>28.9769</ele>
        <time>2014-06-10T19:34:17Z</time>
      </trkpt>
      <trkpt lat="59.9551076" lon="17.6829705">
        <ele>28.9769</ele>
        <time>2014-06-10T19:34:18Z</time>
      </trkpt>
      <trkpt lat="59.9551412" lon="17.683093">
        <ele>28.9769</ele>
        <time>2014-06-10T19:34:19Z</time>
      </trkpt>
      <trkpt lat="59.9551734" lon="17.683216">
        <ele>28.9769</ele>
        <time>2014-06-10T19:34:20Z</time>
      </trkpt>
      <trkpt lat="59.9552045" lon="17.6833393">
        <ele>28.9769</ele>
        <time>2014-06-10T19:34:21Z</time>
      </trkpt>
      <trkpt lat="59.9552356" lon="17.6834626">
        <ele>28.9769</ele>
        <time>2014-06-10T19:34:22Z</time>
      </trkpt>
      <trkpt lat="59.9552666" lon="17.683586">
        <ele>28.9769</ele>
        <time>2014-06-10T19:34:23Z</time>
      </trkpt>
      <trkpt lat="59.9552973" lon="17.6837107">
        <ele>28.9769</ele>
        <time>2014-06-10T19:34:24Z</time>
      </trkpt>
      <trkpt lat="59.9553261" lon="17.6838361">
        <ele>28.9769</ele>
        <time>2014-06-10T19:34:25Z</time>
      </trkpt>
      <trkpt lat="59.955353" lon="17.683963">
        <ele>28.9769</ele>
        <time>2014-06-10T19:34:26Z</time>
      </trkpt>
      <trkpt lat="59.9553786" lon="17.6840899">
        <ele>28.9769</ele>
        <time>2014-06-10T19:34:27Z</time>
      </trkpt>
      <trkpt lat="59.9554025" lon="17.6842163">
        <ele>28.9769</ele>
        <time>2014-06-10T19:34:28Z</time>
      </trkpt>
      <trkpt lat="59.9554249" lon="17.684343">
        <ele>28.9769</ele>
        <time>2014-06-10T19:34:29Z</time>
      </trkpt>
      <trkpt lat="59.9554469" lon="17.6844694">
        <ele>28.4962</ele>
        <time>2014-06-10T19:34:30Z</time>
      </trkpt>
      <trkpt lat="59.9554687" lon="17.6845955">
        <ele>28.4962</ele>
        <time>2014-06-10T19:34:31Z</time>
      </trkpt>
      <trkpt lat="59.9554889" lon="17.6847218">
        <ele>28.4962</ele>
        <time>2014-06-10T19:34:32Z</time>
      </trkpt>
      <trkpt lat="59.9555085" lon="17.684847">
        <ele>28.4962</ele>
        <time>2014-06-10T19:34:33Z</time>
      </trkpt>
      <trkpt lat="59.9555277" lon="17.6849711">
        <ele>28.0155</ele>
        <time>2014-06-10T19:34:34Z</time>
      </trkpt>
      <trkpt lat="59.9555462" lon="17.6850964">
        <ele>28.0155</ele>
        <time>2014-06-10T19:34:35Z</time>
      </trkpt>
      <trkpt lat="59.955565" lon="17.6852238">
        <ele>28.0155</ele>
        <time>2014-06-10T19:34:36Z</time>
      </trkpt>
      <trkpt lat="59.9555837" lon="17.6853518">
        <ele>28.0155</ele>
        <time>2014-06-10T19:34:37Z</time>
      </trkpt>
      <trkpt lat="59.9556014" lon="17.6854791">
        <ele>28.0155</ele>
        <time>2014-06-10T19:34:38Z</time>
      </trkpt>
      <trkpt lat="59.9556183" lon="17.6856051">
        <ele>28.0155</ele>
        <time>2014-06-10T19:34:39Z</time>
      </trkpt>
      <trkpt lat="59.9556344" lon="17.6857308">
        <ele>28.0155</ele>
        <time>2014-06-10T19:34:40Z</time>
      </trkpt>
      <trkpt lat="59.9556518" lon="17.6858548">
        <ele>28.0155</ele>
        <time>2014-06-10T19:34:41Z</time>
      </trkpt>
      <trkpt lat="59.9556698" lon="17.6859766">
        <ele>28.0155</ele>
        <time>2014-06-10T19:34:42Z</time>
      </trkpt>
      <trkpt lat="59.9556886" lon="17.6860988">
        <ele>28.0155</ele>
        <time>2014-06-10T19:34:43Z</time>
      </trkpt>
      <trkpt lat="59.955708" lon="17.686222">
        <ele>28.0155</ele>
        <time>2014-06-10T19:34:44Z</time>
      </trkpt>
      <trkpt lat="59.9557282" lon="17.6863458">
        <ele>28.0155</ele>
        <time>2014-06-10T19:34:45Z</time>
      </trkpt>
      <trkpt lat="59.9557477" lon="17.6864689">
        <ele>28.0155</ele>
        <time>2014-06-10T19:34:46Z</time>
      </trkpt>
      <trkpt lat="59.9557669" lon="17.6865903">
        <ele>28.0155</ele>
        <time>2014-06-10T19:34:47Z</time>
      </trkpt>
      <trkpt lat="59.9557857" lon="17.6867084">
        <ele>28.4962</ele>
        <time>2014-06-10T19:34:48Z</time>
      </trkpt>
      <trkpt lat="59.9558033" lon="17.686824">
        <ele>28.4962</ele>
        <time>2014-06-10T19:34:49Z</time>
      </trkpt>
      <trkpt lat="59.9558187" lon="17.6869398">
        <ele>28.4962</ele>
        <time>2014-06-10T19:34:50Z</time>
      </trkpt>
      <trkpt lat="59.9558313" lon="17.6870564">
        <ele>28.4962</ele>
        <time>2014-06-10T19:34:51Z</time>
      </trkpt>
      <trkpt lat="59.9558438" lon="17.6871734">
        <ele>28.4962</ele>
        <time>2014-06-10T19:34:52Z</time>
      </trkpt>
      <trkpt lat="59.9558597" lon="17.6872915">
        <ele>28.0155</ele>
        <time>2014-06-10T19:34:53Z</time>
      </trkpt>
      <trkpt lat="59.9558778" lon="17.6874124">
        <ele>28.0155</ele>
        <time>2014-06-10T19:34:54Z</time>
      </trkpt>
      <trkpt lat="59.955896" lon="17.6875366">
        <ele>28.0155</ele>
        <time>2014-06-10T19:34:55Z</time>
      </trkpt>
      <trkpt lat="59.9559142" lon="17.6876627">
        <ele>28.0155</ele>
        <time>2014-06-10T19:34:56Z</time>
      </trkpt>
      <trkpt lat="59.9559338" lon="17.6877909">
        <ele>28.0155</ele>
        <time>2014-06-10T19:34:57Z</time>
      </trkpt>
      <trkpt lat="59.9559542" lon="17.6879196">
        <ele>28.0155</ele>
        <time>2014-06-10T19:34:58Z</time>
      </trkpt>
      <trkpt lat="59.9559748" lon="17.6880454">
        <ele>28.0155</ele>
        <time>2014-06-10T19:34:59Z</time>
      </trkpt>
      <trkpt lat="59.9559943" lon="17.6881656">
        <ele>28.0155</ele>
        <time>2014-06-10T19:35:00Z</time>
      </trkpt>
      <trkpt lat="59.9560148" lon="17.6882794">
        <ele>28.0155</ele>
        <time>2014-06-10T19:35:01Z</time>
      </trkpt>
      <trkpt lat="59.9560379" lon="17.6883873">
        <ele>28.0155</ele>
        <time>2014-06-10T19:35:02Z</time>
      </trkpt>
      <trkpt lat="59.9560592" lon="17.6884938">
        <ele>28.0155</ele>
        <time>2014-06-10T19:35:03Z</time>
      </trkpt>
      <trkpt lat="59.9560759" lon="17.6885981">
        <ele>28.0155</ele>
        <time>2014-06-10T19:35:04Z</time>
      </trkpt>
      <trkpt lat="59.9560891" lon="17.6886923">
        <ele>28.0155</ele>
        <time>2014-06-10T19:35:05Z</time>
      </trkpt>
      <trkpt lat="59.9561058" lon="17.688777">
        <ele>28.0155</ele>
        <time>2014-06-10T19:35:06Z</time>
      </trkpt>
      <trkpt lat="59.9561302" lon="17.6888577">
        <ele>28.0155</ele>
        <time>2014-06-10T19:35:07Z</time>
      </trkpt>
      <trkpt lat="59.956159" lon="17.6889421">
        <ele>28.4962</ele>
        <time>2014-06-10T19:35:08Z</time>
      </trkpt>
      <trkpt lat="59.9561875" lon="17.6890354">
        <ele>28.4962</ele>
        <time>2014-06-10T19:35:09Z</time>
      </trkpt>
      <trkpt lat="59.9562154" lon="17.6891363">
        <ele>28.4962</ele>
        <time>2014-06-10T19:35:10Z</time>
      </trkpt>
      <trkpt lat="59.9562398" lon="17.6892445">
        <ele>28.4962</ele>
        <time>2014-06-10T19:35:11Z</time>
      </trkpt>
      <trkpt lat="59.9562607" lon="17.689359">
        <ele>28.4962</ele>
        <time>2014-06-10T19:35:12Z</time>
      </trkpt>
      <trkpt lat="59.956283" lon="17.6894741">
        <ele>28.9769</ele>
        <time>2014-06-10T19:35:13Z</time>
      </trkpt>
      <trkpt lat="59.9563068" lon="17.6895869">
        <ele>28.9769</ele>
        <time>2014-06-10T19:35:14Z</time>
      </trkpt>
      <trkpt lat="59.956332" lon="17.6896979">
        <ele>28.9769</ele>
        <time>2014-06-10T19:35:15Z</time>
      </trkpt>
      <trkpt lat="59.9563576" lon="17.6898083">
        <ele>29.4575</ele>
        <time>2014-06-10T19:35:16Z</time>
      </trkpt>
      <trkpt lat="59.956385" lon="17.6899176">
        <ele>29.4575</ele>
        <time>2014-06-10T19:35:17Z</time>
      </trkpt>
      <trkpt lat="59.9564156" lon="17.6900252">
        <ele>29.9381</ele>
        <time>2014-06-10T19:35:18Z</time>
      </trkpt>
      <trkpt lat="59.956447" lon="17.6901314">
        <ele>29.9381</ele>
        <time>2014-06-10T19:35:19Z</time>
      </trkpt>
      <trkpt lat="59.9564801" lon="17.6902366">
        <ele>29.9381</ele>
        <time>2014-06-10T19:35:20Z</time>
      </trkpt>
      <trkpt lat="59.9565148" lon="17.6903408">
        <ele>29.9381</ele>
        <time>2014-06-10T19:35:21Z</time>
      </trkpt>
      <trkpt lat="59.9565517" lon="17.6904475">
        <ele>29.9381</ele>
        <time>2014-06-10T19:35:22Z</time>
      </trkpt>
      <trkpt lat="59.9565881" lon="17.6905536">
        <ele>29.9381</ele>
        <time>2014-06-10T19:35:23Z</time>
      </trkpt>
      <trkpt lat="59.9566252" lon="17.6906592">
        <ele>30.4188</ele>
        <time>2014-06-10T19:35:24Z</time>
      </trkpt>
      <trkpt lat="59.9566638" lon="17.6907696">
        <ele>29.9381</ele>
        <time>2014-06-10T19:35:25Z</time>
      </trkpt>
      <trkpt lat="59.9567025" lon="17.6908826">
        <ele>29.9381</ele>
        <time>2014-06-10T19:35:26Z</time>
      </trkpt>
      <trkpt lat="59.956742" lon="17.6909975">
        <ele>29.4575</ele>
        <time>2014-06-10T19:35:27Z</time>
      </trkpt>
      <trkpt lat="59.9567817" lon="17.6911175">
        <ele>28.9769</ele>
        <time>2014-06-10T19:35:28Z</time>
      </trkpt>
      <trkpt lat="59.9568215" lon="17.6912421">
        <ele>28.4962</ele>
        <time>2014-06-10T19:35:29Z</time>
      </trkpt>
      <trkpt lat="59.9568624" lon="17.691371">
        <ele>27.5349</ele>
        <time>2014-06-10T19:35:30Z</time>
      </trkpt>
      <trkpt lat="59.9569061" lon="17.6915026">
        <ele>27.0543</ele>
        <time>2014-06-10T19:35:31Z</time>
      </trkpt>
      <trkpt lat="59.9569502" lon="17.6916362">
        <ele>27.0543</ele>
        <time>2014-06-10T19:35:32Z</time>
      </trkpt>
      <trkpt lat="59.9569947" lon="17.6917721">
        <ele>27.0543</ele>
        <time>2014-06-10T19:35:33Z</time>
      </trkpt>
      <trkpt lat="59.9570403" lon="17.691908">
        <ele>27.0543</ele>
        <time>2014-06-10T19:35:34Z</time>
      </trkpt>
      <trkpt lat="59.9570862" lon="17.6920415">
        <ele>27.0543</ele>
        <time>2014-06-10T19:35:35Z</time>
      </trkpt>
      <trkpt lat="59.9571316" lon="17.6921745">
        <ele>27.0543</ele>
        <time>2014-06-10T19:35:36Z</time>
      </trkpt>
      <trkpt lat="59.9571771" lon="17.6923071">
        <ele>27.0543</ele>
        <time>2014-06-10T19:35:37Z</time>
      </trkpt>
      <trkpt lat="59.9572224" lon="17.6924398">
        <ele>26.5736</ele>
        <time>2014-06-10T19:35:38Z</time>
      </trkpt>
      <trkpt lat="59.9572673" lon="17.6925729">
        <ele>26.5736</ele>
        <time>2014-06-10T19:35:39Z</time>
      </trkpt>
      <trkpt lat="59.9573128" lon="17.6927053">
        <ele>27.0543</ele>
        <time>2014-06-10T19:35:40Z</time>
      </trkpt>
      <trkpt lat="59.9573579" lon="17.6928359">
        <ele>27.0543</ele>
        <time>2014-06-10T19:35:41Z</time>
      </trkpt>
      <trkpt lat="59.9574019" lon="17.6929649">
        <ele>26.5736</ele>
        <time>2014-06-10T19:35:42Z</time>
      </trkpt>
      <trkpt lat="59.9574454" lon="17.693093">
        <ele>27.0543</ele>
        <time>2014-06-10T19:35:43Z</time>
      </trkpt>
      <trkpt lat="59.9574893" lon="17.6932201">
        <ele>27.0543</ele>
        <time>2014-06-10T19:35:44Z</time>
      </trkpt>
      <trkpt lat="59.9575332" lon="17.6933447">
        <ele>27.0543</ele>
        <time>2014-06-10T19:35:45Z</time>
      </trkpt>
      <trkpt lat="59.9575739" lon="17.69347">
        <ele>27.0543</ele>
        <time>2014-06-10T19:35:46Z</time>
      </trkpt>
      <trkpt lat="59.9576148" lon="17.6935911">
        <ele>27.0543</ele>
        <time>2014-06-10T19:35:47Z</time>
      </trkpt>
      <trkpt lat="59.957655" lon="17.6937099">
        <ele>27.0543</ele>
        <time>2014-06-10T19:35:48Z</time>
      </trkpt>
      <trkpt lat="59.9576945" lon="17.6938278">
        <ele>27.0543</ele>
        <time>2014-06-10T19:35:49Z</time>
      </trkpt>
      <trkpt lat="59.9577335" lon="17.6939441">
        <ele>27.0543</ele>
        <time>2014-06-10T19:35:50Z</time>
      </trkpt>
      <trkpt lat="59.9577731" lon="17.6940595">
        <ele>27.0543</ele>
        <time>2014-06-10T19:35:51Z</time>
      </trkpt>
      <trkpt lat="59.9578126" lon="17.6941739">
        <ele>27.0543</ele>
        <time>2014-06-10T19:35:52Z</time>
      </trkpt>
      <trkpt lat="59.9578529" lon="17.694288">
        <ele>27.0543</ele>
        <time>2014-06-10T19:35:53Z</time>
      </trkpt>
      <trkpt lat="59.9578933" lon="17.694403">
        <ele>27.0543</ele>
        <time>2014-06-10T19:35:54Z</time>
      </trkpt>
      <trkpt lat="59.9579334" lon="17.6945183">
        <ele>27.0543</ele>
        <time>2014-06-10T19:35:55Z</time>
      </trkpt>
      <trkpt lat="59.9579737" lon="17.6946336">
        <ele>27.0543</ele>
        <time>2014-06-10T19:35:56Z</time>
      </trkpt>
      <trkpt lat="59.9580134" lon="17.694749">
        <ele>27.0543</ele>
        <time>2014-06-10T19:35:57Z</time>
      </trkpt>
      <trkpt lat="59.9580534" lon="17.6948633">
        <ele>27.0543</ele>
        <time>2014-06-10T19:35:58Z</time>
      </trkpt>
      <trkpt lat="59.9580939" lon="17.6949753">
        <ele>27.5349</ele>
        <time>2014-06-10T19:35:59Z</time>
      </trkpt>
      <trkpt lat="59.9581333" lon="17.6950862">
        <ele>27.5349</ele>
        <time>2014-06-10T19:36:00Z</time>
      </trkpt>
      <trkpt lat="59.9581722" lon="17.695196">
        <ele>27.0543</ele>
        <time>2014-06-10T19:36:01Z</time>
      </trkpt>
      <trkpt lat="59.9582126" lon="17.6953033">
        <ele>27.0543</ele>
        <time>2014-06-10T19:36:02Z</time>
      </trkpt>
      <trkpt lat="59.958253" lon="17.6954093">
        <ele>27.0543</ele>
        <time>2014-06-10T19:36:03Z</time>
      </trkpt>
      <trkpt lat="59.958294" lon="17.6955144">
        <ele>27.0543</ele>
        <time>2014-06-10T19:36:04Z</time>
      </trkpt>
      <trkpt lat="59.958336" lon="17.6956183">
        <ele>27.0543</ele>
        <time>2014-06-10T19:36:05Z</time>
      </trkpt>
      <trkpt lat="59.9583778" lon="17.6957242">
        <ele>27.0543</ele>
        <time>2014-06-10T19:36:06Z</time>
      </trkpt>
      <trkpt lat="59.9584191" lon="17.6958322">
        <ele>27.0543</ele>
        <time>2014-06-10T19:36:07Z</time>
      </trkpt>
      <trkpt lat="59.9584613" lon="17.6959394">
        <ele>27.0543</ele>
        <time>2014-06-10T19:36:08Z</time>
      </trkpt>
      <trkpt lat="59.9585047" lon="17.6960454">
        <ele>27.0543</ele>
        <time>2014-06-10T19:36:09Z</time>
      </trkpt>
      <trkpt lat="59.9585489" lon="17.6961508">
        <ele>27.0543</ele>
        <time>2014-06-10T19:36:10Z</time>
      </trkpt>
      <trkpt lat="59.9585922" lon="17.6962575">
        <ele>27.0543</ele>
        <time>2014-06-10T19:36:11Z</time>
      </trkpt>
      <trkpt lat="59.9586336" lon="17.6963673">
        <ele>27.0543</ele>
        <time>2014-06-10T19:36:12Z</time>
      </trkpt>
      <trkpt lat="59.9586729" lon="17.696479">
        <ele>27.5349</ele>
        <time>2014-06-10T19:36:13Z</time>
      </trkpt>
      <trkpt lat="59.9587107" lon="17.6965904">
        <ele>27.5349</ele>
        <time>2014-06-10T19:36:14Z</time>
      </trkpt>
      <trkpt lat="59.9587467" lon="17.6967015">
        <ele>27.5349</ele>
        <time>2014-06-10T19:36:15Z</time>
      </trkpt>
      <trkpt lat="59.9587792" lon="17.6968146">
        <ele>27.5349</ele>
        <time>2014-06-10T19:36:16Z</time>
      </trkpt>
      <trkpt lat="59.9588082" lon="17.6969296">
        <ele>27.5349</ele>
        <time>2014-06-10T19:36:17Z</time>
      </trkpt>
      <trkpt lat="59.9588352" lon="17.6970453">
        <ele>27.5349</ele>
        <time>2014-06-10T19:36:18Z</time>
      </trkpt>
      <trkpt lat="59.9588602" lon="17.6971617">
        <ele>28.0155</ele>
        <time>2014-06-10T19:36:19Z</time>
      </trkpt>
      <trkpt lat="59.9588827" lon="17.6972784">
        <ele>28.0155</ele>
        <time>2014-06-10T19:36:20Z</time>
      </trkpt>
      <trkpt lat="59.9589034" lon="17.6973958">
        <ele>28.0155</ele>
        <time>2014-06-10T19:36:21Z</time>
      </trkpt>
      <trkpt lat="59.9589229" lon="17.6975122">
        <ele>28.0155</ele>
        <time>2014-06-10T19:36:22Z</time>
      </trkpt>
      <trkpt lat="59.9589415" lon="17.6976264">
        <ele>28.4962</ele>
        <time>2014-06-10T19:36:23Z</time>
      </trkpt>
      <trkpt lat="59.958959" lon="17.6977388">
        <ele>28.4962</ele>
        <time>2014-06-10T19:36:24Z</time>
      </trkpt>
      <trkpt lat="59.9589733" lon="17.6978503">
        <ele>28.9769</ele>
        <time>2014-06-10T19:36:25Z</time>
      </trkpt>
      <trkpt lat="59.9589854" lon="17.6979606">
        <ele>28.9769</ele>
        <time>2014-06-10T19:36:26Z</time>
      </trkpt>
      <trkpt lat="59.9589959" lon="17.6980704">
        <ele>28.9769</ele>
        <time>2014-06-10T19:36:27Z</time>
      </trkpt>
      <trkpt lat="59.9590062" lon="17.6981818">
        <ele>29.4575</ele>
        <time>2014-06-10T19:36:28Z</time>
      </trkpt>
      <trkpt lat="59.9590145" lon="17.6982953">
        <ele>29.4575</ele>
        <time>2014-06-10T19:36:29Z</time>
      </trkpt>
      <trkpt lat="59.9590205" lon="17.6984107">
        <ele>29.4575</ele>
        <time>2014-06-10T19:36:30Z</time>
      </trkpt>
      <trkpt lat="59.9590237" lon="17.6985263">
        <ele>29.9381</ele>
        <time>2014-06-10T19:36:31Z</time>
      </trkpt>
      <trkpt lat="59.9590257" lon="17.6986419">
        <ele>29.9381</ele>
        <time>2014-06-10T19:36:32Z</time>
      </trkpt>
      <trkpt lat="59.9590284" lon="17.6987588">
        <ele>29.9381</ele>
        <time>2014-06-10T19:36:33Z</time>
      </trkpt>
      <trkpt lat="59.9590305" lon="17.6988771">
        <ele>29.9381</ele>
        <time>2014-06-10T19:36:34Z</time>
      </trkpt>
      <trkpt lat="59.9590373" lon="17.6990019">
        <ele>29.9381</ele>
        <time>2014-06-10T19:36:35Z</time>
      </trkpt>
      <trkpt lat="59.9590466" lon="17.6991308">
        <ele>29.4575</ele>
        <time>2014-06-10T19:36:36Z</time>
      </trkpt>
      <trkpt lat="59.9590521" lon="17.6992588">
        <ele>29.4575</ele>
        <time>2014-06-10T19:36:37Z</time>
      </trkpt>
      <trkpt lat="59.9590565" lon="17.6993878">
        <ele>28.9769</ele>
        <time>2014-06-10T19:36:38Z</time>
      </trkpt>
      <trkpt lat="59.9590632" lon="17.6995188">
        <ele>28.9769</ele>
        <time>2014-06-10T19:36:39Z</time>
      </trkpt>
      <trkpt lat="59.9590725" lon="17.699652">
        <ele>28.9769</ele>
        <time>2014-06-10T19:36:40Z</time>
      </trkpt>
      <trkpt lat="59.9590816" lon="17.6997861">
        <ele>28.9769</ele>
        <time>2014-06-10T19:36:41Z</time>
      </trkpt>
      <trkpt lat="59.9590911" lon="17.6999206">
        <ele>28.9769</ele>
        <time>2014-06-10T19:36:42Z</time>
      </trkpt>
      <trkpt lat="59.9591025" lon="17.7000559">
        <ele>28.9769</ele>
        <time>2014-06-10T19:36:43Z</time>
      </trkpt>
      <trkpt lat="59.959114" lon="17.7001913">
        <ele>28.9769</ele>
        <time>2014-06-10T19:36:44Z</time>
      </trkpt>
      <trkpt lat="59.9591267" lon="17.7003267">
        <ele>28.9769</ele>
        <time>2014-06-10T19:36:45Z</time>
      </trkpt>
      <trkpt lat="59.9591389" lon="17.7004604">
        <ele>28.9769</ele>
        <time>2014-06-10T19:36:46Z</time>
      </trkpt>
      <trkpt lat="59.9591515" lon="17.7005925">
        <ele>28.9769</ele>
        <time>2014-06-10T19:36:47Z</time>
      </trkpt>
      <trkpt lat="59.9591635" lon="17.7007232">
        <ele>28.9769</ele>
        <time>2014-06-10T19:36:48Z</time>
      </trkpt>
      <trkpt lat="59.9591761" lon="17.7008522">
        <ele>29.4575</ele>
        <time>2014-06-10T19:36:49Z</time>
      </trkpt>
      <trkpt lat="59.9591891" lon="17.7009791">
        <ele>29.4575</ele>
        <time>2014-06-10T19:36:50Z</time>
      </trkpt>
      <trkpt lat="59.9592109" lon="17.701218">
        <ele>29.9381</ele>
        <time>2014-06-10T19:36:52Z</time>
      </trkpt>
      <trkpt lat="59.9592204" lon="17.7013267">
        <ele>29.9381</ele>
        <time>2014-06-10T19:36:53Z</time>
      </trkpt>
      <trkpt lat="59.9592356" lon="17.701443">
        <ele>29.9381</ele>
        <time>2014-06-10T19:36:54Z</time>
      </trkpt>
      <trkpt lat="59.9592565" lon="17.7015583">
        <ele>29.9381</ele>
        <time>2014-06-10T19:36:55Z</time>
      </trkpt>
      <trkpt lat="59.9592807" lon="17.7016733">
        <ele>29.9381</ele>
        <time>2014-06-10T19:36:56Z</time>
      </trkpt>
      <trkpt lat="59.9593072" lon="17.7017909">
        <ele>29.9381</ele>
        <time>2014-06-10T19:36:57Z</time>
      </trkpt>
      <trkpt lat="59.9593356" lon="17.7019099">
        <ele>29.9381</ele>
        <time>2014-06-10T19:36:58Z</time>
      </trkpt>
      <trkpt lat="59.9593662" lon="17.7020323">
        <ele>29.4575</ele>
        <time>2014-06-10T19:36:59Z</time>
      </trkpt>
      <trkpt lat="59.9593983" lon="17.7021506">
        <ele>29.4575</ele>
        <time>2014-06-10T19:37:00Z</time>
      </trkpt>
      <trkpt lat="59.9594294" lon="17.7022674">
        <ele>28.4962</ele>
        <time>2014-06-10T19:37:01Z</time>
      </trkpt>
      <trkpt lat="59.9594636" lon="17.7023855">
        <ele>28.4962</ele>
        <time>2014-06-10T19:37:02Z</time>
      </trkpt>
      <trkpt lat="59.9595001" lon="17.7025039">
        <ele>28.4962</ele>
        <time>2014-06-10T19:37:03Z</time>
      </trkpt>
      <trkpt lat="59.9595345" lon="17.7026207">
        <ele>28.4962</ele>
        <time>2014-06-10T19:37:04Z</time>
      </trkpt>
      <trkpt lat="59.9595693" lon="17.7027358">
        <ele>28.4962</ele>
        <time>2014-06-10T19:37:05Z</time>
      </trkpt>
      <trkpt lat="59.9596019" lon="17.7028512">
        <ele>28.4962</ele>
        <time>2014-06-10T19:37:06Z</time>
      </trkpt>
      <trkpt lat="59.9596345" lon="17.7029632">
        <ele>28.0155</ele>
        <time>2014-06-10T19:37:07Z</time>
      </trkpt>
      <trkpt lat="59.9596681" lon="17.7030718">
        <ele>28.0155</ele>
        <time>2014-06-10T19:37:08Z</time>
      </trkpt>
      <trkpt lat="59.9596999" lon="17.7031703">
        <ele>27.5349</ele>
        <time>2014-06-10T19:37:09Z</time>
      </trkpt>
      <trkpt lat="59.9597315" lon="17.7032728">
        <ele>27.5349</ele>
        <time>2014-06-10T19:37:10Z</time>
      </trkpt>
      <trkpt lat="59.9597654" lon="17.7033827">
        <ele>27.5349</ele>
        <time>2014-06-10T19:37:11Z</time>
      </trkpt>
      <trkpt lat="59.9597988" lon="17.7034904">
        <ele>27.0543</ele>
        <time>2014-06-10T19:37:12Z</time>
      </trkpt>
      <trkpt lat="59.9598328" lon="17.7036014">
        <ele>27.0543</ele>
        <time>2014-06-10T19:37:13Z</time>
      </trkpt>
      <trkpt lat="59.959868" lon="17.7037152">
        <ele>27.0543</ele>
        <time>2014-06-10T19:37:14Z</time>
      </trkpt>
      <trkpt lat="59.9599029" lon="17.7038307">
        <ele>27.0543</ele>
        <time>2014-06-10T19:37:15Z</time>
      </trkpt>
      <trkpt lat="59.9599399" lon="17.703944">
        <ele>26.5736</ele>
        <time>2014-06-10T19:37:16Z</time>
      </trkpt>
      <trkpt lat="59.9599768" lon="17.7040548">
        <ele>26.5736</ele>
        <time>2014-06-10T19:37:17Z</time>
      </trkpt>
      <trkpt lat="59.9600163" lon="17.7041576">
        <ele>26.5736</ele>
        <time>2014-06-10T19:37:18Z</time>
      </trkpt>
      <trkpt lat="59.9600588" lon="17.7042503">
        <ele>26.0929</ele>
        <time>2014-06-10T19:37:19Z</time>
      </trkpt>
      <trkpt lat="59.9601062" lon="17.7043353">
        <ele>26.5736</ele>
        <time>2014-06-10T19:37:20Z</time>
      </trkpt>
      <trkpt lat="59.9601588" lon="17.7044109">
        <ele>26.0929</ele>
        <time>2014-06-10T19:37:21Z</time>
      </trkpt>
      <trkpt lat="59.9602161" lon="17.7044818">
        <ele>26.0929</ele>
        <time>2014-06-10T19:37:22Z</time>
      </trkpt>
      <trkpt lat="59.9602748" lon="17.7045518">
        <ele>26.0929</ele>
        <time>2014-06-10T19:37:23Z</time>
      </trkpt>
      <trkpt lat="59.9603359" lon="17.7046247">
        <ele>26.5736</ele>
        <time>2014-06-10T19:37:24Z</time>
      </trkpt>
      <trkpt lat="59.960397" lon="17.7046989">
        <ele>26.0929</ele>
        <time>2014-06-10T19:37:25Z</time>
      </trkpt>
      <trkpt lat="59.9604602" lon="17.704774">
        <ele>26.5736</ele>
        <time>2014-06-10T19:37:26Z</time>
      </trkpt>
      <trkpt lat="59.9605239" lon="17.7048505">
        <ele>26.5736</ele>
        <time>2014-06-10T19:37:27Z</time>
      </trkpt>
      <trkpt lat="59.9605865" lon="17.7049279">
        <ele>26.5736</ele>
        <time>2014-06-10T19:37:28Z</time>
      </trkpt>
      <trkpt lat="59.9606483" lon="17.7050059">
        <ele>26.5736</ele>
        <time>2014-06-10T19:37:29Z</time>
      </trkpt>
      <trkpt lat="59.9607114" lon="17.7050844">
        <ele>26.5736</ele>
        <time>2014-06-10T19:37:30Z</time>
      </trkpt>
      <trkpt lat="59.9607745" lon="17.7051623">
        <ele>26.5736</ele>
        <time>2014-06-10T19:37:31Z</time>
      </trkpt>
      <trkpt lat="59.9608376" lon="17.7052439">
        <ele>26.5736</ele>
        <time>2014-06-10T19:37:32Z</time>
      </trkpt>
      <trkpt lat="59.9608994" lon="17.7053305">
        <ele>26.5736</ele>
        <time>2014-06-10T19:37:33Z</time>
      </trkpt>
      <trkpt lat="59.9609607" lon="17.7054199">
        <ele>26.5736</ele>
        <time>2014-06-10T19:37:34Z</time>
      </trkpt>
      <trkpt lat="59.9610216" lon="17.7055111">
        <ele>27.0543</ele>
        <time>2014-06-10T19:37:35Z</time>
      </trkpt>
      <trkpt lat="59.9610795" lon="17.7056056">
        <ele>27.0543</ele>
        <time>2014-06-10T19:37:36Z</time>
      </trkpt>
      <trkpt lat="59.9611351" lon="17.7057052">
        <ele>27.0543</ele>
        <time>2014-06-10T19:37:37Z</time>
      </trkpt>
      <trkpt lat="59.9611896" lon="17.7058078">
        <ele>26.5736</ele>
        <time>2014-06-10T19:37:38Z</time>
      </trkpt>
      <trkpt lat="59.9612448" lon="17.7059096">
        <ele>27.0543</ele>
        <time>2014-06-10T19:37:39Z</time>
      </trkpt>
      <trkpt lat="59.9612983" lon="17.7060115">
        <ele>26.5736</ele>
        <time>2014-06-10T19:37:40Z</time>
      </trkpt>
      <trkpt lat="59.9613537" lon="17.7061136">
        <ele>26.5736</ele>
        <time>2014-06-10T19:37:41Z</time>
      </trkpt>
      <trkpt lat="59.9614103" lon="17.7062137">
        <ele>27.0543</ele>
        <time>2014-06-10T19:37:42Z</time>
      </trkpt>
      <trkpt lat="59.9614687" lon="17.7063113">
        <ele>27.5349</ele>
        <time>2014-06-10T19:37:43Z</time>
      </trkpt>
      <trkpt lat="59.9615269" lon="17.7064036">
        <ele>27.5349</ele>
        <time>2014-06-10T19:37:44Z</time>
      </trkpt>
      <trkpt lat="59.9615872" lon="17.7064905">
        <ele>27.5349</ele>
        <time>2014-06-10T19:37:45Z</time>
      </trkpt>
      <trkpt lat="59.9616492" lon="17.706571">
        <ele>27.5349</ele>
        <time>2014-06-10T19:37:46Z</time>
      </trkpt>
      <trkpt lat="59.9617127" lon="17.7066433">
        <ele>27.5349</ele>
        <time>2014-06-10T19:37:47Z</time>
      </trkpt>
      <trkpt lat="59.9617783" lon="17.7067078">
        <ele>27.5349</ele>
        <time>2014-06-10T19:37:48Z</time>
      </trkpt>
      <trkpt lat="59.9618458" lon="17.7067666">
        <ele>28.0155</ele>
        <time>2014-06-10T19:37:49Z</time>
      </trkpt>
      <trkpt lat="59.9619147" lon="17.7068191">
        <ele>28.0155</ele>
        <time>2014-06-10T19:37:50Z</time>
      </trkpt>
      <trkpt lat="59.961985" lon="17.7068676">
        <ele>28.0155</ele>
        <time>2014-06-10T19:37:51Z</time>
      </trkpt>
      <trkpt lat="59.9620567" lon="17.7069156">
        <ele>28.0155</ele>
        <time>2014-06-10T19:37:52Z</time>
      </trkpt>
      <trkpt lat="59.962129" lon="17.7069607">
        <ele>28.0155</ele>
        <time>2014-06-10T19:37:53Z</time>
      </trkpt>
      <trkpt lat="59.9622013" lon="17.7070026">
        <ele>28.4962</ele>
        <time>2014-06-10T19:37:54Z</time>
      </trkpt>
      <trkpt lat="59.9622732" lon="17.7070391">
        <ele>28.4962</ele>
        <time>2014-06-10T19:37:55Z</time>
      </trkpt>
      <trkpt lat="59.962345" lon="17.7070722">
        <ele>28.4962</ele>
        <time>2014-06-10T19:37:56Z</time>
      </trkpt>
      <trkpt lat="59.9624171" lon="17.7071034">
        <ele>28.4962</ele>
        <time>2014-06-10T19:37:57Z</time>
      </trkpt>
      <trkpt lat="59.9624906" lon="17.7071303">
        <ele>28.4962</ele>
        <time>2014-06-10T19:37:58Z</time>
      </trkpt>
      <trkpt lat="59.9625659" lon="17.7071559">
        <ele>28.4962</ele>
        <time>2014-06-10T19:37:59Z</time>
      </trkpt>
      <trkpt lat="59.962643" lon="17.7071796">
        <ele>28.4962</ele>
        <time>2014-06-10T19:38:00Z</time>
      </trkpt>
      <trkpt lat="59.9627223" lon="17.7071974">
        <ele>28.9769</ele>
        <time>2014-06-10T19:38:01Z</time>
      </trkpt>
      <trkpt lat="59.9628021" lon="17.7072088">
        <ele>28.9769</ele>
        <time>2014-06-10T19:38:02Z</time>
      </trkpt>
      <trkpt lat="59.9628824" lon="17.707217">
        <ele>28.9769</ele>
        <time>2014-06-10T19:38:03Z</time>
      </trkpt>
      <trkpt lat="59.9629648" lon="17.7072173">
        <ele>28.9769</ele>
        <time>2014-06-10T19:38:04Z</time>
      </trkpt>
      <trkpt lat="59.9630512" lon="17.7071878">
        <ele>28.9769</ele>
        <time>2014-06-10T19:38:05Z</time>
      </trkpt>
      <trkpt lat="59.9631357" lon="17.7071806">
        <ele>28.9769</ele>
        <time>2014-06-10T19:38:06Z</time>
      </trkpt>
      <trkpt lat="59.9632255" lon="17.7071837">
        <ele>28.4962</ele>
        <time>2014-06-10T19:38:07Z</time>
      </trkpt>
      <trkpt lat="59.9633146" lon="17.7071869">
        <ele>28.4962</ele>
        <time>2014-06-10T19:38:08Z</time>
      </trkpt>
      <trkpt lat="59.9634033" lon="17.7071848">
        <ele>28.4962</ele>
        <time>2014-06-10T19:38:09Z</time>
      </trkpt>
      <trkpt lat="59.9634902" lon="17.7071858">
        <ele>28.4962</ele>
        <time>2014-06-10T19:38:10Z</time>
      </trkpt>
      <trkpt lat="59.9635772" lon="17.7071911">
        <ele>28.4962</ele>
        <time>2014-06-10T19:38:11Z</time>
      </trkpt>
      <trkpt lat="59.9636621" lon="17.7071987">
        <ele>28.9769</ele>
        <time>2014-06-10T19:38:12Z</time>
      </trkpt>
      <trkpt lat="59.9637473" lon="17.7072062">
        <ele>28.9769</ele>
        <time>2014-06-10T19:38:13Z</time>
      </trkpt>
      <trkpt lat="59.963832" lon="17.707214">
        <ele>28.9769</ele>
        <time>2014-06-10T19:38:14Z</time>
      </trkpt>
      <trkpt lat="59.9639164" lon="17.7072235">
        <ele>28.9769</ele>
        <time>2014-06-10T19:38:15Z</time>
      </trkpt>
      <trkpt lat="59.9640004" lon="17.7072335">
        <ele>28.9769</ele>
        <time>2014-06-10T19:38:16Z</time>
      </trkpt>
      <trkpt lat="59.9640838" lon="17.7072473">
        <ele>28.9769</ele>
        <time>2014-06-10T19:38:17Z</time>
      </trkpt>
      <trkpt lat="59.9641675" lon="17.7072658">
        <ele>28.4962</ele>
        <time>2014-06-10T19:38:18Z</time>
      </trkpt>
      <trkpt lat="59.9642513" lon="17.7072833">
        <ele>28.9769</ele>
        <time>2014-06-10T19:38:19Z</time>
      </trkpt>
      <trkpt lat="59.9643354" lon="17.7073066">
        <ele>28.9769</ele>
        <time>2014-06-10T19:38:20Z</time>
      </trkpt>
      <trkpt lat="59.9644193" lon="17.7073351">
        <ele>28.9769</ele>
        <time>2014-06-10T19:38:21Z</time>
      </trkpt>
      <trkpt lat="59.9645016" lon="17.707368">
        <ele>28.9769</ele>
        <time>2014-06-10T19:38:22Z</time>
      </trkpt>
      <trkpt lat="59.9645815" lon="17.707408">
        <ele>28.9769</ele>
        <time>2014-06-10T19:38:23Z</time>
      </trkpt>
      <trkpt lat="59.9646598" lon="17.7074577">
        <ele>28.9769</ele>
        <time>2014-06-10T19:38:24Z</time>
      </trkpt>
      <trkpt lat="59.9647375" lon="17.7075134">
        <ele>28.9769</ele>
        <time>2014-06-10T19:38:25Z</time>
      </trkpt>
      <trkpt lat="59.9648147" lon="17.7075719">
        <ele>28.9769</ele>
        <time>2014-06-10T19:38:26Z</time>
      </trkpt>
      <trkpt lat="59.9648919" lon="17.7076319">
        <ele>28.9769</ele>
        <time>2014-06-10T19:38:27Z</time>
      </trkpt>
      <trkpt lat="59.9649696" lon="17.7076911">
        <ele>28.9769</ele>
        <time>2014-06-10T19:38:28Z</time>
      </trkpt>
      <trkpt lat="59.9650483" lon="17.7077517">
        <ele>28.9769</ele>
        <time>2014-06-10T19:38:29Z</time>
      </trkpt>
      <trkpt lat="59.9651259" lon="17.7078133">
        <ele>28.9769</ele>
        <time>2014-06-10T19:38:30Z</time>
      </trkpt>
      <trkpt lat="59.9652005" lon="17.7078754">
        <ele>28.9769</ele>
        <time>2014-06-10T19:38:31Z</time>
      </trkpt>
      <trkpt lat="59.9652728" lon="17.707938">
        <ele>28.9769</ele>
        <time>2014-06-10T19:38:32Z</time>
      </trkpt>
      <trkpt lat="59.9653428" lon="17.7080002">
        <ele>28.4962</ele>
        <time>2014-06-10T19:38:33Z</time>
      </trkpt>
      <trkpt lat="59.9654114" lon="17.7080633">
        <ele>28.4962</ele>
        <time>2014-06-10T19:38:34Z</time>
      </trkpt>
      <trkpt lat="59.9654793" lon="17.7081292">
        <ele>28.4962</ele>
        <time>2014-06-10T19:38:35Z</time>
      </trkpt>
      <trkpt lat="59.9655458" lon="17.7082005">
        <ele>28.4962</ele>
        <time>2014-06-10T19:38:36Z</time>
      </trkpt>
      <trkpt lat="59.9656098" lon="17.7082789">
        <ele>28.4962</ele>
        <time>2014-06-10T19:38:37Z</time>
      </trkpt>
      <trkpt lat="59.9656714" lon="17.7083662">
        <ele>28.4962</ele>
        <time>2014-06-10T19:38:38Z</time>
      </trkpt>
      <trkpt lat="59.9657294" lon="17.7084631">
        <ele>28.4962</ele>
        <time>2014-06-10T19:38:39Z</time>
      </trkpt>
      <trkpt lat="59.9657832" lon="17.7085701">
        <ele>28.4962</ele>
        <time>2014-06-10T19:38:40Z</time>
      </trkpt>
      <trkpt lat="59.9658334" lon="17.708685">
        <ele>28.4962</ele>
        <time>2014-06-10T19:38:41Z</time>
      </trkpt>
      <trkpt lat="59.9658802" lon="17.7088042">
        <ele>28.4962</ele>
        <time>2014-06-10T19:38:42Z</time>
      </trkpt>
      <trkpt lat="59.9659241" lon="17.7089264">
        <ele>28.4962</ele>
        <time>2014-06-10T19:38:43Z</time>
      </trkpt>
      <trkpt lat="59.9659652" lon="17.7090512">
        <ele>28.4962</ele>
        <time>2014-06-10T19:38:44Z</time>
      </trkpt>
      <trkpt lat="59.9660046" lon="17.7091771">
        <ele>28.9769</ele>
        <time>2014-06-10T19:38:45Z</time>
      </trkpt>
      <trkpt lat="59.9660423" lon="17.709304">
        <ele>28.9769</ele>
        <time>2014-06-10T19:38:46Z</time>
      </trkpt>
      <trkpt lat="59.9660787" lon="17.7094295">
        <ele>28.9769</ele>
        <time>2014-06-10T19:38:47Z</time>
      </trkpt>
      <trkpt lat="59.9661094" lon="17.7095668">
        <ele>28.9769</ele>
        <time>2014-06-10T19:38:48Z</time>
      </trkpt>
      <trkpt lat="59.9661428" lon="17.7096967">
        <ele>28.9769</ele>
        <time>2014-06-10T19:38:49Z</time>
      </trkpt>
      <trkpt lat="59.9661785" lon="17.7098244">
        <ele>28.9769</ele>
        <time>2014-06-10T19:38:50Z</time>
      </trkpt>
      <trkpt lat="59.9662154" lon="17.7099441">
        <ele>28.9769</ele>
        <time>2014-06-10T19:38:51Z</time>
      </trkpt>
      <trkpt lat="59.9662499" lon="17.7100691">
        <ele>28.9769</ele>
        <time>2014-06-10T19:38:52Z</time>
      </trkpt>
      <trkpt lat="59.9662842" lon="17.7101929">
        <ele>28.9769</ele>
        <time>2014-06-10T19:38:53Z</time>
      </trkpt>
      <trkpt lat="59.9663188" lon="17.7103136">
        <ele>28.9769</ele>
        <time>2014-06-10T19:38:54Z</time>
      </trkpt>
      <trkpt lat="59.9663532" lon="17.7104324">
        <ele>28.9769</ele>
        <time>2014-06-10T19:38:55Z</time>
      </trkpt>
      <trkpt lat="59.9663857" lon="17.7105492">
        <ele>28.9769</ele>
        <time>2014-06-10T19:38:56Z</time>
      </trkpt>
      <trkpt lat="59.9664179" lon="17.7106644">
        <ele>28.9769</ele>
        <time>2014-06-10T19:38:57Z</time>
      </trkpt>
      <trkpt lat="59.9664505" lon="17.7107788">
        <ele>28.9769</ele>
        <time>2014-06-10T19:38:58Z</time>
      </trkpt>
      <trkpt lat="59.966483" lon="17.7108927">
        <ele>28.9769</ele>
        <time>2014-06-10T19:38:59Z</time>
      </trkpt>
      <trkpt lat="59.9665147" lon="17.711005">
        <ele>28.9769</ele>
        <time>2014-06-10T19:39:00Z</time>
      </trkpt>
      <trkpt lat="59.9665461" lon="17.711116">
        <ele>28.9769</ele>
        <time>2014-06-10T19:39:01Z</time>
      </trkpt>
      <trkpt lat="59.9665779" lon="17.7112262">
        <ele>28.9769</ele>
        <time>2014-06-10T19:39:02Z</time>
      </trkpt>
      <trkpt lat="59.9666085" lon="17.7113361">
        <ele>28.4962</ele>
        <time>2014-06-10T19:39:03Z</time>
      </trkpt>
      <trkpt lat="59.9666396" lon="17.7114427">
        <ele>28.4962</ele>
        <time>2014-06-10T19:39:04Z</time>
      </trkpt>
      <trkpt lat="59.9666728" lon="17.7115442">
        <ele>28.4962</ele>
        <time>2014-06-10T19:39:05Z</time>
      </trkpt>
      <trkpt lat="59.9667073" lon="17.7116445">
        <ele>28.4962</ele>
        <time>2014-06-10T19:39:06Z</time>
      </trkpt>
      <trkpt lat="59.9667409" lon="17.711746">
        <ele>28.0155</ele>
        <time>2014-06-10T19:39:07Z</time>
      </trkpt>
      <trkpt lat="59.9667752" lon="17.7118485">
        <ele>28.0155</ele>
        <time>2014-06-10T19:39:08Z</time>
      </trkpt>
      <trkpt lat="59.9668106" lon="17.7119491">
        <ele>27.5349</ele>
        <time>2014-06-10T19:39:09Z</time>
      </trkpt>
      <trkpt lat="59.9668479" lon="17.7120495">
        <ele>27.5349</ele>
        <time>2014-06-10T19:39:10Z</time>
      </trkpt>
      <trkpt lat="59.9668859" lon="17.7121513">
        <ele>27.5349</ele>
        <time>2014-06-10T19:39:11Z</time>
      </trkpt>
      <trkpt lat="59.966924" lon="17.712253">
        <ele>27.5349</ele>
        <time>2014-06-10T19:39:12Z</time>
      </trkpt>
      <trkpt lat="59.9669623" lon="17.7123563">
        <ele>27.0543</ele>
        <time>2014-06-10T19:39:13Z</time>
      </trkpt>
      <trkpt lat="59.9669991" lon="17.7124632">
        <ele>27.0543</ele>
        <time>2014-06-10T19:39:14Z</time>
      </trkpt>
      <trkpt lat="59.9670365" lon="17.7125727">
        <ele>27.0543</ele>
        <time>2014-06-10T19:39:15Z</time>
      </trkpt>
      <trkpt lat="59.9670734" lon="17.7126847">
        <ele>27.0543</ele>
        <time>2014-06-10T19:39:16Z</time>
      </trkpt>
      <trkpt lat="59.967109" lon="17.7128021">
        <ele>26.5736</ele>
        <time>2014-06-10T19:39:17Z</time>
      </trkpt>
      <trkpt lat="59.9671425" lon="17.7129248">
        <ele>26.5736</ele>
        <time>2014-06-10T19:39:18Z</time>
      </trkpt>
      <trkpt lat="59.9671744" lon="17.7130518">
        <ele>26.5736</ele>
        <time>2014-06-10T19:39:19Z</time>
      </trkpt>
      <trkpt lat="59.9672048" lon="17.7131819">
        <ele>26.0929</ele>
        <time>2014-06-10T19:39:20Z</time>
      </trkpt>
      <trkpt lat="59.9672332" lon="17.7133146">
        <ele>26.0929</ele>
        <time>2014-06-10T19:39:21Z</time>
      </trkpt>
      <trkpt lat="59.9672605" lon="17.7134486">
        <ele>25.6123</ele>
        <time>2014-06-10T19:39:22Z</time>
      </trkpt>
      <trkpt lat="59.9672854" lon="17.713585">
        <ele>25.6123</ele>
        <time>2014-06-10T19:39:23Z</time>
      </trkpt>
      <trkpt lat="59.9673077" lon="17.7137254">
        <ele>25.1317</ele>
        <time>2014-06-10T19:39:24Z</time>
      </trkpt>
      <trkpt lat="59.967329" lon="17.7138698">
        <ele>24.651</ele>
        <time>2014-06-10T19:39:25Z</time>
      </trkpt>
      <trkpt lat="59.9673497" lon="17.7140191">
        <ele>24.1703</ele>
        <time>2014-06-10T19:39:26Z</time>
      </trkpt>
      <trkpt lat="59.9673706" lon="17.7141738">
        <ele>24.1703</ele>
        <time>2014-06-10T19:39:27Z</time>
      </trkpt>
      <trkpt lat="59.967393" lon="17.7143347">
        <ele>23.6896</ele>
        <time>2014-06-10T19:39:28Z</time>
      </trkpt>
      <trkpt lat="59.9674154" lon="17.7145015">
        <ele>23.209</ele>
        <time>2014-06-10T19:39:29Z</time>
      </trkpt>
      <trkpt lat="59.9674379" lon="17.7146727">
        <ele>22.7283</ele>
        <time>2014-06-10T19:39:30Z</time>
      </trkpt>
      <trkpt lat="59.9674611" lon="17.7148462">
        <ele>22.2476</ele>
        <time>2014-06-10T19:39:31Z</time>
      </trkpt>
      <trkpt lat="59.9674853" lon="17.7150197">
        <ele>22.2476</ele>
        <time>2014-06-10T19:39:32Z</time>
      </trkpt>
      <trkpt lat="59.9675107" lon="17.7151902">
        <ele>21.767</ele>
        <time>2014-06-10T19:39:33Z</time>
      </trkpt>
      <trkpt lat="59.9675347" lon="17.7153636">
        <ele>21.2864</ele>
        <time>2014-06-10T19:39:34Z</time>
      </trkpt>
      <trkpt lat="59.9675625" lon="17.7155246">
        <ele>21.2864</ele>
        <time>2014-06-10T19:39:35Z</time>
      </trkpt>
      <trkpt lat="59.9675932" lon="17.7156745">
        <ele>21.2864</ele>
        <time>2014-06-10T19:39:36Z</time>
      </trkpt>
      <trkpt lat="59.9676264" lon="17.7158088">
        <ele>21.2864</ele>
        <time>2014-06-10T19:39:37Z</time>
      </trkpt>
      <trkpt lat="59.9676631" lon="17.7159339">
        <ele>21.767</ele>
        <time>2014-06-10T19:39:38Z</time>
      </trkpt>
      <trkpt lat="59.9677016" lon="17.7160537">
        <ele>22.2476</ele>
        <time>2014-06-10T19:39:39Z</time>
      </trkpt>
      <trkpt lat="59.9677404" lon="17.7161683">
        <ele>22.7283</ele>
        <time>2014-06-10T19:39:40Z</time>
      </trkpt>
      <trkpt lat="59.9677801" lon="17.7162759">
        <ele>23.209</ele>
        <time>2014-06-10T19:39:41Z</time>
      </trkpt>
      <trkpt lat="59.9678216" lon="17.7163752">
        <ele>23.6896</ele>
        <time>2014-06-10T19:39:42Z</time>
      </trkpt>
      <trkpt lat="59.9678646" lon="17.7164661">
        <ele>24.651</ele>
        <time>2014-06-10T19:39:43Z</time>
      </trkpt>
      <trkpt lat="59.9679105" lon="17.7165496">
        <ele>24.651</ele>
        <time>2014-06-10T19:39:44Z</time>
      </trkpt>
      <trkpt lat="59.9679568" lon="17.7166282">
        <ele>25.1317</ele>
        <time>2014-06-10T19:39:45Z</time>
      </trkpt>
      <trkpt lat="59.9680025" lon="17.7167023">
        <ele>25.6123</ele>
        <time>2014-06-10T19:39:46Z</time>
      </trkpt>
      <trkpt lat="59.9680495" lon="17.7167741">
        <ele>26.0929</ele>
        <time>2014-06-10T19:39:47Z</time>
      </trkpt>
      <trkpt lat="59.9680978" lon="17.7168414">
        <ele>26.5736</ele>
        <time>2014-06-10T19:39:48Z</time>
      </trkpt>
      <trkpt lat="59.9681486" lon="17.7169028">
        <ele>27.0543</ele>
        <time>2014-06-10T19:39:49Z</time>
      </trkpt>
      <trkpt lat="59.9682001" lon="17.7169616">
        <ele>27.5349</ele>
        <time>2014-06-10T19:39:50Z</time>
      </trkpt>
      <trkpt lat="59.9682517" lon="17.717018">
        <ele>28.0155</ele>
        <time>2014-06-10T19:39:51Z</time>
      </trkpt>
      <trkpt lat="59.9683044" lon="17.7170691">
        <ele>28.0155</ele>
        <time>2014-06-10T19:39:52Z</time>
      </trkpt>
      <trkpt lat="59.9683592" lon="17.7171135">
        <ele>28.4962</ele>
        <time>2014-06-10T19:39:53Z</time>
      </trkpt>
      <trkpt lat="59.9684146" lon="17.717154">
        <ele>28.9769</ele>
        <time>2014-06-10T19:39:54Z</time>
      </trkpt>
      <trkpt lat="59.968471" lon="17.7171917">
        <ele>28.9769</ele>
        <time>2014-06-10T19:39:55Z</time>
      </trkpt>
      <trkpt lat="59.9685287" lon="17.7172254">
        <ele>29.4575</ele>
        <time>2014-06-10T19:39:56Z</time>
      </trkpt>
      <trkpt lat="59.9685872" lon="17.7172576">
        <ele>29.4575</ele>
        <time>2014-06-10T19:39:57Z</time>
      </trkpt>
      <trkpt lat="59.9686469" lon="17.7172861">
        <ele>29.9381</ele>
        <time>2014-06-10T19:39:58Z</time>
      </trkpt>
      <trkpt lat="59.9687062" lon="17.7173108">
        <ele>30.4188</ele>
        <time>2014-06-10T19:39:59Z</time>
      </trkpt>
      <trkpt lat="59.9687632" lon="17.717334">
        <ele>30.4188</ele>
        <time>2014-06-10T19:40:00Z</time>
      </trkpt>
      <trkpt lat="59.9688194" lon="17.7173555">
        <ele>30.8995</ele>
        <time>2014-06-10T19:40:01Z</time>
      </trkpt>
      <trkpt lat="59.9688762" lon="17.7173776">
        <ele>30.8995</ele>
        <time>2014-06-10T19:40:02Z</time>
      </trkpt>
      <trkpt lat="59.9689338" lon="17.7174026">
        <ele>30.8995</ele>
        <time>2014-06-10T19:40:03Z</time>
      </trkpt>
      <trkpt lat="59.9689922" lon="17.717425">
        <ele>31.3801</ele>
        <time>2014-06-10T19:40:04Z</time>
      </trkpt>
      <trkpt lat="59.9690514" lon="17.717443">
        <ele>31.3801</ele>
        <time>2014-06-10T19:40:05Z</time>
      </trkpt>
      <trkpt lat="59.9691119" lon="17.7174626">
        <ele>31.3801</ele>
        <time>2014-06-10T19:40:06Z</time>
      </trkpt>
      <trkpt lat="59.9691729" lon="17.7174853">
        <ele>31.3801</ele>
        <time>2014-06-10T19:40:07Z</time>
      </trkpt>
      <trkpt lat="59.9692342" lon="17.7175102">
        <ele>31.3801</ele>
        <time>2014-06-10T19:40:08Z</time>
      </trkpt>
      <trkpt lat="59.9692964" lon="17.7175356">
        <ele>31.3801</ele>
        <time>2014-06-10T19:40:09Z</time>
      </trkpt>
      <trkpt lat="59.9693602" lon="17.7175627">
        <ele>31.3801</ele>
        <time>2014-06-10T19:40:10Z</time>
      </trkpt>
      <trkpt lat="59.9694254" lon="17.7175951">
        <ele>31.3801</ele>
        <time>2014-06-10T19:40:11Z</time>
      </trkpt>
      <trkpt lat="59.9694912" lon="17.7176327">
        <ele>31.3801</ele>
        <time>2014-06-10T19:40:12Z</time>
      </trkpt>
      <trkpt lat="59.9695579" lon="17.7176731">
        <ele>31.3801</ele>
        <time>2014-06-10T19:40:13Z</time>
      </trkpt>
      <trkpt lat="59.9696253" lon="17.7177158">
        <ele>31.3801</ele>
        <time>2014-06-10T19:40:14Z</time>
      </trkpt>
      <trkpt lat="59.9696926" lon="17.7177619">
        <ele>31.3801</ele>
        <time>2014-06-10T19:40:15Z</time>
      </trkpt>
      <trkpt lat="59.9697596" lon="17.7178108">
        <ele>30.8995</ele>
        <time>2014-06-10T19:40:16Z</time>
      </trkpt>
      <trkpt lat="59.9698265" lon="17.7178611">
        <ele>30.8995</ele>
        <time>2014-06-10T19:40:17Z</time>
      </trkpt>
      <trkpt lat="59.9698931" lon="17.7179149">
        <ele>30.8995</ele>
        <time>2014-06-10T19:40:18Z</time>
      </trkpt>
      <trkpt lat="59.9699589" lon="17.7179722">
        <ele>30.8995</ele>
        <time>2014-06-10T19:40:19Z</time>
      </trkpt>
      <trkpt lat="59.9700246" lon="17.7180309">
        <ele>30.8995</ele>
        <time>2014-06-10T19:40:20Z</time>
      </trkpt>
      <trkpt lat="59.9700905" lon="17.7180898">
        <ele>30.8995</ele>
        <time>2014-06-10T19:40:21Z</time>
      </trkpt>
      <trkpt lat="59.9701563" lon="17.7181485">
        <ele>30.8995</ele>
        <time>2014-06-10T19:40:22Z</time>
      </trkpt>
      <trkpt lat="59.9702217" lon="17.7182075">
        <ele>30.8995</ele>
        <time>2014-06-10T19:40:23Z</time>
      </trkpt>
      <trkpt lat="59.9702869" lon="17.7182672">
        <ele>30.8995</ele>
        <time>2014-06-10T19:40:24Z</time>
      </trkpt>
      <trkpt lat="59.9703516" lon="17.7183266">
        <ele>30.8995</ele>
        <time>2014-06-10T19:40:25Z</time>
      </trkpt>
      <trkpt lat="59.970416" lon="17.7183849">
        <ele>30.8995</ele>
        <time>2014-06-10T19:40:26Z</time>
      </trkpt>
      <trkpt lat="59.9704804" lon="17.7184431">
        <ele>30.8995</ele>
        <time>2014-06-10T19:40:27Z</time>
      </trkpt>
      <trkpt lat="59.9705446" lon="17.7185019">
        <ele>30.8995</ele>
        <time>2014-06-10T19:40:28Z</time>
      </trkpt>
      <trkpt lat="59.9706086" lon="17.7185612">
        <ele>30.8995</ele>
        <time>2014-06-10T19:40:29Z</time>
      </trkpt>
      <trkpt lat="59.9706728" lon="17.7186193">
        <ele>30.8995</ele>
        <time>2014-06-10T19:40:30Z</time>
      </trkpt>
      <trkpt lat="59.970737" lon="17.718677">
        <ele>30.8995</ele>
        <time>2014-06-10T19:40:31Z</time>
      </trkpt>
      <trkpt lat="59.9708008" lon="17.7187348">
        <ele>30.8995</ele>
        <time>2014-06-10T19:40:32Z</time>
      </trkpt>
      <trkpt lat="59.970865" lon="17.7187924">
        <ele>30.8995</ele>
        <time>2014-06-10T19:40:33Z</time>
      </trkpt>
      <trkpt lat="59.9709292" lon="17.7188506">
        <ele>30.8995</ele>
        <time>2014-06-10T19:40:34Z</time>
      </trkpt>
      <trkpt lat="59.9709929" lon="17.7189103">
        <ele>30.8995</ele>
        <time>2014-06-10T19:40:35Z</time>
      </trkpt>
      <trkpt lat="59.9710561" lon="17.71897">
        <ele>30.8995</ele>
        <time>2014-06-10T19:40:36Z</time>
      </trkpt>
      <trkpt lat="59.9711197" lon="17.7190285">
        <ele>30.8995</ele>
        <time>2014-06-10T19:40:37Z</time>
      </trkpt>
      <trkpt lat="59.9711835" lon="17.7190854">
        <ele>30.8995</ele>
        <time>2014-06-10T19:40:38Z</time>
      </trkpt>
      <trkpt lat="59.9712478" lon="17.7191411">
        <ele>30.8995</ele>
        <time>2014-06-10T19:40:39Z</time>
      </trkpt>
      <trkpt lat="59.9713116" lon="17.7191979">
        <ele>30.8995</ele>
        <time>2014-06-10T19:40:40Z</time>
      </trkpt>
      <trkpt lat="59.971376" lon="17.7192569">
        <ele>30.4188</ele>
        <time>2014-06-10T19:40:41Z</time>
      </trkpt>
      <trkpt lat="59.9714409" lon="17.7193172">
        <ele>30.4188</ele>
        <time>2014-06-10T19:40:42Z</time>
      </trkpt>
      <trkpt lat="59.9715063" lon="17.7193778">
        <ele>30.4188</ele>
        <time>2014-06-10T19:40:43Z</time>
      </trkpt>
      <trkpt lat="59.9715721" lon="17.7194373">
        <ele>30.4188</ele>
        <time>2014-06-10T19:40:44Z</time>
      </trkpt>
      <trkpt lat="59.9716385" lon="17.7194973">
        <ele>30.4188</ele>
        <time>2014-06-10T19:40:45Z</time>
      </trkpt>
      <trkpt lat="59.9717055" lon="17.7195585">
        <ele>30.4188</ele>
        <time>2014-06-10T19:40:46Z</time>
      </trkpt>
      <trkpt lat="59.9717725" lon="17.719619">
        <ele>29.9381</ele>
        <time>2014-06-10T19:40:47Z</time>
      </trkpt>
      <trkpt lat="59.9718396" lon="17.7196793">
        <ele>29.9381</ele>
        <time>2014-06-10T19:40:48Z</time>
      </trkpt>
      <trkpt lat="59.9719067" lon="17.7197405">
        <ele>29.9381</ele>
        <time>2014-06-10T19:40:49Z</time>
      </trkpt>
      <trkpt lat="59.9719735" lon="17.7198011">
        <ele>29.9381</ele>
        <time>2014-06-10T19:40:50Z</time>
      </trkpt>
      <trkpt lat="59.9720403" lon="17.7198605">
        <ele>29.9381</ele>
        <time>2014-06-10T19:40:51Z</time>
      </trkpt>
      <trkpt lat="59.9721071" lon="17.7199191">
        <ele>29.9381</ele>
        <time>2014-06-10T19:40:52Z</time>
      </trkpt>
      <trkpt lat="59.9721739" lon="17.7199782">
        <ele>29.4575</ele>
        <time>2014-06-10T19:40:53Z</time>
      </trkpt>
      <trkpt lat="59.9722408" lon="17.7200389">
        <ele>29.4575</ele>
        <time>2014-06-10T19:40:54Z</time>
      </trkpt>
      <trkpt lat="59.9723081" lon="17.7201007">
        <ele>29.4575</ele>
        <time>2014-06-10T19:40:55Z</time>
      </trkpt>
      <trkpt lat="59.9723756" lon="17.7201626">
        <ele>29.4575</ele>
        <time>2014-06-10T19:40:56Z</time>
      </trkpt>
      <trkpt lat="59.9724431" lon="17.720225">
        <ele>28.9769</ele>
        <time>2014-06-10T19:40:57Z</time>
      </trkpt>
      <trkpt lat="59.9725105" lon="17.7202869">
        <ele>28.9769</ele>
        <time>2014-06-10T19:40:58Z</time>
      </trkpt>
      <trkpt lat="59.9725778" lon="17.7203494">
        <ele>28.9769</ele>
        <time>2014-06-10T19:40:59Z</time>
      </trkpt>
      <trkpt lat="59.9726457" lon="17.7204131">
        <ele>28.9769</ele>
        <time>2014-06-10T19:41:00Z</time>
      </trkpt>
      <trkpt lat="59.9727136" lon="17.7204792">
        <ele>28.9769</ele>
        <time>2014-06-10T19:41:01Z</time>
      </trkpt>
      <trkpt lat="59.9727811" lon="17.7205485">
        <ele>28.9769</ele>
        <time>2014-06-10T19:41:02Z</time>
      </trkpt>
      <trkpt lat="59.9728483" lon="17.7206215">
        <ele>28.9769</ele>
        <time>2014-06-10T19:41:03Z</time>
      </trkpt>
      <trkpt lat="59.972915" lon="17.7206995">
        <ele>28.9769</ele>
        <time>2014-06-10T19:41:04Z</time>
      </trkpt>
      <trkpt lat="59.9729804" lon="17.7207811">
        <ele>28.9769</ele>
        <time>2014-06-10T19:41:05Z</time>
      </trkpt>
      <trkpt lat="59.9730445" lon="17.720867">
        <ele>28.4962</ele>
        <time>2014-06-10T19:41:06Z</time>
      </trkpt>
      <trkpt lat="59.9731075" lon="17.7209562">
        <ele>28.4962</ele>
        <time>2014-06-10T19:41:07Z</time>
      </trkpt>
      <trkpt lat="59.9731696" lon="17.7210482">
        <ele>28.4962</ele>
        <time>2014-06-10T19:41:08Z</time>
      </trkpt>
      <trkpt lat="59.9732307" lon="17.7211427">
        <ele>28.4962</ele>
        <time>2014-06-10T19:41:09Z</time>
      </trkpt>
      <trkpt lat="59.9732898" lon="17.7212406">
        <ele>28.4962</ele>
        <time>2014-06-10T19:41:10Z</time>
      </trkpt>
      <trkpt lat="59.9733467" lon="17.7213421">
        <ele>28.4962</ele>
        <time>2014-06-10T19:41:11Z</time>
      </trkpt>
      <trkpt lat="59.9734011" lon="17.721447">
        <ele>28.4962</ele>
        <time>2014-06-10T19:41:12Z</time>
      </trkpt>
      <trkpt lat="59.9734533" lon="17.7215549">
        <ele>28.4962</ele>
        <time>2014-06-10T19:41:13Z</time>
      </trkpt>
      <trkpt lat="59.9735037" lon="17.7216653">
        <ele>28.4962</ele>
        <time>2014-06-10T19:41:14Z</time>
      </trkpt>
      <trkpt lat="59.9735527" lon="17.7217777">
        <ele>28.4962</ele>
        <time>2014-06-10T19:41:15Z</time>
      </trkpt>
      <trkpt lat="59.9736001" lon="17.7218916">
        <ele>28.4962</ele>
        <time>2014-06-10T19:41:16Z</time>
      </trkpt>
      <trkpt lat="59.9736459" lon="17.7220062">
        <ele>28.4962</ele>
        <time>2014-06-10T19:41:17Z</time>
      </trkpt>
      <trkpt lat="59.9736897" lon="17.7221225">
        <ele>28.4962</ele>
        <time>2014-06-10T19:41:18Z</time>
      </trkpt>
      <trkpt lat="59.9737321" lon="17.7222399">
        <ele>28.4962</ele>
        <time>2014-06-10T19:41:19Z</time>
      </trkpt>
      <trkpt lat="59.9737725" lon="17.7223584">
        <ele>28.4962</ele>
        <time>2014-06-10T19:41:20Z</time>
      </trkpt>
      <trkpt lat="59.9738098" lon="17.722479">
        <ele>28.0155</ele>
        <time>2014-06-10T19:41:21Z</time>
      </trkpt>
      <trkpt lat="59.9738451" lon="17.7226012">
        <ele>28.0155</ele>
        <time>2014-06-10T19:41:22Z</time>
      </trkpt>
      <trkpt lat="59.9738785" lon="17.7227246">
        <ele>28.4962</ele>
        <time>2014-06-10T19:41:23Z</time>
      </trkpt>
      <trkpt lat="59.9739107" lon="17.722849">
        <ele>28.4962</ele>
        <time>2014-06-10T19:41:24Z</time>
      </trkpt>
      <trkpt lat="59.9739417" lon="17.7229734">
        <ele>28.4962</ele>
        <time>2014-06-10T19:41:25Z</time>
      </trkpt>
      <trkpt lat="59.9739707" lon="17.7230997">
        <ele>28.4962</ele>
        <time>2014-06-10T19:41:26Z</time>
      </trkpt>
      <trkpt lat="59.9739975" lon="17.7232286">
        <ele>28.4962</ele>
        <time>2014-06-10T19:41:27Z</time>
      </trkpt>
      <trkpt lat="59.9740225" lon="17.7233582">
        <ele>28.4962</ele>
        <time>2014-06-10T19:41:28Z</time>
      </trkpt>
      <trkpt lat="59.9740451" lon="17.7234877">
        <ele>28.4962</ele>
        <time>2014-06-10T19:41:29Z</time>
      </trkpt>
      <trkpt lat="59.9740666" lon="17.7236164">
        <ele>28.9769</ele>
        <time>2014-06-10T19:41:30Z</time>
      </trkpt>
      <trkpt lat="59.9740875" lon="17.7237444">
        <ele>28.9769</ele>
        <time>2014-06-10T19:41:31Z</time>
      </trkpt>
      <trkpt lat="59.974108" lon="17.7238731">
        <ele>28.9769</ele>
        <time>2014-06-10T19:41:32Z</time>
      </trkpt>
      <trkpt lat="59.9741279" lon="17.7240018">
        <ele>28.9769</ele>
        <time>2014-06-10T19:41:33Z</time>
      </trkpt>
      <trkpt lat="59.9741476" lon="17.7241298">
        <ele>28.9769</ele>
        <time>2014-06-10T19:41:34Z</time>
      </trkpt>
      <trkpt lat="59.9741662" lon="17.7242575">
        <ele>28.9769</ele>
        <time>2014-06-10T19:41:35Z</time>
      </trkpt>
      <trkpt lat="59.9741844" lon="17.7243868">
        <ele>28.9769</ele>
        <time>2014-06-10T19:41:36Z</time>
      </trkpt>
      <trkpt lat="59.9742033" lon="17.7245173">
        <ele>29.4575</ele>
        <time>2014-06-10T19:41:37Z</time>
      </trkpt>
      <trkpt lat="59.9742213" lon="17.7246489">
        <ele>28.9769</ele>
        <time>2014-06-10T19:41:38Z</time>
      </trkpt>
      <trkpt lat="59.9742393" lon="17.724781">
        <ele>28.9769</ele>
        <time>2014-06-10T19:41:39Z</time>
      </trkpt>
      <trkpt lat="59.9742577" lon="17.7249137">
        <ele>28.9769</ele>
        <time>2014-06-10T19:41:40Z</time>
      </trkpt>
      <trkpt lat="59.9742753" lon="17.7250477">
        <ele>28.9769</ele>
        <time>2014-06-10T19:41:41Z</time>
      </trkpt>
      <trkpt lat="59.9742922" lon="17.7251829">
        <ele>28.4962</ele>
        <time>2014-06-10T19:41:42Z</time>
      </trkpt>
      <trkpt lat="59.9743087" lon="17.7253192">
        <ele>28.4962</ele>
        <time>2014-06-10T19:41:43Z</time>
      </trkpt>
      <trkpt lat="59.9743237" lon="17.725456">
        <ele>28.4962</ele>
        <time>2014-06-10T19:41:44Z</time>
      </trkpt>
      <trkpt lat="59.9743376" lon="17.7255934">
        <ele>28.4962</ele>
        <time>2014-06-10T19:41:45Z</time>
      </trkpt>
      <trkpt lat="59.9743495" lon="17.725731">
        <ele>28.0155</ele>
        <time>2014-06-10T19:41:46Z</time>
      </trkpt>
      <trkpt lat="59.9743598" lon="17.7258695">
        <ele>28.0155</ele>
        <time>2014-06-10T19:41:47Z</time>
      </trkpt>
      <trkpt lat="59.9743689" lon="17.7260097">
        <ele>28.0155</ele>
        <time>2014-06-10T19:41:48Z</time>
      </trkpt>
      <trkpt lat="59.9743767" lon="17.7261507">
        <ele>27.5349</ele>
        <time>2014-06-10T19:41:49Z</time>
      </trkpt>
      <trkpt lat="59.9743844" lon="17.7262921">
        <ele>28.0155</ele>
        <time>2014-06-10T19:41:50Z</time>
      </trkpt>
      <trkpt lat="59.9743896" lon="17.7264324">
        <ele>27.5349</ele>
        <time>2014-06-10T19:41:51Z</time>
      </trkpt>
      <trkpt lat="59.9743941" lon="17.726572">
        <ele>27.5349</ele>
        <time>2014-06-10T19:41:52Z</time>
      </trkpt>
      <trkpt lat="59.9743988" lon="17.7267114">
        <ele>27.5349</ele>
        <time>2014-06-10T19:41:53Z</time>
      </trkpt>
      <trkpt lat="59.9744031" lon="17.7268507">
        <ele>27.5349</ele>
        <time>2014-06-10T19:41:54Z</time>
      </trkpt>
      <trkpt lat="59.9744056" lon="17.7269892">
        <ele>27.5349</ele>
        <time>2014-06-10T19:41:55Z</time>
      </trkpt>
      <trkpt lat="59.974403" lon="17.727127">
        <ele>27.5349</ele>
        <time>2014-06-10T19:41:56Z</time>
      </trkpt>
      <trkpt lat="59.9744048" lon="17.7272694">
        <ele>27.0543</ele>
        <time>2014-06-10T19:41:57Z</time>
      </trkpt>
      <trkpt lat="59.9744045" lon="17.7274143">
        <ele>27.0543</ele>
        <time>2014-06-10T19:41:58Z</time>
      </trkpt>
      <trkpt lat="59.9744053" lon="17.7275632">
        <ele>26.5736</ele>
        <time>2014-06-10T19:41:59Z</time>
      </trkpt>
      <trkpt lat="59.9744101" lon="17.7277149">
        <ele>26.0929</ele>
        <time>2014-06-10T19:42:00Z</time>
      </trkpt>
      <trkpt lat="59.9744118" lon="17.7278663">
        <ele>26.0929</ele>
        <time>2014-06-10T19:42:01Z</time>
      </trkpt>
      <trkpt lat="59.9744148" lon="17.7280187">
        <ele>25.6123</ele>
        <time>2014-06-10T19:42:02Z</time>
      </trkpt>
      <trkpt lat="59.974417" lon="17.7281711">
        <ele>25.6123</ele>
        <time>2014-06-10T19:42:03Z</time>
      </trkpt>
      <trkpt lat="59.9744195" lon="17.7283228">
        <ele>25.6123</ele>
        <time>2014-06-10T19:42:04Z</time>
      </trkpt>
      <trkpt lat="59.9744227" lon="17.7284728">
        <ele>25.6123</ele>
        <time>2014-06-10T19:42:05Z</time>
      </trkpt>
      <trkpt lat="59.9744273" lon="17.7286202">
        <ele>25.6123</ele>
        <time>2014-06-10T19:42:06Z</time>
      </trkpt>
      <trkpt lat="59.9744315" lon="17.7287657">
        <ele>25.6123</ele>
        <time>2014-06-10T19:42:07Z</time>
      </trkpt>
      <trkpt lat="59.9744362" lon="17.7289107">
        <ele>25.6123</ele>
        <time>2014-06-10T19:42:08Z</time>
      </trkpt>
      <trkpt lat="59.9744413" lon="17.7290552">
        <ele>25.6123</ele>
        <time>2014-06-10T19:42:09Z</time>
      </trkpt>
      <trkpt lat="59.9744456" lon="17.7291993">
        <ele>25.6123</ele>
        <time>2014-06-10T19:42:10Z</time>
      </trkpt>
      <trkpt lat="59.9744485" lon="17.7293431">
        <ele>25.6123</ele>
        <time>2014-06-10T19:42:11Z</time>
      </trkpt>
      <trkpt lat="59.9744481" lon="17.7294865">
        <ele>25.6123</ele>
        <time>2014-06-10T19:42:12Z</time>
      </trkpt>
      <trkpt lat="59.9744442" lon="17.7296296">
        <ele>25.6123</ele>
        <time>2014-06-10T19:42:13Z</time>
      </trkpt>
      <trkpt lat="59.9744372" lon="17.729771">
        <ele>25.6123</ele>
        <time>2014-06-10T19:42:14Z</time>
      </trkpt>
      <trkpt lat="59.9744282" lon="17.7299097">
        <ele>25.6123</ele>
        <time>2014-06-10T19:42:15Z</time>
      </trkpt>
      <trkpt lat="59.9744173" lon="17.7300452">
        <ele>25.6123</ele>
        <time>2014-06-10T19:42:16Z</time>
      </trkpt>
      <trkpt lat="59.9743962" lon="17.7303102">
        <ele>25.6123</ele>
        <time>2014-06-10T19:42:18Z</time>
      </trkpt>
      <trkpt lat="59.9743852" lon="17.7304404">
        <ele>26.0929</ele>
        <time>2014-06-10T19:42:19Z</time>
      </trkpt>
      <trkpt lat="59.9743741" lon="17.7305698">
        <ele>26.0929</ele>
        <time>2014-06-10T19:42:20Z</time>
      </trkpt>
      <trkpt lat="59.9743646" lon="17.730699">
        <ele>26.0929</ele>
        <time>2014-06-10T19:42:21Z</time>
      </trkpt>
      <trkpt lat="59.9743552" lon="17.7308292">
        <ele>26.0929</ele>
        <time>2014-06-10T19:42:22Z</time>
      </trkpt>
      <trkpt lat="59.9743468" lon="17.7309598">
        <ele>26.0929</ele>
        <time>2014-06-10T19:42:23Z</time>
      </trkpt>
      <trkpt lat="59.9743396" lon="17.7310901">
        <ele>26.0929</ele>
        <time>2014-06-10T19:42:24Z</time>
      </trkpt>
      <trkpt lat="59.9743325" lon="17.7312205">
        <ele>26.0929</ele>
        <time>2014-06-10T19:42:25Z</time>
      </trkpt>
      <trkpt lat="59.9743264" lon="17.7313511">
        <ele>26.0929</ele>
        <time>2014-06-10T19:42:26Z</time>
      </trkpt>
      <trkpt lat="59.9743221" lon="17.731482">
        <ele>26.0929</ele>
        <time>2014-06-10T19:42:27Z</time>
      </trkpt>
      <trkpt lat="59.9743196" lon="17.7316128">
        <ele>26.0929</ele>
        <time>2014-06-10T19:42:28Z</time>
      </trkpt>
      <trkpt lat="59.9743189" lon="17.7317431">
        <ele>26.0929</ele>
        <time>2014-06-10T19:42:29Z</time>
      </trkpt>
      <trkpt lat="59.9743194" lon="17.7318713">
        <ele>26.0929</ele>
        <time>2014-06-10T19:42:30Z</time>
      </trkpt>
      <trkpt lat="59.9743211" lon="17.7319985">
        <ele>26.0929</ele>
        <time>2014-06-10T19:42:31Z</time>
      </trkpt>
      <trkpt lat="59.9743237" lon="17.7321246">
        <ele>26.0929</ele>
        <time>2014-06-10T19:42:32Z</time>
      </trkpt>
      <trkpt lat="59.9743268" lon="17.7322497">
        <ele>26.0929</ele>
        <time>2014-06-10T19:42:33Z</time>
      </trkpt>
      <trkpt lat="59.9743299" lon="17.7323737">
        <ele>26.0929</ele>
        <time>2014-06-10T19:42:34Z</time>
      </trkpt>
      <trkpt lat="59.9743325" lon="17.7324974">
        <ele>26.0929</ele>
        <time>2014-06-10T19:42:35Z</time>
      </trkpt>
      <trkpt lat="59.9743352" lon="17.7326207">
        <ele>26.0929</ele>
        <time>2014-06-10T19:42:36Z</time>
      </trkpt>
      <trkpt lat="59.9743375" lon="17.7327433">
        <ele>26.0929</ele>
        <time>2014-06-10T19:42:37Z</time>
      </trkpt>
      <trkpt lat="59.9743377" lon="17.7328655">
        <ele>26.0929</ele>
        <time>2014-06-10T19:42:38Z</time>
      </trkpt>
      <trkpt lat="59.9743362" lon="17.7329869">
        <ele>26.0929</ele>
        <time>2014-06-10T19:42:39Z</time>
      </trkpt>
      <trkpt lat="59.9743335" lon="17.7331081">
        <ele>26.0929</ele>
        <time>2014-06-10T19:42:40Z</time>
      </trkpt>
      <trkpt lat="59.9743303" lon="17.7332299">
        <ele>26.0929</ele>
        <time>2014-06-10T19:42:41Z</time>
      </trkpt>
      <trkpt lat="59.9743264" lon="17.733351">
        <ele>26.0929</ele>
        <time>2014-06-10T19:42:42Z</time>
      </trkpt>
      <trkpt lat="59.9743222" lon="17.7334708">
        <ele>26.0929</ele>
        <time>2014-06-10T19:42:43Z</time>
      </trkpt>
      <trkpt lat="59.974317" lon="17.7335894">
        <ele>26.0929</ele>
        <time>2014-06-10T19:42:44Z</time>
      </trkpt>
      <trkpt lat="59.9743112" lon="17.7337071">
        <ele>26.0929</ele>
        <time>2014-06-10T19:42:45Z</time>
      </trkpt>
      <trkpt lat="59.9743052" lon="17.7338238">
        <ele>26.5736</ele>
        <time>2014-06-10T19:42:46Z</time>
      </trkpt>
      <trkpt lat="59.9742989" lon="17.7339397">
        <ele>26.5736</ele>
        <time>2014-06-10T19:42:47Z</time>
      </trkpt>
      <trkpt lat="59.9742931" lon="17.7340577">
        <ele>26.5736</ele>
        <time>2014-06-10T19:42:48Z</time>
      </trkpt>
      <trkpt lat="59.9742885" lon="17.7341771">
        <ele>26.5736</ele>
        <time>2014-06-10T19:42:49Z</time>
      </trkpt>
      <trkpt lat="59.9742852" lon="17.7342969">
        <ele>26.5736</ele>
        <time>2014-06-10T19:42:50Z</time>
      </trkpt>
      <trkpt lat="59.9742829" lon="17.7344161">
        <ele>26.5736</ele>
        <time>2014-06-10T19:42:51Z</time>
      </trkpt>
      <trkpt lat="59.9742816" lon="17.7345343">
        <ele>26.5736</ele>
        <time>2014-06-10T19:42:52Z</time>
      </trkpt>
      <trkpt lat="59.9742818" lon="17.7346522">
        <ele>26.5736</ele>
        <time>2014-06-10T19:42:53Z</time>
      </trkpt>
      <trkpt lat="59.9742841" lon="17.7347699">
        <ele>26.5736</ele>
        <time>2014-06-10T19:42:54Z</time>
      </trkpt>
      <trkpt lat="59.9742888" lon="17.7348865">
        <ele>26.5736</ele>
        <time>2014-06-10T19:42:55Z</time>
      </trkpt>
      <trkpt lat="59.9742963" lon="17.7350018">
        <ele>27.0543</ele>
        <time>2014-06-10T19:42:56Z</time>
      </trkpt>
      <trkpt lat="59.9743044" lon="17.7351165">
        <ele>27.0543</ele>
        <time>2014-06-10T19:42:57Z</time>
      </trkpt>
      <trkpt lat="59.9743119" lon="17.7352313">
        <ele>27.0543</ele>
        <time>2014-06-10T19:42:58Z</time>
      </trkpt>
      <trkpt lat="59.974321" lon="17.7353439">
        <ele>27.0543</ele>
        <time>2014-06-10T19:42:59Z</time>
      </trkpt>
      <trkpt lat="59.9743329" lon="17.7354528">
        <ele>27.0543</ele>
        <time>2014-06-10T19:43:00Z</time>
      </trkpt>
      <trkpt lat="59.974347" lon="17.7355584">
        <ele>27.0543</ele>
        <time>2014-06-10T19:43:01Z</time>
      </trkpt>
      <trkpt lat="59.9743625" lon="17.7356625">
        <ele>27.5349</ele>
        <time>2014-06-10T19:43:02Z</time>
      </trkpt>
      <trkpt lat="59.9743781" lon="17.7357658">
        <ele>27.5349</ele>
        <time>2014-06-10T19:43:03Z</time>
      </trkpt>
      <trkpt lat="59.9743948" lon="17.7358674">
        <ele>27.5349</ele>
        <time>2014-06-10T19:43:04Z</time>
      </trkpt>
      <trkpt lat="59.9744133" lon="17.7359681">
        <ele>27.5349</ele>
        <time>2014-06-10T19:43:05Z</time>
      </trkpt>
      <trkpt lat="59.9744335" lon="17.7360691">
        <ele>27.5349</ele>
        <time>2014-06-10T19:43:06Z</time>
      </trkpt>
      <trkpt lat="59.9744553" lon="17.7361713">
        <ele>27.5349</ele>
        <time>2014-06-10T19:43:07Z</time>
      </trkpt>
      <trkpt lat="59.9744782" lon="17.7362751">
        <ele>28.0155</ele>
        <time>2014-06-10T19:43:08Z</time>
      </trkpt>
      <trkpt lat="59.9745034" lon="17.7363789">
        <ele>28.0155</ele>
        <time>2014-06-10T19:43:09Z</time>
      </trkpt>
      <trkpt lat="59.9745309" lon="17.7364825">
        <ele>28.0155</ele>
        <time>2014-06-10T19:43:10Z</time>
      </trkpt>
      <trkpt lat="59.9745604" lon="17.7365864">
        <ele>28.0155</ele>
        <time>2014-06-10T19:43:11Z</time>
      </trkpt>
      <trkpt lat="59.9745918" lon="17.7366898">
        <ele>28.0155</ele>
        <time>2014-06-10T19:43:12Z</time>
      </trkpt>
      <trkpt lat="59.9746248" lon="17.7367922">
        <ele>28.0155</ele>
        <time>2014-06-10T19:43:13Z</time>
      </trkpt>
      <trkpt lat="59.9746597" lon="17.7368937">
        <ele>28.0155</ele>
        <time>2014-06-10T19:43:14Z</time>
      </trkpt>
      <trkpt lat="59.9746954" lon="17.7369952">
        <ele>28.0155</ele>
        <time>2014-06-10T19:43:15Z</time>
      </trkpt>
      <trkpt lat="59.9747322" lon="17.7370958">
        <ele>28.0155</ele>
        <time>2014-06-10T19:43:16Z</time>
      </trkpt>
      <trkpt lat="59.9747708" lon="17.7371945">
        <ele>28.0155</ele>
        <time>2014-06-10T19:43:17Z</time>
      </trkpt>
      <trkpt lat="59.9748107" lon="17.7372921">
        <ele>28.4962</ele>
        <time>2014-06-10T19:43:18Z</time>
      </trkpt>
      <trkpt lat="59.9748505" lon="17.7373881">
        <ele>28.4962</ele>
        <time>2014-06-10T19:43:19Z</time>
      </trkpt>
      <trkpt lat="59.9748904" lon="17.7374817">
        <ele>28.4962</ele>
        <time>2014-06-10T19:43:20Z</time>
      </trkpt>
      <trkpt lat="59.9749311" lon="17.737572">
        <ele>28.4962</ele>
        <time>2014-06-10T19:43:21Z</time>
      </trkpt>
      <trkpt lat="59.9749728" lon="17.7376594">
        <ele>28.9769</ele>
        <time>2014-06-10T19:43:22Z</time>
      </trkpt>
      <trkpt lat="59.9750152" lon="17.7377446">
        <ele>28.9769</ele>
        <time>2014-06-10T19:43:23Z</time>
      </trkpt>
      <trkpt lat="59.9750588" lon="17.7378276">
        <ele>28.9769</ele>
        <time>2014-06-10T19:43:24Z</time>
      </trkpt>
      <trkpt lat="59.9751045" lon="17.7379085">
        <ele>28.9769</ele>
        <time>2014-06-10T19:43:25Z</time>
      </trkpt>
      <trkpt lat="59.975152" lon="17.7379886">
        <ele>28.9769</ele>
        <time>2014-06-10T19:43:26Z</time>
      </trkpt>
      <trkpt lat="59.975199" lon="17.7380702">
        <ele>28.9769</ele>
        <time>2014-06-10T19:43:27Z</time>
      </trkpt>
      <trkpt lat="59.9752461" lon="17.7381524">
        <ele>28.9769</ele>
        <time>2014-06-10T19:43:28Z</time>
      </trkpt>
      <trkpt lat="59.9752937" lon="17.738235">
        <ele>28.9769</ele>
        <time>2014-06-10T19:43:29Z</time>
      </trkpt>
      <trkpt lat="59.9753411" lon="17.7383187">
        <ele>28.9769</ele>
        <time>2014-06-10T19:43:30Z</time>
      </trkpt>
      <trkpt lat="59.9753883" lon="17.7384017">
        <ele>28.9769</ele>
        <time>2014-06-10T19:43:31Z</time>
      </trkpt>
      <trkpt lat="59.9754359" lon="17.738484">
        <ele>28.9769</ele>
        <time>2014-06-10T19:43:32Z</time>
      </trkpt>
      <trkpt lat="59.9754835" lon="17.7385654">
        <ele>28.9769</ele>
        <time>2014-06-10T19:43:33Z</time>
      </trkpt>
      <trkpt lat="59.9755317" lon="17.7386449">
        <ele>28.9769</ele>
        <time>2014-06-10T19:43:34Z</time>
      </trkpt>
      <trkpt lat="59.9755792" lon="17.7387243">
        <ele>28.9769</ele>
        <time>2014-06-10T19:43:35Z</time>
      </trkpt>
      <trkpt lat="59.9756258" lon="17.7388057">
        <ele>28.9769</ele>
        <time>2014-06-10T19:43:36Z</time>
      </trkpt>
      <trkpt lat="59.975672" lon="17.7388874">
        <ele>28.9769</ele>
        <time>2014-06-10T19:43:37Z</time>
      </trkpt>
      <trkpt lat="59.9757177" lon="17.7389668">
        <ele>28.9769</ele>
        <time>2014-06-10T19:43:38Z</time>
      </trkpt>
      <trkpt lat="59.9757622" lon="17.7390435">
        <ele>28.9769</ele>
        <time>2014-06-10T19:43:39Z</time>
      </trkpt>
      <trkpt lat="59.9758045" lon="17.7391191">
        <ele>29.4575</ele>
        <time>2014-06-10T19:43:40Z</time>
      </trkpt>
      <trkpt lat="59.9758445" lon="17.7391925">
        <ele>29.4575</ele>
        <time>2014-06-10T19:43:41Z</time>
      </trkpt>
      <trkpt lat="59.975884" lon="17.7392606">
        <ele>29.4575</ele>
        <time>2014-06-10T19:43:42Z</time>
      </trkpt>
      <trkpt lat="59.9759226" lon="17.7393284">
        <ele>29.4575</ele>
        <time>2014-06-10T19:43:43Z</time>
      </trkpt>
      <trkpt lat="59.9759596" lon="17.7393956">
        <ele>29.9381</ele>
        <time>2014-06-10T19:43:44Z</time>
      </trkpt>
      <trkpt lat="59.9759951" lon="17.7394579">
        <ele>29.9381</ele>
        <time>2014-06-10T19:43:45Z</time>
      </trkpt>
      <trkpt lat="59.97603" lon="17.7395127">
        <ele>30.4188</ele>
        <time>2014-06-10T19:43:46Z</time>
      </trkpt>
      <trkpt lat="59.9760683" lon="17.7395608">
        <ele>30.4188</ele>
        <time>2014-06-10T19:43:47Z</time>
      </trkpt>
      <trkpt lat="59.9761109" lon="17.7396019">
        <ele>31.3801</ele>
        <time>2014-06-10T19:43:48Z</time>
      </trkpt>
      <trkpt lat="59.9761529" lon="17.7396461">
        <ele>31.8607</ele>
        <time>2014-06-10T19:43:49Z</time>
      </trkpt>
      <trkpt lat="59.9761941" lon="17.7396977">
        <ele>32.3416</ele>
        <time>2014-06-10T19:43:50Z</time>
      </trkpt>
      <trkpt lat="59.9762377" lon="17.7397466">
        <ele>32.3416</ele>
        <time>2014-06-10T19:43:51Z</time>
      </trkpt>
      <trkpt lat="59.9762842" lon="17.7397867">
        <ele>32.8223</ele>
        <time>2014-06-10T19:43:52Z</time>
      </trkpt>
      <trkpt lat="59.9763326" lon="17.739808">
        <ele>33.3029</ele>
        <time>2014-06-10T19:43:53Z</time>
      </trkpt>
      <trkpt lat="59.9763841" lon="17.7398045">
        <ele>33.3029</ele>
        <time>2014-06-10T19:43:54Z</time>
      </trkpt>
      <trkpt lat="59.9764356" lon="17.7397782">
        <ele>33.3029</ele>
        <time>2014-06-10T19:43:55Z</time>
      </trkpt>
      <trkpt lat="59.9764859" lon="17.7397328">
        <ele>33.3029</ele>
        <time>2014-06-10T19:43:56Z</time>
      </trkpt>
      <trkpt lat="59.9765381" lon="17.7396773">
        <ele>33.3029</ele>
        <time>2014-06-10T19:43:57Z</time>
      </trkpt>
      <trkpt lat="59.9765934" lon="17.7396185">
        <ele>33.3029</ele>
        <time>2014-06-10T19:43:58Z</time>
      </trkpt>
      <trkpt lat="59.97665" lon="17.7395667">
        <ele>33.7834</ele>
        <time>2014-06-10T19:43:59Z</time>
      </trkpt>
      <trkpt lat="59.9767081" lon="17.7395237">
        <ele>33.7834</ele>
        <time>2014-06-10T19:44:00Z</time>
      </trkpt>
      <trkpt lat="59.9767687" lon="17.7394858">
        <ele>34.2642</ele>
        <time>2014-06-10T19:44:01Z</time>
      </trkpt>
      <trkpt lat="59.9768281" lon="17.7394564">
        <ele>34.7449</ele>
        <time>2014-06-10T19:44:02Z</time>
      </trkpt>
      <trkpt lat="59.9768853" lon="17.7394299">
        <ele>35.2255</ele>
        <time>2014-06-10T19:44:03Z</time>
      </trkpt>
      <trkpt lat="59.9769413" lon="17.7394044">
        <ele>35.2255</ele>
        <time>2014-06-10T19:44:04Z</time>
      </trkpt>
      <trkpt lat="59.9769965" lon="17.7393771">
        <ele>35.7061</ele>
        <time>2014-06-10T19:44:05Z</time>
      </trkpt>
      <trkpt lat="59.9770501" lon="17.7393425">
        <ele>36.1868</ele>
        <time>2014-06-10T19:44:06Z</time>
      </trkpt>
      <trkpt lat="59.9771029" lon="17.7393026">
        <ele>37.1481</ele>
        <time>2014-06-10T19:44:07Z</time>
      </trkpt>
      <trkpt lat="59.9771527" lon="17.739263">
        <ele>37.6287</ele>
        <time>2014-06-10T19:44:08Z</time>
      </trkpt>
      <trkpt lat="59.9772019" lon="17.7392208">
        <ele>38.1094</ele>
        <time>2014-06-10T19:44:09Z</time>
      </trkpt>
      <trkpt lat="59.9772526" lon="17.7391829">
        <ele>38.5901</ele>
        <time>2014-06-10T19:44:10Z</time>
      </trkpt>
      <trkpt lat="59.9773039" lon="17.7391521">
        <ele>38.5901</ele>
        <time>2014-06-10T19:44:11Z</time>
      </trkpt>
      <trkpt lat="59.9773555" lon="17.739126">
        <ele>38.5901</ele>
        <time>2014-06-10T19:44:12Z</time>
      </trkpt>
      <trkpt lat="59.9774063" lon="17.7391018">
        <ele>39.0707</ele>
        <time>2014-06-10T19:44:13Z</time>
      </trkpt>
      <trkpt lat="59.9774566" lon="17.7390775">
        <ele>39.0707</ele>
        <time>2014-06-10T19:44:14Z</time>
      </trkpt>
      <trkpt lat="59.9775059" lon="17.7390601">
        <ele>39.5513</ele>
        <time>2014-06-10T19:44:15Z</time>
      </trkpt>
      <trkpt lat="59.977554" lon="17.7390524">
        <ele>39.5513</ele>
        <time>2014-06-10T19:44:16Z</time>
      </trkpt>
      <trkpt lat="59.9776006" lon="17.7390455">
        <ele>40.0321</ele>
        <time>2014-06-10T19:44:17Z</time>
      </trkpt>
      <trkpt lat="59.9776458" lon="17.739041">
        <ele>40.5128</ele>
        <time>2014-06-10T19:44:18Z</time>
      </trkpt>
      <trkpt lat="59.9776898" lon="17.7390415">
        <ele>40.5128</ele>
        <time>2014-06-10T19:44:19Z</time>
      </trkpt>
      <trkpt lat="59.9777322" lon="17.7390469">
        <ele>40.5128</ele>
        <time>2014-06-10T19:44:20Z</time>
      </trkpt>
      <trkpt lat="59.9777719" lon="17.7390565">
        <ele>40.9934</ele>
        <time>2014-06-10T19:44:21Z</time>
      </trkpt>
      <trkpt lat="59.9778115" lon="17.7390708">
        <ele>40.9934</ele>
        <time>2014-06-10T19:44:22Z</time>
      </trkpt>
      <trkpt lat="59.9778508" lon="17.7390865">
        <ele>41.474</ele>
        <time>2014-06-10T19:44:23Z</time>
      </trkpt>
      <trkpt lat="59.9778902" lon="17.7391035">
        <ele>41.474</ele>
        <time>2014-06-10T19:44:24Z</time>
      </trkpt>
      <trkpt lat="59.97793" lon="17.7391246">
        <ele>41.9547</ele>
        <time>2014-06-10T19:44:25Z</time>
      </trkpt>
      <trkpt lat="59.9779701" lon="17.7391497">
        <ele>41.9547</ele>
        <time>2014-06-10T19:44:26Z</time>
      </trkpt>
      <trkpt lat="59.9780128" lon="17.7391756">
        <ele>42.4354</ele>
        <time>2014-06-10T19:44:27Z</time>
      </trkpt>
      <trkpt lat="59.9780586" lon="17.7391992">
        <ele>42.4354</ele>
        <time>2014-06-10T19:44:28Z</time>
      </trkpt>
      <trkpt lat="59.978106" lon="17.7392216">
        <ele>42.4354</ele>
        <time>2014-06-10T19:44:29Z</time>
      </trkpt>
      <trkpt lat="59.9781529" lon="17.7392397">
        <ele>42.4354</ele>
        <time>2014-06-10T19:44:30Z</time>
      </trkpt>
      <trkpt lat="59.9781994" lon="17.7392492">
        <ele>42.4354</ele>
        <time>2014-06-10T19:44:31Z</time>
      </trkpt>
      <trkpt lat="59.9782472" lon="17.7392534">
        <ele>42.916</ele>
        <time>2014-06-10T19:44:32Z</time>
      </trkpt>
      <trkpt lat="59.9782943" lon="17.7392609">
        <ele>42.916</ele>
        <time>2014-06-10T19:44:33Z</time>
      </trkpt>
      <trkpt lat="59.978341" lon="17.73927">
        <ele>42.916</ele>
        <time>2014-06-10T19:44:34Z</time>
      </trkpt>
      <trkpt lat="59.9783875" lon="17.7392764">
        <ele>42.916</ele>
        <time>2014-06-10T19:44:35Z</time>
      </trkpt>
      <trkpt lat="59.9784344" lon="17.7392823">
        <ele>42.916</ele>
        <time>2014-06-10T19:44:36Z</time>
      </trkpt>
      <trkpt lat="59.9784823" lon="17.739291">
        <ele>42.4354</ele>
        <time>2014-06-10T19:44:37Z</time>
      </trkpt>
      <trkpt lat="59.9785292" lon="17.7393028">
        <ele>42.4354</ele>
        <time>2014-06-10T19:44:38Z</time>
      </trkpt>
      <trkpt lat="59.9785767" lon="17.7393145">
        <ele>41.9547</ele>
        <time>2014-06-10T19:44:39Z</time>
      </trkpt>
      <trkpt lat="59.9786251" lon="17.7393189">
        <ele>41.474</ele>
        <time>2014-06-10T19:44:40Z</time>
      </trkpt>
      <trkpt lat="59.9786728" lon="17.7393257">
        <ele>40.9934</ele>
        <time>2014-06-10T19:44:41Z</time>
      </trkpt>
    </trkseg>
  </trk>
</gpx>